<?xml version='1.0' encoding='UTF-8'?><gpx version="1.1" creator="JPX - https://github.com/jenetics/jpx" xmlns="http://www.topografix.com/GPX/1/1"><trk><trkseg><trkpt lat="44.7832543" lon="9.96816"><ele>225.0</ele><time>2026-05-03T11:15:29.101Z</time></trkpt><trkpt lat="44.783282" lon="9.9682715"><ele>225.0</ele><time>2026-05-03T11:15:49.618Z</time></trkpt><trkpt lat="44.7832177" lon="9.9683918"><ele>225.0</ele><time>2026-05-03T11:15:51.61Z</time></trkpt><trkpt lat="44.7831463" lon="9.968491"><ele>225.0</ele><time>2026-05-03T11:15:53.632Z</time></trkpt><trkpt lat="44.7830921" lon="9.9686129"><ele>225.0</ele><time>2026-05-03T11:15:55.631Z</time></trkpt><trkpt lat="44.7830562" lon="9.9687067"><ele>225.0</ele><time>2026-05-03T11:15:57.633Z</time></trkpt><trkpt lat="44.7831232" lon="9.9685215"><ele>225.0</ele><time>2026-05-03T11:15:59.634Z</time></trkpt><trkpt lat="44.7832689" lon="9.9684164"><ele>225.0</ele><time>2026-05-03T11:16:41.635Z</time></trkpt><trkpt lat="44.7832559" lon="9.9683016"><ele>225.0</ele><time>2026-05-03T11:16:43.649Z</time></trkpt><trkpt lat="44.7832315" lon="9.9681793"><ele>225.0</ele><time>2026-05-03T11:16:51.542Z</time></trkpt><trkpt lat="44.783299" lon="9.9682142"><ele>225.0</ele><time>2026-05-03T11:17:11.648Z</time></trkpt><trkpt lat="44.7833978" lon="9.9681538"><ele>225.0</ele><time>2026-05-03T11:17:13.649Z</time></trkpt><trkpt lat="44.783655" lon="9.9680228"><ele>224.66666666666669</ele><time>2026-05-03T11:17:14.662Z</time></trkpt><trkpt lat="44.7838012" lon="9.967916"><ele>224.33333333333334</ele><time>2026-05-03T11:17:15.648Z</time></trkpt><trkpt lat="44.7838796" lon="9.9678442"><ele>224.0</ele><time>2026-05-03T11:17:16.587Z</time></trkpt><trkpt lat="44.7836814" lon="9.9673662"><ele>224.5</ele><time>2026-05-03T11:17:18.648Z</time></trkpt><trkpt lat="44.7835783" lon="9.9672397"><ele>225.0</ele><time>2026-05-03T11:17:19.662Z</time></trkpt><trkpt lat="44.7834686" lon="9.9671192"><ele>225.5</ele><time>2026-05-03T11:17:20.648Z</time></trkpt><trkpt lat="44.7833535" lon="9.9669888"><ele>226.0</ele><time>2026-05-03T11:17:21.647Z</time></trkpt><trkpt lat="44.7832481" lon="9.9668538"><ele>226.0</ele><time>2026-05-03T11:17:22.645Z</time></trkpt><trkpt lat="44.7831639" lon="9.9667085"><ele>226.0</ele><time>2026-05-03T11:17:23.641Z</time></trkpt><trkpt lat="44.7831179" lon="9.9665496"><ele>226.0</ele><time>2026-05-03T11:17:24.637Z</time></trkpt><trkpt lat="44.7831143" lon="9.9663643"><ele>226.0</ele><time>2026-05-03T11:17:25.66Z</time></trkpt><trkpt lat="44.7831425" lon="9.9661648"><ele>226.5</ele><time>2026-05-03T11:17:26.645Z</time></trkpt><trkpt lat="44.7831824" lon="9.9659533"><ele>227.0</ele><time>2026-05-03T11:17:27.646Z</time></trkpt><trkpt lat="44.7832148" lon="9.9657501"><ele>227.5</ele><time>2026-05-03T11:17:28.646Z</time></trkpt><trkpt lat="44.7832181" lon="9.9655449"><ele>228.0</ele><time>2026-05-03T11:17:29.647Z</time></trkpt><trkpt lat="44.7832033" lon="9.9653295"><ele>229.66666666666669</ele><time>2026-05-03T11:17:30.659Z</time></trkpt><trkpt lat="44.783175" lon="9.9651106"><ele>231.33333333333334</ele><time>2026-05-03T11:17:31.647Z</time></trkpt><trkpt lat="44.7831382" lon="9.9648785"><ele>233.0</ele><time>2026-05-03T11:17:32.815Z</time></trkpt><trkpt lat="44.7830463" lon="9.9644973"><ele>233.33333333333334</ele><time>2026-05-03T11:17:34.669Z</time></trkpt><trkpt lat="44.7829324" lon="9.9643144"><ele>233.66666666666669</ele><time>2026-05-03T11:17:35.688Z</time></trkpt><trkpt lat="44.7827749" lon="9.9641363"><ele>234.0</ele><time>2026-05-03T11:17:36.643Z</time></trkpt><trkpt lat="44.7826038" lon="9.9639603"><ele>233.33333333333331</ele><time>2026-05-03T11:17:37.649Z</time></trkpt><trkpt lat="44.7824493" lon="9.9637796"><ele>232.66666666666666</ele><time>2026-05-03T11:17:38.652Z</time></trkpt><trkpt lat="44.7822948" lon="9.9636107"><ele>232.0</ele><time>2026-05-03T11:17:39.648Z</time></trkpt><trkpt lat="44.782166" lon="9.9634484"><ele>232.0</ele><time>2026-05-03T11:17:40.657Z</time></trkpt><trkpt lat="44.7820533" lon="9.9632945"><ele>232.0</ele><time>2026-05-03T11:17:41.65Z</time></trkpt><trkpt lat="44.7819509" lon="9.963143"><ele>232.0</ele><time>2026-05-03T11:17:42.656Z</time></trkpt><trkpt lat="44.7818649" lon="9.9629869"><ele>232.0</ele><time>2026-05-03T11:17:43.68Z</time></trkpt><trkpt lat="44.7818291" lon="9.9628196"><ele>232.0</ele><time>2026-05-03T11:17:44.658Z</time></trkpt><trkpt lat="44.7818362" lon="9.9626409"><ele>232.0</ele><time>2026-05-03T11:17:45.669Z</time></trkpt><trkpt lat="44.781869" lon="9.9624512"><ele>232.0</ele><time>2026-05-03T11:17:46.682Z</time></trkpt><trkpt lat="44.7818951" lon="9.9622671"><ele>232.0</ele><time>2026-05-03T11:17:47.654Z</time></trkpt><trkpt lat="44.781973" lon="9.962067"><ele>232.5</ele><time>2026-05-03T11:17:48.656Z</time></trkpt><trkpt lat="44.781998" lon="9.9618766"><ele>233.0</ele><time>2026-05-03T11:17:49.678Z</time></trkpt><trkpt lat="44.7819777" lon="9.9617015"><ele>233.5</ele><time>2026-05-03T11:17:50.688Z</time></trkpt><trkpt lat="44.7819075" lon="9.9615421"><ele>234.0</ele><time>2026-05-03T11:17:51.685Z</time></trkpt><trkpt lat="44.7817988" lon="9.9613927"><ele>234.0</ele><time>2026-05-03T11:17:52.682Z</time></trkpt><trkpt lat="44.7816842" lon="9.9612542"><ele>234.0</ele><time>2026-05-03T11:17:53.686Z</time></trkpt><trkpt lat="44.7815438" lon="9.9611425"><ele>234.0</ele><time>2026-05-03T11:17:54.685Z</time></trkpt><trkpt lat="44.7813687" lon="9.9610602"><ele>234.0</ele><time>2026-05-03T11:17:55.683Z</time></trkpt><trkpt lat="44.7811757" lon="9.9610204"><ele>234.0</ele><time>2026-05-03T11:17:56.651Z</time></trkpt><trkpt lat="44.7810054" lon="9.960957"><ele>234.0</ele><time>2026-05-03T11:17:57.682Z</time></trkpt><trkpt lat="44.7808258" lon="9.9608696"><ele>235.0</ele><time>2026-05-03T11:17:58.691Z</time></trkpt><trkpt lat="44.7806657" lon="9.9607296"><ele>236.0</ele><time>2026-05-03T11:17:59.661Z</time></trkpt><trkpt lat="44.7805399" lon="9.9605695"><ele>237.0</ele><time>2026-05-03T11:18:00.654Z</time></trkpt><trkpt lat="44.7804397" lon="9.9603859"><ele>237.0</ele><time>2026-05-03T11:18:01.643Z</time></trkpt><trkpt lat="44.7803992" lon="9.9601848"><ele>237.0</ele><time>2026-05-03T11:18:02.658Z</time></trkpt><trkpt lat="44.780431" lon="9.959956"><ele>237.0</ele><time>2026-05-03T11:18:03.662Z</time></trkpt><trkpt lat="44.7804548" lon="9.9597442"><ele>238.66666666666669</ele><time>2026-05-03T11:18:04.659Z</time></trkpt><trkpt lat="44.7804735" lon="9.959522"><ele>240.33333333333334</ele><time>2026-05-03T11:18:05.671Z</time></trkpt><trkpt lat="44.7804652" lon="9.9592767"><ele>242.0</ele><time>2026-05-03T11:18:06.68Z</time></trkpt><trkpt lat="44.78042" lon="9.9590383"><ele>243.0</ele><time>2026-05-03T11:18:07.689Z</time></trkpt><trkpt lat="44.7803476" lon="9.9588104"><ele>244.0</ele><time>2026-05-03T11:18:08.687Z</time></trkpt><trkpt lat="44.7802824" lon="9.9586008"><ele>245.0</ele><time>2026-05-03T11:18:09.687Z</time></trkpt><trkpt lat="44.780219" lon="9.9583937"><ele>244.66666666666669</ele><time>2026-05-03T11:18:10.694Z</time></trkpt><trkpt lat="44.7801459" lon="9.9581942"><ele>244.33333333333331</ele><time>2026-05-03T11:18:11.677Z</time></trkpt><trkpt lat="44.7800915" lon="9.9580035"><ele>244.0</ele><time>2026-05-03T11:18:12.676Z</time></trkpt><trkpt lat="44.7800401" lon="9.957795"><ele>244.0</ele><time>2026-05-03T11:18:13.657Z</time></trkpt><trkpt lat="44.7800231" lon="9.957571"><ele>244.0</ele><time>2026-05-03T11:18:14.66Z</time></trkpt><trkpt lat="44.7800501" lon="9.9573176"><ele>244.0</ele><time>2026-05-03T11:18:15.671Z</time></trkpt><trkpt lat="44.7800954" lon="9.9570757"><ele>243.66666666666666</ele><time>2026-05-03T11:18:16.663Z</time></trkpt><trkpt lat="44.7801682" lon="9.9568601"><ele>243.33333333333331</ele><time>2026-05-03T11:18:17.659Z</time></trkpt><trkpt lat="44.7802167" lon="9.9566557"><ele>243.0</ele><time>2026-05-03T11:18:18.659Z</time></trkpt><trkpt lat="44.7802493" lon="9.9564489"><ele>245.75</ele><time>2026-05-03T11:18:19.684Z</time></trkpt><trkpt lat="44.7802974" lon="9.9562745"><ele>248.5</ele><time>2026-05-03T11:18:20.696Z</time></trkpt><trkpt lat="44.7803019" lon="9.9561159"><ele>251.25</ele><time>2026-05-03T11:18:21.68Z</time></trkpt><trkpt lat="44.7802612" lon="9.9559676"><ele>254.0</ele><time>2026-05-03T11:18:22.684Z</time></trkpt><trkpt lat="44.7801702" lon="9.9557672"><ele>254.0</ele><time>2026-05-03T11:18:23.684Z</time></trkpt><trkpt lat="44.7800686" lon="9.9555584"><ele>254.0</ele><time>2026-05-03T11:18:24.686Z</time></trkpt><trkpt lat="44.7799544" lon="9.9553309"><ele>254.0</ele><time>2026-05-03T11:18:25.67Z</time></trkpt><trkpt lat="44.779839" lon="9.9551046"><ele>257.33333333333337</ele><time>2026-05-03T11:18:26.658Z</time></trkpt><trkpt lat="44.7797712" lon="9.9548799"><ele>260.6666666666667</ele><time>2026-05-03T11:18:27.653Z</time></trkpt><trkpt lat="44.7797497" lon="9.9546513"><ele>264.0</ele><time>2026-05-03T11:18:28.654Z</time></trkpt><trkpt lat="44.7797586" lon="9.9543964"><ele>264.3333333333333</ele><time>2026-05-03T11:18:29.662Z</time></trkpt><trkpt lat="44.7797654" lon="9.9541152"><ele>264.66666666666663</ele><time>2026-05-03T11:18:30.703Z</time></trkpt><trkpt lat="44.7797755" lon="9.953831"><ele>265.0</ele><time>2026-05-03T11:18:31.686Z</time></trkpt><trkpt lat="44.7797805" lon="9.9535923"><ele>265.0</ele><time>2026-05-03T11:18:32.689Z</time></trkpt><trkpt lat="44.7797709" lon="9.9534116"><ele>265.0</ele><time>2026-05-03T11:18:33.686Z</time></trkpt><trkpt lat="44.779724" lon="9.9531533"><ele>265.0</ele><time>2026-05-03T11:18:34.688Z</time></trkpt><trkpt lat="44.779662" lon="9.9529106"><ele>267.5</ele><time>2026-05-03T11:18:35.614Z</time></trkpt><trkpt lat="44.7794813" lon="9.9525215"><ele>270.0</ele><time>2026-05-03T11:18:36.679Z</time></trkpt><trkpt lat="44.779362" lon="9.9522588"><ele>269.6666666666667</ele><time>2026-05-03T11:18:37.686Z</time></trkpt><trkpt lat="44.7792265" lon="9.9521648"><ele>269.33333333333337</ele><time>2026-05-03T11:18:38.68Z</time></trkpt><trkpt lat="44.7791711" lon="9.9519271"><ele>269.0</ele><time>2026-05-03T11:18:39.663Z</time></trkpt><trkpt lat="44.7791668" lon="9.9516887"><ele>269.0</ele><time>2026-05-03T11:18:40.569Z</time></trkpt><trkpt lat="44.7792536" lon="9.9514293"><ele>269.0</ele><time>2026-05-03T11:18:41.655Z</time></trkpt><trkpt lat="44.7793363" lon="9.951188"><ele>269.0</ele><time>2026-05-03T11:18:42.665Z</time></trkpt><trkpt lat="44.7794091" lon="9.9509322"><ele>274.6666666666667</ele><time>2026-05-03T11:18:43.669Z</time></trkpt><trkpt lat="44.7794783" lon="9.9506994"><ele>280.3333333333333</ele><time>2026-05-03T11:18:44.593Z</time></trkpt><trkpt lat="44.7794824" lon="9.9504722"><ele>286.0</ele><time>2026-05-03T11:18:45.671Z</time></trkpt><trkpt lat="44.779508" lon="9.9502454"><ele>286.3333333333333</ele><time>2026-05-03T11:18:46.681Z</time></trkpt><trkpt lat="44.7795517" lon="9.9500197"><ele>286.6666666666667</ele><time>2026-05-03T11:18:47.661Z</time></trkpt><trkpt lat="44.7795941" lon="9.9498056"><ele>287.0</ele><time>2026-05-03T11:18:48.653Z</time></trkpt><trkpt lat="44.7796165" lon="9.9496072"><ele>287.0</ele><time>2026-05-03T11:18:49.683Z</time></trkpt><trkpt lat="44.7795775" lon="9.9494172"><ele>287.0</ele><time>2026-05-03T11:18:50.702Z</time></trkpt><trkpt lat="44.7794654" lon="9.9492404"><ele>287.0</ele><time>2026-05-03T11:18:51.683Z</time></trkpt><trkpt lat="44.779331" lon="9.9490784"><ele>286.33333333333337</ele><time>2026-05-03T11:18:52.675Z</time></trkpt><trkpt lat="44.7791858" lon="9.9489298"><ele>285.6666666666667</ele><time>2026-05-03T11:18:53.647Z</time></trkpt><trkpt lat="44.7790405" lon="9.9487462"><ele>285.0</ele><time>2026-05-03T11:18:54.637Z</time></trkpt><trkpt lat="44.7789069" lon="9.948544"><ele>287.5</ele><time>2026-05-03T11:18:55.651Z</time></trkpt><trkpt lat="44.7788279" lon="9.9483599"><ele>290.0</ele><time>2026-05-03T11:18:56.651Z</time></trkpt><trkpt lat="44.7788257" lon="9.948182"><ele>292.5</ele><time>2026-05-03T11:18:57.653Z</time></trkpt><trkpt lat="44.7789196" lon="9.948008"><ele>295.0</ele><time>2026-05-03T11:18:58.65Z</time></trkpt><trkpt lat="44.7789664" lon="9.947814"><ele>295.0</ele><time>2026-05-03T11:18:59.655Z</time></trkpt><trkpt lat="44.7789728" lon="9.9475819"><ele>295.0</ele><time>2026-05-03T11:19:00.694Z</time></trkpt><trkpt lat="44.7789418" lon="9.9473352"><ele>295.0</ele><time>2026-05-03T11:19:01.686Z</time></trkpt><trkpt lat="44.7789212" lon="9.9470787"><ele>294.3333333333333</ele><time>2026-05-03T11:19:02.688Z</time></trkpt><trkpt lat="44.7788899" lon="9.9468257"><ele>293.6666666666667</ele><time>2026-05-03T11:19:03.684Z</time></trkpt><trkpt lat="44.7788423" lon="9.9465826"><ele>293.0</ele><time>2026-05-03T11:19:04.687Z</time></trkpt><trkpt lat="44.7788072" lon="9.9463536"><ele>293.0</ele><time>2026-05-03T11:19:05.697Z</time></trkpt><trkpt lat="44.778761" lon="9.9461231"><ele>293.0</ele><time>2026-05-03T11:19:06.687Z</time></trkpt><trkpt lat="44.7786773" lon="9.9458785"><ele>293.0</ele><time>2026-05-03T11:19:07.684Z</time></trkpt><trkpt lat="44.7785716" lon="9.9456628"><ele>292.6666666666667</ele><time>2026-05-03T11:19:08.673Z</time></trkpt><trkpt lat="44.7783931" lon="9.9455089"><ele>292.3333333333333</ele><time>2026-05-03T11:19:09.681Z</time></trkpt><trkpt lat="44.7782108" lon="9.9453839"><ele>292.0</ele><time>2026-05-03T11:19:10.652Z</time></trkpt><trkpt lat="44.7780196" lon="9.9452622"><ele>292.0</ele><time>2026-05-03T11:19:11.655Z</time></trkpt><trkpt lat="44.7778246" lon="9.94513"><ele>292.0</ele><time>2026-05-03T11:19:12.652Z</time></trkpt><trkpt lat="44.7776548" lon="9.9449632"><ele>292.0</ele><time>2026-05-03T11:19:13.676Z</time></trkpt><trkpt lat="44.7775378" lon="9.944737"><ele>294.3333333333333</ele><time>2026-05-03T11:19:14.686Z</time></trkpt><trkpt lat="44.7774632" lon="9.9445188"><ele>296.6666666666667</ele><time>2026-05-03T11:19:15.681Z</time></trkpt><trkpt lat="44.7774247" lon="9.9442993"><ele>299.0</ele><time>2026-05-03T11:19:16.691Z</time></trkpt><trkpt lat="44.7773659" lon="9.9440916"><ele>302.33333333333337</ele><time>2026-05-03T11:19:17.689Z</time></trkpt><trkpt lat="44.7772711" lon="9.9439293"><ele>305.6666666666667</ele><time>2026-05-03T11:19:18.69Z</time></trkpt><trkpt lat="44.777124" lon="9.9438264"><ele>309.0</ele><time>2026-05-03T11:19:19.69Z</time></trkpt><trkpt lat="44.776938" lon="9.9437869"><ele>309.0</ele><time>2026-05-03T11:19:20.66Z</time></trkpt><trkpt lat="44.776733" lon="9.9437855"><ele>309.0</ele><time>2026-05-03T11:19:21.655Z</time></trkpt><trkpt lat="44.7765575" lon="9.9437867"><ele>309.0</ele><time>2026-05-03T11:19:22.643Z</time></trkpt><trkpt lat="44.7763568" lon="9.9438672"><ele>309.0</ele><time>2026-05-03T11:19:23.647Z</time></trkpt><trkpt lat="44.7761719" lon="9.9439461"><ele>309.0</ele><time>2026-05-03T11:19:24.655Z</time></trkpt><trkpt lat="44.7759606" lon="9.9440062"><ele>309.0</ele><time>2026-05-03T11:19:25.657Z</time></trkpt><trkpt lat="44.7757674" lon="9.9440596"><ele>309.3333333333333</ele><time>2026-05-03T11:19:26.656Z</time></trkpt><trkpt lat="44.7756024" lon="9.9440618"><ele>309.66666666666663</ele><time>2026-05-03T11:19:27.653Z</time></trkpt><trkpt lat="44.775436" lon="9.9440163"><ele>310.0</ele><time>2026-05-03T11:19:28.657Z</time></trkpt><trkpt lat="44.7752916" lon="9.9439012"><ele>311.66666666666663</ele><time>2026-05-03T11:19:29.659Z</time></trkpt><trkpt lat="44.7751387" lon="9.9437389"><ele>313.3333333333333</ele><time>2026-05-03T11:19:30.662Z</time></trkpt><trkpt lat="44.774982" lon="9.9436051"><ele>315.0</ele><time>2026-05-03T11:19:31.655Z</time></trkpt><trkpt lat="44.7748241" lon="9.9434739"><ele>315.3333333333333</ele><time>2026-05-03T11:19:32.653Z</time></trkpt><trkpt lat="44.774656" lon="9.9433781"><ele>315.66666666666663</ele><time>2026-05-03T11:19:33.652Z</time></trkpt><trkpt lat="44.7744831" lon="9.9432579"><ele>316.0</ele><time>2026-05-03T11:19:34.647Z</time></trkpt><trkpt lat="44.7743182" lon="9.9430645"><ele>316.0</ele><time>2026-05-03T11:19:35.656Z</time></trkpt><trkpt lat="44.7741758" lon="9.9428238"><ele>316.0</ele><time>2026-05-03T11:19:36.658Z</time></trkpt><trkpt lat="44.7740433" lon="9.9426031"><ele>316.0</ele><time>2026-05-03T11:19:37.652Z</time></trkpt><trkpt lat="44.7739294" lon="9.9423825"><ele>317.66666666666663</ele><time>2026-05-03T11:19:38.643Z</time></trkpt><trkpt lat="44.7738467" lon="9.9421367"><ele>319.3333333333333</ele><time>2026-05-03T11:19:39.642Z</time></trkpt><trkpt lat="44.7737665" lon="9.9418858"><ele>321.0</ele><time>2026-05-03T11:19:40.65Z</time></trkpt><trkpt lat="44.7737203" lon="9.9416226"><ele>322.3333333333333</ele><time>2026-05-03T11:19:41.65Z</time></trkpt><trkpt lat="44.7737052" lon="9.9413239"><ele>323.66666666666663</ele><time>2026-05-03T11:19:42.702Z</time></trkpt><trkpt lat="44.7736894" lon="9.9410403"><ele>325.0</ele><time>2026-05-03T11:19:43.709Z</time></trkpt><trkpt lat="44.7736829" lon="9.940742"><ele>325.5</ele><time>2026-05-03T11:19:44.688Z</time></trkpt><trkpt lat="44.7736671" lon="9.9404157"><ele>326.0</ele><time>2026-05-03T11:19:45.686Z</time></trkpt><trkpt lat="44.7736294" lon="9.940103"><ele>327.0</ele><time>2026-05-03T11:19:46.682Z</time></trkpt><trkpt lat="44.7735941" lon="9.9397998"><ele>328.0</ele><time>2026-05-03T11:19:47.687Z</time></trkpt><trkpt lat="44.7735727" lon="9.9395275"><ele>329.0</ele><time>2026-05-03T11:19:48.684Z</time></trkpt><trkpt lat="44.773558" lon="9.9392587"><ele>330.33333333333337</ele><time>2026-05-03T11:19:49.68Z</time></trkpt><trkpt lat="44.7735777" lon="9.939003"><ele>331.6666666666667</ele><time>2026-05-03T11:19:50.681Z</time></trkpt><trkpt lat="44.77362" lon="9.9387618"><ele>333.0</ele><time>2026-05-03T11:19:51.66Z</time></trkpt><trkpt lat="44.7736838" lon="9.938538"><ele>333.6666666666667</ele><time>2026-05-03T11:19:52.658Z</time></trkpt><trkpt lat="44.7737465" lon="9.9383106"><ele>334.33333333333337</ele><time>2026-05-03T11:19:53.685Z</time></trkpt><trkpt lat="44.7738056" lon="9.9381007"><ele>335.0</ele><time>2026-05-03T11:19:54.683Z</time></trkpt><trkpt lat="44.7738629" lon="9.9379096"><ele>335.0</ele><time>2026-05-03T11:19:55.651Z</time></trkpt><trkpt lat="44.7738913" lon="9.9377118"><ele>335.0</ele><time>2026-05-03T11:19:56.658Z</time></trkpt><trkpt lat="44.7739088" lon="9.9375327"><ele>335.0</ele><time>2026-05-03T11:19:57.656Z</time></trkpt><trkpt lat="44.773885" lon="9.9374079"><ele>335.0</ele><time>2026-05-03T11:19:58.688Z</time></trkpt><trkpt lat="44.773831" lon="9.9373349"><ele>335.0</ele><time>2026-05-03T11:19:59.659Z</time></trkpt><trkpt lat="44.7737164" lon="9.9372982"><ele>335.0</ele><time>2026-05-03T11:20:00.659Z</time></trkpt><trkpt lat="44.7735342" lon="9.937283"><ele>335.0</ele><time>2026-05-03T11:20:01.662Z</time></trkpt><trkpt lat="44.7733497" lon="9.9372325"><ele>335.0</ele><time>2026-05-03T11:20:02.666Z</time></trkpt><trkpt lat="44.7731241" lon="9.9371691"><ele>335.2</ele><time>2026-05-03T11:20:03.667Z</time></trkpt><trkpt lat="44.7729302" lon="9.9370791"><ele>335.4</ele><time>2026-05-03T11:20:04.666Z</time></trkpt><trkpt lat="44.7728692" lon="9.9370213"><ele>335.6</ele><time>2026-05-03T11:20:05.67Z</time></trkpt><trkpt lat="44.7727896" lon="9.9369883"><ele>335.8</ele><time>2026-05-03T11:20:06.661Z</time></trkpt><trkpt lat="44.7727266" lon="9.9369776"><ele>336.0</ele><time>2026-05-03T11:20:08.66Z</time></trkpt><trkpt lat="44.7726825" lon="9.9371127"><ele>336.0</ele><time>2026-05-03T11:20:11.654Z</time></trkpt><trkpt lat="44.7727054" lon="9.9372023"><ele>336.0</ele><time>2026-05-03T11:20:15.572Z</time></trkpt><trkpt lat="44.7726321" lon="9.9372564"><ele>336.0</ele><time>2026-05-03T11:20:19.651Z</time></trkpt><trkpt lat="44.7725013" lon="9.9372548"><ele>336.0</ele><time>2026-05-03T11:20:21.653Z</time></trkpt><trkpt lat="44.7722113" lon="9.937247"><ele>343.5</ele><time>2026-05-03T11:20:22.653Z</time></trkpt><trkpt lat="44.7718682" lon="9.937229"><ele>351.0</ele><time>2026-05-03T11:20:23.653Z</time></trkpt><trkpt lat="44.7715825" lon="9.9371941"><ele>354.0</ele><time>2026-05-03T11:20:24.654Z</time></trkpt><trkpt lat="44.7713756" lon="9.937169"><ele>357.0</ele><time>2026-05-03T11:20:25.637Z</time></trkpt><trkpt lat="44.7712055" lon="9.9371476"><ele>360.0</ele><time>2026-05-03T11:20:26.64Z</time></trkpt><trkpt lat="44.77108" lon="9.9371297"><ele>360.0</ele><time>2026-05-03T11:20:27.648Z</time></trkpt><trkpt lat="44.7709918" lon="9.9371566"><ele>360.0</ele><time>2026-05-03T11:20:28.648Z</time></trkpt><trkpt lat="44.7709348" lon="9.9372288"><ele>360.0</ele><time>2026-05-03T11:20:29.645Z</time></trkpt><trkpt lat="44.7709195" lon="9.9373249"><ele>360.0</ele><time>2026-05-03T11:20:30.652Z</time></trkpt><trkpt lat="44.7710075" lon="9.9373843"><ele>360.0</ele><time>2026-05-03T11:20:31.659Z</time></trkpt><trkpt lat="44.7712266" lon="9.9374183"><ele>360.0</ele><time>2026-05-03T11:20:32.66Z</time></trkpt><trkpt lat="44.7714067" lon="9.9374396"><ele>360.0</ele><time>2026-05-03T11:20:33.655Z</time></trkpt><trkpt lat="44.7715321" lon="9.9374507"><ele>360.0</ele><time>2026-05-03T11:20:34.657Z</time></trkpt><trkpt lat="44.7716269" lon="9.9375083"><ele>360.0</ele><time>2026-05-03T11:20:35.659Z</time></trkpt><trkpt lat="44.7716845" lon="9.9375867"><ele>364.5</ele><time>2026-05-03T11:20:36.665Z</time></trkpt><trkpt lat="44.7715975" lon="9.9376505"><ele>369.0</ele><time>2026-05-03T11:20:39.678Z</time></trkpt><trkpt lat="44.7714218" lon="9.9376339"><ele>373.5</ele><time>2026-05-03T11:20:40.648Z</time></trkpt><trkpt lat="44.7712585" lon="9.9376587"><ele>378.0</ele><time>2026-05-03T11:20:41.652Z</time></trkpt><trkpt lat="44.7711064" lon="9.9377448"><ele>378.2</ele><time>2026-05-03T11:20:42.652Z</time></trkpt><trkpt lat="44.7709926" lon="9.937866"><ele>378.4</ele><time>2026-05-03T11:20:43.656Z</time></trkpt><trkpt lat="44.7709145" lon="9.9379669"><ele>378.59999999999997</ele><time>2026-05-03T11:20:44.657Z</time></trkpt><trkpt lat="44.7708394" lon="9.9380511"><ele>378.79999999999995</ele><time>2026-05-03T11:20:45.648Z</time></trkpt><trkpt lat="44.7707691" lon="9.9380889"><ele>379.0</ele><time>2026-05-03T11:20:46.646Z</time></trkpt><trkpt lat="44.7707029" lon="9.9380304"><ele>379.0</ele><time>2026-05-03T11:20:47.676Z</time></trkpt><trkpt lat="44.7706391" lon="9.9378422"><ele>379.0</ele><time>2026-05-03T11:20:48.672Z</time></trkpt><trkpt lat="44.7705757" lon="9.937683"><ele>379.0</ele><time>2026-05-03T11:20:49.657Z</time></trkpt><trkpt lat="44.770486" lon="9.937522"><ele>379.0</ele><time>2026-05-03T11:20:50.681Z</time></trkpt><trkpt lat="44.7703935" lon="9.9374285"><ele>379.0</ele><time>2026-05-03T11:20:51.654Z</time></trkpt><trkpt lat="44.7703028" lon="9.9373814"><ele>379.0</ele><time>2026-05-03T11:20:52.655Z</time></trkpt><trkpt lat="44.7702098" lon="9.9373628"><ele>379.0</ele><time>2026-05-03T11:20:53.654Z</time></trkpt><trkpt lat="44.7701063" lon="9.9373914"><ele>379.0</ele><time>2026-05-03T11:20:54.653Z</time></trkpt><trkpt lat="44.7700419" lon="9.9375086"><ele>379.0</ele><time>2026-05-03T11:20:55.66Z</time></trkpt><trkpt lat="44.7699993" lon="9.9377587"><ele>379.0</ele><time>2026-05-03T11:20:57.655Z</time></trkpt><trkpt lat="44.7700444" lon="9.9378316"><ele>379.0</ele><time>2026-05-03T11:21:00.66Z</time></trkpt><trkpt lat="44.7702754" lon="9.938066"><ele>379.0</ele><time>2026-05-03T11:21:02.67Z</time></trkpt><trkpt lat="44.7704983" lon="9.9382537"><ele>382.66666666666663</ele><time>2026-05-03T11:21:03.661Z</time></trkpt><trkpt lat="44.7707542" lon="9.9384122"><ele>386.3333333333333</ele><time>2026-05-03T11:21:04.661Z</time></trkpt><trkpt lat="44.7709133" lon="9.938458"><ele>390.0</ele><time>2026-05-03T11:21:05.661Z</time></trkpt><trkpt lat="44.7710586" lon="9.938474"><ele>390.5</ele><time>2026-05-03T11:21:06.664Z</time></trkpt><trkpt lat="44.7712969" lon="9.9385087"><ele>391.0</ele><time>2026-05-03T11:21:07.656Z</time></trkpt><trkpt lat="44.7715032" lon="9.9385901"><ele>391.0</ele><time>2026-05-03T11:21:08.659Z</time></trkpt><trkpt lat="44.7717539" lon="9.938777"><ele>391.0</ele><time>2026-05-03T11:21:09.652Z</time></trkpt><trkpt lat="44.7718117" lon="9.9388256"><ele>391.0</ele><time>2026-05-03T11:21:11.659Z</time></trkpt><trkpt lat="44.7718039" lon="9.939045"><ele>386.6666666666667</ele><time>2026-05-03T11:21:12.659Z</time></trkpt><trkpt lat="44.7717757" lon="9.9392763"><ele>382.33333333333337</ele><time>2026-05-03T11:21:13.662Z</time></trkpt><trkpt lat="44.7717409" lon="9.9394817"><ele>378.0</ele><time>2026-05-03T11:21:14.57Z</time></trkpt><trkpt lat="44.771623" lon="9.9397429"><ele>378.0</ele><time>2026-05-03T11:21:15.684Z</time></trkpt><trkpt lat="44.7715831" lon="9.9398318"><ele>378.0</ele><time>2026-05-03T11:21:16.683Z</time></trkpt><trkpt lat="44.771392" lon="9.9399754"><ele>378.0</ele><time>2026-05-03T11:21:17.683Z</time></trkpt><trkpt lat="44.7711949" lon="9.9401119"><ele>385.5</ele><time>2026-05-03T11:21:18.659Z</time></trkpt><trkpt lat="44.7709649" lon="9.9402626"><ele>393.0</ele><time>2026-05-03T11:21:19.651Z</time></trkpt><trkpt lat="44.7707341" lon="9.9403734"><ele>393.0</ele><time>2026-05-03T11:21:20.672Z</time></trkpt><trkpt lat="44.7705622" lon="9.9404548"><ele>393.0</ele><time>2026-05-03T11:21:21.648Z</time></trkpt><trkpt lat="44.7703686" lon="9.9405683"><ele>393.0</ele><time>2026-05-03T11:21:22.652Z</time></trkpt><trkpt lat="44.7702334" lon="9.9407475"><ele>399.33333333333337</ele><time>2026-05-03T11:21:23.652Z</time></trkpt><trkpt lat="44.7701478" lon="9.9410413"><ele>405.6666666666667</ele><time>2026-05-03T11:21:24.661Z</time></trkpt><trkpt lat="44.7700758" lon="9.9412865"><ele>412.0</ele><time>2026-05-03T11:21:25.659Z</time></trkpt><trkpt lat="44.7700184" lon="9.9415514"><ele>407.33333333333337</ele><time>2026-05-03T11:21:26.659Z</time></trkpt><trkpt lat="44.7699447" lon="9.9418446"><ele>402.66666666666663</ele><time>2026-05-03T11:21:27.66Z</time></trkpt><trkpt lat="44.769824" lon="9.942009"><ele>398.0</ele><time>2026-05-03T11:21:28.66Z</time></trkpt><trkpt lat="44.7696704" lon="9.9421053"><ele>398.0</ele><time>2026-05-03T11:21:29.66Z</time></trkpt><trkpt lat="44.7694917" lon="9.9421197"><ele>398.0</ele><time>2026-05-03T11:21:30.66Z</time></trkpt><trkpt lat="44.769292" lon="9.9420776"><ele>398.0</ele><time>2026-05-03T11:21:31.683Z</time></trkpt><trkpt lat="44.7690684" lon="9.9419131"><ele>404.5</ele><time>2026-05-03T11:21:32.683Z</time></trkpt><trkpt lat="44.7688606" lon="9.9417311"><ele>411.0</ele><time>2026-05-03T11:21:33.676Z</time></trkpt><trkpt lat="44.7686851" lon="9.9414876"><ele>412.33333333333337</ele><time>2026-05-03T11:21:34.673Z</time></trkpt><trkpt lat="44.7685625" lon="9.9412213"><ele>413.6666666666667</ele><time>2026-05-03T11:21:35.679Z</time></trkpt><trkpt lat="44.7684763" lon="9.9409868"><ele>415.0</ele><time>2026-05-03T11:21:36.688Z</time></trkpt><trkpt lat="44.7684229" lon="9.9407595"><ele>418.33333333333337</ele><time>2026-05-03T11:21:37.686Z</time></trkpt><trkpt lat="44.7683405" lon="9.9405748"><ele>421.66666666666663</ele><time>2026-05-03T11:21:38.69Z</time></trkpt><trkpt lat="44.7682256" lon="9.9404162"><ele>425.0</ele><time>2026-05-03T11:21:39.687Z</time></trkpt><trkpt lat="44.7680985" lon="9.9403156"><ele>425.0</ele><time>2026-05-03T11:21:40.658Z</time></trkpt><trkpt lat="44.7679724" lon="9.9402776"><ele>425.0</ele><time>2026-05-03T11:21:41.661Z</time></trkpt><trkpt lat="44.7678296" lon="9.9402572"><ele>425.0</ele><time>2026-05-03T11:21:42.654Z</time></trkpt><trkpt lat="44.7676625" lon="9.9402589"><ele>425.0</ele><time>2026-05-03T11:21:43.682Z</time></trkpt><trkpt lat="44.7674834" lon="9.9403112"><ele>427.0</ele><time>2026-05-03T11:21:44.66Z</time></trkpt><trkpt lat="44.7672836" lon="9.9403781"><ele>429.0</ele><time>2026-05-03T11:21:45.654Z</time></trkpt><trkpt lat="44.7670454" lon="9.9404604"><ele>430.5</ele><time>2026-05-03T11:21:46.653Z</time></trkpt><trkpt lat="44.7667897" lon="9.9405382"><ele>432.0</ele><time>2026-05-03T11:21:47.678Z</time></trkpt><trkpt lat="44.766577" lon="9.9405856"><ele>432.0</ele><time>2026-05-03T11:21:48.679Z</time></trkpt><trkpt lat="44.7663959" lon="9.9406405"><ele>432.0</ele><time>2026-05-03T11:21:49.678Z</time></trkpt><trkpt lat="44.7662303" lon="9.9407234"><ele>432.0</ele><time>2026-05-03T11:21:50.68Z</time></trkpt><trkpt lat="44.7660449" lon="9.9407968"><ele>432.0</ele><time>2026-05-03T11:21:51.68Z</time></trkpt><trkpt lat="44.7658599" lon="9.9408792"><ele>432.0</ele><time>2026-05-03T11:21:52.679Z</time></trkpt><trkpt lat="44.7656474" lon="9.940991"><ele>432.0</ele><time>2026-05-03T11:21:53.685Z</time></trkpt><trkpt lat="44.7654399" lon="9.9410933"><ele>432.0</ele><time>2026-05-03T11:21:54.687Z</time></trkpt><trkpt lat="44.7652409" lon="9.9412193"><ele>432.0</ele><time>2026-05-03T11:21:55.66Z</time></trkpt><trkpt lat="44.7650253" lon="9.9413881"><ele>438.0</ele><time>2026-05-03T11:21:56.688Z</time></trkpt><trkpt lat="44.7648147" lon="9.9415436"><ele>444.0</ele><time>2026-05-03T11:21:57.684Z</time></trkpt><trkpt lat="44.7646241" lon="9.9416914"><ele>441.0</ele><time>2026-05-03T11:21:58.66Z</time></trkpt><trkpt lat="44.7644152" lon="9.9418404"><ele>438.0</ele><time>2026-05-03T11:21:59.682Z</time></trkpt><trkpt lat="44.7642207" lon="9.9419877"><ele>443.66666666666663</ele><time>2026-05-03T11:22:00.683Z</time></trkpt><trkpt lat="44.7640504" lon="9.9421127"><ele>449.3333333333333</ele><time>2026-05-03T11:22:01.684Z</time></trkpt><trkpt lat="44.7638963" lon="9.9422416"><ele>455.0</ele><time>2026-05-03T11:22:02.68Z</time></trkpt><trkpt lat="44.7637725" lon="9.9423698"><ele>455.0</ele><time>2026-05-03T11:22:03.681Z</time></trkpt><trkpt lat="44.7636826" lon="9.9424843"><ele>455.0</ele><time>2026-05-03T11:22:04.652Z</time></trkpt><trkpt lat="44.7635851" lon="9.9426075"><ele>455.0</ele><time>2026-05-03T11:22:05.655Z</time></trkpt><trkpt lat="44.7634681" lon="9.9427205"><ele>455.0</ele><time>2026-05-03T11:22:06.659Z</time></trkpt><trkpt lat="44.7633305" lon="9.9427984"><ele>456.8</ele><time>2026-05-03T11:22:07.654Z</time></trkpt><trkpt lat="44.7632008" lon="9.9428349"><ele>458.6</ele><time>2026-05-03T11:22:08.649Z</time></trkpt><trkpt lat="44.7630679" lon="9.9428129"><ele>460.4</ele><time>2026-05-03T11:22:09.651Z</time></trkpt><trkpt lat="44.7629971" lon="9.942755"><ele>462.2</ele><time>2026-05-03T11:22:10.659Z</time></trkpt><trkpt lat="44.7629914" lon="9.9426336"><ele>464.0</ele><time>2026-05-03T11:22:11.65Z</time></trkpt><trkpt lat="44.7630392" lon="9.9424546"><ele>464.66666666666663</ele><time>2026-05-03T11:22:12.703Z</time></trkpt><trkpt lat="44.7631172" lon="9.942263"><ele>465.33333333333337</ele><time>2026-05-03T11:22:13.686Z</time></trkpt><trkpt lat="44.763264" lon="9.9419911"><ele>466.0</ele><time>2026-05-03T11:22:14.68Z</time></trkpt><trkpt lat="44.763419" lon="9.9417212"><ele>464.33333333333337</ele><time>2026-05-03T11:22:15.683Z</time></trkpt><trkpt lat="44.7635384" lon="9.9415026"><ele>462.66666666666663</ele><time>2026-05-03T11:22:16.686Z</time></trkpt><trkpt lat="44.7636666" lon="9.9413009"><ele>461.0</ele><time>2026-05-03T11:22:17.686Z</time></trkpt><trkpt lat="44.7637768" lon="9.9411144"><ele>461.0</ele><time>2026-05-03T11:22:18.685Z</time></trkpt><trkpt lat="44.7638859" lon="9.9409216"><ele>461.0</ele><time>2026-05-03T11:22:19.686Z</time></trkpt><trkpt lat="44.763964" lon="9.9407205"><ele>461.0</ele><time>2026-05-03T11:22:20.658Z</time></trkpt><trkpt lat="44.7640206" lon="9.9405188"><ele>463.0</ele><time>2026-05-03T11:22:21.697Z</time></trkpt><trkpt lat="44.7640374" lon="9.9403765"><ele>465.0</ele><time>2026-05-03T11:22:22.662Z</time></trkpt><trkpt lat="44.7640493" lon="9.9402821"><ele>467.0</ele><time>2026-05-03T11:22:23.69Z</time></trkpt><trkpt lat="44.7639761" lon="9.9402465"><ele>469.0</ele><time>2026-05-03T11:22:25.683Z</time></trkpt><trkpt lat="44.7639412" lon="9.9403327"><ele>471.0</ele><time>2026-05-03T11:22:26.648Z</time></trkpt><trkpt lat="44.7638322" lon="9.9404948"><ele>471.0</ele><time>2026-05-03T11:22:27.657Z</time></trkpt><trkpt lat="44.7637267" lon="9.940651"><ele>471.0</ele><time>2026-05-03T11:22:28.659Z</time></trkpt><trkpt lat="44.7636308" lon="9.9408223"><ele>471.0</ele><time>2026-05-03T11:22:29.66Z</time></trkpt><trkpt lat="44.7635723" lon="9.9409222"><ele>471.0</ele><time>2026-05-03T11:22:30.563Z</time></trkpt><trkpt lat="44.7634001" lon="9.9410347"><ele>472.75</ele><time>2026-05-03T11:22:31.653Z</time></trkpt><trkpt lat="44.7632821" lon="9.9410541"><ele>474.5</ele><time>2026-05-03T11:22:32.658Z</time></trkpt><trkpt lat="44.7631543" lon="9.9409956"><ele>476.25</ele><time>2026-05-03T11:22:35.654Z</time></trkpt><trkpt lat="44.763031" lon="9.940987"><ele>478.0</ele><time>2026-05-03T11:22:36.599Z</time></trkpt><trkpt lat="44.762747" lon="9.9409826"><ele>481.25</ele><time>2026-05-03T11:22:37.5Z</time></trkpt><trkpt lat="44.7625177" lon="9.9410324"><ele>484.5</ele><time>2026-05-03T11:22:38.66Z</time></trkpt><trkpt lat="44.7624499" lon="9.9410611"><ele>487.75</ele><time>2026-05-03T11:22:39.582Z</time></trkpt><trkpt lat="44.762371" lon="9.9410895"><ele>491.0</ele><time>2026-05-03T11:22:42.585Z</time></trkpt><trkpt lat="44.7620565" lon="9.941354"><ele>496.5</ele><time>2026-05-03T11:22:43.636Z</time></trkpt><trkpt lat="44.7617952" lon="9.9415309"><ele>502.0</ele><time>2026-05-03T11:22:44.643Z</time></trkpt><trkpt lat="44.7616558" lon="9.9416433"><ele>502.0</ele><time>2026-05-03T11:22:45.641Z</time></trkpt><trkpt lat="44.7616065" lon="9.9416988"><ele>502.0</ele><time>2026-05-03T11:22:46.641Z</time></trkpt><trkpt lat="44.7614946" lon="9.9418421"><ele>502.0</ele><time>2026-05-03T11:22:47.657Z</time></trkpt><trkpt lat="44.7613639" lon="9.9420349"><ele>502.0</ele><time>2026-05-03T11:22:48.678Z</time></trkpt><trkpt lat="44.7609585" lon="9.9426377"><ele>499.33333333333337</ele><time>2026-05-03T11:22:49.651Z</time></trkpt><trkpt lat="44.7610013" lon="9.9427274"><ele>496.66666666666663</ele><time>2026-05-03T11:22:52.653Z</time></trkpt><trkpt lat="44.7610403" lon="9.9429776"><ele>494.0</ele><time>2026-05-03T11:22:54.659Z</time></trkpt><trkpt lat="44.761049" lon="9.9433751"><ele>498.0</ele><time>2026-05-03T11:22:55.655Z</time></trkpt><trkpt lat="44.7610277" lon="9.9436551"><ele>502.0</ele><time>2026-05-03T11:22:56.655Z</time></trkpt><trkpt lat="44.7609974" lon="9.9438035"><ele>506.0</ele><time>2026-05-03T11:22:57.656Z</time></trkpt><trkpt lat="44.7609503" lon="9.9438932"><ele>510.0</ele><time>2026-05-03T11:22:59.65Z</time></trkpt><trkpt lat="44.7608926" lon="9.9437228"><ele>510.0</ele><time>2026-05-03T11:23:02.647Z</time></trkpt><trkpt lat="44.76087" lon="9.9435804"><ele>510.0</ele><time>2026-05-03T11:23:04.679Z</time></trkpt><trkpt lat="44.7607443" lon="9.9432728"><ele>510.0</ele><time>2026-05-03T11:23:06.675Z</time></trkpt><trkpt lat="44.7605771" lon="9.9429827"><ele>511.5</ele><time>2026-05-03T11:23:07.672Z</time></trkpt><trkpt lat="44.7604431" lon="9.9426813"><ele>513.0</ele><time>2026-05-03T11:23:08.684Z</time></trkpt><trkpt lat="44.7603705" lon="9.942406"><ele>513.0</ele><time>2026-05-03T11:23:09.662Z</time></trkpt><trkpt lat="44.7603626" lon="9.942268"><ele>513.0</ele><time>2026-05-03T11:23:10.66Z</time></trkpt><trkpt lat="44.7603776" lon="9.941849"><ele>513.0</ele><time>2026-05-03T11:23:12.665Z</time></trkpt><trkpt lat="44.760411" lon="9.9415383"><ele>513.6666666666666</ele><time>2026-05-03T11:23:13.666Z</time></trkpt><trkpt lat="44.7605026" lon="9.9411642"><ele>514.3333333333333</ele><time>2026-05-03T11:23:14.69Z</time></trkpt><trkpt lat="44.7605883" lon="9.9410819"><ele>515.0</ele><time>2026-05-03T11:23:16.686Z</time></trkpt><trkpt lat="44.7606941" lon="9.9409148"><ele>526.0</ele><time>2026-05-03T11:23:17.662Z</time></trkpt><trkpt lat="44.7609945" lon="9.9403054"><ele>526.0</ele><time>2026-05-03T11:23:18.652Z</time></trkpt><trkpt lat="44.761044" lon="9.9401657"><ele>526.0</ele><time>2026-05-03T11:23:20.66Z</time></trkpt><trkpt lat="44.7610217" lon="9.9400642"><ele>526.0</ele><time>2026-05-03T11:23:22.658Z</time></trkpt><trkpt lat="44.7609431" lon="9.940118"><ele>526.0</ele><time>2026-05-03T11:23:24.66Z</time></trkpt><trkpt lat="44.7607335" lon="9.940201"><ele>526.0</ele><time>2026-05-03T11:23:25.652Z</time></trkpt><trkpt lat="44.7604763" lon="9.9402734"><ele>526.0</ele><time>2026-05-03T11:23:26.647Z</time></trkpt><trkpt lat="44.7602843" lon="9.9403515"><ele>530.6666666666667</ele><time>2026-05-03T11:23:27.673Z</time></trkpt><trkpt lat="44.7601048" lon="9.9404426"><ele>535.3333333333334</ele><time>2026-05-03T11:23:28.648Z</time></trkpt><trkpt lat="44.7599138" lon="9.9405886"><ele>540.0</ele><time>2026-05-03T11:23:29.652Z</time></trkpt><trkpt lat="44.7597478" lon="9.9407765"><ele>537.3333333333334</ele><time>2026-05-03T11:23:30.68Z</time></trkpt><trkpt lat="44.7596045" lon="9.9409968"><ele>534.6666666666667</ele><time>2026-05-03T11:23:31.649Z</time></trkpt><trkpt lat="44.7594638" lon="9.9412297"><ele>532.0</ele><time>2026-05-03T11:23:32.679Z</time></trkpt><trkpt lat="44.7593326" lon="9.9414771"><ele>537.3333333333334</ele><time>2026-05-03T11:23:33.67Z</time></trkpt><trkpt lat="44.7592284" lon="9.9417329"><ele>542.6666666666666</ele><time>2026-05-03T11:23:34.669Z</time></trkpt><trkpt lat="44.7591356" lon="9.9419795"><ele>548.0</ele><time>2026-05-03T11:23:35.664Z</time></trkpt><trkpt lat="44.7590533" lon="9.9422175"><ele>548.0</ele><time>2026-05-03T11:23:36.672Z</time></trkpt><trkpt lat="44.7589833" lon="9.9424451"><ele>548.0</ele><time>2026-05-03T11:23:37.674Z</time></trkpt><trkpt lat="44.7589432" lon="9.9426598"><ele>548.0</ele><time>2026-05-03T11:23:38.671Z</time></trkpt><trkpt lat="44.7589546" lon="9.9428428"><ele>547.25</ele><time>2026-05-03T11:23:39.652Z</time></trkpt><trkpt lat="44.7589862" lon="9.9430028"><ele>546.5</ele><time>2026-05-03T11:23:40.647Z</time></trkpt><trkpt lat="44.7590152" lon="9.9431096"><ele>545.75</ele><time>2026-05-03T11:23:41.646Z</time></trkpt><trkpt lat="44.7589571" lon="9.9428773"><ele>545.0</ele><time>2026-05-03T11:23:45.654Z</time></trkpt><trkpt lat="44.7589053" lon="9.9426424"><ele>545.75</ele><time>2026-05-03T11:23:46.68Z</time></trkpt><trkpt lat="44.7588656" lon="9.942398"><ele>546.5</ele><time>2026-05-03T11:23:47.681Z</time></trkpt><trkpt lat="44.7588339" lon="9.9422434"><ele>547.25</ele><time>2026-05-03T11:23:48.686Z</time></trkpt><trkpt lat="44.758813" lon="9.9420881"><ele>548.0</ele><time>2026-05-03T11:23:49.685Z</time></trkpt><trkpt lat="44.7588254" lon="9.9419089"><ele>548.0</ele><time>2026-05-03T11:23:50.685Z</time></trkpt><trkpt lat="44.758843" lon="9.941792"><ele>548.0</ele><time>2026-05-03T11:23:51.686Z</time></trkpt><trkpt lat="44.7589071" lon="9.9414315"><ele>548.0</ele><time>2026-05-03T11:23:52.686Z</time></trkpt><trkpt lat="44.7589923" lon="9.9409781"><ele>553.6666666666666</ele><time>2026-05-03T11:23:53.686Z</time></trkpt><trkpt lat="44.7589829" lon="9.9408028"><ele>559.3333333333334</ele><time>2026-05-03T11:23:54.66Z</time></trkpt><trkpt lat="44.7589487" lon="9.9404894"><ele>565.0</ele><time>2026-05-03T11:23:58.709Z</time></trkpt><trkpt lat="44.7589432" lon="9.9402246"><ele>566.6666666666667</ele><time>2026-05-03T11:23:59.667Z</time></trkpt><trkpt lat="44.7589555" lon="9.939761"><ele>568.3333333333334</ele><time>2026-05-03T11:24:00.661Z</time></trkpt><trkpt lat="44.7589438" lon="9.9395977"><ele>570.0</ele><time>2026-05-03T11:24:01.659Z</time></trkpt><trkpt lat="44.7588764" lon="9.9396291"><ele>570.0</ele><time>2026-05-03T11:24:05.68Z</time></trkpt><trkpt lat="44.7588069" lon="9.9394012"><ele>570.0</ele><time>2026-05-03T11:24:06.682Z</time></trkpt><trkpt lat="44.7586799" lon="9.939112"><ele>570.0</ele><time>2026-05-03T11:24:07.65Z</time></trkpt><trkpt lat="44.7585243" lon="9.9388824"><ele>575.0</ele><time>2026-05-03T11:24:08.656Z</time></trkpt><trkpt lat="44.7584426" lon="9.9385657"><ele>580.0</ele><time>2026-05-03T11:24:13.672Z</time></trkpt><trkpt lat="44.7584073" lon="9.9384633"><ele>585.0</ele><time>2026-05-03T11:24:14.645Z</time></trkpt><trkpt lat="44.7582727" lon="9.9381389"><ele>585.0</ele><time>2026-05-03T11:24:15.414Z</time></trkpt><trkpt lat="44.7580191" lon="9.9376769"><ele>585.0</ele><time>2026-05-03T11:24:16.673Z</time></trkpt><trkpt lat="44.757968" lon="9.9375933"><ele>584.0</ele><time>2026-05-03T11:24:18.67Z</time></trkpt><trkpt lat="44.757981" lon="9.9371977"><ele>583.0</ele><time>2026-05-03T11:24:21.675Z</time></trkpt><trkpt lat="44.7580039" lon="9.937042"><ele>582.0</ele><time>2026-05-03T11:24:22.653Z</time></trkpt><trkpt lat="44.7582268" lon="9.9364251"><ele>583.5</ele><time>2026-05-03T11:24:23.648Z</time></trkpt><trkpt lat="44.7582436" lon="9.9362427"><ele>585.0</ele><time>2026-05-03T11:24:27.67Z</time></trkpt><trkpt lat="44.7581766" lon="9.9361374"><ele>586.5</ele><time>2026-05-03T11:24:28.643Z</time></trkpt><trkpt lat="44.7580628" lon="9.9360632"><ele>588.0</ele><time>2026-05-03T11:24:29.644Z</time></trkpt><trkpt lat="44.7579315" lon="9.9360404"><ele>588.0</ele><time>2026-05-03T11:24:30.644Z</time></trkpt><trkpt lat="44.7577962" lon="9.9360776"><ele>588.0</ele><time>2026-05-03T11:24:31.646Z</time></trkpt><trkpt lat="44.7576495" lon="9.9361869"><ele>588.0</ele><time>2026-05-03T11:24:32.639Z</time></trkpt><trkpt lat="44.7575159" lon="9.9363377"><ele>594.3333333333334</ele><time>2026-05-03T11:24:33.635Z</time></trkpt><trkpt lat="44.7573754" lon="9.936558"><ele>600.6666666666667</ele><time>2026-05-03T11:24:34.658Z</time></trkpt><trkpt lat="44.7572746" lon="9.9368422"><ele>607.0</ele><time>2026-05-03T11:24:35.659Z</time></trkpt><trkpt lat="44.757215" lon="9.9371503"><ele>607.0</ele><time>2026-05-03T11:24:36.658Z</time></trkpt><trkpt lat="44.7571812" lon="9.937462"><ele>607.0</ele><time>2026-05-03T11:24:37.635Z</time></trkpt><trkpt lat="44.7571865" lon="9.9377654"><ele>607.0</ele><time>2026-05-03T11:24:38.64Z</time></trkpt><trkpt lat="44.7571919" lon="9.9380196"><ele>608.3333333333334</ele><time>2026-05-03T11:24:39.638Z</time></trkpt><trkpt lat="44.7572156" lon="9.9382131"><ele>609.6666666666666</ele><time>2026-05-03T11:24:40.637Z</time></trkpt><trkpt lat="44.7573184" lon="9.9383495"><ele>611.0</ele><time>2026-05-03T11:24:41.639Z</time></trkpt><trkpt lat="44.7574726" lon="9.9384647"><ele>611.0</ele><time>2026-05-03T11:24:42.64Z</time></trkpt><trkpt lat="44.7576013" lon="9.9385879"><ele>611.0</ele><time>2026-05-03T11:24:43.638Z</time></trkpt><trkpt lat="44.7577118" lon="9.9387213"><ele>611.0</ele><time>2026-05-03T11:24:44.638Z</time></trkpt><trkpt lat="44.7577859" lon="9.9388738"><ele>611.0</ele><time>2026-05-03T11:24:45.64Z</time></trkpt><trkpt lat="44.7578155" lon="9.9390327"><ele>611.0</ele><time>2026-05-03T11:24:46.639Z</time></trkpt><trkpt lat="44.7578195" lon="9.9391863"><ele>611.0</ele><time>2026-05-03T11:24:47.64Z</time></trkpt><trkpt lat="44.7576908" lon="9.9392154"><ele>611.0</ele><time>2026-05-03T11:24:49.638Z</time></trkpt><trkpt lat="44.7576062" lon="9.9392162"><ele>611.0</ele><time>2026-05-03T11:24:50.668Z</time></trkpt><trkpt lat="44.7574106" lon="9.9391274"><ele>611.0</ele><time>2026-05-03T11:24:51.69Z</time></trkpt><trkpt lat="44.7572452" lon="9.9390345"><ele>611.0</ele><time>2026-05-03T11:24:52.592Z</time></trkpt><trkpt lat="44.7570468" lon="9.9388429"><ele>611.0</ele><time>2026-05-03T11:24:53.668Z</time></trkpt><trkpt lat="44.7569699" lon="9.938545"><ele>612.0</ele><time>2026-05-03T11:24:55.667Z</time></trkpt><trkpt lat="44.7569055" lon="9.9382281"><ele>613.0</ele><time>2026-05-03T11:24:56.667Z</time></trkpt><trkpt lat="44.7568076" lon="9.9376931"><ele>615.3333333333334</ele><time>2026-05-03T11:24:57.669Z</time></trkpt><trkpt lat="44.7567435" lon="9.9373669"><ele>617.6666666666666</ele><time>2026-05-03T11:24:58.64Z</time></trkpt><trkpt lat="44.7567374" lon="9.9371404"><ele>620.0</ele><time>2026-05-03T11:25:00.673Z</time></trkpt><trkpt lat="44.7568068" lon="9.9362976"><ele>623.3333333333333</ele><time>2026-05-03T11:25:01.645Z</time></trkpt><trkpt lat="44.7568514" lon="9.9359821"><ele>626.6666666666666</ele><time>2026-05-03T11:25:03.674Z</time></trkpt><trkpt lat="44.7568564" lon="9.9357525"><ele>630.0</ele><time>2026-05-03T11:25:04.67Z</time></trkpt><trkpt lat="44.7568243" lon="9.9354714"><ele>632.0</ele><time>2026-05-03T11:25:05.673Z</time></trkpt><trkpt lat="44.7568034" lon="9.9353567"><ele>634.0</ele><time>2026-05-03T11:25:06.67Z</time></trkpt><trkpt lat="44.7567637" lon="9.9350734"><ele>636.0</ele><time>2026-05-03T11:25:08.643Z</time></trkpt><trkpt lat="44.7567289" lon="9.9346932"><ele>636.0</ele><time>2026-05-03T11:25:09.64Z</time></trkpt><trkpt lat="44.7567144" lon="9.93449"><ele>636.0</ele><time>2026-05-03T11:25:10.644Z</time></trkpt><trkpt lat="44.756737" lon="9.9340886"><ele>636.0</ele><time>2026-05-03T11:25:11.643Z</time></trkpt><trkpt lat="44.7567921" lon="9.9336969"><ele>634.5</ele><time>2026-05-03T11:25:12.639Z</time></trkpt><trkpt lat="44.7568612" lon="9.9332681"><ele>633.0</ele><time>2026-05-03T11:25:13.64Z</time></trkpt><trkpt lat="44.7569388" lon="9.9328854"><ele>633.0</ele><time>2026-05-03T11:25:14.645Z</time></trkpt><trkpt lat="44.7570049" lon="9.9325455"><ele>633.0</ele><time>2026-05-03T11:25:15.642Z</time></trkpt><trkpt lat="44.7570558" lon="9.9322394"><ele>633.0</ele><time>2026-05-03T11:25:16.644Z</time></trkpt><trkpt lat="44.7571003" lon="9.9319634"><ele>633.0</ele><time>2026-05-03T11:25:17.641Z</time></trkpt><trkpt lat="44.757121" lon="9.9317034"><ele>633.0</ele><time>2026-05-03T11:25:18.672Z</time></trkpt><trkpt lat="44.7571356" lon="9.9314664"><ele>633.0</ele><time>2026-05-03T11:25:19.641Z</time></trkpt><trkpt lat="44.7571037" lon="9.9312364"><ele>633.0</ele><time>2026-05-03T11:25:20.668Z</time></trkpt><trkpt lat="44.7570285" lon="9.9310378"><ele>633.0</ele><time>2026-05-03T11:25:21.667Z</time></trkpt><trkpt lat="44.7569461" lon="9.9308445"><ele>635.6666666666666</ele><time>2026-05-03T11:25:22.669Z</time></trkpt><trkpt lat="44.7568075" lon="9.9306867"><ele>638.3333333333333</ele><time>2026-05-03T11:25:23.665Z</time></trkpt><trkpt lat="44.7565885" lon="9.9306031"><ele>641.0</ele><time>2026-05-03T11:25:24.666Z</time></trkpt><trkpt lat="44.7564092" lon="9.9305056"><ele>641.0</ele><time>2026-05-03T11:25:25.637Z</time></trkpt><trkpt lat="44.7562324" lon="9.9304495"><ele>641.0</ele><time>2026-05-03T11:25:26.64Z</time></trkpt><trkpt lat="44.7560703" lon="9.9304074"><ele>641.0</ele><time>2026-05-03T11:25:27.639Z</time></trkpt><trkpt lat="44.7559363" lon="9.9303564"><ele>640.0</ele><time>2026-05-03T11:25:28.645Z</time></trkpt><trkpt lat="44.7558267" lon="9.9303787"><ele>639.0</ele><time>2026-05-03T11:25:29.663Z</time></trkpt><trkpt lat="44.755736" lon="9.9304234"><ele>638.0</ele><time>2026-05-03T11:25:30.671Z</time></trkpt><trkpt lat="44.7556336" lon="9.9303325"><ele>637.0</ele><time>2026-05-03T11:25:31.67Z</time></trkpt><trkpt lat="44.7555309" lon="9.9300662"><ele>640.0</ele><time>2026-05-03T11:25:32.671Z</time></trkpt><trkpt lat="44.7554223" lon="9.9298156"><ele>643.0</ele><time>2026-05-03T11:25:33.668Z</time></trkpt><trkpt lat="44.755327" lon="9.9296171"><ele>646.0</ele><time>2026-05-03T11:25:34.653Z</time></trkpt><trkpt lat="44.7552531" lon="9.9293574"><ele>647.0</ele><time>2026-05-03T11:25:35.654Z</time></trkpt><trkpt lat="44.7552186" lon="9.9290763"><ele>648.0</ele><time>2026-05-03T11:25:36.647Z</time></trkpt><trkpt lat="44.7551968" lon="9.9288902"><ele>649.0</ele><time>2026-05-03T11:25:37.375Z</time></trkpt><trkpt lat="44.7551578" lon="9.9285704"><ele>647.3333333333334</ele><time>2026-05-03T11:25:38.672Z</time></trkpt><trkpt lat="44.7551062" lon="9.9283572"><ele>645.6666666666666</ele><time>2026-05-03T11:25:39.669Z</time></trkpt><trkpt lat="44.7551035" lon="9.9281687"><ele>644.0</ele><time>2026-05-03T11:25:40.67Z</time></trkpt><trkpt lat="44.7550538" lon="9.9279158"><ele>644.0</ele><time>2026-05-03T11:25:41.665Z</time></trkpt><trkpt lat="44.7549981" lon="9.9278096"><ele>644.0</ele><time>2026-05-03T11:25:42.666Z</time></trkpt><trkpt lat="44.7548726" lon="9.9277017"><ele>644.0</ele><time>2026-05-03T11:25:43.669Z</time></trkpt><trkpt lat="44.7546592" lon="9.9277229"><ele>644.0</ele><time>2026-05-03T11:25:44.668Z</time></trkpt><trkpt lat="44.7544678" lon="9.9277576"><ele>644.0</ele><time>2026-05-03T11:25:45.637Z</time></trkpt><trkpt lat="44.7542527" lon="9.9277573"><ele>644.0</ele><time>2026-05-03T11:25:46.663Z</time></trkpt><trkpt lat="44.7540062" lon="9.927722"><ele>635.5</ele><time>2026-05-03T11:25:47.663Z</time></trkpt><trkpt lat="44.753744" lon="9.927689"><ele>627.0</ele><time>2026-05-03T11:25:48.663Z</time></trkpt><trkpt lat="44.7535129" lon="9.9276533"><ele>623.6666666666666</ele><time>2026-05-03T11:25:49.662Z</time></trkpt><trkpt lat="44.7533207" lon="9.9276362"><ele>620.3333333333333</ele><time>2026-05-03T11:25:50.662Z</time></trkpt><trkpt lat="44.7531507" lon="9.9276272"><ele>617.0</ele><time>2026-05-03T11:25:51.636Z</time></trkpt><trkpt lat="44.7529851" lon="9.9276422"><ele>617.0</ele><time>2026-05-03T11:25:52.636Z</time></trkpt><trkpt lat="44.7528665" lon="9.9277044"><ele>617.0</ele><time>2026-05-03T11:25:53.636Z</time></trkpt><trkpt lat="44.7527719" lon="9.927779"><ele>617.0</ele><time>2026-05-03T11:25:54.629Z</time></trkpt><trkpt lat="44.7526833" lon="9.9277962"><ele>617.0</ele><time>2026-05-03T11:25:55.636Z</time></trkpt><trkpt lat="44.7525979" lon="9.9277403"><ele>617.0</ele><time>2026-05-03T11:25:56.631Z</time></trkpt><trkpt lat="44.7525438" lon="9.9276516"><ele>618.75</ele><time>2026-05-03T11:25:57.658Z</time></trkpt><trkpt lat="44.7525151" lon="9.9275419"><ele>620.5</ele><time>2026-05-03T11:25:58.664Z</time></trkpt><trkpt lat="44.7525331" lon="9.9273859"><ele>622.25</ele><time>2026-05-03T11:25:59.665Z</time></trkpt><trkpt lat="44.7526078" lon="9.9271699"><ele>624.0</ele><time>2026-05-03T11:26:00.64Z</time></trkpt><trkpt lat="44.7527234" lon="9.9269337"><ele>631.5</ele><time>2026-05-03T11:26:01.636Z</time></trkpt><trkpt lat="44.7528599" lon="9.9266672"><ele>639.0</ele><time>2026-05-03T11:26:02.635Z</time></trkpt><trkpt lat="44.7530038" lon="9.9264027"><ele>639.0</ele><time>2026-05-03T11:26:03.638Z</time></trkpt><trkpt lat="44.7531166" lon="9.9261565"><ele>639.0</ele><time>2026-05-03T11:26:04.639Z</time></trkpt><trkpt lat="44.753208" lon="9.9259184"><ele>639.0</ele><time>2026-05-03T11:26:05.618Z</time></trkpt><trkpt lat="44.7532433" lon="9.9256833"><ele>637.6666666666666</ele><time>2026-05-03T11:26:06.655Z</time></trkpt><trkpt lat="44.7532033" lon="9.9254539"><ele>636.3333333333333</ele><time>2026-05-03T11:26:07.661Z</time></trkpt><trkpt lat="44.7531164" lon="9.9252491"><ele>635.0</ele><time>2026-05-03T11:26:08.66Z</time></trkpt><trkpt lat="44.7529686" lon="9.9250833"><ele>634.6666666666666</ele><time>2026-05-03T11:26:09.664Z</time></trkpt><trkpt lat="44.7528156" lon="9.9249504"><ele>634.3333333333334</ele><time>2026-05-03T11:26:10.663Z</time></trkpt><trkpt lat="44.7526029" lon="9.9248993"><ele>634.0</ele><time>2026-05-03T11:26:11.672Z</time></trkpt><trkpt lat="44.7523872" lon="9.9248936"><ele>628.0</ele><time>2026-05-03T11:26:12.628Z</time></trkpt><trkpt lat="44.7521629" lon="9.9248915"><ele>622.0</ele><time>2026-05-03T11:26:13.664Z</time></trkpt><trkpt lat="44.7519315" lon="9.9249271"><ele>622.6666666666667</ele><time>2026-05-03T11:26:14.664Z</time></trkpt><trkpt lat="44.7517415" lon="9.9249657"><ele>623.3333333333334</ele><time>2026-05-03T11:26:15.665Z</time></trkpt><trkpt lat="44.7515767" lon="9.9250268"><ele>624.0</ele><time>2026-05-03T11:26:16.637Z</time></trkpt><trkpt lat="44.7514293" lon="9.9251239"><ele>617.6666666666666</ele><time>2026-05-03T11:26:17.638Z</time></trkpt><trkpt lat="44.7512852" lon="9.9252147"><ele>611.3333333333333</ele><time>2026-05-03T11:26:18.655Z</time></trkpt><trkpt lat="44.7511545" lon="9.9252702"><ele>605.0</ele><time>2026-05-03T11:26:19.645Z</time></trkpt><trkpt lat="44.7509943" lon="9.9252651"><ele>603.6666666666666</ele><time>2026-05-03T11:26:20.646Z</time></trkpt><trkpt lat="44.7508219" lon="9.9252268"><ele>602.3333333333334</ele><time>2026-05-03T11:26:21.671Z</time></trkpt><trkpt lat="44.750662" lon="9.9251834"><ele>601.0</ele><time>2026-05-03T11:26:22.676Z</time></trkpt><trkpt lat="44.7505356" lon="9.9251636"><ele>601.0</ele><time>2026-05-03T11:26:23.675Z</time></trkpt><trkpt lat="44.750413" lon="9.9251436"><ele>601.0</ele><time>2026-05-03T11:26:24.646Z</time></trkpt><trkpt lat="44.7503025" lon="9.9250816"><ele>601.0</ele><time>2026-05-03T11:26:25.647Z</time></trkpt><trkpt lat="44.7502346" lon="9.9249766"><ele>601.0</ele><time>2026-05-03T11:26:26.847Z</time></trkpt><trkpt lat="44.750332" lon="9.9247057"><ele>606.0</ele><time>2026-05-03T11:26:28.68Z</time></trkpt><trkpt lat="44.7504578" lon="9.9245556"><ele>611.0</ele><time>2026-05-03T11:26:29.679Z</time></trkpt><trkpt lat="44.750585" lon="9.9244141"><ele>616.0</ele><time>2026-05-03T11:26:30.65Z</time></trkpt><trkpt lat="44.7507021" lon="9.9242809"><ele>616.5</ele><time>2026-05-03T11:26:31.651Z</time></trkpt><trkpt lat="44.7507814" lon="9.9241579"><ele>617.0</ele><time>2026-05-03T11:26:32.676Z</time></trkpt><trkpt lat="44.7508195" lon="9.92406"><ele>617.5</ele><time>2026-05-03T11:26:33.674Z</time></trkpt><trkpt lat="44.7506675" lon="9.9240792"><ele>618.0</ele><time>2026-05-03T11:26:37.65Z</time></trkpt><trkpt lat="44.7505108" lon="9.9241995"><ele>617.3333333333334</ele><time>2026-05-03T11:26:38.649Z</time></trkpt><trkpt lat="44.7503456" lon="9.9243407"><ele>616.6666666666667</ele><time>2026-05-03T11:26:39.654Z</time></trkpt><trkpt lat="44.7501937" lon="9.9244876"><ele>616.0</ele><time>2026-05-03T11:26:40.653Z</time></trkpt><trkpt lat="44.7500362" lon="9.9246374"><ele>611.3333333333334</ele><time>2026-05-03T11:26:41.657Z</time></trkpt><trkpt lat="44.7498992" lon="9.9248054"><ele>606.6666666666666</ele><time>2026-05-03T11:26:42.653Z</time></trkpt><trkpt lat="44.7497923" lon="9.92499"><ele>602.0</ele><time>2026-05-03T11:26:43.651Z</time></trkpt><trkpt lat="44.749731" lon="9.9251915"><ele>599.75</ele><time>2026-05-03T11:26:44.654Z</time></trkpt><trkpt lat="44.7497152" lon="9.9253843"><ele>597.5</ele><time>2026-05-03T11:26:45.647Z</time></trkpt><trkpt lat="44.7497304" lon="9.9255543"><ele>595.25</ele><time>2026-05-03T11:26:46.649Z</time></trkpt><trkpt lat="44.7497765" lon="9.925692"><ele>593.0</ele><time>2026-05-03T11:26:47.648Z</time></trkpt><trkpt lat="44.7498479" lon="9.9257923"><ele>593.0</ele><time>2026-05-03T11:26:48.645Z</time></trkpt><trkpt lat="44.7499448" lon="9.9258694"><ele>593.0</ele><time>2026-05-03T11:26:49.649Z</time></trkpt><trkpt lat="44.7500648" lon="9.9259375"><ele>593.0</ele><time>2026-05-03T11:26:50.649Z</time></trkpt><trkpt lat="44.750205" lon="9.9259878"><ele>593.0</ele><time>2026-05-03T11:26:51.651Z</time></trkpt><trkpt lat="44.7503502" lon="9.9260097"><ele>589.6666666666666</ele><time>2026-05-03T11:26:52.651Z</time></trkpt><trkpt lat="44.7505103" lon="9.9259941"><ele>586.3333333333334</ele><time>2026-05-03T11:26:53.657Z</time></trkpt><trkpt lat="44.7506851" lon="9.9259634"><ele>583.0</ele><time>2026-05-03T11:26:54.65Z</time></trkpt><trkpt lat="44.7508557" lon="9.9259214"><ele>589.0</ele><time>2026-05-03T11:26:55.655Z</time></trkpt><trkpt lat="44.7510139" lon="9.9258831"><ele>595.0</ele><time>2026-05-03T11:26:56.648Z</time></trkpt><trkpt lat="44.7511879" lon="9.9258565"><ele>601.0</ele><time>2026-05-03T11:26:57.651Z</time></trkpt><trkpt lat="44.7513405" lon="9.9258749"><ele>600.8</ele><time>2026-05-03T11:26:58.648Z</time></trkpt><trkpt lat="44.7514628" lon="9.9259217"><ele>600.6</ele><time>2026-05-03T11:26:59.645Z</time></trkpt><trkpt lat="44.75155" lon="9.9259729"><ele>600.4</ele><time>2026-05-03T11:27:00.649Z</time></trkpt><trkpt lat="44.751617" lon="9.9260248"><ele>600.2</ele><time>2026-05-03T11:27:02.577Z</time></trkpt><trkpt lat="44.7515359" lon="9.926032"><ele>600.0</ele><time>2026-05-03T11:27:04.601Z</time></trkpt><trkpt lat="44.7514373" lon="9.9260666"><ele>600.0</ele><time>2026-05-03T11:27:05.646Z</time></trkpt><trkpt lat="44.7513442" lon="9.9260652"><ele>600.0</ele><time>2026-05-03T11:27:07.671Z</time></trkpt><trkpt lat="44.7511128" lon="9.9259549"><ele>600.0</ele><time>2026-05-03T11:27:10.671Z</time></trkpt><trkpt lat="44.7509011" lon="9.9258595"><ele>600.5</ele><time>2026-05-03T11:27:11.675Z</time></trkpt><trkpt lat="44.7505836" lon="9.9256856"><ele>601.0</ele><time>2026-05-03T11:27:12.672Z</time></trkpt><trkpt lat="44.7503095" lon="9.9255224"><ele>597.0</ele><time>2026-05-03T11:27:13.647Z</time></trkpt><trkpt lat="44.75004" lon="9.9254577"><ele>593.0</ele><time>2026-05-03T11:27:15.685Z</time></trkpt><trkpt lat="44.7498285" lon="9.9254201"><ele>593.0</ele><time>2026-05-03T11:27:16.689Z</time></trkpt><trkpt lat="44.7495713" lon="9.9253537"><ele>593.0</ele><time>2026-05-03T11:27:17.68Z</time></trkpt><trkpt lat="44.7490566" lon="9.9251141"><ele>588.5</ele><time>2026-05-03T11:27:19.682Z</time></trkpt><trkpt lat="44.7487922" lon="9.924972"><ele>584.0</ele><time>2026-05-03T11:27:20.658Z</time></trkpt><trkpt lat="44.7485412" lon="9.9247873"><ele>578.6666666666666</ele><time>2026-05-03T11:27:21.617Z</time></trkpt><trkpt lat="44.7483797" lon="9.9246451"><ele>573.3333333333334</ele><time>2026-05-03T11:27:22.661Z</time></trkpt><trkpt lat="44.748388" lon="9.9243562"><ele>568.0</ele><time>2026-05-03T11:27:24.48Z</time></trkpt><trkpt lat="44.7484655" lon="9.9237439"><ele>567.3333333333334</ele><time>2026-05-03T11:27:25.665Z</time></trkpt><trkpt lat="44.7484753" lon="9.923646"><ele>566.6666666666666</ele><time>2026-05-03T11:27:26.658Z</time></trkpt><trkpt lat="44.7485238" lon="9.9234268"><ele>566.0</ele><time>2026-05-03T11:27:30.652Z</time></trkpt><trkpt lat="44.7485767" lon="9.923087"><ele>564.0</ele><time>2026-05-03T11:27:31.679Z</time></trkpt><trkpt lat="44.748581" lon="9.9227004"><ele>562.0</ele><time>2026-05-03T11:27:32.652Z</time></trkpt><trkpt lat="44.748513" lon="9.9227005"><ele>560.0</ele><time>2026-05-03T11:27:34.654Z</time></trkpt><trkpt lat="44.7484032" lon="9.9228445"><ele>560.0</ele><time>2026-05-03T11:27:36.648Z</time></trkpt><trkpt lat="44.7483548" lon="9.9229202"><ele>560.0</ele><time>2026-05-03T11:27:37.412Z</time></trkpt><trkpt lat="44.7480579" lon="9.92336"><ele>558.3333333333333</ele><time>2026-05-03T11:27:38.642Z</time></trkpt><trkpt lat="44.7478647" lon="9.9236102"><ele>556.6666666666666</ele><time>2026-05-03T11:27:39.658Z</time></trkpt><trkpt lat="44.7477101" lon="9.9236792"><ele>555.0</ele><time>2026-05-03T11:27:40.654Z</time></trkpt><trkpt lat="44.7475732" lon="9.9236972"><ele>555.0</ele><time>2026-05-03T11:27:41.645Z</time></trkpt><trkpt lat="44.7474097" lon="9.9237318"><ele>555.0</ele><time>2026-05-03T11:27:42.652Z</time></trkpt><trkpt lat="44.7472498" lon="9.9237816"><ele>555.0</ele><time>2026-05-03T11:27:43.652Z</time></trkpt><trkpt lat="44.7471035" lon="9.9238723"><ele>555.0</ele><time>2026-05-03T11:27:44.645Z</time></trkpt><trkpt lat="44.7469434" lon="9.9240098"><ele>555.0</ele><time>2026-05-03T11:27:45.643Z</time></trkpt><trkpt lat="44.7467708" lon="9.924277"><ele>555.0</ele><time>2026-05-03T11:27:46.647Z</time></trkpt><trkpt lat="44.7466006" lon="9.924548"><ele>551.0</ele><time>2026-05-03T11:27:47.65Z</time></trkpt><trkpt lat="44.7464552" lon="9.9248092"><ele>547.0</ele><time>2026-05-03T11:27:48.651Z</time></trkpt><trkpt lat="44.7463453" lon="9.9250565"><ele>543.0</ele><time>2026-05-03T11:27:49.652Z</time></trkpt><trkpt lat="44.7462522" lon="9.9252792"><ele>540.3333333333334</ele><time>2026-05-03T11:27:50.651Z</time></trkpt><trkpt lat="44.7461827" lon="9.9254981"><ele>537.6666666666667</ele><time>2026-05-03T11:27:51.651Z</time></trkpt><trkpt lat="44.7461445" lon="9.9257225"><ele>535.0</ele><time>2026-05-03T11:27:52.653Z</time></trkpt><trkpt lat="44.7461371" lon="9.9259377"><ele>532.25</ele><time>2026-05-03T11:27:53.651Z</time></trkpt><trkpt lat="44.7461507" lon="9.9261158"><ele>529.5</ele><time>2026-05-03T11:27:54.651Z</time></trkpt><trkpt lat="44.7462192" lon="9.9262469"><ele>526.75</ele><time>2026-05-03T11:27:55.647Z</time></trkpt><trkpt lat="44.7463382" lon="9.9263362"><ele>524.0</ele><time>2026-05-03T11:27:56.655Z</time></trkpt><trkpt lat="44.7464589" lon="9.926446"><ele>524.0</ele><time>2026-05-03T11:27:57.648Z</time></trkpt><trkpt lat="44.7465976" lon="9.9265897"><ele>524.0</ele><time>2026-05-03T11:27:58.65Z</time></trkpt><trkpt lat="44.7467529" lon="9.9267671"><ele>524.0</ele><time>2026-05-03T11:27:59.658Z</time></trkpt><trkpt lat="44.7468346" lon="9.9269546"><ele>521.5</ele><time>2026-05-03T11:28:00.652Z</time></trkpt><trkpt lat="44.7468967" lon="9.9271359"><ele>519.0</ele><time>2026-05-03T11:28:01.655Z</time></trkpt><trkpt lat="44.7469549" lon="9.927279"><ele>516.5</ele><time>2026-05-03T11:28:02.653Z</time></trkpt><trkpt lat="44.7470663" lon="9.9273411"><ele>514.0</ele><time>2026-05-03T11:28:03.654Z</time></trkpt><trkpt lat="44.7472428" lon="9.9273149"><ele>514.0</ele><time>2026-05-03T11:28:04.661Z</time></trkpt><trkpt lat="44.7474065" lon="9.9272935"><ele>514.0</ele><time>2026-05-03T11:28:05.658Z</time></trkpt><trkpt lat="44.7475673" lon="9.9272944"><ele>514.0</ele><time>2026-05-03T11:28:06.656Z</time></trkpt><trkpt lat="44.7477113" lon="9.9273442"><ele>515.5</ele><time>2026-05-03T11:28:07.655Z</time></trkpt><trkpt lat="44.7478489" lon="9.9274351"><ele>517.0</ele><time>2026-05-03T11:28:08.651Z</time></trkpt><trkpt lat="44.7479898" lon="9.9275822"><ele>518.5</ele><time>2026-05-03T11:28:09.65Z</time></trkpt><trkpt lat="44.7480694" lon="9.9276431"><ele>520.0</ele><time>2026-05-03T11:28:10.648Z</time></trkpt><trkpt lat="44.7480785" lon="9.9278789"><ele>520.0</ele><time>2026-05-03T11:28:12.646Z</time></trkpt><trkpt lat="44.7480293" lon="9.9279564"><ele>520.0</ele><time>2026-05-03T11:28:13.655Z</time></trkpt><trkpt lat="44.7478246" lon="9.9280346"><ele>520.0</ele><time>2026-05-03T11:28:19.652Z</time></trkpt><trkpt lat="44.7470746" lon="9.9283422"><ele>516.5</ele><time>2026-05-03T11:28:20.654Z</time></trkpt><trkpt lat="44.7469802" lon="9.9284042"><ele>513.0</ele><time>2026-05-03T11:28:21.66Z</time></trkpt><trkpt lat="44.7469174" lon="9.9284521"><ele>509.5</ele><time>2026-05-03T11:28:23.618Z</time></trkpt><trkpt lat="44.7467623" lon="9.9285163"><ele>506.0</ele><time>2026-05-03T11:28:24.652Z</time></trkpt><trkpt lat="44.7465367" lon="9.9285786"><ele>500.0</ele><time>2026-05-03T11:28:25.652Z</time></trkpt><trkpt lat="44.7463139" lon="9.9286079"><ele>494.0</ele><time>2026-05-03T11:28:26.656Z</time></trkpt><trkpt lat="44.7460223" lon="9.9286254"><ele>485.0</ele><time>2026-05-03T11:28:27.572Z</time></trkpt><trkpt lat="44.7455475" lon="9.9285183"><ele>485.0</ele><time>2026-05-03T11:28:28.654Z</time></trkpt><trkpt lat="44.745352" lon="9.9284343"><ele>485.0</ele><time>2026-05-03T11:28:29.652Z</time></trkpt><trkpt lat="44.7451162" lon="9.9283052"><ele>484.3333333333333</ele><time>2026-05-03T11:28:30.654Z</time></trkpt><trkpt lat="44.7449164" lon="9.9281623"><ele>483.66666666666663</ele><time>2026-05-03T11:28:31.653Z</time></trkpt><trkpt lat="44.7447489" lon="9.9280162"><ele>483.0</ele><time>2026-05-03T11:28:32.659Z</time></trkpt><trkpt lat="44.7446152" lon="9.9278609"><ele>483.0</ele><time>2026-05-03T11:28:33.663Z</time></trkpt><trkpt lat="44.7445089" lon="9.9276797"><ele>483.0</ele><time>2026-05-03T11:28:34.686Z</time></trkpt><trkpt lat="44.7444415" lon="9.9274798"><ele>483.0</ele><time>2026-05-03T11:28:35.655Z</time></trkpt><trkpt lat="44.7443791" lon="9.9272726"><ele>481.0</ele><time>2026-05-03T11:28:36.678Z</time></trkpt><trkpt lat="44.7443199" lon="9.9270879"><ele>479.0</ele><time>2026-05-03T11:28:37.687Z</time></trkpt><trkpt lat="44.7442256" lon="9.9269351"><ele>477.0</ele><time>2026-05-03T11:28:38.681Z</time></trkpt><trkpt lat="44.7441064" lon="9.9268469"><ele>475.0</ele><time>2026-05-03T11:28:39.69Z</time></trkpt><trkpt lat="44.7439645" lon="9.9268616"><ele>475.0</ele><time>2026-05-03T11:28:40.648Z</time></trkpt><trkpt lat="44.7438019" lon="9.9269356"><ele>475.0</ele><time>2026-05-03T11:28:41.648Z</time></trkpt><trkpt lat="44.7436375" lon="9.9270792"><ele>475.0</ele><time>2026-05-03T11:28:42.645Z</time></trkpt><trkpt lat="44.743511" lon="9.9272865"><ele>473.33333333333337</ele><time>2026-05-03T11:28:43.653Z</time></trkpt><trkpt lat="44.7433766" lon="9.9274891"><ele>471.66666666666663</ele><time>2026-05-03T11:28:44.656Z</time></trkpt><trkpt lat="44.7432415" lon="9.9276844"><ele>470.0</ele><time>2026-05-03T11:28:45.654Z</time></trkpt><trkpt lat="44.7430643" lon="9.9278299"><ele>467.0</ele><time>2026-05-03T11:28:46.653Z</time></trkpt><trkpt lat="44.7428943" lon="9.9279597"><ele>464.0</ele><time>2026-05-03T11:28:47.658Z</time></trkpt><trkpt lat="44.7427495" lon="9.9281102"><ele>461.0</ele><time>2026-05-03T11:28:48.655Z</time></trkpt><trkpt lat="44.7426054" lon="9.9282763"><ele>456.3333333333333</ele><time>2026-05-03T11:28:49.657Z</time></trkpt><trkpt lat="44.7424627" lon="9.928426"><ele>451.66666666666663</ele><time>2026-05-03T11:28:50.659Z</time></trkpt><trkpt lat="44.7423366" lon="9.9285652"><ele>447.0</ele><time>2026-05-03T11:28:51.661Z</time></trkpt><trkpt lat="44.7422218" lon="9.9286706"><ele>447.0</ele><time>2026-05-03T11:28:52.658Z</time></trkpt><trkpt lat="44.7420855" lon="9.928745"><ele>447.00000000000006</ele><time>2026-05-03T11:28:53.662Z</time></trkpt><trkpt lat="44.7420353" lon="9.9286505"><ele>447.00000000000006</ele><time>2026-05-03T11:28:54.578Z</time></trkpt><trkpt lat="44.7420009" lon="9.9285565"><ele>447.0</ele><time>2026-05-03T11:28:55.519Z</time></trkpt><trkpt lat="44.7419004" lon="9.9284562"><ele>447.0</ele><time>2026-05-03T11:28:56.65Z</time></trkpt><trkpt lat="44.7418396" lon="9.9284319"><ele>445.33333333333337</ele><time>2026-05-03T11:28:57.678Z</time></trkpt><trkpt lat="44.7417776" lon="9.9284104"><ele>443.6666666666667</ele><time>2026-05-03T11:29:00.657Z</time></trkpt><trkpt lat="44.7415859" lon="9.9284774"><ele>442.0</ele><time>2026-05-03T11:29:01.657Z</time></trkpt><trkpt lat="44.741301" lon="9.9285577"><ele>442.0</ele><time>2026-05-03T11:29:02.651Z</time></trkpt><trkpt lat="44.7410501" lon="9.9286262"><ele>442.0</ele><time>2026-05-03T11:29:03.657Z</time></trkpt><trkpt lat="44.7408936" lon="9.9286793"><ele>442.0</ele><time>2026-05-03T11:29:04.662Z</time></trkpt><trkpt lat="44.7405853" lon="9.9288126"><ele>441.5</ele><time>2026-05-03T11:29:05.662Z</time></trkpt><trkpt lat="44.7403175" lon="9.9289369"><ele>441.0</ele><time>2026-05-03T11:29:06.658Z</time></trkpt><trkpt lat="44.7400234" lon="9.9290888"><ele>436.0</ele><time>2026-05-03T11:29:07.659Z</time></trkpt><trkpt lat="44.7396586" lon="9.929431"><ele>431.0</ele><time>2026-05-03T11:29:08.655Z</time></trkpt><trkpt lat="44.7395401" lon="9.9295882"><ele>431.0</ele><time>2026-05-03T11:29:09.657Z</time></trkpt><trkpt lat="44.7394749" lon="9.9296765"><ele>431.0</ele><time>2026-05-03T11:29:10.657Z</time></trkpt><trkpt lat="44.7394301" lon="9.9297398"><ele>431.0</ele><time>2026-05-03T11:29:13.657Z</time></trkpt><trkpt lat="44.7394055" lon="9.9299718"><ele>431.0</ele><time>2026-05-03T11:29:14.66Z</time></trkpt><trkpt lat="44.7393619" lon="9.9302719"><ele>429.66666666666663</ele><time>2026-05-03T11:29:15.631Z</time></trkpt><trkpt lat="44.7392827" lon="9.9305535"><ele>428.33333333333337</ele><time>2026-05-03T11:29:16.641Z</time></trkpt><trkpt lat="44.739177" lon="9.9307311"><ele>427.0</ele><time>2026-05-03T11:29:17.648Z</time></trkpt><trkpt lat="44.7390947" lon="9.9307623"><ele>427.0</ele><time>2026-05-03T11:29:18.653Z</time></trkpt><trkpt lat="44.7389781" lon="9.930583"><ele>427.0</ele><time>2026-05-03T11:29:19.646Z</time></trkpt><trkpt lat="44.7388338" lon="9.9303512"><ele>427.0</ele><time>2026-05-03T11:29:20.675Z</time></trkpt><trkpt lat="44.7386643" lon="9.930095"><ele>425.6666666666667</ele><time>2026-05-03T11:29:21.474Z</time></trkpt><trkpt lat="44.7385471" lon="9.9299211"><ele>424.33333333333337</ele><time>2026-05-03T11:29:22.679Z</time></trkpt><trkpt lat="44.7383971" lon="9.9296146"><ele>423.0</ele><time>2026-05-03T11:29:23.673Z</time></trkpt><trkpt lat="44.73826" lon="9.929349"><ele>423.0</ele><time>2026-05-03T11:29:24.68Z</time></trkpt><trkpt lat="44.7381841" lon="9.9292055"><ele>423.0</ele><time>2026-05-03T11:29:25.218Z</time></trkpt><trkpt lat="44.7378368" lon="9.9287153"><ele>420.33333333333337</ele><time>2026-05-03T11:29:26.665Z</time></trkpt><trkpt lat="44.7376996" lon="9.9286555"><ele>417.6666666666667</ele><time>2026-05-03T11:29:27.652Z</time></trkpt><trkpt lat="44.737508" lon="9.9285795"><ele>415.0</ele><time>2026-05-03T11:29:28.645Z</time></trkpt><trkpt lat="44.7372962" lon="9.9284762"><ele>414.5</ele><time>2026-05-03T11:29:29.643Z</time></trkpt><trkpt lat="44.7370939" lon="9.9283273"><ele>414.0</ele><time>2026-05-03T11:29:30.647Z</time></trkpt><trkpt lat="44.7368948" lon="9.9281574"><ele>418.5</ele><time>2026-05-03T11:29:31.663Z</time></trkpt><trkpt lat="44.7367058" lon="9.9279369"><ele>423.0</ele><time>2026-05-03T11:29:32.648Z</time></trkpt><trkpt lat="44.7365215" lon="9.9276888"><ele>419.0</ele><time>2026-05-03T11:29:33.65Z</time></trkpt><trkpt lat="44.7363577" lon="9.9274415"><ele>415.0</ele><time>2026-05-03T11:29:34.646Z</time></trkpt><trkpt lat="44.7362052" lon="9.9272006"><ele>415.0</ele><time>2026-05-03T11:29:35.631Z</time></trkpt><trkpt lat="44.7360542" lon="9.9269518"><ele>415.0</ele><time>2026-05-03T11:29:36.622Z</time></trkpt><trkpt lat="44.7359106" lon="9.9267071"><ele>413.6666666666667</ele><time>2026-05-03T11:29:37.633Z</time></trkpt><trkpt lat="44.735777" lon="9.9264804"><ele>412.33333333333337</ele><time>2026-05-03T11:29:38.619Z</time></trkpt><trkpt lat="44.7356391" lon="9.9262582"><ele>411.0</ele><time>2026-05-03T11:29:39.639Z</time></trkpt><trkpt lat="44.7355132" lon="9.9260645"><ele>411.0</ele><time>2026-05-03T11:29:40.632Z</time></trkpt><trkpt lat="44.735366" lon="9.9259306"><ele>411.0</ele><time>2026-05-03T11:29:41.64Z</time></trkpt><trkpt lat="44.7352049" lon="9.9258662"><ele>411.0</ele><time>2026-05-03T11:29:42.661Z</time></trkpt><trkpt lat="44.7350528" lon="9.9258284"><ele>410.25</ele><time>2026-05-03T11:29:43.655Z</time></trkpt><trkpt lat="44.734925" lon="9.9258121"><ele>409.5</ele><time>2026-05-03T11:29:44.661Z</time></trkpt><trkpt lat="44.7348107" lon="9.9258597"><ele>408.75</ele><time>2026-05-03T11:29:45.659Z</time></trkpt><trkpt lat="44.7347434" lon="9.9258563"><ele>408.0</ele><time>2026-05-03T11:29:46.664Z</time></trkpt><trkpt lat="44.734606" lon="9.9258231"><ele>408.0</ele><time>2026-05-03T11:29:47.666Z</time></trkpt><trkpt lat="44.7344865" lon="9.9257948"><ele>408.0</ele><time>2026-05-03T11:29:48.654Z</time></trkpt><trkpt lat="44.734384" lon="9.9257306"><ele>408.0</ele><time>2026-05-03T11:29:49.65Z</time></trkpt><trkpt lat="44.7343195" lon="9.9256028"><ele>408.0</ele><time>2026-05-03T11:29:50.651Z</time></trkpt><trkpt lat="44.7342709" lon="9.9254336"><ele>408.0</ele><time>2026-05-03T11:29:51.681Z</time></trkpt><trkpt lat="44.7342144" lon="9.9252567"><ele>408.0</ele><time>2026-05-03T11:29:52.693Z</time></trkpt><trkpt lat="44.7341586" lon="9.9250717"><ele>408.0</ele><time>2026-05-03T11:29:53.68Z</time></trkpt><trkpt lat="44.7340955" lon="9.9248866"><ele>408.0</ele><time>2026-05-03T11:29:54.675Z</time></trkpt><trkpt lat="44.7340371" lon="9.9247012"><ele>407.5</ele><time>2026-05-03T11:29:55.671Z</time></trkpt><trkpt lat="44.7339843" lon="9.9244973"><ele>407.0</ele><time>2026-05-03T11:29:56.684Z</time></trkpt><trkpt lat="44.7339347" lon="9.9243051"><ele>406.5</ele><time>2026-05-03T11:29:57.692Z</time></trkpt><trkpt lat="44.7338716" lon="9.9241194"><ele>406.0</ele><time>2026-05-03T11:29:58.682Z</time></trkpt><trkpt lat="44.7338077" lon="9.9239288"><ele>406.0</ele><time>2026-05-03T11:29:59.679Z</time></trkpt><trkpt lat="44.7337441" lon="9.9237526"><ele>406.0</ele><time>2026-05-03T11:30:00.676Z</time></trkpt><trkpt lat="44.7336604" lon="9.9236161"><ele>406.0</ele><time>2026-05-03T11:30:01.651Z</time></trkpt><trkpt lat="44.7335452" lon="9.9235542"><ele>406.0</ele><time>2026-05-03T11:30:02.658Z</time></trkpt><trkpt lat="44.7334296" lon="9.9235449"><ele>407.0</ele><time>2026-05-03T11:30:03.671Z</time></trkpt><trkpt lat="44.7332988" lon="9.9235996"><ele>408.0</ele><time>2026-05-03T11:30:04.673Z</time></trkpt><trkpt lat="44.7331594" lon="9.9237252"><ele>409.0</ele><time>2026-05-03T11:30:05.652Z</time></trkpt><trkpt lat="44.7330019" lon="9.9239123"><ele>409.0</ele><time>2026-05-03T11:30:06.654Z</time></trkpt><trkpt lat="44.7328381" lon="9.9241044"><ele>409.0</ele><time>2026-05-03T11:30:07.661Z</time></trkpt><trkpt lat="44.7326884" lon="9.9242602"><ele>409.0</ele><time>2026-05-03T11:30:08.642Z</time></trkpt><trkpt lat="44.7325415" lon="9.9244245"><ele>410.0</ele><time>2026-05-03T11:30:09.647Z</time></trkpt><trkpt lat="44.7324015" lon="9.9245651"><ele>411.0</ele><time>2026-05-03T11:30:10.641Z</time></trkpt><trkpt lat="44.7322807" lon="9.9246657"><ele>412.0</ele><time>2026-05-03T11:30:11.646Z</time></trkpt><trkpt lat="44.732182" lon="9.9246841"><ele>413.0</ele><time>2026-05-03T11:30:12.66Z</time></trkpt><trkpt lat="44.732109" lon="9.9246496"><ele>413.0</ele><time>2026-05-03T11:30:13.654Z</time></trkpt><trkpt lat="44.7320254" lon="9.9245547"><ele>413.0</ele><time>2026-05-03T11:30:14.654Z</time></trkpt><trkpt lat="44.7319419" lon="9.9244335"><ele>413.0</ele><time>2026-05-03T11:30:15.659Z</time></trkpt><trkpt lat="44.7318445" lon="9.9242301"><ele>413.0</ele><time>2026-05-03T11:30:16.654Z</time></trkpt><trkpt lat="44.7317155" lon="9.9239407"><ele>417.66666666666663</ele><time>2026-05-03T11:30:17.671Z</time></trkpt><trkpt lat="44.7315845" lon="9.9236897"><ele>422.33333333333337</ele><time>2026-05-03T11:30:18.684Z</time></trkpt><trkpt lat="44.7314631" lon="9.9234838"><ele>427.0</ele><time>2026-05-03T11:30:19.682Z</time></trkpt><trkpt lat="44.7313423" lon="9.9233016"><ele>427.0</ele><time>2026-05-03T11:30:20.68Z</time></trkpt><trkpt lat="44.7312285" lon="9.9231238"><ele>427.0</ele><time>2026-05-03T11:30:21.682Z</time></trkpt><trkpt lat="44.7311309" lon="9.9229478"><ele>427.0</ele><time>2026-05-03T11:30:22.669Z</time></trkpt><trkpt lat="44.7310553" lon="9.9227741"><ele>428.25</ele><time>2026-05-03T11:30:23.658Z</time></trkpt><trkpt lat="44.731021" lon="9.9226107"><ele>429.5</ele><time>2026-05-03T11:30:24.684Z</time></trkpt><trkpt lat="44.7310476" lon="9.9224544"><ele>430.75</ele><time>2026-05-03T11:30:25.659Z</time></trkpt><trkpt lat="44.731148" lon="9.9223162"><ele>432.0</ele><time>2026-05-03T11:30:26.663Z</time></trkpt><trkpt lat="44.7313204" lon="9.9221855"><ele>432.0</ele><time>2026-05-03T11:30:27.672Z</time></trkpt><trkpt lat="44.7317006" lon="9.9221464"><ele>432.0</ele><time>2026-05-03T11:30:29.66Z</time></trkpt><trkpt lat="44.7318061" lon="9.9220301"><ele>432.0</ele><time>2026-05-03T11:30:30.658Z</time></trkpt><trkpt lat="44.731797" lon="9.9218997"><ele>432.0</ele><time>2026-05-03T11:30:33.67Z</time></trkpt><trkpt lat="44.7315643" lon="9.9218593"><ele>432.0</ele><time>2026-05-03T11:30:36.655Z</time></trkpt><trkpt lat="44.7314332" lon="9.9218686"><ele>439.0</ele><time>2026-05-03T11:30:37.649Z</time></trkpt><trkpt lat="44.7310451" lon="9.9218343"><ele>446.0</ele><time>2026-05-03T11:30:38.665Z</time></trkpt><trkpt lat="44.7309071" lon="9.9217566"><ele>447.0</ele><time>2026-05-03T11:30:39.655Z</time></trkpt><trkpt lat="44.7308352" lon="9.9216276"><ele>448.0</ele><time>2026-05-03T11:30:40.656Z</time></trkpt><trkpt lat="44.7308614" lon="9.9215372"><ele>449.0</ele><time>2026-05-03T11:30:42.681Z</time></trkpt><trkpt lat="44.7311379" lon="9.9212495"><ele>448.25</ele><time>2026-05-03T11:30:45.661Z</time></trkpt><trkpt lat="44.731312" lon="9.9210465"><ele>447.5</ele><time>2026-05-03T11:30:46.661Z</time></trkpt><trkpt lat="44.7314232" lon="9.9208914"><ele>446.75</ele><time>2026-05-03T11:30:47.657Z</time></trkpt><trkpt lat="44.7314586" lon="9.9208115"><ele>446.0</ele><time>2026-05-03T11:30:49.686Z</time></trkpt><trkpt lat="44.7314378" lon="9.9205967"><ele>446.0</ele><time>2026-05-03T11:30:51.682Z</time></trkpt><trkpt lat="44.7314072" lon="9.9204053"><ele>446.0</ele><time>2026-05-03T11:30:52.659Z</time></trkpt><trkpt lat="44.731376" lon="9.9202784"><ele>446.0</ele><time>2026-05-03T11:30:53.671Z</time></trkpt><trkpt lat="44.7313291" lon="9.9200525"><ele>446.0</ele><time>2026-05-03T11:30:54.658Z</time></trkpt><trkpt lat="44.73131" lon="9.9199496"><ele>448.3333333333333</ele><time>2026-05-03T11:30:55.606Z</time></trkpt><trkpt lat="44.731234" lon="9.9196376"><ele>450.66666666666663</ele><time>2026-05-03T11:30:56.686Z</time></trkpt><trkpt lat="44.7312161" lon="9.9195409"><ele>453.0</ele><time>2026-05-03T11:30:58.683Z</time></trkpt><trkpt lat="44.7310597" lon="9.9188288"><ele>459.5</ele><time>2026-05-03T11:31:03.66Z</time></trkpt><trkpt lat="44.7309174" lon="9.9183221"><ele>466.0</ele><time>2026-05-03T11:31:04.505Z</time></trkpt><trkpt lat="44.7308615" lon="9.917791"><ele>466.0</ele><time>2026-05-03T11:31:05.662Z</time></trkpt><trkpt lat="44.7308606" lon="9.9176294"><ele>466.0</ele><time>2026-05-03T11:31:06.567Z</time></trkpt><trkpt lat="44.7308617" lon="9.9174846"><ele>466.0</ele><time>2026-05-03T11:31:07.654Z</time></trkpt><trkpt lat="44.7307696" lon="9.9174874"><ele>466.0</ele><time>2026-05-03T11:31:11.66Z</time></trkpt><trkpt lat="44.7306699" lon="9.9174993"><ele>466.0</ele><time>2026-05-03T11:31:12.663Z</time></trkpt><trkpt lat="44.7305098" lon="9.9175373"><ele>469.0</ele><time>2026-05-03T11:31:13.657Z</time></trkpt><trkpt lat="44.7303551" lon="9.9175665"><ele>472.0</ele><time>2026-05-03T11:31:14.669Z</time></trkpt><trkpt lat="44.7302069" lon="9.9175974"><ele>475.0</ele><time>2026-05-03T11:31:15.659Z</time></trkpt><trkpt lat="44.730061" lon="9.9176403"><ele>475.25</ele><time>2026-05-03T11:31:16.655Z</time></trkpt><trkpt lat="44.7299327" lon="9.9176998"><ele>475.5</ele><time>2026-05-03T11:31:17.654Z</time></trkpt><trkpt lat="44.7298169" lon="9.9177713"><ele>475.75</ele><time>2026-05-03T11:31:18.685Z</time></trkpt><trkpt lat="44.7297106" lon="9.9178575"><ele>476.0</ele><time>2026-05-03T11:31:19.671Z</time></trkpt><trkpt lat="44.7296067" lon="9.9179384"><ele>475.99999999999994</ele><time>2026-05-03T11:31:20.69Z</time></trkpt><trkpt lat="44.7295087" lon="9.9180063"><ele>476.0</ele><time>2026-05-03T11:31:21.656Z</time></trkpt><trkpt lat="44.72942" lon="9.9180577"><ele>476.0</ele><time>2026-05-03T11:31:22.688Z</time></trkpt><trkpt lat="44.7293401" lon="9.9180734"><ele>476.0</ele><time>2026-05-03T11:31:23.656Z</time></trkpt><trkpt lat="44.729266" lon="9.9180622"><ele>475.99999999999994</ele><time>2026-05-03T11:31:24.689Z</time></trkpt><trkpt lat="44.7292002" lon="9.9180269"><ele>476.0</ele><time>2026-05-03T11:31:25.669Z</time></trkpt><trkpt lat="44.72915" lon="9.9179401"><ele>478.5</ele><time>2026-05-03T11:31:26.652Z</time></trkpt><trkpt lat="44.7291205" lon="9.9178187"><ele>481.0</ele><time>2026-05-03T11:31:27.648Z</time></trkpt><trkpt lat="44.7291347" lon="9.9176566"><ele>483.5</ele><time>2026-05-03T11:31:28.648Z</time></trkpt><trkpt lat="44.7291838" lon="9.9174672"><ele>486.0</ele><time>2026-05-03T11:31:29.656Z</time></trkpt><trkpt lat="44.729238" lon="9.9172633"><ele>485.33333333333337</ele><time>2026-05-03T11:31:30.649Z</time></trkpt><trkpt lat="44.7293147" lon="9.9170511"><ele>484.6666666666667</ele><time>2026-05-03T11:31:31.646Z</time></trkpt><trkpt lat="44.7293937" lon="9.9168366"><ele>484.0</ele><time>2026-05-03T11:31:32.64Z</time></trkpt><trkpt lat="44.729509" lon="9.9165892"><ele>489.0</ele><time>2026-05-03T11:31:33.679Z</time></trkpt><trkpt lat="44.7296366" lon="9.9163581"><ele>494.0</ele><time>2026-05-03T11:31:34.662Z</time></trkpt><trkpt lat="44.7298063" lon="9.9161005"><ele>501.0</ele><time>2026-05-03T11:31:35.65Z</time></trkpt><trkpt lat="44.7299709" lon="9.9158391"><ele>508.0</ele><time>2026-05-03T11:31:36.652Z</time></trkpt><trkpt lat="44.73016" lon="9.9155801"><ele>500.0</ele><time>2026-05-03T11:31:37.682Z</time></trkpt><trkpt lat="44.7304089" lon="9.9153659"><ele>492.0</ele><time>2026-05-03T11:31:38.682Z</time></trkpt><trkpt lat="44.7306295" lon="9.9151883"><ele>491.0</ele><time>2026-05-03T11:31:39.653Z</time></trkpt><trkpt lat="44.7308641" lon="9.9150245"><ele>490.0</ele><time>2026-05-03T11:31:40.668Z</time></trkpt><trkpt lat="44.731028" lon="9.9149177"><ele>489.0</ele><time>2026-05-03T11:31:41.682Z</time></trkpt><trkpt lat="44.7311188" lon="9.9147905"><ele>489.0</ele><time>2026-05-03T11:31:42.678Z</time></trkpt><trkpt lat="44.7311644" lon="9.9149602"><ele>489.0</ele><time>2026-05-03T11:31:43.623Z</time></trkpt><trkpt lat="44.7310912" lon="9.9149343"><ele>489.0</ele><time>2026-05-03T11:31:44.661Z</time></trkpt><trkpt lat="44.7309492" lon="9.914985"><ele>489.0</ele><time>2026-05-03T11:31:46.633Z</time></trkpt><trkpt lat="44.7307657" lon="9.9151536"><ele>490.0</ele><time>2026-05-03T11:31:49.65Z</time></trkpt><trkpt lat="44.7306977" lon="9.9152266"><ele>491.0</ele><time>2026-05-03T11:31:50.579Z</time></trkpt><trkpt lat="44.7304469" lon="9.9154876"><ele>492.0</ele><time>2026-05-03T11:31:51.64Z</time></trkpt><trkpt lat="44.7302376" lon="9.9157602"><ele>492.66666666666663</ele><time>2026-05-03T11:31:52.65Z</time></trkpt><trkpt lat="44.7301012" lon="9.9159499"><ele>493.3333333333333</ele><time>2026-05-03T11:31:53.642Z</time></trkpt><trkpt lat="44.7299571" lon="9.9159768"><ele>494.0</ele><time>2026-05-03T11:31:55.658Z</time></trkpt><trkpt lat="44.729697" lon="9.9160176"><ele>494.0</ele><time>2026-05-03T11:31:56.648Z</time></trkpt><trkpt lat="44.7295667" lon="9.9160361"><ele>494.0</ele><time>2026-05-03T11:31:57.636Z</time></trkpt><trkpt lat="44.7293017" lon="9.9160248"><ele>494.0</ele><time>2026-05-03T11:31:58.646Z</time></trkpt><trkpt lat="44.7292024" lon="9.916002"><ele>501.0</ele><time>2026-05-03T11:31:59.646Z</time></trkpt><trkpt lat="44.7293834" lon="9.915725"><ele>508.0</ele><time>2026-05-03T11:32:06.652Z</time></trkpt><trkpt lat="44.7295306" lon="9.9155224"><ele>508.0</ele><time>2026-05-03T11:32:07.651Z</time></trkpt><trkpt lat="44.7296317" lon="9.9153782"><ele>508.0</ele><time>2026-05-03T11:32:08.653Z</time></trkpt><trkpt lat="44.729855" lon="9.9150025"><ele>517.0</ele><time>2026-05-03T11:32:09.657Z</time></trkpt><trkpt lat="44.7300603" lon="9.914649"><ele>526.0</ele><time>2026-05-03T11:32:10.668Z</time></trkpt><trkpt lat="44.7302112" lon="9.9143994"><ele>523.0</ele><time>2026-05-03T11:32:11.64Z</time></trkpt><trkpt lat="44.7303356" lon="9.9141583"><ele>520.0</ele><time>2026-05-03T11:32:12.654Z</time></trkpt><trkpt lat="44.7303733" lon="9.9139407"><ele>517.0</ele><time>2026-05-03T11:32:16.683Z</time></trkpt><trkpt lat="44.7304224" lon="9.9129353"><ele>517.0</ele><time>2026-05-03T11:32:17.682Z</time></trkpt><trkpt lat="44.7304485" lon="9.9128278"><ele>517.0</ele><time>2026-05-03T11:32:19.655Z</time></trkpt><trkpt lat="44.7304632" lon="9.9127193"><ele>517.0</ele><time>2026-05-03T11:32:22.686Z</time></trkpt><trkpt lat="44.7304132" lon="9.9125374"><ele>517.0</ele><time>2026-05-03T11:32:26.674Z</time></trkpt><trkpt lat="44.7303692" lon="9.9123947"><ele>517.0</ele><time>2026-05-03T11:32:27.606Z</time></trkpt><trkpt lat="44.7302293" lon="9.9120271"><ele>530.5</ele><time>2026-05-03T11:32:28.671Z</time></trkpt><trkpt lat="44.7301345" lon="9.9117838"><ele>544.0</ele><time>2026-05-03T11:32:29.68Z</time></trkpt><trkpt lat="44.7299996" lon="9.911443"><ele>532.0</ele><time>2026-05-03T11:32:31.645Z</time></trkpt><trkpt lat="44.729706" lon="9.9106936"><ele>532.0</ele><time>2026-05-03T11:32:32.674Z</time></trkpt><trkpt lat="44.7296676" lon="9.9106182"><ele>532.0</ele><time>2026-05-03T11:32:33.675Z</time></trkpt><trkpt lat="44.7295953" lon="9.9105015"><ele>532.0</ele><time>2026-05-03T11:32:34.674Z</time></trkpt><trkpt lat="44.7296208" lon="9.9102347"><ele>532.0</ele><time>2026-05-03T11:32:38.7Z</time></trkpt><trkpt lat="44.7298497" lon="9.9094734"><ele>532.0</ele><time>2026-05-03T11:32:39.156Z</time></trkpt><trkpt lat="44.7299341" lon="9.9093981"><ele>532.0</ele><time>2026-05-03T11:32:40.64Z</time></trkpt><trkpt lat="44.7300002" lon="9.9093829"><ele>532.0</ele><time>2026-05-03T11:32:42.642Z</time></trkpt><trkpt lat="44.7301863" lon="9.9093783"><ele>532.0</ele><time>2026-05-03T11:32:44.648Z</time></trkpt><trkpt lat="44.7303921" lon="9.9093712"><ele>521.5</ele><time>2026-05-03T11:32:45.665Z</time></trkpt><trkpt lat="44.7305634" lon="9.9093623"><ele>511.0</ele><time>2026-05-03T11:32:46.444Z</time></trkpt><trkpt lat="44.7308426" lon="9.9093305"><ele>511.0</ele><time>2026-05-03T11:32:47.644Z</time></trkpt><trkpt lat="44.730938" lon="9.9093249"><ele>511.0</ele><time>2026-05-03T11:32:48.644Z</time></trkpt><trkpt lat="44.7311097" lon="9.9091249"><ele>511.0</ele><time>2026-05-03T11:32:50.714Z</time></trkpt><trkpt lat="44.7312439" lon="9.9089054"><ele>510.33333333333337</ele><time>2026-05-03T11:32:51.672Z</time></trkpt><trkpt lat="44.7313707" lon="9.9086729"><ele>509.66666666666663</ele><time>2026-05-03T11:32:52.643Z</time></trkpt><trkpt lat="44.7314888" lon="9.9084727"><ele>509.0</ele><time>2026-05-03T11:32:53.635Z</time></trkpt><trkpt lat="44.7315819" lon="9.9083437"><ele>516.5</ele><time>2026-05-03T11:32:54.648Z</time></trkpt><trkpt lat="44.731697" lon="9.90827"><ele>524.0</ele><time>2026-05-03T11:32:57.648Z</time></trkpt><trkpt lat="44.7322042" lon="9.9080165"><ele>524.0</ele><time>2026-05-03T11:32:59.648Z</time></trkpt><trkpt lat="44.7323362" lon="9.907931"><ele>524.0</ele><time>2026-05-03T11:33:00.667Z</time></trkpt><trkpt lat="44.7324293" lon="9.9077627"><ele>524.0</ele><time>2026-05-03T11:33:01.287Z</time></trkpt><trkpt lat="44.7324335" lon="9.9074921"><ele>523.6666666666666</ele><time>2026-05-03T11:33:05.664Z</time></trkpt><trkpt lat="44.7324124" lon="9.9071803"><ele>523.3333333333334</ele><time>2026-05-03T11:33:06.675Z</time></trkpt><trkpt lat="44.7323348" lon="9.9069026"><ele>523.0</ele><time>2026-05-03T11:33:07.653Z</time></trkpt><trkpt lat="44.7321948" lon="9.9065399"><ele>536.5</ele><time>2026-05-03T11:33:08.605Z</time></trkpt><trkpt lat="44.7318764" lon="9.9062609"><ele>550.0</ele><time>2026-05-03T11:33:11.687Z</time></trkpt><trkpt lat="44.731667" lon="9.9060731"><ele>544.5</ele><time>2026-05-03T11:33:12.62Z</time></trkpt><trkpt lat="44.7314414" lon="9.9058205"><ele>539.0</ele><time>2026-05-03T11:33:13.52Z</time></trkpt><trkpt lat="44.7312794" lon="9.9056262"><ele>539.0</ele><time>2026-05-03T11:33:14.67Z</time></trkpt><trkpt lat="44.7312545" lon="9.9053886"><ele>539.0</ele><time>2026-05-03T11:33:15.644Z</time></trkpt><trkpt lat="44.7312251" lon="9.9050359"><ele>539.0</ele><time>2026-05-03T11:33:16.648Z</time></trkpt><trkpt lat="44.73118" lon="9.9046988"><ele>538.0</ele><time>2026-05-03T11:33:17.653Z</time></trkpt><trkpt lat="44.7311135" lon="9.9043089"><ele>537.0</ele><time>2026-05-03T11:33:18.652Z</time></trkpt><trkpt lat="44.7310826" lon="9.904109"><ele>536.0</ele><time>2026-05-03T11:33:22.648Z</time></trkpt><trkpt lat="44.7310505" lon="9.9036657"><ele>537.5</ele><time>2026-05-03T11:33:23.649Z</time></trkpt><trkpt lat="44.7310673" lon="9.903221"><ele>539.0</ele><time>2026-05-03T11:33:24.649Z</time></trkpt><trkpt lat="44.7310865" lon="9.902911"><ele>543.5</ele><time>2026-05-03T11:33:25.648Z</time></trkpt><trkpt lat="44.7311689" lon="9.9025579"><ele>548.0</ele><time>2026-05-03T11:33:27.65Z</time></trkpt><trkpt lat="44.7312674" lon="9.9022129"><ele>552.5</ele><time>2026-05-03T11:33:28.65Z</time></trkpt><trkpt lat="44.7314099" lon="9.9017349"><ele>557.0</ele><time>2026-05-03T11:33:29.649Z</time></trkpt><trkpt lat="44.7315038" lon="9.9014331"><ele>557.0</ele><time>2026-05-03T11:33:30.651Z</time></trkpt><trkpt lat="44.7315952" lon="9.9012729"><ele>557.0</ele><time>2026-05-03T11:33:33.646Z</time></trkpt><trkpt lat="44.7317504" lon="9.9009851"><ele>557.0</ele><time>2026-05-03T11:33:34.645Z</time></trkpt><trkpt lat="44.7318617" lon="9.9007618"><ele>552.25</ele><time>2026-05-03T11:33:35.64Z</time></trkpt><trkpt lat="44.7319643" lon="9.9005127"><ele>547.5</ele><time>2026-05-03T11:33:36.641Z</time></trkpt><trkpt lat="44.7320013" lon="9.9003714"><ele>542.75</ele><time>2026-05-03T11:33:37.641Z</time></trkpt><trkpt lat="44.732021" lon="9.9002604"><ele>538.0</ele><time>2026-05-03T11:33:38.642Z</time></trkpt><trkpt lat="44.7319084" lon="9.9002236"><ele>546.0</ele><time>2026-05-03T11:33:39.642Z</time></trkpt><trkpt lat="44.731725" lon="9.9001654"><ele>554.0</ele><time>2026-05-03T11:33:40.64Z</time></trkpt><trkpt lat="44.7315277" lon="9.9000745"><ele>562.0</ele><time>2026-05-03T11:33:41.666Z</time></trkpt><trkpt lat="44.7313532" lon="9.8999565"><ele>562.0</ele><time>2026-05-03T11:33:42.638Z</time></trkpt><trkpt lat="44.7312482" lon="9.8998092"><ele>562.0</ele><time>2026-05-03T11:33:43.672Z</time></trkpt><trkpt lat="44.7312121" lon="9.8996586"><ele>562.0</ele><time>2026-05-03T11:33:44.667Z</time></trkpt><trkpt lat="44.7312352" lon="9.8995127"><ele>562.0</ele><time>2026-05-03T11:33:45.643Z</time></trkpt><trkpt lat="44.7312829" lon="9.8993687"><ele>561.6</ele><time>2026-05-03T11:33:46.641Z</time></trkpt><trkpt lat="44.7313222" lon="9.8992175"><ele>561.2</ele><time>2026-05-03T11:33:47.638Z</time></trkpt><trkpt lat="44.7313717" lon="9.8990825"><ele>560.8</ele><time>2026-05-03T11:33:48.644Z</time></trkpt><trkpt lat="44.7313768" lon="9.8989472"><ele>560.4</ele><time>2026-05-03T11:33:49.669Z</time></trkpt><trkpt lat="44.7313599" lon="9.8988268"><ele>560.0</ele><time>2026-05-03T11:33:50.641Z</time></trkpt><trkpt lat="44.7313446" lon="9.8987094"><ele>560.0</ele><time>2026-05-03T11:33:51.673Z</time></trkpt><trkpt lat="44.7313386" lon="9.8985905"><ele>560.0</ele><time>2026-05-03T11:33:52.696Z</time></trkpt><trkpt lat="44.7313474" lon="9.8984678"><ele>560.0</ele><time>2026-05-03T11:33:53.647Z</time></trkpt><trkpt lat="44.7313882" lon="9.8983216"><ele>560.0</ele><time>2026-05-03T11:33:54.647Z</time></trkpt><trkpt lat="44.7314148" lon="9.8981648"><ele>560.0</ele><time>2026-05-03T11:33:55.671Z</time></trkpt><trkpt lat="44.7314315" lon="9.8979899"><ele>560.6666666666666</ele><time>2026-05-03T11:33:56.65Z</time></trkpt><trkpt lat="44.7314087" lon="9.8977878"><ele>561.3333333333334</ele><time>2026-05-03T11:33:57.676Z</time></trkpt><trkpt lat="44.7313634" lon="9.8975725"><ele>562.0</ele><time>2026-05-03T11:33:58.677Z</time></trkpt><trkpt lat="44.7313128" lon="9.8973442"><ele>563.6666666666667</ele><time>2026-05-03T11:33:59.677Z</time></trkpt><trkpt lat="44.7312886" lon="9.8971436"><ele>565.3333333333334</ele><time>2026-05-03T11:34:00.651Z</time></trkpt><trkpt lat="44.7312857" lon="9.8967901"><ele>567.0</ele><time>2026-05-03T11:34:02.651Z</time></trkpt><trkpt lat="44.7312882" lon="9.8966877"><ele>568.6666666666666</ele><time>2026-05-03T11:34:03.652Z</time></trkpt><trkpt lat="44.7312738" lon="9.8964854"><ele>570.3333333333333</ele><time>2026-05-03T11:34:05.676Z</time></trkpt><trkpt lat="44.7312506" lon="9.8961925"><ele>572.0</ele><time>2026-05-03T11:34:06.677Z</time></trkpt><trkpt lat="44.7312039" lon="9.8956811"><ele>572.0</ele><time>2026-05-03T11:34:07.651Z</time></trkpt><trkpt lat="44.7311879" lon="9.8954173"><ele>572.0</ele><time>2026-05-03T11:34:08.65Z</time></trkpt><trkpt lat="44.731188" lon="9.89529"><ele>572.0</ele><time>2026-05-03T11:34:09.651Z</time></trkpt><trkpt lat="44.7310717" lon="9.895055"><ele>590.0</ele><time>2026-05-03T11:34:11.651Z</time></trkpt><trkpt lat="44.7305259" lon="9.8944329"><ele>590.0</ele><time>2026-05-03T11:34:12.681Z</time></trkpt><trkpt lat="44.7303731" lon="9.8943134"><ele>590.0</ele><time>2026-05-03T11:34:13.677Z</time></trkpt><trkpt lat="44.7302613" lon="9.8941705"><ele>590.0</ele><time>2026-05-03T11:34:17.648Z</time></trkpt><trkpt lat="44.7301229" lon="9.8940095"><ele>598.0</ele><time>2026-05-03T11:34:18.643Z</time></trkpt><trkpt lat="44.7296674" lon="9.8935504"><ele>598.0</ele><time>2026-05-03T11:34:19.653Z</time></trkpt><trkpt lat="44.7293804" lon="9.8934468"><ele>598.0</ele><time>2026-05-03T11:34:23.678Z</time></trkpt><trkpt lat="44.7290967" lon="9.8933204"><ele>598.0</ele><time>2026-05-03T11:34:24.652Z</time></trkpt><trkpt lat="44.728941" lon="9.8932214"><ele>598.0</ele><time>2026-05-03T11:34:25.648Z</time></trkpt><trkpt lat="44.7288329" lon="9.893159"><ele>598.0</ele><time>2026-05-03T11:34:26.65Z</time></trkpt><trkpt lat="44.7287213" lon="9.8930144"><ele>598.0</ele><time>2026-05-03T11:34:28.667Z</time></trkpt><trkpt lat="44.7285586" lon="9.8927974"><ele>607.5</ele><time>2026-05-03T11:34:29.668Z</time></trkpt><trkpt lat="44.7283833" lon="9.8925371"><ele>617.0</ele><time>2026-05-03T11:34:30.671Z</time></trkpt><trkpt lat="44.7282577" lon="9.8923147"><ele>617.0</ele><time>2026-05-03T11:34:31.642Z</time></trkpt><trkpt lat="44.7282124" lon="9.8922311"><ele>617.0</ele><time>2026-05-03T11:34:33.641Z</time></trkpt><trkpt lat="44.7281888" lon="9.8918565"><ele>617.0</ele><time>2026-05-03T11:34:35.643Z</time></trkpt><trkpt lat="44.7281089" lon="9.8913737"><ele>614.3333333333333</ele><time>2026-05-03T11:34:36.646Z</time></trkpt><trkpt lat="44.7280601" lon="9.8911865"><ele>611.6666666666666</ele><time>2026-05-03T11:34:37.645Z</time></trkpt><trkpt lat="44.7279286" lon="9.8910926"><ele>609.0</ele><time>2026-05-03T11:34:39.555Z</time></trkpt><trkpt lat="44.7273405" lon="9.891098"><ele>617.0</ele><time>2026-05-03T11:34:40.673Z</time></trkpt><trkpt lat="44.7269625" lon="9.8911424"><ele>625.0</ele><time>2026-05-03T11:34:41.651Z</time></trkpt><trkpt lat="44.726638" lon="9.8912228"><ele>629.0</ele><time>2026-05-03T11:34:42.651Z</time></trkpt><trkpt lat="44.7263646" lon="9.8913174"><ele>633.0</ele><time>2026-05-03T11:34:43.652Z</time></trkpt><trkpt lat="44.7261222" lon="9.8914338"><ele>632.0</ele><time>2026-05-03T11:34:44.644Z</time></trkpt><trkpt lat="44.7258921" lon="9.8915308"><ele>631.0</ele><time>2026-05-03T11:34:45.646Z</time></trkpt><trkpt lat="44.7257016" lon="9.8916133"><ele>630.0</ele><time>2026-05-03T11:34:46.647Z</time></trkpt><trkpt lat="44.7255381" lon="9.8916645"><ele>630.0</ele><time>2026-05-03T11:34:47.646Z</time></trkpt><trkpt lat="44.7253975" lon="9.8917055"><ele>630.0</ele><time>2026-05-03T11:34:48.648Z</time></trkpt><trkpt lat="44.7252512" lon="9.8916936"><ele>630.0</ele><time>2026-05-03T11:34:49.648Z</time></trkpt><trkpt lat="44.7251353" lon="9.8916565"><ele>630.0</ele><time>2026-05-03T11:34:50.646Z</time></trkpt><trkpt lat="44.7250147" lon="9.8916132"><ele>632.0</ele><time>2026-05-03T11:34:51.646Z</time></trkpt><trkpt lat="44.7249182" lon="9.8915221"><ele>634.0</ele><time>2026-05-03T11:34:52.643Z</time></trkpt><trkpt lat="44.7248696" lon="9.8913811"><ele>636.0</ele><time>2026-05-03T11:34:53.666Z</time></trkpt><trkpt lat="44.7248594" lon="9.8911924"><ele>638.0</ele><time>2026-05-03T11:34:54.667Z</time></trkpt><trkpt lat="44.7249084" lon="9.8909553"><ele>638.0</ele><time>2026-05-03T11:34:55.639Z</time></trkpt><trkpt lat="44.7249526" lon="9.890696"><ele>638.0</ele><time>2026-05-03T11:34:56.647Z</time></trkpt><trkpt lat="44.7249908" lon="9.8904321"><ele>638.0</ele><time>2026-05-03T11:34:57.647Z</time></trkpt><trkpt lat="44.7249977" lon="9.8901723"><ele>636.3333333333333</ele><time>2026-05-03T11:34:58.647Z</time></trkpt><trkpt lat="44.7249685" lon="9.8899356"><ele>634.6666666666666</ele><time>2026-05-03T11:34:59.649Z</time></trkpt><trkpt lat="44.7248966" lon="9.8897394"><ele>633.0</ele><time>2026-05-03T11:35:00.644Z</time></trkpt><trkpt lat="44.7247998" lon="9.8895899"><ele>633.0</ele><time>2026-05-03T11:35:01.641Z</time></trkpt><trkpt lat="44.7246695" lon="9.889468"><ele>633.0</ele><time>2026-05-03T11:35:02.641Z</time></trkpt><trkpt lat="44.7245162" lon="9.8893822"><ele>633.0</ele><time>2026-05-03T11:35:03.642Z</time></trkpt><trkpt lat="44.7243595" lon="9.8893346"><ele>633.0</ele><time>2026-05-03T11:35:04.647Z</time></trkpt><trkpt lat="44.7241974" lon="9.889316"><ele>633.0</ele><time>2026-05-03T11:35:05.646Z</time></trkpt><trkpt lat="44.7240011" lon="9.8892903"><ele>633.0</ele><time>2026-05-03T11:35:06.65Z</time></trkpt><trkpt lat="44.7238057" lon="9.8892535"><ele>633.0</ele><time>2026-05-03T11:35:07.65Z</time></trkpt><trkpt lat="44.723635" lon="9.889211"><ele>633.0</ele><time>2026-05-03T11:35:08.641Z</time></trkpt><trkpt lat="44.7234938" lon="9.8892002"><ele>633.0</ele><time>2026-05-03T11:35:09.646Z</time></trkpt><trkpt lat="44.7233792" lon="9.8892506"><ele>633.0</ele><time>2026-05-03T11:35:10.65Z</time></trkpt><trkpt lat="44.723273" lon="9.8893367"><ele>646.6666666666666</ele><time>2026-05-03T11:35:11.65Z</time></trkpt><trkpt lat="44.7231417" lon="9.8894687"><ele>660.3333333333333</ele><time>2026-05-03T11:35:12.646Z</time></trkpt><trkpt lat="44.722986" lon="9.8896227"><ele>674.0</ele><time>2026-05-03T11:35:13.651Z</time></trkpt><trkpt lat="44.7228049" lon="9.8898068"><ele>669.6666666666666</ele><time>2026-05-03T11:35:14.647Z</time></trkpt><trkpt lat="44.7226025" lon="9.8899534"><ele>665.3333333333334</ele><time>2026-05-03T11:35:15.646Z</time></trkpt><trkpt lat="44.7224074" lon="9.8900777"><ele>661.0</ele><time>2026-05-03T11:35:16.643Z</time></trkpt><trkpt lat="44.722218" lon="9.8902063"><ele>669.6666666666667</ele><time>2026-05-03T11:35:17.647Z</time></trkpt><trkpt lat="44.7220533" lon="9.8903233"><ele>678.3333333333334</ele><time>2026-05-03T11:35:18.648Z</time></trkpt><trkpt lat="44.7219063" lon="9.8904365"><ele>687.0</ele><time>2026-05-03T11:35:19.646Z</time></trkpt><trkpt lat="44.7217713" lon="9.8905123"><ele>687.0</ele><time>2026-05-03T11:35:20.647Z</time></trkpt><trkpt lat="44.721635" lon="9.8905389"><ele>687.0</ele><time>2026-05-03T11:35:21.633Z</time></trkpt><trkpt lat="44.7214988" lon="9.890547"><ele>687.0</ele><time>2026-05-03T11:35:22.629Z</time></trkpt><trkpt lat="44.7213603" lon="9.8904915"><ele>687.0</ele><time>2026-05-03T11:35:23.643Z</time></trkpt><trkpt lat="44.7212671" lon="9.8903782"><ele>687.0</ele><time>2026-05-03T11:35:24.671Z</time></trkpt><trkpt lat="44.721206" lon="9.8902269"><ele>687.0</ele><time>2026-05-03T11:35:25.642Z</time></trkpt><trkpt lat="44.721199" lon="9.8900123"><ele>687.0</ele><time>2026-05-03T11:35:26.64Z</time></trkpt><trkpt lat="44.7212015" lon="9.8897419"><ele>679.3333333333334</ele><time>2026-05-03T11:35:27.674Z</time></trkpt><trkpt lat="44.7212257" lon="9.8894526"><ele>671.6666666666667</ele><time>2026-05-03T11:35:28.671Z</time></trkpt><trkpt lat="44.7212368" lon="9.8891677"><ele>664.0</ele><time>2026-05-03T11:35:29.672Z</time></trkpt><trkpt lat="44.7212223" lon="9.8889214"><ele>664.0</ele><time>2026-05-03T11:35:30.647Z</time></trkpt><trkpt lat="44.7211449" lon="9.8887093"><ele>664.0</ele><time>2026-05-03T11:35:31.629Z</time></trkpt><trkpt lat="44.7209941" lon="9.888528"><ele>664.0</ele><time>2026-05-03T11:35:32.639Z</time></trkpt><trkpt lat="44.7208502" lon="9.8883824"><ele>664.0</ele><time>2026-05-03T11:35:33.637Z</time></trkpt><trkpt lat="44.7206405" lon="9.8882531"><ele>664.0</ele><time>2026-05-03T11:35:34.635Z</time></trkpt><trkpt lat="44.7204132" lon="9.8881442"><ele>671.5</ele><time>2026-05-03T11:35:35.643Z</time></trkpt><trkpt lat="44.7201546" lon="9.8880572"><ele>679.0</ele><time>2026-05-03T11:35:36.647Z</time></trkpt><trkpt lat="44.7198763" lon="9.8879827"><ele>679.0</ele><time>2026-05-03T11:35:37.645Z</time></trkpt><trkpt lat="44.7196298" lon="9.8879092"><ele>679.0</ele><time>2026-05-03T11:35:38.67Z</time></trkpt><trkpt lat="44.7193886" lon="9.8878549"><ele>683.0</ele><time>2026-05-03T11:35:39.649Z</time></trkpt><trkpt lat="44.7191528" lon="9.8878095"><ele>687.0</ele><time>2026-05-03T11:35:40.651Z</time></trkpt><trkpt lat="44.7189203" lon="9.8877847"><ele>687.0</ele><time>2026-05-03T11:35:41.648Z</time></trkpt><trkpt lat="44.7186862" lon="9.8877776"><ele>687.0</ele><time>2026-05-03T11:35:42.645Z</time></trkpt><trkpt lat="44.7184619" lon="9.887771"><ele>689.3333333333334</ele><time>2026-05-03T11:35:43.645Z</time></trkpt><trkpt lat="44.7182367" lon="9.8877764"><ele>691.6666666666667</ele><time>2026-05-03T11:35:44.652Z</time></trkpt><trkpt lat="44.7180248" lon="9.8877731"><ele>694.0</ele><time>2026-05-03T11:35:45.652Z</time></trkpt><trkpt lat="44.7178623" lon="9.8877641"><ele>694.0</ele><time>2026-05-03T11:35:46.679Z</time></trkpt><trkpt lat="44.7177456" lon="9.8877244"><ele>694.0</ele><time>2026-05-03T11:35:47.68Z</time></trkpt><trkpt lat="44.7176497" lon="9.8876642"><ele>694.0</ele><time>2026-05-03T11:35:48.647Z</time></trkpt><trkpt lat="44.717573" lon="9.887562"><ele>694.0</ele><time>2026-05-03T11:35:49.675Z</time></trkpt><trkpt lat="44.7175221" lon="9.8873978"><ele>686.0</ele><time>2026-05-03T11:35:50.673Z</time></trkpt><trkpt lat="44.717493" lon="9.8871588"><ele>678.0</ele><time>2026-05-03T11:35:51.643Z</time></trkpt><trkpt lat="44.717517" lon="9.8868145"><ele>670.0</ele><time>2026-05-03T11:35:52.677Z</time></trkpt><trkpt lat="44.717529" lon="9.8865172"><ele>669.6666666666667</ele><time>2026-05-03T11:35:53.674Z</time></trkpt><trkpt lat="44.717537" lon="9.8862631"><ele>669.3333333333334</ele><time>2026-05-03T11:35:54.675Z</time></trkpt><trkpt lat="44.7175736" lon="9.886044"><ele>669.0</ele><time>2026-05-03T11:35:55.676Z</time></trkpt><trkpt lat="44.7176306" lon="9.8858459"><ele>668.0</ele><time>2026-05-03T11:35:56.702Z</time></trkpt><trkpt lat="44.7177093" lon="9.8856672"><ele>667.0</ele><time>2026-05-03T11:35:57.67Z</time></trkpt><trkpt lat="44.7177878" lon="9.8854924"><ele>666.0</ele><time>2026-05-03T11:35:58.644Z</time></trkpt><trkpt lat="44.7178482" lon="9.8852828"><ele>668.0</ele><time>2026-05-03T11:35:59.646Z</time></trkpt><trkpt lat="44.717887" lon="9.885073"><ele>670.0</ele><time>2026-05-03T11:36:00.65Z</time></trkpt><trkpt lat="44.7178921" lon="9.8848225"><ele>672.0</ele><time>2026-05-03T11:36:01.677Z</time></trkpt><trkpt lat="44.7178638" lon="9.884564"><ele>672.0</ele><time>2026-05-03T11:36:02.681Z</time></trkpt><trkpt lat="44.7178258" lon="9.8842992"><ele>672.0</ele><time>2026-05-03T11:36:03.656Z</time></trkpt><trkpt lat="44.7177975" lon="9.8840294"><ele>672.0</ele><time>2026-05-03T11:36:04.679Z</time></trkpt><trkpt lat="44.7177721" lon="9.8837682"><ele>672.0</ele><time>2026-05-03T11:36:05.652Z</time></trkpt><trkpt lat="44.7177686" lon="9.8835023"><ele>672.0</ele><time>2026-05-03T11:36:06.649Z</time></trkpt><trkpt lat="44.7178112" lon="9.8832457"><ele>672.0</ele><time>2026-05-03T11:36:07.649Z</time></trkpt><trkpt lat="44.7178874" lon="9.8829756"><ele>674.6666666666666</ele><time>2026-05-03T11:36:08.651Z</time></trkpt><trkpt lat="44.7180051" lon="9.882806"><ele>677.3333333333333</ele><time>2026-05-03T11:36:10.647Z</time></trkpt><trkpt lat="44.7180313" lon="9.8827246"><ele>680.0</ele><time>2026-05-03T11:36:11.647Z</time></trkpt><trkpt lat="44.718177" lon="9.882435"><ele>680.0</ele><time>2026-05-03T11:36:14.527Z</time></trkpt><trkpt lat="44.7184997" lon="9.8819253"><ele>677.5</ele><time>2026-05-03T11:36:15.652Z</time></trkpt><trkpt lat="44.7186653" lon="9.8817002"><ele>675.0</ele><time>2026-05-03T11:36:16.652Z</time></trkpt><trkpt lat="44.7187334" lon="9.8816491"><ele>672.5</ele><time>2026-05-03T11:36:18.644Z</time></trkpt><trkpt lat="44.7187996" lon="9.8815219"><ele>670.0</ele><time>2026-05-03T11:36:20.641Z</time></trkpt><trkpt lat="44.7189132" lon="9.8812718"><ele>670.0</ele><time>2026-05-03T11:36:21.649Z</time></trkpt><trkpt lat="44.7190286" lon="9.8809786"><ele>670.0</ele><time>2026-05-03T11:36:22.649Z</time></trkpt><trkpt lat="44.7191271" lon="9.8807496"><ele>670.0</ele><time>2026-05-03T11:36:23.633Z</time></trkpt><trkpt lat="44.7191874" lon="9.8806107"><ele>670.0</ele><time>2026-05-03T11:36:24.642Z</time></trkpt><trkpt lat="44.7192495" lon="9.880297"><ele>670.0</ele><time>2026-05-03T11:36:26.653Z</time></trkpt><trkpt lat="44.7192759" lon="9.8801054"><ele>670.0</ele><time>2026-05-03T11:36:27.59Z</time></trkpt><trkpt lat="44.7193035" lon="9.8797827"><ele>669.5</ele><time>2026-05-03T11:36:28.15Z</time></trkpt><trkpt lat="44.7193122" lon="9.8796175"><ele>669.0</ele><time>2026-05-03T11:36:28.677Z</time></trkpt><trkpt lat="44.7193188" lon="9.8792544"><ele>668.5</ele><time>2026-05-03T11:36:29.676Z</time></trkpt><trkpt lat="44.7193227" lon="9.8791651"><ele>668.0</ele><time>2026-05-03T11:36:31.676Z</time></trkpt><trkpt lat="44.7192701" lon="9.8790462"><ele>667.5</ele><time>2026-05-03T11:36:33.65Z</time></trkpt><trkpt lat="44.7191574" lon="9.87879"><ele>667.0</ele><time>2026-05-03T11:36:34.649Z</time></trkpt><trkpt lat="44.7190315" lon="9.8784451"><ele>667.0</ele><time>2026-05-03T11:36:35.652Z</time></trkpt><trkpt lat="44.7189943" lon="9.8783167"><ele>667.0</ele><time>2026-05-03T11:36:36.654Z</time></trkpt><trkpt lat="44.7189581" lon="9.878187"><ele>667.0</ele><time>2026-05-03T11:36:37.675Z</time></trkpt><trkpt lat="44.7190025" lon="9.8778109"><ele>667.0</ele><time>2026-05-03T11:36:38.653Z</time></trkpt><trkpt lat="44.7190292" lon="9.8776362"><ele>667.0</ele><time>2026-05-03T11:36:39.572Z</time></trkpt><trkpt lat="44.7190833" lon="9.8772242"><ele>667.0</ele><time>2026-05-03T11:36:40.653Z</time></trkpt><trkpt lat="44.7191055" lon="9.8770478"><ele>666.0</ele><time>2026-05-03T11:36:41.677Z</time></trkpt><trkpt lat="44.7192061" lon="9.8767729"><ele>665.0</ele><time>2026-05-03T11:36:43.679Z</time></trkpt><trkpt lat="44.7193389" lon="9.8765061"><ele>665.0</ele><time>2026-05-03T11:36:44.654Z</time></trkpt><trkpt lat="44.7194764" lon="9.8762735"><ele>665.0</ele><time>2026-05-03T11:36:45.682Z</time></trkpt><trkpt lat="44.7195942" lon="9.8761046"><ele>665.0</ele><time>2026-05-03T11:36:46.65Z</time></trkpt><trkpt lat="44.7197809" lon="9.8756886"><ele>665.0</ele><time>2026-05-03T11:36:49.649Z</time></trkpt><trkpt lat="44.7198367" lon="9.875553"><ele>665.0</ele><time>2026-05-03T11:36:50.592Z</time></trkpt><trkpt lat="44.7200042" lon="9.8748645"><ele>664.3333333333333</ele><time>2026-05-03T11:36:51.656Z</time></trkpt><trkpt lat="44.7200153" lon="9.8747715"><ele>663.6666666666666</ele><time>2026-05-03T11:36:53.653Z</time></trkpt><trkpt lat="44.7201396" lon="9.8746185"><ele>663.0</ele><time>2026-05-03T11:36:54.682Z</time></trkpt><trkpt lat="44.7203186" lon="9.8744126"><ele>662.3333333333334</ele><time>2026-05-03T11:36:55.673Z</time></trkpt><trkpt lat="44.7204663" lon="9.874217"><ele>661.6666666666667</ele><time>2026-05-03T11:36:56.676Z</time></trkpt><trkpt lat="44.7205881" lon="9.8740462"><ele>661.0</ele><time>2026-05-03T11:36:57.645Z</time></trkpt><trkpt lat="44.7206984" lon="9.8738523"><ele>661.0</ele><time>2026-05-03T11:36:58.674Z</time></trkpt><trkpt lat="44.7207657" lon="9.8736166"><ele>661.0</ele><time>2026-05-03T11:36:59.648Z</time></trkpt><trkpt lat="44.7208167" lon="9.8733538"><ele>661.0</ele><time>2026-05-03T11:37:00.698Z</time></trkpt><trkpt lat="44.7208611" lon="9.8730991"><ele>661.3333333333334</ele><time>2026-05-03T11:37:01.702Z</time></trkpt><trkpt lat="44.7208903" lon="9.872868"><ele>661.6666666666666</ele><time>2026-05-03T11:37:02.677Z</time></trkpt><trkpt lat="44.7209153" lon="9.8726269"><ele>662.0</ele><time>2026-05-03T11:37:03.678Z</time></trkpt><trkpt lat="44.7209127" lon="9.8723892"><ele>662.6666666666666</ele><time>2026-05-03T11:37:04.677Z</time></trkpt><trkpt lat="44.7208825" lon="9.8721602"><ele>663.3333333333334</ele><time>2026-05-03T11:37:05.678Z</time></trkpt><trkpt lat="44.7208288" lon="9.8719604"><ele>664.0</ele><time>2026-05-03T11:37:06.682Z</time></trkpt><trkpt lat="44.72077" lon="9.8717613"><ele>666.0</ele><time>2026-05-03T11:37:07.674Z</time></trkpt><trkpt lat="44.7207075" lon="9.8715341"><ele>668.0</ele><time>2026-05-03T11:37:08.654Z</time></trkpt><trkpt lat="44.7206445" lon="9.8712722"><ele>670.0</ele><time>2026-05-03T11:37:09.676Z</time></trkpt><trkpt lat="44.720611" lon="9.8709991"><ele>671.6666666666667</ele><time>2026-05-03T11:37:10.678Z</time></trkpt><trkpt lat="44.7206173" lon="9.8707309"><ele>673.3333333333334</ele><time>2026-05-03T11:37:11.68Z</time></trkpt><trkpt lat="44.720634" lon="9.8704687"><ele>675.0</ele><time>2026-05-03T11:37:12.677Z</time></trkpt><trkpt lat="44.7206545" lon="9.8702141"><ele>678.0</ele><time>2026-05-03T11:37:13.657Z</time></trkpt><trkpt lat="44.720669" lon="9.869963"><ele>681.0</ele><time>2026-05-03T11:37:14.653Z</time></trkpt><trkpt lat="44.7206669" lon="9.8697351"><ele>684.0</ele><time>2026-05-03T11:37:15.68Z</time></trkpt><trkpt lat="44.7206121" lon="9.869536"><ele>684.0</ele><time>2026-05-03T11:37:16.659Z</time></trkpt><trkpt lat="44.7205282" lon="9.8696143"><ele>684.0</ele><time>2026-05-03T11:37:17.638Z</time></trkpt><trkpt lat="44.720446" lon="9.8694657"><ele>684.0</ele><time>2026-05-03T11:37:18.647Z</time></trkpt><trkpt lat="44.720408" lon="9.8693804"><ele>684.0</ele><time>2026-05-03T11:37:19.681Z</time></trkpt><trkpt lat="44.7203427" lon="9.8692152"><ele>684.0</ele><time>2026-05-03T11:37:21.677Z</time></trkpt><trkpt lat="44.72024" lon="9.8689938"><ele>683.5</ele><time>2026-05-03T11:37:22.673Z</time></trkpt><trkpt lat="44.7200977" lon="9.8686841"><ele>683.0</ele><time>2026-05-03T11:37:23.673Z</time></trkpt><trkpt lat="44.7198633" lon="9.868174"><ele>683.0</ele><time>2026-05-03T11:37:24.636Z</time></trkpt><trkpt lat="44.7197692" lon="9.8679026"><ele>683.0</ele><time>2026-05-03T11:37:25.674Z</time></trkpt><trkpt lat="44.7196862" lon="9.8676331"><ele>683.0</ele><time>2026-05-03T11:37:26.672Z</time></trkpt><trkpt lat="44.7195821" lon="9.8672064"><ele>685.25</ele><time>2026-05-03T11:37:27.666Z</time></trkpt><trkpt lat="44.7195575" lon="9.8670448"><ele>687.5</ele><time>2026-05-03T11:37:28.667Z</time></trkpt><trkpt lat="44.7195504" lon="9.8669266"><ele>689.75</ele><time>2026-05-03T11:37:29.673Z</time></trkpt><trkpt lat="44.7194696" lon="9.8666036"><ele>692.0</ele><time>2026-05-03T11:37:31.676Z</time></trkpt><trkpt lat="44.7192446" lon="9.8658061"><ele>688.25</ele><time>2026-05-03T11:37:32.651Z</time></trkpt><trkpt lat="44.7192318" lon="9.8657045"><ele>684.5</ele><time>2026-05-03T11:37:33.653Z</time></trkpt><trkpt lat="44.7192187" lon="9.8655374"><ele>680.75</ele><time>2026-05-03T11:37:35.68Z</time></trkpt><trkpt lat="44.719261" lon="9.8652662"><ele>677.0</ele><time>2026-05-03T11:37:36.68Z</time></trkpt><trkpt lat="44.7193063" lon="9.8650294"><ele>677.0</ele><time>2026-05-03T11:37:37.676Z</time></trkpt><trkpt lat="44.7193551" lon="9.8647744"><ele>677.0</ele><time>2026-05-03T11:37:38.679Z</time></trkpt><trkpt lat="44.719397" lon="9.8645722"><ele>677.0</ele><time>2026-05-03T11:37:39.678Z</time></trkpt><trkpt lat="44.7195286" lon="9.8641101"><ele>682.0</ele><time>2026-05-03T11:37:41.677Z</time></trkpt><trkpt lat="44.7196239" lon="9.8636972"><ele>687.0</ele><time>2026-05-03T11:37:42.676Z</time></trkpt><trkpt lat="44.7196443" lon="9.8635997"><ele>692.0</ele><time>2026-05-03T11:37:43.68Z</time></trkpt><trkpt lat="44.7197347" lon="9.8633482"><ele>692.0</ele><time>2026-05-03T11:37:48.639Z</time></trkpt><trkpt lat="44.7199598" lon="9.862793"><ele>692.0</ele><time>2026-05-03T11:37:49.6Z</time></trkpt><trkpt lat="44.7200836" lon="9.8625515"><ele>692.0</ele><time>2026-05-03T11:37:50.647Z</time></trkpt><trkpt lat="44.7203672" lon="9.8620885"><ele>691.6666666666666</ele><time>2026-05-03T11:37:51.677Z</time></trkpt><trkpt lat="44.7205186" lon="9.8618391"><ele>691.3333333333334</ele><time>2026-05-03T11:37:52.677Z</time></trkpt><trkpt lat="44.7206123" lon="9.8616851"><ele>691.0</ele><time>2026-05-03T11:37:53.679Z</time></trkpt><trkpt lat="44.720785" lon="9.8614204"><ele>693.0</ele><time>2026-05-03T11:37:55.656Z</time></trkpt><trkpt lat="44.7210117" lon="9.8610749"><ele>695.0</ele><time>2026-05-03T11:37:56.685Z</time></trkpt><trkpt lat="44.7210548" lon="9.8610072"><ele>697.0</ele><time>2026-05-03T11:37:57.598Z</time></trkpt><trkpt lat="44.721218" lon="9.8607553"><ele>701.0</ele><time>2026-05-03T11:37:58.682Z</time></trkpt><trkpt lat="44.7213533" lon="9.8605718"><ele>705.0</ele><time>2026-05-03T11:37:59.648Z</time></trkpt><trkpt lat="44.7215819" lon="9.8602894"><ele>705.0</ele><time>2026-05-03T11:38:00.651Z</time></trkpt><trkpt lat="44.7216942" lon="9.8601465"><ele>705.0</ele><time>2026-05-03T11:38:01.654Z</time></trkpt><trkpt lat="44.7217545" lon="9.8600659"><ele>705.0</ele><time>2026-05-03T11:38:02.677Z</time></trkpt><trkpt lat="44.7219309" lon="9.8599185"><ele>705.0</ele><time>2026-05-03T11:38:03.676Z</time></trkpt><trkpt lat="44.7223608" lon="9.8593881"><ele>705.5</ele><time>2026-05-03T11:38:04.678Z</time></trkpt><trkpt lat="44.7223555" lon="9.8592966"><ele>706.0</ele><time>2026-05-03T11:38:05.679Z</time></trkpt><trkpt lat="44.7224028" lon="9.8590143"><ele>706.5</ele><time>2026-05-03T11:38:07.682Z</time></trkpt><trkpt lat="44.7224418" lon="9.8587951"><ele>707.0</ele><time>2026-05-03T11:38:08.683Z</time></trkpt><trkpt lat="44.722482" lon="9.8584824"><ele>708.0</ele><time>2026-05-03T11:38:09.679Z</time></trkpt><trkpt lat="44.7225039" lon="9.8582576"><ele>709.0</ele><time>2026-05-03T11:38:10.677Z</time></trkpt><trkpt lat="44.7225141" lon="9.8581472"><ele>710.0</ele><time>2026-05-03T11:38:11.646Z</time></trkpt><trkpt lat="44.7225254" lon="9.8579029"><ele>711.0</ele><time>2026-05-03T11:38:13.68Z</time></trkpt><trkpt lat="44.7225739" lon="9.8574967"><ele>711.5</ele><time>2026-05-03T11:38:14.683Z</time></trkpt><trkpt lat="44.7226241" lon="9.8571289"><ele>712.0</ele><time>2026-05-03T11:38:15.684Z</time></trkpt><trkpt lat="44.7227816" lon="9.8567054"><ele>715.0</ele><time>2026-05-03T11:38:16.682Z</time></trkpt><trkpt lat="44.7229131" lon="9.8564076"><ele>718.0</ele><time>2026-05-03T11:38:17.655Z</time></trkpt><trkpt lat="44.7230226" lon="9.856157"><ele>721.5</ele><time>2026-05-03T11:38:18.653Z</time></trkpt><trkpt lat="44.7232249" lon="9.855786"><ele>725.0</ele><time>2026-05-03T11:38:19.677Z</time></trkpt><trkpt lat="44.7233655" lon="9.8555584"><ele>725.0</ele><time>2026-05-03T11:38:20.678Z</time></trkpt><trkpt lat="44.7235341" lon="9.8553107"><ele>725.0</ele><time>2026-05-03T11:38:21.677Z</time></trkpt><trkpt lat="44.7237507" lon="9.8549094"><ele>727.6666666666666</ele><time>2026-05-03T11:38:22.677Z</time></trkpt><trkpt lat="44.7238222" lon="9.8547667"><ele>730.3333333333334</ele><time>2026-05-03T11:38:23.633Z</time></trkpt><trkpt lat="44.723933" lon="9.8545406"><ele>733.0</ele><time>2026-05-03T11:38:24.535Z</time></trkpt><trkpt lat="44.724027" lon="9.8543081"><ele>735.5</ele><time>2026-05-03T11:38:25.652Z</time></trkpt><trkpt lat="44.7240843" lon="9.854137"><ele>738.0</ele><time>2026-05-03T11:38:26.653Z</time></trkpt><trkpt lat="44.7242343" lon="9.8536344"><ele>737.75</ele><time>2026-05-03T11:38:27.651Z</time></trkpt><trkpt lat="44.7242911" lon="9.8534265"><ele>737.5</ele><time>2026-05-03T11:38:28.677Z</time></trkpt><trkpt lat="44.7243144" lon="9.8533249"><ele>737.25</ele><time>2026-05-03T11:38:29.678Z</time></trkpt><trkpt lat="44.7243366" lon="9.8531966"><ele>737.0</ele><time>2026-05-03T11:38:31.301Z</time></trkpt><trkpt lat="44.7245306" lon="9.8526529"><ele>747.0</ele><time>2026-05-03T11:38:37.645Z</time></trkpt><trkpt lat="44.7248194" lon="9.8519213"><ele>746.0</ele><time>2026-05-03T11:38:38.558Z</time></trkpt><trkpt lat="44.7252655" lon="9.8508265"><ele>746.0</ele><time>2026-05-03T11:38:39.118Z</time></trkpt><trkpt lat="44.7253765" lon="9.8505571"><ele>746.0</ele><time>2026-05-03T11:38:39.647Z</time></trkpt><trkpt lat="44.7254234" lon="9.8504387"><ele>746.0</ele><time>2026-05-03T11:38:40.647Z</time></trkpt><trkpt lat="44.7254949" lon="9.8501719"><ele>733.0</ele><time>2026-05-03T11:38:41.646Z</time></trkpt><trkpt lat="44.7256999" lon="9.8492025"><ele>733.0</ele><time>2026-05-03T11:38:42.647Z</time></trkpt><trkpt lat="44.7256974" lon="9.8491033"><ele>733.0</ele><time>2026-05-03T11:38:43.65Z</time></trkpt><trkpt lat="44.7257102" lon="9.8487593"><ele>733.0</ele><time>2026-05-03T11:38:45.658Z</time></trkpt><trkpt lat="44.7257493" lon="9.8483873"><ele>731.5</ele><time>2026-05-03T11:38:46.645Z</time></trkpt><trkpt lat="44.7258175" lon="9.8480418"><ele>730.0</ele><time>2026-05-03T11:38:47.651Z</time></trkpt><trkpt lat="44.7259029" lon="9.8477108"><ele>727.5</ele><time>2026-05-03T11:38:48.648Z</time></trkpt><trkpt lat="44.7259845" lon="9.847345"><ele>725.0</ele><time>2026-05-03T11:38:49.674Z</time></trkpt><trkpt lat="44.7260611" lon="9.8470362"><ele>722.6666666666666</ele><time>2026-05-03T11:38:50.677Z</time></trkpt><trkpt lat="44.7261374" lon="9.8467484"><ele>720.3333333333334</ele><time>2026-05-03T11:38:51.648Z</time></trkpt><trkpt lat="44.726198" lon="9.8464369"><ele>718.0</ele><time>2026-05-03T11:38:52.65Z</time></trkpt><trkpt lat="44.7262091" lon="9.8461122"><ele>719.0</ele><time>2026-05-03T11:38:53.649Z</time></trkpt><trkpt lat="44.7262051" lon="9.8457947"><ele>720.0</ele><time>2026-05-03T11:38:54.648Z</time></trkpt><trkpt lat="44.7261753" lon="9.8454954"><ele>721.0</ele><time>2026-05-03T11:38:55.679Z</time></trkpt><trkpt lat="44.7261209" lon="9.8452338"><ele>723.3333333333334</ele><time>2026-05-03T11:38:56.681Z</time></trkpt><trkpt lat="44.7260461" lon="9.8450062"><ele>725.6666666666666</ele><time>2026-05-03T11:38:57.671Z</time></trkpt><trkpt lat="44.7259734" lon="9.8448067"><ele>728.0</ele><time>2026-05-03T11:38:58.651Z</time></trkpt><trkpt lat="44.7258992" lon="9.8446091"><ele>728.0</ele><time>2026-05-03T11:38:59.644Z</time></trkpt><trkpt lat="44.7258406" lon="9.8444054"><ele>728.0</ele><time>2026-05-03T11:39:00.676Z</time></trkpt><trkpt lat="44.7257993" lon="9.8441866"><ele>728.0</ele><time>2026-05-03T11:39:01.68Z</time></trkpt><trkpt lat="44.7258053" lon="9.8439592"><ele>728.0</ele><time>2026-05-03T11:39:02.679Z</time></trkpt><trkpt lat="44.7258126" lon="9.8437072"><ele>728.0</ele><time>2026-05-03T11:39:03.678Z</time></trkpt><trkpt lat="44.7258253" lon="9.8434364"><ele>728.0</ele><time>2026-05-03T11:39:04.65Z</time></trkpt><trkpt lat="44.7258104" lon="9.8431263"><ele>727.6666666666666</ele><time>2026-05-03T11:39:05.683Z</time></trkpt><trkpt lat="44.7257749" lon="9.8428618"><ele>727.3333333333334</ele><time>2026-05-03T11:39:06.68Z</time></trkpt><trkpt lat="44.7257107" lon="9.8429104"><ele>727.0</ele><time>2026-05-03T11:39:07.683Z</time></trkpt><trkpt lat="44.7255831" lon="9.8425654"><ele>727.3333333333334</ele><time>2026-05-03T11:39:08.681Z</time></trkpt><trkpt lat="44.7255495" lon="9.8424841"><ele>727.6666666666666</ele><time>2026-05-03T11:39:09.684Z</time></trkpt><trkpt lat="44.7254232" lon="9.8421316"><ele>728.0</ele><time>2026-05-03T11:39:12.683Z</time></trkpt><trkpt lat="44.7252613" lon="9.8416884"><ele>727.0</ele><time>2026-05-03T11:39:13.678Z</time></trkpt><trkpt lat="44.725196" lon="9.841476"><ele>726.0</ele><time>2026-05-03T11:39:14.649Z</time></trkpt><trkpt lat="44.7251884" lon="9.8410466"><ele>724.5</ele><time>2026-05-03T11:39:18.662Z</time></trkpt><trkpt lat="44.7252101" lon="9.8405292"><ele>723.0</ele><time>2026-05-03T11:39:19.666Z</time></trkpt><trkpt lat="44.7252256" lon="9.8401898"><ele>722.5</ele><time>2026-05-03T11:39:20.648Z</time></trkpt><trkpt lat="44.7252278" lon="9.8400948"><ele>722.0</ele><time>2026-05-03T11:39:21.679Z</time></trkpt><trkpt lat="44.7252392" lon="9.8398734"><ele>721.5</ele><time>2026-05-03T11:39:22.678Z</time></trkpt><trkpt lat="44.7252464" lon="9.8397235"><ele>721.0</ele><time>2026-05-03T11:39:23.621Z</time></trkpt><trkpt lat="44.7252395" lon="9.8391992"><ele>720.0</ele><time>2026-05-03T11:39:24.649Z</time></trkpt><trkpt lat="44.725246" lon="9.8389116"><ele>719.0</ele><time>2026-05-03T11:39:25.679Z</time></trkpt><trkpt lat="44.7251258" lon="9.8383828"><ele>718.6666666666666</ele><time>2026-05-03T11:39:26.683Z</time></trkpt><trkpt lat="44.7250721" lon="9.8382295"><ele>718.3333333333334</ele><time>2026-05-03T11:39:27.605Z</time></trkpt><trkpt lat="44.7249851" lon="9.8379512"><ele>718.0</ele><time>2026-05-03T11:39:28.567Z</time></trkpt><trkpt lat="44.724934" lon="9.8377916"><ele>717.5</ele><time>2026-05-03T11:39:29.685Z</time></trkpt><trkpt lat="44.7248414" lon="9.8373994"><ele>717.0</ele><time>2026-05-03T11:39:30.674Z</time></trkpt><trkpt lat="44.724772" lon="9.8370874"><ele>717.0</ele><time>2026-05-03T11:39:31.647Z</time></trkpt><trkpt lat="44.7247271" lon="9.8368465"><ele>717.0</ele><time>2026-05-03T11:39:32.651Z</time></trkpt><trkpt lat="44.7247116" lon="9.8367417"><ele>717.0</ele><time>2026-05-03T11:39:33.648Z</time></trkpt><trkpt lat="44.7247526" lon="9.8363916"><ele>717.5</ele><time>2026-05-03T11:39:36.671Z</time></trkpt><trkpt lat="44.7247858" lon="9.8362379"><ele>718.0</ele><time>2026-05-03T11:39:37.646Z</time></trkpt><trkpt lat="44.7248818" lon="9.8357668"><ele>717.3333333333334</ele><time>2026-05-03T11:39:38.682Z</time></trkpt><trkpt lat="44.7249249" lon="9.8354303"><ele>716.6666666666666</ele><time>2026-05-03T11:39:39.682Z</time></trkpt><trkpt lat="44.7248354" lon="9.8352801"><ele>716.0</ele><time>2026-05-03T11:39:42.652Z</time></trkpt><trkpt lat="44.7246253" lon="9.8351082"><ele>716.5</ele><time>2026-05-03T11:39:43.647Z</time></trkpt><trkpt lat="44.7244613" lon="9.8349743"><ele>717.0</ele><time>2026-05-03T11:39:44.602Z</time></trkpt><trkpt lat="44.7241419" lon="9.8347844"><ele>717.0</ele><time>2026-05-03T11:39:45.503Z</time></trkpt><trkpt lat="44.7240279" lon="9.8344078"><ele>717.0</ele><time>2026-05-03T11:39:52.649Z</time></trkpt><trkpt lat="44.7239826" lon="9.8339903"><ele>716.6666666666666</ele><time>2026-05-03T11:39:53.648Z</time></trkpt><trkpt lat="44.7239634" lon="9.8337538"><ele>716.3333333333333</ele><time>2026-05-03T11:39:54.674Z</time></trkpt><trkpt lat="44.7239522" lon="9.8336169"><ele>716.0</ele><time>2026-05-03T11:39:55.678Z</time></trkpt><trkpt lat="44.7239957" lon="9.8333199"><ele>716.0</ele><time>2026-05-03T11:39:56.68Z</time></trkpt><trkpt lat="44.7240567" lon="9.832975"><ele>716.0</ele><time>2026-05-03T11:39:57.676Z</time></trkpt><trkpt lat="44.7242139" lon="9.8321447"><ele>714.6666666666666</ele><time>2026-05-03T11:39:58.674Z</time></trkpt><trkpt lat="44.7243492" lon="9.8319178"><ele>713.3333333333334</ele><time>2026-05-03T11:40:02.644Z</time></trkpt><trkpt lat="44.7244915" lon="9.8316784"><ele>712.0</ele><time>2026-05-03T11:40:03.648Z</time></trkpt><trkpt lat="44.7246878" lon="9.8313402"><ele>710.5</ele><time>2026-05-03T11:40:04.674Z</time></trkpt><trkpt lat="44.7248893" lon="9.8309857"><ele>709.0</ele><time>2026-05-03T11:40:05.649Z</time></trkpt><trkpt lat="44.7248678" lon="9.8307017"><ele>709.0</ele><time>2026-05-03T11:40:07.673Z</time></trkpt><trkpt lat="44.7248246" lon="9.8303505"><ele>709.0</ele><time>2026-05-03T11:40:08.673Z</time></trkpt><trkpt lat="44.7247876" lon="9.8301137"><ele>709.0</ele><time>2026-05-03T11:40:09.671Z</time></trkpt><trkpt lat="44.7247538" lon="9.8299174"><ele>708.6666666666667</ele><time>2026-05-03T11:40:10.68Z</time></trkpt><trkpt lat="44.7246628" lon="9.8295506"><ele>708.3333333333334</ele><time>2026-05-03T11:40:11.675Z</time></trkpt><trkpt lat="44.7246236" lon="9.8293998"><ele>708.0</ele><time>2026-05-03T11:40:12.438Z</time></trkpt><trkpt lat="44.7244155" lon="9.8286676"><ele>706.0</ele><time>2026-05-03T11:40:13.677Z</time></trkpt><trkpt lat="44.7243899" lon="9.8285788"><ele>704.0</ele><time>2026-05-03T11:40:14.678Z</time></trkpt><trkpt lat="44.7243382" lon="9.8283496"><ele>702.0</ele><time>2026-05-03T11:40:16.678Z</time></trkpt><trkpt lat="44.7242662" lon="9.8280337"><ele>702.0</ele><time>2026-05-03T11:40:17.679Z</time></trkpt><trkpt lat="44.7241964" lon="9.8277487"><ele>702.0</ele><time>2026-05-03T11:40:18.678Z</time></trkpt><trkpt lat="44.7241568" lon="9.8276073"><ele>702.0</ele><time>2026-05-03T11:40:19.68Z</time></trkpt><trkpt lat="44.7241141" lon="9.8274862"><ele>702.0</ele><time>2026-05-03T11:40:20.675Z</time></trkpt><trkpt lat="44.7239269" lon="9.8271341"><ele>706.5</ele><time>2026-05-03T11:40:22.672Z</time></trkpt><trkpt lat="44.723634" lon="9.8268155"><ele>711.0</ele><time>2026-05-03T11:40:23.678Z</time></trkpt><trkpt lat="44.723418" lon="9.8266795"><ele>712.3333333333334</ele><time>2026-05-03T11:40:24.65Z</time></trkpt><trkpt lat="44.7232412" lon="9.8266113"><ele>713.6666666666667</ele><time>2026-05-03T11:40:25.655Z</time></trkpt><trkpt lat="44.7230704" lon="9.8265452"><ele>715.0</ele><time>2026-05-03T11:40:26.658Z</time></trkpt><trkpt lat="44.7229238" lon="9.8264509"><ele>715.0</ele><time>2026-05-03T11:40:27.678Z</time></trkpt><trkpt lat="44.7228163" lon="9.826351"><ele>715.0</ele><time>2026-05-03T11:40:28.674Z</time></trkpt><trkpt lat="44.7227615" lon="9.8262386"><ele>715.0</ele><time>2026-05-03T11:40:29.65Z</time></trkpt><trkpt lat="44.7227394" lon="9.8261121"><ele>715.0</ele><time>2026-05-03T11:40:30.68Z</time></trkpt><trkpt lat="44.7228081" lon="9.8259394"><ele>716.3333333333334</ele><time>2026-05-03T11:40:31.68Z</time></trkpt><trkpt lat="44.7229533" lon="9.8257526"><ele>717.6666666666666</ele><time>2026-05-03T11:40:32.675Z</time></trkpt><trkpt lat="44.7230887" lon="9.8255799"><ele>719.0</ele><time>2026-05-03T11:40:33.642Z</time></trkpt><trkpt lat="44.7232336" lon="9.8253721"><ele>719.5</ele><time>2026-05-03T11:40:34.646Z</time></trkpt><trkpt lat="44.7234152" lon="9.8251335"><ele>720.0</ele><time>2026-05-03T11:40:35.671Z</time></trkpt><trkpt lat="44.7236204" lon="9.824864"><ele>720.0</ele><time>2026-05-03T11:40:36.675Z</time></trkpt><trkpt lat="44.7237949" lon="9.8245925"><ele>720.0</ele><time>2026-05-03T11:40:37.672Z</time></trkpt><trkpt lat="44.7239878" lon="9.8242742"><ele>718.0</ele><time>2026-05-03T11:40:38.676Z</time></trkpt><trkpt lat="44.7241552" lon="9.8239899"><ele>716.0</ele><time>2026-05-03T11:40:39.688Z</time></trkpt><trkpt lat="44.7242989" lon="9.8237384"><ele>715.0</ele><time>2026-05-03T11:40:40.675Z</time></trkpt><trkpt lat="44.7244526" lon="9.823503"><ele>714.0</ele><time>2026-05-03T11:40:41.681Z</time></trkpt><trkpt lat="44.7245964" lon="9.8232746"><ele>713.0</ele><time>2026-05-03T11:40:42.672Z</time></trkpt><trkpt lat="44.7247514" lon="9.8230877"><ele>713.0</ele><time>2026-05-03T11:40:43.655Z</time></trkpt><trkpt lat="44.7249054" lon="9.8228757"><ele>713.0</ele><time>2026-05-03T11:40:44.679Z</time></trkpt><trkpt lat="44.7250463" lon="9.8226567"><ele>713.0</ele><time>2026-05-03T11:40:45.679Z</time></trkpt><trkpt lat="44.7251702" lon="9.8223935"><ele>713.25</ele><time>2026-05-03T11:40:48.682Z</time></trkpt><trkpt lat="44.7251975" lon="9.8223104"><ele>713.5</ele><time>2026-05-03T11:40:51.683Z</time></trkpt><trkpt lat="44.7251456" lon="9.8221009"><ele>713.75</ele><time>2026-05-03T11:40:53.654Z</time></trkpt><trkpt lat="44.7250744" lon="9.8218172"><ele>714.0</ele><time>2026-05-03T11:40:54.653Z</time></trkpt><trkpt lat="44.7249521" lon="9.821341"><ele>714.0</ele><time>2026-05-03T11:40:55.676Z</time></trkpt><trkpt lat="44.7248828" lon="9.8210832"><ele>714.0</ele><time>2026-05-03T11:40:56.649Z</time></trkpt><trkpt lat="44.724852" lon="9.8209617"><ele>714.0</ele><time>2026-05-03T11:40:58.614Z</time></trkpt><trkpt lat="44.7249036" lon="9.8204344"><ele>714.5</ele><time>2026-05-03T11:41:00.674Z</time></trkpt><trkpt lat="44.7249775" lon="9.8200683"><ele>715.0</ele><time>2026-05-03T11:41:01.652Z</time></trkpt><trkpt lat="44.725042" lon="9.8198271"><ele>715.0</ele><time>2026-05-03T11:41:02.651Z</time></trkpt><trkpt lat="44.7250845" lon="9.8196842"><ele>715.0</ele><time>2026-05-03T11:41:03.648Z</time></trkpt><trkpt lat="44.7252119" lon="9.8194301"><ele>715.0</ele><time>2026-05-03T11:41:04.652Z</time></trkpt><trkpt lat="44.7256312" lon="9.8186322"><ele>714.5</ele><time>2026-05-03T11:41:05.646Z</time></trkpt><trkpt lat="44.7256666" lon="9.8185059"><ele>714.0</ele><time>2026-05-03T11:41:06.648Z</time></trkpt><trkpt lat="44.7257227" lon="9.8183016"><ele>713.5</ele><time>2026-05-03T11:41:07.649Z</time></trkpt><trkpt lat="44.7257582" lon="9.8180423"><ele>713.0</ele><time>2026-05-03T11:41:09.65Z</time></trkpt><trkpt lat="44.7257717" lon="9.8178676"><ele>715.5</ele><time>2026-05-03T11:41:10.586Z</time></trkpt><trkpt lat="44.7258511" lon="9.8172889"><ele>718.0</ele><time>2026-05-03T11:41:11.651Z</time></trkpt><trkpt lat="44.7258899" lon="9.8170585"><ele>718.6666666666667</ele><time>2026-05-03T11:41:12.675Z</time></trkpt><trkpt lat="44.72597" lon="9.8167525"><ele>719.3333333333334</ele><time>2026-05-03T11:41:13.681Z</time></trkpt><trkpt lat="44.7260527" lon="9.8164784"><ele>720.0</ele><time>2026-05-03T11:41:14.679Z</time></trkpt><trkpt lat="44.7261151" lon="9.8162752"><ele>719.5</ele><time>2026-05-03T11:41:15.679Z</time></trkpt><trkpt lat="44.7262882" lon="9.815844"><ele>719.0</ele><time>2026-05-03T11:41:16.677Z</time></trkpt><trkpt lat="44.726349" lon="9.8157042"><ele>719.0</ele><time>2026-05-03T11:41:17.654Z</time></trkpt><trkpt lat="44.7264569" lon="9.815469"><ele>719.0</ele><time>2026-05-03T11:41:18.655Z</time></trkpt><trkpt lat="44.7264965" lon="9.8153836"><ele>719.0</ele><time>2026-05-03T11:41:19.62Z</time></trkpt><trkpt lat="44.7266691" lon="9.8150627"><ele>718.3333333333333</ele><time>2026-05-03T11:41:20.647Z</time></trkpt><trkpt lat="44.7267744" lon="9.8148656"><ele>717.6666666666666</ele><time>2026-05-03T11:41:21.586Z</time></trkpt><trkpt lat="44.7269122" lon="9.8146464"><ele>717.0</ele><time>2026-05-03T11:41:22.648Z</time></trkpt><trkpt lat="44.7271098" lon="9.8144313"><ele>719.0</ele><time>2026-05-03T11:41:23.647Z</time></trkpt><trkpt lat="44.7271088" lon="9.8142176"><ele>721.0</ele><time>2026-05-03T11:41:27.682Z</time></trkpt><trkpt lat="44.7271022" lon="9.8141073"><ele>723.0</ele><time>2026-05-03T11:41:28.313Z</time></trkpt><trkpt lat="44.7270934" lon="9.8133994"><ele>724.75</ele><time>2026-05-03T11:41:29.682Z</time></trkpt><trkpt lat="44.7271014" lon="9.813158"><ele>726.5</ele><time>2026-05-03T11:41:30.678Z</time></trkpt><trkpt lat="44.7271063" lon="9.8130421"><ele>728.25</ele><time>2026-05-03T11:41:31.642Z</time></trkpt><trkpt lat="44.7272494" lon="9.8128737"><ele>730.0</ele><time>2026-05-03T11:41:32.639Z</time></trkpt><trkpt lat="44.7273222" lon="9.8127857"><ele>735.0</ele><time>2026-05-03T11:41:33.608Z</time></trkpt><trkpt lat="44.7275867" lon="9.8125637"><ele>740.0</ele><time>2026-05-03T11:41:34.641Z</time></trkpt><trkpt lat="44.7276657" lon="9.81252"><ele>745.0</ele><time>2026-05-03T11:41:35.638Z</time></trkpt><trkpt lat="44.727826" lon="9.8124341"><ele>745.0</ele><time>2026-05-03T11:41:37.641Z</time></trkpt><trkpt lat="44.7279883" lon="9.8123481"><ele>745.0</ele><time>2026-05-03T11:41:38.642Z</time></trkpt><trkpt lat="44.7283678" lon="9.8121289"><ele>745.0</ele><time>2026-05-03T11:41:39.626Z</time></trkpt><trkpt lat="44.7284822" lon="9.8120266"><ele>745.0</ele><time>2026-05-03T11:41:44.675Z</time></trkpt><trkpt lat="44.7286718" lon="9.8118592"><ele>745.0</ele><time>2026-05-03T11:41:45.651Z</time></trkpt><trkpt lat="44.729066" lon="9.8115066"><ele>747.0</ele><time>2026-05-03T11:41:46.4Z</time></trkpt><trkpt lat="44.7291094" lon="9.8114119"><ele>749.0</ele><time>2026-05-03T11:41:47.651Z</time></trkpt><trkpt lat="44.7291236" lon="9.8112155"><ele>751.0</ele><time>2026-05-03T11:41:50.651Z</time></trkpt><trkpt lat="44.7290066" lon="9.8112191"><ele>753.0</ele><time>2026-05-03T11:41:57.647Z</time></trkpt><trkpt lat="44.7287969" lon="9.8112923"><ele>758.0</ele><time>2026-05-03T11:41:58.646Z</time></trkpt><trkpt lat="44.7283673" lon="9.8114045"><ele>763.0</ele><time>2026-05-03T11:41:59.647Z</time></trkpt><trkpt lat="44.7281785" lon="9.8114427"><ele>763.0</ele><time>2026-05-03T11:42:00.647Z</time></trkpt><trkpt lat="44.7280246" lon="9.81154"><ele>763.0</ele><time>2026-05-03T11:42:02.625Z</time></trkpt><trkpt lat="44.7282058" lon="9.8109594"><ele>763.25</ele><time>2026-05-03T11:42:09.643Z</time></trkpt><trkpt lat="44.7282551" lon="9.8108061"><ele>763.5</ele><time>2026-05-03T11:42:10.67Z</time></trkpt><trkpt lat="44.7282957" lon="9.8106654"><ele>763.75</ele><time>2026-05-03T11:42:11.675Z</time></trkpt><trkpt lat="44.7284152" lon="9.8104468"><ele>764.0</ele><time>2026-05-03T11:42:14.649Z</time></trkpt><trkpt lat="44.7285619" lon="9.8102447"><ele>774.0</ele><time>2026-05-03T11:42:15.649Z</time></trkpt><trkpt lat="44.7289138" lon="9.809758"><ele>774.0</ele><time>2026-05-03T11:42:16.539Z</time></trkpt><trkpt lat="44.7289815" lon="9.8095358"><ele>774.0</ele><time>2026-05-03T11:42:17.677Z</time></trkpt><trkpt lat="44.7290376" lon="9.8093352"><ele>774.0</ele><time>2026-05-03T11:42:21.653Z</time></trkpt><trkpt lat="44.7291371" lon="9.8090794"><ele>777.5</ele><time>2026-05-03T11:42:22.651Z</time></trkpt><trkpt lat="44.7292341" lon="9.8088726"><ele>781.0</ele><time>2026-05-03T11:42:23.651Z</time></trkpt><trkpt lat="44.7294973" lon="9.8083753"><ele>786.5</ele><time>2026-05-03T11:42:24.65Z</time></trkpt><trkpt lat="44.7297462" lon="9.8081756"><ele>792.0</ele><time>2026-05-03T11:42:25.65Z</time></trkpt><trkpt lat="44.7298911" lon="9.8080397"><ele>792.0</ele><time>2026-05-03T11:42:26.647Z</time></trkpt><trkpt lat="44.7301143" lon="9.8077947"><ele>792.0</ele><time>2026-05-03T11:42:27.639Z</time></trkpt><trkpt lat="44.7302051" lon="9.8076945"><ele>792.0</ele><time>2026-05-03T11:42:28.625Z</time></trkpt><trkpt lat="44.7306837" lon="9.8063655"><ele>798.3333333333333</ele><time>2026-05-03T11:42:31.613Z</time></trkpt><trkpt lat="44.7307315" lon="9.806273"><ele>804.6666666666666</ele><time>2026-05-03T11:42:32.638Z</time></trkpt><trkpt lat="44.7308199" lon="9.8059464"><ele>811.0</ele><time>2026-05-03T11:42:34.673Z</time></trkpt><trkpt lat="44.7308533" lon="9.8056669"><ele>811.0</ele><time>2026-05-03T11:42:35.672Z</time></trkpt><trkpt lat="44.7308585" lon="9.8053667"><ele>811.0</ele><time>2026-05-03T11:42:36.667Z</time></trkpt><trkpt lat="44.730853" lon="9.8050718"><ele>811.0</ele><time>2026-05-03T11:42:37.669Z</time></trkpt><trkpt lat="44.7308556" lon="9.8048151"><ele>811.3333333333333</ele><time>2026-05-03T11:42:38.645Z</time></trkpt><trkpt lat="44.7308823" lon="9.804587"><ele>811.6666666666667</ele><time>2026-05-03T11:42:39.641Z</time></trkpt><trkpt lat="44.7309376" lon="9.8043779"><ele>812.0</ele><time>2026-05-03T11:42:40.646Z</time></trkpt><trkpt lat="44.7310141" lon="9.8041615"><ele>815.3333333333334</ele><time>2026-05-03T11:42:41.643Z</time></trkpt><trkpt lat="44.7310952" lon="9.8039507"><ele>818.6666666666667</ele><time>2026-05-03T11:42:42.643Z</time></trkpt><trkpt lat="44.7311842" lon="9.8037587"><ele>822.0</ele><time>2026-05-03T11:42:43.671Z</time></trkpt><trkpt lat="44.7312709" lon="9.8035907"><ele>822.0</ele><time>2026-05-03T11:42:44.696Z</time></trkpt><trkpt lat="44.7313457" lon="9.8034825"><ele>822.0</ele><time>2026-05-03T11:42:45.672Z</time></trkpt><trkpt lat="44.7314239" lon="9.8034526"><ele>822.0</ele><time>2026-05-03T11:42:46.672Z</time></trkpt><trkpt lat="44.7314449" lon="9.8036536"><ele>822.0</ele><time>2026-05-03T11:42:48.644Z</time></trkpt><trkpt lat="44.7314534" lon="9.8038517"><ele>822.0</ele><time>2026-05-03T11:42:49.654Z</time></trkpt><trkpt lat="44.7314764" lon="9.8040802"><ele>822.0</ele><time>2026-05-03T11:42:50.656Z</time></trkpt><trkpt lat="44.7315053" lon="9.804287"><ele>822.0</ele><time>2026-05-03T11:42:51.656Z</time></trkpt><trkpt lat="44.7315503" lon="9.8044364"><ele>822.0</ele><time>2026-05-03T11:42:52.652Z</time></trkpt><trkpt lat="44.7316073" lon="9.8045534"><ele>823.3333333333334</ele><time>2026-05-03T11:42:53.651Z</time></trkpt><trkpt lat="44.7316808" lon="9.8046374"><ele>824.6666666666667</ele><time>2026-05-03T11:42:54.65Z</time></trkpt><trkpt lat="44.7317349" lon="9.8047063"><ele>826.0</ele><time>2026-05-03T11:42:55.677Z</time></trkpt><trkpt lat="44.7318224" lon="9.804658"><ele>827.3333333333334</ele><time>2026-05-03T11:42:57.645Z</time></trkpt><trkpt lat="44.7318952" lon="9.8045911"><ele>828.6666666666667</ele><time>2026-05-03T11:43:00.67Z</time></trkpt><trkpt lat="44.7319252" lon="9.804508"><ele>830.0</ele><time>2026-05-03T11:43:02.671Z</time></trkpt><trkpt lat="44.7319349" lon="9.8039026"><ele>831.5</ele><time>2026-05-03T11:43:05.667Z</time></trkpt><trkpt lat="44.7319343" lon="9.803276"><ele>833.0</ele><time>2026-05-03T11:43:06.619Z</time></trkpt><trkpt lat="44.7320048" lon="9.8031814"><ele>833.0</ele><time>2026-05-03T11:43:07.647Z</time></trkpt><trkpt lat="44.732055" lon="9.8031183"><ele>833.0</ele><time>2026-05-03T11:43:10.647Z</time></trkpt><trkpt lat="44.7322392" lon="9.80288"><ele>833.0</ele><time>2026-05-03T11:43:11.673Z</time></trkpt><trkpt lat="44.732358" lon="9.8027234"><ele>832.75</ele><time>2026-05-03T11:43:12.644Z</time></trkpt><trkpt lat="44.7324919" lon="9.802527"><ele>832.5</ele><time>2026-05-03T11:43:13.643Z</time></trkpt><trkpt lat="44.7325453" lon="9.8024224"><ele>832.25</ele><time>2026-05-03T11:43:14.644Z</time></trkpt><trkpt lat="44.732612" lon="9.8022455"><ele>832.0</ele><time>2026-05-03T11:43:16.643Z</time></trkpt><trkpt lat="44.7324838" lon="9.8020122"><ele>834.0</ele><time>2026-05-03T11:43:22.644Z</time></trkpt><trkpt lat="44.7322844" lon="9.8018259"><ele>836.0</ele><time>2026-05-03T11:43:23.643Z</time></trkpt><trkpt lat="44.7320896" lon="9.8017214"><ele>838.0</ele><time>2026-05-03T11:43:24.641Z</time></trkpt><trkpt lat="44.731873" lon="9.8016469"><ele>840.3333333333333</ele><time>2026-05-03T11:43:25.641Z</time></trkpt><trkpt lat="44.7316575" lon="9.8016327"><ele>842.6666666666667</ele><time>2026-05-03T11:43:26.641Z</time></trkpt><trkpt lat="44.7314526" lon="9.8016651"><ele>845.0</ele><time>2026-05-03T11:43:27.636Z</time></trkpt><trkpt lat="44.7312478" lon="9.8017045"><ele>845.0</ele><time>2026-05-03T11:43:28.64Z</time></trkpt><trkpt lat="44.7310723" lon="9.8016817"><ele>845.0</ele><time>2026-05-03T11:43:29.64Z</time></trkpt><trkpt lat="44.7308731" lon="9.801598"><ele>845.0</ele><time>2026-05-03T11:43:30.64Z</time></trkpt><trkpt lat="44.7306892" lon="9.8015173"><ele>845.3333333333334</ele><time>2026-05-03T11:43:31.642Z</time></trkpt><trkpt lat="44.7305036" lon="9.8014599"><ele>845.6666666666667</ele><time>2026-05-03T11:43:32.641Z</time></trkpt><trkpt lat="44.7303353" lon="9.8014093"><ele>846.0</ele><time>2026-05-03T11:43:33.641Z</time></trkpt><trkpt lat="44.7302061" lon="9.8013218"><ele>847.0</ele><time>2026-05-03T11:43:34.666Z</time></trkpt><trkpt lat="44.7301097" lon="9.8012085"><ele>848.0</ele><time>2026-05-03T11:43:35.67Z</time></trkpt><trkpt lat="44.7300768" lon="9.8010578"><ele>849.0</ele><time>2026-05-03T11:43:36.64Z</time></trkpt><trkpt lat="44.7300944" lon="9.8008647"><ele>850.0</ele><time>2026-05-03T11:43:37.666Z</time></trkpt><trkpt lat="44.7301072" lon="9.8006663"><ele>850.0</ele><time>2026-05-03T11:43:38.637Z</time></trkpt><trkpt lat="44.730109" lon="9.80043"><ele>850.0</ele><time>2026-05-03T11:43:39.647Z</time></trkpt><trkpt lat="44.7300797" lon="9.8002108"><ele>850.0</ele><time>2026-05-03T11:43:40.637Z</time></trkpt><trkpt lat="44.7299831" lon="9.7999798"><ele>854.6666666666666</ele><time>2026-05-03T11:43:41.652Z</time></trkpt><trkpt lat="44.7298693" lon="9.7997982"><ele>859.3333333333333</ele><time>2026-05-03T11:43:42.638Z</time></trkpt><trkpt lat="44.7297017" lon="9.7997264"><ele>864.0</ele><time>2026-05-03T11:43:43.647Z</time></trkpt><trkpt lat="44.7294894" lon="9.7997623"><ele>862.6666666666667</ele><time>2026-05-03T11:43:44.641Z</time></trkpt><trkpt lat="44.729308" lon="9.7998221"><ele>861.3333333333334</ele><time>2026-05-03T11:43:45.642Z</time></trkpt><trkpt lat="44.7291279" lon="9.799856"><ele>860.0</ele><time>2026-05-03T11:43:46.645Z</time></trkpt><trkpt lat="44.7289877" lon="9.7998364"><ele>860.0</ele><time>2026-05-03T11:43:47.645Z</time></trkpt><trkpt lat="44.7288845" lon="9.7997798"><ele>860.0</ele><time>2026-05-03T11:43:48.642Z</time></trkpt><trkpt lat="44.7287581" lon="9.7997162"><ele>860.0</ele><time>2026-05-03T11:43:49.645Z</time></trkpt><trkpt lat="44.7286296" lon="9.7996651"><ele>860.0</ele><time>2026-05-03T11:43:50.644Z</time></trkpt><trkpt lat="44.7284986" lon="9.7996473"><ele>860.75</ele><time>2026-05-03T11:43:51.645Z</time></trkpt><trkpt lat="44.7284093" lon="9.7997983"><ele>861.5</ele><time>2026-05-03T11:43:52.647Z</time></trkpt><trkpt lat="44.7283616" lon="9.7999533"><ele>862.25</ele><time>2026-05-03T11:43:53.642Z</time></trkpt><trkpt lat="44.7282646" lon="9.8001191"><ele>863.0</ele><time>2026-05-03T11:43:54.645Z</time></trkpt><trkpt lat="44.7281528" lon="9.8002957"><ele>857.0</ele><time>2026-05-03T11:43:56.651Z</time></trkpt><trkpt lat="44.727985" lon="9.800465"><ele>851.0</ele><time>2026-05-03T11:43:57.642Z</time></trkpt><trkpt lat="44.7277642" lon="9.8006443"><ele>860.0</ele><time>2026-05-03T11:43:58.636Z</time></trkpt><trkpt lat="44.7275327" lon="9.800812"><ele>869.0</ele><time>2026-05-03T11:43:59.643Z</time></trkpt><trkpt lat="44.7273147" lon="9.8009337"><ele>869.0</ele><time>2026-05-03T11:44:00.638Z</time></trkpt><trkpt lat="44.7270974" lon="9.8009743"><ele>869.0</ele><time>2026-05-03T11:44:01.641Z</time></trkpt><trkpt lat="44.7269114" lon="9.8009657"><ele>869.0</ele><time>2026-05-03T11:44:02.641Z</time></trkpt><trkpt lat="44.7267606" lon="9.8009206"><ele>867.0</ele><time>2026-05-03T11:44:03.64Z</time></trkpt><trkpt lat="44.7266136" lon="9.8008104"><ele>865.0</ele><time>2026-05-03T11:44:04.651Z</time></trkpt><trkpt lat="44.7265058" lon="9.8006456"><ele>863.0</ele><time>2026-05-03T11:44:05.643Z</time></trkpt><trkpt lat="44.7264223" lon="9.8004846"><ele>863.0</ele><time>2026-05-03T11:44:06.636Z</time></trkpt><trkpt lat="44.7263882" lon="9.8002511"><ele>863.0</ele><time>2026-05-03T11:44:07.67Z</time></trkpt><trkpt lat="44.7263603" lon="9.7999934"><ele>863.0</ele><time>2026-05-03T11:44:08.682Z</time></trkpt><trkpt lat="44.7263558" lon="9.7997183"><ele>867.0</ele><time>2026-05-03T11:44:09.686Z</time></trkpt><trkpt lat="44.7263511" lon="9.7994562"><ele>871.0</ele><time>2026-05-03T11:44:10.674Z</time></trkpt><trkpt lat="44.7263558" lon="9.7991797"><ele>875.0</ele><time>2026-05-03T11:44:11.671Z</time></trkpt><trkpt lat="44.7263431" lon="9.798898"><ele>877.3333333333334</ele><time>2026-05-03T11:44:12.64Z</time></trkpt><trkpt lat="44.7262882" lon="9.7986543"><ele>879.6666666666667</ele><time>2026-05-03T11:44:13.674Z</time></trkpt><trkpt lat="44.726231" lon="9.7984635"><ele>882.0</ele><time>2026-05-03T11:44:14.656Z</time></trkpt><trkpt lat="44.7261287" lon="9.7983568"><ele>882.6666666666667</ele><time>2026-05-03T11:44:15.643Z</time></trkpt><trkpt lat="44.7259789" lon="9.7982988"><ele>883.3333333333334</ele><time>2026-05-03T11:44:16.624Z</time></trkpt><trkpt lat="44.7258181" lon="9.7982009"><ele>884.0</ele><time>2026-05-03T11:44:17.63Z</time></trkpt><trkpt lat="44.7256739" lon="9.798079"><ele>884.0</ele><time>2026-05-03T11:44:18.644Z</time></trkpt><trkpt lat="44.7255466" lon="9.7979081"><ele>884.0</ele><time>2026-05-03T11:44:19.639Z</time></trkpt><trkpt lat="44.72544" lon="9.7978565"><ele>884.0</ele><time>2026-05-03T11:44:21.674Z</time></trkpt><trkpt lat="44.7253286" lon="9.7976417"><ele>877.0</ele><time>2026-05-03T11:44:22.671Z</time></trkpt><trkpt lat="44.725036" lon="9.7969228"><ele>882.3333333333333</ele><time>2026-05-03T11:44:25.685Z</time></trkpt><trkpt lat="44.7249488" lon="9.7966672"><ele>887.6666666666667</ele><time>2026-05-03T11:44:26.675Z</time></trkpt><trkpt lat="44.724857" lon="9.7965042"><ele>893.0</ele><time>2026-05-03T11:44:30.654Z</time></trkpt><trkpt lat="44.7246329" lon="9.7961865"><ele>885.5</ele><time>2026-05-03T11:44:31.669Z</time></trkpt><trkpt lat="44.7243374" lon="9.7957822"><ele>878.0</ele><time>2026-05-03T11:44:32.667Z</time></trkpt><trkpt lat="44.7242359" lon="9.7956509"><ele>878.0</ele><time>2026-05-03T11:44:33.614Z</time></trkpt><trkpt lat="44.7240773" lon="9.7954345"><ele>878.0</ele><time>2026-05-03T11:44:35.685Z</time></trkpt><trkpt lat="44.7239425" lon="9.795267"><ele>878.0</ele><time>2026-05-03T11:44:36.673Z</time></trkpt><trkpt lat="44.7236448" lon="9.7948776"><ele>874.6666666666667</ele><time>2026-05-03T11:44:37.675Z</time></trkpt><trkpt lat="44.7234725" lon="9.7946537"><ele>871.3333333333333</ele><time>2026-05-03T11:44:38.675Z</time></trkpt><trkpt lat="44.7233028" lon="9.7945757"><ele>868.0</ele><time>2026-05-03T11:44:39.677Z</time></trkpt><trkpt lat="44.7230652" lon="9.7945207"><ele>868.0</ele><time>2026-05-03T11:44:40.685Z</time></trkpt><trkpt lat="44.7228721" lon="9.7944897"><ele>868.0</ele><time>2026-05-03T11:44:41.646Z</time></trkpt><trkpt lat="44.7226001" lon="9.7944879"><ele>866.0</ele><time>2026-05-03T11:44:44.651Z</time></trkpt><trkpt lat="44.7224229" lon="9.7944776"><ele>864.0</ele><time>2026-05-03T11:44:45.683Z</time></trkpt><trkpt lat="44.7222809" lon="9.7944909"><ele>862.0</ele><time>2026-05-03T11:44:46.671Z</time></trkpt><trkpt lat="44.7221294" lon="9.7945527"><ele>862.0</ele><time>2026-05-03T11:44:47.641Z</time></trkpt><trkpt lat="44.7219267" lon="9.79471"><ele>862.0</ele><time>2026-05-03T11:44:48.642Z</time></trkpt><trkpt lat="44.7217329" lon="9.7949425"><ele>863.0</ele><time>2026-05-03T11:44:49.644Z</time></trkpt><trkpt lat="44.7215926" lon="9.7951645"><ele>864.0</ele><time>2026-05-03T11:44:50.657Z</time></trkpt><trkpt lat="44.7214433" lon="9.7953851"><ele>865.0</ele><time>2026-05-03T11:44:51.647Z</time></trkpt><trkpt lat="44.7213048" lon="9.7956064"><ele>861.0</ele><time>2026-05-03T11:44:52.646Z</time></trkpt><trkpt lat="44.721169" lon="9.7958318"><ele>857.0</ele><time>2026-05-03T11:44:53.642Z</time></trkpt><trkpt lat="44.7210942" lon="9.7960515"><ele>853.0</ele><time>2026-05-03T11:44:54.629Z</time></trkpt><trkpt lat="44.7210668" lon="9.7962442"><ele>851.9999999999999</ele><time>2026-05-03T11:44:55.647Z</time></trkpt><trkpt lat="44.7210898" lon="9.7964017"><ele>851.0</ele><time>2026-05-03T11:44:56.65Z</time></trkpt><trkpt lat="44.7211124" lon="9.7965255"><ele>850.0</ele><time>2026-05-03T11:44:57.65Z</time></trkpt><trkpt lat="44.7211262" lon="9.7966132"><ele>849.0</ele><time>2026-05-03T11:44:58.652Z</time></trkpt><trkpt lat="44.7210625" lon="9.7966028"><ele>847.9999999999999</ele><time>2026-05-03T11:45:00.665Z</time></trkpt><trkpt lat="44.7209967" lon="9.7965188"><ele>847.0</ele><time>2026-05-03T11:45:01.637Z</time></trkpt><trkpt lat="44.7208792" lon="9.7963692"><ele>845.6666666666666</ele><time>2026-05-03T11:45:02.644Z</time></trkpt><trkpt lat="44.7207441" lon="9.7962025"><ele>844.3333333333333</ele><time>2026-05-03T11:45:03.675Z</time></trkpt><trkpt lat="44.7205938" lon="9.796073"><ele>843.0</ele><time>2026-05-03T11:45:04.686Z</time></trkpt><trkpt lat="44.7204672" lon="9.7960081"><ele>846.3333333333333</ele><time>2026-05-03T11:45:05.671Z</time></trkpt><trkpt lat="44.7203772" lon="9.7959489"><ele>849.6666666666666</ele><time>2026-05-03T11:45:06.652Z</time></trkpt><trkpt lat="44.7201417" lon="9.7959462"><ele>853.0</ele><time>2026-05-03T11:45:07.65Z</time></trkpt><trkpt lat="44.7199407" lon="9.7959878"><ele>853.0</ele><time>2026-05-03T11:45:08.645Z</time></trkpt><trkpt lat="44.7198014" lon="9.7960294"><ele>853.0</ele><time>2026-05-03T11:45:09.653Z</time></trkpt><trkpt lat="44.719699" lon="9.796032"><ele>853.0</ele><time>2026-05-03T11:45:10.645Z</time></trkpt><trkpt lat="44.7196511" lon="9.7959612"><ele>853.0</ele><time>2026-05-03T11:45:11.656Z</time></trkpt><trkpt lat="44.7196236" lon="9.7958587"><ele>853.0</ele><time>2026-05-03T11:45:12.648Z</time></trkpt><trkpt lat="44.7196262" lon="9.7957039"><ele>853.0</ele><time>2026-05-03T11:45:13.65Z</time></trkpt><trkpt lat="44.7196" lon="9.7955424"><ele>853.0</ele><time>2026-05-03T11:45:14.673Z</time></trkpt><trkpt lat="44.7195362" lon="9.7952956"><ele>853.0</ele><time>2026-05-03T11:45:15.68Z</time></trkpt><trkpt lat="44.7194358" lon="9.7950565"><ele>849.0</ele><time>2026-05-03T11:45:16.692Z</time></trkpt><trkpt lat="44.7193345" lon="9.7948542"><ele>845.0</ele><time>2026-05-03T11:45:17.678Z</time></trkpt><trkpt lat="44.7192369" lon="9.7946778"><ele>841.0</ele><time>2026-05-03T11:45:18.671Z</time></trkpt><trkpt lat="44.7191404" lon="9.7945229"><ele>841.0</ele><time>2026-05-03T11:45:19.673Z</time></trkpt><trkpt lat="44.7190733" lon="9.7943566"><ele>841.0</ele><time>2026-05-03T11:45:20.678Z</time></trkpt><trkpt lat="44.7190417" lon="9.7941943"><ele>841.0</ele><time>2026-05-03T11:45:21.666Z</time></trkpt><trkpt lat="44.7190079" lon="9.794004"><ele>841.0</ele><time>2026-05-03T11:45:22.685Z</time></trkpt><trkpt lat="44.7189828" lon="9.7938163"><ele>843.3333333333333</ele><time>2026-05-03T11:45:23.679Z</time></trkpt><trkpt lat="44.7189424" lon="9.7936387"><ele>845.6666666666667</ele><time>2026-05-03T11:45:24.681Z</time></trkpt><trkpt lat="44.7188604" lon="9.7933904"><ele>848.0</ele><time>2026-05-03T11:45:26.7Z</time></trkpt><trkpt lat="44.7187859" lon="9.7931925"><ele>847.25</ele><time>2026-05-03T11:45:27.675Z</time></trkpt><trkpt lat="44.7187076" lon="9.7930358"><ele>846.5</ele><time>2026-05-03T11:45:28.683Z</time></trkpt><trkpt lat="44.7186297" lon="9.7929033"><ele>845.75</ele><time>2026-05-03T11:45:29.675Z</time></trkpt><trkpt lat="44.7185536" lon="9.7927843"><ele>845.0</ele><time>2026-05-03T11:45:30.678Z</time></trkpt><trkpt lat="44.7184692" lon="9.7926669"><ele>845.0</ele><time>2026-05-03T11:45:31.693Z</time></trkpt><trkpt lat="44.7183855" lon="9.7925589"><ele>845.0</ele><time>2026-05-03T11:45:32.678Z</time></trkpt><trkpt lat="44.7182985" lon="9.7924683"><ele>845.0</ele><time>2026-05-03T11:45:33.677Z</time></trkpt><trkpt lat="44.7182131" lon="9.7923877"><ele>845.0</ele><time>2026-05-03T11:45:34.66Z</time></trkpt><trkpt lat="44.718129" lon="9.7923046"><ele>845.0</ele><time>2026-05-03T11:45:35.651Z</time></trkpt><trkpt lat="44.7180446" lon="9.7922151"><ele>845.0</ele><time>2026-05-03T11:45:36.657Z</time></trkpt><trkpt lat="44.7179631" lon="9.7921243"><ele>845.0</ele><time>2026-05-03T11:45:37.672Z</time></trkpt><trkpt lat="44.717883" lon="9.7920348"><ele>845.0</ele><time>2026-05-03T11:45:38.67Z</time></trkpt><trkpt lat="44.7178061" lon="9.7919453"><ele>845.0</ele><time>2026-05-03T11:45:39.666Z</time></trkpt><trkpt lat="44.7177331" lon="9.7918561"><ele>845.0</ele><time>2026-05-03T11:45:40.666Z</time></trkpt><trkpt lat="44.7176598" lon="9.7917687"><ele>843.6</ele><time>2026-05-03T11:45:41.676Z</time></trkpt><trkpt lat="44.7175994" lon="9.7916778"><ele>842.2</ele><time>2026-05-03T11:45:42.668Z</time></trkpt><trkpt lat="44.7175247" lon="9.7916146"><ele>840.8</ele><time>2026-05-03T11:45:43.642Z</time></trkpt><trkpt lat="44.7174389" lon="9.7915714"><ele>839.4</ele><time>2026-05-03T11:45:44.644Z</time></trkpt><trkpt lat="44.7173416" lon="9.7915274"><ele>838.0</ele><time>2026-05-03T11:45:45.637Z</time></trkpt><trkpt lat="44.717242" lon="9.7914764"><ele>838.0</ele><time>2026-05-03T11:45:46.652Z</time></trkpt><trkpt lat="44.7171504" lon="9.7914215"><ele>838.0</ele><time>2026-05-03T11:45:47.649Z</time></trkpt><trkpt lat="44.7170602" lon="9.7913689"><ele>838.0</ele><time>2026-05-03T11:45:48.645Z</time></trkpt><trkpt lat="44.716974" lon="9.7913276"><ele>838.0</ele><time>2026-05-03T11:45:49.642Z</time></trkpt><trkpt lat="44.7168878" lon="9.7912934"><ele>838.0</ele><time>2026-05-03T11:45:50.643Z</time></trkpt><trkpt lat="44.716797" lon="9.7912792"><ele>836.8</ele><time>2026-05-03T11:45:51.649Z</time></trkpt><trkpt lat="44.7167096" lon="9.7912913"><ele>835.5999999999999</ele><time>2026-05-03T11:45:52.642Z</time></trkpt><trkpt lat="44.7166153" lon="9.7913267"><ele>834.4000000000001</ele><time>2026-05-03T11:45:53.644Z</time></trkpt><trkpt lat="44.7165196" lon="9.7913778"><ele>833.2</ele><time>2026-05-03T11:45:54.638Z</time></trkpt><trkpt lat="44.7164362" lon="9.7914699"><ele>832.0</ele><time>2026-05-03T11:45:55.64Z</time></trkpt><trkpt lat="44.7163508" lon="9.7915667"><ele>832.0</ele><time>2026-05-03T11:45:56.659Z</time></trkpt><trkpt lat="44.7162655" lon="9.7916621"><ele>832.0</ele><time>2026-05-03T11:45:57.641Z</time></trkpt><trkpt lat="44.7161827" lon="9.7917519"><ele>832.0</ele><time>2026-05-03T11:45:58.641Z</time></trkpt><trkpt lat="44.7160814" lon="9.7918248"><ele>832.0</ele><time>2026-05-03T11:45:59.642Z</time></trkpt><trkpt lat="44.7159815" lon="9.7918737"><ele>832.0</ele><time>2026-05-03T11:46:00.643Z</time></trkpt><trkpt lat="44.71587" lon="9.791886"><ele>830.75</ele><time>2026-05-03T11:46:01.658Z</time></trkpt><trkpt lat="44.7157486" lon="9.7918714"><ele>829.5</ele><time>2026-05-03T11:46:02.658Z</time></trkpt><trkpt lat="44.7156184" lon="9.791829"><ele>828.25</ele><time>2026-05-03T11:46:03.655Z</time></trkpt><trkpt lat="44.7154802" lon="9.791766"><ele>827.0</ele><time>2026-05-03T11:46:04.655Z</time></trkpt><trkpt lat="44.7153439" lon="9.7916857"><ele>821.75</ele><time>2026-05-03T11:46:05.657Z</time></trkpt><trkpt lat="44.7152147" lon="9.7916018"><ele>816.5</ele><time>2026-05-03T11:46:06.67Z</time></trkpt><trkpt lat="44.715098" lon="9.7915075"><ele>811.25</ele><time>2026-05-03T11:46:07.651Z</time></trkpt><trkpt lat="44.7149809" lon="9.7914061"><ele>806.0</ele><time>2026-05-03T11:46:08.652Z</time></trkpt><trkpt lat="44.71487" lon="9.7912821"><ele>806.0</ele><time>2026-05-03T11:46:09.659Z</time></trkpt><trkpt lat="44.7147687" lon="9.7911589"><ele>806.0</ele><time>2026-05-03T11:46:10.656Z</time></trkpt><trkpt lat="44.714689" lon="9.7910135"><ele>806.0</ele><time>2026-05-03T11:46:11.654Z</time></trkpt><trkpt lat="44.7146394" lon="9.790849"><ele>806.0</ele><time>2026-05-03T11:46:12.662Z</time></trkpt><trkpt lat="44.7146337" lon="9.7906804"><ele>808.75</ele><time>2026-05-03T11:46:13.651Z</time></trkpt><trkpt lat="44.7146526" lon="9.7905034"><ele>811.5</ele><time>2026-05-03T11:46:14.65Z</time></trkpt><trkpt lat="44.7146922" lon="9.7902955"><ele>814.25</ele><time>2026-05-03T11:46:15.678Z</time></trkpt><trkpt lat="44.7147338" lon="9.7900939"><ele>817.0</ele><time>2026-05-03T11:46:16.651Z</time></trkpt><trkpt lat="44.7147801" lon="9.7898822"><ele>817.0</ele><time>2026-05-03T11:46:17.661Z</time></trkpt><trkpt lat="44.7148382" lon="9.789667"><ele>817.0</ele><time>2026-05-03T11:46:18.645Z</time></trkpt><trkpt lat="44.7149011" lon="9.7894609"><ele>817.0</ele><time>2026-05-03T11:46:19.644Z</time></trkpt><trkpt lat="44.7149655" lon="9.7892581"><ele>817.5</ele><time>2026-05-03T11:46:20.631Z</time></trkpt><trkpt lat="44.7150244" lon="9.7890629"><ele>818.0</ele><time>2026-05-03T11:46:21.627Z</time></trkpt><trkpt lat="44.7150973" lon="9.7888791"><ele>818.5</ele><time>2026-05-03T11:46:22.664Z</time></trkpt><trkpt lat="44.7151223" lon="9.788712"><ele>819.0</ele><time>2026-05-03T11:46:23.636Z</time></trkpt><trkpt lat="44.715093" lon="9.7885569"><ele>821.75</ele><time>2026-05-03T11:46:24.637Z</time></trkpt><trkpt lat="44.7150306" lon="9.7884174"><ele>824.5</ele><time>2026-05-03T11:46:25.648Z</time></trkpt><trkpt lat="44.7149411" lon="9.7883033"><ele>827.25</ele><time>2026-05-03T11:46:26.668Z</time></trkpt><trkpt lat="44.7148641" lon="9.7881562"><ele>830.0</ele><time>2026-05-03T11:46:27.671Z</time></trkpt><trkpt lat="44.714851" lon="9.7879821"><ele>830.0</ele><time>2026-05-03T11:46:28.655Z</time></trkpt><trkpt lat="44.7148555" lon="9.7877972"><ele>830.0</ele><time>2026-05-03T11:46:29.675Z</time></trkpt><trkpt lat="44.7148811" lon="9.7876011"><ele>830.0</ele><time>2026-05-03T11:46:30.652Z</time></trkpt><trkpt lat="44.7148889" lon="9.78746"><ele>830.0</ele><time>2026-05-03T11:46:31.649Z</time></trkpt><trkpt lat="44.7149265" lon="9.7873794"><ele>830.0</ele><time>2026-05-03T11:46:33.65Z</time></trkpt><trkpt lat="44.7148955" lon="9.7869757"><ele>832.5</ele><time>2026-05-03T11:46:35.67Z</time></trkpt><trkpt lat="44.7148721" lon="9.7867153"><ele>835.0</ele><time>2026-05-03T11:46:36.669Z</time></trkpt><trkpt lat="44.7148237" lon="9.7862875"><ele>835.0</ele><time>2026-05-03T11:46:37.654Z</time></trkpt><trkpt lat="44.7148011" lon="9.7861173"><ele>835.0</ele><time>2026-05-03T11:46:38.626Z</time></trkpt><trkpt lat="44.7147846" lon="9.7859442"><ele>835.0</ele><time>2026-05-03T11:46:39.642Z</time></trkpt><trkpt lat="44.7147834" lon="9.7858547"><ele>835.0</ele><time>2026-05-03T11:46:40.645Z</time></trkpt><trkpt lat="44.7148127" lon="9.7857211"><ele>835.0</ele><time>2026-05-03T11:46:45.656Z</time></trkpt><trkpt lat="44.7148438" lon="9.7854701"><ele>829.6666666666666</ele><time>2026-05-03T11:46:46.661Z</time></trkpt><trkpt lat="44.7148657" lon="9.7852725"><ele>824.3333333333333</ele><time>2026-05-03T11:46:47.365Z</time></trkpt><trkpt lat="44.7148937" lon="9.7848543"><ele>819.0</ele><time>2026-05-03T11:46:48.658Z</time></trkpt><trkpt lat="44.7149219" lon="9.7844984"><ele>818.0</ele><time>2026-05-03T11:46:49.681Z</time></trkpt><trkpt lat="44.714842" lon="9.7841612"><ele>817.0</ele><time>2026-05-03T11:46:51.653Z</time></trkpt><trkpt lat="44.7147887" lon="9.7839141"><ele>816.0</ele><time>2026-05-03T11:46:52.666Z</time></trkpt><trkpt lat="44.7147423" lon="9.7836633"><ele>817.75</ele><time>2026-05-03T11:46:53.684Z</time></trkpt><trkpt lat="44.7146924" lon="9.7832802"><ele>819.5</ele><time>2026-05-03T11:46:54.684Z</time></trkpt><trkpt lat="44.7146817" lon="9.7831875"><ele>821.25</ele><time>2026-05-03T11:46:56.691Z</time></trkpt><trkpt lat="44.7146569" lon="9.7831001"><ele>823.0</ele><time>2026-05-03T11:46:57.69Z</time></trkpt><trkpt lat="44.7145675" lon="9.7828156"><ele>822.3333333333333</ele><time>2026-05-03T11:46:58.679Z</time></trkpt><trkpt lat="44.7144485" lon="9.7825438"><ele>821.6666666666667</ele><time>2026-05-03T11:46:59.674Z</time></trkpt><trkpt lat="44.7143448" lon="9.7822939"><ele>821.0</ele><time>2026-05-03T11:47:00.488Z</time></trkpt><trkpt lat="44.7142515" lon="9.7821297"><ele>818.3333333333334</ele><time>2026-05-03T11:47:01.644Z</time></trkpt><trkpt lat="44.714078" lon="9.7818085"><ele>815.6666666666667</ele><time>2026-05-03T11:47:04.655Z</time></trkpt><trkpt lat="44.714005" lon="9.7816701"><ele>813.0</ele><time>2026-05-03T11:47:05.572Z</time></trkpt><trkpt lat="44.7138681" lon="9.7813818"><ele>813.0</ele><time>2026-05-03T11:47:06.683Z</time></trkpt><trkpt lat="44.7138178" lon="9.7812766"><ele>813.0</ele><time>2026-05-03T11:47:07.584Z</time></trkpt><trkpt lat="44.713687" lon="9.7810701"><ele>813.0</ele><time>2026-05-03T11:47:08.645Z</time></trkpt><trkpt lat="44.7135167" lon="9.7809508"><ele>812.8</ele><time>2026-05-03T11:47:10.652Z</time></trkpt><trkpt lat="44.7133842" lon="9.7808727"><ele>812.5999999999999</ele><time>2026-05-03T11:47:11.646Z</time></trkpt><trkpt lat="44.7132883" lon="9.7808185"><ele>812.4000000000001</ele><time>2026-05-03T11:47:12.688Z</time></trkpt><trkpt lat="44.713225" lon="9.7807992"><ele>812.2</ele><time>2026-05-03T11:47:17.613Z</time></trkpt><trkpt lat="44.7132862" lon="9.7808405"><ele>812.0</ele><time>2026-05-03T12:10:58.742Z</time></trkpt><trkpt lat="44.7132983" lon="9.7807166"><ele>812.0</ele><time>2026-05-03T12:11:01.71Z</time></trkpt><trkpt lat="44.7133104" lon="9.7805519"><ele>812.0</ele><time>2026-05-03T12:11:03.703Z</time></trkpt><trkpt lat="44.7132898" lon="9.7804096"><ele>812.0</ele><time>2026-05-03T12:11:04.731Z</time></trkpt><trkpt lat="44.7132563" lon="9.7802661"><ele>812.0</ele><time>2026-05-03T12:11:05.726Z</time></trkpt><trkpt lat="44.7132073" lon="9.7801245"><ele>812.0</ele><time>2026-05-03T12:11:06.726Z</time></trkpt><trkpt lat="44.7131362" lon="9.7799943"><ele>812.6</ele><time>2026-05-03T12:11:07.731Z</time></trkpt><trkpt lat="44.7130628" lon="9.7798617"><ele>813.2</ele><time>2026-05-03T12:11:08.729Z</time></trkpt><trkpt lat="44.7129951" lon="9.779732"><ele>813.8</ele><time>2026-05-03T12:11:09.717Z</time></trkpt><trkpt lat="44.7129598" lon="9.7796015"><ele>814.4</ele><time>2026-05-03T12:11:10.729Z</time></trkpt><trkpt lat="44.7129443" lon="9.7794809"><ele>815.0</ele><time>2026-05-03T12:11:11.727Z</time></trkpt><trkpt lat="44.7129587" lon="9.7793668"><ele>815.4</ele><time>2026-05-03T12:11:12.718Z</time></trkpt><trkpt lat="44.7129896" lon="9.7792642"><ele>815.8</ele><time>2026-05-03T12:11:13.687Z</time></trkpt><trkpt lat="44.7130178" lon="9.7791296"><ele>816.2</ele><time>2026-05-03T12:11:14.694Z</time></trkpt><trkpt lat="44.7130428" lon="9.7789894"><ele>816.6</ele><time>2026-05-03T12:11:15.696Z</time></trkpt><trkpt lat="44.7130168" lon="9.7788412"><ele>817.0</ele><time>2026-05-03T12:11:16.695Z</time></trkpt><trkpt lat="44.7129569" lon="9.7786848"><ele>817.0</ele><time>2026-05-03T12:11:17.721Z</time></trkpt><trkpt lat="44.7128951" lon="9.7785315"><ele>817.0</ele><time>2026-05-03T12:11:18.717Z</time></trkpt><trkpt lat="44.7128251" lon="9.7783948"><ele>817.0</ele><time>2026-05-03T12:11:19.714Z</time></trkpt><trkpt lat="44.7127642" lon="9.7782721"><ele>817.0</ele><time>2026-05-03T12:11:20.706Z</time></trkpt><trkpt lat="44.7127004" lon="9.7781632"><ele>820.6</ele><time>2026-05-03T12:11:21.704Z</time></trkpt><trkpt lat="44.7126582" lon="9.778087"><ele>824.2</ele><time>2026-05-03T12:11:22.704Z</time></trkpt><trkpt lat="44.7125885" lon="9.7779604"><ele>827.8</ele><time>2026-05-03T12:11:24.712Z</time></trkpt><trkpt lat="44.7125449" lon="9.7777836"><ele>831.4</ele><time>2026-05-03T12:11:26.711Z</time></trkpt><trkpt lat="44.7125358" lon="9.7776328"><ele>835.0</ele><time>2026-05-03T12:11:27.714Z</time></trkpt><trkpt lat="44.7125421" lon="9.7774639"><ele>835.25</ele><time>2026-05-03T12:11:28.718Z</time></trkpt><trkpt lat="44.7125747" lon="9.7772981"><ele>835.5</ele><time>2026-05-03T12:11:29.707Z</time></trkpt><trkpt lat="44.7126327" lon="9.7771191"><ele>835.75</ele><time>2026-05-03T12:11:30.69Z</time></trkpt><trkpt lat="44.7127076" lon="9.776969"><ele>836.0</ele><time>2026-05-03T12:11:31.708Z</time></trkpt><trkpt lat="44.7127855" lon="9.7768249"><ele>834.25</ele><time>2026-05-03T12:11:32.689Z</time></trkpt><trkpt lat="44.7128439" lon="9.7766602"><ele>832.5</ele><time>2026-05-03T12:11:33.685Z</time></trkpt><trkpt lat="44.7128945" lon="9.7764924"><ele>830.75</ele><time>2026-05-03T12:11:34.687Z</time></trkpt><trkpt lat="44.7129469" lon="9.7763318"><ele>829.0</ele><time>2026-05-03T12:11:35.692Z</time></trkpt><trkpt lat="44.7129412" lon="9.7761634"><ele>829.0</ele><time>2026-05-03T12:11:36.713Z</time></trkpt><trkpt lat="44.712912" lon="9.7760455"><ele>829.0</ele><time>2026-05-03T12:11:37.714Z</time></trkpt><trkpt lat="44.7128999" lon="9.7759052"><ele>829.0</ele><time>2026-05-03T12:11:38.724Z</time></trkpt><trkpt lat="44.7128268" lon="9.7757453"><ele>829.0</ele><time>2026-05-03T12:11:39.714Z</time></trkpt><trkpt lat="44.7127111" lon="9.7755721"><ele>830.6666666666666</ele><time>2026-05-03T12:11:40.724Z</time></trkpt><trkpt lat="44.7125861" lon="9.7753591"><ele>832.3333333333333</ele><time>2026-05-03T12:11:41.704Z</time></trkpt><trkpt lat="44.7124293" lon="9.7751463"><ele>834.0</ele><time>2026-05-03T12:11:42.706Z</time></trkpt><trkpt lat="44.7121913" lon="9.7749495"><ele>834.0</ele><time>2026-05-03T12:11:43.71Z</time></trkpt><trkpt lat="44.7119515" lon="9.7747474"><ele>834.0</ele><time>2026-05-03T12:11:44.714Z</time></trkpt><trkpt lat="44.7117897" lon="9.7745431"><ele>839.6666666666667</ele><time>2026-05-03T12:11:45.722Z</time></trkpt><trkpt lat="44.7116519" lon="9.774363"><ele>845.3333333333334</ele><time>2026-05-03T12:11:46.711Z</time></trkpt><trkpt lat="44.7115485" lon="9.7741427"><ele>851.0</ele><time>2026-05-03T12:11:47.713Z</time></trkpt><trkpt lat="44.711459" lon="9.7739093"><ele>851.0</ele><time>2026-05-03T12:11:48.716Z</time></trkpt><trkpt lat="44.7113648" lon="9.773654"><ele>851.0</ele><time>2026-05-03T12:11:49.713Z</time></trkpt><trkpt lat="44.7113066" lon="9.7734201"><ele>851.0</ele><time>2026-05-03T12:11:50.736Z</time></trkpt><trkpt lat="44.7112834" lon="9.7732554"><ele>851.5</ele><time>2026-05-03T12:11:51.71Z</time></trkpt><trkpt lat="44.7113005" lon="9.7730892"><ele>852.0</ele><time>2026-05-03T12:11:52.716Z</time></trkpt><trkpt lat="44.7113711" lon="9.7729263"><ele>852.5</ele><time>2026-05-03T12:11:53.711Z</time></trkpt><trkpt lat="44.7114773" lon="9.7727473"><ele>853.0</ele><time>2026-05-03T12:11:54.681Z</time></trkpt><trkpt lat="44.71157" lon="9.7726295"><ele>855.3333333333333</ele><time>2026-05-03T12:11:55.694Z</time></trkpt><trkpt lat="44.7116839" lon="9.7724552"><ele>857.6666666666667</ele><time>2026-05-03T12:11:56.682Z</time></trkpt><trkpt lat="44.7117744" lon="9.7722449"><ele>860.0</ele><time>2026-05-03T12:11:57.686Z</time></trkpt><trkpt lat="44.7118588" lon="9.7720501"><ele>860.25</ele><time>2026-05-03T12:11:58.683Z</time></trkpt><trkpt lat="44.7119369" lon="9.7719488"><ele>860.5</ele><time>2026-05-03T12:11:59.683Z</time></trkpt><trkpt lat="44.7120389" lon="9.7718325"><ele>860.75</ele><time>2026-05-03T12:12:00.688Z</time></trkpt><trkpt lat="44.7121557" lon="9.7717446"><ele>861.0</ele><time>2026-05-03T12:12:01.7Z</time></trkpt><trkpt lat="44.7122103" lon="9.7716355"><ele>861.0</ele><time>2026-05-03T12:12:02.692Z</time></trkpt><trkpt lat="44.712243" lon="9.7714913"><ele>861.0</ele><time>2026-05-03T12:12:03.692Z</time></trkpt><trkpt lat="44.7123199" lon="9.7713085"><ele>861.0</ele><time>2026-05-03T12:12:04.722Z</time></trkpt><trkpt lat="44.7123475" lon="9.7711024"><ele>861.0</ele><time>2026-05-03T12:12:05.708Z</time></trkpt><trkpt lat="44.712393" lon="9.7709252"><ele>861.5</ele><time>2026-05-03T12:12:06.692Z</time></trkpt><trkpt lat="44.7123943" lon="9.7707723"><ele>862.0</ele><time>2026-05-03T12:12:07.677Z</time></trkpt><trkpt lat="44.7124069" lon="9.7706139"><ele>862.5</ele><time>2026-05-03T12:12:08.682Z</time></trkpt><trkpt lat="44.7123237" lon="9.7704396"><ele>863.0</ele><time>2026-05-03T12:12:09.704Z</time></trkpt><trkpt lat="44.7122542" lon="9.7702326"><ele>863.8</ele><time>2026-05-03T12:12:10.678Z</time></trkpt><trkpt lat="44.712224" lon="9.7700841"><ele>864.5999999999999</ele><time>2026-05-03T12:12:11.71Z</time></trkpt><trkpt lat="44.7121808" lon="9.7699417"><ele>865.4000000000001</ele><time>2026-05-03T12:12:12.701Z</time></trkpt><trkpt lat="44.7121903" lon="9.769808"><ele>866.2</ele><time>2026-05-03T12:12:13.675Z</time></trkpt><trkpt lat="44.7122689" lon="9.7697054"><ele>867.0</ele><time>2026-05-03T12:12:14.681Z</time></trkpt><trkpt lat="44.7122705" lon="9.7695847"><ele>867.0</ele><time>2026-05-03T12:12:15.684Z</time></trkpt><trkpt lat="44.7122959" lon="9.7694355"><ele>867.0</ele><time>2026-05-03T12:12:16.705Z</time></trkpt><trkpt lat="44.7122896" lon="9.7692743"><ele>867.0</ele><time>2026-05-03T12:12:17.695Z</time></trkpt><trkpt lat="44.7122768" lon="9.7691065"><ele>867.0</ele><time>2026-05-03T12:12:18.69Z</time></trkpt><trkpt lat="44.7121958" lon="9.7689602"><ele>866.75</ele><time>2026-05-03T12:12:19.712Z</time></trkpt><trkpt lat="44.7121502" lon="9.7688093"><ele>866.5</ele><time>2026-05-03T12:12:20.716Z</time></trkpt><trkpt lat="44.7120545" lon="9.7687029"><ele>866.25</ele><time>2026-05-03T12:12:21.734Z</time></trkpt><trkpt lat="44.7119404" lon="9.7686084"><ele>866.0</ele><time>2026-05-03T12:12:22.713Z</time></trkpt><trkpt lat="44.7118454" lon="9.7685011"><ele>867.4</ele><time>2026-05-03T12:12:23.711Z</time></trkpt><trkpt lat="44.7117444" lon="9.7684237"><ele>868.8</ele><time>2026-05-03T12:12:24.681Z</time></trkpt><trkpt lat="44.7116741" lon="9.768354"><ele>870.1999999999999</ele><time>2026-05-03T12:12:25.689Z</time></trkpt><trkpt lat="44.7115942" lon="9.7682748"><ele>871.5999999999999</ele><time>2026-05-03T12:12:26.691Z</time></trkpt><trkpt lat="44.7115136" lon="9.7681806"><ele>873.0</ele><time>2026-05-03T12:12:27.674Z</time></trkpt><trkpt lat="44.7113866" lon="9.7680906"><ele>873.0</ele><time>2026-05-03T12:12:28.68Z</time></trkpt><trkpt lat="44.7111994" lon="9.7680277"><ele>873.0</ele><time>2026-05-03T12:12:29.673Z</time></trkpt><trkpt lat="44.711052" lon="9.7679524"><ele>873.0</ele><time>2026-05-03T12:12:30.708Z</time></trkpt><trkpt lat="44.7109439" lon="9.7678405"><ele>879.25</ele><time>2026-05-03T12:12:31.715Z</time></trkpt><trkpt lat="44.7108153" lon="9.7677052"><ele>885.5</ele><time>2026-05-03T12:12:32.687Z</time></trkpt><trkpt lat="44.7107547" lon="9.7675153"><ele>891.75</ele><time>2026-05-03T12:12:33.689Z</time></trkpt><trkpt lat="44.7107492" lon="9.7673271"><ele>898.0</ele><time>2026-05-03T12:12:34.715Z</time></trkpt><trkpt lat="44.7107596" lon="9.767106"><ele>898.75</ele><time>2026-05-03T12:12:35.72Z</time></trkpt><trkpt lat="44.7107748" lon="9.7668834"><ele>899.5</ele><time>2026-05-03T12:12:36.73Z</time></trkpt><trkpt lat="44.7107878" lon="9.7666754"><ele>900.25</ele><time>2026-05-03T12:12:37.7Z</time></trkpt><trkpt lat="44.7107677" lon="9.7664963"><ele>901.0</ele><time>2026-05-03T12:12:38.721Z</time></trkpt><trkpt lat="44.710775" lon="9.7662895"><ele>901.25</ele><time>2026-05-03T12:12:39.722Z</time></trkpt><trkpt lat="44.7107648" lon="9.7660943"><ele>901.5</ele><time>2026-05-03T12:12:40.717Z</time></trkpt><trkpt lat="44.710762" lon="9.7659115"><ele>901.75</ele><time>2026-05-03T12:12:41.707Z</time></trkpt><trkpt lat="44.7107621" lon="9.7657203"><ele>902.0</ele><time>2026-05-03T12:12:42.714Z</time></trkpt><trkpt lat="44.7107893" lon="9.765517"><ele>902.0</ele><time>2026-05-03T12:12:43.714Z</time></trkpt><trkpt lat="44.710798" lon="9.7653229"><ele>902.0</ele><time>2026-05-03T12:12:44.714Z</time></trkpt><trkpt lat="44.710813" lon="9.7651286"><ele>902.0</ele><time>2026-05-03T12:12:45.691Z</time></trkpt><trkpt lat="44.710815" lon="9.7649232"><ele>902.0</ele><time>2026-05-03T12:12:46.701Z</time></trkpt><trkpt lat="44.7107575" lon="9.7646955"><ele>900.5</ele><time>2026-05-03T12:12:47.688Z</time></trkpt><trkpt lat="44.7107172" lon="9.7645185"><ele>899.0</ele><time>2026-05-03T12:12:48.693Z</time></trkpt><trkpt lat="44.7106968" lon="9.764328"><ele>897.5</ele><time>2026-05-03T12:12:49.697Z</time></trkpt><trkpt lat="44.7107064" lon="9.7641456"><ele>896.0</ele><time>2026-05-03T12:12:50.719Z</time></trkpt><trkpt lat="44.710691" lon="9.7640035"><ele>896.8</ele><time>2026-05-03T12:12:51.744Z</time></trkpt><trkpt lat="44.7106567" lon="9.7639241"><ele>897.5999999999999</ele><time>2026-05-03T12:12:52.729Z</time></trkpt><trkpt lat="44.7105516" lon="9.7639211"><ele>898.4</ele><time>2026-05-03T12:12:53.699Z</time></trkpt><trkpt lat="44.7104336" lon="9.7639772"><ele>899.2</ele><time>2026-05-03T12:12:54.698Z</time></trkpt><trkpt lat="44.710352" lon="9.7640377"><ele>900.0</ele><time>2026-05-03T12:12:55.696Z</time></trkpt><trkpt lat="44.7102108" lon="9.7641156"><ele>900.0</ele><time>2026-05-03T12:12:56.71Z</time></trkpt><trkpt lat="44.7100317" lon="9.7642874"><ele>900.0</ele><time>2026-05-03T12:12:58.715Z</time></trkpt><trkpt lat="44.7099277" lon="9.7644545"><ele>900.0</ele><time>2026-05-03T12:12:59.697Z</time></trkpt><trkpt lat="44.7098378" lon="9.764614"><ele>905.5</ele><time>2026-05-03T12:13:00.722Z</time></trkpt><trkpt lat="44.7097813" lon="9.7648559"><ele>911.0</ele><time>2026-05-03T12:13:01.731Z</time></trkpt><trkpt lat="44.7097365" lon="9.7649876"><ele>916.5</ele><time>2026-05-03T12:13:02.71Z</time></trkpt><trkpt lat="44.7097017" lon="9.7650746"><ele>922.0</ele><time>2026-05-03T12:13:03.704Z</time></trkpt><trkpt lat="44.7096256" lon="9.7651549"><ele>922.0</ele><time>2026-05-03T12:13:04.686Z</time></trkpt><trkpt lat="44.7095287" lon="9.7649504"><ele>922.0</ele><time>2026-05-03T12:13:05.683Z</time></trkpt><trkpt lat="44.7094546" lon="9.7647028"><ele>922.0</ele><time>2026-05-03T12:13:06.717Z</time></trkpt><trkpt lat="44.7093287" lon="9.7644017"><ele>915.0</ele><time>2026-05-03T12:13:07.71Z</time></trkpt><trkpt lat="44.709151" lon="9.76407"><ele>908.0</ele><time>2026-05-03T12:13:08.71Z</time></trkpt><trkpt lat="44.7089366" lon="9.7637756"><ele>905.0</ele><time>2026-05-03T12:13:09.713Z</time></trkpt><trkpt lat="44.7087602" lon="9.7635181"><ele>902.0</ele><time>2026-05-03T12:13:10.718Z</time></trkpt><trkpt lat="44.708688" lon="9.763246"><ele>902.0</ele><time>2026-05-03T12:13:11.735Z</time></trkpt><trkpt lat="44.7086299" lon="9.7629842"><ele>902.0</ele><time>2026-05-03T12:13:12.723Z</time></trkpt><trkpt lat="44.7085628" lon="9.7627127"><ele>902.0</ele><time>2026-05-03T12:13:13.718Z</time></trkpt><trkpt lat="44.7085053" lon="9.7624991"><ele>903.25</ele><time>2026-05-03T12:13:14.722Z</time></trkpt><trkpt lat="44.7084447" lon="9.7623107"><ele>904.5</ele><time>2026-05-03T12:13:15.718Z</time></trkpt><trkpt lat="44.708375" lon="9.7621213"><ele>905.75</ele><time>2026-05-03T12:13:16.729Z</time></trkpt><trkpt lat="44.7083769" lon="9.7619671"><ele>907.0</ele><time>2026-05-03T12:13:17.688Z</time></trkpt><trkpt lat="44.708334" lon="9.7617953"><ele>907.0</ele><time>2026-05-03T12:13:18.691Z</time></trkpt><trkpt lat="44.7082121" lon="9.7616831"><ele>907.0</ele><time>2026-05-03T12:13:19.713Z</time></trkpt><trkpt lat="44.7080424" lon="9.7616594"><ele>907.0</ele><time>2026-05-03T12:13:20.715Z</time></trkpt><trkpt lat="44.7078873" lon="9.7616221"><ele>908.25</ele><time>2026-05-03T12:13:21.729Z</time></trkpt><trkpt lat="44.7077431" lon="9.7615622"><ele>909.5</ele><time>2026-05-03T12:13:22.699Z</time></trkpt><trkpt lat="44.7076397" lon="9.7614579"><ele>910.75</ele><time>2026-05-03T12:13:23.691Z</time></trkpt><trkpt lat="44.7075534" lon="9.7613175"><ele>912.0</ele><time>2026-05-03T12:13:24.697Z</time></trkpt><trkpt lat="44.707558" lon="9.7611139"><ele>911.0</ele><time>2026-05-03T12:13:25.698Z</time></trkpt><trkpt lat="44.7075065" lon="9.7609069"><ele>910.0</ele><time>2026-05-03T12:13:26.697Z</time></trkpt><trkpt lat="44.7073603" lon="9.7608259"><ele>909.0</ele><time>2026-05-03T12:13:27.718Z</time></trkpt><trkpt lat="44.7072837" lon="9.7606901"><ele>908.0</ele><time>2026-05-03T12:13:28.722Z</time></trkpt><trkpt lat="44.7072015" lon="9.7605805"><ele>908.0</ele><time>2026-05-03T12:13:29.686Z</time></trkpt><trkpt lat="44.707154" lon="9.7604447"><ele>908.0</ele><time>2026-05-03T12:13:30.692Z</time></trkpt><trkpt lat="44.7071523" lon="9.7602396"><ele>908.0</ele><time>2026-05-03T12:13:31.735Z</time></trkpt><trkpt lat="44.70715" lon="9.7600137"><ele>908.0</ele><time>2026-05-03T12:13:32.693Z</time></trkpt><trkpt lat="44.7071422" lon="9.7597864"><ele>906.6666666666667</ele><time>2026-05-03T12:13:33.692Z</time></trkpt><trkpt lat="44.7071179" lon="9.7595166"><ele>905.3333333333333</ele><time>2026-05-03T12:13:34.699Z</time></trkpt><trkpt lat="44.7070738" lon="9.759278"><ele>904.0</ele><time>2026-05-03T12:13:35.721Z</time></trkpt><trkpt lat="44.7070312" lon="9.759055"><ele>901.3333333333333</ele><time>2026-05-03T12:13:36.741Z</time></trkpt><trkpt lat="44.7069762" lon="9.7588334"><ele>898.6666666666667</ele><time>2026-05-03T12:13:37.725Z</time></trkpt><trkpt lat="44.7069372" lon="9.758632"><ele>896.0</ele><time>2026-05-03T12:13:38.721Z</time></trkpt><trkpt lat="44.706869" lon="9.7584204"><ele>901.3333333333334</ele><time>2026-05-03T12:13:39.684Z</time></trkpt><trkpt lat="44.7067848" lon="9.7582158"><ele>906.6666666666667</ele><time>2026-05-03T12:13:40.689Z</time></trkpt><trkpt lat="44.7066985" lon="9.7580514"><ele>912.0</ele><time>2026-05-03T12:13:41.695Z</time></trkpt><trkpt lat="44.7065942" lon="9.7579052"><ele>912.0</ele><time>2026-05-03T12:13:42.688Z</time></trkpt><trkpt lat="44.7064501" lon="9.7577854"><ele>912.0</ele><time>2026-05-03T12:13:43.691Z</time></trkpt><trkpt lat="44.7062823" lon="9.7576521"><ele>912.0</ele><time>2026-05-03T12:13:44.715Z</time></trkpt><trkpt lat="44.7061438" lon="9.7574691"><ele>915.6666666666667</ele><time>2026-05-03T12:13:45.714Z</time></trkpt><trkpt lat="44.7060064" lon="9.7572796"><ele>919.3333333333334</ele><time>2026-05-03T12:13:46.707Z</time></trkpt><trkpt lat="44.705885" lon="9.7571146"><ele>923.0</ele><time>2026-05-03T12:13:47.692Z</time></trkpt><trkpt lat="44.7058251" lon="9.7569319"><ele>917.3333333333334</ele><time>2026-05-03T12:13:48.72Z</time></trkpt><trkpt lat="44.7057616" lon="9.7567242"><ele>911.6666666666667</ele><time>2026-05-03T12:13:49.725Z</time></trkpt><trkpt lat="44.7056832" lon="9.7565113"><ele>906.0</ele><time>2026-05-03T12:13:50.725Z</time></trkpt><trkpt lat="44.7056517" lon="9.7563145"><ele>906.0</ele><time>2026-05-03T12:13:51.741Z</time></trkpt><trkpt lat="44.705634" lon="9.7561563"><ele>906.0</ele><time>2026-05-03T12:13:52.728Z</time></trkpt><trkpt lat="44.7056142" lon="9.7560021"><ele>906.0</ele><time>2026-05-03T12:13:53.699Z</time></trkpt><trkpt lat="44.7056169" lon="9.7558431"><ele>906.0</ele><time>2026-05-03T12:13:54.699Z</time></trkpt><trkpt lat="44.705522" lon="9.7557405"><ele>904.0</ele><time>2026-05-03T12:13:56.7Z</time></trkpt><trkpt lat="44.7052875" lon="9.7558313"><ele>902.0</ele><time>2026-05-03T12:13:58.695Z</time></trkpt><trkpt lat="44.7050753" lon="9.755958"><ele>902.0</ele><time>2026-05-03T12:13:59.696Z</time></trkpt><trkpt lat="44.704963" lon="9.7560224"><ele>902.0</ele><time>2026-05-03T12:14:00.704Z</time></trkpt><trkpt lat="44.7047897" lon="9.756102"><ele>902.0</ele><time>2026-05-03T12:14:01.722Z</time></trkpt><trkpt lat="44.7045742" lon="9.7562252"><ele>907.0</ele><time>2026-05-03T12:14:02.705Z</time></trkpt><trkpt lat="44.7043942" lon="9.7563706"><ele>912.0</ele><time>2026-05-03T12:14:03.708Z</time></trkpt><trkpt lat="44.7041994" lon="9.7564027"><ele>917.0</ele><time>2026-05-03T12:14:04.711Z</time></trkpt><trkpt lat="44.7040306" lon="9.7564392"><ele>917.0</ele><time>2026-05-03T12:14:05.702Z</time></trkpt><trkpt lat="44.7038647" lon="9.7564731"><ele>917.0</ele><time>2026-05-03T12:14:06.731Z</time></trkpt><trkpt lat="44.7037069" lon="9.7564544"><ele>917.0</ele><time>2026-05-03T12:14:07.692Z</time></trkpt><trkpt lat="44.7034632" lon="9.7564019"><ele>918.75</ele><time>2026-05-03T12:14:08.688Z</time></trkpt><trkpt lat="44.7033023" lon="9.7563077"><ele>920.5</ele><time>2026-05-03T12:14:09.719Z</time></trkpt><trkpt lat="44.7031891" lon="9.7562665"><ele>922.25</ele><time>2026-05-03T12:14:10.684Z</time></trkpt><trkpt lat="44.7030449" lon="9.7562654"><ele>924.0</ele><time>2026-05-03T12:14:11.703Z</time></trkpt><trkpt lat="44.7028712" lon="9.7562656"><ele>922.3333333333333</ele><time>2026-05-03T12:14:12.69Z</time></trkpt><trkpt lat="44.7027152" lon="9.7563145"><ele>920.6666666666666</ele><time>2026-05-03T12:14:13.693Z</time></trkpt><trkpt lat="44.7025577" lon="9.756373"><ele>919.0</ele><time>2026-05-03T12:14:14.691Z</time></trkpt><trkpt lat="44.7023825" lon="9.7564553"><ele>919.0</ele><time>2026-05-03T12:14:15.686Z</time></trkpt><trkpt lat="44.7022342" lon="9.7566538"><ele>919.0</ele><time>2026-05-03T12:14:16.696Z</time></trkpt><trkpt lat="44.7020933" lon="9.7567702"><ele>919.0</ele><time>2026-05-03T12:14:17.691Z</time></trkpt><trkpt lat="44.701953" lon="9.7568621"><ele>917.6</ele><time>2026-05-03T12:14:18.693Z</time></trkpt><trkpt lat="44.7018731" lon="9.7569984"><ele>916.2</ele><time>2026-05-03T12:14:19.693Z</time></trkpt><trkpt lat="44.7018811" lon="9.7571477"><ele>914.8000000000001</ele><time>2026-05-03T12:14:20.701Z</time></trkpt><trkpt lat="44.701869" lon="9.7572673"><ele>913.4000000000001</ele><time>2026-05-03T12:14:21.734Z</time></trkpt><trkpt lat="44.7018866" lon="9.7574207"><ele>912.0</ele><time>2026-05-03T12:14:22.706Z</time></trkpt><trkpt lat="44.7018232" lon="9.7575817"><ele>914.6666666666667</ele><time>2026-05-03T12:14:23.726Z</time></trkpt><trkpt lat="44.7018055" lon="9.7578489"><ele>917.3333333333334</ele><time>2026-05-03T12:14:24.724Z</time></trkpt><trkpt lat="44.7017631" lon="9.7580877"><ele>920.0</ele><time>2026-05-03T12:14:25.72Z</time></trkpt><trkpt lat="44.7016838" lon="9.758266"><ele>920.0</ele><time>2026-05-03T12:14:26.715Z</time></trkpt><trkpt lat="44.7015556" lon="9.7584122"><ele>920.0</ele><time>2026-05-03T12:14:27.699Z</time></trkpt><trkpt lat="44.7014437" lon="9.7584994"><ele>920.0</ele><time>2026-05-03T12:14:28.696Z</time></trkpt><trkpt lat="44.7013753" lon="9.7586545"><ele>920.0</ele><time>2026-05-03T12:14:29.693Z</time></trkpt><trkpt lat="44.7013866" lon="9.758834"><ele>922.5</ele><time>2026-05-03T12:14:30.695Z</time></trkpt><trkpt lat="44.7013675" lon="9.7589772"><ele>925.0</ele><time>2026-05-03T12:14:31.714Z</time></trkpt><trkpt lat="44.701329" lon="9.7591322"><ele>927.5</ele><time>2026-05-03T12:14:32.703Z</time></trkpt><trkpt lat="44.7013152" lon="9.7593107"><ele>930.0</ele><time>2026-05-03T12:14:33.723Z</time></trkpt><trkpt lat="44.7012057" lon="9.7594231"><ele>932.3333333333333</ele><time>2026-05-03T12:14:34.693Z</time></trkpt><trkpt lat="44.7010893" lon="9.759565"><ele>934.6666666666666</ele><time>2026-05-03T12:14:35.688Z</time></trkpt><trkpt lat="44.7009881" lon="9.7596886"><ele>937.0</ele><time>2026-05-03T12:14:36.699Z</time></trkpt><trkpt lat="44.7009972" lon="9.7599303"><ele>935.6666666666666</ele><time>2026-05-03T12:14:37.703Z</time></trkpt><trkpt lat="44.7009688" lon="9.7601653"><ele>934.3333333333333</ele><time>2026-05-03T12:14:38.722Z</time></trkpt><trkpt lat="44.7009208" lon="9.7604272"><ele>933.0</ele><time>2026-05-03T12:14:39.722Z</time></trkpt><trkpt lat="44.7008431" lon="9.7606462"><ele>933.0</ele><time>2026-05-03T12:14:40.731Z</time></trkpt><trkpt lat="44.7007089" lon="9.7608113"><ele>933.0</ele><time>2026-05-03T12:14:41.729Z</time></trkpt><trkpt lat="44.7005597" lon="9.7609268"><ele>933.0</ele><time>2026-05-03T12:14:42.737Z</time></trkpt><trkpt lat="44.7003891" lon="9.7610318"><ele>932.6666666666667</ele><time>2026-05-03T12:14:43.698Z</time></trkpt><trkpt lat="44.7002578" lon="9.7611639"><ele>932.3333333333334</ele><time>2026-05-03T12:14:44.698Z</time></trkpt><trkpt lat="44.7001147" lon="9.7613015"><ele>932.0</ele><time>2026-05-03T12:14:45.695Z</time></trkpt><trkpt lat="44.7000104" lon="9.7614848"><ele>932.0</ele><time>2026-05-03T12:14:46.695Z</time></trkpt><trkpt lat="44.6999814" lon="9.7616566"><ele>932.0</ele><time>2026-05-03T12:14:47.732Z</time></trkpt><trkpt lat="44.6998813" lon="9.7617789"><ele>932.0</ele><time>2026-05-03T12:14:48.717Z</time></trkpt><trkpt lat="44.6997754" lon="9.7618709"><ele>932.0</ele><time>2026-05-03T12:14:49.712Z</time></trkpt><trkpt lat="44.6996422" lon="9.7619051"><ele>934.25</ele><time>2026-05-03T12:14:50.714Z</time></trkpt><trkpt lat="44.6995538" lon="9.7620144"><ele>936.5</ele><time>2026-05-03T12:14:51.713Z</time></trkpt><trkpt lat="44.6994065" lon="9.7620248"><ele>938.75</ele><time>2026-05-03T12:14:52.701Z</time></trkpt><trkpt lat="44.699258" lon="9.7620603"><ele>941.0</ele><time>2026-05-03T12:14:53.694Z</time></trkpt><trkpt lat="44.6991245" lon="9.7621081"><ele>941.0</ele><time>2026-05-03T12:14:54.691Z</time></trkpt><trkpt lat="44.6989889" lon="9.7621703"><ele>941.0</ele><time>2026-05-03T12:14:55.688Z</time></trkpt><trkpt lat="44.6988366" lon="9.7622834"><ele>941.0</ele><time>2026-05-03T12:14:56.687Z</time></trkpt><trkpt lat="44.6987153" lon="9.7624042"><ele>941.0</ele><time>2026-05-03T12:14:57.699Z</time></trkpt><trkpt lat="44.698587" lon="9.7625782"><ele>941.0</ele><time>2026-05-03T12:14:58.702Z</time></trkpt><trkpt lat="44.6983622" lon="9.7626777"><ele>941.0</ele><time>2026-05-03T12:14:59.684Z</time></trkpt><trkpt lat="44.6981572" lon="9.7628364"><ele>942.0</ele><time>2026-05-03T12:15:00.683Z</time></trkpt><trkpt lat="44.6979893" lon="9.7629969"><ele>943.0</ele><time>2026-05-03T12:15:01.695Z</time></trkpt><trkpt lat="44.6978856" lon="9.763159"><ele>944.0</ele><time>2026-05-03T12:15:02.703Z</time></trkpt><trkpt lat="44.6977869" lon="9.7633331"><ele>946.3333333333334</ele><time>2026-05-03T12:15:03.725Z</time></trkpt><trkpt lat="44.6976746" lon="9.7634871"><ele>948.6666666666667</ele><time>2026-05-03T12:15:04.719Z</time></trkpt><trkpt lat="44.6975126" lon="9.7635705"><ele>951.0</ele><time>2026-05-03T12:15:05.719Z</time></trkpt><trkpt lat="44.6973402" lon="9.7636368"><ele>951.0</ele><time>2026-05-03T12:15:06.721Z</time></trkpt><trkpt lat="44.6971491" lon="9.7636538"><ele>951.0</ele><time>2026-05-03T12:15:07.701Z</time></trkpt><trkpt lat="44.6969805" lon="9.7637219"><ele>951.0</ele><time>2026-05-03T12:15:08.697Z</time></trkpt><trkpt lat="44.6967953" lon="9.7637332"><ele>954.3333333333333</ele><time>2026-05-03T12:15:09.702Z</time></trkpt><trkpt lat="44.69661" lon="9.7637112"><ele>957.6666666666666</ele><time>2026-05-03T12:15:10.704Z</time></trkpt><trkpt lat="44.6964236" lon="9.7636569"><ele>961.0</ele><time>2026-05-03T12:15:11.678Z</time></trkpt><trkpt lat="44.6962993" lon="9.7634972"><ele>953.6666666666666</ele><time>2026-05-03T12:15:12.687Z</time></trkpt><trkpt lat="44.696264" lon="9.7632817"><ele>946.3333333333333</ele><time>2026-05-03T12:15:13.683Z</time></trkpt><trkpt lat="44.6962386" lon="9.763063"><ele>939.0</ele><time>2026-05-03T12:15:14.696Z</time></trkpt><trkpt lat="44.696153" lon="9.7628287"><ele>941.3333333333333</ele><time>2026-05-03T12:15:15.73Z</time></trkpt><trkpt lat="44.6960624" lon="9.7626083"><ele>943.6666666666666</ele><time>2026-05-03T12:15:16.721Z</time></trkpt><trkpt lat="44.6959685" lon="9.7624044"><ele>946.0</ele><time>2026-05-03T12:15:17.729Z</time></trkpt><trkpt lat="44.6958771" lon="9.7622377"><ele>946.0</ele><time>2026-05-03T12:15:18.726Z</time></trkpt><trkpt lat="44.695768" lon="9.7621308"><ele>946.0</ele><time>2026-05-03T12:15:19.72Z</time></trkpt><trkpt lat="44.6955776" lon="9.7620761"><ele>946.0</ele><time>2026-05-03T12:15:20.719Z</time></trkpt><trkpt lat="44.6953574" lon="9.7620862"><ele>950.3333333333333</ele><time>2026-05-03T12:15:21.722Z</time></trkpt><trkpt lat="44.6951379" lon="9.762131"><ele>954.6666666666667</ele><time>2026-05-03T12:15:22.742Z</time></trkpt><trkpt lat="44.6949395" lon="9.7621292"><ele>959.0</ele><time>2026-05-03T12:15:23.701Z</time></trkpt><trkpt lat="44.6947493" lon="9.762025"><ele>959.0</ele><time>2026-05-03T12:15:24.696Z</time></trkpt><trkpt lat="44.6946149" lon="9.7618756"><ele>959.0</ele><time>2026-05-03T12:15:25.727Z</time></trkpt><trkpt lat="44.6944441" lon="9.7617594"><ele>959.0</ele><time>2026-05-03T12:15:26.72Z</time></trkpt><trkpt lat="44.6942957" lon="9.7616236"><ele>960.25</ele><time>2026-05-03T12:15:27.731Z</time></trkpt><trkpt lat="44.6941866" lon="9.7615268"><ele>961.5</ele><time>2026-05-03T12:15:28.725Z</time></trkpt><trkpt lat="44.6940475" lon="9.7615053"><ele>962.75</ele><time>2026-05-03T12:15:29.72Z</time></trkpt><trkpt lat="44.6938765" lon="9.761478"><ele>964.0</ele><time>2026-05-03T12:15:30.726Z</time></trkpt><trkpt lat="44.693766" lon="9.7614258"><ele>964.0</ele><time>2026-05-03T12:15:31.704Z</time></trkpt><trkpt lat="44.6935928" lon="9.7613703"><ele>964.0</ele><time>2026-05-03T12:15:32.714Z</time></trkpt><trkpt lat="44.6934479" lon="9.7612558"><ele>964.0</ele><time>2026-05-03T12:15:33.694Z</time></trkpt><trkpt lat="44.6933086" lon="9.7610927"><ele>964.0</ele><time>2026-05-03T12:15:34.698Z</time></trkpt><trkpt lat="44.6931289" lon="9.7609478"><ele>964.0</ele><time>2026-05-03T12:15:35.718Z</time></trkpt><trkpt lat="44.6930149" lon="9.7607823"><ele>964.0</ele><time>2026-05-03T12:15:36.71Z</time></trkpt><trkpt lat="44.6928623" lon="9.7605986"><ele>964.0</ele><time>2026-05-03T12:15:37.731Z</time></trkpt><trkpt lat="44.6927829" lon="9.7604353"><ele>964.0</ele><time>2026-05-03T12:15:38.722Z</time></trkpt><trkpt lat="44.6927216" lon="9.7602208"><ele>964.0</ele><time>2026-05-03T12:15:39.72Z</time></trkpt><trkpt lat="44.6926673" lon="9.7599965"><ele>967.3333333333333</ele><time>2026-05-03T12:15:40.718Z</time></trkpt><trkpt lat="44.6926755" lon="9.7597578"><ele>970.6666666666667</ele><time>2026-05-03T12:15:41.715Z</time></trkpt><trkpt lat="44.6926789" lon="9.7594919"><ele>974.0</ele><time>2026-05-03T12:15:42.726Z</time></trkpt><trkpt lat="44.6926982" lon="9.7591948"><ele>974.0</ele><time>2026-05-03T12:15:43.693Z</time></trkpt><trkpt lat="44.6927052" lon="9.7589705"><ele>974.0</ele><time>2026-05-03T12:15:44.717Z</time></trkpt><trkpt lat="44.6927036" lon="9.7587919"><ele>974.0</ele><time>2026-05-03T12:15:45.72Z</time></trkpt><trkpt lat="44.6926278" lon="9.7586544"><ele>974.0</ele><time>2026-05-03T12:15:46.707Z</time></trkpt><trkpt lat="44.6925626" lon="9.7585201"><ele>974.0</ele><time>2026-05-03T12:15:47.725Z</time></trkpt><trkpt lat="44.692463" lon="9.7584555"><ele>974.0</ele><time>2026-05-03T12:15:48.679Z</time></trkpt><trkpt lat="44.6923596" lon="9.7584439"><ele>974.0</ele><time>2026-05-03T12:15:49.681Z</time></trkpt><trkpt lat="44.6922213" lon="9.7585452"><ele>974.0</ele><time>2026-05-03T12:15:50.672Z</time></trkpt><trkpt lat="44.6918464" lon="9.758786"><ele>976.5</ele><time>2026-05-03T12:15:51.685Z</time></trkpt><trkpt lat="44.6915831" lon="9.7588623"><ele>979.0</ele><time>2026-05-03T12:15:52.703Z</time></trkpt><trkpt lat="44.6913946" lon="9.7588874"><ele>979.0</ele><time>2026-05-03T12:15:53.686Z</time></trkpt><trkpt lat="44.6912054" lon="9.7589287"><ele>979.0</ele><time>2026-05-03T12:15:54.687Z</time></trkpt><trkpt lat="44.6910265" lon="9.7589169"><ele>979.0</ele><time>2026-05-03T12:15:55.686Z</time></trkpt><trkpt lat="44.690892" lon="9.7588175"><ele>978.0</ele><time>2026-05-03T12:15:56.688Z</time></trkpt><trkpt lat="44.6908701" lon="9.7586225"><ele>977.0</ele><time>2026-05-03T12:15:57.732Z</time></trkpt><trkpt lat="44.690768" lon="9.7585282"><ele>976.0</ele><time>2026-05-03T12:15:58.732Z</time></trkpt><trkpt lat="44.6906024" lon="9.7584616"><ele>975.0</ele><time>2026-05-03T12:15:59.723Z</time></trkpt><trkpt lat="44.6904303" lon="9.7583733"><ele>980.0</ele><time>2026-05-03T12:16:00.705Z</time></trkpt><trkpt lat="44.6902475" lon="9.7582953"><ele>985.0</ele><time>2026-05-03T12:16:01.739Z</time></trkpt><trkpt lat="44.6900727" lon="9.7582014"><ele>990.0</ele><time>2026-05-03T12:16:02.75Z</time></trkpt><trkpt lat="44.6898842" lon="9.758103"><ele>990.0</ele><time>2026-05-03T12:16:03.706Z</time></trkpt><trkpt lat="44.6897083" lon="9.7579976"><ele>990.0</ele><time>2026-05-03T12:16:04.703Z</time></trkpt><trkpt lat="44.6896283" lon="9.7578237"><ele>990.0</ele><time>2026-05-03T12:16:05.704Z</time></trkpt><trkpt lat="44.6895981" lon="9.7576391"><ele>984.6666666666667</ele><time>2026-05-03T12:16:06.715Z</time></trkpt><trkpt lat="44.6896693" lon="9.7573843"><ele>979.3333333333334</ele><time>2026-05-03T12:16:07.699Z</time></trkpt><trkpt lat="44.6896451" lon="9.7571601"><ele>974.0</ele><time>2026-05-03T12:16:08.689Z</time></trkpt><trkpt lat="44.6895851" lon="9.7569904"><ele>974.0</ele><time>2026-05-03T12:16:09.683Z</time></trkpt><trkpt lat="44.6894765" lon="9.7568747"><ele>974.0</ele><time>2026-05-03T12:16:10.712Z</time></trkpt><trkpt lat="44.6893134" lon="9.7567351"><ele>974.0</ele><time>2026-05-03T12:16:11.719Z</time></trkpt><trkpt lat="44.6891387" lon="9.7566631"><ele>974.0</ele><time>2026-05-03T12:16:12.729Z</time></trkpt><trkpt lat="44.6889792" lon="9.7565848"><ele>974.0</ele><time>2026-05-03T12:16:13.705Z</time></trkpt><trkpt lat="44.6888202" lon="9.7565305"><ele>974.0</ele><time>2026-05-03T12:16:14.702Z</time></trkpt><trkpt lat="44.6887208" lon="9.7565807"><ele>974.0</ele><time>2026-05-03T12:16:15.683Z</time></trkpt><trkpt lat="44.6886412" lon="9.7565509"><ele>976.25</ele><time>2026-05-03T12:16:16.683Z</time></trkpt><trkpt lat="44.688514" lon="9.7564345"><ele>978.5</ele><time>2026-05-03T12:16:17.708Z</time></trkpt><trkpt lat="44.6883971" lon="9.7563966"><ele>980.75</ele><time>2026-05-03T12:16:18.691Z</time></trkpt><trkpt lat="44.6882391" lon="9.7563485"><ele>983.0</ele><time>2026-05-03T12:16:19.689Z</time></trkpt><trkpt lat="44.6881034" lon="9.7563285"><ele>983.0</ele><time>2026-05-03T12:16:20.711Z</time></trkpt><trkpt lat="44.6879636" lon="9.7563307"><ele>983.0</ele><time>2026-05-03T12:16:21.69Z</time></trkpt><trkpt lat="44.6878204" lon="9.7562706"><ele>983.0</ele><time>2026-05-03T12:16:22.69Z</time></trkpt><trkpt lat="44.6876677" lon="9.7561236"><ele>983.6666666666667</ele><time>2026-05-03T12:16:23.695Z</time></trkpt><trkpt lat="44.6875084" lon="9.7559675"><ele>984.3333333333333</ele><time>2026-05-03T12:16:24.7Z</time></trkpt><trkpt lat="44.6873872" lon="9.7558591"><ele>985.0</ele><time>2026-05-03T12:16:25.724Z</time></trkpt><trkpt lat="44.6873049" lon="9.7557051"><ele>985.0</ele><time>2026-05-03T12:16:26.719Z</time></trkpt><trkpt lat="44.6872301" lon="9.7555391"><ele>985.0</ele><time>2026-05-03T12:16:27.691Z</time></trkpt><trkpt lat="44.6871724" lon="9.7554132"><ele>985.0</ele><time>2026-05-03T12:16:28.689Z</time></trkpt><trkpt lat="44.6871034" lon="9.7552792"><ele>985.0</ele><time>2026-05-03T12:16:29.687Z</time></trkpt><trkpt lat="44.6869679" lon="9.7552562"><ele>992.0</ele><time>2026-05-03T12:16:30.683Z</time></trkpt><trkpt lat="44.6867865" lon="9.7552906"><ele>999.0</ele><time>2026-05-03T12:16:31.674Z</time></trkpt><trkpt lat="44.6865942" lon="9.7553273"><ele>1006.0</ele><time>2026-05-03T12:16:32.682Z</time></trkpt><trkpt lat="44.6863764" lon="9.7553215"><ele>1006.0</ele><time>2026-05-03T12:16:33.68Z</time></trkpt><trkpt lat="44.6862456" lon="9.7553515"><ele>1006.0</ele><time>2026-05-03T12:16:34.686Z</time></trkpt><trkpt lat="44.6861318" lon="9.7553358"><ele>1006.0</ele><time>2026-05-03T12:16:35.687Z</time></trkpt><trkpt lat="44.6859962" lon="9.7553268"><ele>1006.0</ele><time>2026-05-03T12:16:36.691Z</time></trkpt><trkpt lat="44.6858924" lon="9.7552924"><ele>1004.5</ele><time>2026-05-03T12:16:37.677Z</time></trkpt><trkpt lat="44.685812" lon="9.7551789"><ele>1003.0</ele><time>2026-05-03T12:16:38.678Z</time></trkpt><trkpt lat="44.6858337" lon="9.7549877"><ele>1001.5</ele><time>2026-05-03T12:16:39.679Z</time></trkpt><trkpt lat="44.685909" lon="9.7548032"><ele>1000.0</ele><time>2026-05-03T12:16:40.702Z</time></trkpt><trkpt lat="44.6860442" lon="9.7545688"><ele>998.6666666666666</ele><time>2026-05-03T12:16:41.684Z</time></trkpt><trkpt lat="44.6860089" lon="9.7543207"><ele>997.3333333333333</ele><time>2026-05-03T12:16:42.694Z</time></trkpt><trkpt lat="44.6860456" lon="9.7540716"><ele>996.0</ele><time>2026-05-03T12:16:43.679Z</time></trkpt><trkpt lat="44.6859642" lon="9.7538598"><ele>996.0</ele><time>2026-05-03T12:16:44.686Z</time></trkpt><trkpt lat="44.6859169" lon="9.7535671"><ele>996.0</ele><time>2026-05-03T12:16:45.692Z</time></trkpt><trkpt lat="44.6858957" lon="9.7533956"><ele>996.0</ele><time>2026-05-03T12:16:46.689Z</time></trkpt><trkpt lat="44.6858452" lon="9.7532107"><ele>991.5</ele><time>2026-05-03T12:16:47.692Z</time></trkpt><trkpt lat="44.6857315" lon="9.7530826"><ele>987.0</ele><time>2026-05-03T12:16:48.699Z</time></trkpt><trkpt lat="44.6856968" lon="9.7529586"><ele>982.5</ele><time>2026-05-03T12:16:49.694Z</time></trkpt><trkpt lat="44.6856943" lon="9.752779"><ele>978.0</ele><time>2026-05-03T12:16:50.691Z</time></trkpt><trkpt lat="44.6856018" lon="9.7527039"><ele>981.6666666666667</ele><time>2026-05-03T12:16:51.693Z</time></trkpt><trkpt lat="44.6854655" lon="9.7526775"><ele>985.3333333333334</ele><time>2026-05-03T12:16:52.693Z</time></trkpt><trkpt lat="44.6853186" lon="9.7525918"><ele>989.0</ele><time>2026-05-03T12:16:53.696Z</time></trkpt><trkpt lat="44.6851094" lon="9.752507"><ele>989.0</ele><time>2026-05-03T12:16:54.694Z</time></trkpt><trkpt lat="44.6849735" lon="9.7523926"><ele>989.0</ele><time>2026-05-03T12:16:55.699Z</time></trkpt><trkpt lat="44.6848436" lon="9.7522664"><ele>989.0</ele><time>2026-05-03T12:16:56.704Z</time></trkpt><trkpt lat="44.6846956" lon="9.7521257"><ele>989.0</ele><time>2026-05-03T12:16:57.692Z</time></trkpt><trkpt lat="44.6845469" lon="9.7520096"><ele>989.0</ele><time>2026-05-03T12:16:58.691Z</time></trkpt><trkpt lat="44.6844014" lon="9.7519612"><ele>989.0</ele><time>2026-05-03T12:16:59.686Z</time></trkpt><trkpt lat="44.6842636" lon="9.7519019"><ele>988.25</ele><time>2026-05-03T12:17:00.68Z</time></trkpt><trkpt lat="44.6841044" lon="9.7518848"><ele>987.5</ele><time>2026-05-03T12:17:01.689Z</time></trkpt><trkpt lat="44.6839929" lon="9.7518989"><ele>986.75</ele><time>2026-05-03T12:17:02.678Z</time></trkpt><trkpt lat="44.6838547" lon="9.7518633"><ele>986.0</ele><time>2026-05-03T12:17:03.673Z</time></trkpt><trkpt lat="44.6836917" lon="9.751803"><ele>986.0</ele><time>2026-05-03T12:17:04.672Z</time></trkpt><trkpt lat="44.6835752" lon="9.7516835"><ele>986.0</ele><time>2026-05-03T12:17:05.711Z</time></trkpt><trkpt lat="44.6835033" lon="9.7515134"><ele>986.0</ele><time>2026-05-03T12:17:06.709Z</time></trkpt><trkpt lat="44.6836354" lon="9.7512084"><ele>985.0</ele><time>2026-05-03T12:17:07.692Z</time></trkpt><trkpt lat="44.6836664" lon="9.7509863"><ele>984.0</ele><time>2026-05-03T12:17:08.674Z</time></trkpt><trkpt lat="44.6836802" lon="9.7508144"><ele>983.0</ele><time>2026-05-03T12:17:09.684Z</time></trkpt><trkpt lat="44.683671" lon="9.750648"><ele>982.0</ele><time>2026-05-03T12:17:10.679Z</time></trkpt><trkpt lat="44.6836396" lon="9.750509"><ele>982.0</ele><time>2026-05-03T12:17:11.68Z</time></trkpt><trkpt lat="44.6836023" lon="9.7503863"><ele>982.0</ele><time>2026-05-03T12:17:12.691Z</time></trkpt><trkpt lat="44.6835436" lon="9.7503265"><ele>982.0</ele><time>2026-05-03T12:17:13.689Z</time></trkpt><trkpt lat="44.6834577" lon="9.7502517"><ele>982.0</ele><time>2026-05-03T12:17:14.691Z</time></trkpt><trkpt lat="44.6833799" lon="9.7501385"><ele>982.0</ele><time>2026-05-03T12:17:15.69Z</time></trkpt><trkpt lat="44.6833154" lon="9.7500026"><ele>989.6666666666666</ele><time>2026-05-03T12:17:16.695Z</time></trkpt><trkpt lat="44.6832076" lon="9.7498563"><ele>997.3333333333333</ele><time>2026-05-03T12:17:17.726Z</time></trkpt><trkpt lat="44.6830661" lon="9.7496973"><ele>1005.0</ele><time>2026-05-03T12:17:18.718Z</time></trkpt><trkpt lat="44.6829522" lon="9.7494947"><ele>1000.3333333333333</ele><time>2026-05-03T12:17:19.714Z</time></trkpt><trkpt lat="44.6828582" lon="9.7492767"><ele>995.6666666666666</ele><time>2026-05-03T12:17:20.712Z</time></trkpt><trkpt lat="44.6827889" lon="9.7490321"><ele>991.0</ele><time>2026-05-03T12:17:21.707Z</time></trkpt><trkpt lat="44.6827053" lon="9.7487852"><ele>998.0</ele><time>2026-05-03T12:17:22.706Z</time></trkpt><trkpt lat="44.6826499" lon="9.748481"><ele>1005.0</ele><time>2026-05-03T12:17:23.714Z</time></trkpt><trkpt lat="44.6826266" lon="9.7482543"><ele>1012.0</ele><time>2026-05-03T12:17:24.689Z</time></trkpt><trkpt lat="44.6826048" lon="9.7480012"><ele>1012.0</ele><time>2026-05-03T12:17:25.699Z</time></trkpt><trkpt lat="44.6825694" lon="9.7478169"><ele>1012.0</ele><time>2026-05-03T12:17:26.717Z</time></trkpt><trkpt lat="44.6824362" lon="9.7476431"><ele>1012.0</ele><time>2026-05-03T12:17:27.717Z</time></trkpt><trkpt lat="44.6822507" lon="9.7475185"><ele>1008.6666666666666</ele><time>2026-05-03T12:17:28.722Z</time></trkpt><trkpt lat="44.6820969" lon="9.7473968"><ele>1005.3333333333333</ele><time>2026-05-03T12:17:29.71Z</time></trkpt><trkpt lat="44.6819658" lon="9.747254"><ele>1002.0</ele><time>2026-05-03T12:17:30.71Z</time></trkpt><trkpt lat="44.6818741" lon="9.747004"><ele>1007.6666666666667</ele><time>2026-05-03T12:17:31.716Z</time></trkpt><trkpt lat="44.68178" lon="9.7468064"><ele>1013.3333333333334</ele><time>2026-05-03T12:17:32.705Z</time></trkpt><trkpt lat="44.6816555" lon="9.7466488"><ele>1019.0</ele><time>2026-05-03T12:17:33.71Z</time></trkpt><trkpt lat="44.6815807" lon="9.7464695"><ele>1019.0</ele><time>2026-05-03T12:17:34.712Z</time></trkpt><trkpt lat="44.6814826" lon="9.7462677"><ele>1019.0</ele><time>2026-05-03T12:17:35.706Z</time></trkpt><trkpt lat="44.6813911" lon="9.7461829"><ele>1019.0</ele><time>2026-05-03T12:17:36.701Z</time></trkpt><trkpt lat="44.6812527" lon="9.7461582"><ele>1019.0</ele><time>2026-05-03T12:17:37.705Z</time></trkpt><trkpt lat="44.6810967" lon="9.7460841"><ele>1021.6666666666667</ele><time>2026-05-03T12:17:38.683Z</time></trkpt><trkpt lat="44.6809249" lon="9.7459827"><ele>1024.3333333333333</ele><time>2026-05-03T12:17:39.679Z</time></trkpt><trkpt lat="44.6808644" lon="9.7457959"><ele>1027.0</ele><time>2026-05-03T12:17:40.681Z</time></trkpt><trkpt lat="44.6807873" lon="9.7456513"><ele>1027.0</ele><time>2026-05-03T12:17:41.72Z</time></trkpt><trkpt lat="44.680695" lon="9.7454942"><ele>1027.0</ele><time>2026-05-03T12:17:42.719Z</time></trkpt><trkpt lat="44.6805829" lon="9.7453503"><ele>1027.0</ele><time>2026-05-03T12:17:43.723Z</time></trkpt><trkpt lat="44.6804668" lon="9.7452087"><ele>1026.5</ele><time>2026-05-03T12:17:44.724Z</time></trkpt><trkpt lat="44.6803489" lon="9.7450633"><ele>1026.0</ele><time>2026-05-03T12:17:45.722Z</time></trkpt><trkpt lat="44.6802622" lon="9.7449144"><ele>1025.5</ele><time>2026-05-03T12:17:46.722Z</time></trkpt><trkpt lat="44.6801625" lon="9.744773"><ele>1025.0</ele><time>2026-05-03T12:17:47.723Z</time></trkpt><trkpt lat="44.6800575" lon="9.7445843"><ele>1026.0</ele><time>2026-05-03T12:17:48.694Z</time></trkpt><trkpt lat="44.6800178" lon="9.7443724"><ele>1027.0</ele><time>2026-05-03T12:17:49.69Z</time></trkpt><trkpt lat="44.6799542" lon="9.7441701"><ele>1028.0</ele><time>2026-05-03T12:17:50.696Z</time></trkpt><trkpt lat="44.6798936" lon="9.7439675"><ele>1028.0</ele><time>2026-05-03T12:17:51.695Z</time></trkpt><trkpt lat="44.6798362" lon="9.7438158"><ele>1028.0</ele><time>2026-05-03T12:17:52.696Z</time></trkpt><trkpt lat="44.6797635" lon="9.7437066"><ele>1028.0</ele><time>2026-05-03T12:17:53.712Z</time></trkpt><trkpt lat="44.6796438" lon="9.7436424"><ele>1028.0</ele><time>2026-05-03T12:17:54.695Z</time></trkpt><trkpt lat="44.6795477" lon="9.7435694"><ele>1025.25</ele><time>2026-05-03T12:17:55.688Z</time></trkpt><trkpt lat="44.6793817" lon="9.7435235"><ele>1022.5</ele><time>2026-05-03T12:17:56.693Z</time></trkpt><trkpt lat="44.6793462" lon="9.7433113"><ele>1019.75</ele><time>2026-05-03T12:17:57.695Z</time></trkpt><trkpt lat="44.6792781" lon="9.7431808"><ele>1017.0</ele><time>2026-05-03T12:17:58.696Z</time></trkpt><trkpt lat="44.6792055" lon="9.7430755"><ele>1017.0</ele><time>2026-05-03T12:17:59.693Z</time></trkpt><trkpt lat="44.6790944" lon="9.7429919"><ele>1017.0</ele><time>2026-05-03T12:18:00.7Z</time></trkpt><trkpt lat="44.6789678" lon="9.742881"><ele>1017.0</ele><time>2026-05-03T12:18:01.695Z</time></trkpt><trkpt lat="44.6788492" lon="9.7427384"><ele>1017.0</ele><time>2026-05-03T12:18:02.69Z</time></trkpt><trkpt lat="44.6787958" lon="9.7425511"><ele>1018.5</ele><time>2026-05-03T12:18:03.687Z</time></trkpt><trkpt lat="44.6787538" lon="9.7424442"><ele>1020.0</ele><time>2026-05-03T12:18:04.698Z</time></trkpt><trkpt lat="44.6786786" lon="9.742371"><ele>1021.5</ele><time>2026-05-03T12:18:05.691Z</time></trkpt><trkpt lat="44.6786842" lon="9.7422298"><ele>1023.0</ele><time>2026-05-03T12:18:07.695Z</time></trkpt><trkpt lat="44.6786159" lon="9.7424871"><ele>1023.0</ele><time>2026-05-03T12:18:09.686Z</time></trkpt><trkpt lat="44.6786046" lon="9.7426895"><ele>1023.0</ele><time>2026-05-03T12:18:10.717Z</time></trkpt><trkpt lat="44.6786125" lon="9.7429075"><ele>1023.0</ele><time>2026-05-03T12:18:11.72Z</time></trkpt><trkpt lat="44.6786396" lon="9.7431258"><ele>1023.5</ele><time>2026-05-03T12:18:12.715Z</time></trkpt><trkpt lat="44.6786223" lon="9.7432958"><ele>1024.0</ele><time>2026-05-03T12:18:13.717Z</time></trkpt><trkpt lat="44.6786571" lon="9.7434656"><ele>1024.5</ele><time>2026-05-03T12:18:14.723Z</time></trkpt><trkpt lat="44.6786978" lon="9.7436438"><ele>1025.0</ele><time>2026-05-03T12:18:15.71Z</time></trkpt><trkpt lat="44.6786695" lon="9.7435302"><ele>1022.3333333333334</ele><time>2026-05-03T12:18:17.681Z</time></trkpt><trkpt lat="44.6786287" lon="9.7433742"><ele>1019.6666666666667</ele><time>2026-05-03T12:18:18.681Z</time></trkpt><trkpt lat="44.6785565" lon="9.7431496"><ele>1017.0</ele><time>2026-05-03T12:18:19.685Z</time></trkpt><trkpt lat="44.6784519" lon="9.7429267"><ele>1011.3333333333333</ele><time>2026-05-03T12:18:20.688Z</time></trkpt><trkpt lat="44.6783791" lon="9.7427135"><ele>1005.6666666666666</ele><time>2026-05-03T12:18:21.685Z</time></trkpt><trkpt lat="44.6783427" lon="9.742542"><ele>1000.0</ele><time>2026-05-03T12:18:22.682Z</time></trkpt><trkpt lat="44.6783344" lon="9.7422906"><ele>1000.0</ele><time>2026-05-03T12:18:23.681Z</time></trkpt><trkpt lat="44.6783504" lon="9.7420561"><ele>1000.0</ele><time>2026-05-03T12:18:24.685Z</time></trkpt><trkpt lat="44.6783713" lon="9.7417985"><ele>1000.0</ele><time>2026-05-03T12:18:25.68Z</time></trkpt><trkpt lat="44.6784308" lon="9.7416008"><ele>1000.0</ele><time>2026-05-03T12:18:26.686Z</time></trkpt><trkpt lat="44.6784033" lon="9.7413702"><ele>1000.0</ele><time>2026-05-03T12:18:27.679Z</time></trkpt><trkpt lat="44.6782847" lon="9.7411335"><ele>1000.0</ele><time>2026-05-03T12:18:28.678Z</time></trkpt><trkpt lat="44.6781291" lon="9.7409975"><ele>1001.6666666666666</ele><time>2026-05-03T12:18:29.677Z</time></trkpt><trkpt lat="44.6780529" lon="9.7408859"><ele>1003.3333333333333</ele><time>2026-05-03T12:18:30.683Z</time></trkpt><trkpt lat="44.677928" lon="9.7406826"><ele>1005.0</ele><time>2026-05-03T12:18:31.688Z</time></trkpt><trkpt lat="44.6778524" lon="9.7404625"><ele>1005.0</ele><time>2026-05-03T12:18:32.678Z</time></trkpt><trkpt lat="44.6777998" lon="9.7402385"><ele>1005.0</ele><time>2026-05-03T12:18:33.688Z</time></trkpt><trkpt lat="44.6777585" lon="9.7399757"><ele>1005.0</ele><time>2026-05-03T12:18:34.687Z</time></trkpt><trkpt lat="44.6777324" lon="9.7397678"><ele>1001.75</ele><time>2026-05-03T12:18:35.68Z</time></trkpt><trkpt lat="44.677729" lon="9.7395736"><ele>998.5</ele><time>2026-05-03T12:18:36.713Z</time></trkpt><trkpt lat="44.6777098" lon="9.7393928"><ele>995.25</ele><time>2026-05-03T12:18:37.692Z</time></trkpt><trkpt lat="44.6776513" lon="9.7392434"><ele>992.0</ele><time>2026-05-03T12:18:38.693Z</time></trkpt><trkpt lat="44.6775617" lon="9.7390774"><ele>992.0</ele><time>2026-05-03T12:18:39.717Z</time></trkpt><trkpt lat="44.6774271" lon="9.7389688"><ele>992.0</ele><time>2026-05-03T12:18:40.714Z</time></trkpt><trkpt lat="44.6772848" lon="9.7388332"><ele>992.0</ele><time>2026-05-03T12:18:41.705Z</time></trkpt><trkpt lat="44.67714" lon="9.7387418"><ele>992.0</ele><time>2026-05-03T12:18:42.71Z</time></trkpt><trkpt lat="44.6769929" lon="9.73864"><ele>992.0</ele><time>2026-05-03T12:18:43.706Z</time></trkpt><trkpt lat="44.6768755" lon="9.7385007"><ele>992.0</ele><time>2026-05-03T12:18:44.709Z</time></trkpt><trkpt lat="44.6767289" lon="9.7383362"><ele>988.6666666666667</ele><time>2026-05-03T12:18:45.711Z</time></trkpt><trkpt lat="44.6765635" lon="9.738159"><ele>985.3333333333333</ele><time>2026-05-03T12:18:46.704Z</time></trkpt><trkpt lat="44.6764117" lon="9.738061"><ele>982.0</ele><time>2026-05-03T12:18:47.715Z</time></trkpt><trkpt lat="44.6763106" lon="9.7379968"><ele>982.0</ele><time>2026-05-03T12:18:48.707Z</time></trkpt><trkpt lat="44.6762403" lon="9.7379035"><ele>982.0</ele><time>2026-05-03T12:18:49.705Z</time></trkpt><trkpt lat="44.6762063" lon="9.7377197"><ele>982.0</ele><time>2026-05-03T12:18:50.688Z</time></trkpt><trkpt lat="44.676157" lon="9.7375368"><ele>982.0</ele><time>2026-05-03T12:18:51.69Z</time></trkpt><trkpt lat="44.6761933" lon="9.7373242"><ele>984.0</ele><time>2026-05-03T12:18:52.694Z</time></trkpt><trkpt lat="44.6762056" lon="9.7371325"><ele>986.0</ele><time>2026-05-03T12:18:53.693Z</time></trkpt><trkpt lat="44.6761948" lon="9.7369153"><ele>988.0</ele><time>2026-05-03T12:18:54.69Z</time></trkpt><trkpt lat="44.6761336" lon="9.7366797"><ele>979.6666666666666</ele><time>2026-05-03T12:18:55.687Z</time></trkpt><trkpt lat="44.6760378" lon="9.7364711"><ele>971.3333333333333</ele><time>2026-05-03T12:18:56.714Z</time></trkpt><trkpt lat="44.6759243" lon="9.7363053"><ele>963.0</ele><time>2026-05-03T12:18:57.722Z</time></trkpt><trkpt lat="44.6758342" lon="9.7361416"><ele>963.0</ele><time>2026-05-03T12:18:58.726Z</time></trkpt><trkpt lat="44.6758042" lon="9.7359429"><ele>963.0</ele><time>2026-05-03T12:18:59.69Z</time></trkpt><trkpt lat="44.6758113" lon="9.7357913"><ele>963.0</ele><time>2026-05-03T12:19:00.719Z</time></trkpt><trkpt lat="44.6758232" lon="9.7356104"><ele>963.0</ele><time>2026-05-03T12:19:01.727Z</time></trkpt><trkpt lat="44.6758458" lon="9.735404"><ele>963.6666666666667</ele><time>2026-05-03T12:19:02.705Z</time></trkpt><trkpt lat="44.6758449" lon="9.7352151"><ele>964.3333333333334</ele><time>2026-05-03T12:19:03.703Z</time></trkpt><trkpt lat="44.6757835" lon="9.7350019"><ele>965.0</ele><time>2026-05-03T12:19:04.728Z</time></trkpt><trkpt lat="44.6756852" lon="9.7348007"><ele>965.0</ele><time>2026-05-03T12:19:05.729Z</time></trkpt><trkpt lat="44.6755722" lon="9.734624"><ele>965.0</ele><time>2026-05-03T12:19:06.731Z</time></trkpt><trkpt lat="44.6755034" lon="9.7344351"><ele>965.0</ele><time>2026-05-03T12:19:07.731Z</time></trkpt><trkpt lat="44.6754199" lon="9.7342124"><ele>966.6666666666667</ele><time>2026-05-03T12:19:08.728Z</time></trkpt><trkpt lat="44.6753438" lon="9.7340018"><ele>968.3333333333333</ele><time>2026-05-03T12:19:09.723Z</time></trkpt><trkpt lat="44.6752792" lon="9.7337986"><ele>970.0</ele><time>2026-05-03T12:19:10.717Z</time></trkpt><trkpt lat="44.6752112" lon="9.7336532"><ele>968.75</ele><time>2026-05-03T12:19:11.714Z</time></trkpt><trkpt lat="44.6751289" lon="9.7335855"><ele>967.5</ele><time>2026-05-03T12:19:12.71Z</time></trkpt><trkpt lat="44.6750379" lon="9.7335142"><ele>966.25</ele><time>2026-05-03T12:19:13.713Z</time></trkpt><trkpt lat="44.6748557" lon="9.7335507"><ele>965.0</ele><time>2026-05-03T12:19:14.715Z</time></trkpt><trkpt lat="44.6746428" lon="9.7335263"><ele>965.0</ele><time>2026-05-03T12:19:15.72Z</time></trkpt><trkpt lat="44.6744437" lon="9.7335275"><ele>965.0</ele><time>2026-05-03T12:19:16.705Z</time></trkpt><trkpt lat="44.6742582" lon="9.7335792"><ele>965.0</ele><time>2026-05-03T12:19:17.714Z</time></trkpt><trkpt lat="44.674114" lon="9.7336246"><ele>959.75</ele><time>2026-05-03T12:19:18.712Z</time></trkpt><trkpt lat="44.6739918" lon="9.733715"><ele>954.5</ele><time>2026-05-03T12:19:19.684Z</time></trkpt><trkpt lat="44.6738893" lon="9.7338433"><ele>949.25</ele><time>2026-05-03T12:19:20.685Z</time></trkpt><trkpt lat="44.6737807" lon="9.7340345"><ele>944.0</ele><time>2026-05-03T12:19:21.686Z</time></trkpt><trkpt lat="44.6736917" lon="9.7341814"><ele>944.5</ele><time>2026-05-03T12:19:22.691Z</time></trkpt><trkpt lat="44.6735941" lon="9.7342985"><ele>945.0</ele><time>2026-05-03T12:19:23.694Z</time></trkpt><trkpt lat="44.6734678" lon="9.7343226"><ele>945.5</ele><time>2026-05-03T12:19:24.686Z</time></trkpt><trkpt lat="44.673355" lon="9.7343036"><ele>946.0</ele><time>2026-05-03T12:19:25.683Z</time></trkpt><trkpt lat="44.6731842" lon="9.7342593"><ele>946.0</ele><time>2026-05-03T12:19:27.697Z</time></trkpt><trkpt lat="44.6730278" lon="9.7341427"><ele>946.0</ele><time>2026-05-03T12:19:28.686Z</time></trkpt><trkpt lat="44.6728992" lon="9.7340632"><ele>946.0</ele><time>2026-05-03T12:19:29.684Z</time></trkpt><trkpt lat="44.6728154" lon="9.7339289"><ele>946.0</ele><time>2026-05-03T12:19:30.686Z</time></trkpt><trkpt lat="44.672788" lon="9.7337445"><ele>948.3333333333333</ele><time>2026-05-03T12:19:31.869Z</time></trkpt><trkpt lat="44.6727777" lon="9.7334924"><ele>950.6666666666667</ele><time>2026-05-03T12:19:32.867Z</time></trkpt><trkpt lat="44.6727051" lon="9.7332309"><ele>953.0</ele><time>2026-05-03T12:19:33.866Z</time></trkpt><trkpt lat="44.6725977" lon="9.7329866"><ele>947.3333333333334</ele><time>2026-05-03T12:19:34.863Z</time></trkpt><trkpt lat="44.6724847" lon="9.7327424"><ele>941.6666666666667</ele><time>2026-05-03T12:19:36.057Z</time></trkpt><trkpt lat="44.6723782" lon="9.7325287"><ele>936.0</ele><time>2026-05-03T12:19:37.05Z</time></trkpt><trkpt lat="44.6722712" lon="9.732343"><ele>936.0</ele><time>2026-05-03T12:19:38.041Z</time></trkpt><trkpt lat="44.6721361" lon="9.7321993"><ele>936.0</ele><time>2026-05-03T12:19:39.035Z</time></trkpt><trkpt lat="44.6720211" lon="9.7321044"><ele>936.0</ele><time>2026-05-03T12:19:40.037Z</time></trkpt><trkpt lat="44.6718112" lon="9.7321041"><ele>928.0</ele><time>2026-05-03T12:19:41.863Z</time></trkpt><trkpt lat="44.6716719" lon="9.7321245"><ele>920.0</ele><time>2026-05-03T12:19:42.864Z</time></trkpt><trkpt lat="44.6713022" lon="9.7320596"><ele>920.0</ele><time>2026-05-03T12:19:44.688Z</time></trkpt><trkpt lat="44.6711872" lon="9.7319197"><ele>920.0</ele><time>2026-05-03T12:19:46.036Z</time></trkpt><trkpt lat="44.6710313" lon="9.7315712"><ele>920.0</ele><time>2026-05-03T12:19:47.863Z</time></trkpt><trkpt lat="44.6710584" lon="9.731333"><ele>921.25</ele><time>2026-05-03T12:19:48.859Z</time></trkpt><trkpt lat="44.6709642" lon="9.7310497"><ele>922.5</ele><time>2026-05-03T12:19:50.851Z</time></trkpt><trkpt lat="44.6709841" lon="9.730945"><ele>923.75</ele><time>2026-05-03T12:19:51.849Z</time></trkpt><trkpt lat="44.6708918" lon="9.7309425"><ele>925.0</ele><time>2026-05-03T12:19:52.856Z</time></trkpt><trkpt lat="44.6707591" lon="9.730987"><ele>919.5</ele><time>2026-05-03T12:19:53.857Z</time></trkpt><trkpt lat="44.6704859" lon="9.7311753"><ele>914.0</ele><time>2026-05-03T12:19:55.678Z</time></trkpt><trkpt lat="44.6703663" lon="9.7313311"><ele>914.0</ele><time>2026-05-03T12:19:56.753Z</time></trkpt><trkpt lat="44.6703776" lon="9.7315511"><ele>914.0</ele><time>2026-05-03T12:19:57.676Z</time></trkpt><trkpt lat="44.670419" lon="9.7317508"><ele>914.0</ele><time>2026-05-03T12:19:58.688Z</time></trkpt><trkpt lat="44.6702314" lon="9.7317066"><ele>912.3333333333334</ele><time>2026-05-03T12:20:01.693Z</time></trkpt><trkpt lat="44.6701415" lon="9.7317333"><ele>910.6666666666667</ele><time>2026-05-03T12:20:02.676Z</time></trkpt><trkpt lat="44.66993" lon="9.7316337"><ele>909.0</ele><time>2026-05-03T12:20:03.711Z</time></trkpt><trkpt lat="44.6697367" lon="9.7315775"><ele>909.0</ele><time>2026-05-03T12:20:04.689Z</time></trkpt><trkpt lat="44.6695596" lon="9.7315055"><ele>909.0</ele><time>2026-05-03T12:20:05.689Z</time></trkpt><trkpt lat="44.6693991" lon="9.7314262"><ele>909.0</ele><time>2026-05-03T12:20:06.689Z</time></trkpt><trkpt lat="44.6692592" lon="9.7313384"><ele>907.3333333333333</ele><time>2026-05-03T12:20:07.685Z</time></trkpt><trkpt lat="44.6691393" lon="9.7311896"><ele>905.6666666666666</ele><time>2026-05-03T12:20:08.69Z</time></trkpt><trkpt lat="44.6689819" lon="9.7310291"><ele>904.0</ele><time>2026-05-03T12:20:09.712Z</time></trkpt><trkpt lat="44.668829" lon="9.7309561"><ele>904.0</ele><time>2026-05-03T12:20:10.716Z</time></trkpt><trkpt lat="44.6686822" lon="9.73094"><ele>904.0</ele><time>2026-05-03T12:20:11.711Z</time></trkpt><trkpt lat="44.6685742" lon="9.7309912"><ele>904.0</ele><time>2026-05-03T12:20:12.69Z</time></trkpt><trkpt lat="44.668465" lon="9.7311151"><ele>904.0</ele><time>2026-05-03T12:20:13.684Z</time></trkpt><trkpt lat="44.6684335" lon="9.7312895"><ele>899.75</ele><time>2026-05-03T12:20:14.677Z</time></trkpt><trkpt lat="44.6683908" lon="9.7314203"><ele>895.5</ele><time>2026-05-03T12:20:15.683Z</time></trkpt><trkpt lat="44.6683072" lon="9.7315257"><ele>891.25</ele><time>2026-05-03T12:20:16.676Z</time></trkpt><trkpt lat="44.6681799" lon="9.7316246"><ele>887.0</ele><time>2026-05-03T12:20:17.684Z</time></trkpt><trkpt lat="44.6680509" lon="9.7315935"><ele>887.0</ele><time>2026-05-03T12:20:18.675Z</time></trkpt><trkpt lat="44.6679323" lon="9.7314893"><ele>887.0</ele><time>2026-05-03T12:20:19.686Z</time></trkpt><trkpt lat="44.6679068" lon="9.731301"><ele>887.0</ele><time>2026-05-03T12:20:20.693Z</time></trkpt><trkpt lat="44.6678265" lon="9.7310847"><ele>886.0</ele><time>2026-05-03T12:20:21.699Z</time></trkpt><trkpt lat="44.667683" lon="9.7308168"><ele>885.0</ele><time>2026-05-03T12:20:22.713Z</time></trkpt><trkpt lat="44.6675516" lon="9.7306554"><ele>884.0</ele><time>2026-05-03T12:20:23.716Z</time></trkpt><trkpt lat="44.6673944" lon="9.7305896"><ele>884.0</ele><time>2026-05-03T12:20:24.716Z</time></trkpt><trkpt lat="44.667239" lon="9.7306105"><ele>884.0</ele><time>2026-05-03T12:20:25.72Z</time></trkpt><trkpt lat="44.6670936" lon="9.7307211"><ele>884.0</ele><time>2026-05-03T12:20:26.686Z</time></trkpt><trkpt lat="44.6669995" lon="9.7307382"><ele>884.0</ele><time>2026-05-03T12:20:27.678Z</time></trkpt><trkpt lat="44.6668754" lon="9.7308844"><ele>880.6666666666667</ele><time>2026-05-03T12:20:28.682Z</time></trkpt><trkpt lat="44.666733" lon="9.7310219"><ele>877.3333333333333</ele><time>2026-05-03T12:20:29.674Z</time></trkpt><trkpt lat="44.6665933" lon="9.7311049"><ele>874.0</ele><time>2026-05-03T12:20:30.68Z</time></trkpt><trkpt lat="44.6663965" lon="9.731173"><ele>872.0</ele><time>2026-05-03T12:20:31.683Z</time></trkpt><trkpt lat="44.6662754" lon="9.7312753"><ele>870.0</ele><time>2026-05-03T12:20:32.674Z</time></trkpt><trkpt lat="44.6662407" lon="9.7314159"><ele>868.0</ele><time>2026-05-03T12:20:33.688Z</time></trkpt><trkpt lat="44.6661952" lon="9.73156"><ele>866.0</ele><time>2026-05-03T12:20:34.69Z</time></trkpt><trkpt lat="44.6660968" lon="9.7316094"><ele>865.0</ele><time>2026-05-03T12:20:35.695Z</time></trkpt><trkpt lat="44.6659655" lon="9.7315356"><ele>864.0</ele><time>2026-05-03T12:20:36.682Z</time></trkpt><trkpt lat="44.6658538" lon="9.7314866"><ele>863.0</ele><time>2026-05-03T12:20:37.683Z</time></trkpt><trkpt lat="44.6658129" lon="9.7313475"><ele>862.0</ele><time>2026-05-03T12:20:38.684Z</time></trkpt><trkpt lat="44.6658163" lon="9.7311674"><ele>862.4999999999999</ele><time>2026-05-03T12:20:39.679Z</time></trkpt><trkpt lat="44.6658515" lon="9.7310469"><ele>863.0</ele><time>2026-05-03T12:20:40.682Z</time></trkpt><trkpt lat="44.6658246" lon="9.7309309"><ele>863.5</ele><time>2026-05-03T12:20:41.737Z</time></trkpt><trkpt lat="44.6657624" lon="9.7308709"><ele>864.0</ele><time>2026-05-03T12:20:42.735Z</time></trkpt><trkpt lat="44.6657048" lon="9.7307842"><ele>864.4999999999999</ele><time>2026-05-03T12:20:43.689Z</time></trkpt><trkpt lat="44.6656677" lon="9.7307018"><ele>865.0</ele><time>2026-05-03T12:20:44.688Z</time></trkpt><trkpt lat="44.6656676" lon="9.7305946"><ele>864.9999999999999</ele><time>2026-05-03T12:20:45.71Z</time></trkpt><trkpt lat="44.665683" lon="9.7304863"><ele>865.0</ele><time>2026-05-03T12:20:46.68Z</time></trkpt><trkpt lat="44.6656972" lon="9.7303863"><ele>865.0</ele><time>2026-05-03T12:20:47.687Z</time></trkpt><trkpt lat="44.6657387" lon="9.7302859"><ele>865.0</ele><time>2026-05-03T12:20:48.684Z</time></trkpt><trkpt lat="44.6657991" lon="9.7301651"><ele>864.9999999999999</ele><time>2026-05-03T12:20:49.682Z</time></trkpt><trkpt lat="44.6658649" lon="9.7300398"><ele>865.0</ele><time>2026-05-03T12:20:50.682Z</time></trkpt><trkpt lat="44.6659612" lon="9.7299015"><ele>863.0</ele><time>2026-05-03T12:20:51.675Z</time></trkpt><trkpt lat="44.666015" lon="9.7297815"><ele>861.0</ele><time>2026-05-03T12:20:52.696Z</time></trkpt><trkpt lat="44.6660153" lon="9.7296744"><ele>859.0</ele><time>2026-05-03T12:20:53.698Z</time></trkpt><trkpt lat="44.665957" lon="9.7295094"><ele>857.0</ele><time>2026-05-03T12:20:54.697Z</time></trkpt><trkpt lat="44.6658932" lon="9.7293093"><ele>856.0</ele><time>2026-05-03T12:20:55.698Z</time></trkpt><trkpt lat="44.6658404" lon="9.7291047"><ele>855.0</ele><time>2026-05-03T12:20:56.71Z</time></trkpt><trkpt lat="44.6658198" lon="9.7288645"><ele>854.0</ele><time>2026-05-03T12:20:57.699Z</time></trkpt><trkpt lat="44.6658145" lon="9.7286154"><ele>852.6666666666667</ele><time>2026-05-03T12:20:58.711Z</time></trkpt><trkpt lat="44.6658259" lon="9.7283502"><ele>851.3333333333333</ele><time>2026-05-03T12:20:59.709Z</time></trkpt><trkpt lat="44.6658489" lon="9.7280793"><ele>850.0</ele><time>2026-05-03T12:21:00.717Z</time></trkpt><trkpt lat="44.6659278" lon="9.7278261"><ele>848.5</ele><time>2026-05-03T12:21:01.723Z</time></trkpt><trkpt lat="44.6659952" lon="9.727619"><ele>847.0</ele><time>2026-05-03T12:21:02.74Z</time></trkpt><trkpt lat="44.666034" lon="9.7274597"><ele>845.5</ele><time>2026-05-03T12:21:03.716Z</time></trkpt><trkpt lat="44.6661368" lon="9.7273774"><ele>844.0</ele><time>2026-05-03T12:21:04.699Z</time></trkpt><trkpt lat="44.6661786" lon="9.7272164"><ele>844.0</ele><time>2026-05-03T12:21:05.691Z</time></trkpt><trkpt lat="44.6661429" lon="9.7270338"><ele>844.0</ele><time>2026-05-03T12:21:06.69Z</time></trkpt><trkpt lat="44.6660952" lon="9.7268874"><ele>844.0</ele><time>2026-05-03T12:21:08.678Z</time></trkpt><trkpt lat="44.6659414" lon="9.726924"><ele>844.0</ele><time>2026-05-03T12:21:09.68Z</time></trkpt><trkpt lat="44.6658014" lon="9.7269632"><ele>844.0</ele><time>2026-05-03T12:21:10.675Z</time></trkpt><trkpt lat="44.6656795" lon="9.7271261"><ele>844.0</ele><time>2026-05-03T12:21:11.671Z</time></trkpt><trkpt lat="44.6656861" lon="9.7272775"><ele>844.0</ele><time>2026-05-03T12:21:12.666Z</time></trkpt><trkpt lat="44.6656765" lon="9.7274969"><ele>844.0</ele><time>2026-05-03T12:21:13.679Z</time></trkpt><trkpt lat="44.6656281" lon="9.7277908"><ele>847.0</ele><time>2026-05-03T12:21:14.676Z</time></trkpt><trkpt lat="44.6655765" lon="9.7281067"><ele>850.0</ele><time>2026-05-03T12:21:15.672Z</time></trkpt><trkpt lat="44.6654397" lon="9.7284163"><ele>851.3333333333333</ele><time>2026-05-03T12:21:16.672Z</time></trkpt><trkpt lat="44.6653173" lon="9.7286935"><ele>852.6666666666667</ele><time>2026-05-03T12:21:17.676Z</time></trkpt><trkpt lat="44.6651789" lon="9.7289215"><ele>854.0</ele><time>2026-05-03T12:21:18.678Z</time></trkpt><trkpt lat="44.6650517" lon="9.7291693"><ele>848.3333333333334</ele><time>2026-05-03T12:21:19.678Z</time></trkpt><trkpt lat="44.6649423" lon="9.7294067"><ele>842.6666666666667</ele><time>2026-05-03T12:21:20.676Z</time></trkpt><trkpt lat="44.6648358" lon="9.7296389"><ele>837.0</ele><time>2026-05-03T12:21:21.677Z</time></trkpt><trkpt lat="44.6647209" lon="9.7298884"><ele>837.0</ele><time>2026-05-03T12:21:22.674Z</time></trkpt><trkpt lat="44.664589" lon="9.7301005"><ele>837.0</ele><time>2026-05-03T12:21:23.672Z</time></trkpt><trkpt lat="44.6645007" lon="9.7303159"><ele>837.0</ele><time>2026-05-03T12:21:24.676Z</time></trkpt><trkpt lat="44.6643947" lon="9.7304581"><ele>831.75</ele><time>2026-05-03T12:21:25.675Z</time></trkpt><trkpt lat="44.664317" lon="9.7306211"><ele>826.5</ele><time>2026-05-03T12:21:26.675Z</time></trkpt><trkpt lat="44.6642769" lon="9.7307884"><ele>821.25</ele><time>2026-05-03T12:21:27.672Z</time></trkpt><trkpt lat="44.6642076" lon="9.7309217"><ele>816.0</ele><time>2026-05-03T12:21:28.679Z</time></trkpt><trkpt lat="44.6641733" lon="9.7310396"><ele>815.6666666666667</ele><time>2026-05-03T12:21:29.671Z</time></trkpt><trkpt lat="44.6642447" lon="9.731248"><ele>815.3333333333334</ele><time>2026-05-03T12:21:30.676Z</time></trkpt><trkpt lat="44.664277" lon="9.7314383"><ele>815.0</ele><time>2026-05-03T12:21:31.682Z</time></trkpt><trkpt lat="44.664248" lon="9.7317216"><ele>815.3333333333334</ele><time>2026-05-03T12:21:32.674Z</time></trkpt><trkpt lat="44.6642144" lon="9.7320413"><ele>815.6666666666667</ele><time>2026-05-03T12:21:33.672Z</time></trkpt><trkpt lat="44.6641544" lon="9.7322996"><ele>816.0</ele><time>2026-05-03T12:21:34.675Z</time></trkpt><trkpt lat="44.6641045" lon="9.7325134"><ele>816.0</ele><time>2026-05-03T12:21:35.674Z</time></trkpt><trkpt lat="44.6640374" lon="9.7327145"><ele>816.0</ele><time>2026-05-03T12:21:36.685Z</time></trkpt><trkpt lat="44.6639825" lon="9.7329384"><ele>816.0</ele><time>2026-05-03T12:21:37.672Z</time></trkpt><trkpt lat="44.6638897" lon="9.7330383"><ele>816.0</ele><time>2026-05-03T12:21:38.679Z</time></trkpt><trkpt lat="44.6637922" lon="9.7331251"><ele>815.4</ele><time>2026-05-03T12:21:39.684Z</time></trkpt><trkpt lat="44.6636876" lon="9.7332448"><ele>814.8</ele><time>2026-05-03T12:21:40.676Z</time></trkpt><trkpt lat="44.6636335" lon="9.7332968"><ele>814.1999999999999</ele><time>2026-05-03T12:21:41.674Z</time></trkpt><trkpt lat="44.6636501" lon="9.7333944"><ele>813.5999999999999</ele><time>2026-05-03T12:21:42.672Z</time></trkpt><trkpt lat="44.6637439" lon="9.7335024"><ele>813.0</ele><time>2026-05-03T12:21:43.667Z</time></trkpt><trkpt lat="44.6639502" lon="9.7335376"><ele>808.6666666666667</ele><time>2026-05-03T12:21:44.665Z</time></trkpt><trkpt lat="44.6640376" lon="9.7336735"><ele>804.3333333333334</ele><time>2026-05-03T12:21:45.673Z</time></trkpt><trkpt lat="44.6640851" lon="9.73392"><ele>800.0</ele><time>2026-05-03T12:21:46.674Z</time></trkpt><trkpt lat="44.6642233" lon="9.7341131"><ele>800.0</ele><time>2026-05-03T12:21:47.677Z</time></trkpt><trkpt lat="44.6643454" lon="9.7343361"><ele>800.0</ele><time>2026-05-03T12:21:48.672Z</time></trkpt><trkpt lat="44.6644352" lon="9.7345191"><ele>800.0</ele><time>2026-05-03T12:21:49.664Z</time></trkpt><trkpt lat="44.6643765" lon="9.7343762"><ele>800.0</ele><time>2026-05-03T12:21:53.683Z</time></trkpt><trkpt lat="44.6643256" lon="9.7342615"><ele>800.0</ele><time>2026-05-03T12:21:54.705Z</time></trkpt><trkpt lat="44.6641761" lon="9.7340158"><ele>800.0</ele><time>2026-05-03T12:21:55.708Z</time></trkpt><trkpt lat="44.6640838" lon="9.7339016"><ele>800.0</ele><time>2026-05-03T12:21:56.679Z</time></trkpt><trkpt lat="44.6639949" lon="9.7338336"><ele>800.0</ele><time>2026-05-03T12:21:57.664Z</time></trkpt><trkpt lat="44.6639258" lon="9.7337959"><ele>800.0</ele><time>2026-05-03T12:21:58.658Z</time></trkpt><trkpt lat="44.6637697" lon="9.7338136"><ele>800.0</ele><time>2026-05-03T12:21:59.661Z</time></trkpt><trkpt lat="44.6636106" lon="9.7338247"><ele>800.0</ele><time>2026-05-03T12:22:00.661Z</time></trkpt><trkpt lat="44.6634606" lon="9.7338376"><ele>796.6666666666667</ele><time>2026-05-03T12:22:01.661Z</time></trkpt><trkpt lat="44.6633107" lon="9.7338693"><ele>793.3333333333333</ele><time>2026-05-03T12:22:02.662Z</time></trkpt><trkpt lat="44.6631669" lon="9.7338699"><ele>790.0</ele><time>2026-05-03T12:22:03.644Z</time></trkpt><trkpt lat="44.6628934" lon="9.7338553"><ele>788.6666666666666</ele><time>2026-05-03T12:22:04.646Z</time></trkpt><trkpt lat="44.6627046" lon="9.7337058"><ele>787.3333333333333</ele><time>2026-05-03T12:22:05.685Z</time></trkpt><trkpt lat="44.6625821" lon="9.7335305"><ele>786.0</ele><time>2026-05-03T12:22:06.654Z</time></trkpt><trkpt lat="44.6625186" lon="9.7333768"><ele>786.0</ele><time>2026-05-03T12:22:07.662Z</time></trkpt><trkpt lat="44.6626165" lon="9.7332412"><ele>786.0</ele><time>2026-05-03T12:22:09.695Z</time></trkpt><trkpt lat="44.6627229" lon="9.7330795"><ele>786.0</ele><time>2026-05-03T12:22:10.671Z</time></trkpt><trkpt lat="44.6626661" lon="9.7327358"><ele>784.25</ele><time>2026-05-03T12:22:11.671Z</time></trkpt><trkpt lat="44.6626171" lon="9.7325154"><ele>782.5</ele><time>2026-05-03T12:22:12.67Z</time></trkpt><trkpt lat="44.6625946" lon="9.7323293"><ele>780.75</ele><time>2026-05-03T12:22:13.664Z</time></trkpt><trkpt lat="44.6625149" lon="9.7321583"><ele>779.0</ele><time>2026-05-03T12:22:14.696Z</time></trkpt><trkpt lat="44.6624226" lon="9.7319729"><ele>777.5</ele><time>2026-05-03T12:22:15.693Z</time></trkpt><trkpt lat="44.6623271" lon="9.7317891"><ele>776.0</ele><time>2026-05-03T12:22:16.668Z</time></trkpt><trkpt lat="44.6622991" lon="9.7315949"><ele>774.5</ele><time>2026-05-03T12:22:17.667Z</time></trkpt><trkpt lat="44.6623574" lon="9.7314318"><ele>773.0</ele><time>2026-05-03T12:22:18.699Z</time></trkpt><trkpt lat="44.6624136" lon="9.7312629"><ele>773.0</ele><time>2026-05-03T12:22:19.668Z</time></trkpt><trkpt lat="44.6624458" lon="9.7311188"><ele>773.0</ele><time>2026-05-03T12:22:20.663Z</time></trkpt><trkpt lat="44.662427" lon="9.7309286"><ele>773.0</ele><time>2026-05-03T12:22:21.668Z</time></trkpt><trkpt lat="44.6624621" lon="9.7307288"><ele>773.0</ele><time>2026-05-03T12:22:22.67Z</time></trkpt><trkpt lat="44.6623941" lon="9.7305944"><ele>773.25</ele><time>2026-05-03T12:22:23.693Z</time></trkpt><trkpt lat="44.6622836" lon="9.7305278"><ele>773.5</ele><time>2026-05-03T12:22:24.687Z</time></trkpt><trkpt lat="44.662127" lon="9.7305308"><ele>773.75</ele><time>2026-05-03T12:22:25.682Z</time></trkpt><trkpt lat="44.661961" lon="9.7305965"><ele>774.0</ele><time>2026-05-03T12:22:26.651Z</time></trkpt><trkpt lat="44.6617034" lon="9.7308115"><ele>769.0</ele><time>2026-05-03T12:22:27.657Z</time></trkpt><trkpt lat="44.6614566" lon="9.7310288"><ele>764.0</ele><time>2026-05-03T12:22:28.661Z</time></trkpt><trkpt lat="44.6612743" lon="9.7311555"><ele>758.3333333333333</ele><time>2026-05-03T12:22:29.667Z</time></trkpt><trkpt lat="44.6610672" lon="9.7312089"><ele>752.6666666666666</ele><time>2026-05-03T12:22:30.668Z</time></trkpt><trkpt lat="44.6609275" lon="9.7312346"><ele>747.0</ele><time>2026-05-03T12:22:31.671Z</time></trkpt><trkpt lat="44.6608047" lon="9.7312268"><ele>747.0</ele><time>2026-05-03T12:22:32.665Z</time></trkpt><trkpt lat="44.6606394" lon="9.7312003"><ele>747.0</ele><time>2026-05-03T12:22:33.666Z</time></trkpt><trkpt lat="44.6604617" lon="9.7311874"><ele>747.0</ele><time>2026-05-03T12:22:34.703Z</time></trkpt><trkpt lat="44.6602388" lon="9.7310775"><ele>746.5</ele><time>2026-05-03T12:22:35.702Z</time></trkpt><trkpt lat="44.6601508" lon="9.730916"><ele>746.0</ele><time>2026-05-03T12:22:36.67Z</time></trkpt><trkpt lat="44.660121" lon="9.7308255"><ele>745.5</ele><time>2026-05-03T12:22:37.698Z</time></trkpt><trkpt lat="44.6600199" lon="9.7307786"><ele>745.0</ele><time>2026-05-03T12:22:38.702Z</time></trkpt><trkpt lat="44.6598494" lon="9.7307038"><ele>745.0</ele><time>2026-05-03T12:22:39.696Z</time></trkpt><trkpt lat="44.6597194" lon="9.7307597"><ele>745.0</ele><time>2026-05-03T12:22:40.694Z</time></trkpt><trkpt lat="44.659606" lon="9.730787"><ele>745.0</ele><time>2026-05-03T12:22:41.709Z</time></trkpt><trkpt lat="44.6596726" lon="9.7308435"><ele>745.0</ele><time>2026-05-03T12:22:42.68Z</time></trkpt><trkpt lat="44.6596483" lon="9.730963"><ele>745.0</ele><time>2026-05-03T12:22:43.672Z</time></trkpt><trkpt lat="44.6596503" lon="9.7311407"><ele>744.0</ele><time>2026-05-03T12:22:44.682Z</time></trkpt><trkpt lat="44.6596497" lon="9.7312596"><ele>743.0</ele><time>2026-05-03T12:22:45.679Z</time></trkpt><trkpt lat="44.6597123" lon="9.7313302"><ele>742.0</ele><time>2026-05-03T12:22:46.683Z</time></trkpt><trkpt lat="44.6598303" lon="9.7314209"><ele>741.0</ele><time>2026-05-03T12:22:47.676Z</time></trkpt><trkpt lat="44.6599154" lon="9.7315367"><ele>740.0</ele><time>2026-05-03T12:22:48.683Z</time></trkpt><trkpt lat="44.6599325" lon="9.7316707"><ele>740.0</ele><time>2026-05-03T12:22:49.675Z</time></trkpt><trkpt lat="44.6599164" lon="9.7318011"><ele>740.0</ele><time>2026-05-03T12:22:50.672Z</time></trkpt><trkpt lat="44.6598775" lon="9.7319087"><ele>740.0</ele><time>2026-05-03T12:22:51.68Z</time></trkpt><trkpt lat="44.6598653" lon="9.732025"><ele>740.0</ele><time>2026-05-03T12:22:52.676Z</time></trkpt><trkpt lat="44.6597814" lon="9.7321984"><ele>740.0</ele><time>2026-05-03T12:22:53.675Z</time></trkpt><trkpt lat="44.6597064" lon="9.7323872"><ele>738.3333333333333</ele><time>2026-05-03T12:22:54.67Z</time></trkpt><trkpt lat="44.6596261" lon="9.7326385"><ele>736.6666666666666</ele><time>2026-05-03T12:22:55.678Z</time></trkpt><trkpt lat="44.6595053" lon="9.7327642"><ele>735.0</ele><time>2026-05-03T12:22:56.674Z</time></trkpt><trkpt lat="44.659344" lon="9.7328288"><ele>731.3333333333334</ele><time>2026-05-03T12:22:57.67Z</time></trkpt><trkpt lat="44.6591329" lon="9.7328767"><ele>727.6666666666667</ele><time>2026-05-03T12:22:58.666Z</time></trkpt><trkpt lat="44.6589532" lon="9.7327775"><ele>724.0</ele><time>2026-05-03T12:22:59.661Z</time></trkpt><trkpt lat="44.6587302" lon="9.7327899"><ele>722.75</ele><time>2026-05-03T12:23:00.698Z</time></trkpt><trkpt lat="44.6585804" lon="9.7327633"><ele>721.5</ele><time>2026-05-03T12:23:01.718Z</time></trkpt><trkpt lat="44.6584274" lon="9.7327519"><ele>720.25</ele><time>2026-05-03T12:23:02.718Z</time></trkpt><trkpt lat="44.658333" lon="9.7327416"><ele>719.0</ele><time>2026-05-03T12:23:03.69Z</time></trkpt><trkpt lat="44.6582374" lon="9.7327822"><ele>719.0</ele><time>2026-05-03T12:23:04.688Z</time></trkpt><trkpt lat="44.6582355" lon="9.7330128"><ele>719.0</ele><time>2026-05-03T12:23:05.682Z</time></trkpt><trkpt lat="44.6582341" lon="9.7332382"><ele>719.0</ele><time>2026-05-03T12:23:06.688Z</time></trkpt><trkpt lat="44.6582559" lon="9.7334587"><ele>716.25</ele><time>2026-05-03T12:23:07.674Z</time></trkpt><trkpt lat="44.6582608" lon="9.7336341"><ele>713.5</ele><time>2026-05-03T12:23:08.683Z</time></trkpt><trkpt lat="44.6582223" lon="9.7337931"><ele>710.75</ele><time>2026-05-03T12:23:09.682Z</time></trkpt><trkpt lat="44.6581419" lon="9.7338847"><ele>708.0</ele><time>2026-05-03T12:23:10.671Z</time></trkpt><trkpt lat="44.6580517" lon="9.7339664"><ele>708.0</ele><time>2026-05-03T12:23:11.671Z</time></trkpt><trkpt lat="44.657848" lon="9.7337082"><ele>708.0</ele><time>2026-05-03T12:23:13.693Z</time></trkpt><trkpt lat="44.6577416" lon="9.7334759"><ele>707.5</ele><time>2026-05-03T12:23:14.694Z</time></trkpt><trkpt lat="44.6576374" lon="9.7332447"><ele>707.0</ele><time>2026-05-03T12:23:15.698Z</time></trkpt><trkpt lat="44.6575835" lon="9.7330967"><ele>706.5</ele><time>2026-05-03T12:23:16.692Z</time></trkpt><trkpt lat="44.6575251" lon="9.7329362"><ele>706.0</ele><time>2026-05-03T12:23:17.705Z</time></trkpt><trkpt lat="44.6574518" lon="9.732814"><ele>706.0</ele><time>2026-05-03T12:23:18.724Z</time></trkpt><trkpt lat="44.657374" lon="9.732698"><ele>706.0</ele><time>2026-05-03T12:23:19.672Z</time></trkpt><trkpt lat="44.6572931" lon="9.7326503"><ele>706.0</ele><time>2026-05-03T12:23:20.672Z</time></trkpt><trkpt lat="44.6572243" lon="9.7326498"><ele>706.0</ele><time>2026-05-03T12:23:21.663Z</time></trkpt><trkpt lat="44.6571994" lon="9.7327653"><ele>706.0</ele><time>2026-05-03T12:23:22.67Z</time></trkpt><trkpt lat="44.657154" lon="9.7328478"><ele>706.0</ele><time>2026-05-03T12:23:23.663Z</time></trkpt><trkpt lat="44.6571696" lon="9.7330766"><ele>706.0</ele><time>2026-05-03T12:23:24.674Z</time></trkpt><trkpt lat="44.6571346" lon="9.7332744"><ele>706.0</ele><time>2026-05-03T12:23:25.663Z</time></trkpt><trkpt lat="44.6570832" lon="9.7335118"><ele>706.0</ele><time>2026-05-03T12:23:26.672Z</time></trkpt><trkpt lat="44.6570402" lon="9.7337863"><ele>704.6666666666667</ele><time>2026-05-03T12:23:27.681Z</time></trkpt><trkpt lat="44.6570383" lon="9.7340676"><ele>703.3333333333334</ele><time>2026-05-03T12:23:28.689Z</time></trkpt><trkpt lat="44.6569993" lon="9.734289"><ele>702.0</ele><time>2026-05-03T12:23:29.689Z</time></trkpt><trkpt lat="44.6569268" lon="9.7345546"><ele>699.25</ele><time>2026-05-03T12:23:30.693Z</time></trkpt><trkpt lat="44.6568756" lon="9.7346984"><ele>696.5</ele><time>2026-05-03T12:23:31.711Z</time></trkpt><trkpt lat="44.6567769" lon="9.7347859"><ele>693.75</ele><time>2026-05-03T12:23:32.693Z</time></trkpt><trkpt lat="44.6566732" lon="9.7348652"><ele>691.0</ele><time>2026-05-03T12:23:33.699Z</time></trkpt><trkpt lat="44.6565443" lon="9.7348811"><ele>691.0</ele><time>2026-05-03T12:23:34.685Z</time></trkpt><trkpt lat="44.6563886" lon="9.7349214"><ele>691.0</ele><time>2026-05-03T12:23:35.699Z</time></trkpt><trkpt lat="44.6562516" lon="9.7348844"><ele>691.0</ele><time>2026-05-03T12:23:36.698Z</time></trkpt><trkpt lat="44.6561254" lon="9.7348154"><ele>691.0</ele><time>2026-05-03T12:23:37.687Z</time></trkpt><trkpt lat="44.6559546" lon="9.7348314"><ele>689.0</ele><time>2026-05-03T12:23:38.683Z</time></trkpt><trkpt lat="44.6558149" lon="9.7347846"><ele>687.0</ele><time>2026-05-03T12:23:39.721Z</time></trkpt><trkpt lat="44.6557137" lon="9.7347905"><ele>685.0</ele><time>2026-05-03T12:23:40.705Z</time></trkpt><trkpt lat="44.6555481" lon="9.7348419"><ele>683.0</ele><time>2026-05-03T12:23:41.711Z</time></trkpt><trkpt lat="44.6553841" lon="9.7348979"><ele>681.0</ele><time>2026-05-03T12:23:42.698Z</time></trkpt><trkpt lat="44.6552161" lon="9.7349469"><ele>679.0</ele><time>2026-05-03T12:23:43.701Z</time></trkpt><trkpt lat="44.6550559" lon="9.7349741"><ele>677.0</ele><time>2026-05-03T12:23:44.696Z</time></trkpt><trkpt lat="44.6548809" lon="9.7349742"><ele>677.0</ele><time>2026-05-03T12:23:45.697Z</time></trkpt><trkpt lat="44.6547994" lon="9.7349119"><ele>677.0</ele><time>2026-05-03T12:23:46.675Z</time></trkpt><trkpt lat="44.6547191" lon="9.734868"><ele>677.0</ele><time>2026-05-03T12:23:47.733Z</time></trkpt><trkpt lat="44.6547278" lon="9.7347517"><ele>677.0</ele><time>2026-05-03T12:23:48.68Z</time></trkpt><trkpt lat="44.654768" lon="9.7346419"><ele>677.0</ele><time>2026-05-03T12:23:49.676Z</time></trkpt><trkpt lat="44.6548133" lon="9.7344825"><ele>677.25</ele><time>2026-05-03T12:23:50.672Z</time></trkpt><trkpt lat="44.654913" lon="9.7343101"><ele>677.5</ele><time>2026-05-03T12:23:51.673Z</time></trkpt><trkpt lat="44.6550071" lon="9.7341374"><ele>677.75</ele><time>2026-05-03T12:23:52.703Z</time></trkpt><trkpt lat="44.6550039" lon="9.7339935"><ele>678.0</ele><time>2026-05-03T12:23:53.734Z</time></trkpt><trkpt lat="44.6549371" lon="9.7338811"><ele>678.0</ele><time>2026-05-03T12:23:54.702Z</time></trkpt><trkpt lat="44.654866" lon="9.7337898"><ele>678.0</ele><time>2026-05-03T12:23:55.704Z</time></trkpt><trkpt lat="44.6547857" lon="9.7337237"><ele>678.0</ele><time>2026-05-03T12:23:56.703Z</time></trkpt><trkpt lat="44.6547051" lon="9.7336754"><ele>678.0</ele><time>2026-05-03T12:23:57.683Z</time></trkpt><trkpt lat="44.654589" lon="9.7337297"><ele>678.0</ele><time>2026-05-03T12:23:58.687Z</time></trkpt><trkpt lat="44.6544602" lon="9.7337996"><ele>677.0</ele><time>2026-05-03T12:23:59.678Z</time></trkpt><trkpt lat="44.6543164" lon="9.733878"><ele>676.0</ele><time>2026-05-03T12:24:00.677Z</time></trkpt><trkpt lat="44.6541711" lon="9.7339554"><ele>675.0</ele><time>2026-05-03T12:24:01.689Z</time></trkpt><trkpt lat="44.6540035" lon="9.7340991"><ele>675.0</ele><time>2026-05-03T12:24:02.683Z</time></trkpt><trkpt lat="44.6538396" lon="9.7342605"><ele>675.0</ele><time>2026-05-03T12:24:03.677Z</time></trkpt><trkpt lat="44.653652" lon="9.7343714"><ele>675.0</ele><time>2026-05-03T12:24:04.676Z</time></trkpt><trkpt lat="44.6534304" lon="9.7343953"><ele>675.3333333333334</ele><time>2026-05-03T12:24:05.682Z</time></trkpt><trkpt lat="44.653267" lon="9.7344184"><ele>675.6666666666667</ele><time>2026-05-03T12:24:06.692Z</time></trkpt><trkpt lat="44.6531147" lon="9.7344528"><ele>676.0</ele><time>2026-05-03T12:24:07.689Z</time></trkpt><trkpt lat="44.6529545" lon="9.7345792"><ele>676.0</ele><time>2026-05-03T12:24:08.694Z</time></trkpt><trkpt lat="44.6527901" lon="9.7347535"><ele>676.0</ele><time>2026-05-03T12:24:09.697Z</time></trkpt><trkpt lat="44.6526295" lon="9.7349319"><ele>676.0</ele><time>2026-05-03T12:24:10.691Z</time></trkpt><trkpt lat="44.6525071" lon="9.7351412"><ele>675.3333333333334</ele><time>2026-05-03T12:24:11.698Z</time></trkpt><trkpt lat="44.652328" lon="9.7352752"><ele>674.6666666666666</ele><time>2026-05-03T12:24:12.702Z</time></trkpt><trkpt lat="44.6521236" lon="9.7354519"><ele>674.0</ele><time>2026-05-03T12:24:13.703Z</time></trkpt><trkpt lat="44.6519503" lon="9.7356105"><ele>677.0</ele><time>2026-05-03T12:24:14.699Z</time></trkpt><trkpt lat="44.6517783" lon="9.7357455"><ele>680.0</ele><time>2026-05-03T12:24:15.701Z</time></trkpt><trkpt lat="44.6516347" lon="9.735896"><ele>683.0</ele><time>2026-05-03T12:24:16.698Z</time></trkpt><trkpt lat="44.6515087" lon="9.7360097"><ele>683.3333333333333</ele><time>2026-05-03T12:24:17.697Z</time></trkpt><trkpt lat="44.6513929" lon="9.7361781"><ele>683.6666666666666</ele><time>2026-05-03T12:24:18.695Z</time></trkpt><trkpt lat="44.6512426" lon="9.7362932"><ele>684.0</ele><time>2026-05-03T12:24:19.695Z</time></trkpt><trkpt lat="44.6510518" lon="9.7363836"><ele>684.0</ele><time>2026-05-03T12:24:20.693Z</time></trkpt><trkpt lat="44.6509143" lon="9.736431"><ele>684.0</ele><time>2026-05-03T12:24:21.689Z</time></trkpt><trkpt lat="44.6507793" lon="9.7364039"><ele>684.0</ele><time>2026-05-03T12:24:22.676Z</time></trkpt><trkpt lat="44.6506204" lon="9.7364023"><ele>684.0</ele><time>2026-05-03T12:24:23.681Z</time></trkpt><trkpt lat="44.650472" lon="9.7364767"><ele>684.0</ele><time>2026-05-03T12:24:24.67Z</time></trkpt><trkpt lat="44.6503534" lon="9.7365481"><ele>684.0</ele><time>2026-05-03T12:24:25.68Z</time></trkpt><trkpt lat="44.6502814" lon="9.7366052"><ele>684.0</ele><time>2026-05-03T12:24:26.682Z</time></trkpt><trkpt lat="44.6501809" lon="9.736617"><ele>684.0</ele><time>2026-05-03T12:24:27.683Z</time></trkpt><trkpt lat="44.6500489" lon="9.7365224"><ele>682.3333333333334</ele><time>2026-05-03T12:24:28.735Z</time></trkpt><trkpt lat="44.6499569" lon="9.7363868"><ele>680.6666666666667</ele><time>2026-05-03T12:24:29.725Z</time></trkpt><trkpt lat="44.6498852" lon="9.7362036"><ele>679.0</ele><time>2026-05-03T12:24:30.702Z</time></trkpt><trkpt lat="44.6497311" lon="9.7360183"><ele>680.3333333333334</ele><time>2026-05-03T12:24:31.679Z</time></trkpt><trkpt lat="44.649573" lon="9.7358772"><ele>681.6666666666666</ele><time>2026-05-03T12:24:32.71Z</time></trkpt><trkpt lat="44.6494707" lon="9.7357033"><ele>683.0</ele><time>2026-05-03T12:24:33.754Z</time></trkpt><trkpt lat="44.6493558" lon="9.7354818"><ele>683.0</ele><time>2026-05-03T12:24:34.743Z</time></trkpt><trkpt lat="44.6492593" lon="9.7353186"><ele>683.0</ele><time>2026-05-03T12:24:35.745Z</time></trkpt><trkpt lat="44.6491462" lon="9.7351908"><ele>683.0</ele><time>2026-05-03T12:24:36.735Z</time></trkpt><trkpt lat="44.6490355" lon="9.7350647"><ele>683.0</ele><time>2026-05-03T12:24:37.717Z</time></trkpt><trkpt lat="44.6489694" lon="9.7349835"><ele>683.0</ele><time>2026-05-03T12:24:38.709Z</time></trkpt><trkpt lat="44.6488996" lon="9.7349878"><ele>683.0</ele><time>2026-05-03T12:24:39.675Z</time></trkpt><trkpt lat="44.6486634" lon="9.735175"><ele>683.0</ele><time>2026-05-03T12:24:40.673Z</time></trkpt><trkpt lat="44.6485066" lon="9.7352924"><ele>683.0</ele><time>2026-05-03T12:24:41.671Z</time></trkpt><trkpt lat="44.648355" lon="9.7353621"><ele>683.0</ele><time>2026-05-03T12:24:42.674Z</time></trkpt><trkpt lat="44.6481695" lon="9.7353661"><ele>683.0</ele><time>2026-05-03T12:24:43.71Z</time></trkpt><trkpt lat="44.6479667" lon="9.735398"><ele>684.3333333333333</ele><time>2026-05-03T12:24:44.71Z</time></trkpt><trkpt lat="44.6477702" lon="9.735456"><ele>685.6666666666666</ele><time>2026-05-03T12:24:45.685Z</time></trkpt><trkpt lat="44.6475662" lon="9.7354903"><ele>687.0</ele><time>2026-05-03T12:24:46.69Z</time></trkpt><trkpt lat="44.6473332" lon="9.7355952"><ele>687.0</ele><time>2026-05-03T12:24:47.692Z</time></trkpt><trkpt lat="44.6471329" lon="9.7356763"><ele>687.0</ele><time>2026-05-03T12:24:48.695Z</time></trkpt><trkpt lat="44.646924" lon="9.7358293"><ele>687.0</ele><time>2026-05-03T12:24:49.689Z</time></trkpt><trkpt lat="44.64689" lon="9.7359473"><ele>687.75</ele><time>2026-05-03T12:24:50.686Z</time></trkpt><trkpt lat="44.6468343" lon="9.7361314"><ele>688.5</ele><time>2026-05-03T12:24:51.69Z</time></trkpt><trkpt lat="44.6467629" lon="9.736225"><ele>689.25</ele><time>2026-05-03T12:24:52.691Z</time></trkpt><trkpt lat="44.6466963" lon="9.7362104"><ele>690.0</ele><time>2026-05-03T12:24:53.688Z</time></trkpt><trkpt lat="44.6465712" lon="9.7360273"><ele>690.0</ele><time>2026-05-03T12:24:54.708Z</time></trkpt><trkpt lat="44.6464458" lon="9.7358148"><ele>690.0</ele><time>2026-05-03T12:24:55.682Z</time></trkpt><trkpt lat="44.6463135" lon="9.7356303"><ele>690.0</ele><time>2026-05-03T12:24:56.689Z</time></trkpt><trkpt lat="44.6461912" lon="9.7354978"><ele>690.0</ele><time>2026-05-03T12:24:57.685Z</time></trkpt><trkpt lat="44.6462046" lon="9.7353084"><ele>690.0</ele><time>2026-05-03T12:24:58.705Z</time></trkpt><trkpt lat="44.64622" lon="9.7350362"><ele>690.0</ele><time>2026-05-03T12:24:59.719Z</time></trkpt><trkpt lat="44.6462468" lon="9.7348119"><ele>690.3333333333334</ele><time>2026-05-03T12:25:00.681Z</time></trkpt><trkpt lat="44.6462487" lon="9.7345406"><ele>690.6666666666667</ele><time>2026-05-03T12:25:01.73Z</time></trkpt><trkpt lat="44.646136" lon="9.7343261"><ele>691.0</ele><time>2026-05-03T12:25:02.731Z</time></trkpt><trkpt lat="44.6460036" lon="9.7341504"><ele>691.0</ele><time>2026-05-03T12:25:03.729Z</time></trkpt><trkpt lat="44.6458629" lon="9.7339838"><ele>691.0</ele><time>2026-05-03T12:25:04.729Z</time></trkpt><trkpt lat="44.6457584" lon="9.7338463"><ele>691.0</ele><time>2026-05-03T12:25:05.705Z</time></trkpt><trkpt lat="44.6456003" lon="9.7337551"><ele>691.0</ele><time>2026-05-03T12:25:06.704Z</time></trkpt><trkpt lat="44.6454691" lon="9.7337412"><ele>691.0</ele><time>2026-05-03T12:25:07.732Z</time></trkpt><trkpt lat="44.6453679" lon="9.7337533"><ele>691.0</ele><time>2026-05-03T12:25:08.704Z</time></trkpt><trkpt lat="44.6451431" lon="9.7338493"><ele>689.6666666666667</ele><time>2026-05-03T12:25:09.705Z</time></trkpt><trkpt lat="44.6449868" lon="9.7340124"><ele>688.3333333333334</ele><time>2026-05-03T12:25:10.687Z</time></trkpt><trkpt lat="44.6448672" lon="9.734263"><ele>687.0</ele><time>2026-05-03T12:25:11.682Z</time></trkpt><trkpt lat="44.6447252" lon="9.7344975"><ele>683.3333333333334</ele><time>2026-05-03T12:25:12.683Z</time></trkpt><trkpt lat="44.6446125" lon="9.73475"><ele>679.6666666666667</ele><time>2026-05-03T12:25:13.676Z</time></trkpt><trkpt lat="44.6445131" lon="9.7349829"><ele>676.0</ele><time>2026-05-03T12:25:14.683Z</time></trkpt><trkpt lat="44.6443675" lon="9.7352037"><ele>673.0</ele><time>2026-05-03T12:25:15.68Z</time></trkpt><trkpt lat="44.6443143" lon="9.7353886"><ele>670.0</ele><time>2026-05-03T12:25:16.683Z</time></trkpt><trkpt lat="44.6442016" lon="9.7355531"><ele>667.0</ele><time>2026-05-03T12:25:17.694Z</time></trkpt><trkpt lat="44.6440752" lon="9.7357249"><ele>667.0</ele><time>2026-05-03T12:25:18.688Z</time></trkpt><trkpt lat="44.6439481" lon="9.7358531"><ele>667.0</ele><time>2026-05-03T12:25:19.688Z</time></trkpt><trkpt lat="44.6438199" lon="9.735979"><ele>667.0</ele><time>2026-05-03T12:25:20.69Z</time></trkpt><trkpt lat="44.643715" lon="9.736102"><ele>667.0</ele><time>2026-05-03T12:25:21.699Z</time></trkpt><trkpt lat="44.6436378" lon="9.7362059"><ele>665.4000000000001</ele><time>2026-05-03T12:25:22.698Z</time></trkpt><trkpt lat="44.6435688" lon="9.7363429"><ele>663.8000000000001</ele><time>2026-05-03T12:25:23.703Z</time></trkpt><trkpt lat="44.6434815" lon="9.7364197"><ele>662.2</ele><time>2026-05-03T12:25:24.699Z</time></trkpt><trkpt lat="44.6434055" lon="9.7364664"><ele>660.6</ele><time>2026-05-03T12:25:25.698Z</time></trkpt><trkpt lat="44.6433288" lon="9.7364872"><ele>659.0</ele><time>2026-05-03T12:25:26.706Z</time></trkpt><trkpt lat="44.6432379" lon="9.736473"><ele>659.0</ele><time>2026-05-03T12:25:27.701Z</time></trkpt><trkpt lat="44.6431448" lon="9.7364061"><ele>659.0</ele><time>2026-05-03T12:25:28.697Z</time></trkpt><trkpt lat="44.6430824" lon="9.7363013"><ele>659.0</ele><time>2026-05-03T12:25:29.735Z</time></trkpt><trkpt lat="44.6430336" lon="9.736195"><ele>659.0</ele><time>2026-05-03T12:25:30.727Z</time></trkpt><trkpt lat="44.6429625" lon="9.7360864"><ele>659.0</ele><time>2026-05-03T12:25:31.721Z</time></trkpt><trkpt lat="44.6428861" lon="9.7359632"><ele>659.3333333333333</ele><time>2026-05-03T12:25:32.728Z</time></trkpt><trkpt lat="44.6427844" lon="9.7358518"><ele>659.6666666666666</ele><time>2026-05-03T12:25:33.71Z</time></trkpt><trkpt lat="44.6426402" lon="9.7357391"><ele>660.0</ele><time>2026-05-03T12:25:34.701Z</time></trkpt><trkpt lat="44.6424999" lon="9.7356157"><ele>660.0</ele><time>2026-05-03T12:25:35.722Z</time></trkpt><trkpt lat="44.6423741" lon="9.7355085"><ele>660.0</ele><time>2026-05-03T12:25:36.724Z</time></trkpt><trkpt lat="44.6422808" lon="9.7354195"><ele>660.0</ele><time>2026-05-03T12:25:37.69Z</time></trkpt><trkpt lat="44.6422048" lon="9.7353585"><ele>660.0</ele><time>2026-05-03T12:25:38.708Z</time></trkpt><trkpt lat="44.6421281" lon="9.7355496"><ele>660.0</ele><time>2026-05-03T12:25:40.679Z</time></trkpt><trkpt lat="44.6421208" lon="9.7358126"><ele>660.0</ele><time>2026-05-03T12:25:41.687Z</time></trkpt><trkpt lat="44.6420357" lon="9.7360487"><ele>660.0</ele><time>2026-05-03T12:25:42.689Z</time></trkpt><trkpt lat="44.6419315" lon="9.7362771"><ele>659.6666666666666</ele><time>2026-05-03T12:25:43.695Z</time></trkpt><trkpt lat="44.6418629" lon="9.7365382"><ele>659.3333333333333</ele><time>2026-05-03T12:25:44.69Z</time></trkpt><trkpt lat="44.6417383" lon="9.7367743"><ele>659.0</ele><time>2026-05-03T12:25:45.679Z</time></trkpt><trkpt lat="44.6415258" lon="9.7369303"><ele>656.0</ele><time>2026-05-03T12:25:46.684Z</time></trkpt><trkpt lat="44.6414111" lon="9.7370944"><ele>653.0</ele><time>2026-05-03T12:25:47.69Z</time></trkpt><trkpt lat="44.6413253" lon="9.7372477"><ele>650.0</ele><time>2026-05-03T12:25:48.693Z</time></trkpt><trkpt lat="44.641239" lon="9.7373726"><ele>647.0</ele><time>2026-05-03T12:25:49.686Z</time></trkpt><trkpt lat="44.6411923" lon="9.7375783"><ele>648.0</ele><time>2026-05-03T12:25:50.683Z</time></trkpt><trkpt lat="44.6410924" lon="9.737871"><ele>649.0</ele><time>2026-05-03T12:25:51.688Z</time></trkpt><trkpt lat="44.640991" lon="9.7381145"><ele>650.0</ele><time>2026-05-03T12:25:52.684Z</time></trkpt><trkpt lat="44.6408819" lon="9.7382671"><ele>650.0</ele><time>2026-05-03T12:25:53.689Z</time></trkpt><trkpt lat="44.6408223" lon="9.7384932"><ele>650.0</ele><time>2026-05-03T12:25:54.683Z</time></trkpt><trkpt lat="44.6406995" lon="9.7385655"><ele>650.0</ele><time>2026-05-03T12:25:55.688Z</time></trkpt><trkpt lat="44.6405868" lon="9.7386587"><ele>650.0</ele><time>2026-05-03T12:25:56.689Z</time></trkpt><trkpt lat="44.640452" lon="9.7387814"><ele>648.6</ele><time>2026-05-03T12:25:57.689Z</time></trkpt><trkpt lat="44.6403825" lon="9.7388872"><ele>647.2</ele><time>2026-05-03T12:25:58.696Z</time></trkpt><trkpt lat="44.6403194" lon="9.7390402"><ele>645.8</ele><time>2026-05-03T12:25:59.686Z</time></trkpt><trkpt lat="44.6402471" lon="9.7390921"><ele>644.4</ele><time>2026-05-03T12:26:00.684Z</time></trkpt><trkpt lat="44.6401482" lon="9.7390678"><ele>643.0</ele><time>2026-05-03T12:26:01.687Z</time></trkpt><trkpt lat="44.6400586" lon="9.7389302"><ele>643.0</ele><time>2026-05-03T12:26:02.716Z</time></trkpt><trkpt lat="44.6399619" lon="9.7387566"><ele>643.0</ele><time>2026-05-03T12:26:03.721Z</time></trkpt><trkpt lat="44.6398788" lon="9.7385659"><ele>643.0</ele><time>2026-05-03T12:26:04.71Z</time></trkpt><trkpt lat="44.6397974" lon="9.7383528"><ele>644.25</ele><time>2026-05-03T12:26:05.711Z</time></trkpt><trkpt lat="44.639739" lon="9.7381472"><ele>645.5</ele><time>2026-05-03T12:26:06.708Z</time></trkpt><trkpt lat="44.6396883" lon="9.7379534"><ele>646.75</ele><time>2026-05-03T12:26:07.712Z</time></trkpt><trkpt lat="44.6395951" lon="9.7378273"><ele>648.0</ele><time>2026-05-03T12:26:08.723Z</time></trkpt><trkpt lat="44.639515" lon="9.7376889"><ele>644.5</ele><time>2026-05-03T12:26:09.723Z</time></trkpt><trkpt lat="44.6394219" lon="9.7375326"><ele>641.0</ele><time>2026-05-03T12:26:10.718Z</time></trkpt><trkpt lat="44.6393566" lon="9.7373755"><ele>637.5</ele><time>2026-05-03T12:26:11.719Z</time></trkpt><trkpt lat="44.6393257" lon="9.7371858"><ele>634.0</ele><time>2026-05-03T12:26:12.722Z</time></trkpt><trkpt lat="44.6393089" lon="9.737"><ele>634.5</ele><time>2026-05-03T12:26:13.744Z</time></trkpt><trkpt lat="44.6392773" lon="9.7368"><ele>635.0</ele><time>2026-05-03T12:26:14.729Z</time></trkpt><trkpt lat="44.6392633" lon="9.7366454"><ele>635.5</ele><time>2026-05-03T12:26:15.729Z</time></trkpt><trkpt lat="44.6391544" lon="9.7365098"><ele>636.0</ele><time>2026-05-03T12:26:17.719Z</time></trkpt><trkpt lat="44.6390702" lon="9.7364381"><ele>636.0</ele><time>2026-05-03T12:26:19.712Z</time></trkpt><trkpt lat="44.6390551" lon="9.7363513"><ele>636.0</ele><time>2026-05-03T12:27:09.715Z</time></trkpt><trkpt lat="44.6389977" lon="9.7361975"><ele>636.0</ele><time>2026-05-03T12:27:11.707Z</time></trkpt><trkpt lat="44.6389135" lon="9.7360939"><ele>636.0</ele><time>2026-05-03T12:27:12.708Z</time></trkpt><trkpt lat="44.6388169" lon="9.7359893"><ele>636.0</ele><time>2026-05-03T12:27:13.711Z</time></trkpt><trkpt lat="44.6386685" lon="9.7358744"><ele>634.75</ele><time>2026-05-03T12:27:14.717Z</time></trkpt><trkpt lat="44.6385365" lon="9.7357951"><ele>633.5</ele><time>2026-05-03T12:27:15.699Z</time></trkpt><trkpt lat="44.6384143" lon="9.7357255"><ele>632.25</ele><time>2026-05-03T12:27:16.691Z</time></trkpt><trkpt lat="44.6382709" lon="9.7356732"><ele>631.0</ele><time>2026-05-03T12:27:17.707Z</time></trkpt><trkpt lat="44.6381407" lon="9.7356268"><ele>631.0</ele><time>2026-05-03T12:27:18.712Z</time></trkpt><trkpt lat="44.6380196" lon="9.7355809"><ele>631.0</ele><time>2026-05-03T12:27:19.714Z</time></trkpt><trkpt lat="44.6379073" lon="9.7355216"><ele>631.0</ele><time>2026-05-03T12:27:20.713Z</time></trkpt><trkpt lat="44.6377918" lon="9.7354489"><ele>631.0</ele><time>2026-05-03T12:27:21.724Z</time></trkpt><trkpt lat="44.6377031" lon="9.7353071"><ele>630.4</ele><time>2026-05-03T12:27:22.722Z</time></trkpt><trkpt lat="44.6376357" lon="9.7351736"><ele>629.8</ele><time>2026-05-03T12:27:23.717Z</time></trkpt><trkpt lat="44.6375663" lon="9.7350443"><ele>629.1999999999999</ele><time>2026-05-03T12:27:24.724Z</time></trkpt><trkpt lat="44.6374923" lon="9.734936"><ele>628.6</ele><time>2026-05-03T12:27:25.695Z</time></trkpt><trkpt lat="44.637435" lon="9.734824"><ele>628.0</ele><time>2026-05-03T12:27:26.707Z</time></trkpt><trkpt lat="44.6373699" lon="9.7347527"><ele>628.0</ele><time>2026-05-03T12:27:27.702Z</time></trkpt><trkpt lat="44.637268" lon="9.7346861"><ele>628.0</ele><time>2026-05-03T12:27:28.703Z</time></trkpt><trkpt lat="44.637151" lon="9.7346013"><ele>628.0</ele><time>2026-05-03T12:27:29.699Z</time></trkpt><trkpt lat="44.6370279" lon="9.7344909"><ele>628.0</ele><time>2026-05-03T12:27:30.722Z</time></trkpt><trkpt lat="44.6369772" lon="9.7343356"><ele>627.0</ele><time>2026-05-03T12:27:31.725Z</time></trkpt><trkpt lat="44.6369187" lon="9.7341683"><ele>626.0</ele><time>2026-05-03T12:27:32.72Z</time></trkpt><trkpt lat="44.6368254" lon="9.7340422"><ele>625.0</ele><time>2026-05-03T12:27:33.69Z</time></trkpt><trkpt lat="44.6367427" lon="9.7339317"><ele>624.0</ele><time>2026-05-03T12:27:34.687Z</time></trkpt><trkpt lat="44.6366706" lon="9.7338632"><ele>624.0</ele><time>2026-05-03T12:27:35.692Z</time></trkpt><trkpt lat="44.6365415" lon="9.7337983"><ele>624.0</ele><time>2026-05-03T12:27:37.685Z</time></trkpt><trkpt lat="44.6364568" lon="9.7337415"><ele>624.0</ele><time>2026-05-03T12:27:38.672Z</time></trkpt><trkpt lat="44.6363371" lon="9.7336528"><ele>624.0</ele><time>2026-05-03T12:27:39.686Z</time></trkpt><trkpt lat="44.6362307" lon="9.7335216"><ele>622.6666666666666</ele><time>2026-05-03T12:27:40.714Z</time></trkpt><trkpt lat="44.6361026" lon="9.7333558"><ele>621.3333333333333</ele><time>2026-05-03T12:27:41.726Z</time></trkpt><trkpt lat="44.6359388" lon="9.7332736"><ele>620.0</ele><time>2026-05-03T12:27:42.722Z</time></trkpt><trkpt lat="44.6358136" lon="9.7331776"><ele>620.0</ele><time>2026-05-03T12:27:43.718Z</time></trkpt><trkpt lat="44.6356969" lon="9.7330563"><ele>620.0</ele><time>2026-05-03T12:27:44.717Z</time></trkpt><trkpt lat="44.6356121" lon="9.7329448"><ele>620.0</ele><time>2026-05-03T12:27:45.717Z</time></trkpt><trkpt lat="44.6355374" lon="9.7329163"><ele>620.0</ele><time>2026-05-03T12:27:46.699Z</time></trkpt><trkpt lat="44.6353921" lon="9.7329445"><ele>617.5</ele><time>2026-05-03T12:27:47.692Z</time></trkpt><trkpt lat="44.6352673" lon="9.7329988"><ele>615.0</ele><time>2026-05-03T12:27:48.697Z</time></trkpt><trkpt lat="44.6351395" lon="9.7329864"><ele>612.5</ele><time>2026-05-03T12:27:49.698Z</time></trkpt><trkpt lat="44.6350164" lon="9.7329416"><ele>610.0</ele><time>2026-05-03T12:27:50.695Z</time></trkpt><trkpt lat="44.6348928" lon="9.7328461"><ele>610.75</ele><time>2026-05-03T12:27:51.732Z</time></trkpt><trkpt lat="44.6348517" lon="9.7326705"><ele>611.5</ele><time>2026-05-03T12:27:52.713Z</time></trkpt><trkpt lat="44.6348116" lon="9.7325512"><ele>612.25</ele><time>2026-05-03T12:27:53.718Z</time></trkpt><trkpt lat="44.6347905" lon="9.7323932"><ele>613.0</ele><time>2026-05-03T12:27:54.714Z</time></trkpt><trkpt lat="44.6348122" lon="9.7322258"><ele>613.0</ele><time>2026-05-03T12:27:55.697Z</time></trkpt><trkpt lat="44.6348321" lon="9.7320379"><ele>613.0</ele><time>2026-05-03T12:27:56.71Z</time></trkpt><trkpt lat="44.6348388" lon="9.7318315"><ele>613.0</ele><time>2026-05-03T12:27:57.716Z</time></trkpt><trkpt lat="44.6348258" lon="9.7316353"><ele>613.0</ele><time>2026-05-03T12:27:58.712Z</time></trkpt><trkpt lat="44.6347744" lon="9.7314476"><ele>614.0</ele><time>2026-05-03T12:27:59.719Z</time></trkpt><trkpt lat="44.6346802" lon="9.7312862"><ele>615.0</ele><time>2026-05-03T12:28:00.716Z</time></trkpt><trkpt lat="44.6345615" lon="9.7311493"><ele>616.0</ele><time>2026-05-03T12:28:01.73Z</time></trkpt><trkpt lat="44.6344323" lon="9.7310454"><ele>616.25</ele><time>2026-05-03T12:28:02.722Z</time></trkpt><trkpt lat="44.6342938" lon="9.7309283"><ele>616.5</ele><time>2026-05-03T12:28:03.687Z</time></trkpt><trkpt lat="44.634181" lon="9.7308493"><ele>616.75</ele><time>2026-05-03T12:28:04.68Z</time></trkpt><trkpt lat="44.634067" lon="9.7308943"><ele>617.0</ele><time>2026-05-03T12:28:05.681Z</time></trkpt><trkpt lat="44.6339776" lon="9.7310424"><ele>614.3333333333333</ele><time>2026-05-03T12:28:06.693Z</time></trkpt><trkpt lat="44.6338217" lon="9.7311325"><ele>611.6666666666666</ele><time>2026-05-03T12:28:07.688Z</time></trkpt><trkpt lat="44.6336943" lon="9.7312463"><ele>609.0</ele><time>2026-05-03T12:28:08.684Z</time></trkpt><trkpt lat="44.6335426" lon="9.7314491"><ele>609.0</ele><time>2026-05-03T12:28:09.683Z</time></trkpt><trkpt lat="44.6334508" lon="9.7316116"><ele>609.0</ele><time>2026-05-03T12:28:10.686Z</time></trkpt><trkpt lat="44.6333838" lon="9.7317459"><ele>609.0</ele><time>2026-05-03T12:28:11.702Z</time></trkpt><trkpt lat="44.6333187" lon="9.7318645"><ele>609.0</ele><time>2026-05-03T12:28:12.693Z</time></trkpt><trkpt lat="44.6332349" lon="9.7319458"><ele>608.3333333333334</ele><time>2026-05-03T12:28:13.694Z</time></trkpt><trkpt lat="44.6331309" lon="9.7320306"><ele>607.6666666666666</ele><time>2026-05-03T12:28:14.685Z</time></trkpt><trkpt lat="44.6330542" lon="9.7320939"><ele>607.0</ele><time>2026-05-03T12:28:15.685Z</time></trkpt><trkpt lat="44.6329807" lon="9.7321167"><ele>606.3333333333333</ele><time>2026-05-03T12:28:16.699Z</time></trkpt><trkpt lat="44.632917" lon="9.7321135"><ele>605.6666666666666</ele><time>2026-05-03T12:28:17.673Z</time></trkpt><trkpt lat="44.6328369" lon="9.7320779"><ele>605.0</ele><time>2026-05-03T12:28:18.659Z</time></trkpt><trkpt lat="44.6327512" lon="9.7320116"><ele>605.0</ele><time>2026-05-03T12:28:19.67Z</time></trkpt><trkpt lat="44.6326493" lon="9.7319074"><ele>605.0</ele><time>2026-05-03T12:28:20.679Z</time></trkpt><trkpt lat="44.6325672" lon="9.731779"><ele>605.0</ele><time>2026-05-03T12:28:21.714Z</time></trkpt><trkpt lat="44.6325057" lon="9.7316183"><ele>605.0</ele><time>2026-05-03T12:28:22.701Z</time></trkpt><trkpt lat="44.6324447" lon="9.7314268"><ele>606.3333333333333</ele><time>2026-05-03T12:28:23.701Z</time></trkpt><trkpt lat="44.6323784" lon="9.7311993"><ele>607.6666666666666</ele><time>2026-05-03T12:28:24.703Z</time></trkpt><trkpt lat="44.632313" lon="9.7310078"><ele>609.0</ele><time>2026-05-03T12:28:25.701Z</time></trkpt><trkpt lat="44.6322401" lon="9.7308111"><ele>610.0</ele><time>2026-05-03T12:28:26.71Z</time></trkpt><trkpt lat="44.6321804" lon="9.7305956"><ele>611.0</ele><time>2026-05-03T12:28:27.701Z</time></trkpt><trkpt lat="44.632115" lon="9.7304143"><ele>612.0</ele><time>2026-05-03T12:28:28.707Z</time></trkpt><trkpt lat="44.6320543" lon="9.7302246"><ele>613.0</ele><time>2026-05-03T12:28:29.709Z</time></trkpt><trkpt lat="44.6319751" lon="9.7300556"><ele>614.0</ele><time>2026-05-03T12:28:30.714Z</time></trkpt><trkpt lat="44.6318827" lon="9.7299126"><ele>615.0</ele><time>2026-05-03T12:28:31.72Z</time></trkpt><trkpt lat="44.6317963" lon="9.7297601"><ele>616.0</ele><time>2026-05-03T12:28:32.72Z</time></trkpt><trkpt lat="44.6317241" lon="9.7296337"><ele>614.8</ele><time>2026-05-03T12:28:33.707Z</time></trkpt><trkpt lat="44.6316537" lon="9.729529"><ele>613.6</ele><time>2026-05-03T12:28:34.717Z</time></trkpt><trkpt lat="44.6315974" lon="9.7294445"><ele>612.4</ele><time>2026-05-03T12:28:35.704Z</time></trkpt><trkpt lat="44.6315423" lon="9.729337"><ele>611.2</ele><time>2026-05-03T12:28:36.727Z</time></trkpt><trkpt lat="44.6314709" lon="9.7292467"><ele>610.0</ele><time>2026-05-03T12:28:37.687Z</time></trkpt><trkpt lat="44.6313769" lon="9.7292039"><ele>610.0</ele><time>2026-05-03T12:28:38.687Z</time></trkpt><trkpt lat="44.6312846" lon="9.7291671"><ele>610.0</ele><time>2026-05-03T12:28:39.692Z</time></trkpt><trkpt lat="44.6311894" lon="9.7291224"><ele>610.0</ele><time>2026-05-03T12:28:40.692Z</time></trkpt><trkpt lat="44.6310829" lon="9.7290643"><ele>610.0</ele><time>2026-05-03T12:28:41.721Z</time></trkpt><trkpt lat="44.6309634" lon="9.7289816"><ele>610.0</ele><time>2026-05-03T12:28:42.705Z</time></trkpt><trkpt lat="44.6308511" lon="9.728866"><ele>607.5</ele><time>2026-05-03T12:28:43.684Z</time></trkpt><trkpt lat="44.630802" lon="9.728687"><ele>605.0</ele><time>2026-05-03T12:28:44.686Z</time></trkpt><trkpt lat="44.6307637" lon="9.7284993"><ele>602.5</ele><time>2026-05-03T12:28:45.72Z</time></trkpt><trkpt lat="44.6306988" lon="9.7283521"><ele>600.0</ele><time>2026-05-03T12:28:46.736Z</time></trkpt><trkpt lat="44.6306951" lon="9.728162"><ele>600.0</ele><time>2026-05-03T12:28:47.722Z</time></trkpt><trkpt lat="44.6306586" lon="9.7279889"><ele>600.0</ele><time>2026-05-03T12:28:48.718Z</time></trkpt><trkpt lat="44.6306659" lon="9.7277995"><ele>600.0</ele><time>2026-05-03T12:28:49.721Z</time></trkpt><trkpt lat="44.6306303" lon="9.7275609"><ele>600.0</ele><time>2026-05-03T12:28:50.726Z</time></trkpt><trkpt lat="44.63057" lon="9.7273368"><ele>601.0</ele><time>2026-05-03T12:28:51.729Z</time></trkpt><trkpt lat="44.6305082" lon="9.7271352"><ele>602.0</ele><time>2026-05-03T12:28:52.721Z</time></trkpt><trkpt lat="44.6304567" lon="9.7269132"><ele>603.0</ele><time>2026-05-03T12:28:53.715Z</time></trkpt><trkpt lat="44.6304557" lon="9.7267326"><ele>603.5</ele><time>2026-05-03T12:28:54.722Z</time></trkpt><trkpt lat="44.630454" lon="9.7265581"><ele>604.0</ele><time>2026-05-03T12:28:55.695Z</time></trkpt><trkpt lat="44.6303958" lon="9.7263939"><ele>604.5</ele><time>2026-05-03T12:28:56.701Z</time></trkpt><trkpt lat="44.6303353" lon="9.7262769"><ele>605.0</ele><time>2026-05-03T12:28:57.688Z</time></trkpt><trkpt lat="44.6302441" lon="9.7262181"><ele>597.3333333333333</ele><time>2026-05-03T12:28:58.688Z</time></trkpt><trkpt lat="44.630079" lon="9.7262028"><ele>589.6666666666666</ele><time>2026-05-03T12:28:59.683Z</time></trkpt><trkpt lat="44.6299046" lon="9.7261722"><ele>582.0</ele><time>2026-05-03T12:29:00.674Z</time></trkpt><trkpt lat="44.6297932" lon="9.7261"><ele>582.0</ele><time>2026-05-03T12:29:01.691Z</time></trkpt><trkpt lat="44.6296346" lon="9.7261013"><ele>582.0</ele><time>2026-05-03T12:29:02.682Z</time></trkpt><trkpt lat="44.629474" lon="9.7260049"><ele>582.0</ele><time>2026-05-03T12:29:03.703Z</time></trkpt><trkpt lat="44.6293415" lon="9.725788"><ele>582.6666666666666</ele><time>2026-05-03T12:29:04.704Z</time></trkpt><trkpt lat="44.6292505" lon="9.7255814"><ele>583.3333333333333</ele><time>2026-05-03T12:29:05.705Z</time></trkpt><trkpt lat="44.6291457" lon="9.7254111"><ele>584.0</ele><time>2026-05-03T12:29:06.681Z</time></trkpt><trkpt lat="44.6291428" lon="9.7251913"><ele>584.0</ele><time>2026-05-03T12:29:07.68Z</time></trkpt><trkpt lat="44.6291027" lon="9.7250149"><ele>584.0</ele><time>2026-05-03T12:29:08.678Z</time></trkpt><trkpt lat="44.6290421" lon="9.7248345"><ele>584.0</ele><time>2026-05-03T12:29:09.679Z</time></trkpt><trkpt lat="44.6289621" lon="9.7247448"><ele>584.0</ele><time>2026-05-03T12:29:10.685Z</time></trkpt><trkpt lat="44.6288722" lon="9.7246107"><ele>584.0</ele><time>2026-05-03T12:29:11.714Z</time></trkpt><trkpt lat="44.6286878" lon="9.7244772"><ele>584.0</ele><time>2026-05-03T12:29:12.727Z</time></trkpt><trkpt lat="44.6285693" lon="9.7242509"><ele>584.0</ele><time>2026-05-03T12:29:13.717Z</time></trkpt><trkpt lat="44.6284099" lon="9.7241091"><ele>578.0</ele><time>2026-05-03T12:29:14.73Z</time></trkpt><trkpt lat="44.6282615" lon="9.7239555"><ele>572.0</ele><time>2026-05-03T12:29:15.721Z</time></trkpt><trkpt lat="44.6281002" lon="9.723783"><ele>566.0</ele><time>2026-05-03T12:29:16.724Z</time></trkpt><trkpt lat="44.6279717" lon="9.7236431"><ele>566.0</ele><time>2026-05-03T12:29:17.736Z</time></trkpt><trkpt lat="44.6278349" lon="9.7235847"><ele>566.0</ele><time>2026-05-03T12:29:18.692Z</time></trkpt><trkpt lat="44.6277155" lon="9.7234931"><ele>566.0</ele><time>2026-05-03T12:29:19.695Z</time></trkpt><trkpt lat="44.6276289" lon="9.7233932"><ele>566.0</ele><time>2026-05-03T12:29:20.695Z</time></trkpt><trkpt lat="44.6276218" lon="9.7231996"><ele>564.3333333333333</ele><time>2026-05-03T12:29:21.707Z</time></trkpt><trkpt lat="44.6276141" lon="9.7229839"><ele>562.6666666666666</ele><time>2026-05-03T12:29:22.722Z</time></trkpt><trkpt lat="44.6276425" lon="9.7227573"><ele>561.0</ele><time>2026-05-03T12:29:23.706Z</time></trkpt><trkpt lat="44.6276135" lon="9.7225066"><ele>561.0</ele><time>2026-05-03T12:29:24.707Z</time></trkpt><trkpt lat="44.6275555" lon="9.7222656"><ele>561.0</ele><time>2026-05-03T12:29:25.719Z</time></trkpt><trkpt lat="44.6275317" lon="9.7220654"><ele>561.0</ele><time>2026-05-03T12:29:26.716Z</time></trkpt><trkpt lat="44.627464" lon="9.7218893"><ele>563.0</ele><time>2026-05-03T12:29:27.699Z</time></trkpt><trkpt lat="44.6274017" lon="9.7217251"><ele>565.0</ele><time>2026-05-03T12:29:28.702Z</time></trkpt><trkpt lat="44.6273311" lon="9.7215069"><ele>567.0</ele><time>2026-05-03T12:29:29.711Z</time></trkpt><trkpt lat="44.6273122" lon="9.7212607"><ele>567.0</ele><time>2026-05-03T12:29:30.718Z</time></trkpt><trkpt lat="44.6272774" lon="9.721103"><ele>567.0</ele><time>2026-05-03T12:29:31.72Z</time></trkpt><trkpt lat="44.6272856" lon="9.7208798"><ele>567.0</ele><time>2026-05-03T12:29:32.737Z</time></trkpt><trkpt lat="44.6272515" lon="9.7206629"><ele>567.0</ele><time>2026-05-03T12:29:33.708Z</time></trkpt><trkpt lat="44.627196" lon="9.7204971"><ele>568.0</ele><time>2026-05-03T12:29:34.711Z</time></trkpt><trkpt lat="44.6271067" lon="9.7203736"><ele>569.0</ele><time>2026-05-03T12:29:35.713Z</time></trkpt><trkpt lat="44.6269986" lon="9.7202885"><ele>570.0</ele><time>2026-05-03T12:29:36.709Z</time></trkpt><trkpt lat="44.626912" lon="9.7202023"><ele>571.0</ele><time>2026-05-03T12:29:37.694Z</time></trkpt><trkpt lat="44.6268034" lon="9.7200967"><ele>566.75</ele><time>2026-05-03T12:29:38.685Z</time></trkpt><trkpt lat="44.6267687" lon="9.7199204"><ele>562.5</ele><time>2026-05-03T12:29:39.71Z</time></trkpt><trkpt lat="44.6268111" lon="9.7197164"><ele>558.25</ele><time>2026-05-03T12:29:40.713Z</time></trkpt><trkpt lat="44.6268411" lon="9.7195124"><ele>554.0</ele><time>2026-05-03T12:29:41.707Z</time></trkpt><trkpt lat="44.6268221" lon="9.7193249"><ele>554.0</ele><time>2026-05-03T12:29:42.716Z</time></trkpt><trkpt lat="44.6267786" lon="9.7191533"><ele>554.0</ele><time>2026-05-03T12:29:43.703Z</time></trkpt><trkpt lat="44.6267276" lon="9.719011"><ele>554.0</ele><time>2026-05-03T12:29:44.676Z</time></trkpt><trkpt lat="44.626669" lon="9.7188669"><ele>554.0</ele><time>2026-05-03T12:29:45.678Z</time></trkpt><trkpt lat="44.6265957" lon="9.7187422"><ele>554.0</ele><time>2026-05-03T12:29:46.674Z</time></trkpt><trkpt lat="44.6265304" lon="9.7186202"><ele>554.0</ele><time>2026-05-03T12:29:47.666Z</time></trkpt><trkpt lat="44.6264488" lon="9.7186369"><ele>554.0</ele><time>2026-05-03T12:29:48.671Z</time></trkpt><trkpt lat="44.6264216" lon="9.7185407"><ele>554.0</ele><time>2026-05-03T12:29:49.665Z</time></trkpt><trkpt lat="44.6262995" lon="9.718452"><ele>554.0</ele><time>2026-05-03T12:29:50.648Z</time></trkpt><trkpt lat="44.6261713" lon="9.718433"><ele>554.0</ele><time>2026-05-03T12:29:51.641Z</time></trkpt><trkpt lat="44.6260146" lon="9.7184794"><ele>554.0</ele><time>2026-05-03T12:29:52.645Z</time></trkpt><trkpt lat="44.625831" lon="9.7186673"><ele>554.0</ele><time>2026-05-03T12:29:53.656Z</time></trkpt><trkpt lat="44.6257053" lon="9.7191172"><ele>554.0</ele><time>2026-05-03T12:29:54.673Z</time></trkpt><trkpt lat="44.6255639" lon="9.7193022"><ele>554.0</ele><time>2026-05-03T12:29:55.673Z</time></trkpt><trkpt lat="44.6254996" lon="9.7196385"><ele>554.0</ele><time>2026-05-03T12:29:56.679Z</time></trkpt><trkpt lat="44.6253912" lon="9.7198235"><ele>552.0</ele><time>2026-05-03T12:29:57.67Z</time></trkpt><trkpt lat="44.6252846" lon="9.7200053"><ele>550.0</ele><time>2026-05-03T12:29:58.679Z</time></trkpt><trkpt lat="44.6251471" lon="9.7200887"><ele>548.0</ele><time>2026-05-03T12:29:59.679Z</time></trkpt><trkpt lat="44.6250559" lon="9.7201752"><ele>546.0</ele><time>2026-05-03T12:30:00.682Z</time></trkpt><trkpt lat="44.6249339" lon="9.720241"><ele>546.0</ele><time>2026-05-03T12:30:01.682Z</time></trkpt><trkpt lat="44.6247671" lon="9.7201701"><ele>546.0</ele><time>2026-05-03T12:30:02.69Z</time></trkpt><trkpt lat="44.6246491" lon="9.7200117"><ele>546.0</ele><time>2026-05-03T12:30:03.681Z</time></trkpt><trkpt lat="44.6245719" lon="9.7198091"><ele>546.0</ele><time>2026-05-03T12:30:04.684Z</time></trkpt><trkpt lat="44.6244945" lon="9.7196308"><ele>546.0</ele><time>2026-05-03T12:30:05.687Z</time></trkpt><trkpt lat="44.6243998" lon="9.7195607"><ele>546.0</ele><time>2026-05-03T12:30:06.679Z</time></trkpt><trkpt lat="44.6242592" lon="9.7194529"><ele>546.0</ele><time>2026-05-03T12:30:07.679Z</time></trkpt><trkpt lat="44.6241325" lon="9.7193178"><ele>546.3333333333334</ele><time>2026-05-03T12:30:08.697Z</time></trkpt><trkpt lat="44.624057" lon="9.719102"><ele>546.6666666666667</ele><time>2026-05-03T12:30:09.7Z</time></trkpt><trkpt lat="44.624027" lon="9.7189089"><ele>547.0</ele><time>2026-05-03T12:30:10.696Z</time></trkpt><trkpt lat="44.6240913" lon="9.7187274"><ele>547.0</ele><time>2026-05-03T12:30:11.703Z</time></trkpt><trkpt lat="44.6241966" lon="9.7185135"><ele>547.0</ele><time>2026-05-03T12:30:12.701Z</time></trkpt><trkpt lat="44.624311" lon="9.7183071"><ele>547.0</ele><time>2026-05-03T12:30:13.683Z</time></trkpt><trkpt lat="44.6243541" lon="9.7180617"><ele>547.0</ele><time>2026-05-03T12:30:14.679Z</time></trkpt><trkpt lat="44.6244301" lon="9.7178746"><ele>547.0</ele><time>2026-05-03T12:30:15.692Z</time></trkpt><trkpt lat="44.6244182" lon="9.7176834"><ele>547.0</ele><time>2026-05-03T12:30:16.718Z</time></trkpt><trkpt lat="44.6242541" lon="9.717481"><ele>547.3333333333334</ele><time>2026-05-03T12:30:17.717Z</time></trkpt><trkpt lat="44.6240929" lon="9.7172503"><ele>547.6666666666666</ele><time>2026-05-03T12:30:18.715Z</time></trkpt><trkpt lat="44.6239725" lon="9.7170119"><ele>548.0</ele><time>2026-05-03T12:30:19.709Z</time></trkpt><trkpt lat="44.6238063" lon="9.7167716"><ele>545.6666666666666</ele><time>2026-05-03T12:30:20.704Z</time></trkpt><trkpt lat="44.6236515" lon="9.7165695"><ele>543.3333333333334</ele><time>2026-05-03T12:30:21.71Z</time></trkpt><trkpt lat="44.6235449" lon="9.7164253"><ele>541.0</ele><time>2026-05-03T12:30:22.687Z</time></trkpt><trkpt lat="44.6234641" lon="9.7162376"><ele>544.6666666666667</ele><time>2026-05-03T12:30:23.715Z</time></trkpt><trkpt lat="44.6234262" lon="9.7159967"><ele>548.3333333333334</ele><time>2026-05-03T12:30:24.702Z</time></trkpt><trkpt lat="44.6233584" lon="9.7157448"><ele>552.0</ele><time>2026-05-03T12:30:25.713Z</time></trkpt><trkpt lat="44.6232626" lon="9.7155118"><ele>552.0</ele><time>2026-05-03T12:30:26.706Z</time></trkpt><trkpt lat="44.6231192" lon="9.7153083"><ele>552.0</ele><time>2026-05-03T12:30:27.701Z</time></trkpt><trkpt lat="44.6229536" lon="9.7151463"><ele>552.0</ele><time>2026-05-03T12:30:28.678Z</time></trkpt><trkpt lat="44.6228405" lon="9.7150342"><ele>551.3333333333334</ele><time>2026-05-03T12:30:29.677Z</time></trkpt><trkpt lat="44.6226929" lon="9.7149494"><ele>550.6666666666667</ele><time>2026-05-03T12:30:30.676Z</time></trkpt><trkpt lat="44.6225518" lon="9.714819"><ele>550.0</ele><time>2026-05-03T12:30:31.678Z</time></trkpt><trkpt lat="44.6223602" lon="9.714647"><ele>550.0</ele><time>2026-05-03T12:30:32.68Z</time></trkpt><trkpt lat="44.6222133" lon="9.7144831"><ele>550.0</ele><time>2026-05-03T12:30:33.695Z</time></trkpt><trkpt lat="44.622121" lon="9.7143032"><ele>550.0</ele><time>2026-05-03T12:30:34.701Z</time></trkpt><trkpt lat="44.622022" lon="9.7141175"><ele>550.0</ele><time>2026-05-03T12:30:35.701Z</time></trkpt><trkpt lat="44.621885" lon="9.713943"><ele>550.0</ele><time>2026-05-03T12:30:36.701Z</time></trkpt><trkpt lat="44.6217336" lon="9.7137931"><ele>550.0</ele><time>2026-05-03T12:30:37.7Z</time></trkpt><trkpt lat="44.6215808" lon="9.7136614"><ele>554.6666666666667</ele><time>2026-05-03T12:30:38.703Z</time></trkpt><trkpt lat="44.6214338" lon="9.7135398"><ele>559.3333333333334</ele><time>2026-05-03T12:30:39.679Z</time></trkpt><trkpt lat="44.6213312" lon="9.7134053"><ele>564.0</ele><time>2026-05-03T12:30:40.674Z</time></trkpt><trkpt lat="44.6212536" lon="9.7132165"><ele>564.0</ele><time>2026-05-03T12:30:41.696Z</time></trkpt><trkpt lat="44.6211888" lon="9.7129927"><ele>564.0</ele><time>2026-05-03T12:30:42.699Z</time></trkpt><trkpt lat="44.621194" lon="9.7126912"><ele>564.0</ele><time>2026-05-03T12:30:43.701Z</time></trkpt><trkpt lat="44.6211099" lon="9.7124738"><ele>560.6666666666666</ele><time>2026-05-03T12:30:44.703Z</time></trkpt><trkpt lat="44.6210247" lon="9.7122514"><ele>557.3333333333333</ele><time>2026-05-03T12:30:45.703Z</time></trkpt><trkpt lat="44.6209989" lon="9.7120242"><ele>554.0</ele><time>2026-05-03T12:30:46.696Z</time></trkpt><trkpt lat="44.6209752" lon="9.7118238"><ele>554.0</ele><time>2026-05-03T12:30:47.702Z</time></trkpt><trkpt lat="44.6209668" lon="9.7117038"><ele>554.0</ele><time>2026-05-03T12:30:48.709Z</time></trkpt><trkpt lat="44.6210039" lon="9.711596"><ele>554.0</ele><time>2026-05-03T12:30:49.7Z</time></trkpt><trkpt lat="44.6210577" lon="9.7115246"><ele>554.0</ele><time>2026-05-03T12:30:50.702Z</time></trkpt><trkpt lat="44.6211991" lon="9.7114301"><ele>554.0</ele><time>2026-05-03T12:30:51.676Z</time></trkpt><trkpt lat="44.6214054" lon="9.711453"><ele>556.3333333333333</ele><time>2026-05-03T12:30:52.677Z</time></trkpt><trkpt lat="44.6215367" lon="9.7113965"><ele>558.6666666666666</ele><time>2026-05-03T12:30:53.672Z</time></trkpt><trkpt lat="44.6216412" lon="9.7113265"><ele>561.0</ele><time>2026-05-03T12:30:54.671Z</time></trkpt><trkpt lat="44.6218356" lon="9.7114448"><ele>559.0</ele><time>2026-05-03T12:30:55.668Z</time></trkpt><trkpt lat="44.6220647" lon="9.7116274"><ele>557.0</ele><time>2026-05-03T12:30:56.676Z</time></trkpt><trkpt lat="44.6222362" lon="9.7118494"><ele>559.25</ele><time>2026-05-03T12:30:57.678Z</time></trkpt><trkpt lat="44.6223748" lon="9.7119369"><ele>561.5</ele><time>2026-05-03T12:30:58.687Z</time></trkpt><trkpt lat="44.622506" lon="9.712013"><ele>563.75</ele><time>2026-05-03T12:30:59.689Z</time></trkpt><trkpt lat="44.6226337" lon="9.7120685"><ele>566.0</ele><time>2026-05-03T12:31:00.68Z</time></trkpt><trkpt lat="44.6228396" lon="9.7121882"><ele>567.5</ele><time>2026-05-03T12:31:01.686Z</time></trkpt><trkpt lat="44.6229268" lon="9.7121408"><ele>569.0</ele><time>2026-05-03T12:31:02.688Z</time></trkpt><trkpt lat="44.6230724" lon="9.7120365"><ele>570.5</ele><time>2026-05-03T12:31:03.687Z</time></trkpt><trkpt lat="44.6231878" lon="9.7118595"><ele>572.0</ele><time>2026-05-03T12:31:04.692Z</time></trkpt><trkpt lat="44.623316" lon="9.7117147"><ele>567.3333333333333</ele><time>2026-05-03T12:31:05.69Z</time></trkpt><trkpt lat="44.6234021" lon="9.7115473"><ele>562.6666666666666</ele><time>2026-05-03T12:31:06.712Z</time></trkpt><trkpt lat="44.623465" lon="9.7113408"><ele>558.0</ele><time>2026-05-03T12:31:07.711Z</time></trkpt><trkpt lat="44.6235584" lon="9.7111752"><ele>558.75</ele><time>2026-05-03T12:31:08.707Z</time></trkpt><trkpt lat="44.623702" lon="9.7111157"><ele>559.5</ele><time>2026-05-03T12:31:09.686Z</time></trkpt><trkpt lat="44.6238067" lon="9.7109893"><ele>560.25</ele><time>2026-05-03T12:31:10.695Z</time></trkpt><trkpt lat="44.6239443" lon="9.7109204"><ele>561.0</ele><time>2026-05-03T12:31:11.69Z</time></trkpt><trkpt lat="44.6240777" lon="9.7107593"><ele>558.0</ele><time>2026-05-03T12:31:12.694Z</time></trkpt><trkpt lat="44.6241648" lon="9.710548"><ele>555.0</ele><time>2026-05-03T12:31:13.695Z</time></trkpt><trkpt lat="44.6242888" lon="9.7103741"><ele>552.0</ele><time>2026-05-03T12:31:14.689Z</time></trkpt><trkpt lat="44.6243808" lon="9.7102349"><ele>553.75</ele><time>2026-05-03T12:31:15.696Z</time></trkpt><trkpt lat="44.6244825" lon="9.7101351"><ele>555.5</ele><time>2026-05-03T12:31:16.697Z</time></trkpt><trkpt lat="44.6245604" lon="9.7099845"><ele>557.25</ele><time>2026-05-03T12:31:17.685Z</time></trkpt><trkpt lat="44.624577" lon="9.7098399"><ele>559.0</ele><time>2026-05-03T12:31:18.727Z</time></trkpt><trkpt lat="44.6245258" lon="9.709665"><ele>559.0</ele><time>2026-05-03T12:31:19.717Z</time></trkpt><trkpt lat="44.6245288" lon="9.7094645"><ele>559.0</ele><time>2026-05-03T12:31:20.716Z</time></trkpt><trkpt lat="44.6245799" lon="9.709285"><ele>559.0</ele><time>2026-05-03T12:31:21.709Z</time></trkpt><trkpt lat="44.6246484" lon="9.7091064"><ele>559.0</ele><time>2026-05-03T12:31:22.68Z</time></trkpt><trkpt lat="44.6247144" lon="9.70894"><ele>558.0</ele><time>2026-05-03T12:31:23.69Z</time></trkpt><trkpt lat="44.6247646" lon="9.708816"><ele>557.0</ele><time>2026-05-03T12:31:24.682Z</time></trkpt><trkpt lat="44.6247658" lon="9.7086328"><ele>556.0</ele><time>2026-05-03T12:31:25.72Z</time></trkpt><trkpt lat="44.6246872" lon="9.7084221"><ele>555.0</ele><time>2026-05-03T12:31:26.71Z</time></trkpt><trkpt lat="44.6246051" lon="9.708243"><ele>554.6666666666666</ele><time>2026-05-03T12:31:27.709Z</time></trkpt><trkpt lat="44.6245357" lon="9.7080173"><ele>554.3333333333333</ele><time>2026-05-03T12:31:28.714Z</time></trkpt><trkpt lat="44.6244675" lon="9.7077831"><ele>554.0</ele><time>2026-05-03T12:31:29.722Z</time></trkpt><trkpt lat="44.6244048" lon="9.7075511"><ele>551.6666666666666</ele><time>2026-05-03T12:31:30.72Z</time></trkpt><trkpt lat="44.6243585" lon="9.707271"><ele>549.3333333333334</ele><time>2026-05-03T12:31:31.723Z</time></trkpt><trkpt lat="44.624288" lon="9.7070275"><ele>547.0</ele><time>2026-05-03T12:31:32.724Z</time></trkpt><trkpt lat="44.6242357" lon="9.7068313"><ele>547.0</ele><time>2026-05-03T12:31:33.718Z</time></trkpt><trkpt lat="44.6241236" lon="9.7066621"><ele>547.0</ele><time>2026-05-03T12:31:34.703Z</time></trkpt><trkpt lat="44.6240004" lon="9.7064926"><ele>547.0</ele><time>2026-05-03T12:31:35.701Z</time></trkpt><trkpt lat="44.6238471" lon="9.7063161"><ele>547.0</ele><time>2026-05-03T12:31:36.694Z</time></trkpt><trkpt lat="44.6237114" lon="9.7061614"><ele>547.0</ele><time>2026-05-03T12:31:37.702Z</time></trkpt><trkpt lat="44.6236235" lon="9.7060392"><ele>547.0</ele><time>2026-05-03T12:31:38.677Z</time></trkpt><trkpt lat="44.6235292" lon="9.7059033"><ele>547.0</ele><time>2026-05-03T12:31:39.683Z</time></trkpt><trkpt lat="44.6234295" lon="9.7058025"><ele>545.25</ele><time>2026-05-03T12:31:40.68Z</time></trkpt><trkpt lat="44.6233485" lon="9.7057037"><ele>543.5</ele><time>2026-05-03T12:31:41.682Z</time></trkpt><trkpt lat="44.6233327" lon="9.7055317"><ele>541.75</ele><time>2026-05-03T12:31:42.699Z</time></trkpt><trkpt lat="44.6233472" lon="9.7053333"><ele>540.0</ele><time>2026-05-03T12:31:43.676Z</time></trkpt><trkpt lat="44.6233762" lon="9.7051348"><ele>540.0</ele><time>2026-05-03T12:31:44.679Z</time></trkpt><trkpt lat="44.623368" lon="9.7049613"><ele>540.0</ele><time>2026-05-03T12:31:45.676Z</time></trkpt><trkpt lat="44.6233621" lon="9.7048141"><ele>540.0</ele><time>2026-05-03T12:31:46.684Z</time></trkpt><trkpt lat="44.6233424" lon="9.7046331"><ele>540.0</ele><time>2026-05-03T12:31:47.707Z</time></trkpt><trkpt lat="44.6233001" lon="9.7044997"><ele>540.0</ele><time>2026-05-03T12:31:48.708Z</time></trkpt><trkpt lat="44.6232056" lon="9.7044317"><ele>540.0</ele><time>2026-05-03T12:31:49.715Z</time></trkpt><trkpt lat="44.6231062" lon="9.7043798"><ele>540.0</ele><time>2026-05-03T12:31:50.711Z</time></trkpt><trkpt lat="44.6230176" lon="9.7043568"><ele>540.0</ele><time>2026-05-03T12:31:51.684Z</time></trkpt><trkpt lat="44.6229429" lon="9.7043331"><ele>540.0</ele><time>2026-05-03T12:31:52.688Z</time></trkpt><trkpt lat="44.6228255" lon="9.7044313"><ele>539.8</ele><time>2026-05-03T12:31:54.68Z</time></trkpt><trkpt lat="44.6227411" lon="9.7044361"><ele>539.6</ele><time>2026-05-03T12:31:55.679Z</time></trkpt><trkpt lat="44.6226369" lon="9.7044318"><ele>539.4</ele><time>2026-05-03T12:31:56.71Z</time></trkpt><trkpt lat="44.6225246" lon="9.7044036"><ele>539.2</ele><time>2026-05-03T12:31:57.697Z</time></trkpt><trkpt lat="44.6224492" lon="9.7043918"><ele>539.0</ele><time>2026-05-03T12:31:58.684Z</time></trkpt><trkpt lat="44.6223333" lon="9.7043313"><ele>539.0</ele><time>2026-05-03T12:31:59.682Z</time></trkpt><trkpt lat="44.6221928" lon="9.7042809"><ele>539.0</ele><time>2026-05-03T12:32:00.681Z</time></trkpt><trkpt lat="44.6220545" lon="9.7042365"><ele>539.0</ele><time>2026-05-03T12:32:01.673Z</time></trkpt><trkpt lat="44.6218413" lon="9.7041955"><ele>535.3333333333333</ele><time>2026-05-03T12:32:02.692Z</time></trkpt><trkpt lat="44.6216542" lon="9.7041269"><ele>531.6666666666666</ele><time>2026-05-03T12:32:03.686Z</time></trkpt><trkpt lat="44.6215022" lon="9.7039539"><ele>528.0</ele><time>2026-05-03T12:32:04.682Z</time></trkpt><trkpt lat="44.6213723" lon="9.703709"><ele>529.0</ele><time>2026-05-03T12:32:05.673Z</time></trkpt><trkpt lat="44.6212952" lon="9.7034983"><ele>530.0</ele><time>2026-05-03T12:32:06.686Z</time></trkpt><trkpt lat="44.621332" lon="9.7033302"><ele>531.0</ele><time>2026-05-03T12:32:07.679Z</time></trkpt><trkpt lat="44.6213313" lon="9.7031695"><ele>532.0</ele><time>2026-05-03T12:32:08.681Z</time></trkpt><trkpt lat="44.6214738" lon="9.7030927"><ele>532.0</ele><time>2026-05-03T12:32:09.677Z</time></trkpt><trkpt lat="44.6215899" lon="9.7030633"><ele>532.0</ele><time>2026-05-03T12:32:10.677Z</time></trkpt><trkpt lat="44.6217292" lon="9.70301"><ele>532.0</ele><time>2026-05-03T12:32:11.676Z</time></trkpt><trkpt lat="44.6218237" lon="9.7028577"><ele>532.0</ele><time>2026-05-03T12:32:12.676Z</time></trkpt><trkpt lat="44.6218504" lon="9.7026272"><ele>528.75</ele><time>2026-05-03T12:32:13.675Z</time></trkpt><trkpt lat="44.621906" lon="9.7024526"><ele>525.5</ele><time>2026-05-03T12:32:14.673Z</time></trkpt><trkpt lat="44.6220235" lon="9.7023784"><ele>522.25</ele><time>2026-05-03T12:32:15.675Z</time></trkpt><trkpt lat="44.6221456" lon="9.7023349"><ele>519.0</ele><time>2026-05-03T12:32:16.673Z</time></trkpt><trkpt lat="44.6223174" lon="9.7024112"><ele>519.0</ele><time>2026-05-03T12:32:17.675Z</time></trkpt><trkpt lat="44.6224704" lon="9.70259"><ele>519.0</ele><time>2026-05-03T12:32:18.664Z</time></trkpt><trkpt lat="44.6226488" lon="9.7027448"><ele>519.0</ele><time>2026-05-03T12:32:19.671Z</time></trkpt><trkpt lat="44.6227865" lon="9.7028058"><ele>525.3333333333334</ele><time>2026-05-03T12:32:20.667Z</time></trkpt><trkpt lat="44.6229358" lon="9.7028542"><ele>531.6666666666667</ele><time>2026-05-03T12:32:21.665Z</time></trkpt><trkpt lat="44.6230955" lon="9.7028963"><ele>538.0</ele><time>2026-05-03T12:32:22.664Z</time></trkpt><trkpt lat="44.6232827" lon="9.7028651"><ele>530.6666666666667</ele><time>2026-05-03T12:32:23.669Z</time></trkpt><trkpt lat="44.6233426" lon="9.7026279"><ele>523.3333333333334</ele><time>2026-05-03T12:32:24.663Z</time></trkpt><trkpt lat="44.6235098" lon="9.7024807"><ele>516.0</ele><time>2026-05-03T12:32:25.68Z</time></trkpt><trkpt lat="44.6236357" lon="9.7024032"><ele>517.0</ele><time>2026-05-03T12:32:26.68Z</time></trkpt><trkpt lat="44.6237593" lon="9.7023701"><ele>518.0</ele><time>2026-05-03T12:32:27.679Z</time></trkpt><trkpt lat="44.6238571" lon="9.7023803"><ele>519.0</ele><time>2026-05-03T12:32:28.674Z</time></trkpt><trkpt lat="44.6239846" lon="9.7024368"><ele>520.0</ele><time>2026-05-03T12:32:29.685Z</time></trkpt><trkpt lat="44.6241375" lon="9.7025099"><ele>520.0</ele><time>2026-05-03T12:32:30.682Z</time></trkpt><trkpt lat="44.6242901" lon="9.7026111"><ele>520.0</ele><time>2026-05-03T12:32:31.674Z</time></trkpt><trkpt lat="44.6243855" lon="9.7026673"><ele>520.0</ele><time>2026-05-03T12:32:32.68Z</time></trkpt><trkpt lat="44.6245062" lon="9.702738"><ele>520.0</ele><time>2026-05-03T12:32:33.682Z</time></trkpt><trkpt lat="44.6246358" lon="9.7027043"><ele>521.0</ele><time>2026-05-03T12:32:34.675Z</time></trkpt><trkpt lat="44.6247915" lon="9.7025941"><ele>522.0</ele><time>2026-05-03T12:32:35.673Z</time></trkpt><trkpt lat="44.624884" lon="9.7024452"><ele>523.0</ele><time>2026-05-03T12:32:36.672Z</time></trkpt><trkpt lat="44.6250458" lon="9.7022992"><ele>518.0</ele><time>2026-05-03T12:32:37.7Z</time></trkpt><trkpt lat="44.6251052" lon="9.701846"><ele>513.0</ele><time>2026-05-03T12:32:38.684Z</time></trkpt><trkpt lat="44.6250843" lon="9.70138"><ele>510.33333333333337</ele><time>2026-05-03T12:32:39.683Z</time></trkpt><trkpt lat="44.6251316" lon="9.7010301"><ele>507.6666666666667</ele><time>2026-05-03T12:32:40.727Z</time></trkpt><trkpt lat="44.6251971" lon="9.7007865"><ele>505.0</ele><time>2026-05-03T12:32:41.72Z</time></trkpt><trkpt lat="44.6251789" lon="9.7005548"><ele>505.0</ele><time>2026-05-03T12:32:42.694Z</time></trkpt><trkpt lat="44.6251856" lon="9.7004306"><ele>505.0</ele><time>2026-05-03T12:32:43.688Z</time></trkpt><trkpt lat="44.6251688" lon="9.7002754"><ele>505.0</ele><time>2026-05-03T12:32:44.688Z</time></trkpt><trkpt lat="44.6250781" lon="9.7001573"><ele>505.0</ele><time>2026-05-03T12:32:45.705Z</time></trkpt><trkpt lat="44.6249195" lon="9.7000416"><ele>507.33333333333337</ele><time>2026-05-03T12:32:46.68Z</time></trkpt><trkpt lat="44.6247926" lon="9.6998718"><ele>509.66666666666663</ele><time>2026-05-03T12:32:47.716Z</time></trkpt><trkpt lat="44.6247123" lon="9.699697"><ele>512.0</ele><time>2026-05-03T12:32:48.717Z</time></trkpt><trkpt lat="44.6245943" lon="9.6995158"><ele>511.3333333333333</ele><time>2026-05-03T12:32:49.716Z</time></trkpt><trkpt lat="44.6244962" lon="9.6993093"><ele>510.66666666666663</ele><time>2026-05-03T12:32:50.712Z</time></trkpt><trkpt lat="44.6244097" lon="9.6990901"><ele>510.0</ele><time>2026-05-03T12:32:51.718Z</time></trkpt><trkpt lat="44.6243144" lon="9.6989316"><ele>509.66666666666663</ele><time>2026-05-03T12:32:52.716Z</time></trkpt><trkpt lat="44.6242137" lon="9.6987523"><ele>509.3333333333333</ele><time>2026-05-03T12:32:53.711Z</time></trkpt><trkpt lat="44.6240794" lon="9.698619"><ele>509.0</ele><time>2026-05-03T12:32:54.714Z</time></trkpt><trkpt lat="44.6239453" lon="9.6984889"><ele>508.66666666666663</ele><time>2026-05-03T12:32:55.703Z</time></trkpt><trkpt lat="44.6237842" lon="9.698386"><ele>508.33333333333337</ele><time>2026-05-03T12:32:56.673Z</time></trkpt><trkpt lat="44.6236135" lon="9.6983743"><ele>508.0</ele><time>2026-05-03T12:32:57.682Z</time></trkpt><trkpt lat="44.6234379" lon="9.6983785"><ele>506.33333333333337</ele><time>2026-05-03T12:32:58.685Z</time></trkpt><trkpt lat="44.6232511" lon="9.698353"><ele>504.66666666666663</ele><time>2026-05-03T12:32:59.692Z</time></trkpt><trkpt lat="44.6230619" lon="9.698308"><ele>503.0</ele><time>2026-05-03T12:33:00.692Z</time></trkpt><trkpt lat="44.6229735" lon="9.698177"><ele>503.0</ele><time>2026-05-03T12:33:01.688Z</time></trkpt><trkpt lat="44.6229889" lon="9.697927"><ele>503.0</ele><time>2026-05-03T12:33:02.682Z</time></trkpt><trkpt lat="44.6229813" lon="9.6976419"><ele>503.0</ele><time>2026-05-03T12:33:03.709Z</time></trkpt><trkpt lat="44.6230336" lon="9.6974406"><ele>502.25</ele><time>2026-05-03T12:33:04.709Z</time></trkpt><trkpt lat="44.6231094" lon="9.6973466"><ele>501.5</ele><time>2026-05-03T12:33:05.731Z</time></trkpt><trkpt lat="44.6232066" lon="9.6971678"><ele>500.75</ele><time>2026-05-03T12:33:06.675Z</time></trkpt><trkpt lat="44.6233415" lon="9.6970032"><ele>500.0</ele><time>2026-05-03T12:33:07.675Z</time></trkpt><trkpt lat="44.6235227" lon="9.6968751"><ele>494.5</ele><time>2026-05-03T12:33:08.676Z</time></trkpt><trkpt lat="44.6237886" lon="9.696805"><ele>489.0</ele><time>2026-05-03T12:33:09.677Z</time></trkpt><trkpt lat="44.6240541" lon="9.6968613"><ele>489.0</ele><time>2026-05-03T12:33:10.682Z</time></trkpt><trkpt lat="44.6242627" lon="9.6968494"><ele>489.0</ele><time>2026-05-03T12:33:11.684Z</time></trkpt><trkpt lat="44.6244572" lon="9.696936"><ele>489.0</ele><time>2026-05-03T12:33:12.686Z</time></trkpt><trkpt lat="44.6246425" lon="9.6970145"><ele>492.75</ele><time>2026-05-03T12:33:13.687Z</time></trkpt><trkpt lat="44.6247478" lon="9.6971002"><ele>496.5</ele><time>2026-05-03T12:33:14.681Z</time></trkpt><trkpt lat="44.6249033" lon="9.6971537"><ele>500.25</ele><time>2026-05-03T12:33:15.682Z</time></trkpt><trkpt lat="44.6250249" lon="9.6971737"><ele>504.0</ele><time>2026-05-03T12:33:16.682Z</time></trkpt><trkpt lat="44.6252041" lon="9.6972512"><ele>504.0</ele><time>2026-05-03T12:33:17.678Z</time></trkpt><trkpt lat="44.6252232" lon="9.6971068"><ele>504.0</ele><time>2026-05-03T12:33:18.696Z</time></trkpt><trkpt lat="44.6251225" lon="9.6968708"><ele>504.0</ele><time>2026-05-03T12:33:19.705Z</time></trkpt><trkpt lat="44.6250772" lon="9.6967268"><ele>504.0</ele><time>2026-05-03T12:33:20.707Z</time></trkpt><trkpt lat="44.6249867" lon="9.6965102"><ele>502.33333333333337</ele><time>2026-05-03T12:33:21.71Z</time></trkpt><trkpt lat="44.6249098" lon="9.6962945"><ele>500.6666666666667</ele><time>2026-05-03T12:33:22.71Z</time></trkpt><trkpt lat="44.6248262" lon="9.6960537"><ele>499.0</ele><time>2026-05-03T12:33:23.718Z</time></trkpt><trkpt lat="44.6247404" lon="9.695901"><ele>498.33333333333337</ele><time>2026-05-03T12:33:24.713Z</time></trkpt><trkpt lat="44.624662" lon="9.6956751"><ele>497.66666666666663</ele><time>2026-05-03T12:33:25.717Z</time></trkpt><trkpt lat="44.6245772" lon="9.6955435"><ele>497.0</ele><time>2026-05-03T12:33:26.685Z</time></trkpt><trkpt lat="44.6245074" lon="9.6952937"><ele>496.66666666666663</ele><time>2026-05-03T12:33:27.736Z</time></trkpt><trkpt lat="44.6244732" lon="9.6950807"><ele>496.33333333333337</ele><time>2026-05-03T12:33:28.686Z</time></trkpt><trkpt lat="44.6245644" lon="9.6949343"><ele>496.0</ele><time>2026-05-03T12:33:29.687Z</time></trkpt><trkpt lat="44.6246885" lon="9.6947947"><ele>496.0</ele><time>2026-05-03T12:33:30.684Z</time></trkpt><trkpt lat="44.6248263" lon="9.694594"><ele>496.0</ele><time>2026-05-03T12:33:31.682Z</time></trkpt><trkpt lat="44.6249584" lon="9.6943954"><ele>496.0</ele><time>2026-05-03T12:33:32.687Z</time></trkpt><trkpt lat="44.6250178" lon="9.6941439"><ele>491.5</ele><time>2026-05-03T12:33:33.701Z</time></trkpt><trkpt lat="44.6249599" lon="9.6938427"><ele>487.0</ele><time>2026-05-03T12:33:34.705Z</time></trkpt><trkpt lat="44.6248487" lon="9.6935314"><ele>484.6666666666667</ele><time>2026-05-03T12:33:35.73Z</time></trkpt><trkpt lat="44.6247969" lon="9.6933252"><ele>482.33333333333337</ele><time>2026-05-03T12:33:36.738Z</time></trkpt><trkpt lat="44.6247372" lon="9.6930245"><ele>480.0</ele><time>2026-05-03T12:33:37.711Z</time></trkpt><trkpt lat="44.624722" lon="9.6928279"><ele>478.0</ele><time>2026-05-03T12:33:38.69Z</time></trkpt><trkpt lat="44.6247407" lon="9.6926582"><ele>476.0</ele><time>2026-05-03T12:33:39.717Z</time></trkpt><trkpt lat="44.6248077" lon="9.6924981"><ele>474.0</ele><time>2026-05-03T12:33:40.692Z</time></trkpt><trkpt lat="44.6248915" lon="9.6923347"><ele>472.0</ele><time>2026-05-03T12:33:41.693Z</time></trkpt><trkpt lat="44.6250412" lon="9.692182"><ele>472.0</ele><time>2026-05-03T12:33:42.694Z</time></trkpt><trkpt lat="44.6252181" lon="9.6920188"><ele>472.0</ele><time>2026-05-03T12:33:43.689Z</time></trkpt><trkpt lat="44.6253771" lon="9.6918848"><ele>472.0</ele><time>2026-05-03T12:33:44.708Z</time></trkpt><trkpt lat="44.6254597" lon="9.6916109"><ele>474.0</ele><time>2026-05-03T12:33:45.703Z</time></trkpt><trkpt lat="44.6254969" lon="9.6913099"><ele>476.0</ele><time>2026-05-03T12:33:46.724Z</time></trkpt><trkpt lat="44.6255529" lon="9.691017"><ele>478.0</ele><time>2026-05-03T12:33:47.717Z</time></trkpt><trkpt lat="44.6255808" lon="9.6907122"><ele>478.0</ele><time>2026-05-03T12:33:48.69Z</time></trkpt><trkpt lat="44.6256796" lon="9.69049"><ele>478.0</ele><time>2026-05-03T12:33:49.693Z</time></trkpt><trkpt lat="44.6257619" lon="9.6902745"><ele>478.0</ele><time>2026-05-03T12:33:50.694Z</time></trkpt><trkpt lat="44.6258406" lon="9.6901316"><ele>476.25</ele><time>2026-05-03T12:33:51.694Z</time></trkpt><trkpt lat="44.6258486" lon="9.689956"><ele>474.5</ele><time>2026-05-03T12:33:52.695Z</time></trkpt><trkpt lat="44.6258386" lon="9.6897917"><ele>472.75</ele><time>2026-05-03T12:33:53.735Z</time></trkpt><trkpt lat="44.6257557" lon="9.6896138"><ele>471.0</ele><time>2026-05-03T12:33:54.727Z</time></trkpt><trkpt lat="44.6256537" lon="9.6894972"><ele>468.25</ele><time>2026-05-03T12:33:55.678Z</time></trkpt><trkpt lat="44.6255599" lon="9.6893909"><ele>465.5</ele><time>2026-05-03T12:33:56.674Z</time></trkpt><trkpt lat="44.6254248" lon="9.6893461"><ele>462.75</ele><time>2026-05-03T12:33:57.665Z</time></trkpt><trkpt lat="44.6252972" lon="9.6894655"><ele>460.0</ele><time>2026-05-03T12:33:58.674Z</time></trkpt><trkpt lat="44.6252063" lon="9.6894953"><ele>460.0</ele><time>2026-05-03T12:33:59.671Z</time></trkpt><trkpt lat="44.6250937" lon="9.6895105"><ele>460.0</ele><time>2026-05-03T12:34:00.666Z</time></trkpt><trkpt lat="44.624976" lon="9.6895317"><ele>460.0</ele><time>2026-05-03T12:34:01.667Z</time></trkpt><trkpt lat="44.6248855" lon="9.6895524"><ele>460.0</ele><time>2026-05-03T12:34:02.674Z</time></trkpt><trkpt lat="44.6248043" lon="9.6895688"><ele>460.0</ele><time>2026-05-03T12:34:03.671Z</time></trkpt><trkpt lat="44.6246609" lon="9.6895293"><ele>460.0</ele><time>2026-05-03T12:34:04.697Z</time></trkpt><trkpt lat="44.6245005" lon="9.6894344"><ele>460.0</ele><time>2026-05-03T12:34:05.672Z</time></trkpt><trkpt lat="44.6243146" lon="9.6893253"><ele>460.0</ele><time>2026-05-03T12:34:06.67Z</time></trkpt><trkpt lat="44.6241538" lon="9.6892297"><ele>462.5</ele><time>2026-05-03T12:34:07.647Z</time></trkpt><trkpt lat="44.6237754" lon="9.6892239"><ele>465.0</ele><time>2026-05-03T12:34:08.656Z</time></trkpt><trkpt lat="44.6236284" lon="9.6890718"><ele>461.0</ele><time>2026-05-03T12:34:09.665Z</time></trkpt><trkpt lat="44.6235423" lon="9.6889318"><ele>457.0</ele><time>2026-05-03T12:34:10.67Z</time></trkpt><trkpt lat="44.6233858" lon="9.6888217"><ele>453.0</ele><time>2026-05-03T12:34:11.672Z</time></trkpt><trkpt lat="44.6232122" lon="9.6887158"><ele>453.0</ele><time>2026-05-03T12:34:12.662Z</time></trkpt><trkpt lat="44.623072" lon="9.6886467"><ele>453.0</ele><time>2026-05-03T12:34:13.661Z</time></trkpt><trkpt lat="44.622997" lon="9.6884419"><ele>453.0</ele><time>2026-05-03T12:34:14.669Z</time></trkpt><trkpt lat="44.6226301" lon="9.6884543"><ele>456.5</ele><time>2026-05-03T12:34:15.677Z</time></trkpt><trkpt lat="44.62254" lon="9.6883652"><ele>460.0</ele><time>2026-05-03T12:34:16.676Z</time></trkpt><trkpt lat="44.6224593" lon="9.6882593"><ele>463.5</ele><time>2026-05-03T12:34:17.67Z</time></trkpt><trkpt lat="44.6223988" lon="9.6881811"><ele>467.0</ele><time>2026-05-03T12:34:18.674Z</time></trkpt><trkpt lat="44.6225124" lon="9.6880238"><ele>467.0</ele><time>2026-05-03T12:34:20.687Z</time></trkpt><trkpt lat="44.6225838" lon="9.6879196"><ele>467.0</ele><time>2026-05-03T12:34:21.701Z</time></trkpt><trkpt lat="44.6225172" lon="9.6878209"><ele>467.0</ele><time>2026-05-03T12:34:23.719Z</time></trkpt><trkpt lat="44.6224236" lon="9.6878188"><ele>467.0</ele><time>2026-05-03T12:34:25.689Z</time></trkpt><trkpt lat="44.6222931" lon="9.688"><ele>467.0</ele><time>2026-05-03T12:34:27.69Z</time></trkpt><trkpt lat="44.6221963" lon="9.6881263"><ele>467.0</ele><time>2026-05-03T12:34:28.695Z</time></trkpt><trkpt lat="44.6220758" lon="9.6882751"><ele>467.0</ele><time>2026-05-03T12:34:29.685Z</time></trkpt><trkpt lat="44.621943" lon="9.6884602"><ele>466.3333333333333</ele><time>2026-05-03T12:34:30.691Z</time></trkpt><trkpt lat="44.6218094" lon="9.6886371"><ele>465.66666666666663</ele><time>2026-05-03T12:34:31.695Z</time></trkpt><trkpt lat="44.6216522" lon="9.6888186"><ele>465.0</ele><time>2026-05-03T12:34:32.705Z</time></trkpt><trkpt lat="44.6215635" lon="9.6889878"><ele>465.0</ele><time>2026-05-03T12:34:33.692Z</time></trkpt><trkpt lat="44.6214706" lon="9.6891956"><ele>465.0</ele><time>2026-05-03T12:34:34.691Z</time></trkpt><trkpt lat="44.6213929" lon="9.6894123"><ele>465.0</ele><time>2026-05-03T12:34:35.69Z</time></trkpt><trkpt lat="44.6213434" lon="9.6895429"><ele>465.0</ele><time>2026-05-03T12:34:36.69Z</time></trkpt><trkpt lat="44.6213459" lon="9.6896555"><ele>465.0</ele><time>2026-05-03T12:34:37.683Z</time></trkpt><trkpt lat="44.6213164" lon="9.6897699"><ele>465.0</ele><time>2026-05-03T12:34:38.683Z</time></trkpt><trkpt lat="44.6213525" lon="9.6896851"><ele>465.0</ele><time>2026-05-03T12:34:40.679Z</time></trkpt><trkpt lat="44.6214248" lon="9.6894401"><ele>465.0</ele><time>2026-05-03T12:34:41.703Z</time></trkpt><trkpt lat="44.621493" lon="9.6892387"><ele>465.0</ele><time>2026-05-03T12:34:42.674Z</time></trkpt><trkpt lat="44.6215481" lon="9.689024"><ele>465.0</ele><time>2026-05-03T12:34:43.686Z</time></trkpt><trkpt lat="44.6216272" lon="9.6886452"><ele>465.0</ele><time>2026-05-03T12:34:44.71Z</time></trkpt><trkpt lat="44.6216943" lon="9.6882886"><ele>468.5</ele><time>2026-05-03T12:34:45.712Z</time></trkpt><trkpt lat="44.6217556" lon="9.6879099"><ele>472.0</ele><time>2026-05-03T12:34:46.697Z</time></trkpt><trkpt lat="44.6218464" lon="9.687625"><ele>473.0</ele><time>2026-05-03T12:34:47.722Z</time></trkpt><trkpt lat="44.6219955" lon="9.6874101"><ele>474.0</ele><time>2026-05-03T12:34:48.714Z</time></trkpt><trkpt lat="44.6220799" lon="9.6872198"><ele>475.0</ele><time>2026-05-03T12:34:49.721Z</time></trkpt><trkpt lat="44.6221526" lon="9.6870453"><ele>476.6</ele><time>2026-05-03T12:34:50.719Z</time></trkpt><trkpt lat="44.6222145" lon="9.6868829"><ele>478.2</ele><time>2026-05-03T12:34:51.717Z</time></trkpt><trkpt lat="44.622251" lon="9.6867335"><ele>479.79999999999995</ele><time>2026-05-03T12:34:52.687Z</time></trkpt><trkpt lat="44.6222646" lon="9.6866115"><ele>481.4</ele><time>2026-05-03T12:34:53.698Z</time></trkpt><trkpt lat="44.6222205" lon="9.6864584"><ele>483.0</ele><time>2026-05-03T12:34:54.687Z</time></trkpt><trkpt lat="44.6221082" lon="9.6863242"><ele>483.33333333333337</ele><time>2026-05-03T12:34:55.719Z</time></trkpt><trkpt lat="44.6219655" lon="9.6861641"><ele>483.6666666666667</ele><time>2026-05-03T12:34:56.715Z</time></trkpt><trkpt lat="44.621789" lon="9.6859911"><ele>484.0</ele><time>2026-05-03T12:34:57.709Z</time></trkpt><trkpt lat="44.6216137" lon="9.6858744"><ele>491.5</ele><time>2026-05-03T12:34:58.71Z</time></trkpt><trkpt lat="44.6213981" lon="9.6857787"><ele>499.0</ele><time>2026-05-03T12:34:59.704Z</time></trkpt><trkpt lat="44.6211728" lon="9.685746"><ele>499.5</ele><time>2026-05-03T12:35:00.704Z</time></trkpt><trkpt lat="44.6210094" lon="9.6857403"><ele>500.0</ele><time>2026-05-03T12:35:01.703Z</time></trkpt><trkpt lat="44.6208431" lon="9.6857826"><ele>500.5</ele><time>2026-05-03T12:35:02.708Z</time></trkpt><trkpt lat="44.6207274" lon="9.6857924"><ele>501.0</ele><time>2026-05-03T12:35:03.697Z</time></trkpt><trkpt lat="44.6205444" lon="9.6858822"><ele>501.0</ele><time>2026-05-03T12:35:04.687Z</time></trkpt><trkpt lat="44.6203758" lon="9.6859697"><ele>501.0</ele><time>2026-05-03T12:35:05.679Z</time></trkpt><trkpt lat="44.6201839" lon="9.6861002"><ele>501.0</ele><time>2026-05-03T12:35:06.681Z</time></trkpt><trkpt lat="44.6199972" lon="9.6862313"><ele>503.33333333333337</ele><time>2026-05-03T12:35:07.69Z</time></trkpt><trkpt lat="44.6198551" lon="9.6864361"><ele>505.6666666666667</ele><time>2026-05-03T12:35:08.683Z</time></trkpt><trkpt lat="44.6198073" lon="9.6866012"><ele>508.0</ele><time>2026-05-03T12:35:09.679Z</time></trkpt><trkpt lat="44.6197928" lon="9.6868602"><ele>506.33333333333337</ele><time>2026-05-03T12:35:10.672Z</time></trkpt><trkpt lat="44.6197727" lon="9.6870791"><ele>504.66666666666663</ele><time>2026-05-03T12:35:11.675Z</time></trkpt><trkpt lat="44.6198179" lon="9.6873705"><ele>503.0</ele><time>2026-05-03T12:35:12.682Z</time></trkpt><trkpt lat="44.6198911" lon="9.6876862"><ele>503.0</ele><time>2026-05-03T12:35:13.678Z</time></trkpt><trkpt lat="44.6198928" lon="9.6878336"><ele>502.99999999999994</ele><time>2026-05-03T12:35:14.679Z</time></trkpt><trkpt lat="44.6198386" lon="9.6879038"><ele>502.99999999999994</ele><time>2026-05-03T12:35:16.67Z</time></trkpt><trkpt lat="44.6197888" lon="9.6877562"><ele>503.0</ele><time>2026-05-03T12:35:17.706Z</time></trkpt><trkpt lat="44.6197547" lon="9.6875692"><ele>503.0</ele><time>2026-05-03T12:35:18.689Z</time></trkpt><trkpt lat="44.6196888" lon="9.6873164"><ele>503.0</ele><time>2026-05-03T12:35:19.662Z</time></trkpt><trkpt lat="44.6196047" lon="9.6869848"><ele>503.0</ele><time>2026-05-03T12:35:20.696Z</time></trkpt><trkpt lat="44.6196301" lon="9.6867078"><ele>503.0</ele><time>2026-05-03T12:35:21.696Z</time></trkpt><trkpt lat="44.6196314" lon="9.6864022"><ele>508.0</ele><time>2026-05-03T12:35:22.672Z</time></trkpt><trkpt lat="44.6196302" lon="9.6860578"><ele>513.0</ele><time>2026-05-03T12:35:23.679Z</time></trkpt><trkpt lat="44.6196222" lon="9.6857248"><ele>513.0</ele><time>2026-05-03T12:35:24.678Z</time></trkpt><trkpt lat="44.6195769" lon="9.685505"><ele>513.0</ele><time>2026-05-03T12:35:25.68Z</time></trkpt><trkpt lat="44.619549" lon="9.6853472"><ele>513.0</ele><time>2026-05-03T12:35:26.71Z</time></trkpt><trkpt lat="44.6195551" lon="9.6851867"><ele>513.0</ele><time>2026-05-03T12:35:27.707Z</time></trkpt><trkpt lat="44.6196398" lon="9.684996"><ele>516.6666666666666</ele><time>2026-05-03T12:35:28.679Z</time></trkpt><trkpt lat="44.6198196" lon="9.684821"><ele>520.3333333333333</ele><time>2026-05-03T12:35:29.679Z</time></trkpt><trkpt lat="44.6199625" lon="9.6846533"><ele>524.0</ele><time>2026-05-03T12:35:30.682Z</time></trkpt><trkpt lat="44.6201035" lon="9.6845196"><ele>524.0</ele><time>2026-05-03T12:35:31.663Z</time></trkpt><trkpt lat="44.6202432" lon="9.6844572"><ele>524.0</ele><time>2026-05-03T12:35:32.665Z</time></trkpt><trkpt lat="44.620405" lon="9.6844901"><ele>524.0</ele><time>2026-05-03T12:35:33.671Z</time></trkpt><trkpt lat="44.6205539" lon="9.6844907"><ele>524.25</ele><time>2026-05-03T12:35:34.672Z</time></trkpt><trkpt lat="44.6207187" lon="9.6844326"><ele>524.5</ele><time>2026-05-03T12:35:35.666Z</time></trkpt><trkpt lat="44.6208354" lon="9.6842951"><ele>524.75</ele><time>2026-05-03T12:35:36.674Z</time></trkpt><trkpt lat="44.6208529" lon="9.684123"><ele>525.0</ele><time>2026-05-03T12:35:37.669Z</time></trkpt><trkpt lat="44.6208242" lon="9.6838767"><ele>527.3333333333334</ele><time>2026-05-03T12:35:38.667Z</time></trkpt><trkpt lat="44.6207648" lon="9.6836424"><ele>529.6666666666667</ele><time>2026-05-03T12:35:39.664Z</time></trkpt><trkpt lat="44.6207105" lon="9.6834202"><ele>532.0</ele><time>2026-05-03T12:35:40.668Z</time></trkpt><trkpt lat="44.6206567" lon="9.6831941"><ele>533.3333333333334</ele><time>2026-05-03T12:35:41.674Z</time></trkpt><trkpt lat="44.6206287" lon="9.6829539"><ele>534.6666666666666</ele><time>2026-05-03T12:35:42.671Z</time></trkpt><trkpt lat="44.6206197" lon="9.6827253"><ele>536.0</ele><time>2026-05-03T12:35:43.668Z</time></trkpt><trkpt lat="44.6206142" lon="9.6825095"><ele>536.0</ele><time>2026-05-03T12:35:44.677Z</time></trkpt><trkpt lat="44.6206132" lon="9.6822731"><ele>536.0</ele><time>2026-05-03T12:35:45.676Z</time></trkpt><trkpt lat="44.6205927" lon="9.682046"><ele>536.0</ele><time>2026-05-03T12:35:46.681Z</time></trkpt><trkpt lat="44.6204922" lon="9.6818411"><ele>535.3333333333333</ele><time>2026-05-03T12:35:47.676Z</time></trkpt><trkpt lat="44.6203453" lon="9.6816292"><ele>534.6666666666666</ele><time>2026-05-03T12:35:48.699Z</time></trkpt><trkpt lat="44.6201567" lon="9.6814656"><ele>534.0</ele><time>2026-05-03T12:35:49.699Z</time></trkpt><trkpt lat="44.6200052" lon="9.6813346"><ele>536.3333333333334</ele><time>2026-05-03T12:35:50.7Z</time></trkpt><trkpt lat="44.6197988" lon="9.6812348"><ele>538.6666666666667</ele><time>2026-05-03T12:35:51.703Z</time></trkpt><trkpt lat="44.6196064" lon="9.6811008"><ele>541.0</ele><time>2026-05-03T12:35:52.7Z</time></trkpt><trkpt lat="44.6194423" lon="9.6809633"><ele>543.5</ele><time>2026-05-03T12:35:53.674Z</time></trkpt><trkpt lat="44.6194183" lon="9.6807737"><ele>546.0</ele><time>2026-05-03T12:35:54.699Z</time></trkpt><trkpt lat="44.6194122" lon="9.6806083"><ele>548.5</ele><time>2026-05-03T12:35:55.695Z</time></trkpt><trkpt lat="44.6194609" lon="9.6804167"><ele>551.0</ele><time>2026-05-03T12:35:56.678Z</time></trkpt><trkpt lat="44.619473" lon="9.680245"><ele>551.0</ele><time>2026-05-03T12:35:57.675Z</time></trkpt><trkpt lat="44.6194694" lon="9.6800727"><ele>551.0</ele><time>2026-05-03T12:35:58.673Z</time></trkpt><trkpt lat="44.6194392" lon="9.6799659"><ele>551.0</ele><time>2026-05-03T12:35:59.678Z</time></trkpt><trkpt lat="44.6192876" lon="9.6799375"><ele>551.0</ele><time>2026-05-03T12:36:00.689Z</time></trkpt><trkpt lat="44.6191365" lon="9.6799289"><ele>551.0</ele><time>2026-05-03T12:36:01.692Z</time></trkpt><trkpt lat="44.61896" lon="9.6798832"><ele>551.0</ele><time>2026-05-03T12:36:02.7Z</time></trkpt><trkpt lat="44.6187729" lon="9.6797676"><ele>551.0</ele><time>2026-05-03T12:36:03.667Z</time></trkpt><trkpt lat="44.6186184" lon="9.679669"><ele>553.6666666666666</ele><time>2026-05-03T12:36:04.665Z</time></trkpt><trkpt lat="44.6184159" lon="9.6795736"><ele>556.3333333333334</ele><time>2026-05-03T12:36:05.673Z</time></trkpt><trkpt lat="44.6183127" lon="9.6793572"><ele>559.0</ele><time>2026-05-03T12:36:06.669Z</time></trkpt><trkpt lat="44.6182798" lon="9.6791349"><ele>559.0</ele><time>2026-05-03T12:36:07.692Z</time></trkpt><trkpt lat="44.6182565" lon="9.6789729"><ele>559.0</ele><time>2026-05-03T12:36:08.693Z</time></trkpt><trkpt lat="44.6181831" lon="9.6788405"><ele>559.0</ele><time>2026-05-03T12:36:09.693Z</time></trkpt><trkpt lat="44.6181345" lon="9.6786926"><ele>559.0</ele><time>2026-05-03T12:36:10.694Z</time></trkpt><trkpt lat="44.6180806" lon="9.6785738"><ele>557.5</ele><time>2026-05-03T12:36:11.715Z</time></trkpt><trkpt lat="44.6180276" lon="9.6784414"><ele>556.0</ele><time>2026-05-03T12:36:12.705Z</time></trkpt><trkpt lat="44.617996" lon="9.6783076"><ele>554.5</ele><time>2026-05-03T12:36:13.705Z</time></trkpt><trkpt lat="44.6180078" lon="9.6781401"><ele>553.0</ele><time>2026-05-03T12:36:14.707Z</time></trkpt><trkpt lat="44.6180433" lon="9.6779706"><ele>553.0</ele><time>2026-05-03T12:36:15.678Z</time></trkpt><trkpt lat="44.6180896" lon="9.6778022"><ele>553.0</ele><time>2026-05-03T12:36:16.679Z</time></trkpt><trkpt lat="44.6181419" lon="9.6776393"><ele>553.0</ele><time>2026-05-03T12:36:17.679Z</time></trkpt><trkpt lat="44.6181972" lon="9.6774654"><ele>553.0</ele><time>2026-05-03T12:36:18.666Z</time></trkpt><trkpt lat="44.6182772" lon="9.6773448"><ele>552.6</ele><time>2026-05-03T12:36:19.672Z</time></trkpt><trkpt lat="44.618356" lon="9.6772303"><ele>552.1999999999999</ele><time>2026-05-03T12:36:20.672Z</time></trkpt><trkpt lat="44.6184064" lon="9.6771324"><ele>551.8</ele><time>2026-05-03T12:36:21.669Z</time></trkpt><trkpt lat="44.6184497" lon="9.6770386"><ele>551.4</ele><time>2026-05-03T12:36:22.673Z</time></trkpt><trkpt lat="44.6184275" lon="9.6769106"><ele>551.0</ele><time>2026-05-03T12:36:23.668Z</time></trkpt><trkpt lat="44.618386" lon="9.6767804"><ele>551.0</ele><time>2026-05-03T12:36:24.697Z</time></trkpt><trkpt lat="44.6183246" lon="9.6766803"><ele>551.0</ele><time>2026-05-03T12:36:25.671Z</time></trkpt><trkpt lat="44.6182511" lon="9.6766286"><ele>551.0</ele><time>2026-05-03T12:36:26.666Z</time></trkpt><trkpt lat="44.6181571" lon="9.6766579"><ele>551.0</ele><time>2026-05-03T12:36:27.669Z</time></trkpt><trkpt lat="44.6180719" lon="9.6767888"><ele>551.0</ele><time>2026-05-03T12:36:28.671Z</time></trkpt><trkpt lat="44.6179147" lon="9.6769612"><ele>552.0</ele><time>2026-05-03T12:36:29.675Z</time></trkpt><trkpt lat="44.6177809" lon="9.6771242"><ele>553.0</ele><time>2026-05-03T12:36:30.67Z</time></trkpt><trkpt lat="44.6176264" lon="9.6772778"><ele>554.0</ele><time>2026-05-03T12:36:31.671Z</time></trkpt><trkpt lat="44.617544" lon="9.6774236"><ele>554.0</ele><time>2026-05-03T12:36:32.675Z</time></trkpt><trkpt lat="44.6174287" lon="9.6775214"><ele>554.0</ele><time>2026-05-03T12:36:33.665Z</time></trkpt><trkpt lat="44.6172605" lon="9.6776063"><ele>554.0</ele><time>2026-05-03T12:36:34.667Z</time></trkpt><trkpt lat="44.6171724" lon="9.6775478"><ele>554.0</ele><time>2026-05-03T12:36:35.668Z</time></trkpt><trkpt lat="44.617076" lon="9.6774401"><ele>554.0</ele><time>2026-05-03T12:36:36.68Z</time></trkpt><trkpt lat="44.6170017" lon="9.6772711"><ele>554.0</ele><time>2026-05-03T12:36:37.673Z</time></trkpt><trkpt lat="44.6169589" lon="9.6770392"><ele>554.0</ele><time>2026-05-03T12:36:38.67Z</time></trkpt><trkpt lat="44.6169478" lon="9.6767978"><ele>553.0</ele><time>2026-05-03T12:36:39.671Z</time></trkpt><trkpt lat="44.6169362" lon="9.6764163"><ele>552.0</ele><time>2026-05-03T12:36:40.668Z</time></trkpt><trkpt lat="44.6168996" lon="9.6761489"><ele>549.4</ele><time>2026-05-03T12:36:41.672Z</time></trkpt><trkpt lat="44.6168877" lon="9.6759382"><ele>546.8000000000001</ele><time>2026-05-03T12:36:42.68Z</time></trkpt><trkpt lat="44.6168873" lon="9.6758186"><ele>544.2</ele><time>2026-05-03T12:36:43.704Z</time></trkpt><trkpt lat="44.6168728" lon="9.6757304"><ele>541.6</ele><time>2026-05-03T12:36:44.665Z</time></trkpt><trkpt lat="44.6167819" lon="9.6756528"><ele>539.0</ele><time>2026-05-03T12:36:46.657Z</time></trkpt><trkpt lat="44.6166269" lon="9.6757882"><ele>539.0</ele><time>2026-05-03T12:36:47.665Z</time></trkpt><trkpt lat="44.6164837" lon="9.6758907"><ele>539.0</ele><time>2026-05-03T12:36:48.668Z</time></trkpt><trkpt lat="44.6162995" lon="9.6760084"><ele>539.0</ele><time>2026-05-03T12:36:49.654Z</time></trkpt><trkpt lat="44.6161749" lon="9.6760997"><ele>538.5</ele><time>2026-05-03T12:36:50.657Z</time></trkpt><trkpt lat="44.6160129" lon="9.6761534"><ele>538.0</ele><time>2026-05-03T12:36:51.661Z</time></trkpt><trkpt lat="44.6158652" lon="9.6761397"><ele>537.5</ele><time>2026-05-03T12:36:52.663Z</time></trkpt><trkpt lat="44.6157609" lon="9.6760782"><ele>537.0</ele><time>2026-05-03T12:36:53.67Z</time></trkpt><trkpt lat="44.6156329" lon="9.6759435"><ele>537.0</ele><time>2026-05-03T12:36:54.663Z</time></trkpt><trkpt lat="44.6155217" lon="9.675743"><ele>537.0</ele><time>2026-05-03T12:36:55.671Z</time></trkpt><trkpt lat="44.6153962" lon="9.6755543"><ele>537.0</ele><time>2026-05-03T12:36:56.678Z</time></trkpt><trkpt lat="44.6153028" lon="9.6753429"><ele>536.5</ele><time>2026-05-03T12:36:57.683Z</time></trkpt><trkpt lat="44.6152186" lon="9.6751637"><ele>536.0</ele><time>2026-05-03T12:36:58.705Z</time></trkpt><trkpt lat="44.6151641" lon="9.6749702"><ele>535.5</ele><time>2026-05-03T12:36:59.695Z</time></trkpt><trkpt lat="44.6151066" lon="9.6748016"><ele>535.0</ele><time>2026-05-03T12:37:00.679Z</time></trkpt><trkpt lat="44.6150919" lon="9.6746156"><ele>535.0</ele><time>2026-05-03T12:37:01.683Z</time></trkpt><trkpt lat="44.6150223" lon="9.674527"><ele>535.0</ele><time>2026-05-03T12:37:02.686Z</time></trkpt><trkpt lat="44.6149152" lon="9.674536"><ele>535.0</ele><time>2026-05-03T12:37:03.702Z</time></trkpt><trkpt lat="44.6148111" lon="9.6745772"><ele>535.0</ele><time>2026-05-03T12:37:04.674Z</time></trkpt><trkpt lat="44.6146901" lon="9.6746643"><ele>535.0</ele><time>2026-05-03T12:37:05.671Z</time></trkpt><trkpt lat="44.6146068" lon="9.6747471"><ele>535.75</ele><time>2026-05-03T12:37:06.669Z</time></trkpt><trkpt lat="44.6144838" lon="9.6747309"><ele>536.5</ele><time>2026-05-03T12:37:07.669Z</time></trkpt><trkpt lat="44.6143399" lon="9.6746735"><ele>537.25</ele><time>2026-05-03T12:37:08.666Z</time></trkpt><trkpt lat="44.6142224" lon="9.6746304"><ele>538.0</ele><time>2026-05-03T12:37:09.661Z</time></trkpt><trkpt lat="44.6141651" lon="9.6744915"><ele>536.0</ele><time>2026-05-03T12:37:10.67Z</time></trkpt><trkpt lat="44.6140816" lon="9.6743433"><ele>534.0</ele><time>2026-05-03T12:37:11.669Z</time></trkpt><trkpt lat="44.6139882" lon="9.674245"><ele>532.0</ele><time>2026-05-03T12:37:12.667Z</time></trkpt><trkpt lat="44.6139035" lon="9.67411"><ele>530.0</ele><time>2026-05-03T12:37:13.712Z</time></trkpt><trkpt lat="44.6138056" lon="9.6740169"><ele>530.0</ele><time>2026-05-03T12:37:14.683Z</time></trkpt><trkpt lat="44.6137288" lon="9.6739491"><ele>530.0</ele><time>2026-05-03T12:37:15.677Z</time></trkpt><trkpt lat="44.6136605" lon="9.6738582"><ele>530.0</ele><time>2026-05-03T12:37:16.696Z</time></trkpt><trkpt lat="44.6136398" lon="9.673757"><ele>530.0</ele><time>2026-05-03T12:37:17.68Z</time></trkpt><trkpt lat="44.6136643" lon="9.6736257"><ele>530.0</ele><time>2026-05-03T12:37:18.67Z</time></trkpt><trkpt lat="44.6137289" lon="9.6735304"><ele>527.25</ele><time>2026-05-03T12:37:19.665Z</time></trkpt><trkpt lat="44.613784" lon="9.673382"><ele>524.5</ele><time>2026-05-03T12:37:20.666Z</time></trkpt><trkpt lat="44.6138806" lon="9.6733134"><ele>521.75</ele><time>2026-05-03T12:37:21.656Z</time></trkpt><trkpt lat="44.6139792" lon="9.6732349"><ele>519.0</ele><time>2026-05-03T12:37:22.655Z</time></trkpt><trkpt lat="44.6140837" lon="9.6731406"><ele>519.0</ele><time>2026-05-03T12:37:23.659Z</time></trkpt><trkpt lat="44.6141827" lon="9.6730962"><ele>519.0</ele><time>2026-05-03T12:37:24.66Z</time></trkpt><trkpt lat="44.6142936" lon="9.6731141"><ele>519.0</ele><time>2026-05-03T12:37:25.663Z</time></trkpt><trkpt lat="44.6143846" lon="9.6731396"><ele>519.0</ele><time>2026-05-03T12:37:26.663Z</time></trkpt><trkpt lat="44.6145679" lon="9.6733243"><ele>518.0</ele><time>2026-05-03T12:37:27.671Z</time></trkpt><trkpt lat="44.6146474" lon="9.6732955"><ele>517.0</ele><time>2026-05-03T12:37:28.66Z</time></trkpt><trkpt lat="44.6148532" lon="9.6734581"><ele>516.0</ele><time>2026-05-03T12:37:29.679Z</time></trkpt><trkpt lat="44.6148444" lon="9.6733502"><ele>515.0</ele><time>2026-05-03T12:37:30.697Z</time></trkpt><trkpt lat="44.6147378" lon="9.6732977"><ele>515.0</ele><time>2026-05-03T12:37:34.709Z</time></trkpt><trkpt lat="44.6146092" lon="9.6732424"><ele>515.0</ele><time>2026-05-03T12:37:35.71Z</time></trkpt><trkpt lat="44.6144207" lon="9.6731702"><ele>515.0</ele><time>2026-05-03T12:37:36.717Z</time></trkpt><trkpt lat="44.6142208" lon="9.6731166"><ele>516.0</ele><time>2026-05-03T12:37:37.719Z</time></trkpt><trkpt lat="44.614099" lon="9.6729963"><ele>517.0</ele><time>2026-05-03T12:37:38.709Z</time></trkpt><trkpt lat="44.6140187" lon="9.6728569"><ele>518.0</ele><time>2026-05-03T12:37:39.714Z</time></trkpt><trkpt lat="44.6139922" lon="9.6726774"><ele>519.0</ele><time>2026-05-03T12:37:40.715Z</time></trkpt><trkpt lat="44.6139619" lon="9.6724833"><ele>516.75</ele><time>2026-05-03T12:37:41.681Z</time></trkpt><trkpt lat="44.6139555" lon="9.672281"><ele>514.5</ele><time>2026-05-03T12:37:42.682Z</time></trkpt><trkpt lat="44.6139421" lon="9.6721261"><ele>512.25</ele><time>2026-05-03T12:37:43.684Z</time></trkpt><trkpt lat="44.6137994" lon="9.6720634"><ele>510.0</ele><time>2026-05-03T12:37:44.722Z</time></trkpt><trkpt lat="44.6137045" lon="9.6719685"><ele>510.75</ele><time>2026-05-03T12:37:45.689Z</time></trkpt><trkpt lat="44.6135866" lon="9.6718244"><ele>511.5</ele><time>2026-05-03T12:37:46.682Z</time></trkpt><trkpt lat="44.6135135" lon="9.6717143"><ele>512.25</ele><time>2026-05-03T12:37:47.696Z</time></trkpt><trkpt lat="44.6134445" lon="9.6715761"><ele>513.0</ele><time>2026-05-03T12:37:48.685Z</time></trkpt><trkpt lat="44.6133941" lon="9.671432"><ele>513.0</ele><time>2026-05-03T12:37:49.721Z</time></trkpt><trkpt lat="44.6133996" lon="9.671289"><ele>513.0</ele><time>2026-05-03T12:37:50.691Z</time></trkpt><trkpt lat="44.6134691" lon="9.6711531"><ele>513.0</ele><time>2026-05-03T12:37:51.689Z</time></trkpt><trkpt lat="44.6135979" lon="9.6710367"><ele>513.0</ele><time>2026-05-03T12:37:52.687Z</time></trkpt><trkpt lat="44.6137342" lon="9.6709304"><ele>508.66666666666663</ele><time>2026-05-03T12:37:53.687Z</time></trkpt><trkpt lat="44.6139469" lon="9.670842"><ele>504.3333333333333</ele><time>2026-05-03T12:37:54.694Z</time></trkpt><trkpt lat="44.6140956" lon="9.6707527"><ele>500.0</ele><time>2026-05-03T12:37:55.695Z</time></trkpt><trkpt lat="44.6141519" lon="9.6706291"><ele>500.0</ele><time>2026-05-03T12:37:56.702Z</time></trkpt><trkpt lat="44.6142027" lon="9.6704554"><ele>500.0</ele><time>2026-05-03T12:37:57.699Z</time></trkpt><trkpt lat="44.6141282" lon="9.670226"><ele>500.0</ele><time>2026-05-03T12:37:58.692Z</time></trkpt><trkpt lat="44.6141435" lon="9.670045"><ele>500.0</ele><time>2026-05-03T12:37:59.697Z</time></trkpt><trkpt lat="44.6140591" lon="9.6698424"><ele>498.3333333333333</ele><time>2026-05-03T12:38:00.694Z</time></trkpt><trkpt lat="44.6139979" lon="9.6695996"><ele>496.66666666666663</ele><time>2026-05-03T12:38:01.696Z</time></trkpt><trkpt lat="44.6139708" lon="9.669403"><ele>495.0</ele><time>2026-05-03T12:38:02.703Z</time></trkpt><trkpt lat="44.6139752" lon="9.6691522"><ele>495.0</ele><time>2026-05-03T12:38:03.692Z</time></trkpt><trkpt lat="44.614024" lon="9.6689119"><ele>495.0</ele><time>2026-05-03T12:38:04.692Z</time></trkpt><trkpt lat="44.6140968" lon="9.6686623"><ele>495.0</ele><time>2026-05-03T12:38:05.695Z</time></trkpt><trkpt lat="44.614181" lon="9.6683926"><ele>496.33333333333337</ele><time>2026-05-03T12:38:06.692Z</time></trkpt><trkpt lat="44.6142394" lon="9.6681272"><ele>497.6666666666667</ele><time>2026-05-03T12:38:07.687Z</time></trkpt><trkpt lat="44.6143036" lon="9.6678498"><ele>499.0</ele><time>2026-05-03T12:38:08.685Z</time></trkpt><trkpt lat="44.6143404" lon="9.6675933"><ele>499.0</ele><time>2026-05-03T12:38:09.694Z</time></trkpt><trkpt lat="44.6143416" lon="9.6673041"><ele>499.0</ele><time>2026-05-03T12:38:10.697Z</time></trkpt><trkpt lat="44.6143153" lon="9.667046"><ele>499.0</ele><time>2026-05-03T12:38:11.692Z</time></trkpt><trkpt lat="44.6142208" lon="9.6667447"><ele>495.6666666666667</ele><time>2026-05-03T12:38:12.688Z</time></trkpt><trkpt lat="44.6141298" lon="9.6664768"><ele>492.33333333333337</ele><time>2026-05-03T12:38:13.694Z</time></trkpt><trkpt lat="44.6140288" lon="9.6662327"><ele>489.0</ele><time>2026-05-03T12:38:14.692Z</time></trkpt><trkpt lat="44.6139202" lon="9.6659913"><ele>489.0</ele><time>2026-05-03T12:38:15.729Z</time></trkpt><trkpt lat="44.6138017" lon="9.6657532"><ele>489.0</ele><time>2026-05-03T12:38:16.727Z</time></trkpt><trkpt lat="44.6137004" lon="9.6655093"><ele>489.0</ele><time>2026-05-03T12:38:17.731Z</time></trkpt><trkpt lat="44.6135934" lon="9.6652737"><ele>489.0</ele><time>2026-05-03T12:38:18.72Z</time></trkpt><trkpt lat="44.6134935" lon="9.6650439"><ele>489.0</ele><time>2026-05-03T12:38:19.724Z</time></trkpt><trkpt lat="44.6134046" lon="9.6647995"><ele>489.0</ele><time>2026-05-03T12:38:20.721Z</time></trkpt><trkpt lat="44.6133138" lon="9.6645514"><ele>492.66666666666663</ele><time>2026-05-03T12:38:21.72Z</time></trkpt><trkpt lat="44.6132671" lon="9.6643018"><ele>496.3333333333333</ele><time>2026-05-03T12:38:22.72Z</time></trkpt><trkpt lat="44.6132097" lon="9.6640168"><ele>500.0</ele><time>2026-05-03T12:38:23.712Z</time></trkpt><trkpt lat="44.6131616" lon="9.6636931"><ele>501.0</ele><time>2026-05-03T12:38:24.719Z</time></trkpt><trkpt lat="44.6131472" lon="9.6634124"><ele>502.0</ele><time>2026-05-03T12:38:25.686Z</time></trkpt><trkpt lat="44.6131452" lon="9.6631637"><ele>503.0</ele><time>2026-05-03T12:38:26.68Z</time></trkpt><trkpt lat="44.6130351" lon="9.6629903"><ele>503.0</ele><time>2026-05-03T12:38:27.682Z</time></trkpt><trkpt lat="44.6128555" lon="9.6628629"><ele>503.0</ele><time>2026-05-03T12:38:28.704Z</time></trkpt><trkpt lat="44.6126995" lon="9.6627454"><ele>503.0</ele><time>2026-05-03T12:38:29.716Z</time></trkpt><trkpt lat="44.6125657" lon="9.6625934"><ele>502.66666666666663</ele><time>2026-05-03T12:38:30.683Z</time></trkpt><trkpt lat="44.6124312" lon="9.6624117"><ele>502.33333333333337</ele><time>2026-05-03T12:38:31.684Z</time></trkpt><trkpt lat="44.6123231" lon="9.6621869"><ele>502.0</ele><time>2026-05-03T12:38:32.709Z</time></trkpt><trkpt lat="44.6122665" lon="9.661934"><ele>504.6666666666667</ele><time>2026-05-03T12:38:33.703Z</time></trkpt><trkpt lat="44.6122246" lon="9.6616497"><ele>507.33333333333337</ele><time>2026-05-03T12:38:34.712Z</time></trkpt><trkpt lat="44.6121724" lon="9.6614091"><ele>510.0</ele><time>2026-05-03T12:38:35.705Z</time></trkpt><trkpt lat="44.6121723" lon="9.6611855"><ele>511.33333333333337</ele><time>2026-05-03T12:38:36.708Z</time></trkpt><trkpt lat="44.6122136" lon="9.6608989"><ele>512.6666666666667</ele><time>2026-05-03T12:38:37.725Z</time></trkpt><trkpt lat="44.6122231" lon="9.6605921"><ele>514.0</ele><time>2026-05-03T12:38:38.725Z</time></trkpt><trkpt lat="44.6122501" lon="9.6602588"><ele>517.5</ele><time>2026-05-03T12:38:39.697Z</time></trkpt><trkpt lat="44.6122878" lon="9.6599124"><ele>521.0</ele><time>2026-05-03T12:38:40.691Z</time></trkpt><trkpt lat="44.612331" lon="9.659571"><ele>521.0</ele><time>2026-05-03T12:38:41.686Z</time></trkpt><trkpt lat="44.6123086" lon="9.659231"><ele>521.0</ele><time>2026-05-03T12:38:42.718Z</time></trkpt><trkpt lat="44.6122654" lon="9.6588825"><ele>520.6666666666666</ele><time>2026-05-03T12:38:43.716Z</time></trkpt><trkpt lat="44.6122374" lon="9.6585621"><ele>520.3333333333334</ele><time>2026-05-03T12:38:44.715Z</time></trkpt><trkpt lat="44.6122564" lon="9.6582552"><ele>520.0</ele><time>2026-05-03T12:38:45.719Z</time></trkpt><trkpt lat="44.6123009" lon="9.657933"><ele>521.0</ele><time>2026-05-03T12:38:46.711Z</time></trkpt><trkpt lat="44.6123062" lon="9.6576046"><ele>522.0</ele><time>2026-05-03T12:38:47.708Z</time></trkpt><trkpt lat="44.6122928" lon="9.6573336"><ele>523.0</ele><time>2026-05-03T12:38:48.721Z</time></trkpt><trkpt lat="44.6122578" lon="9.6570456"><ele>526.3333333333334</ele><time>2026-05-03T12:38:49.703Z</time></trkpt><trkpt lat="44.6122304" lon="9.6568024"><ele>529.6666666666666</ele><time>2026-05-03T12:38:50.706Z</time></trkpt><trkpt lat="44.6121477" lon="9.656556"><ele>533.0</ele><time>2026-05-03T12:38:51.698Z</time></trkpt><trkpt lat="44.6120477" lon="9.6564529"><ele>528.25</ele><time>2026-05-03T12:38:52.729Z</time></trkpt><trkpt lat="44.6119295" lon="9.6563405"><ele>523.5</ele><time>2026-05-03T12:38:53.699Z</time></trkpt><trkpt lat="44.6118169" lon="9.6562283"><ele>518.75</ele><time>2026-05-03T12:38:54.68Z</time></trkpt><trkpt lat="44.6117673" lon="9.6560888"><ele>514.0</ele><time>2026-05-03T12:38:55.703Z</time></trkpt><trkpt lat="44.6117341" lon="9.6559627"><ele>514.0</ele><time>2026-05-03T12:38:56.705Z</time></trkpt><trkpt lat="44.6117427" lon="9.6557761"><ele>514.0</ele><time>2026-05-03T12:38:57.71Z</time></trkpt><trkpt lat="44.6117764" lon="9.6555795"><ele>514.0</ele><time>2026-05-03T12:38:58.706Z</time></trkpt><trkpt lat="44.6117761" lon="9.6554317"><ele>514.0</ele><time>2026-05-03T12:38:59.685Z</time></trkpt><trkpt lat="44.6117365" lon="9.655229"><ele>515.2</ele><time>2026-05-03T12:39:00.705Z</time></trkpt><trkpt lat="44.6116791" lon="9.6550878"><ele>516.4</ele><time>2026-05-03T12:39:01.679Z</time></trkpt><trkpt lat="44.6116184" lon="9.6549835"><ele>517.6</ele><time>2026-05-03T12:39:02.685Z</time></trkpt><trkpt lat="44.6115826" lon="9.6548667"><ele>518.8</ele><time>2026-05-03T12:39:03.698Z</time></trkpt><trkpt lat="44.6115929" lon="9.6547249"><ele>520.0</ele><time>2026-05-03T12:39:04.676Z</time></trkpt><trkpt lat="44.6116311" lon="9.6545792"><ele>520.25</ele><time>2026-05-03T12:39:05.699Z</time></trkpt><trkpt lat="44.6116977" lon="9.6544399"><ele>520.5</ele><time>2026-05-03T12:39:06.703Z</time></trkpt><trkpt lat="44.6117903" lon="9.6542869"><ele>520.75</ele><time>2026-05-03T12:39:07.705Z</time></trkpt><trkpt lat="44.6118512" lon="9.6540972"><ele>521.0</ele><time>2026-05-03T12:39:08.694Z</time></trkpt><trkpt lat="44.6119329" lon="9.6538762"><ele>521.0</ele><time>2026-05-03T12:39:09.668Z</time></trkpt><trkpt lat="44.6119826" lon="9.6536341"><ele>521.0</ele><time>2026-05-03T12:39:10.672Z</time></trkpt><trkpt lat="44.6119719" lon="9.6533571"><ele>521.0</ele><time>2026-05-03T12:39:11.696Z</time></trkpt><trkpt lat="44.6119664" lon="9.6530734"><ele>524.0</ele><time>2026-05-03T12:39:12.694Z</time></trkpt><trkpt lat="44.6118729" lon="9.6527886"><ele>527.0</ele><time>2026-05-03T12:39:13.677Z</time></trkpt><trkpt lat="44.6118317" lon="9.6525309"><ele>530.0</ele><time>2026-05-03T12:39:14.676Z</time></trkpt><trkpt lat="44.6117627" lon="9.6522596"><ele>530.0</ele><time>2026-05-03T12:39:15.67Z</time></trkpt><trkpt lat="44.6116701" lon="9.6519993"><ele>530.0</ele><time>2026-05-03T12:39:16.672Z</time></trkpt><trkpt lat="44.6116071" lon="9.651764"><ele>530.0</ele><time>2026-05-03T12:39:17.687Z</time></trkpt><trkpt lat="44.6115152" lon="9.6515085"><ele>534.3333333333333</ele><time>2026-05-03T12:39:18.676Z</time></trkpt><trkpt lat="44.611427" lon="9.6512706"><ele>538.6666666666666</ele><time>2026-05-03T12:39:19.699Z</time></trkpt><trkpt lat="44.6113788" lon="9.6510335"><ele>543.0</ele><time>2026-05-03T12:39:20.7Z</time></trkpt><trkpt lat="44.6113491" lon="9.6508448"><ele>540.75</ele><time>2026-05-03T12:39:21.675Z</time></trkpt><trkpt lat="44.6113559" lon="9.6506333"><ele>538.5</ele><time>2026-05-03T12:39:22.672Z</time></trkpt><trkpt lat="44.6113156" lon="9.6504984"><ele>536.25</ele><time>2026-05-03T12:39:23.709Z</time></trkpt><trkpt lat="44.6112346" lon="9.6503237"><ele>534.0</ele><time>2026-05-03T12:39:24.677Z</time></trkpt><trkpt lat="44.6111294" lon="9.650179"><ele>534.0</ele><time>2026-05-03T12:39:25.703Z</time></trkpt><trkpt lat="44.611075" lon="9.6498598"><ele>534.0</ele><time>2026-05-03T12:39:26.686Z</time></trkpt><trkpt lat="44.610978" lon="9.6496429"><ele>534.0</ele><time>2026-05-03T12:39:27.672Z</time></trkpt><trkpt lat="44.6110084" lon="9.6495336"><ele>534.25</ele><time>2026-05-03T12:39:28.703Z</time></trkpt><trkpt lat="44.6110322" lon="9.6493551"><ele>534.5</ele><time>2026-05-03T12:39:29.679Z</time></trkpt><trkpt lat="44.6110777" lon="9.649173"><ele>534.75</ele><time>2026-05-03T12:39:30.68Z</time></trkpt><trkpt lat="44.6111274" lon="9.6490213"><ele>535.0</ele><time>2026-05-03T12:39:31.698Z</time></trkpt><trkpt lat="44.6111648" lon="9.6489256"><ele>537.6</ele><time>2026-05-03T12:39:32.704Z</time></trkpt><trkpt lat="44.611248" lon="9.6488731"><ele>540.2</ele><time>2026-05-03T12:39:34.67Z</time></trkpt><trkpt lat="44.6113514" lon="9.6488987"><ele>542.8</ele><time>2026-05-03T12:39:36.697Z</time></trkpt><trkpt lat="44.6114129" lon="9.6488385"><ele>545.4</ele><time>2026-05-03T12:39:37.69Z</time></trkpt><trkpt lat="44.6114841" lon="9.6487565"><ele>548.0</ele><time>2026-05-03T12:39:38.693Z</time></trkpt><trkpt lat="44.611543" lon="9.6485917"><ele>548.0</ele><time>2026-05-03T12:39:39.69Z</time></trkpt><trkpt lat="44.6115801" lon="9.6483842"><ele>548.0</ele><time>2026-05-03T12:39:40.694Z</time></trkpt><trkpt lat="44.6116463" lon="9.6482486"><ele>548.0</ele><time>2026-05-03T12:39:41.698Z</time></trkpt><trkpt lat="44.6117043" lon="9.6480672"><ele>548.0</ele><time>2026-05-03T12:39:42.695Z</time></trkpt><trkpt lat="44.6118115" lon="9.647891"><ele>548.75</ele><time>2026-05-03T12:39:43.669Z</time></trkpt><trkpt lat="44.6118882" lon="9.6477149"><ele>549.5</ele><time>2026-05-03T12:39:44.66Z</time></trkpt><trkpt lat="44.6120202" lon="9.6476581"><ele>550.25</ele><time>2026-05-03T12:39:45.663Z</time></trkpt><trkpt lat="44.6119997" lon="9.6474751"><ele>551.0</ele><time>2026-05-03T12:39:46.644Z</time></trkpt><trkpt lat="44.6119776" lon="9.6473322"><ele>556.6</ele><time>2026-05-03T12:39:47.659Z</time></trkpt><trkpt lat="44.6120144" lon="9.6471789"><ele>562.2</ele><time>2026-05-03T12:39:48.671Z</time></trkpt><trkpt lat="44.6120226" lon="9.6470731"><ele>567.8</ele><time>2026-05-03T12:39:49.688Z</time></trkpt><trkpt lat="44.6120655" lon="9.6469206"><ele>573.4</ele><time>2026-05-03T12:39:50.691Z</time></trkpt><trkpt lat="44.6120909" lon="9.6467495"><ele>579.0</ele><time>2026-05-03T12:39:51.664Z</time></trkpt><trkpt lat="44.6119967" lon="9.6466295"><ele>571.3333333333334</ele><time>2026-05-03T12:39:52.669Z</time></trkpt><trkpt lat="44.6118588" lon="9.6464815"><ele>563.6666666666667</ele><time>2026-05-03T12:39:53.67Z</time></trkpt><trkpt lat="44.6117388" lon="9.6463533"><ele>556.0</ele><time>2026-05-03T12:39:54.667Z</time></trkpt><trkpt lat="44.611631" lon="9.646249"><ele>555.25</ele><time>2026-05-03T12:39:55.662Z</time></trkpt><trkpt lat="44.6115445" lon="9.6461155"><ele>554.5</ele><time>2026-05-03T12:39:56.67Z</time></trkpt><trkpt lat="44.6114416" lon="9.646015"><ele>553.75</ele><time>2026-05-03T12:39:57.664Z</time></trkpt><trkpt lat="44.6113818" lon="9.6458964"><ele>553.0</ele><time>2026-05-03T12:39:58.682Z</time></trkpt><trkpt lat="44.6113745" lon="9.6457666"><ele>553.0</ele><time>2026-05-03T12:39:59.694Z</time></trkpt><trkpt lat="44.6113993" lon="9.6456475"><ele>553.0</ele><time>2026-05-03T12:40:00.692Z</time></trkpt><trkpt lat="44.6114683" lon="9.6455435"><ele>553.0</ele><time>2026-05-03T12:40:01.693Z</time></trkpt><trkpt lat="44.6115472" lon="9.6454452"><ele>553.0</ele><time>2026-05-03T12:40:02.66Z</time></trkpt><trkpt lat="44.6116271" lon="9.645381"><ele>553.0</ele><time>2026-05-03T12:40:03.699Z</time></trkpt><trkpt lat="44.6117158" lon="9.6453235"><ele>553.0</ele><time>2026-05-03T12:40:04.652Z</time></trkpt><trkpt lat="44.6118168" lon="9.6452691"><ele>553.0</ele><time>2026-05-03T12:40:05.658Z</time></trkpt><trkpt lat="44.6119199" lon="9.6452174"><ele>553.0</ele><time>2026-05-03T12:40:06.671Z</time></trkpt><trkpt lat="44.6120261" lon="9.6451547"><ele>553.0</ele><time>2026-05-03T12:40:07.665Z</time></trkpt><trkpt lat="44.6121317" lon="9.6450876"><ele>553.0</ele><time>2026-05-03T12:40:08.699Z</time></trkpt><trkpt lat="44.6122806" lon="9.6449695"><ele>553.0</ele><time>2026-05-03T12:40:09.707Z</time></trkpt><trkpt lat="44.6124128" lon="9.6448918"><ele>553.0</ele><time>2026-05-03T12:40:10.676Z</time></trkpt><trkpt lat="44.6126841" lon="9.6449074"><ele>553.0</ele><time>2026-05-03T12:40:11.689Z</time></trkpt><trkpt lat="44.6128468" lon="9.6448142"><ele>563.0</ele><time>2026-05-03T12:40:12.667Z</time></trkpt><trkpt lat="44.6133396" lon="9.6449073"><ele>563.0</ele><time>2026-05-03T12:40:13.678Z</time></trkpt><trkpt lat="44.6136449" lon="9.6449126"><ele>563.0</ele><time>2026-05-03T12:40:14.689Z</time></trkpt><trkpt lat="44.6139743" lon="9.6450337"><ele>567.6666666666666</ele><time>2026-05-03T12:40:15.702Z</time></trkpt><trkpt lat="44.6141602" lon="9.6449797"><ele>572.3333333333334</ele><time>2026-05-03T12:40:16.699Z</time></trkpt><trkpt lat="44.6143001" lon="9.6449031"><ele>577.0</ele><time>2026-05-03T12:40:17.703Z</time></trkpt><trkpt lat="44.6144136" lon="9.6448717"><ele>576.0</ele><time>2026-05-03T12:40:18.709Z</time></trkpt><trkpt lat="44.6145011" lon="9.644814"><ele>575.0</ele><time>2026-05-03T12:40:19.687Z</time></trkpt><trkpt lat="44.6145674" lon="9.6447551"><ele>574.0</ele><time>2026-05-03T12:40:20.678Z</time></trkpt><trkpt lat="44.6145902" lon="9.6446044"><ele>573.0</ele><time>2026-05-03T12:40:21.699Z</time></trkpt><trkpt lat="44.6145384" lon="9.6444365"><ele>572.0</ele><time>2026-05-03T12:40:22.67Z</time></trkpt><trkpt lat="44.6144527" lon="9.644235"><ele>572.0</ele><time>2026-05-03T12:40:23.669Z</time></trkpt><trkpt lat="44.6143877" lon="9.6440429"><ele>572.0</ele><time>2026-05-03T12:40:24.708Z</time></trkpt><trkpt lat="44.6143119" lon="9.6437896"><ele>572.0</ele><time>2026-05-03T12:40:25.699Z</time></trkpt><trkpt lat="44.6142164" lon="9.6435295"><ele>577.5</ele><time>2026-05-03T12:40:26.673Z</time></trkpt><trkpt lat="44.6141228" lon="9.6432504"><ele>583.0</ele><time>2026-05-03T12:40:27.68Z</time></trkpt><trkpt lat="44.6140276" lon="9.6429347"><ele>585.3333333333334</ele><time>2026-05-03T12:40:28.705Z</time></trkpt><trkpt lat="44.6139537" lon="9.6426384"><ele>587.6666666666666</ele><time>2026-05-03T12:40:29.722Z</time></trkpt><trkpt lat="44.6138896" lon="9.6423739"><ele>590.0</ele><time>2026-05-03T12:40:30.707Z</time></trkpt><trkpt lat="44.6138784" lon="9.6420442"><ele>592.6666666666666</ele><time>2026-05-03T12:40:31.685Z</time></trkpt><trkpt lat="44.6138604" lon="9.6417666"><ele>595.3333333333334</ele><time>2026-05-03T12:40:32.714Z</time></trkpt><trkpt lat="44.6138012" lon="9.6414769"><ele>598.0</ele><time>2026-05-03T12:40:33.7Z</time></trkpt><trkpt lat="44.6137484" lon="9.6412079"><ele>600.0</ele><time>2026-05-03T12:40:34.71Z</time></trkpt><trkpt lat="44.6136859" lon="9.6409894"><ele>602.0</ele><time>2026-05-03T12:40:35.702Z</time></trkpt><trkpt lat="44.6136754" lon="9.6408416"><ele>604.0</ele><time>2026-05-03T12:40:36.679Z</time></trkpt><trkpt lat="44.6136329" lon="9.6406634"><ele>606.0</ele><time>2026-05-03T12:40:37.704Z</time></trkpt><trkpt lat="44.6136324" lon="9.6405613"><ele>606.0</ele><time>2026-05-03T12:40:38.698Z</time></trkpt><trkpt lat="44.6136396" lon="9.6404313"><ele>606.0</ele><time>2026-05-03T12:40:39.712Z</time></trkpt><trkpt lat="44.6136982" lon="9.640324"><ele>606.0</ele><time>2026-05-03T12:40:41.693Z</time></trkpt><trkpt lat="44.6137526" lon="9.6402619"><ele>606.0</ele><time>2026-05-03T12:40:42.667Z</time></trkpt><trkpt lat="44.6137588" lon="9.6403658"><ele>606.0</ele><time>2026-05-03T12:40:43.664Z</time></trkpt><trkpt lat="44.613784" lon="9.6405893"><ele>606.0</ele><time>2026-05-03T12:40:44.677Z</time></trkpt><trkpt lat="44.6138655" lon="9.6408911"><ele>606.0</ele><time>2026-05-03T12:40:45.667Z</time></trkpt><trkpt lat="44.613971" lon="9.6412484"><ele>602.0</ele><time>2026-05-03T12:40:46.672Z</time></trkpt><trkpt lat="44.6140919" lon="9.6415786"><ele>598.0</ele><time>2026-05-03T12:40:47.681Z</time></trkpt><trkpt lat="44.6142244" lon="9.6419742"><ele>594.0</ele><time>2026-05-03T12:40:48.688Z</time></trkpt><trkpt lat="44.6143079" lon="9.6423046"><ele>590.0</ele><time>2026-05-03T12:40:49.696Z</time></trkpt><trkpt lat="44.6143877" lon="9.6425774"><ele>594.0</ele><time>2026-05-03T12:40:50.694Z</time></trkpt><trkpt lat="44.6144971" lon="9.6427245"><ele>598.0</ele><time>2026-05-03T12:40:51.688Z</time></trkpt><trkpt lat="44.6145997" lon="9.642853"><ele>602.0</ele><time>2026-05-03T12:40:52.684Z</time></trkpt><trkpt lat="44.6146921" lon="9.6429975"><ele>606.0</ele><time>2026-05-03T12:40:53.686Z</time></trkpt><trkpt lat="44.6148391" lon="9.643117"><ele>606.0</ele><time>2026-05-03T12:40:54.698Z</time></trkpt><trkpt lat="44.6149686" lon="9.6432716"><ele>606.0</ele><time>2026-05-03T12:40:55.687Z</time></trkpt><trkpt lat="44.6150971" lon="9.6433563"><ele>606.0</ele><time>2026-05-03T12:40:56.689Z</time></trkpt><trkpt lat="44.6152197" lon="9.6434418"><ele>606.0</ele><time>2026-05-03T12:40:57.683Z</time></trkpt><trkpt lat="44.6152957" lon="9.6434676"><ele>614.25</ele><time>2026-05-03T12:40:58.688Z</time></trkpt><trkpt lat="44.6154032" lon="9.6434837"><ele>622.5</ele><time>2026-05-03T12:40:59.693Z</time></trkpt><trkpt lat="44.6154874" lon="9.6433722"><ele>630.75</ele><time>2026-05-03T12:41:01.675Z</time></trkpt><trkpt lat="44.6154293" lon="9.6432081"><ele>639.0</ele><time>2026-05-03T12:41:02.677Z</time></trkpt><trkpt lat="44.6153883" lon="9.6430812"><ele>636.25</ele><time>2026-05-03T12:41:03.7Z</time></trkpt><trkpt lat="44.6153202" lon="9.6429614"><ele>633.5</ele><time>2026-05-03T12:41:04.711Z</time></trkpt><trkpt lat="44.6152335" lon="9.6428121"><ele>630.75</ele><time>2026-05-03T12:41:05.701Z</time></trkpt><trkpt lat="44.6151368" lon="9.6426372"><ele>628.0</ele><time>2026-05-03T12:41:06.701Z</time></trkpt><trkpt lat="44.6150201" lon="9.6424367"><ele>628.0</ele><time>2026-05-03T12:41:07.681Z</time></trkpt><trkpt lat="44.6148919" lon="9.6422681"><ele>628.0</ele><time>2026-05-03T12:41:08.718Z</time></trkpt><trkpt lat="44.6147909" lon="9.6421135"><ele>628.0</ele><time>2026-05-03T12:41:09.723Z</time></trkpt><trkpt lat="44.6146966" lon="9.6419303"><ele>630.25</ele><time>2026-05-03T12:41:10.714Z</time></trkpt><trkpt lat="44.6146375" lon="9.6417539"><ele>632.5</ele><time>2026-05-03T12:41:11.704Z</time></trkpt><trkpt lat="44.6146107" lon="9.6415715"><ele>634.75</ele><time>2026-05-03T12:41:12.707Z</time></trkpt><trkpt lat="44.6145663" lon="9.641356"><ele>637.0</ele><time>2026-05-03T12:41:13.709Z</time></trkpt><trkpt lat="44.6145457" lon="9.6411034"><ele>636.6666666666667</ele><time>2026-05-03T12:41:14.695Z</time></trkpt><trkpt lat="44.6145581" lon="9.6408025"><ele>636.3333333333334</ele><time>2026-05-03T12:41:15.679Z</time></trkpt><trkpt lat="44.6145949" lon="9.6404856"><ele>636.0</ele><time>2026-05-03T12:41:16.68Z</time></trkpt><trkpt lat="44.6146115" lon="9.6402133"><ele>636.0</ele><time>2026-05-03T12:41:17.709Z</time></trkpt><trkpt lat="44.6146145" lon="9.6400081"><ele>636.0</ele><time>2026-05-03T12:41:18.712Z</time></trkpt><trkpt lat="44.6146363" lon="9.6398649"><ele>636.0</ele><time>2026-05-03T12:41:19.71Z</time></trkpt><trkpt lat="44.6146815" lon="9.6396744"><ele>636.0</ele><time>2026-05-03T12:41:20.705Z</time></trkpt><trkpt lat="44.6147562" lon="9.6394803"><ele>633.25</ele><time>2026-05-03T12:41:21.686Z</time></trkpt><trkpt lat="44.6148589" lon="9.6393964"><ele>630.5</ele><time>2026-05-03T12:41:22.698Z</time></trkpt><trkpt lat="44.6150035" lon="9.6394247"><ele>627.75</ele><time>2026-05-03T12:41:23.674Z</time></trkpt><trkpt lat="44.6150811" lon="9.6392728"><ele>625.0</ele><time>2026-05-03T12:41:24.676Z</time></trkpt><trkpt lat="44.6151753" lon="9.6392639"><ele>625.0</ele><time>2026-05-03T12:41:25.688Z</time></trkpt><trkpt lat="44.6152859" lon="9.6392409"><ele>625.0</ele><time>2026-05-03T12:41:26.668Z</time></trkpt><trkpt lat="44.6153511" lon="9.6392118"><ele>625.0</ele><time>2026-05-03T12:41:27.674Z</time></trkpt><trkpt lat="44.6152944" lon="9.6390479"><ele>625.0</ele><time>2026-05-03T12:41:28.702Z</time></trkpt><trkpt lat="44.6152532" lon="9.6389098"><ele>625.0</ele><time>2026-05-03T12:41:29.705Z</time></trkpt><trkpt lat="44.6152668" lon="9.6388116"><ele>627.75</ele><time>2026-05-03T12:41:30.724Z</time></trkpt><trkpt lat="44.6153218" lon="9.6387028"><ele>630.5</ele><time>2026-05-03T12:41:31.702Z</time></trkpt><trkpt lat="44.6153987" lon="9.6385808"><ele>633.25</ele><time>2026-05-03T12:41:32.707Z</time></trkpt><trkpt lat="44.6155009" lon="9.6383603"><ele>636.0</ele><time>2026-05-03T12:41:33.708Z</time></trkpt><trkpt lat="44.615638" lon="9.6381562"><ele>636.0</ele><time>2026-05-03T12:41:34.707Z</time></trkpt><trkpt lat="44.6157781" lon="9.6379367"><ele>636.0</ele><time>2026-05-03T12:41:35.717Z</time></trkpt><trkpt lat="44.6159191" lon="9.6378317"><ele>636.0</ele><time>2026-05-03T12:41:36.706Z</time></trkpt><trkpt lat="44.6160175" lon="9.6376684"><ele>634.25</ele><time>2026-05-03T12:41:37.703Z</time></trkpt><trkpt lat="44.6161415" lon="9.6376041"><ele>632.5</ele><time>2026-05-03T12:41:38.704Z</time></trkpt><trkpt lat="44.6162334" lon="9.6375059"><ele>630.75</ele><time>2026-05-03T12:41:39.684Z</time></trkpt><trkpt lat="44.6163346" lon="9.6373871"><ele>629.0</ele><time>2026-05-03T12:41:40.685Z</time></trkpt><trkpt lat="44.6163463" lon="9.6371741"><ele>632.6</ele><time>2026-05-03T12:41:41.711Z</time></trkpt><trkpt lat="44.6163314" lon="9.636993"><ele>636.2</ele><time>2026-05-03T12:41:42.706Z</time></trkpt><trkpt lat="44.6163007" lon="9.6368733"><ele>639.8000000000001</ele><time>2026-05-03T12:41:43.685Z</time></trkpt><trkpt lat="44.616318" lon="9.6367258"><ele>643.4</ele><time>2026-05-03T12:41:44.687Z</time></trkpt><trkpt lat="44.6163596" lon="9.636588"><ele>647.0</ele><time>2026-05-03T12:41:45.707Z</time></trkpt><trkpt lat="44.6164464" lon="9.6365229"><ele>647.0</ele><time>2026-05-03T12:41:46.702Z</time></trkpt><trkpt lat="44.6165226" lon="9.6364278"><ele>647.0</ele><time>2026-05-03T12:41:47.676Z</time></trkpt><trkpt lat="44.6166423" lon="9.6364053"><ele>647.0</ele><time>2026-05-03T12:41:48.681Z</time></trkpt><trkpt lat="44.616754" lon="9.6363603"><ele>647.0</ele><time>2026-05-03T12:41:49.68Z</time></trkpt><trkpt lat="44.6168616" lon="9.6363166"><ele>647.0</ele><time>2026-05-03T12:41:50.69Z</time></trkpt><trkpt lat="44.616943" lon="9.6362121"><ele>647.0</ele><time>2026-05-03T12:41:51.7Z</time></trkpt><trkpt lat="44.6170787" lon="9.6361821"><ele>647.0</ele><time>2026-05-03T12:41:52.702Z</time></trkpt><trkpt lat="44.6172074" lon="9.6361144"><ele>647.0</ele><time>2026-05-03T12:41:53.703Z</time></trkpt><trkpt lat="44.6172745" lon="9.6359351"><ele>650.3333333333333</ele><time>2026-05-03T12:41:54.685Z</time></trkpt><trkpt lat="44.6173801" lon="9.6358288"><ele>653.6666666666666</ele><time>2026-05-03T12:41:55.719Z</time></trkpt><trkpt lat="44.6174943" lon="9.6356831"><ele>657.0</ele><time>2026-05-03T12:41:56.701Z</time></trkpt><trkpt lat="44.6175891" lon="9.6354626"><ele>654.3333333333334</ele><time>2026-05-03T12:41:57.7Z</time></trkpt><trkpt lat="44.6176643" lon="9.6352161"><ele>651.6666666666667</ele><time>2026-05-03T12:41:58.701Z</time></trkpt><trkpt lat="44.617674" lon="9.6349747"><ele>649.0</ele><time>2026-05-03T12:41:59.712Z</time></trkpt><trkpt lat="44.6176884" lon="9.6346995"><ele>649.0</ele><time>2026-05-03T12:42:00.72Z</time></trkpt><trkpt lat="44.6177612" lon="9.6345179"><ele>649.0</ele><time>2026-05-03T12:42:01.706Z</time></trkpt><trkpt lat="44.617816" lon="9.6343449"><ele>649.0</ele><time>2026-05-03T12:42:02.711Z</time></trkpt><trkpt lat="44.6179325" lon="9.6342321"><ele>649.0</ele><time>2026-05-03T12:42:03.714Z</time></trkpt><trkpt lat="44.6179689" lon="9.6340457"><ele>650.6</ele><time>2026-05-03T12:42:04.707Z</time></trkpt><trkpt lat="44.6180391" lon="9.6338955"><ele>652.2</ele><time>2026-05-03T12:42:05.714Z</time></trkpt><trkpt lat="44.6181076" lon="9.6338175"><ele>653.8000000000001</ele><time>2026-05-03T12:42:06.698Z</time></trkpt><trkpt lat="44.6180811" lon="9.6337088"><ele>655.4000000000001</ele><time>2026-05-03T12:42:07.702Z</time></trkpt><trkpt lat="44.6179958" lon="9.6335878"><ele>657.0</ele><time>2026-05-03T12:42:08.674Z</time></trkpt><trkpt lat="44.6179022" lon="9.6334454"><ele>654.75</ele><time>2026-05-03T12:42:09.712Z</time></trkpt><trkpt lat="44.6178148" lon="9.6333003"><ele>652.5</ele><time>2026-05-03T12:42:10.72Z</time></trkpt><trkpt lat="44.6177355" lon="9.6331533"><ele>650.25</ele><time>2026-05-03T12:42:11.683Z</time></trkpt><trkpt lat="44.6176506" lon="9.6329902"><ele>648.0</ele><time>2026-05-03T12:42:12.682Z</time></trkpt><trkpt lat="44.6175414" lon="9.6328051"><ele>648.0</ele><time>2026-05-03T12:42:13.704Z</time></trkpt><trkpt lat="44.6174146" lon="9.6326599"><ele>648.0</ele><time>2026-05-03T12:42:14.682Z</time></trkpt><trkpt lat="44.6172962" lon="9.6325277"><ele>648.0</ele><time>2026-05-03T12:42:15.695Z</time></trkpt><trkpt lat="44.6171824" lon="9.6324123"><ele>648.0</ele><time>2026-05-03T12:42:16.706Z</time></trkpt><trkpt lat="44.6170915" lon="9.632326"><ele>648.0</ele><time>2026-05-03T12:42:17.711Z</time></trkpt><trkpt lat="44.616999" lon="9.6322604"><ele>648.0</ele><time>2026-05-03T12:42:18.689Z</time></trkpt><trkpt lat="44.6169515" lon="9.6321682"><ele>648.0</ele><time>2026-05-03T12:42:19.684Z</time></trkpt><trkpt lat="44.616948" lon="9.6320241"><ele>648.0</ele><time>2026-05-03T12:42:20.725Z</time></trkpt><trkpt lat="44.6169763" lon="9.6318057"><ele>648.0</ele><time>2026-05-03T12:42:21.714Z</time></trkpt><trkpt lat="44.6170126" lon="9.6316472"><ele>648.0</ele><time>2026-05-03T12:42:22.693Z</time></trkpt><trkpt lat="44.6171037" lon="9.6315197"><ele>648.0</ele><time>2026-05-03T12:42:23.696Z</time></trkpt><trkpt lat="44.6171945" lon="9.6313944"><ele>648.0</ele><time>2026-05-03T12:42:24.686Z</time></trkpt><trkpt lat="44.6173011" lon="9.6312825"><ele>648.0</ele><time>2026-05-03T12:42:25.698Z</time></trkpt><trkpt lat="44.6174033" lon="9.6311967"><ele>648.0</ele><time>2026-05-03T12:42:26.683Z</time></trkpt><trkpt lat="44.6175109" lon="9.6311322"><ele>648.0</ele><time>2026-05-03T12:42:27.686Z</time></trkpt><trkpt lat="44.617624" lon="9.6311178"><ele>648.0</ele><time>2026-05-03T12:42:28.676Z</time></trkpt><trkpt lat="44.6177435" lon="9.6311917"><ele>649.0</ele><time>2026-05-03T12:42:29.672Z</time></trkpt><trkpt lat="44.6178801" lon="9.6312763"><ele>650.0</ele><time>2026-05-03T12:42:30.691Z</time></trkpt><trkpt lat="44.6180242" lon="9.6313915"><ele>651.0</ele><time>2026-05-03T12:42:31.674Z</time></trkpt><trkpt lat="44.6181627" lon="9.6314785"><ele>651.0</ele><time>2026-05-03T12:42:32.681Z</time></trkpt><trkpt lat="44.6183213" lon="9.6315427"><ele>651.0</ele><time>2026-05-03T12:42:33.675Z</time></trkpt><trkpt lat="44.6184661" lon="9.6315127"><ele>651.0</ele><time>2026-05-03T12:42:34.678Z</time></trkpt><trkpt lat="44.6186312" lon="9.6314673"><ele>656.3333333333334</ele><time>2026-05-03T12:42:35.687Z</time></trkpt><trkpt lat="44.6187927" lon="9.6314198"><ele>661.6666666666667</ele><time>2026-05-03T12:42:36.665Z</time></trkpt><trkpt lat="44.6189727" lon="9.6313412"><ele>667.0</ele><time>2026-05-03T12:42:37.666Z</time></trkpt><trkpt lat="44.6191679" lon="9.6312091"><ele>661.0</ele><time>2026-05-03T12:42:38.663Z</time></trkpt><trkpt lat="44.6193746" lon="9.630999"><ele>655.0</ele><time>2026-05-03T12:42:39.668Z</time></trkpt><trkpt lat="44.6195819" lon="9.6307372"><ele>662.5</ele><time>2026-05-03T12:42:40.692Z</time></trkpt><trkpt lat="44.6197456" lon="9.6304369"><ele>670.0</ele><time>2026-05-03T12:42:41.672Z</time></trkpt><trkpt lat="44.6198664" lon="9.6301104"><ele>670.0</ele><time>2026-05-03T12:42:42.669Z</time></trkpt><trkpt lat="44.6199616" lon="9.6297978"><ele>670.0</ele><time>2026-05-03T12:42:43.668Z</time></trkpt><trkpt lat="44.6200408" lon="9.6294763"><ele>672.6666666666667</ele><time>2026-05-03T12:42:44.677Z</time></trkpt><trkpt lat="44.6201521" lon="9.62921"><ele>675.3333333333334</ele><time>2026-05-03T12:42:45.688Z</time></trkpt><trkpt lat="44.6202746" lon="9.6289872"><ele>678.0</ele><time>2026-05-03T12:42:46.675Z</time></trkpt><trkpt lat="44.6204256" lon="9.6288194"><ele>678.0</ele><time>2026-05-03T12:42:47.679Z</time></trkpt><trkpt lat="44.620586" lon="9.6286677"><ele>678.0</ele><time>2026-05-03T12:42:48.675Z</time></trkpt><trkpt lat="44.6207287" lon="9.6285407"><ele>678.0</ele><time>2026-05-03T12:42:49.673Z</time></trkpt><trkpt lat="44.6208425" lon="9.6284297"><ele>678.0</ele><time>2026-05-03T12:42:50.68Z</time></trkpt><trkpt lat="44.6209265" lon="9.6283519"><ele>678.0</ele><time>2026-05-03T12:42:51.67Z</time></trkpt><trkpt lat="44.620988" lon="9.6283291"><ele>678.0</ele><time>2026-05-03T12:42:52.672Z</time></trkpt><trkpt lat="44.6210498" lon="9.6283854"><ele>678.0</ele><time>2026-05-03T12:42:53.666Z</time></trkpt><trkpt lat="44.6211071" lon="9.6284736"><ele>678.0</ele><time>2026-05-03T12:42:54.665Z</time></trkpt><trkpt lat="44.6211214" lon="9.6286374"><ele>678.0</ele><time>2026-05-03T12:42:55.675Z</time></trkpt><trkpt lat="44.6210728" lon="9.6288997"><ele>678.0</ele><time>2026-05-03T12:42:56.664Z</time></trkpt><trkpt lat="44.6209549" lon="9.6291578"><ele>678.0</ele><time>2026-05-03T12:42:57.666Z</time></trkpt><trkpt lat="44.620846" lon="9.6294069"><ele>678.0</ele><time>2026-05-03T12:42:58.666Z</time></trkpt><trkpt lat="44.6207455" lon="9.6296648"><ele>684.5</ele><time>2026-05-03T12:42:59.667Z</time></trkpt><trkpt lat="44.620634" lon="9.6299356"><ele>691.0</ele><time>2026-05-03T12:43:00.663Z</time></trkpt><trkpt lat="44.6205314" lon="9.6302336"><ele>699.5</ele><time>2026-05-03T12:43:01.678Z</time></trkpt><trkpt lat="44.6204281" lon="9.6305335"><ele>708.0</ele><time>2026-05-03T12:43:02.675Z</time></trkpt><trkpt lat="44.6203255" lon="9.6308182"><ele>701.3333333333334</ele><time>2026-05-03T12:43:03.67Z</time></trkpt><trkpt lat="44.6202245" lon="9.6310834"><ele>694.6666666666667</ele><time>2026-05-03T12:43:04.67Z</time></trkpt><trkpt lat="44.6201163" lon="9.6313147"><ele>688.0</ele><time>2026-05-03T12:43:05.678Z</time></trkpt><trkpt lat="44.6200177" lon="9.6315343"><ele>688.0</ele><time>2026-05-03T12:43:06.686Z</time></trkpt><trkpt lat="44.6199398" lon="9.6317521"><ele>688.0</ele><time>2026-05-03T12:43:07.67Z</time></trkpt><trkpt lat="44.6198688" lon="9.6319609"><ele>688.0</ele><time>2026-05-03T12:43:08.68Z</time></trkpt><trkpt lat="44.6197968" lon="9.6321629"><ele>692.0</ele><time>2026-05-03T12:43:09.683Z</time></trkpt><trkpt lat="44.6197282" lon="9.6323809"><ele>696.0</ele><time>2026-05-03T12:43:10.689Z</time></trkpt><trkpt lat="44.6196737" lon="9.6326158"><ele>700.0</ele><time>2026-05-03T12:43:11.702Z</time></trkpt><trkpt lat="44.6196093" lon="9.6328256"><ele>702.0</ele><time>2026-05-03T12:43:12.688Z</time></trkpt><trkpt lat="44.6195351" lon="9.6330311"><ele>704.0</ele><time>2026-05-03T12:43:13.69Z</time></trkpt><trkpt lat="44.6194781" lon="9.6332476"><ele>706.0</ele><time>2026-05-03T12:43:14.687Z</time></trkpt><trkpt lat="44.6194204" lon="9.6334602"><ele>702.0</ele><time>2026-05-03T12:43:15.687Z</time></trkpt><trkpt lat="44.6193343" lon="9.6336361"><ele>698.0</ele><time>2026-05-03T12:43:16.699Z</time></trkpt><trkpt lat="44.6192493" lon="9.633807"><ele>694.0</ele><time>2026-05-03T12:43:17.681Z</time></trkpt><trkpt lat="44.6191739" lon="9.6339826"><ele>690.0</ele><time>2026-05-03T12:43:18.681Z</time></trkpt><trkpt lat="44.6191329" lon="9.6341775"><ele>690.0</ele><time>2026-05-03T12:43:19.678Z</time></trkpt><trkpt lat="44.6191335" lon="9.6343821"><ele>690.0</ele><time>2026-05-03T12:43:20.682Z</time></trkpt><trkpt lat="44.6191739" lon="9.6346104"><ele>690.0</ele><time>2026-05-03T12:43:21.694Z</time></trkpt><trkpt lat="44.6192082" lon="9.6348501"><ele>692.3333333333334</ele><time>2026-05-03T12:43:22.681Z</time></trkpt><trkpt lat="44.6191894" lon="9.6350943"><ele>694.6666666666667</ele><time>2026-05-03T12:43:23.69Z</time></trkpt><trkpt lat="44.6191547" lon="9.6353537"><ele>697.0</ele><time>2026-05-03T12:43:24.686Z</time></trkpt><trkpt lat="44.6191114" lon="9.6356074"><ele>701.6666666666667</ele><time>2026-05-03T12:43:25.689Z</time></trkpt><trkpt lat="44.6190647" lon="9.6358383"><ele>706.3333333333334</ele><time>2026-05-03T12:43:26.703Z</time></trkpt><trkpt lat="44.6190121" lon="9.6360677"><ele>711.0</ele><time>2026-05-03T12:43:27.691Z</time></trkpt><trkpt lat="44.6189518" lon="9.6362694"><ele>713.6666666666666</ele><time>2026-05-03T12:43:28.687Z</time></trkpt><trkpt lat="44.6188869" lon="9.6364666"><ele>716.3333333333333</ele><time>2026-05-03T12:43:29.685Z</time></trkpt><trkpt lat="44.6188509" lon="9.6366728"><ele>719.0</ele><time>2026-05-03T12:43:30.689Z</time></trkpt><trkpt lat="44.6188373" lon="9.6369036"><ele>721.3333333333333</ele><time>2026-05-03T12:43:31.701Z</time></trkpt><trkpt lat="44.6188477" lon="9.6371356"><ele>723.6666666666666</ele><time>2026-05-03T12:43:32.696Z</time></trkpt><trkpt lat="44.6188666" lon="9.6373398"><ele>726.0</ele><time>2026-05-03T12:43:33.684Z</time></trkpt><trkpt lat="44.6188651" lon="9.6375389"><ele>726.0</ele><time>2026-05-03T12:43:34.682Z</time></trkpt><trkpt lat="44.6188014" lon="9.6376859"><ele>726.0</ele><time>2026-05-03T12:43:35.682Z</time></trkpt><trkpt lat="44.6187037" lon="9.6378093"><ele>726.0</ele><time>2026-05-03T12:43:36.69Z</time></trkpt><trkpt lat="44.6185863" lon="9.6379161"><ele>726.0</ele><time>2026-05-03T12:43:37.679Z</time></trkpt><trkpt lat="44.6184434" lon="9.6379736"><ele>723.5</ele><time>2026-05-03T12:43:38.686Z</time></trkpt><trkpt lat="44.6183198" lon="9.638045"><ele>721.0</ele><time>2026-05-03T12:43:39.682Z</time></trkpt><trkpt lat="44.618209" lon="9.638132"><ele>718.5</ele><time>2026-05-03T12:43:40.679Z</time></trkpt><trkpt lat="44.6181259" lon="9.6382645"><ele>716.0</ele><time>2026-05-03T12:43:41.689Z</time></trkpt><trkpt lat="44.6180796" lon="9.63841"><ele>716.0</ele><time>2026-05-03T12:43:42.69Z</time></trkpt><trkpt lat="44.6180759" lon="9.6385719"><ele>716.0</ele><time>2026-05-03T12:43:43.68Z</time></trkpt><trkpt lat="44.6181067" lon="9.6387665"><ele>716.0</ele><time>2026-05-03T12:43:44.681Z</time></trkpt><trkpt lat="44.6181617" lon="9.6390001"><ele>716.0</ele><time>2026-05-03T12:43:45.682Z</time></trkpt><trkpt lat="44.618223" lon="9.6392511"><ele>718.3333333333333</ele><time>2026-05-03T12:43:46.687Z</time></trkpt><trkpt lat="44.618277" lon="9.6394961"><ele>720.6666666666666</ele><time>2026-05-03T12:43:47.68Z</time></trkpt><trkpt lat="44.6183341" lon="9.6397487"><ele>723.0</ele><time>2026-05-03T12:43:48.685Z</time></trkpt><trkpt lat="44.6183771" lon="9.6399882"><ele>723.0</ele><time>2026-05-03T12:43:49.687Z</time></trkpt><trkpt lat="44.6183975" lon="9.640233"><ele>723.0</ele><time>2026-05-03T12:43:50.688Z</time></trkpt><trkpt lat="44.618409" lon="9.6404585"><ele>723.0</ele><time>2026-05-03T12:43:51.702Z</time></trkpt><trkpt lat="44.6183704" lon="9.6406634"><ele>726.0</ele><time>2026-05-03T12:43:52.68Z</time></trkpt><trkpt lat="44.6182909" lon="9.6408531"><ele>729.0</ele><time>2026-05-03T12:43:53.691Z</time></trkpt><trkpt lat="44.6181711" lon="9.6410356"><ele>732.0</ele><time>2026-05-03T12:43:54.697Z</time></trkpt><trkpt lat="44.6180091" lon="9.6412104"><ele>731.6666666666666</ele><time>2026-05-03T12:43:55.684Z</time></trkpt><trkpt lat="44.617848" lon="9.6413434"><ele>731.3333333333333</ele><time>2026-05-03T12:43:56.695Z</time></trkpt><trkpt lat="44.6176587" lon="9.6414261"><ele>731.0</ele><time>2026-05-03T12:43:57.679Z</time></trkpt><trkpt lat="44.6175029" lon="9.6415159"><ele>731.0</ele><time>2026-05-03T12:43:58.68Z</time></trkpt><trkpt lat="44.617352" lon="9.6415805"><ele>731.0</ele><time>2026-05-03T12:43:59.685Z</time></trkpt><trkpt lat="44.6172345" lon="9.6416715"><ele>731.0</ele><time>2026-05-03T12:44:00.679Z</time></trkpt><trkpt lat="44.6172246" lon="9.6418114"><ele>731.0</ele><time>2026-05-03T12:44:01.68Z</time></trkpt><trkpt lat="44.6172571" lon="9.6419569"><ele>728.5</ele><time>2026-05-03T12:44:02.703Z</time></trkpt><trkpt lat="44.6173436" lon="9.6421006"><ele>726.0</ele><time>2026-05-03T12:44:03.68Z</time></trkpt><trkpt lat="44.6174609" lon="9.6422425"><ele>723.5</ele><time>2026-05-03T12:44:04.683Z</time></trkpt><trkpt lat="44.6175823" lon="9.6423671"><ele>721.0</ele><time>2026-05-03T12:44:05.677Z</time></trkpt><trkpt lat="44.6176989" lon="9.6425176"><ele>725.6666666666667</ele><time>2026-05-03T12:44:06.688Z</time></trkpt><trkpt lat="44.6178324" lon="9.6427034"><ele>730.3333333333334</ele><time>2026-05-03T12:44:07.694Z</time></trkpt><trkpt lat="44.6179736" lon="9.6428895"><ele>735.0</ele><time>2026-05-03T12:44:08.681Z</time></trkpt><trkpt lat="44.6181178" lon="9.6430494"><ele>735.0</ele><time>2026-05-03T12:44:09.679Z</time></trkpt><trkpt lat="44.6182525" lon="9.6431621"><ele>735.0</ele><time>2026-05-03T12:44:10.681Z</time></trkpt><trkpt lat="44.618384" lon="9.6432323"><ele>735.0</ele><time>2026-05-03T12:44:11.668Z</time></trkpt><trkpt lat="44.6185352" lon="9.6432378"><ele>735.0</ele><time>2026-05-03T12:44:12.671Z</time></trkpt><trkpt lat="44.6186911" lon="9.6431404"><ele>734.6666666666666</ele><time>2026-05-03T12:44:13.669Z</time></trkpt><trkpt lat="44.6188375" lon="9.6429758"><ele>734.3333333333333</ele><time>2026-05-03T12:44:14.645Z</time></trkpt><trkpt lat="44.6189713" lon="9.6427761"><ele>734.0</ele><time>2026-05-03T12:44:15.644Z</time></trkpt><trkpt lat="44.6191121" lon="9.6425954"><ele>739.6666666666666</ele><time>2026-05-03T12:44:16.659Z</time></trkpt><trkpt lat="44.6192734" lon="9.6424566"><ele>745.3333333333334</ele><time>2026-05-03T12:44:17.673Z</time></trkpt><trkpt lat="44.6194491" lon="9.6423557"><ele>751.0</ele><time>2026-05-03T12:44:18.666Z</time></trkpt><trkpt lat="44.6196381" lon="9.6422846"><ele>751.3333333333334</ele><time>2026-05-03T12:44:19.668Z</time></trkpt><trkpt lat="44.6198393" lon="9.6422169"><ele>751.6666666666666</ele><time>2026-05-03T12:44:20.677Z</time></trkpt><trkpt lat="44.6200451" lon="9.6421852"><ele>752.0</ele><time>2026-05-03T12:44:21.676Z</time></trkpt><trkpt lat="44.6202415" lon="9.6421667"><ele>755.3333333333333</ele><time>2026-05-03T12:44:22.692Z</time></trkpt><trkpt lat="44.6204279" lon="9.6421919"><ele>758.6666666666666</ele><time>2026-05-03T12:44:23.678Z</time></trkpt><trkpt lat="44.6205996" lon="9.6422257"><ele>762.0</ele><time>2026-05-03T12:44:24.678Z</time></trkpt><trkpt lat="44.6207329" lon="9.6422991"><ele>762.0</ele><time>2026-05-03T12:44:25.676Z</time></trkpt><trkpt lat="44.6208311" lon="9.6424753"><ele>762.0</ele><time>2026-05-03T12:44:26.678Z</time></trkpt><trkpt lat="44.6209346" lon="9.6428238"><ele>762.0</ele><time>2026-05-03T12:44:27.669Z</time></trkpt><trkpt lat="44.6210768" lon="9.6431619"><ele>763.5</ele><time>2026-05-03T12:44:28.665Z</time></trkpt><trkpt lat="44.6212115" lon="9.6434929"><ele>765.0</ele><time>2026-05-03T12:44:29.679Z</time></trkpt><trkpt lat="44.6213245" lon="9.6437771"><ele>765.0</ele><time>2026-05-03T12:44:30.671Z</time></trkpt><trkpt lat="44.6214393" lon="9.6440614"><ele>765.0</ele><time>2026-05-03T12:44:31.672Z</time></trkpt><trkpt lat="44.6215443" lon="9.6443328"><ele>764.3333333333334</ele><time>2026-05-03T12:44:32.678Z</time></trkpt><trkpt lat="44.6216345" lon="9.6445845"><ele>763.6666666666667</ele><time>2026-05-03T12:44:33.672Z</time></trkpt><trkpt lat="44.6217251" lon="9.6448095"><ele>763.0</ele><time>2026-05-03T12:44:34.671Z</time></trkpt><trkpt lat="44.6217946" lon="9.6450465"><ele>763.0</ele><time>2026-05-03T12:44:35.673Z</time></trkpt><trkpt lat="44.6219024" lon="9.6452624"><ele>763.0</ele><time>2026-05-03T12:44:36.674Z</time></trkpt><trkpt lat="44.6220038" lon="9.6454682"><ele>763.0</ele><time>2026-05-03T12:44:37.675Z</time></trkpt><trkpt lat="44.6221395" lon="9.6456264"><ele>763.6666666666667</ele><time>2026-05-03T12:44:38.667Z</time></trkpt><trkpt lat="44.6222757" lon="9.6457256"><ele>764.3333333333334</ele><time>2026-05-03T12:44:39.674Z</time></trkpt><trkpt lat="44.6224745" lon="9.6458119"><ele>765.0</ele><time>2026-05-03T12:44:40.672Z</time></trkpt><trkpt lat="44.6227062" lon="9.6459019"><ele>768.6666666666667</ele><time>2026-05-03T12:44:41.675Z</time></trkpt><trkpt lat="44.6229135" lon="9.6460075"><ele>772.3333333333334</ele><time>2026-05-03T12:44:42.678Z</time></trkpt><trkpt lat="44.6231079" lon="9.6461108"><ele>776.0</ele><time>2026-05-03T12:44:43.682Z</time></trkpt><trkpt lat="44.6233155" lon="9.6462222"><ele>776.0</ele><time>2026-05-03T12:44:44.682Z</time></trkpt><trkpt lat="44.6235169" lon="9.6463376"><ele>776.0</ele><time>2026-05-03T12:44:45.678Z</time></trkpt><trkpt lat="44.623727" lon="9.6464706"><ele>776.0</ele><time>2026-05-03T12:44:46.681Z</time></trkpt><trkpt lat="44.623932" lon="9.6466156"><ele>777.3333333333334</ele><time>2026-05-03T12:44:47.683Z</time></trkpt><trkpt lat="44.6241296" lon="9.6467619"><ele>778.6666666666667</ele><time>2026-05-03T12:44:48.68Z</time></trkpt><trkpt lat="44.6243118" lon="9.6468927"><ele>780.0</ele><time>2026-05-03T12:44:49.685Z</time></trkpt><trkpt lat="44.6244798" lon="9.6470201"><ele>783.0</ele><time>2026-05-03T12:44:50.684Z</time></trkpt><trkpt lat="44.6246381" lon="9.647173"><ele>786.0</ele><time>2026-05-03T12:44:51.68Z</time></trkpt><trkpt lat="44.6248015" lon="9.6473436"><ele>789.0</ele><time>2026-05-03T12:44:52.677Z</time></trkpt><trkpt lat="44.6249628" lon="9.6475201"><ele>789.0</ele><time>2026-05-03T12:44:53.685Z</time></trkpt><trkpt lat="44.6251247" lon="9.647701"><ele>789.0</ele><time>2026-05-03T12:44:54.685Z</time></trkpt><trkpt lat="44.6252914" lon="9.6478789"><ele>789.0</ele><time>2026-05-03T12:44:55.683Z</time></trkpt><trkpt lat="44.6254541" lon="9.6480457"><ele>791.6666666666667</ele><time>2026-05-03T12:44:56.683Z</time></trkpt><trkpt lat="44.6256048" lon="9.6482052"><ele>794.3333333333334</ele><time>2026-05-03T12:44:57.674Z</time></trkpt><trkpt lat="44.6257397" lon="9.6483588"><ele>797.0</ele><time>2026-05-03T12:44:58.668Z</time></trkpt><trkpt lat="44.6258498" lon="9.6485197"><ele>795.0</ele><time>2026-05-03T12:44:59.664Z</time></trkpt><trkpt lat="44.6259147" lon="9.6487138"><ele>793.0</ele><time>2026-05-03T12:45:00.655Z</time></trkpt><trkpt lat="44.6259404" lon="9.6489337"><ele>791.0</ele><time>2026-05-03T12:45:01.649Z</time></trkpt><trkpt lat="44.6259499" lon="9.6491617"><ele>791.0</ele><time>2026-05-03T12:45:02.652Z</time></trkpt><trkpt lat="44.6259531" lon="9.649384"><ele>791.0</ele><time>2026-05-03T12:45:03.649Z</time></trkpt><trkpt lat="44.6259542" lon="9.6495914"><ele>791.0</ele><time>2026-05-03T12:45:04.659Z</time></trkpt><trkpt lat="44.6259512" lon="9.6497837"><ele>791.0</ele><time>2026-05-03T12:45:05.649Z</time></trkpt><trkpt lat="44.6259566" lon="9.6499791"><ele>790.25</ele><time>2026-05-03T12:45:06.642Z</time></trkpt><trkpt lat="44.6259797" lon="9.650157"><ele>789.5</ele><time>2026-05-03T12:45:07.641Z</time></trkpt><trkpt lat="44.6260621" lon="9.6502488"><ele>788.75</ele><time>2026-05-03T12:45:08.642Z</time></trkpt><trkpt lat="44.6261874" lon="9.6502653"><ele>788.0</ele><time>2026-05-03T12:45:09.64Z</time></trkpt><trkpt lat="44.6263199" lon="9.6502602"><ele>791.5</ele><time>2026-05-03T12:45:10.626Z</time></trkpt><trkpt lat="44.6263951" lon="9.6501608"><ele>795.0</ele><time>2026-05-03T12:45:11.627Z</time></trkpt><trkpt lat="44.6264505" lon="9.6499817"><ele>798.5</ele><time>2026-05-03T12:45:12.631Z</time></trkpt><trkpt lat="44.6264673" lon="9.64976"><ele>802.0</ele><time>2026-05-03T12:45:13.618Z</time></trkpt><trkpt lat="44.6263544" lon="9.6492077"><ele>799.5</ele><time>2026-05-03T12:45:14.658Z</time></trkpt><trkpt lat="44.6262473" lon="9.6488635"><ele>797.0</ele><time>2026-05-03T12:45:15.674Z</time></trkpt><trkpt lat="44.6261313" lon="9.6485327"><ele>797.0</ele><time>2026-05-03T12:45:16.671Z</time></trkpt><trkpt lat="44.6260713" lon="9.6481982"><ele>797.0</ele><time>2026-05-03T12:45:17.675Z</time></trkpt><trkpt lat="44.626033" lon="9.6479137"><ele>799.3333333333334</ele><time>2026-05-03T12:45:18.673Z</time></trkpt><trkpt lat="44.6260007" lon="9.647626"><ele>801.6666666666667</ele><time>2026-05-03T12:45:19.675Z</time></trkpt><trkpt lat="44.6259774" lon="9.6473462"><ele>804.0</ele><time>2026-05-03T12:45:20.676Z</time></trkpt><trkpt lat="44.6260187" lon="9.6470746"><ele>805.3333333333333</ele><time>2026-05-03T12:45:21.672Z</time></trkpt><trkpt lat="44.6260911" lon="9.6467631"><ele>806.6666666666666</ele><time>2026-05-03T12:45:22.672Z</time></trkpt><trkpt lat="44.6261523" lon="9.6464816"><ele>808.0</ele><time>2026-05-03T12:45:23.651Z</time></trkpt><trkpt lat="44.6261924" lon="9.646201"><ele>808.3333333333333</ele><time>2026-05-03T12:45:24.675Z</time></trkpt><trkpt lat="44.6261552" lon="9.6459051"><ele>808.6666666666667</ele><time>2026-05-03T12:45:25.675Z</time></trkpt><trkpt lat="44.6260961" lon="9.6456324"><ele>809.0</ele><time>2026-05-03T12:45:26.682Z</time></trkpt><trkpt lat="44.6260572" lon="9.6453559"><ele>812.3333333333334</ele><time>2026-05-03T12:45:27.677Z</time></trkpt><trkpt lat="44.6259738" lon="9.6451013"><ele>815.6666666666667</ele><time>2026-05-03T12:45:28.675Z</time></trkpt><trkpt lat="44.6259006" lon="9.6448743"><ele>819.0</ele><time>2026-05-03T12:45:29.678Z</time></trkpt><trkpt lat="44.6257929" lon="9.6446511"><ele>824.0</ele><time>2026-05-03T12:45:30.678Z</time></trkpt><trkpt lat="44.6256661" lon="9.6443806"><ele>829.0</ele><time>2026-05-03T12:45:31.675Z</time></trkpt><trkpt lat="44.6255397" lon="9.6441621"><ele>834.0</ele><time>2026-05-03T12:45:32.685Z</time></trkpt><trkpt lat="44.6254146" lon="9.6439236"><ele>832.6666666666667</ele><time>2026-05-03T12:45:33.673Z</time></trkpt><trkpt lat="44.6252864" lon="9.6436638"><ele>831.3333333333334</ele><time>2026-05-03T12:45:34.68Z</time></trkpt><trkpt lat="44.6251418" lon="9.6434249"><ele>830.0</ele><time>2026-05-03T12:45:35.678Z</time></trkpt><trkpt lat="44.6250024" lon="9.6431861"><ele>830.0</ele><time>2026-05-03T12:45:36.675Z</time></trkpt><trkpt lat="44.6248779" lon="9.6429927"><ele>830.0</ele><time>2026-05-03T12:45:37.674Z</time></trkpt><trkpt lat="44.6247592" lon="9.6428087"><ele>830.0</ele><time>2026-05-03T12:45:38.674Z</time></trkpt><trkpt lat="44.6246492" lon="9.6426209"><ele>831.0</ele><time>2026-05-03T12:45:39.675Z</time></trkpt><trkpt lat="44.624545" lon="9.6423934"><ele>832.0</ele><time>2026-05-03T12:45:40.647Z</time></trkpt><trkpt lat="44.6244418" lon="9.6421252"><ele>833.0</ele><time>2026-05-03T12:45:41.647Z</time></trkpt><trkpt lat="44.624376" lon="9.6418797"><ele>833.0</ele><time>2026-05-03T12:45:42.673Z</time></trkpt><trkpt lat="44.6242946" lon="9.641597"><ele>833.0</ele><time>2026-05-03T12:45:43.67Z</time></trkpt><trkpt lat="44.6242162" lon="9.6413305"><ele>833.0</ele><time>2026-05-03T12:45:44.677Z</time></trkpt><trkpt lat="44.6241683" lon="9.6410834"><ele>836.3333333333334</ele><time>2026-05-03T12:45:45.672Z</time></trkpt><trkpt lat="44.6241441" lon="9.6408325"><ele>839.6666666666667</ele><time>2026-05-03T12:45:46.678Z</time></trkpt><trkpt lat="44.6240847" lon="9.6406399"><ele>843.0</ele><time>2026-05-03T12:45:47.674Z</time></trkpt><trkpt lat="44.6240276" lon="9.640466"><ele>843.0</ele><time>2026-05-03T12:45:48.671Z</time></trkpt><trkpt lat="44.6239684" lon="9.6403158"><ele>843.0</ele><time>2026-05-03T12:45:49.673Z</time></trkpt><trkpt lat="44.6238949" lon="9.6402029"><ele>843.0</ele><time>2026-05-03T12:45:50.675Z</time></trkpt><trkpt lat="44.6237822" lon="9.6401093"><ele>843.0</ele><time>2026-05-03T12:45:51.645Z</time></trkpt><trkpt lat="44.6236164" lon="9.6400494"><ele>844.6666666666667</ele><time>2026-05-03T12:45:52.648Z</time></trkpt><trkpt lat="44.6234565" lon="9.6400005"><ele>846.3333333333334</ele><time>2026-05-03T12:45:53.676Z</time></trkpt><trkpt lat="44.6233092" lon="9.6399252"><ele>848.0</ele><time>2026-05-03T12:45:54.67Z</time></trkpt><trkpt lat="44.6231738" lon="9.639842"><ele>848.0</ele><time>2026-05-03T12:45:55.674Z</time></trkpt><trkpt lat="44.6230525" lon="9.6397597"><ele>848.0</ele><time>2026-05-03T12:45:56.643Z</time></trkpt><trkpt lat="44.6230464" lon="9.6395254"><ele>848.0</ele><time>2026-05-03T12:45:57.654Z</time></trkpt><trkpt lat="44.622989" lon="9.6393676"><ele>848.0</ele><time>2026-05-03T12:45:58.695Z</time></trkpt><trkpt lat="44.6230644" lon="9.6391227"><ele>852.6666666666667</ele><time>2026-05-03T12:45:59.677Z</time></trkpt><trkpt lat="44.6230959" lon="9.6388523"><ele>857.3333333333333</ele><time>2026-05-03T12:46:00.68Z</time></trkpt><trkpt lat="44.6231165" lon="9.6385414"><ele>862.0</ele><time>2026-05-03T12:46:01.677Z</time></trkpt><trkpt lat="44.6230956" lon="9.6382265"><ele>862.3333333333333</ele><time>2026-05-03T12:46:02.681Z</time></trkpt><trkpt lat="44.6231202" lon="9.6379163"><ele>862.6666666666667</ele><time>2026-05-03T12:46:03.678Z</time></trkpt><trkpt lat="44.6231754" lon="9.6376842"><ele>863.0</ele><time>2026-05-03T12:46:04.671Z</time></trkpt><trkpt lat="44.6232714" lon="9.6374889"><ele>863.0</ele><time>2026-05-03T12:46:05.67Z</time></trkpt><trkpt lat="44.6233598" lon="9.6372979"><ele>863.0</ele><time>2026-05-03T12:46:06.648Z</time></trkpt><trkpt lat="44.6234227" lon="9.6371267"><ele>863.0</ele><time>2026-05-03T12:46:07.647Z</time></trkpt><trkpt lat="44.6233719" lon="9.6369432"><ele>863.0</ele><time>2026-05-03T12:46:08.642Z</time></trkpt><trkpt lat="44.6232331" lon="9.6367488"><ele>864.5</ele><time>2026-05-03T12:46:09.675Z</time></trkpt><trkpt lat="44.62309" lon="9.6366036"><ele>866.0</ele><time>2026-05-03T12:46:10.673Z</time></trkpt><trkpt lat="44.6230262" lon="9.636505"><ele>867.5</ele><time>2026-05-03T12:46:11.678Z</time></trkpt><trkpt lat="44.6230414" lon="9.6364023"><ele>869.0</ele><time>2026-05-03T12:46:12.675Z</time></trkpt><trkpt lat="44.6230677" lon="9.6362488"><ele>867.5</ele><time>2026-05-03T12:46:13.679Z</time></trkpt><trkpt lat="44.6231394" lon="9.6361124"><ele>866.0</ele><time>2026-05-03T12:46:14.65Z</time></trkpt><trkpt lat="44.623241" lon="9.6360228"><ele>864.5</ele><time>2026-05-03T12:46:15.647Z</time></trkpt><trkpt lat="44.6233751" lon="9.6359176"><ele>863.0</ele><time>2026-05-03T12:46:16.649Z</time></trkpt><trkpt lat="44.6235351" lon="9.6359051"><ele>863.0</ele><time>2026-05-03T12:46:17.653Z</time></trkpt><trkpt lat="44.6236106" lon="9.6357518"><ele>863.0</ele><time>2026-05-03T12:46:18.649Z</time></trkpt><trkpt lat="44.6236214" lon="9.6355386"><ele>863.0</ele><time>2026-05-03T12:46:19.672Z</time></trkpt><trkpt lat="44.6236709" lon="9.6353353"><ele>863.0</ele><time>2026-05-03T12:46:20.677Z</time></trkpt><trkpt lat="44.6237849" lon="9.6351827"><ele>872.3333333333334</ele><time>2026-05-03T12:46:21.646Z</time></trkpt><trkpt lat="44.6239137" lon="9.6350073"><ele>881.6666666666667</ele><time>2026-05-03T12:46:22.646Z</time></trkpt><trkpt lat="44.6240205" lon="9.634847"><ele>891.0</ele><time>2026-05-03T12:46:23.643Z</time></trkpt><trkpt lat="44.6240947" lon="9.6346254"><ele>890.6666666666667</ele><time>2026-05-03T12:46:24.644Z</time></trkpt><trkpt lat="44.6241041" lon="9.6343662"><ele>890.3333333333334</ele><time>2026-05-03T12:46:25.669Z</time></trkpt><trkpt lat="44.6240121" lon="9.634068"><ele>890.0</ele><time>2026-05-03T12:46:26.67Z</time></trkpt><trkpt lat="44.6239505" lon="9.6338241"><ele>890.0</ele><time>2026-05-03T12:46:27.68Z</time></trkpt><trkpt lat="44.6238974" lon="9.6336467"><ele>890.0</ele><time>2026-05-03T12:46:28.677Z</time></trkpt><trkpt lat="44.6238466" lon="9.6334008"><ele>890.0</ele><time>2026-05-03T12:46:29.66Z</time></trkpt><trkpt lat="44.6238054" lon="9.6331956"><ele>890.25</ele><time>2026-05-03T12:46:30.68Z</time></trkpt><trkpt lat="44.623858" lon="9.6329789"><ele>890.5</ele><time>2026-05-03T12:46:31.655Z</time></trkpt><trkpt lat="44.6239293" lon="9.6328102"><ele>890.75</ele><time>2026-05-03T12:46:32.69Z</time></trkpt><trkpt lat="44.6240109" lon="9.6326783"><ele>891.0</ele><time>2026-05-03T12:46:33.677Z</time></trkpt><trkpt lat="44.6241647" lon="9.6325786"><ele>892.0</ele><time>2026-05-03T12:46:34.651Z</time></trkpt><trkpt lat="44.6244097" lon="9.632616"><ele>893.0</ele><time>2026-05-03T12:46:35.642Z</time></trkpt><trkpt lat="44.6246359" lon="9.6326026"><ele>893.0</ele><time>2026-05-03T12:46:36.641Z</time></trkpt><trkpt lat="44.6248174" lon="9.6325495"><ele>893.0</ele><time>2026-05-03T12:46:37.641Z</time></trkpt><trkpt lat="44.6249906" lon="9.6324951"><ele>893.0</ele><time>2026-05-03T12:46:38.645Z</time></trkpt><trkpt lat="44.6252175" lon="9.6325056"><ele>900.3333333333334</ele><time>2026-05-03T12:46:39.645Z</time></trkpt><trkpt lat="44.6254107" lon="9.6324591"><ele>907.6666666666667</ele><time>2026-05-03T12:46:40.644Z</time></trkpt><trkpt lat="44.6256217" lon="9.6323527"><ele>915.0</ele><time>2026-05-03T12:46:41.646Z</time></trkpt><trkpt lat="44.6258202" lon="9.6321873"><ele>915.0</ele><time>2026-05-03T12:46:42.646Z</time></trkpt><trkpt lat="44.6259955" lon="9.6320034"><ele>915.0</ele><time>2026-05-03T12:46:43.645Z</time></trkpt><trkpt lat="44.6261763" lon="9.6318298"><ele>915.0</ele><time>2026-05-03T12:46:44.644Z</time></trkpt><trkpt lat="44.6263611" lon="9.6316718"><ele>913.3333333333333</ele><time>2026-05-03T12:46:45.644Z</time></trkpt><trkpt lat="44.6265186" lon="9.6315486"><ele>911.6666666666666</ele><time>2026-05-03T12:46:46.643Z</time></trkpt><trkpt lat="44.626671" lon="9.6314323"><ele>910.0</ele><time>2026-05-03T12:46:47.649Z</time></trkpt><trkpt lat="44.6267694" lon="9.6312794"><ele>910.0</ele><time>2026-05-03T12:46:48.647Z</time></trkpt><trkpt lat="44.6268962" lon="9.6312011"><ele>910.0</ele><time>2026-05-03T12:46:49.643Z</time></trkpt><trkpt lat="44.6270315" lon="9.6311356"><ele>910.0</ele><time>2026-05-03T12:46:50.644Z</time></trkpt><trkpt lat="44.6271414" lon="9.6310737"><ele>910.0</ele><time>2026-05-03T12:46:51.64Z</time></trkpt><trkpt lat="44.6271596" lon="9.6309233"><ele>911.5</ele><time>2026-05-03T12:46:52.645Z</time></trkpt><trkpt lat="44.6271661" lon="9.6308165"><ele>913.0</ele><time>2026-05-03T12:46:53.644Z</time></trkpt><trkpt lat="44.6271183" lon="9.6305701"><ele>914.5</ele><time>2026-05-03T12:46:54.643Z</time></trkpt><trkpt lat="44.6271274" lon="9.6304479"><ele>916.0</ele><time>2026-05-03T12:46:55.653Z</time></trkpt><trkpt lat="44.6271778" lon="9.6303072"><ele>912.25</ele><time>2026-05-03T12:46:56.65Z</time></trkpt><trkpt lat="44.6272668" lon="9.6302147"><ele>908.5</ele><time>2026-05-03T12:46:57.652Z</time></trkpt><trkpt lat="44.6273551" lon="9.6301421"><ele>904.75</ele><time>2026-05-03T12:46:58.65Z</time></trkpt><trkpt lat="44.6274177" lon="9.6300163"><ele>901.0</ele><time>2026-05-03T12:46:59.651Z</time></trkpt><trkpt lat="44.6275792" lon="9.629979"><ele>901.0</ele><time>2026-05-03T12:47:00.642Z</time></trkpt><trkpt lat="44.6277571" lon="9.6299422"><ele>901.0</ele><time>2026-05-03T12:47:01.646Z</time></trkpt><trkpt lat="44.6279683" lon="9.6299083"><ele>901.0</ele><time>2026-05-03T12:47:02.651Z</time></trkpt><trkpt lat="44.6281511" lon="9.6298531"><ele>907.3333333333333</ele><time>2026-05-03T12:47:03.639Z</time></trkpt><trkpt lat="44.6283341" lon="9.6298046"><ele>913.6666666666667</ele><time>2026-05-03T12:47:04.639Z</time></trkpt><trkpt lat="44.6285146" lon="9.6297392"><ele>920.0</ele><time>2026-05-03T12:47:05.64Z</time></trkpt><trkpt lat="44.628697" lon="9.6297124"><ele>920.0</ele><time>2026-05-03T12:47:06.641Z</time></trkpt><trkpt lat="44.6289398" lon="9.6299281"><ele>920.0</ele><time>2026-05-03T12:47:07.647Z</time></trkpt><trkpt lat="44.629127" lon="9.6299322"><ele>920.0</ele><time>2026-05-03T12:47:08.645Z</time></trkpt><trkpt lat="44.6293087" lon="9.6299735"><ele>920.0</ele><time>2026-05-03T12:47:09.647Z</time></trkpt><trkpt lat="44.6294557" lon="9.6300061"><ele>920.0</ele><time>2026-05-03T12:47:10.642Z</time></trkpt><trkpt lat="44.6296099" lon="9.6300038"><ele>923.3333333333334</ele><time>2026-05-03T12:47:11.643Z</time></trkpt><trkpt lat="44.6297381" lon="9.6299496"><ele>926.6666666666667</ele><time>2026-05-03T12:47:12.628Z</time></trkpt><trkpt lat="44.6299096" lon="9.6298533"><ele>930.0</ele><time>2026-05-03T12:47:13.609Z</time></trkpt><trkpt lat="44.6300606" lon="9.6297141"><ele>930.0</ele><time>2026-05-03T12:47:14.609Z</time></trkpt><trkpt lat="44.6301941" lon="9.6295897"><ele>930.0</ele><time>2026-05-03T12:47:15.637Z</time></trkpt><trkpt lat="44.6302913" lon="9.6293982"><ele>930.0</ele><time>2026-05-03T12:47:16.644Z</time></trkpt><trkpt lat="44.6304241" lon="9.6292307"><ele>930.6666666666667</ele><time>2026-05-03T12:47:17.647Z</time></trkpt><trkpt lat="44.6305188" lon="9.6289733"><ele>931.3333333333334</ele><time>2026-05-03T12:47:18.646Z</time></trkpt><trkpt lat="44.630564" lon="9.6287131"><ele>932.0</ele><time>2026-05-03T12:47:19.646Z</time></trkpt><trkpt lat="44.6306015" lon="9.6284759"><ele>932.0</ele><time>2026-05-03T12:47:20.668Z</time></trkpt><trkpt lat="44.6306728" lon="9.628323"><ele>932.0</ele><time>2026-05-03T12:47:21.673Z</time></trkpt><trkpt lat="44.6307626" lon="9.6282222"><ele>932.0</ele><time>2026-05-03T12:47:22.642Z</time></trkpt><trkpt lat="44.6308505" lon="9.6282121"><ele>932.0</ele><time>2026-05-03T12:47:23.647Z</time></trkpt><trkpt lat="44.630946" lon="9.6281621"><ele>932.0</ele><time>2026-05-03T12:47:24.645Z</time></trkpt><trkpt lat="44.6310282" lon="9.6280323"><ele>931.0</ele><time>2026-05-03T12:47:25.626Z</time></trkpt><trkpt lat="44.6311686" lon="9.6281134"><ele>930.0</ele><time>2026-05-03T12:47:26.619Z</time></trkpt><trkpt lat="44.6313801" lon="9.6282816"><ele>929.0</ele><time>2026-05-03T12:47:27.632Z</time></trkpt><trkpt lat="44.6315968" lon="9.6284472"><ele>935.0</ele><time>2026-05-03T12:47:28.64Z</time></trkpt><trkpt lat="44.6318678" lon="9.6287179"><ele>941.0</ele><time>2026-05-03T12:47:29.647Z</time></trkpt><trkpt lat="44.6320525" lon="9.6289037"><ele>945.0</ele><time>2026-05-03T12:47:30.642Z</time></trkpt><trkpt lat="44.632197" lon="9.6289292"><ele>949.0</ele><time>2026-05-03T12:47:31.642Z</time></trkpt><trkpt lat="44.632339" lon="9.6288954"><ele>953.0</ele><time>2026-05-03T12:47:32.655Z</time></trkpt><trkpt lat="44.6325052" lon="9.6287623"><ele>953.0</ele><time>2026-05-03T12:47:33.646Z</time></trkpt><trkpt lat="44.6326852" lon="9.6286588"><ele>953.0</ele><time>2026-05-03T12:47:34.641Z</time></trkpt><trkpt lat="44.6327823" lon="9.6284507"><ele>953.0</ele><time>2026-05-03T12:47:35.649Z</time></trkpt><trkpt lat="44.632906" lon="9.6283286"><ele>956.6666666666667</ele><time>2026-05-03T12:47:36.654Z</time></trkpt><trkpt lat="44.6330689" lon="9.6281583"><ele>960.3333333333333</ele><time>2026-05-03T12:47:37.655Z</time></trkpt><trkpt lat="44.6332454" lon="9.6279963"><ele>964.0</ele><time>2026-05-03T12:47:38.652Z</time></trkpt><trkpt lat="44.6334027" lon="9.6278352"><ele>961.0</ele><time>2026-05-03T12:47:39.653Z</time></trkpt><trkpt lat="44.6334866" lon="9.6275725"><ele>958.0</ele><time>2026-05-03T12:47:40.651Z</time></trkpt><trkpt lat="44.6335552" lon="9.6273236"><ele>955.0</ele><time>2026-05-03T12:47:41.687Z</time></trkpt><trkpt lat="44.6335882" lon="9.6270931"><ele>955.0</ele><time>2026-05-03T12:47:42.684Z</time></trkpt><trkpt lat="44.6336369" lon="9.6268709"><ele>955.0</ele><time>2026-05-03T12:47:43.659Z</time></trkpt><trkpt lat="44.6337474" lon="9.6267221"><ele>955.0</ele><time>2026-05-03T12:47:44.651Z</time></trkpt><trkpt lat="44.6338358" lon="9.6265508"><ele>955.0</ele><time>2026-05-03T12:47:45.639Z</time></trkpt><trkpt lat="44.6339297" lon="9.6264013"><ele>955.0</ele><time>2026-05-03T12:47:46.629Z</time></trkpt><trkpt lat="44.6340437" lon="9.6263203"><ele>955.0</ele><time>2026-05-03T12:47:47.634Z</time></trkpt><trkpt lat="44.6341781" lon="9.6263514"><ele>955.0</ele><time>2026-05-03T12:47:48.63Z</time></trkpt><trkpt lat="44.6342474" lon="9.626337"><ele>955.0</ele><time>2026-05-03T12:47:49.642Z</time></trkpt><trkpt lat="44.6343867" lon="9.6263859"><ele>955.0</ele><time>2026-05-03T12:47:50.637Z</time></trkpt><trkpt lat="44.6345579" lon="9.6264926"><ele>955.0</ele><time>2026-05-03T12:47:51.646Z</time></trkpt><trkpt lat="44.6346551" lon="9.6263976"><ele>955.0</ele><time>2026-05-03T12:47:52.641Z</time></trkpt><trkpt lat="44.6348547" lon="9.6264351"><ele>956.3333333333333</ele><time>2026-05-03T12:47:53.645Z</time></trkpt><trkpt lat="44.6350066" lon="9.6264023"><ele>957.6666666666667</ele><time>2026-05-03T12:47:54.656Z</time></trkpt><trkpt lat="44.6351331" lon="9.6263577"><ele>959.0</ele><time>2026-05-03T12:47:55.657Z</time></trkpt><trkpt lat="44.6354788" lon="9.6267867"><ele>961.0</ele><time>2026-05-03T12:47:56.665Z</time></trkpt><trkpt lat="44.6357245" lon="9.6269696"><ele>963.0</ele><time>2026-05-03T12:47:57.662Z</time></trkpt><trkpt lat="44.6358982" lon="9.627017"><ele>967.0</ele><time>2026-05-03T12:47:58.661Z</time></trkpt><trkpt lat="44.6360296" lon="9.6270466"><ele>971.0</ele><time>2026-05-03T12:47:59.662Z</time></trkpt><trkpt lat="44.6361876" lon="9.6269863"><ele>975.0</ele><time>2026-05-03T12:48:00.662Z</time></trkpt><trkpt lat="44.6363391" lon="9.6269245"><ele>975.6666666666667</ele><time>2026-05-03T12:48:01.658Z</time></trkpt><trkpt lat="44.6364337" lon="9.62684"><ele>976.3333333333334</ele><time>2026-05-03T12:48:02.662Z</time></trkpt><trkpt lat="44.6364855" lon="9.6266822"><ele>977.0</ele><time>2026-05-03T12:48:03.652Z</time></trkpt><trkpt lat="44.6364827" lon="9.6263266"><ele>975.0</ele><time>2026-05-03T12:48:04.655Z</time></trkpt><trkpt lat="44.6364897" lon="9.6259682"><ele>973.0</ele><time>2026-05-03T12:48:05.651Z</time></trkpt><trkpt lat="44.6365191" lon="9.6256377"><ele>972.5</ele><time>2026-05-03T12:48:06.656Z</time></trkpt><trkpt lat="44.6365454" lon="9.6252978"><ele>972.0</ele><time>2026-05-03T12:48:07.654Z</time></trkpt><trkpt lat="44.6365756" lon="9.6249768"><ele>972.0</ele><time>2026-05-03T12:48:08.658Z</time></trkpt><trkpt lat="44.6365871" lon="9.6246898"><ele>972.0</ele><time>2026-05-03T12:48:09.653Z</time></trkpt><trkpt lat="44.6365967" lon="9.6244024"><ele>972.0</ele><time>2026-05-03T12:48:10.655Z</time></trkpt><trkpt lat="44.6365943" lon="9.6241338"><ele>971.6666666666667</ele><time>2026-05-03T12:48:11.655Z</time></trkpt><trkpt lat="44.6366063" lon="9.6238806"><ele>971.3333333333334</ele><time>2026-05-03T12:48:12.656Z</time></trkpt><trkpt lat="44.6365968" lon="9.6236512"><ele>971.0</ele><time>2026-05-03T12:48:13.663Z</time></trkpt><trkpt lat="44.6365886" lon="9.6234887"><ele>972.3333333333334</ele><time>2026-05-03T12:48:14.687Z</time></trkpt><trkpt lat="44.6365258" lon="9.6233032"><ele>973.6666666666667</ele><time>2026-05-03T12:48:15.686Z</time></trkpt><trkpt lat="44.6364493" lon="9.6230842"><ele>975.0</ele><time>2026-05-03T12:48:16.688Z</time></trkpt><trkpt lat="44.636334" lon="9.6228532"><ele>972.6666666666667</ele><time>2026-05-03T12:48:17.688Z</time></trkpt><trkpt lat="44.6362422" lon="9.622617"><ele>970.3333333333334</ele><time>2026-05-03T12:48:18.686Z</time></trkpt><trkpt lat="44.6361438" lon="9.6223779"><ele>968.0</ele><time>2026-05-03T12:48:19.682Z</time></trkpt><trkpt lat="44.6359875" lon="9.6221666"><ele>968.0</ele><time>2026-05-03T12:48:20.684Z</time></trkpt><trkpt lat="44.6358274" lon="9.6220071"><ele>968.0</ele><time>2026-05-03T12:48:21.677Z</time></trkpt><trkpt lat="44.6356888" lon="9.6218572"><ele>968.0</ele><time>2026-05-03T12:48:22.654Z</time></trkpt><trkpt lat="44.6355616" lon="9.6217148"><ele>971.6666666666667</ele><time>2026-05-03T12:48:23.653Z</time></trkpt><trkpt lat="44.6354624" lon="9.621596"><ele>975.3333333333333</ele><time>2026-05-03T12:48:24.661Z</time></trkpt><trkpt lat="44.6354124" lon="9.6213621"><ele>979.0</ele><time>2026-05-03T12:48:25.707Z</time></trkpt><trkpt lat="44.6354472" lon="9.6210116"><ele>979.0</ele><time>2026-05-03T12:48:26.687Z</time></trkpt><trkpt lat="44.6354604" lon="9.6207012"><ele>979.0</ele><time>2026-05-03T12:48:27.683Z</time></trkpt><trkpt lat="44.6354584" lon="9.6203781"><ele>978.0</ele><time>2026-05-03T12:48:28.688Z</time></trkpt><trkpt lat="44.6354434" lon="9.6201522"><ele>977.0</ele><time>2026-05-03T12:48:29.67Z</time></trkpt><trkpt lat="44.6354294" lon="9.6199145"><ele>976.0</ele><time>2026-05-03T12:48:30.658Z</time></trkpt><trkpt lat="44.635434" lon="9.619667"><ele>976.3333333333333</ele><time>2026-05-03T12:48:31.666Z</time></trkpt><trkpt lat="44.6354626" lon="9.6194079"><ele>976.6666666666667</ele><time>2026-05-03T12:48:32.672Z</time></trkpt><trkpt lat="44.6355945" lon="9.619131"><ele>977.0</ele><time>2026-05-03T12:48:33.664Z</time></trkpt><trkpt lat="44.635657" lon="9.6188451"><ele>976.6666666666667</ele><time>2026-05-03T12:48:34.665Z</time></trkpt><trkpt lat="44.6357315" lon="9.6185202"><ele>976.3333333333333</ele><time>2026-05-03T12:48:35.663Z</time></trkpt><trkpt lat="44.6358202" lon="9.6182714"><ele>976.0</ele><time>2026-05-03T12:48:36.662Z</time></trkpt><trkpt lat="44.6358784" lon="9.6180072"><ele>976.0</ele><time>2026-05-03T12:48:37.659Z</time></trkpt><trkpt lat="44.6359049" lon="9.6177406"><ele>976.0</ele><time>2026-05-03T12:48:38.662Z</time></trkpt><trkpt lat="44.6360087" lon="9.61756"><ele>976.0</ele><time>2026-05-03T12:48:39.655Z</time></trkpt><trkpt lat="44.6361223" lon="9.6174127"><ele>972.75</ele><time>2026-05-03T12:48:40.655Z</time></trkpt><trkpt lat="44.636268" lon="9.6172971"><ele>969.5</ele><time>2026-05-03T12:48:41.655Z</time></trkpt><trkpt lat="44.6363881" lon="9.6172516"><ele>966.25</ele><time>2026-05-03T12:48:42.652Z</time></trkpt><trkpt lat="44.6365233" lon="9.6173111"><ele>963.0</ele><time>2026-05-03T12:48:43.651Z</time></trkpt><trkpt lat="44.6366567" lon="9.6173751"><ele>963.0</ele><time>2026-05-03T12:48:44.651Z</time></trkpt><trkpt lat="44.6367448" lon="9.6175671"><ele>963.0</ele><time>2026-05-03T12:48:45.657Z</time></trkpt><trkpt lat="44.6367272" lon="9.6178489"><ele>963.0</ele><time>2026-05-03T12:48:46.656Z</time></trkpt><trkpt lat="44.6366986" lon="9.6181477"><ele>962.6666666666667</ele><time>2026-05-03T12:48:47.66Z</time></trkpt><trkpt lat="44.636659" lon="9.6184507"><ele>962.3333333333334</ele><time>2026-05-03T12:48:48.662Z</time></trkpt><trkpt lat="44.6367145" lon="9.6187301"><ele>962.0</ele><time>2026-05-03T12:48:49.663Z</time></trkpt><trkpt lat="44.6368483" lon="9.6191073"><ele>957.0</ele><time>2026-05-03T12:48:50.66Z</time></trkpt><trkpt lat="44.6370506" lon="9.6193271"><ele>952.0</ele><time>2026-05-03T12:48:51.655Z</time></trkpt><trkpt lat="44.6373489" lon="9.6194784"><ele>951.5</ele><time>2026-05-03T12:48:52.663Z</time></trkpt><trkpt lat="44.6376491" lon="9.6195962"><ele>951.0</ele><time>2026-05-03T12:48:53.655Z</time></trkpt><trkpt lat="44.6378904" lon="9.619715"><ele>951.0</ele><time>2026-05-03T12:48:54.656Z</time></trkpt><trkpt lat="44.6381203" lon="9.6197765"><ele>951.0</ele><time>2026-05-03T12:48:55.657Z</time></trkpt><trkpt lat="44.6383189" lon="9.6198955"><ele>951.0</ele><time>2026-05-03T12:48:56.66Z</time></trkpt><trkpt lat="44.6384925" lon="9.6200615"><ele>951.0</ele><time>2026-05-03T12:48:57.664Z</time></trkpt><trkpt lat="44.6386396" lon="9.6201993"><ele>951.0</ele><time>2026-05-03T12:48:58.661Z</time></trkpt><trkpt lat="44.6387833" lon="9.6203462"><ele>950.0</ele><time>2026-05-03T12:48:59.662Z</time></trkpt><trkpt lat="44.6389354" lon="9.6205728"><ele>949.0</ele><time>2026-05-03T12:49:00.66Z</time></trkpt><trkpt lat="44.6390798" lon="9.620778"><ele>948.0</ele><time>2026-05-03T12:49:01.662Z</time></trkpt><trkpt lat="44.639202" lon="9.6209144"><ele>948.0</ele><time>2026-05-03T12:49:02.671Z</time></trkpt><trkpt lat="44.6393081" lon="9.6210537"><ele>948.0</ele><time>2026-05-03T12:49:03.662Z</time></trkpt><trkpt lat="44.6394246" lon="9.6212662"><ele>948.0</ele><time>2026-05-03T12:49:04.664Z</time></trkpt><trkpt lat="44.6395877" lon="9.6214494"><ele>943.5</ele><time>2026-05-03T12:49:05.668Z</time></trkpt><trkpt lat="44.6397936" lon="9.6216443"><ele>939.0</ele><time>2026-05-03T12:49:06.657Z</time></trkpt><trkpt lat="44.6399861" lon="9.6218132"><ele>939.6666666666667</ele><time>2026-05-03T12:49:07.659Z</time></trkpt><trkpt lat="44.6401821" lon="9.6219872"><ele>940.3333333333334</ele><time>2026-05-03T12:49:08.663Z</time></trkpt><trkpt lat="44.64032" lon="9.6221955"><ele>941.0</ele><time>2026-05-03T12:49:09.663Z</time></trkpt><trkpt lat="44.640478" lon="9.6223641"><ele>939.0</ele><time>2026-05-03T12:49:10.662Z</time></trkpt><trkpt lat="44.6406348" lon="9.6224958"><ele>937.0</ele><time>2026-05-03T12:49:11.662Z</time></trkpt><trkpt lat="44.6408115" lon="9.6226445"><ele>935.0</ele><time>2026-05-03T12:49:12.663Z</time></trkpt><trkpt lat="44.6410269" lon="9.6227506"><ele>936.0</ele><time>2026-05-03T12:49:13.658Z</time></trkpt><trkpt lat="44.6412411" lon="9.6228385"><ele>937.0</ele><time>2026-05-03T12:49:14.656Z</time></trkpt><trkpt lat="44.6414558" lon="9.6228345"><ele>938.0</ele><time>2026-05-03T12:49:15.653Z</time></trkpt><trkpt lat="44.6416265" lon="9.6227534"><ele>934.6666666666667</ele><time>2026-05-03T12:49:16.654Z</time></trkpt><trkpt lat="44.641772" lon="9.6226385"><ele>931.3333333333333</ele><time>2026-05-03T12:49:17.659Z</time></trkpt><trkpt lat="44.6419217" lon="9.6224375"><ele>928.0</ele><time>2026-05-03T12:49:18.659Z</time></trkpt><trkpt lat="44.6420827" lon="9.6223671"><ele>927.3333333333333</ele><time>2026-05-03T12:49:19.657Z</time></trkpt><trkpt lat="44.6422697" lon="9.6222721"><ele>926.6666666666667</ele><time>2026-05-03T12:49:20.659Z</time></trkpt><trkpt lat="44.6424643" lon="9.6221823"><ele>926.0</ele><time>2026-05-03T12:49:21.659Z</time></trkpt><trkpt lat="44.6426614" lon="9.62209"><ele>925.3333333333334</ele><time>2026-05-03T12:49:22.66Z</time></trkpt><trkpt lat="44.6428446" lon="9.622005"><ele>924.6666666666667</ele><time>2026-05-03T12:49:23.662Z</time></trkpt><trkpt lat="44.6430125" lon="9.6218635"><ele>924.0</ele><time>2026-05-03T12:49:24.665Z</time></trkpt><trkpt lat="44.6431981" lon="9.6217879"><ele>921.0</ele><time>2026-05-03T12:49:25.637Z</time></trkpt><trkpt lat="44.6433525" lon="9.621706"><ele>918.0</ele><time>2026-05-03T12:49:26.644Z</time></trkpt><trkpt lat="44.6434487" lon="9.6217147"><ele>915.0</ele><time>2026-05-03T12:49:27.657Z</time></trkpt><trkpt lat="44.6436367" lon="9.6218127"><ele>913.5</ele><time>2026-05-03T12:49:28.658Z</time></trkpt><trkpt lat="44.643764" lon="9.6219795"><ele>912.0</ele><time>2026-05-03T12:49:29.659Z</time></trkpt><trkpt lat="44.6439491" lon="9.6223462"><ele>912.0</ele><time>2026-05-03T12:49:30.66Z</time></trkpt><trkpt lat="44.6441015" lon="9.6224922"><ele>912.0</ele><time>2026-05-03T12:49:31.663Z</time></trkpt><trkpt lat="44.6442716" lon="9.622487"><ele>912.0</ele><time>2026-05-03T12:49:32.666Z</time></trkpt><trkpt lat="44.6443697" lon="9.6223938"><ele>912.0</ele><time>2026-05-03T12:49:33.661Z</time></trkpt><trkpt lat="44.6444447" lon="9.6222138"><ele>912.0</ele><time>2026-05-03T12:49:34.666Z</time></trkpt><trkpt lat="44.6445803" lon="9.6220789"><ele>912.0</ele><time>2026-05-03T12:49:35.654Z</time></trkpt><trkpt lat="44.64473" lon="9.6220777"><ele>911.0</ele><time>2026-05-03T12:49:36.658Z</time></trkpt><trkpt lat="44.6448245" lon="9.6220053"><ele>910.0</ele><time>2026-05-03T12:49:37.654Z</time></trkpt><trkpt lat="44.6449935" lon="9.6220311"><ele>909.0</ele><time>2026-05-03T12:49:38.659Z</time></trkpt><trkpt lat="44.6451324" lon="9.6220464"><ele>908.0</ele><time>2026-05-03T12:49:39.664Z</time></trkpt><trkpt lat="44.6453037" lon="9.6221147"><ele>907.6666666666667</ele><time>2026-05-03T12:49:40.661Z</time></trkpt><trkpt lat="44.6454666" lon="9.6222376"><ele>907.3333333333333</ele><time>2026-05-03T12:49:41.666Z</time></trkpt><trkpt lat="44.6456333" lon="9.6222973"><ele>907.0</ele><time>2026-05-03T12:49:42.66Z</time></trkpt><trkpt lat="44.6457279" lon="9.6222231"><ele>907.0</ele><time>2026-05-03T12:49:43.662Z</time></trkpt><trkpt lat="44.6458765" lon="9.6221305"><ele>907.0</ele><time>2026-05-03T12:49:44.655Z</time></trkpt><trkpt lat="44.6459703" lon="9.6220197"><ele>907.0</ele><time>2026-05-03T12:49:45.662Z</time></trkpt><trkpt lat="44.6460787" lon="9.6219137"><ele>907.0</ele><time>2026-05-03T12:49:46.654Z</time></trkpt><trkpt lat="44.6462063" lon="9.6218477"><ele>903.0</ele><time>2026-05-03T12:49:47.658Z</time></trkpt><trkpt lat="44.6462807" lon="9.621814"><ele>899.0</ele><time>2026-05-03T12:49:48.651Z</time></trkpt><trkpt lat="44.6463842" lon="9.6218091"><ele>895.0</ele><time>2026-05-03T12:49:49.655Z</time></trkpt><trkpt lat="44.6465274" lon="9.6218815"><ele>891.0</ele><time>2026-05-03T12:49:50.658Z</time></trkpt><trkpt lat="44.6467218" lon="9.621969"><ele>891.3333333333333</ele><time>2026-05-03T12:49:51.661Z</time></trkpt><trkpt lat="44.6468993" lon="9.6220354"><ele>891.6666666666666</ele><time>2026-05-03T12:49:52.662Z</time></trkpt><trkpt lat="44.6470677" lon="9.6219419"><ele>892.0</ele><time>2026-05-03T12:49:53.66Z</time></trkpt><trkpt lat="44.6472783" lon="9.6218179"><ele>892.0</ele><time>2026-05-03T12:49:54.661Z</time></trkpt><trkpt lat="44.6474672" lon="9.6218015"><ele>892.0</ele><time>2026-05-03T12:49:55.66Z</time></trkpt><trkpt lat="44.6476796" lon="9.6218399"><ele>892.0</ele><time>2026-05-03T12:49:56.659Z</time></trkpt><trkpt lat="44.6478976" lon="9.6218484"><ele>892.3333333333333</ele><time>2026-05-03T12:49:57.666Z</time></trkpt><trkpt lat="44.6480642" lon="9.6218018"><ele>892.6666666666667</ele><time>2026-05-03T12:49:58.66Z</time></trkpt><trkpt lat="44.6482471" lon="9.6217687"><ele>893.0</ele><time>2026-05-03T12:49:59.67Z</time></trkpt><trkpt lat="44.6483832" lon="9.6217251"><ele>893.0</ele><time>2026-05-03T12:50:00.662Z</time></trkpt><trkpt lat="44.6485089" lon="9.6216773"><ele>893.0</ele><time>2026-05-03T12:50:01.672Z</time></trkpt><trkpt lat="44.6485949" lon="9.6215833"><ele>893.0</ele><time>2026-05-03T12:50:02.676Z</time></trkpt><trkpt lat="44.6486917" lon="9.6214989"><ele>893.0</ele><time>2026-05-03T12:50:03.674Z</time></trkpt><trkpt lat="44.648778" lon="9.6214596"><ele>893.0</ele><time>2026-05-03T12:50:04.671Z</time></trkpt><trkpt lat="44.6488634" lon="9.6214516"><ele>892.4</ele><time>2026-05-03T12:50:05.674Z</time></trkpt><trkpt lat="44.6489501" lon="9.6214521"><ele>891.8</ele><time>2026-05-03T12:50:06.674Z</time></trkpt><trkpt lat="44.6490275" lon="9.6213845"><ele>891.2</ele><time>2026-05-03T12:50:07.666Z</time></trkpt><trkpt lat="44.6491054" lon="9.6213154"><ele>890.6</ele><time>2026-05-03T12:50:08.662Z</time></trkpt><trkpt lat="44.6491793" lon="9.6212262"><ele>890.0</ele><time>2026-05-03T12:50:09.669Z</time></trkpt><trkpt lat="44.6492516" lon="9.621122"><ele>887.4</ele><time>2026-05-03T12:50:10.668Z</time></trkpt><trkpt lat="44.6493119" lon="9.62101"><ele>884.8</ele><time>2026-05-03T12:50:11.669Z</time></trkpt><trkpt lat="44.6493807" lon="9.6209316"><ele>882.2</ele><time>2026-05-03T12:50:12.661Z</time></trkpt><trkpt lat="44.6494552" lon="9.6208471"><ele>879.6</ele><time>2026-05-03T12:50:13.666Z</time></trkpt><trkpt lat="44.6495367" lon="9.6207818"><ele>877.0</ele><time>2026-05-03T12:50:14.658Z</time></trkpt><trkpt lat="44.6496425" lon="9.6207035"><ele>877.0</ele><time>2026-05-03T12:50:15.662Z</time></trkpt><trkpt lat="44.6497744" lon="9.6206098"><ele>877.0</ele><time>2026-05-03T12:50:16.656Z</time></trkpt><trkpt lat="44.6499284" lon="9.6205284"><ele>877.0</ele><time>2026-05-03T12:50:17.657Z</time></trkpt><trkpt lat="44.650165" lon="9.6204736"><ele>879.0</ele><time>2026-05-03T12:50:18.665Z</time></trkpt><trkpt lat="44.6503076" lon="9.6204973"><ele>881.0</ele><time>2026-05-03T12:50:19.667Z</time></trkpt><trkpt lat="44.6504545" lon="9.6204081"><ele>883.0</ele><time>2026-05-03T12:50:20.669Z</time></trkpt><trkpt lat="44.6505884" lon="9.6202952"><ele>879.0</ele><time>2026-05-03T12:50:21.663Z</time></trkpt><trkpt lat="44.6506744" lon="9.620153"><ele>875.0</ele><time>2026-05-03T12:50:22.666Z</time></trkpt><trkpt lat="44.6507358" lon="9.6199795"><ele>871.0</ele><time>2026-05-03T12:50:23.658Z</time></trkpt><trkpt lat="44.6507172" lon="9.6198026"><ele>867.0</ele><time>2026-05-03T12:50:24.658Z</time></trkpt><trkpt lat="44.650615" lon="9.6196054"><ele>867.0</ele><time>2026-05-03T12:50:25.683Z</time></trkpt><trkpt lat="44.6504864" lon="9.6195133"><ele>867.0</ele><time>2026-05-03T12:50:26.656Z</time></trkpt><trkpt lat="44.650334" lon="9.6194458"><ele>867.0</ele><time>2026-05-03T12:50:27.682Z</time></trkpt><trkpt lat="44.6501095" lon="9.6194453"><ele>864.6666666666667</ele><time>2026-05-03T12:50:28.688Z</time></trkpt><trkpt lat="44.6499168" lon="9.6194286"><ele>862.3333333333334</ele><time>2026-05-03T12:50:29.689Z</time></trkpt><trkpt lat="44.6497195" lon="9.6193848"><ele>860.0</ele><time>2026-05-03T12:50:30.667Z</time></trkpt><trkpt lat="44.6495347" lon="9.6193137"><ele>860.3333333333334</ele><time>2026-05-03T12:50:31.662Z</time></trkpt><trkpt lat="44.6493789" lon="9.6191554"><ele>860.6666666666667</ele><time>2026-05-03T12:50:32.698Z</time></trkpt><trkpt lat="44.6492256" lon="9.6189734"><ele>861.0</ele><time>2026-05-03T12:50:33.685Z</time></trkpt><trkpt lat="44.6491819" lon="9.6188092"><ele>861.0</ele><time>2026-05-03T12:50:34.687Z</time></trkpt><trkpt lat="44.6490911" lon="9.6186847"><ele>861.0</ele><time>2026-05-03T12:50:35.684Z</time></trkpt><trkpt lat="44.6489561" lon="9.6186307"><ele>861.0</ele><time>2026-05-03T12:50:36.66Z</time></trkpt><trkpt lat="44.6488171" lon="9.6186483"><ele>861.0</ele><time>2026-05-03T12:50:37.665Z</time></trkpt><trkpt lat="44.648669" lon="9.6186415"><ele>860.5</ele><time>2026-05-03T12:50:38.692Z</time></trkpt><trkpt lat="44.6485571" lon="9.6186346"><ele>860.0</ele><time>2026-05-03T12:50:39.659Z</time></trkpt><trkpt lat="44.6484372" lon="9.618666"><ele>859.5</ele><time>2026-05-03T12:50:40.656Z</time></trkpt><trkpt lat="44.6483028" lon="9.6185644"><ele>859.0</ele><time>2026-05-03T12:50:41.66Z</time></trkpt><trkpt lat="44.6482119" lon="9.6183987"><ele>856.6666666666666</ele><time>2026-05-03T12:50:42.656Z</time></trkpt><trkpt lat="44.6481905" lon="9.6182036"><ele>854.3333333333333</ele><time>2026-05-03T12:50:43.685Z</time></trkpt><trkpt lat="44.6482028" lon="9.6179223"><ele>852.0</ele><time>2026-05-03T12:50:44.686Z</time></trkpt><trkpt lat="44.6481157" lon="9.6177918"><ele>849.5</ele><time>2026-05-03T12:50:45.664Z</time></trkpt><trkpt lat="44.6480168" lon="9.6176787"><ele>847.0</ele><time>2026-05-03T12:50:46.666Z</time></trkpt><trkpt lat="44.6478698" lon="9.6176708"><ele>844.5</ele><time>2026-05-03T12:50:47.69Z</time></trkpt><trkpt lat="44.6477293" lon="9.6176807"><ele>842.0</ele><time>2026-05-03T12:50:48.69Z</time></trkpt><trkpt lat="44.6476228" lon="9.6176668"><ele>842.6666666666667</ele><time>2026-05-03T12:50:49.658Z</time></trkpt><trkpt lat="44.6475072" lon="9.6177951"><ele>843.3333333333333</ele><time>2026-05-03T12:50:50.663Z</time></trkpt><trkpt lat="44.6473392" lon="9.617955"><ele>844.0</ele><time>2026-05-03T12:50:51.658Z</time></trkpt><trkpt lat="44.6471547" lon="9.6181078"><ele>844.0</ele><time>2026-05-03T12:50:52.654Z</time></trkpt><trkpt lat="44.6469866" lon="9.6182332"><ele>844.0</ele><time>2026-05-03T12:50:53.659Z</time></trkpt><trkpt lat="44.6467775" lon="9.6183835"><ele>844.0</ele><time>2026-05-03T12:50:54.654Z</time></trkpt><trkpt lat="44.6466762" lon="9.6185349"><ele>844.5</ele><time>2026-05-03T12:50:55.656Z</time></trkpt><trkpt lat="44.6465632" lon="9.6186324"><ele>845.0</ele><time>2026-05-03T12:50:56.663Z</time></trkpt><trkpt lat="44.646453" lon="9.6186836"><ele>845.5</ele><time>2026-05-03T12:50:57.657Z</time></trkpt><trkpt lat="44.6463191" lon="9.6186144"><ele>846.0</ele><time>2026-05-03T12:50:58.64Z</time></trkpt><trkpt lat="44.6461876" lon="9.6184217"><ele>845.6666666666667</ele><time>2026-05-03T12:50:59.627Z</time></trkpt><trkpt lat="44.6461124" lon="9.6181899"><ele>845.3333333333334</ele><time>2026-05-03T12:51:00.627Z</time></trkpt><trkpt lat="44.646082" lon="9.6179512"><ele>845.0</ele><time>2026-05-03T12:51:01.631Z</time></trkpt><trkpt lat="44.6461132" lon="9.6176408"><ele>842.3333333333334</ele><time>2026-05-03T12:51:02.658Z</time></trkpt><trkpt lat="44.6460944" lon="9.6174911"><ele>839.6666666666667</ele><time>2026-05-03T12:51:03.661Z</time></trkpt><trkpt lat="44.6459642" lon="9.6173335"><ele>837.0</ele><time>2026-05-03T12:51:04.663Z</time></trkpt><trkpt lat="44.6458081" lon="9.6171803"><ele>837.0</ele><time>2026-05-03T12:51:05.667Z</time></trkpt><trkpt lat="44.6456937" lon="9.6170602"><ele>837.0</ele><time>2026-05-03T12:51:06.663Z</time></trkpt><trkpt lat="44.645592" lon="9.6169204"><ele>837.0</ele><time>2026-05-03T12:51:07.664Z</time></trkpt><trkpt lat="44.6455225" lon="9.6167161"><ele>837.0</ele><time>2026-05-03T12:51:08.665Z</time></trkpt><trkpt lat="44.6454597" lon="9.6164681"><ele>832.5</ele><time>2026-05-03T12:51:09.661Z</time></trkpt><trkpt lat="44.6454114" lon="9.6161821"><ele>828.0</ele><time>2026-05-03T12:51:10.665Z</time></trkpt><trkpt lat="44.6453823" lon="9.6158201"><ele>826.0</ele><time>2026-05-03T12:51:11.666Z</time></trkpt><trkpt lat="44.6453866" lon="9.6154679"><ele>824.0</ele><time>2026-05-03T12:51:12.693Z</time></trkpt><trkpt lat="44.6453745" lon="9.6151685"><ele>823.0</ele><time>2026-05-03T12:51:13.692Z</time></trkpt><trkpt lat="44.6453446" lon="9.6148744"><ele>822.0</ele><time>2026-05-03T12:51:14.69Z</time></trkpt><trkpt lat="44.6452607" lon="9.6145887"><ele>821.0</ele><time>2026-05-03T12:51:15.666Z</time></trkpt><trkpt lat="44.6451974" lon="9.614365"><ele>821.0</ele><time>2026-05-03T12:51:16.665Z</time></trkpt><trkpt lat="44.6451353" lon="9.6141759"><ele>821.0</ele><time>2026-05-03T12:51:17.664Z</time></trkpt><trkpt lat="44.6450613" lon="9.6139823"><ele>821.0</ele><time>2026-05-03T12:51:18.682Z</time></trkpt><trkpt lat="44.6449317" lon="9.6138098"><ele>821.0</ele><time>2026-05-03T12:51:19.659Z</time></trkpt><trkpt lat="44.6448233" lon="9.6137155"><ele>821.0</ele><time>2026-05-03T12:51:20.65Z</time></trkpt><trkpt lat="44.644738" lon="9.6135744"><ele>821.0</ele><time>2026-05-03T12:51:21.65Z</time></trkpt><trkpt lat="44.6446901" lon="9.6134256"><ele>821.0</ele><time>2026-05-03T12:51:22.648Z</time></trkpt><trkpt lat="44.6447338" lon="9.6133302"><ele>817.25</ele><time>2026-05-03T12:51:23.65Z</time></trkpt><trkpt lat="44.6447274" lon="9.6132109"><ele>813.5</ele><time>2026-05-03T12:51:24.639Z</time></trkpt><trkpt lat="44.6447642" lon="9.6130525"><ele>809.75</ele><time>2026-05-03T12:51:25.645Z</time></trkpt><trkpt lat="44.6448892" lon="9.6130077"><ele>806.0</ele><time>2026-05-03T12:51:26.65Z</time></trkpt><trkpt lat="44.6450032" lon="9.6131453"><ele>806.0</ele><time>2026-05-03T12:51:27.652Z</time></trkpt><trkpt lat="44.6452443" lon="9.6134512"><ele>806.0</ele><time>2026-05-03T12:51:28.662Z</time></trkpt><trkpt lat="44.6454936" lon="9.6138266"><ele>806.5</ele><time>2026-05-03T12:51:29.658Z</time></trkpt><trkpt lat="44.6456999" lon="9.6141069"><ele>807.0</ele><time>2026-05-03T12:51:30.65Z</time></trkpt><trkpt lat="44.6458586" lon="9.6142459"><ele>807.0</ele><time>2026-05-03T12:51:31.65Z</time></trkpt><trkpt lat="44.646061" lon="9.6143845"><ele>807.0</ele><time>2026-05-03T12:51:32.659Z</time></trkpt><trkpt lat="44.6462993" lon="9.6145196"><ele>808.0</ele><time>2026-05-03T12:51:33.654Z</time></trkpt><trkpt lat="44.6464818" lon="9.6145709"><ele>809.0</ele><time>2026-05-03T12:51:34.652Z</time></trkpt><trkpt lat="44.6466793" lon="9.6145431"><ele>810.0</ele><time>2026-05-03T12:51:35.656Z</time></trkpt><trkpt lat="44.64686" lon="9.6145635"><ele>808.5</ele><time>2026-05-03T12:51:36.653Z</time></trkpt><trkpt lat="44.6470188" lon="9.6145941"><ele>807.0</ele><time>2026-05-03T12:51:37.636Z</time></trkpt><trkpt lat="44.6471198" lon="9.6145411"><ele>805.5</ele><time>2026-05-03T12:51:38.645Z</time></trkpt><trkpt lat="44.6472512" lon="9.6144828"><ele>804.0</ele><time>2026-05-03T12:51:39.658Z</time></trkpt><trkpt lat="44.647388" lon="9.6144099"><ele>802.0</ele><time>2026-05-03T12:51:40.656Z</time></trkpt><trkpt lat="44.6474706" lon="9.6142973"><ele>800.0</ele><time>2026-05-03T12:51:41.65Z</time></trkpt><trkpt lat="44.6475088" lon="9.614039"><ele>798.0</ele><time>2026-05-03T12:51:42.653Z</time></trkpt><trkpt lat="44.6475966" lon="9.613944"><ele>796.0</ele><time>2026-05-03T12:51:43.655Z</time></trkpt><trkpt lat="44.6477275" lon="9.6138916"><ele>796.3333333333333</ele><time>2026-05-03T12:51:44.654Z</time></trkpt><trkpt lat="44.647846" lon="9.6138073"><ele>796.6666666666667</ele><time>2026-05-03T12:51:45.64Z</time></trkpt><trkpt lat="44.6479848" lon="9.6137274"><ele>797.0</ele><time>2026-05-03T12:51:46.632Z</time></trkpt><trkpt lat="44.6481669" lon="9.613685"><ele>793.6666666666667</ele><time>2026-05-03T12:51:47.628Z</time></trkpt><trkpt lat="44.6483287" lon="9.6135697"><ele>790.3333333333333</ele><time>2026-05-03T12:51:48.634Z</time></trkpt><trkpt lat="44.6485153" lon="9.6135108"><ele>787.0</ele><time>2026-05-03T12:51:49.634Z</time></trkpt><trkpt lat="44.6486976" lon="9.6134488"><ele>784.5</ele><time>2026-05-03T12:51:50.642Z</time></trkpt><trkpt lat="44.6488006" lon="9.6133142"><ele>782.0</ele><time>2026-05-03T12:51:51.643Z</time></trkpt><trkpt lat="44.6488912" lon="9.6131742"><ele>779.5</ele><time>2026-05-03T12:51:52.631Z</time></trkpt><trkpt lat="44.6489414" lon="9.6129698"><ele>777.0</ele><time>2026-05-03T12:51:53.629Z</time></trkpt><trkpt lat="44.6489861" lon="9.6128185"><ele>776.6666666666667</ele><time>2026-05-03T12:51:54.649Z</time></trkpt><trkpt lat="44.6489272" lon="9.6126279"><ele>776.3333333333334</ele><time>2026-05-03T12:51:55.66Z</time></trkpt><trkpt lat="44.648796" lon="9.6123627"><ele>776.0</ele><time>2026-05-03T12:51:56.684Z</time></trkpt><trkpt lat="44.6485822" lon="9.6121295"><ele>776.0</ele><time>2026-05-03T12:51:57.658Z</time></trkpt><trkpt lat="44.6483498" lon="9.6120954"><ele>776.0</ele><time>2026-05-03T12:51:58.69Z</time></trkpt><trkpt lat="44.6481041" lon="9.6121166"><ele>776.0</ele><time>2026-05-03T12:51:59.685Z</time></trkpt><trkpt lat="44.6479187" lon="9.6120671"><ele>776.0</ele><time>2026-05-03T12:52:00.659Z</time></trkpt><trkpt lat="44.6477589" lon="9.6120084"><ele>776.0</ele><time>2026-05-03T12:52:01.686Z</time></trkpt><trkpt lat="44.6476865" lon="9.6119147"><ele>774.0</ele><time>2026-05-03T12:52:02.691Z</time></trkpt><trkpt lat="44.6475903" lon="9.6117751"><ele>772.0</ele><time>2026-05-03T12:52:03.663Z</time></trkpt><trkpt lat="44.6474574" lon="9.6116416"><ele>770.0</ele><time>2026-05-03T12:52:04.661Z</time></trkpt><trkpt lat="44.6473243" lon="9.6114576"><ele>770.0</ele><time>2026-05-03T12:52:05.69Z</time></trkpt><trkpt lat="44.6471908" lon="9.6113895"><ele>770.0</ele><time>2026-05-03T12:52:06.663Z</time></trkpt><trkpt lat="44.6470378" lon="9.6113023"><ele>770.0</ele><time>2026-05-03T12:52:07.664Z</time></trkpt><trkpt lat="44.6469365" lon="9.6112002"><ele>770.0</ele><time>2026-05-03T12:52:08.663Z</time></trkpt><trkpt lat="44.6468721" lon="9.6110927"><ele>771.6666666666667</ele><time>2026-05-03T12:52:09.686Z</time></trkpt><trkpt lat="44.6468449" lon="9.6108963"><ele>773.3333333333333</ele><time>2026-05-03T12:52:10.659Z</time></trkpt><trkpt lat="44.6469238" lon="9.6106084"><ele>775.0</ele><time>2026-05-03T12:52:11.665Z</time></trkpt><trkpt lat="44.646976" lon="9.6103723"><ele>773.3333333333333</ele><time>2026-05-03T12:52:12.666Z</time></trkpt><trkpt lat="44.6469696" lon="9.6101646"><ele>771.6666666666667</ele><time>2026-05-03T12:52:13.662Z</time></trkpt><trkpt lat="44.6469586" lon="9.6099032"><ele>770.0</ele><time>2026-05-03T12:52:14.668Z</time></trkpt><trkpt lat="44.6469031" lon="9.6097081"><ele>770.0</ele><time>2026-05-03T12:52:15.664Z</time></trkpt><trkpt lat="44.6467551" lon="9.6096033"><ele>770.0</ele><time>2026-05-03T12:52:16.661Z</time></trkpt><trkpt lat="44.6466442" lon="9.6094697"><ele>770.0</ele><time>2026-05-03T12:52:17.67Z</time></trkpt><trkpt lat="44.6465576" lon="9.6093374"><ele>770.0</ele><time>2026-05-03T12:52:18.686Z</time></trkpt><trkpt lat="44.6465086" lon="9.6092246"><ele>769.25</ele><time>2026-05-03T12:52:19.685Z</time></trkpt><trkpt lat="44.646438" lon="9.6090888"><ele>768.5</ele><time>2026-05-03T12:52:20.658Z</time></trkpt><trkpt lat="44.6463354" lon="9.6089744"><ele>767.75</ele><time>2026-05-03T12:52:21.662Z</time></trkpt><trkpt lat="44.6461615" lon="9.6089105"><ele>767.0</ele><time>2026-05-03T12:52:22.658Z</time></trkpt><trkpt lat="44.6460175" lon="9.6088025"><ele>767.0</ele><time>2026-05-03T12:52:23.661Z</time></trkpt><trkpt lat="44.6458872" lon="9.6087117"><ele>767.0</ele><time>2026-05-03T12:52:24.659Z</time></trkpt><trkpt lat="44.6457723" lon="9.6085685"><ele>767.0</ele><time>2026-05-03T12:52:25.663Z</time></trkpt><trkpt lat="44.6456744" lon="9.6084314"><ele>767.0</ele><time>2026-05-03T12:52:26.66Z</time></trkpt><trkpt lat="44.6456061" lon="9.6082407"><ele>763.3333333333333</ele><time>2026-05-03T12:52:27.657Z</time></trkpt><trkpt lat="44.6455258" lon="9.6079523"><ele>759.6666666666666</ele><time>2026-05-03T12:52:28.665Z</time></trkpt><trkpt lat="44.6454997" lon="9.6076537"><ele>756.0</ele><time>2026-05-03T12:52:29.665Z</time></trkpt><trkpt lat="44.645496" lon="9.6074223"><ele>753.3333333333334</ele><time>2026-05-03T12:52:30.657Z</time></trkpt><trkpt lat="44.6456114" lon="9.6072379"><ele>750.6666666666667</ele><time>2026-05-03T12:52:31.66Z</time></trkpt><trkpt lat="44.6457339" lon="9.6070922"><ele>748.0</ele><time>2026-05-03T12:52:32.663Z</time></trkpt><trkpt lat="44.6459376" lon="9.6069466"><ele>746.0</ele><time>2026-05-03T12:52:33.663Z</time></trkpt><trkpt lat="44.6461045" lon="9.6067965"><ele>744.0</ele><time>2026-05-03T12:52:34.658Z</time></trkpt><trkpt lat="44.6462741" lon="9.6065192"><ele>743.3333333333334</ele><time>2026-05-03T12:52:35.665Z</time></trkpt><trkpt lat="44.6464411" lon="9.6063346"><ele>742.6666666666667</ele><time>2026-05-03T12:52:36.659Z</time></trkpt><trkpt lat="44.6466424" lon="9.6061611"><ele>742.0</ele><time>2026-05-03T12:52:37.662Z</time></trkpt><trkpt lat="44.646803" lon="9.6060044"><ele>739.6666666666667</ele><time>2026-05-03T12:52:38.661Z</time></trkpt><trkpt lat="44.6469387" lon="9.6058984"><ele>737.3333333333334</ele><time>2026-05-03T12:52:39.658Z</time></trkpt><trkpt lat="44.6470878" lon="9.6057849"><ele>735.0</ele><time>2026-05-03T12:52:40.655Z</time></trkpt><trkpt lat="44.6472425" lon="9.6057588"><ele>734.0</ele><time>2026-05-03T12:52:41.659Z</time></trkpt><trkpt lat="44.6474141" lon="9.6058176"><ele>733.0</ele><time>2026-05-03T12:52:42.656Z</time></trkpt><trkpt lat="44.6475787" lon="9.6058607"><ele>732.0</ele><time>2026-05-03T12:52:43.657Z</time></trkpt><trkpt lat="44.6477258" lon="9.6058882"><ele>729.25</ele><time>2026-05-03T12:52:44.659Z</time></trkpt><trkpt lat="44.6478741" lon="9.60593"><ele>726.5</ele><time>2026-05-03T12:52:45.659Z</time></trkpt><trkpt lat="44.6480254" lon="9.6059506"><ele>723.75</ele><time>2026-05-03T12:52:46.652Z</time></trkpt><trkpt lat="44.64813" lon="9.6059264"><ele>721.0</ele><time>2026-05-03T12:52:47.663Z</time></trkpt><trkpt lat="44.6481736" lon="9.6057236"><ele>721.0</ele><time>2026-05-03T12:52:48.662Z</time></trkpt><trkpt lat="44.6482122" lon="9.6055883"><ele>721.0</ele><time>2026-05-03T12:52:49.682Z</time></trkpt><trkpt lat="44.6481105" lon="9.605407"><ele>721.0</ele><time>2026-05-03T12:52:50.657Z</time></trkpt><trkpt lat="44.6479495" lon="9.6051755"><ele>720.3333333333334</ele><time>2026-05-03T12:52:51.66Z</time></trkpt><trkpt lat="44.6478424" lon="9.6050194"><ele>719.6666666666666</ele><time>2026-05-03T12:52:52.659Z</time></trkpt><trkpt lat="44.6477944" lon="9.6047889"><ele>719.0</ele><time>2026-05-03T12:52:53.683Z</time></trkpt><trkpt lat="44.647713" lon="9.6045926"><ele>718.5</ele><time>2026-05-03T12:52:54.711Z</time></trkpt><trkpt lat="44.6477108" lon="9.6044156"><ele>718.0</ele><time>2026-05-03T12:52:55.658Z</time></trkpt><trkpt lat="44.6478326" lon="9.6042684"><ele>717.5</ele><time>2026-05-03T12:52:56.659Z</time></trkpt><trkpt lat="44.6478956" lon="9.6041975"><ele>717.0</ele><time>2026-05-03T12:52:57.647Z</time></trkpt><trkpt lat="44.6480456" lon="9.6044205"><ele>717.6666666666666</ele><time>2026-05-03T12:52:58.651Z</time></trkpt><trkpt lat="44.6481975" lon="9.6046827"><ele>718.3333333333333</ele><time>2026-05-03T12:52:59.656Z</time></trkpt><trkpt lat="44.6482963" lon="9.6048374"><ele>719.0</ele><time>2026-05-03T12:53:00.655Z</time></trkpt><trkpt lat="44.6484729" lon="9.6052324"><ele>719.6666666666666</ele><time>2026-05-03T12:53:01.662Z</time></trkpt><trkpt lat="44.6485658" lon="9.60547"><ele>720.3333333333334</ele><time>2026-05-03T12:53:02.667Z</time></trkpt><trkpt lat="44.6485316" lon="9.6056315"><ele>721.0</ele><time>2026-05-03T12:53:03.659Z</time></trkpt><trkpt lat="44.6485149" lon="9.605849"><ele>721.6666666666667</ele><time>2026-05-03T12:53:04.659Z</time></trkpt><trkpt lat="44.6485168" lon="9.6061654"><ele>722.3333333333334</ele><time>2026-05-03T12:53:05.668Z</time></trkpt><trkpt lat="44.648529" lon="9.6063273"><ele>723.0</ele><time>2026-05-03T12:53:06.659Z</time></trkpt><trkpt lat="44.6485807" lon="9.606479"><ele>720.75</ele><time>2026-05-03T12:53:07.661Z</time></trkpt><trkpt lat="44.6486588" lon="9.6066115"><ele>718.5</ele><time>2026-05-03T12:53:08.653Z</time></trkpt><trkpt lat="44.6487478" lon="9.6067434"><ele>716.25</ele><time>2026-05-03T12:53:09.65Z</time></trkpt><trkpt lat="44.6488523" lon="9.6067637"><ele>714.0</ele><time>2026-05-03T12:53:10.65Z</time></trkpt><trkpt lat="44.6489863" lon="9.6068378"><ele>717.6666666666666</ele><time>2026-05-03T12:53:11.65Z</time></trkpt><trkpt lat="44.6491426" lon="9.6070139"><ele>721.3333333333333</ele><time>2026-05-03T12:53:12.649Z</time></trkpt><trkpt lat="44.6492296" lon="9.6071543"><ele>725.0</ele><time>2026-05-03T12:53:13.655Z</time></trkpt><trkpt lat="44.6493128" lon="9.6073101"><ele>725.0</ele><time>2026-05-03T12:53:14.652Z</time></trkpt><trkpt lat="44.6494167" lon="9.6074518"><ele>725.0</ele><time>2026-05-03T12:53:15.658Z</time></trkpt><trkpt lat="44.6494826" lon="9.6075868"><ele>725.0</ele><time>2026-05-03T12:53:16.659Z</time></trkpt><trkpt lat="44.6496927" lon="9.6076113"><ele>721.6666666666666</ele><time>2026-05-03T12:53:17.662Z</time></trkpt><trkpt lat="44.6498986" lon="9.6076165"><ele>718.3333333333334</ele><time>2026-05-03T12:53:18.668Z</time></trkpt><trkpt lat="44.6501208" lon="9.6076092"><ele>715.0</ele><time>2026-05-03T12:53:19.657Z</time></trkpt><trkpt lat="44.6502822" lon="9.6076356"><ele>715.0</ele><time>2026-05-03T12:53:20.658Z</time></trkpt><trkpt lat="44.6504403" lon="9.6075643"><ele>715.0</ele><time>2026-05-03T12:53:21.656Z</time></trkpt><trkpt lat="44.6505339" lon="9.6074774"><ele>715.0</ele><time>2026-05-03T12:53:22.654Z</time></trkpt><trkpt lat="44.6506151" lon="9.6073765"><ele>715.0</ele><time>2026-05-03T12:53:23.638Z</time></trkpt><trkpt lat="44.6505628" lon="9.6070828"><ele>713.0</ele><time>2026-05-03T12:53:24.649Z</time></trkpt><trkpt lat="44.650522" lon="9.6068746"><ele>711.0</ele><time>2026-05-03T12:53:25.658Z</time></trkpt><trkpt lat="44.6504762" lon="9.6067188"><ele>709.0</ele><time>2026-05-03T12:53:26.655Z</time></trkpt><trkpt lat="44.6503413" lon="9.6065785"><ele>707.0</ele><time>2026-05-03T12:53:27.657Z</time></trkpt><trkpt lat="44.6501593" lon="9.6064121"><ele>706.5</ele><time>2026-05-03T12:53:28.646Z</time></trkpt><trkpt lat="44.6499539" lon="9.6062695"><ele>706.0</ele><time>2026-05-03T12:53:29.647Z</time></trkpt><trkpt lat="44.6497125" lon="9.6060953"><ele>706.5</ele><time>2026-05-03T12:53:30.645Z</time></trkpt><trkpt lat="44.6494499" lon="9.605873"><ele>707.0</ele><time>2026-05-03T12:53:31.651Z</time></trkpt><trkpt lat="44.6492665" lon="9.6056612"><ele>707.0</ele><time>2026-05-03T12:53:32.648Z</time></trkpt><trkpt lat="44.6491792" lon="9.6055146"><ele>707.0</ele><time>2026-05-03T12:53:33.652Z</time></trkpt><trkpt lat="44.6491209" lon="9.605385"><ele>707.0</ele><time>2026-05-03T12:53:34.648Z</time></trkpt><trkpt lat="44.6490853" lon="9.6052384"><ele>707.0</ele><time>2026-05-03T12:53:35.649Z</time></trkpt><trkpt lat="44.6491011" lon="9.604946"><ele>706.0</ele><time>2026-05-03T12:53:36.646Z</time></trkpt><trkpt lat="44.6491208" lon="9.6047021"><ele>705.0</ele><time>2026-05-03T12:53:37.644Z</time></trkpt><trkpt lat="44.6491881" lon="9.6044629"><ele>704.0</ele><time>2026-05-03T12:53:38.646Z</time></trkpt><trkpt lat="44.6492995" lon="9.6042256"><ele>703.3333333333333</ele><time>2026-05-03T12:53:39.644Z</time></trkpt><trkpt lat="44.6494225" lon="9.6039935"><ele>702.6666666666666</ele><time>2026-05-03T12:53:40.648Z</time></trkpt><trkpt lat="44.6495351" lon="9.6037876"><ele>702.0</ele><time>2026-05-03T12:53:41.644Z</time></trkpt><trkpt lat="44.6496403" lon="9.6036055"><ele>698.0</ele><time>2026-05-03T12:53:42.644Z</time></trkpt><trkpt lat="44.649728" lon="9.6034594"><ele>694.0</ele><time>2026-05-03T12:53:43.647Z</time></trkpt><trkpt lat="44.6497854" lon="9.6033154"><ele>690.0</ele><time>2026-05-03T12:53:44.648Z</time></trkpt><trkpt lat="44.6498112" lon="9.6031077"><ele>686.0</ele><time>2026-05-03T12:53:45.64Z</time></trkpt><trkpt lat="44.6497677" lon="9.6028416"><ele>685.0</ele><time>2026-05-03T12:53:46.649Z</time></trkpt><trkpt lat="44.6497168" lon="9.6026118"><ele>684.0</ele><time>2026-05-03T12:53:47.65Z</time></trkpt><trkpt lat="44.6496311" lon="9.6022673"><ele>683.0</ele><time>2026-05-03T12:53:48.673Z</time></trkpt><trkpt lat="44.6495834" lon="9.601933"><ele>682.6666666666666</ele><time>2026-05-03T12:53:49.675Z</time></trkpt><trkpt lat="44.649479" lon="9.6016575"><ele>682.3333333333334</ele><time>2026-05-03T12:53:50.65Z</time></trkpt><trkpt lat="44.64939" lon="9.6014161"><ele>682.0</ele><time>2026-05-03T12:53:51.649Z</time></trkpt><trkpt lat="44.6492749" lon="9.6011737"><ele>681.0</ele><time>2026-05-03T12:53:52.675Z</time></trkpt><trkpt lat="44.6492307" lon="9.6010233"><ele>680.0</ele><time>2026-05-03T12:53:53.678Z</time></trkpt><trkpt lat="44.6491401" lon="9.6008914"><ele>679.0</ele><time>2026-05-03T12:53:54.648Z</time></trkpt><trkpt lat="44.6490275" lon="9.6008217"><ele>678.0</ele><time>2026-05-03T12:53:55.67Z</time></trkpt><trkpt lat="44.6488954" lon="9.6007653"><ele>678.0</ele><time>2026-05-03T12:53:56.648Z</time></trkpt><trkpt lat="44.6487491" lon="9.6007645"><ele>678.0</ele><time>2026-05-03T12:53:57.649Z</time></trkpt><trkpt lat="44.6485984" lon="9.6009952"><ele>678.0</ele><time>2026-05-03T12:53:58.649Z</time></trkpt><trkpt lat="44.648495" lon="9.6012069"><ele>678.0</ele><time>2026-05-03T12:53:59.649Z</time></trkpt><trkpt lat="44.6483237" lon="9.601239"><ele>678.0</ele><time>2026-05-03T12:54:00.647Z</time></trkpt><trkpt lat="44.6482401" lon="9.6013415"><ele>678.0</ele><time>2026-05-03T12:54:01.648Z</time></trkpt><trkpt lat="44.6481542" lon="9.6012084"><ele>678.0</ele><time>2026-05-03T12:54:02.649Z</time></trkpt><trkpt lat="44.6480857" lon="9.6010745"><ele>678.0</ele><time>2026-05-03T12:54:03.625Z</time></trkpt><trkpt lat="44.6480558" lon="9.6008282"><ele>678.0</ele><time>2026-05-03T12:54:04.633Z</time></trkpt><trkpt lat="44.6480978" lon="9.6006551"><ele>678.0</ele><time>2026-05-03T12:54:05.643Z</time></trkpt><trkpt lat="44.6482273" lon="9.6005303"><ele>678.0</ele><time>2026-05-03T12:54:06.624Z</time></trkpt><trkpt lat="44.6484912" lon="9.6004376"><ele>678.0</ele><time>2026-05-03T12:54:07.631Z</time></trkpt><trkpt lat="44.648715" lon="9.600381"><ele>678.0</ele><time>2026-05-03T12:54:08.646Z</time></trkpt><trkpt lat="44.6489248" lon="9.6003351"><ele>678.0</ele><time>2026-05-03T12:54:09.643Z</time></trkpt><trkpt lat="44.6491732" lon="9.6003107"><ele>674.3333333333334</ele><time>2026-05-03T12:54:10.65Z</time></trkpt><trkpt lat="44.6493875" lon="9.6003027"><ele>670.6666666666667</ele><time>2026-05-03T12:54:11.643Z</time></trkpt><trkpt lat="44.6495516" lon="9.6002752"><ele>667.0</ele><time>2026-05-03T12:54:12.654Z</time></trkpt><trkpt lat="44.6497507" lon="9.6002191"><ele>667.0</ele><time>2026-05-03T12:54:13.649Z</time></trkpt><trkpt lat="44.6499172" lon="9.6001685"><ele>667.0</ele><time>2026-05-03T12:54:14.658Z</time></trkpt><trkpt lat="44.6500502" lon="9.6000179"><ele>667.0</ele><time>2026-05-03T12:54:15.65Z</time></trkpt><trkpt lat="44.650186" lon="9.599892"><ele>667.0</ele><time>2026-05-03T12:54:16.648Z</time></trkpt><trkpt lat="44.6502689" lon="9.5997227"><ele>667.0</ele><time>2026-05-03T12:54:17.647Z</time></trkpt><trkpt lat="44.6503533" lon="9.5996602"><ele>667.0</ele><time>2026-05-03T12:54:18.642Z</time></trkpt><trkpt lat="44.650443" lon="9.5995258"><ele>667.0</ele><time>2026-05-03T12:54:19.643Z</time></trkpt><trkpt lat="44.6505296" lon="9.5995171"><ele>663.5</ele><time>2026-05-03T12:54:20.645Z</time></trkpt><trkpt lat="44.6506375" lon="9.5996774"><ele>660.0</ele><time>2026-05-03T12:54:21.636Z</time></trkpt><trkpt lat="44.6506217" lon="9.599838"><ele>656.5</ele><time>2026-05-03T12:54:22.627Z</time></trkpt><trkpt lat="44.6505389" lon="9.6000338"><ele>653.0</ele><time>2026-05-03T12:54:23.626Z</time></trkpt><trkpt lat="44.6505267" lon="9.600279"><ele>654.0</ele><time>2026-05-03T12:54:24.639Z</time></trkpt><trkpt lat="44.6505301" lon="9.6005752"><ele>655.0</ele><time>2026-05-03T12:54:25.646Z</time></trkpt><trkpt lat="44.6505236" lon="9.6007635"><ele>656.0</ele><time>2026-05-03T12:54:26.643Z</time></trkpt><trkpt lat="44.6505543" lon="9.6009197"><ele>656.0</ele><time>2026-05-03T12:54:27.641Z</time></trkpt><trkpt lat="44.6505838" lon="9.6010966"><ele>656.0</ele><time>2026-05-03T12:54:28.64Z</time></trkpt><trkpt lat="44.6506184" lon="9.6012026"><ele>656.0</ele><time>2026-05-03T12:54:29.65Z</time></trkpt><trkpt lat="44.6506605" lon="9.6013466"><ele>656.0</ele><time>2026-05-03T12:54:30.639Z</time></trkpt><trkpt lat="44.6506979" lon="9.6014835"><ele>656.0</ele><time>2026-05-03T12:54:31.646Z</time></trkpt><trkpt lat="44.6507445" lon="9.6016195"><ele>658.3333333333333</ele><time>2026-05-03T12:54:32.621Z</time></trkpt><trkpt lat="44.6507903" lon="9.6017595"><ele>660.6666666666666</ele><time>2026-05-03T12:54:33.603Z</time></trkpt><trkpt lat="44.6508336" lon="9.6018911"><ele>663.0</ele><time>2026-05-03T12:54:34.605Z</time></trkpt><trkpt lat="44.6509486" lon="9.6022081"><ele>663.0</ele><time>2026-05-03T12:54:37.607Z</time></trkpt><trkpt lat="44.6509894" lon="9.6023145"><ele>663.0</ele><time>2026-05-03T12:54:38.609Z</time></trkpt><trkpt lat="44.6510737" lon="9.6024797"><ele>663.0</ele><time>2026-05-03T12:54:40.608Z</time></trkpt><trkpt lat="44.6511452" lon="9.602513"><ele>663.0</ele><time>2026-05-03T12:54:42.611Z</time></trkpt><trkpt lat="44.649452" lon="9.5985728"><ele>656.0</ele><time>2026-05-03T12:54:54.62Z</time></trkpt><trkpt lat="44.6494624" lon="9.5983926"><ele>649.0</ele><time>2026-05-03T12:54:55.632Z</time></trkpt><trkpt lat="44.6495829" lon="9.5981701"><ele>642.0</ele><time>2026-05-03T12:54:56.627Z</time></trkpt><trkpt lat="44.6496158" lon="9.597731"><ele>640.0</ele><time>2026-05-03T12:54:58.629Z</time></trkpt><trkpt lat="44.6495717" lon="9.5975108"><ele>638.0</ele><time>2026-05-03T12:54:59.631Z</time></trkpt><trkpt lat="44.6496692" lon="9.5974597"><ele>636.0</ele><time>2026-05-03T12:55:00.634Z</time></trkpt><trkpt lat="44.6496339" lon="9.5970678"><ele>633.3333333333334</ele><time>2026-05-03T12:55:01.644Z</time></trkpt><trkpt lat="44.6495785" lon="9.5969275"><ele>630.6666666666667</ele><time>2026-05-03T12:55:02.648Z</time></trkpt><trkpt lat="44.6495062" lon="9.5967336"><ele>628.0</ele><time>2026-05-03T12:55:03.655Z</time></trkpt><trkpt lat="44.6494917" lon="9.5964803"><ele>628.0</ele><time>2026-05-03T12:55:04.655Z</time></trkpt><trkpt lat="44.6494888" lon="9.5963369"><ele>628.0</ele><time>2026-05-03T12:55:05.65Z</time></trkpt><trkpt lat="44.649485" lon="9.5960072"><ele>628.0</ele><time>2026-05-03T12:55:06.652Z</time></trkpt><trkpt lat="44.6495117" lon="9.5958213"><ele>628.5</ele><time>2026-05-03T12:55:07.65Z</time></trkpt><trkpt lat="44.6495402" lon="9.5956168"><ele>629.0</ele><time>2026-05-03T12:55:08.647Z</time></trkpt><trkpt lat="44.6494963" lon="9.5954779"><ele>629.5</ele><time>2026-05-03T12:55:09.648Z</time></trkpt><trkpt lat="44.6494127" lon="9.5953136"><ele>630.0</ele><time>2026-05-03T12:55:10.642Z</time></trkpt><trkpt lat="44.6493527" lon="9.5951301"><ele>630.0</ele><time>2026-05-03T12:55:11.642Z</time></trkpt><trkpt lat="44.6493968" lon="9.5949334"><ele>630.0</ele><time>2026-05-03T12:55:12.647Z</time></trkpt><trkpt lat="44.6493731" lon="9.5946883"><ele>630.0</ele><time>2026-05-03T12:55:13.647Z</time></trkpt><trkpt lat="44.6494523" lon="9.5944744"><ele>626.3333333333334</ele><time>2026-05-03T12:55:14.647Z</time></trkpt><trkpt lat="44.6495325" lon="9.5942029"><ele>622.6666666666667</ele><time>2026-05-03T12:55:15.645Z</time></trkpt><trkpt lat="44.6496273" lon="9.5939921"><ele>619.0</ele><time>2026-05-03T12:55:16.642Z</time></trkpt><trkpt lat="44.6497428" lon="9.5938165"><ele>619.0</ele><time>2026-05-03T12:55:17.653Z</time></trkpt><trkpt lat="44.649854" lon="9.5937045"><ele>619.0</ele><time>2026-05-03T12:55:18.649Z</time></trkpt><trkpt lat="44.6499885" lon="9.5935952"><ele>619.0</ele><time>2026-05-03T12:55:19.648Z</time></trkpt><trkpt lat="44.6501605" lon="9.5936369"><ele>615.6666666666667</ele><time>2026-05-03T12:55:20.651Z</time></trkpt><trkpt lat="44.6503302" lon="9.5936509"><ele>612.3333333333334</ele><time>2026-05-03T12:55:21.646Z</time></trkpt><trkpt lat="44.650545" lon="9.5937343"><ele>609.0</ele><time>2026-05-03T12:55:22.653Z</time></trkpt><trkpt lat="44.6507596" lon="9.5939063"><ele>609.0</ele><time>2026-05-03T12:55:23.655Z</time></trkpt><trkpt lat="44.651004" lon="9.594075"><ele>609.0</ele><time>2026-05-03T12:55:24.653Z</time></trkpt><trkpt lat="44.6512009" lon="9.5942314"><ele>608.3333333333334</ele><time>2026-05-03T12:55:25.653Z</time></trkpt><trkpt lat="44.6513787" lon="9.5943717"><ele>607.6666666666667</ele><time>2026-05-03T12:55:26.651Z</time></trkpt><trkpt lat="44.6515353" lon="9.5945398"><ele>607.0</ele><time>2026-05-03T12:55:27.649Z</time></trkpt><trkpt lat="44.6516819" lon="9.5946852"><ele>607.0</ele><time>2026-05-03T12:55:28.65Z</time></trkpt><trkpt lat="44.6518092" lon="9.5947983"><ele>607.0</ele><time>2026-05-03T12:55:29.649Z</time></trkpt><trkpt lat="44.6519355" lon="9.594896"><ele>607.0</ele><time>2026-05-03T12:55:30.643Z</time></trkpt><trkpt lat="44.6521061" lon="9.5949709"><ele>604.6666666666667</ele><time>2026-05-03T12:55:31.652Z</time></trkpt><trkpt lat="44.6522809" lon="9.5950456"><ele>602.3333333333334</ele><time>2026-05-03T12:55:32.642Z</time></trkpt><trkpt lat="44.6524433" lon="9.5950548"><ele>600.0</ele><time>2026-05-03T12:55:33.644Z</time></trkpt><trkpt lat="44.6525883" lon="9.5950214"><ele>600.0</ele><time>2026-05-03T12:55:34.64Z</time></trkpt><trkpt lat="44.652627" lon="9.5948415"><ele>600.0</ele><time>2026-05-03T12:55:35.628Z</time></trkpt><trkpt lat="44.652549" lon="9.594395"><ele>599.6666666666666</ele><time>2026-05-03T12:55:36.64Z</time></trkpt><trkpt lat="44.6524947" lon="9.5941136"><ele>599.3333333333333</ele><time>2026-05-03T12:55:37.641Z</time></trkpt><trkpt lat="44.6524845" lon="9.5938353"><ele>599.0</ele><time>2026-05-03T12:55:38.647Z</time></trkpt><trkpt lat="44.6525269" lon="9.5936252"><ele>597.0</ele><time>2026-05-03T12:55:39.651Z</time></trkpt><trkpt lat="44.652604" lon="9.5934254"><ele>595.0</ele><time>2026-05-03T12:55:40.653Z</time></trkpt><trkpt lat="44.6527678" lon="9.5932375"><ele>593.0</ele><time>2026-05-03T12:55:41.65Z</time></trkpt><trkpt lat="44.6529197" lon="9.5930602"><ele>593.5</ele><time>2026-05-03T12:55:42.671Z</time></trkpt><trkpt lat="44.6530553" lon="9.5927905"><ele>594.0</ele><time>2026-05-03T12:55:43.648Z</time></trkpt><trkpt lat="44.6531899" lon="9.592537"><ele>594.0</ele><time>2026-05-03T12:55:44.65Z</time></trkpt><trkpt lat="44.6533017" lon="9.5922866"><ele>594.0</ele><time>2026-05-03T12:55:45.647Z</time></trkpt><trkpt lat="44.65338" lon="9.5920576"><ele>594.0</ele><time>2026-05-03T12:55:46.647Z</time></trkpt><trkpt lat="44.6534509" lon="9.5917787"><ele>588.5</ele><time>2026-05-03T12:55:47.662Z</time></trkpt><trkpt lat="44.6535447" lon="9.5914789"><ele>583.0</ele><time>2026-05-03T12:55:48.653Z</time></trkpt><trkpt lat="44.6535945" lon="9.5911784"><ele>583.6666666666667</ele><time>2026-05-03T12:55:49.649Z</time></trkpt><trkpt lat="44.6536844" lon="9.5909161"><ele>584.3333333333334</ele><time>2026-05-03T12:55:50.649Z</time></trkpt><trkpt lat="44.6537283" lon="9.5906124"><ele>585.0</ele><time>2026-05-03T12:55:51.65Z</time></trkpt><trkpt lat="44.6537827" lon="9.5903143"><ele>583.0</ele><time>2026-05-03T12:55:52.657Z</time></trkpt><trkpt lat="44.65384" lon="9.5900402"><ele>581.0</ele><time>2026-05-03T12:55:53.651Z</time></trkpt><trkpt lat="44.6539352" lon="9.5897691"><ele>579.0</ele><time>2026-05-03T12:55:54.644Z</time></trkpt><trkpt lat="44.6540547" lon="9.5895125"><ele>575.6666666666666</ele><time>2026-05-03T12:55:55.65Z</time></trkpt><trkpt lat="44.6541642" lon="9.5892796"><ele>572.3333333333333</ele><time>2026-05-03T12:55:56.649Z</time></trkpt><trkpt lat="44.6542573" lon="9.5890419"><ele>569.0</ele><time>2026-05-03T12:55:57.662Z</time></trkpt><trkpt lat="44.6543469" lon="9.5887839"><ele>569.3333333333333</ele><time>2026-05-03T12:55:58.653Z</time></trkpt><trkpt lat="44.6544516" lon="9.5885367"><ele>569.6666666666666</ele><time>2026-05-03T12:55:59.654Z</time></trkpt><trkpt lat="44.6545273" lon="9.5882521"><ele>570.0</ele><time>2026-05-03T12:56:00.65Z</time></trkpt><trkpt lat="44.6546627" lon="9.5880147"><ele>568.0</ele><time>2026-05-03T12:56:01.655Z</time></trkpt><trkpt lat="44.6548047" lon="9.5877942"><ele>566.0</ele><time>2026-05-03T12:56:02.662Z</time></trkpt><trkpt lat="44.6549601" lon="9.5875739"><ele>564.0</ele><time>2026-05-03T12:56:03.658Z</time></trkpt><trkpt lat="44.6551152" lon="9.587341"><ele>564.0</ele><time>2026-05-03T12:56:04.673Z</time></trkpt><trkpt lat="44.6552507" lon="9.5870808"><ele>564.0</ele><time>2026-05-03T12:56:05.658Z</time></trkpt><trkpt lat="44.6553876" lon="9.5868512"><ele>564.0</ele><time>2026-05-03T12:56:06.66Z</time></trkpt><trkpt lat="44.6555375" lon="9.5865993"><ele>563.0</ele><time>2026-05-03T12:56:07.677Z</time></trkpt><trkpt lat="44.655676" lon="9.5863386"><ele>562.0</ele><time>2026-05-03T12:56:08.661Z</time></trkpt><trkpt lat="44.6557903" lon="9.586087"><ele>561.0</ele><time>2026-05-03T12:56:09.663Z</time></trkpt><trkpt lat="44.6558707" lon="9.5858411"><ele>561.0</ele><time>2026-05-03T12:56:10.659Z</time></trkpt><trkpt lat="44.6559554" lon="9.585561"><ele>561.0</ele><time>2026-05-03T12:56:11.661Z</time></trkpt><trkpt lat="44.6560327" lon="9.5852969"><ele>561.0</ele><time>2026-05-03T12:56:12.669Z</time></trkpt><trkpt lat="44.6561249" lon="9.5851379"><ele>560.6666666666666</ele><time>2026-05-03T12:56:13.658Z</time></trkpt><trkpt lat="44.6561714" lon="9.5849094"><ele>560.3333333333333</ele><time>2026-05-03T12:56:14.663Z</time></trkpt><trkpt lat="44.6562073" lon="9.5846828"><ele>560.0</ele><time>2026-05-03T12:56:15.659Z</time></trkpt><trkpt lat="44.6563035" lon="9.5844234"><ele>557.3333333333333</ele><time>2026-05-03T12:56:16.656Z</time></trkpt><trkpt lat="44.6564364" lon="9.5842271"><ele>554.6666666666666</ele><time>2026-05-03T12:56:17.67Z</time></trkpt><trkpt lat="44.6565832" lon="9.5840478"><ele>552.0</ele><time>2026-05-03T12:56:18.661Z</time></trkpt><trkpt lat="44.6566997" lon="9.5838526"><ele>552.0</ele><time>2026-05-03T12:56:19.657Z</time></trkpt><trkpt lat="44.6568072" lon="9.583728"><ele>552.0</ele><time>2026-05-03T12:56:20.668Z</time></trkpt><trkpt lat="44.656935" lon="9.5836946"><ele>552.0</ele><time>2026-05-03T12:56:21.655Z</time></trkpt><trkpt lat="44.6570804" lon="9.583737"><ele>552.0</ele><time>2026-05-03T12:56:22.676Z</time></trkpt><trkpt lat="44.6572467" lon="9.5838276"><ele>553.25</ele><time>2026-05-03T12:56:23.654Z</time></trkpt><trkpt lat="44.6574084" lon="9.5838483"><ele>554.5</ele><time>2026-05-03T12:56:24.653Z</time></trkpt><trkpt lat="44.6575594" lon="9.5838055"><ele>555.75</ele><time>2026-05-03T12:56:25.655Z</time></trkpt><trkpt lat="44.6576514" lon="9.5837221"><ele>557.0</ele><time>2026-05-03T12:56:26.657Z</time></trkpt><trkpt lat="44.6577146" lon="9.5835554"><ele>554.0</ele><time>2026-05-03T12:56:27.677Z</time></trkpt><trkpt lat="44.6577434" lon="9.5833594"><ele>551.0</ele><time>2026-05-03T12:56:28.661Z</time></trkpt><trkpt lat="44.6578007" lon="9.5832001"><ele>548.0</ele><time>2026-05-03T12:56:29.661Z</time></trkpt><trkpt lat="44.6579117" lon="9.5831031"><ele>545.0</ele><time>2026-05-03T12:56:30.662Z</time></trkpt><trkpt lat="44.6580265" lon="9.5830697"><ele>545.0</ele><time>2026-05-03T12:56:31.653Z</time></trkpt><trkpt lat="44.6581809" lon="9.5830434"><ele>545.0</ele><time>2026-05-03T12:56:32.667Z</time></trkpt><trkpt lat="44.6583507" lon="9.5830427"><ele>545.0</ele><time>2026-05-03T12:56:33.664Z</time></trkpt><trkpt lat="44.6585628" lon="9.5830403"><ele>544.6666666666666</ele><time>2026-05-03T12:56:34.665Z</time></trkpt><trkpt lat="44.6587228" lon="9.5830485"><ele>544.3333333333334</ele><time>2026-05-03T12:56:35.666Z</time></trkpt><trkpt lat="44.6589312" lon="9.5830983"><ele>544.0</ele><time>2026-05-03T12:56:36.664Z</time></trkpt><trkpt lat="44.6591867" lon="9.5832351"><ele>544.0</ele><time>2026-05-03T12:56:37.678Z</time></trkpt><trkpt lat="44.6593811" lon="9.5833115"><ele>544.0</ele><time>2026-05-03T12:56:38.66Z</time></trkpt><trkpt lat="44.6595492" lon="9.5834106"><ele>544.0</ele><time>2026-05-03T12:56:39.661Z</time></trkpt><trkpt lat="44.6597254" lon="9.583528"><ele>543.5</ele><time>2026-05-03T12:56:40.662Z</time></trkpt><trkpt lat="44.6598789" lon="9.5836383"><ele>543.0</ele><time>2026-05-03T12:56:41.662Z</time></trkpt><trkpt lat="44.6600041" lon="9.5836943"><ele>542.5</ele><time>2026-05-03T12:56:42.669Z</time></trkpt><trkpt lat="44.6601108" lon="9.5837659"><ele>542.0</ele><time>2026-05-03T12:56:43.663Z</time></trkpt><trkpt lat="44.660232" lon="9.5837591"><ele>544.0</ele><time>2026-05-03T12:56:44.662Z</time></trkpt><trkpt lat="44.6603529" lon="9.5837681"><ele>546.0</ele><time>2026-05-03T12:56:45.662Z</time></trkpt><trkpt lat="44.6604731" lon="9.5837513"><ele>548.0</ele><time>2026-05-03T12:56:46.629Z</time></trkpt><trkpt lat="44.6605866" lon="9.5837375"><ele>550.0</ele><time>2026-05-03T12:56:47.629Z</time></trkpt><trkpt lat="44.660635" lon="9.5836291"><ele>552.0</ele><time>2026-05-03T12:56:48.617Z</time></trkpt><trkpt lat="44.660632" lon="9.5834198"><ele>552.0</ele><time>2026-05-03T12:56:49.629Z</time></trkpt><trkpt lat="44.6606294" lon="9.5831924"><ele>552.0</ele><time>2026-05-03T12:56:50.638Z</time></trkpt><trkpt lat="44.660657" lon="9.5829876"><ele>552.0</ele><time>2026-05-03T12:56:51.655Z</time></trkpt><trkpt lat="44.6607119" lon="9.582811"><ele>552.0</ele><time>2026-05-03T12:56:52.659Z</time></trkpt><trkpt lat="44.6607933" lon="9.5826804"><ele>552.0</ele><time>2026-05-03T12:56:53.664Z</time></trkpt><trkpt lat="44.6609063" lon="9.5825499"><ele>552.0</ele><time>2026-05-03T12:56:54.653Z</time></trkpt><trkpt lat="44.6610569" lon="9.5824577"><ele>552.0</ele><time>2026-05-03T12:56:55.655Z</time></trkpt><trkpt lat="44.6612174" lon="9.5823611"><ele>552.0</ele><time>2026-05-03T12:56:56.658Z</time></trkpt><trkpt lat="44.6613583" lon="9.5822046"><ele>552.0</ele><time>2026-05-03T12:56:57.655Z</time></trkpt><trkpt lat="44.661481" lon="9.5820819"><ele>552.0</ele><time>2026-05-03T12:56:58.656Z</time></trkpt><trkpt lat="44.6615902" lon="9.5819278"><ele>551.3333333333334</ele><time>2026-05-03T12:56:59.674Z</time></trkpt><trkpt lat="44.6616927" lon="9.581769"><ele>550.6666666666667</ele><time>2026-05-03T12:57:00.659Z</time></trkpt><trkpt lat="44.6618215" lon="9.5816564"><ele>550.0</ele><time>2026-05-03T12:57:01.661Z</time></trkpt><trkpt lat="44.6619557" lon="9.5815005"><ele>550.0</ele><time>2026-05-03T12:57:02.669Z</time></trkpt><trkpt lat="44.6620785" lon="9.581285"><ele>550.0</ele><time>2026-05-03T12:57:03.665Z</time></trkpt><trkpt lat="44.6621801" lon="9.5810325"><ele>550.0</ele><time>2026-05-03T12:57:04.676Z</time></trkpt><trkpt lat="44.6622895" lon="9.5808501"><ele>547.75</ele><time>2026-05-03T12:57:05.658Z</time></trkpt><trkpt lat="44.6624016" lon="9.5807358"><ele>545.5</ele><time>2026-05-03T12:57:06.658Z</time></trkpt><trkpt lat="44.6625079" lon="9.5806272"><ele>543.25</ele><time>2026-05-03T12:57:07.657Z</time></trkpt><trkpt lat="44.6626162" lon="9.5805337"><ele>541.0</ele><time>2026-05-03T12:57:08.659Z</time></trkpt><trkpt lat="44.6627861" lon="9.5807252"><ele>540.25</ele><time>2026-05-03T12:57:10.659Z</time></trkpt><trkpt lat="44.6629062" lon="9.5807499"><ele>539.5</ele><time>2026-05-03T12:57:11.654Z</time></trkpt><trkpt lat="44.6630066" lon="9.5807451"><ele>538.75</ele><time>2026-05-03T12:57:12.656Z</time></trkpt><trkpt lat="44.6631367" lon="9.5807175"><ele>538.0</ele><time>2026-05-03T12:57:13.654Z</time></trkpt><trkpt lat="44.6633221" lon="9.58059"><ele>538.0</ele><time>2026-05-03T12:57:14.675Z</time></trkpt><trkpt lat="44.6635293" lon="9.5805232"><ele>538.0</ele><time>2026-05-03T12:57:15.657Z</time></trkpt><trkpt lat="44.6637044" lon="9.5804122"><ele>538.0</ele><time>2026-05-03T12:57:16.655Z</time></trkpt><trkpt lat="44.6639128" lon="9.5804341"><ele>538.6666666666667</ele><time>2026-05-03T12:57:17.66Z</time></trkpt><trkpt lat="44.6640633" lon="9.5802871"><ele>539.3333333333334</ele><time>2026-05-03T12:57:18.655Z</time></trkpt><trkpt lat="44.6642134" lon="9.5802407"><ele>540.0</ele><time>2026-05-03T12:57:19.666Z</time></trkpt><trkpt lat="44.6643325" lon="9.5801391"><ele>540.0</ele><time>2026-05-03T12:57:20.657Z</time></trkpt><trkpt lat="44.664406" lon="9.5799693"><ele>540.0</ele><time>2026-05-03T12:57:21.654Z</time></trkpt><trkpt lat="44.6644855" lon="9.5798254"><ele>540.0</ele><time>2026-05-03T12:57:22.654Z</time></trkpt><trkpt lat="44.6645575" lon="9.5796605"><ele>540.0</ele><time>2026-05-03T12:57:23.655Z</time></trkpt><trkpt lat="44.6646878" lon="9.5795801"><ele>539.6666666666666</ele><time>2026-05-03T12:57:24.653Z</time></trkpt><trkpt lat="44.6648876" lon="9.5795741"><ele>539.3333333333333</ele><time>2026-05-03T12:57:25.643Z</time></trkpt><trkpt lat="44.6650963" lon="9.5795358"><ele>539.0</ele><time>2026-05-03T12:57:26.655Z</time></trkpt><trkpt lat="44.665289" lon="9.5793497"><ele>539.0</ele><time>2026-05-03T12:57:27.655Z</time></trkpt><trkpt lat="44.6654752" lon="9.5792209"><ele>539.0</ele><time>2026-05-03T12:57:28.658Z</time></trkpt><trkpt lat="44.6656692" lon="9.5791102"><ele>539.0</ele><time>2026-05-03T12:57:29.669Z</time></trkpt><trkpt lat="44.6658999" lon="9.5790276"><ele>539.0</ele><time>2026-05-03T12:57:30.657Z</time></trkpt><trkpt lat="44.6660891" lon="9.5788999"><ele>539.0</ele><time>2026-05-03T12:57:31.652Z</time></trkpt><trkpt lat="44.666301" lon="9.5788516"><ele>539.0</ele><time>2026-05-03T12:57:32.661Z</time></trkpt><trkpt lat="44.6664939" lon="9.5787479"><ele>540.3333333333333</ele><time>2026-05-03T12:57:33.66Z</time></trkpt><trkpt lat="44.6666795" lon="9.5787339"><ele>541.6666666666666</ele><time>2026-05-03T12:57:34.679Z</time></trkpt><trkpt lat="44.6668649" lon="9.5787066"><ele>543.0</ele><time>2026-05-03T12:57:35.691Z</time></trkpt><trkpt lat="44.66704" lon="9.5786908"><ele>540.0</ele><time>2026-05-03T12:57:36.665Z</time></trkpt><trkpt lat="44.6671839" lon="9.5786305"><ele>537.0</ele><time>2026-05-03T12:57:37.665Z</time></trkpt><trkpt lat="44.6673059" lon="9.5784878"><ele>534.0</ele><time>2026-05-03T12:57:38.666Z</time></trkpt><trkpt lat="44.6674447" lon="9.5783087"><ele>534.0</ele><time>2026-05-03T12:57:39.671Z</time></trkpt><trkpt lat="44.6675257" lon="9.5780892"><ele>534.0</ele><time>2026-05-03T12:57:40.661Z</time></trkpt><trkpt lat="44.6676579" lon="9.5778493"><ele>534.0</ele><time>2026-05-03T12:57:41.662Z</time></trkpt><trkpt lat="44.6677917" lon="9.5776416"><ele>533.6666666666666</ele><time>2026-05-03T12:57:42.654Z</time></trkpt><trkpt lat="44.667924" lon="9.5774409"><ele>533.3333333333333</ele><time>2026-05-03T12:57:43.654Z</time></trkpt><trkpt lat="44.668033" lon="9.5772036"><ele>533.0</ele><time>2026-05-03T12:57:44.696Z</time></trkpt><trkpt lat="44.6681511" lon="9.5769359"><ele>533.0</ele><time>2026-05-03T12:57:45.66Z</time></trkpt><trkpt lat="44.6682003" lon="9.5766954"><ele>533.0</ele><time>2026-05-03T12:57:46.663Z</time></trkpt><trkpt lat="44.668218" lon="9.5764887"><ele>533.0</ele><time>2026-05-03T12:57:47.662Z</time></trkpt><trkpt lat="44.6681912" lon="9.5762632"><ele>532.5</ele><time>2026-05-03T12:57:48.664Z</time></trkpt><trkpt lat="44.6681286" lon="9.5760705"><ele>532.0</ele><time>2026-05-03T12:57:49.672Z</time></trkpt><trkpt lat="44.668074" lon="9.5759175"><ele>531.5</ele><time>2026-05-03T12:57:50.665Z</time></trkpt><trkpt lat="44.6680192" lon="9.5757821"><ele>531.0</ele><time>2026-05-03T12:57:51.661Z</time></trkpt><trkpt lat="44.6680374" lon="9.5756231"><ele>531.0</ele><time>2026-05-03T12:57:52.662Z</time></trkpt><trkpt lat="44.6681783" lon="9.575446"><ele>531.0</ele><time>2026-05-03T12:57:53.66Z</time></trkpt><trkpt lat="44.6683375" lon="9.5753397"><ele>531.0</ele><time>2026-05-03T12:57:54.667Z</time></trkpt><trkpt lat="44.6684561" lon="9.5752427"><ele>530.25</ele><time>2026-05-03T12:57:55.626Z</time></trkpt><trkpt lat="44.6685846" lon="9.5751754"><ele>529.5</ele><time>2026-05-03T12:57:56.642Z</time></trkpt><trkpt lat="44.6687138" lon="9.5751138"><ele>528.75</ele><time>2026-05-03T12:57:57.65Z</time></trkpt><trkpt lat="44.6688415" lon="9.5750412"><ele>528.0</ele><time>2026-05-03T12:57:58.656Z</time></trkpt><trkpt lat="44.6689476" lon="9.5749247"><ele>528.0</ele><time>2026-05-03T12:57:59.671Z</time></trkpt><trkpt lat="44.6690435" lon="9.5746978"><ele>528.0</ele><time>2026-05-03T12:58:00.663Z</time></trkpt><trkpt lat="44.6692213" lon="9.5745179"><ele>528.0</ele><time>2026-05-03T12:58:01.668Z</time></trkpt><trkpt lat="44.669388" lon="9.5743122"><ele>528.0</ele><time>2026-05-03T12:58:02.664Z</time></trkpt><trkpt lat="44.6695055" lon="9.5740856"><ele>528.0</ele><time>2026-05-03T12:58:03.662Z</time></trkpt><trkpt lat="44.6696226" lon="9.5738281"><ele>528.0</ele><time>2026-05-03T12:58:04.682Z</time></trkpt><trkpt lat="44.6697588" lon="9.5735983"><ele>525.0</ele><time>2026-05-03T12:58:05.66Z</time></trkpt><trkpt lat="44.6698372" lon="9.5733789"><ele>522.0</ele><time>2026-05-03T12:58:06.655Z</time></trkpt><trkpt lat="44.6698559" lon="9.5731328"><ele>519.0</ele><time>2026-05-03T12:58:07.662Z</time></trkpt><trkpt lat="44.6698388" lon="9.5728847"><ele>516.6666666666666</ele><time>2026-05-03T12:58:08.659Z</time></trkpt><trkpt lat="44.6698849" lon="9.5726873"><ele>514.3333333333333</ele><time>2026-05-03T12:58:09.671Z</time></trkpt><trkpt lat="44.6699913" lon="9.5724962"><ele>512.0</ele><time>2026-05-03T12:58:10.664Z</time></trkpt><trkpt lat="44.6701224" lon="9.5723871"><ele>512.0</ele><time>2026-05-03T12:58:11.66Z</time></trkpt><trkpt lat="44.6702107" lon="9.5722758"><ele>512.0</ele><time>2026-05-03T12:58:12.658Z</time></trkpt><trkpt lat="44.670324" lon="9.5722389"><ele>512.0</ele><time>2026-05-03T12:58:13.649Z</time></trkpt><trkpt lat="44.6704395" lon="9.5722029"><ele>512.0</ele><time>2026-05-03T12:58:14.648Z</time></trkpt><trkpt lat="44.6706178" lon="9.5723523"><ele>510.5</ele><time>2026-05-03T12:58:15.639Z</time></trkpt><trkpt lat="44.6707326" lon="9.5724383"><ele>509.0</ele><time>2026-05-03T12:58:16.648Z</time></trkpt><trkpt lat="44.6707515" lon="9.5726595"><ele>507.5</ele><time>2026-05-03T12:58:17.649Z</time></trkpt><trkpt lat="44.6708051" lon="9.5727507"><ele>506.0</ele><time>2026-05-03T12:58:18.653Z</time></trkpt><trkpt lat="44.6708613" lon="9.5728349"><ele>505.49999999999994</ele><time>2026-05-03T12:58:19.661Z</time></trkpt><trkpt lat="44.6709212" lon="9.5729071"><ele>505.0</ele><time>2026-05-03T12:58:20.625Z</time></trkpt><trkpt lat="44.6709868" lon="9.572972"><ele>504.5</ele><time>2026-05-03T12:58:21.613Z</time></trkpt><trkpt lat="44.6710569" lon="9.5730344"><ele>504.0</ele><time>2026-05-03T12:58:22.606Z</time></trkpt><trkpt lat="44.6711254" lon="9.5730959"><ele>503.49999999999994</ele><time>2026-05-03T12:58:23.607Z</time></trkpt><trkpt lat="44.6711948" lon="9.5731593"><ele>503.0</ele><time>2026-05-03T12:58:24.622Z</time></trkpt><trkpt lat="44.6712605" lon="9.5732358"><ele>499.5</ele><time>2026-05-03T12:58:25.62Z</time></trkpt><trkpt lat="44.6713272" lon="9.5733916"><ele>496.0</ele><time>2026-05-03T12:58:26.618Z</time></trkpt><trkpt lat="44.6713901" lon="9.5735906"><ele>492.5</ele><time>2026-05-03T12:58:27.64Z</time></trkpt><trkpt lat="44.6714428" lon="9.5738022"><ele>489.0</ele><time>2026-05-03T12:58:28.65Z</time></trkpt><trkpt lat="44.671453" lon="9.574182"><ele>489.5</ele><time>2026-05-03T12:58:29.667Z</time></trkpt><trkpt lat="44.6715487" lon="9.5746907"><ele>490.0</ele><time>2026-05-03T12:58:30.647Z</time></trkpt><trkpt lat="44.6716648" lon="9.575217"><ele>491.0</ele><time>2026-05-03T12:58:31.648Z</time></trkpt><trkpt lat="44.6717456" lon="9.5755321"><ele>492.0</ele><time>2026-05-03T12:58:32.646Z</time></trkpt><trkpt lat="44.6718193" lon="9.5758747"><ele>492.0</ele><time>2026-05-03T12:58:33.645Z</time></trkpt><trkpt lat="44.6719149" lon="9.5761701"><ele>492.0</ele><time>2026-05-03T12:58:34.649Z</time></trkpt><trkpt lat="44.6719156" lon="9.5765603"><ele>493.0</ele><time>2026-05-03T12:58:35.655Z</time></trkpt><trkpt lat="44.6719801" lon="9.5768475"><ele>494.0</ele><time>2026-05-03T12:58:36.651Z</time></trkpt><trkpt lat="44.6721534" lon="9.5769902"><ele>495.0</ele><time>2026-05-03T12:58:37.658Z</time></trkpt><trkpt lat="44.6722887" lon="9.5770556"><ele>495.75</ele><time>2026-05-03T12:58:38.659Z</time></trkpt><trkpt lat="44.6724283" lon="9.5771"><ele>496.5</ele><time>2026-05-03T12:58:39.656Z</time></trkpt><trkpt lat="44.672566" lon="9.5771176"><ele>497.25</ele><time>2026-05-03T12:58:40.662Z</time></trkpt><trkpt lat="44.6726951" lon="9.5771088"><ele>498.0</ele><time>2026-05-03T12:58:41.656Z</time></trkpt><trkpt lat="44.6728349" lon="9.577066"><ele>502.66666666666663</ele><time>2026-05-03T12:58:42.653Z</time></trkpt><trkpt lat="44.6729817" lon="9.5769073"><ele>507.3333333333333</ele><time>2026-05-03T12:58:43.642Z</time></trkpt><trkpt lat="44.6731065" lon="9.5767323"><ele>512.0</ele><time>2026-05-03T12:58:44.647Z</time></trkpt><trkpt lat="44.6732032" lon="9.5764844"><ele>512.0</ele><time>2026-05-03T12:58:45.64Z</time></trkpt><trkpt lat="44.6733414" lon="9.5763285"><ele>512.0</ele><time>2026-05-03T12:58:46.636Z</time></trkpt><trkpt lat="44.6733804" lon="9.5760951"><ele>512.0</ele><time>2026-05-03T12:58:47.634Z</time></trkpt><trkpt lat="44.6733868" lon="9.5757846"><ele>510.0</ele><time>2026-05-03T12:58:48.64Z</time></trkpt><trkpt lat="44.6733674" lon="9.5753863"><ele>508.0</ele><time>2026-05-03T12:58:49.645Z</time></trkpt><trkpt lat="44.6733219" lon="9.5750761"><ele>506.6666666666667</ele><time>2026-05-03T12:58:50.639Z</time></trkpt><trkpt lat="44.6732828" lon="9.5747995"><ele>505.33333333333337</ele><time>2026-05-03T12:58:51.646Z</time></trkpt><trkpt lat="44.6732769" lon="9.5745375"><ele>504.0</ele><time>2026-05-03T12:58:52.643Z</time></trkpt><trkpt lat="44.6732795" lon="9.5742891"><ele>503.0</ele><time>2026-05-03T12:58:53.653Z</time></trkpt><trkpt lat="44.6733477" lon="9.5740756"><ele>502.0</ele><time>2026-05-03T12:58:54.658Z</time></trkpt><trkpt lat="44.6734336" lon="9.5738596"><ele>501.0</ele><time>2026-05-03T12:58:55.654Z</time></trkpt><trkpt lat="44.6735029" lon="9.5735934"><ele>504.75</ele><time>2026-05-03T12:58:56.664Z</time></trkpt><trkpt lat="44.673618" lon="9.5734645"><ele>508.5</ele><time>2026-05-03T12:58:57.651Z</time></trkpt><trkpt lat="44.6737375" lon="9.5733183"><ele>512.25</ele><time>2026-05-03T12:58:58.652Z</time></trkpt><trkpt lat="44.6738035" lon="9.5731785"><ele>516.0</ele><time>2026-05-03T12:58:59.654Z</time></trkpt><trkpt lat="44.6738262" lon="9.5730608"><ele>514.3333333333334</ele><time>2026-05-03T12:59:00.648Z</time></trkpt><trkpt lat="44.6738057" lon="9.5728066"><ele>512.6666666666667</ele><time>2026-05-03T12:59:01.652Z</time></trkpt><trkpt lat="44.6738387" lon="9.5725776"><ele>511.0</ele><time>2026-05-03T12:59:02.647Z</time></trkpt><trkpt lat="44.6738928" lon="9.5723659"><ele>511.0</ele><time>2026-05-03T12:59:03.647Z</time></trkpt><trkpt lat="44.6740091" lon="9.57217"><ele>511.0</ele><time>2026-05-03T12:59:04.653Z</time></trkpt><trkpt lat="44.6741437" lon="9.5719828"><ele>511.0</ele><time>2026-05-03T12:59:05.65Z</time></trkpt><trkpt lat="44.6742413" lon="9.5718295"><ele>508.6666666666667</ele><time>2026-05-03T12:59:06.644Z</time></trkpt><trkpt lat="44.6743398" lon="9.5716845"><ele>506.33333333333337</ele><time>2026-05-03T12:59:07.642Z</time></trkpt><trkpt lat="44.6744607" lon="9.571582"><ele>504.0</ele><time>2026-05-03T12:59:08.642Z</time></trkpt><trkpt lat="44.67462" lon="9.571506"><ele>504.0</ele><time>2026-05-03T12:59:09.64Z</time></trkpt><trkpt lat="44.6747452" lon="9.5714376"><ele>504.0</ele><time>2026-05-03T12:59:10.645Z</time></trkpt><trkpt lat="44.6748774" lon="9.5713589"><ele>504.0</ele><time>2026-05-03T12:59:11.64Z</time></trkpt><trkpt lat="44.6750121" lon="9.5712653"><ele>504.0</ele><time>2026-05-03T12:59:12.622Z</time></trkpt><trkpt lat="44.6751318" lon="9.5711496"><ele>503.2</ele><time>2026-05-03T12:59:13.637Z</time></trkpt><trkpt lat="44.6752512" lon="9.5711175"><ele>502.4</ele><time>2026-05-03T12:59:14.638Z</time></trkpt><trkpt lat="44.6753236" lon="9.5710191"><ele>501.6</ele><time>2026-05-03T12:59:15.643Z</time></trkpt><trkpt lat="44.675408" lon="9.570948"><ele>500.8</ele><time>2026-05-03T12:59:16.626Z</time></trkpt><trkpt lat="44.6755264" lon="9.5708886"><ele>500.0</ele><time>2026-05-03T12:59:17.619Z</time></trkpt><trkpt lat="44.6756509" lon="9.5708392"><ele>500.0</ele><time>2026-05-03T12:59:18.631Z</time></trkpt><trkpt lat="44.6758005" lon="9.5708617"><ele>500.0</ele><time>2026-05-03T12:59:19.639Z</time></trkpt><trkpt lat="44.6759574" lon="9.5708564"><ele>500.0</ele><time>2026-05-03T12:59:20.647Z</time></trkpt><trkpt lat="44.6761391" lon="9.5708332"><ele>499.5</ele><time>2026-05-03T12:59:21.641Z</time></trkpt><trkpt lat="44.6762722" lon="9.5707656"><ele>499.0</ele><time>2026-05-03T12:59:22.641Z</time></trkpt><trkpt lat="44.6763424" lon="9.5707778"><ele>498.5</ele><time>2026-05-03T12:59:23.652Z</time></trkpt><trkpt lat="44.6764514" lon="9.5709151"><ele>498.0</ele><time>2026-05-03T12:59:24.652Z</time></trkpt><trkpt lat="44.6765581" lon="9.5710327"><ele>498.0</ele><time>2026-05-03T12:59:25.649Z</time></trkpt><trkpt lat="44.6766437" lon="9.5710116"><ele>498.0</ele><time>2026-05-03T12:59:26.653Z</time></trkpt><trkpt lat="44.676795" lon="9.5709942"><ele>498.0</ele><time>2026-05-03T12:59:27.652Z</time></trkpt><trkpt lat="44.6769699" lon="9.5709803"><ele>498.0</ele><time>2026-05-03T12:59:28.647Z</time></trkpt><trkpt lat="44.6771378" lon="9.570954"><ele>499.75</ele><time>2026-05-03T12:59:29.652Z</time></trkpt><trkpt lat="44.6772248" lon="9.5709008"><ele>501.5</ele><time>2026-05-03T12:59:30.651Z</time></trkpt><trkpt lat="44.6772864" lon="9.5707474"><ele>503.25</ele><time>2026-05-03T12:59:31.657Z</time></trkpt><trkpt lat="44.677367" lon="9.570589"><ele>505.0</ele><time>2026-05-03T12:59:32.646Z</time></trkpt><trkpt lat="44.6774287" lon="9.5704166"><ele>502.6666666666667</ele><time>2026-05-03T12:59:33.646Z</time></trkpt><trkpt lat="44.6774569" lon="9.5701422"><ele>500.33333333333337</ele><time>2026-05-03T12:59:34.651Z</time></trkpt><trkpt lat="44.6774369" lon="9.5698805"><ele>498.0</ele><time>2026-05-03T12:59:35.651Z</time></trkpt><trkpt lat="44.6774814" lon="9.5697043"><ele>498.0</ele><time>2026-05-03T12:59:36.644Z</time></trkpt><trkpt lat="44.6775929" lon="9.5695354"><ele>498.0</ele><time>2026-05-03T12:59:37.647Z</time></trkpt><trkpt lat="44.6777476" lon="9.5693898"><ele>498.0</ele><time>2026-05-03T12:59:38.641Z</time></trkpt><trkpt lat="44.6779154" lon="9.5692744"><ele>498.66666666666663</ele><time>2026-05-03T12:59:39.638Z</time></trkpt><trkpt lat="44.6780373" lon="9.5691336"><ele>499.3333333333333</ele><time>2026-05-03T12:59:40.644Z</time></trkpt><trkpt lat="44.6781329" lon="9.5689703"><ele>500.0</ele><time>2026-05-03T12:59:41.639Z</time></trkpt><trkpt lat="44.6781988" lon="9.5687803"><ele>497.4</ele><time>2026-05-03T12:59:42.641Z</time></trkpt><trkpt lat="44.6782536" lon="9.5685864"><ele>494.8</ele><time>2026-05-03T12:59:43.644Z</time></trkpt><trkpt lat="44.6782714" lon="9.5684665"><ele>492.20000000000005</ele><time>2026-05-03T12:59:44.64Z</time></trkpt><trkpt lat="44.6782022" lon="9.5684344"><ele>489.6</ele><time>2026-05-03T12:59:47.647Z</time></trkpt><trkpt lat="44.6781261" lon="9.5683514"><ele>487.0</ele><time>2026-05-03T12:59:48.652Z</time></trkpt><trkpt lat="44.6780033" lon="9.568195"><ele>487.0</ele><time>2026-05-03T12:59:49.644Z</time></trkpt><trkpt lat="44.6778885" lon="9.5680034"><ele>487.0</ele><time>2026-05-03T12:59:50.644Z</time></trkpt><trkpt lat="44.6777734" lon="9.5678182"><ele>487.0</ele><time>2026-05-03T12:59:51.65Z</time></trkpt><trkpt lat="44.6776275" lon="9.5675802"><ele>484.0</ele><time>2026-05-03T12:59:52.648Z</time></trkpt><trkpt lat="44.6774717" lon="9.5673635"><ele>481.0</ele><time>2026-05-03T12:59:53.649Z</time></trkpt><trkpt lat="44.6773769" lon="9.5671316"><ele>478.0</ele><time>2026-05-03T12:59:54.649Z</time></trkpt><trkpt lat="44.6772914" lon="9.5669763"><ele>478.0</ele><time>2026-05-03T12:59:55.653Z</time></trkpt><trkpt lat="44.6772129" lon="9.5668593"><ele>477.99999999999994</ele><time>2026-05-03T12:59:56.649Z</time></trkpt><trkpt lat="44.6771492" lon="9.5667194"><ele>477.99999999999994</ele><time>2026-05-03T12:59:57.642Z</time></trkpt><trkpt lat="44.67707" lon="9.5666331"><ele>478.0</ele><time>2026-05-03T12:59:58.645Z</time></trkpt><trkpt lat="44.6769594" lon="9.5666269"><ele>478.0</ele><time>2026-05-03T12:59:59.648Z</time></trkpt><trkpt lat="44.6768398" lon="9.566701"><ele>481.6666666666667</ele><time>2026-05-03T13:00:00.647Z</time></trkpt><trkpt lat="44.6766775" lon="9.5668042"><ele>485.33333333333337</ele><time>2026-05-03T13:00:01.653Z</time></trkpt><trkpt lat="44.6764926" lon="9.5668886"><ele>489.0</ele><time>2026-05-03T13:00:02.648Z</time></trkpt><trkpt lat="44.6763128" lon="9.5669159"><ele>489.0</ele><time>2026-05-03T13:00:03.643Z</time></trkpt><trkpt lat="44.6761276" lon="9.5668657"><ele>489.0</ele><time>2026-05-03T13:00:04.651Z</time></trkpt><trkpt lat="44.6759413" lon="9.5668812"><ele>489.0</ele><time>2026-05-03T13:00:05.645Z</time></trkpt><trkpt lat="44.6757464" lon="9.5668525"><ele>489.66666666666663</ele><time>2026-05-03T13:00:06.651Z</time></trkpt><trkpt lat="44.6756069" lon="9.5668592"><ele>490.3333333333333</ele><time>2026-05-03T13:00:07.643Z</time></trkpt><trkpt lat="44.6754352" lon="9.566925"><ele>491.0</ele><time>2026-05-03T13:00:08.646Z</time></trkpt><trkpt lat="44.6752232" lon="9.5670245"><ele>487.5</ele><time>2026-05-03T13:00:09.639Z</time></trkpt><trkpt lat="44.675004" lon="9.5670956"><ele>484.0</ele><time>2026-05-03T13:00:10.643Z</time></trkpt><trkpt lat="44.6747559" lon="9.5671883"><ele>484.0</ele><time>2026-05-03T13:00:11.643Z</time></trkpt><trkpt lat="44.6745434" lon="9.5673126"><ele>484.0</ele><time>2026-05-03T13:00:12.645Z</time></trkpt><trkpt lat="44.6743366" lon="9.5673714"><ele>484.0</ele><time>2026-05-03T13:00:13.642Z</time></trkpt><trkpt lat="44.6741452" lon="9.5674358"><ele>487.6666666666667</ele><time>2026-05-03T13:00:14.647Z</time></trkpt><trkpt lat="44.6739661" lon="9.5675545"><ele>491.33333333333337</ele><time>2026-05-03T13:00:15.641Z</time></trkpt><trkpt lat="44.6737933" lon="9.5676567"><ele>495.0</ele><time>2026-05-03T13:00:16.641Z</time></trkpt><trkpt lat="44.673601" lon="9.5677666"><ele>493.33333333333337</ele><time>2026-05-03T13:00:17.642Z</time></trkpt><trkpt lat="44.6734433" lon="9.5679166"><ele>491.6666666666667</ele><time>2026-05-03T13:00:18.645Z</time></trkpt><trkpt lat="44.6732853" lon="9.568045"><ele>490.0</ele><time>2026-05-03T13:00:19.641Z</time></trkpt><trkpt lat="44.673141" lon="9.5680948"><ele>490.0</ele><time>2026-05-03T13:00:20.641Z</time></trkpt><trkpt lat="44.6729968" lon="9.5681002"><ele>490.0</ele><time>2026-05-03T13:00:21.642Z</time></trkpt><trkpt lat="44.6728158" lon="9.5681149"><ele>490.0</ele><time>2026-05-03T13:00:22.636Z</time></trkpt><trkpt lat="44.6726538" lon="9.5681309"><ele>493.6666666666667</ele><time>2026-05-03T13:00:23.635Z</time></trkpt><trkpt lat="44.6724884" lon="9.5681394"><ele>497.33333333333337</ele><time>2026-05-03T13:00:24.646Z</time></trkpt><trkpt lat="44.6723081" lon="9.5681525"><ele>501.0</ele><time>2026-05-03T13:00:25.642Z</time></trkpt><trkpt lat="44.6721405" lon="9.568161"><ele>501.0</ele><time>2026-05-03T13:00:26.64Z</time></trkpt><trkpt lat="44.672008" lon="9.5681469"><ele>501.0</ele><time>2026-05-03T13:00:27.636Z</time></trkpt><trkpt lat="44.6718698" lon="9.5680612"><ele>501.0</ele><time>2026-05-03T13:00:28.642Z</time></trkpt><trkpt lat="44.6717059" lon="9.5679949"><ele>499.0</ele><time>2026-05-03T13:00:29.638Z</time></trkpt><trkpt lat="44.6715404" lon="9.5679246"><ele>497.0</ele><time>2026-05-03T13:00:30.638Z</time></trkpt><trkpt lat="44.6713725" lon="9.5677778"><ele>495.0</ele><time>2026-05-03T13:00:31.638Z</time></trkpt><trkpt lat="44.6712258" lon="9.5676372"><ele>498.33333333333337</ele><time>2026-05-03T13:00:32.644Z</time></trkpt><trkpt lat="44.6710928" lon="9.5675464"><ele>501.6666666666667</ele><time>2026-05-03T13:00:33.646Z</time></trkpt><trkpt lat="44.6709416" lon="9.5674801"><ele>505.0</ele><time>2026-05-03T13:00:34.663Z</time></trkpt><trkpt lat="44.6707593" lon="9.5675123"><ele>505.0</ele><time>2026-05-03T13:00:35.66Z</time></trkpt><trkpt lat="44.6705921" lon="9.5675583"><ele>505.0</ele><time>2026-05-03T13:00:36.657Z</time></trkpt><trkpt lat="44.6704604" lon="9.5675507"><ele>505.0</ele><time>2026-05-03T13:00:37.651Z</time></trkpt><trkpt lat="44.6703038" lon="9.5673972"><ele>504.33333333333337</ele><time>2026-05-03T13:00:38.656Z</time></trkpt><trkpt lat="44.6701437" lon="9.5673082"><ele>503.66666666666663</ele><time>2026-05-03T13:00:39.656Z</time></trkpt><trkpt lat="44.6699646" lon="9.5671876"><ele>503.0</ele><time>2026-05-03T13:00:40.655Z</time></trkpt><trkpt lat="44.6697945" lon="9.5671072"><ele>507.3333333333333</ele><time>2026-05-03T13:00:41.662Z</time></trkpt><trkpt lat="44.6696259" lon="9.567022"><ele>511.66666666666663</ele><time>2026-05-03T13:00:42.658Z</time></trkpt><trkpt lat="44.6694458" lon="9.5669835"><ele>516.0</ele><time>2026-05-03T13:00:43.656Z</time></trkpt><trkpt lat="44.669239" lon="9.5669074"><ele>516.0</ele><time>2026-05-03T13:00:44.655Z</time></trkpt><trkpt lat="44.669094" lon="9.5668188"><ele>516.0</ele><time>2026-05-03T13:00:45.653Z</time></trkpt><trkpt lat="44.6689647" lon="9.566709"><ele>516.0</ele><time>2026-05-03T13:00:46.651Z</time></trkpt><trkpt lat="44.6688646" lon="9.566539"><ele>516.0</ele><time>2026-05-03T13:00:47.65Z</time></trkpt><trkpt lat="44.6688183" lon="9.5664179"><ele>516.0</ele><time>2026-05-03T13:00:48.659Z</time></trkpt><trkpt lat="44.6687476" lon="9.5662416"><ele>516.0</ele><time>2026-05-03T13:00:49.662Z</time></trkpt><trkpt lat="44.668672" lon="9.5660478"><ele>516.0</ele><time>2026-05-03T13:00:50.664Z</time></trkpt><trkpt lat="44.668571" lon="9.5658735"><ele>516.0</ele><time>2026-05-03T13:00:51.659Z</time></trkpt><trkpt lat="44.6684635" lon="9.5657048"><ele>516.0</ele><time>2026-05-03T13:00:52.664Z</time></trkpt><trkpt lat="44.6683148" lon="9.5655239"><ele>516.0</ele><time>2026-05-03T13:00:53.659Z</time></trkpt><trkpt lat="44.6681784" lon="9.5653527"><ele>516.0</ele><time>2026-05-03T13:00:54.664Z</time></trkpt><trkpt lat="44.6680521" lon="9.5652036"><ele>516.0</ele><time>2026-05-03T13:00:55.658Z</time></trkpt><trkpt lat="44.6679214" lon="9.5650745"><ele>516.0</ele><time>2026-05-03T13:00:56.663Z</time></trkpt><trkpt lat="44.6677779" lon="9.5649301"><ele>514.6666666666666</ele><time>2026-05-03T13:00:57.655Z</time></trkpt><trkpt lat="44.6676593" lon="9.5647654"><ele>513.3333333333333</ele><time>2026-05-03T13:00:58.659Z</time></trkpt><trkpt lat="44.6675618" lon="9.5645549"><ele>512.0</ele><time>2026-05-03T13:00:59.655Z</time></trkpt><trkpt lat="44.6674976" lon="9.5642868"><ele>512.0</ele><time>2026-05-03T13:01:00.658Z</time></trkpt><trkpt lat="44.6674395" lon="9.5639968"><ele>512.0</ele><time>2026-05-03T13:01:01.654Z</time></trkpt><trkpt lat="44.6674117" lon="9.5637576"><ele>512.0</ele><time>2026-05-03T13:01:02.656Z</time></trkpt><trkpt lat="44.6674236" lon="9.5635087"><ele>514.6666666666666</ele><time>2026-05-03T13:01:03.657Z</time></trkpt><trkpt lat="44.6674313" lon="9.5632429"><ele>517.3333333333334</ele><time>2026-05-03T13:01:04.659Z</time></trkpt><trkpt lat="44.6674013" lon="9.5630189"><ele>520.0</ele><time>2026-05-03T13:01:05.666Z</time></trkpt><trkpt lat="44.6673328" lon="9.5628295"><ele>523.0</ele><time>2026-05-03T13:01:06.651Z</time></trkpt><trkpt lat="44.6672378" lon="9.5626271"><ele>526.0</ele><time>2026-05-03T13:01:07.651Z</time></trkpt><trkpt lat="44.6671898" lon="9.5624247"><ele>529.0</ele><time>2026-05-03T13:01:08.655Z</time></trkpt><trkpt lat="44.6671172" lon="9.5622597"><ele>529.0</ele><time>2026-05-03T13:01:09.662Z</time></trkpt><trkpt lat="44.6669568" lon="9.5620877"><ele>529.0</ele><time>2026-05-03T13:01:10.657Z</time></trkpt><trkpt lat="44.6667628" lon="9.561986"><ele>529.0</ele><time>2026-05-03T13:01:11.656Z</time></trkpt><trkpt lat="44.6665756" lon="9.5618769"><ele>527.0</ele><time>2026-05-03T13:01:12.663Z</time></trkpt><trkpt lat="44.6663868" lon="9.5618098"><ele>525.0</ele><time>2026-05-03T13:01:13.661Z</time></trkpt><trkpt lat="44.6662498" lon="9.5617167"><ele>523.0</ele><time>2026-05-03T13:01:14.657Z</time></trkpt><trkpt lat="44.6661283" lon="9.5615257"><ele>520.6666666666667</ele><time>2026-05-03T13:01:15.656Z</time></trkpt><trkpt lat="44.6660095" lon="9.5613336"><ele>518.3333333333334</ele><time>2026-05-03T13:01:16.657Z</time></trkpt><trkpt lat="44.6659572" lon="9.5610872"><ele>516.0</ele><time>2026-05-03T13:01:17.655Z</time></trkpt><trkpt lat="44.6659395" lon="9.5608837"><ele>516.0</ele><time>2026-05-03T13:01:18.659Z</time></trkpt><trkpt lat="44.665924" lon="9.5606451"><ele>516.0</ele><time>2026-05-03T13:01:19.651Z</time></trkpt><trkpt lat="44.6659967" lon="9.5604557"><ele>516.0</ele><time>2026-05-03T13:01:20.647Z</time></trkpt><trkpt lat="44.6661124" lon="9.5603019"><ele>521.3333333333334</ele><time>2026-05-03T13:01:21.647Z</time></trkpt><trkpt lat="44.666247" lon="9.5600997"><ele>526.6666666666667</ele><time>2026-05-03T13:01:22.63Z</time></trkpt><trkpt lat="44.6663378" lon="9.5598726"><ele>532.0</ele><time>2026-05-03T13:01:23.636Z</time></trkpt><trkpt lat="44.6663645" lon="9.5595567"><ele>532.6666666666667</ele><time>2026-05-03T13:01:24.654Z</time></trkpt><trkpt lat="44.6663563" lon="9.5593357"><ele>533.3333333333334</ele><time>2026-05-03T13:01:25.648Z</time></trkpt><trkpt lat="44.6662944" lon="9.5591062"><ele>534.0</ele><time>2026-05-03T13:01:26.647Z</time></trkpt><trkpt lat="44.6662162" lon="9.5588957"><ele>537.0</ele><time>2026-05-03T13:01:27.653Z</time></trkpt><trkpt lat="44.6661615" lon="9.5586652"><ele>540.0</ele><time>2026-05-03T13:01:28.655Z</time></trkpt><trkpt lat="44.6661215" lon="9.5584064"><ele>543.0</ele><time>2026-05-03T13:01:29.655Z</time></trkpt><trkpt lat="44.6660793" lon="9.558202"><ele>537.0</ele><time>2026-05-03T13:01:30.654Z</time></trkpt><trkpt lat="44.6659853" lon="9.5579971"><ele>531.0</ele><time>2026-05-03T13:01:31.651Z</time></trkpt><trkpt lat="44.6658655" lon="9.5577692"><ele>525.0</ele><time>2026-05-03T13:01:32.657Z</time></trkpt><trkpt lat="44.6658371" lon="9.5575156"><ele>525.0</ele><time>2026-05-03T13:01:33.66Z</time></trkpt><trkpt lat="44.6658179" lon="9.5572673"><ele>525.0</ele><time>2026-05-03T13:01:34.659Z</time></trkpt><trkpt lat="44.6657749" lon="9.556997"><ele>525.0</ele><time>2026-05-03T13:01:35.671Z</time></trkpt><trkpt lat="44.6657045" lon="9.5567251"><ele>528.3333333333334</ele><time>2026-05-03T13:01:36.659Z</time></trkpt><trkpt lat="44.6656697" lon="9.5565079"><ele>531.6666666666667</ele><time>2026-05-03T13:01:37.659Z</time></trkpt><trkpt lat="44.6655797" lon="9.5562631"><ele>535.0</ele><time>2026-05-03T13:01:38.655Z</time></trkpt><trkpt lat="44.665538" lon="9.5560247"><ele>539.6666666666667</ele><time>2026-05-03T13:01:39.659Z</time></trkpt><trkpt lat="44.6654869" lon="9.5557628"><ele>544.3333333333334</ele><time>2026-05-03T13:01:40.657Z</time></trkpt><trkpt lat="44.6654007" lon="9.5554911"><ele>549.0</ele><time>2026-05-03T13:01:41.66Z</time></trkpt><trkpt lat="44.6652848" lon="9.5552027"><ele>544.3333333333334</ele><time>2026-05-03T13:01:42.659Z</time></trkpt><trkpt lat="44.6652361" lon="9.5549436"><ele>539.6666666666667</ele><time>2026-05-03T13:01:43.66Z</time></trkpt><trkpt lat="44.6651781" lon="9.5546752"><ele>535.0</ele><time>2026-05-03T13:01:44.659Z</time></trkpt><trkpt lat="44.6651272" lon="9.5543893"><ele>535.0</ele><time>2026-05-03T13:01:45.652Z</time></trkpt><trkpt lat="44.6650261" lon="9.5540756"><ele>535.0</ele><time>2026-05-03T13:01:46.656Z</time></trkpt><trkpt lat="44.6649501" lon="9.5537862"><ele>537.3333333333334</ele><time>2026-05-03T13:01:47.65Z</time></trkpt><trkpt lat="44.6648408" lon="9.5535236"><ele>539.6666666666666</ele><time>2026-05-03T13:01:48.651Z</time></trkpt><trkpt lat="44.6647553" lon="9.5532999"><ele>542.0</ele><time>2026-05-03T13:01:49.648Z</time></trkpt><trkpt lat="44.6647222" lon="9.5530887"><ele>542.6666666666666</ele><time>2026-05-03T13:01:50.647Z</time></trkpt><trkpt lat="44.6646794" lon="9.5528487"><ele>543.3333333333334</ele><time>2026-05-03T13:01:51.644Z</time></trkpt><trkpt lat="44.6646191" lon="9.55259"><ele>544.0</ele><time>2026-05-03T13:01:52.648Z</time></trkpt><trkpt lat="44.6646026" lon="9.5523518"><ele>544.0</ele><time>2026-05-03T13:01:53.647Z</time></trkpt><trkpt lat="44.6646529" lon="9.5520533"><ele>544.0</ele><time>2026-05-03T13:01:54.651Z</time></trkpt><trkpt lat="44.6647079" lon="9.5517497"><ele>544.0</ele><time>2026-05-03T13:01:55.649Z</time></trkpt><trkpt lat="44.6647525" lon="9.5514805"><ele>544.0</ele><time>2026-05-03T13:01:56.648Z</time></trkpt><trkpt lat="44.6647365" lon="9.5512356"><ele>544.0</ele><time>2026-05-03T13:01:57.65Z</time></trkpt><trkpt lat="44.6647086" lon="9.5510392"><ele>544.0</ele><time>2026-05-03T13:01:58.65Z</time></trkpt><trkpt lat="44.6646347" lon="9.550866"><ele>544.6666666666667</ele><time>2026-05-03T13:01:59.651Z</time></trkpt><trkpt lat="44.6645117" lon="9.5506679"><ele>545.3333333333334</ele><time>2026-05-03T13:02:00.644Z</time></trkpt><trkpt lat="44.6643805" lon="9.5504361"><ele>546.0</ele><time>2026-05-03T13:02:01.651Z</time></trkpt><trkpt lat="44.6642302" lon="9.5502578"><ele>547.0</ele><time>2026-05-03T13:02:02.654Z</time></trkpt><trkpt lat="44.6641316" lon="9.5500201"><ele>548.0</ele><time>2026-05-03T13:02:03.653Z</time></trkpt><trkpt lat="44.6639849" lon="9.5497682"><ele>549.0</ele><time>2026-05-03T13:02:04.654Z</time></trkpt><trkpt lat="44.6638714" lon="9.5494936"><ele>549.0</ele><time>2026-05-03T13:02:05.654Z</time></trkpt><trkpt lat="44.6637838" lon="9.5492084"><ele>549.0</ele><time>2026-05-03T13:02:06.65Z</time></trkpt><trkpt lat="44.6637119" lon="9.5489052"><ele>549.0</ele><time>2026-05-03T13:02:07.647Z</time></trkpt><trkpt lat="44.6635877" lon="9.5486061"><ele>539.0</ele><time>2026-05-03T13:02:08.652Z</time></trkpt><trkpt lat="44.6634375" lon="9.5483691"><ele>529.0</ele><time>2026-05-03T13:02:09.654Z</time></trkpt><trkpt lat="44.6632947" lon="9.5481216"><ele>532.3333333333334</ele><time>2026-05-03T13:02:10.652Z</time></trkpt><trkpt lat="44.6631824" lon="9.5478584"><ele>535.6666666666666</ele><time>2026-05-03T13:02:11.649Z</time></trkpt><trkpt lat="44.6631103" lon="9.5476255"><ele>539.0</ele><time>2026-05-03T13:02:12.651Z</time></trkpt><trkpt lat="44.6630828" lon="9.5474071"><ele>539.0</ele><time>2026-05-03T13:02:13.652Z</time></trkpt><trkpt lat="44.6630872" lon="9.5471885"><ele>539.0</ele><time>2026-05-03T13:02:14.654Z</time></trkpt><trkpt lat="44.6631434" lon="9.5469888"><ele>539.0</ele><time>2026-05-03T13:02:15.648Z</time></trkpt><trkpt lat="44.6632045" lon="9.5467984"><ele>538.75</ele><time>2026-05-03T13:02:16.645Z</time></trkpt><trkpt lat="44.6633177" lon="9.5466153"><ele>538.5</ele><time>2026-05-03T13:02:17.651Z</time></trkpt><trkpt lat="44.6633184" lon="9.5464753"><ele>538.25</ele><time>2026-05-03T13:02:18.644Z</time></trkpt><trkpt lat="44.6632489" lon="9.5462754"><ele>538.0</ele><time>2026-05-03T13:02:19.648Z</time></trkpt><trkpt lat="44.6631769" lon="9.5461557"><ele>539.75</ele><time>2026-05-03T13:02:20.651Z</time></trkpt><trkpt lat="44.6630814" lon="9.5461142"><ele>541.5</ele><time>2026-05-03T13:02:21.652Z</time></trkpt><trkpt lat="44.6629592" lon="9.5460763"><ele>543.25</ele><time>2026-05-03T13:02:22.645Z</time></trkpt><trkpt lat="44.662825" lon="9.5461065"><ele>545.0</ele><time>2026-05-03T13:02:23.651Z</time></trkpt><trkpt lat="44.6626427" lon="9.546169"><ele>538.0</ele><time>2026-05-03T13:02:24.654Z</time></trkpt><trkpt lat="44.6624449" lon="9.546213"><ele>531.0</ele><time>2026-05-03T13:02:25.656Z</time></trkpt><trkpt lat="44.6622603" lon="9.5462886"><ele>524.0</ele><time>2026-05-03T13:02:26.648Z</time></trkpt><trkpt lat="44.662083" lon="9.5463217"><ele>526.0</ele><time>2026-05-03T13:02:27.65Z</time></trkpt><trkpt lat="44.6618795" lon="9.5464045"><ele>528.0</ele><time>2026-05-03T13:02:28.649Z</time></trkpt><trkpt lat="44.6617293" lon="9.5464406"><ele>530.0</ele><time>2026-05-03T13:02:29.659Z</time></trkpt><trkpt lat="44.6615686" lon="9.5464723"><ele>530.0</ele><time>2026-05-03T13:02:30.651Z</time></trkpt><trkpt lat="44.6614428" lon="9.5465216"><ele>530.0</ele><time>2026-05-03T13:02:31.647Z</time></trkpt><trkpt lat="44.6613153" lon="9.5464928"><ele>530.0</ele><time>2026-05-03T13:02:32.65Z</time></trkpt><trkpt lat="44.6612156" lon="9.5463724"><ele>530.0</ele><time>2026-05-03T13:02:33.651Z</time></trkpt><trkpt lat="44.6611149" lon="9.5462287"><ele>533.6666666666666</ele><time>2026-05-03T13:02:34.653Z</time></trkpt><trkpt lat="44.6610156" lon="9.5460767"><ele>537.3333333333334</ele><time>2026-05-03T13:02:35.655Z</time></trkpt><trkpt lat="44.6609755" lon="9.5458799"><ele>541.0</ele><time>2026-05-03T13:02:36.65Z</time></trkpt><trkpt lat="44.6609582" lon="9.5456369"><ele>542.0</ele><time>2026-05-03T13:02:37.65Z</time></trkpt><trkpt lat="44.6609317" lon="9.5453677"><ele>543.0</ele><time>2026-05-03T13:02:38.652Z</time></trkpt><trkpt lat="44.6609208" lon="9.5450883"><ele>544.0</ele><time>2026-05-03T13:02:39.647Z</time></trkpt><trkpt lat="44.66091" lon="9.5448051"><ele>545.5</ele><time>2026-05-03T13:02:40.642Z</time></trkpt><trkpt lat="44.6609001" lon="9.5444813"><ele>547.0</ele><time>2026-05-03T13:02:41.654Z</time></trkpt><trkpt lat="44.6609386" lon="9.5441631"><ele>547.0</ele><time>2026-05-03T13:02:42.653Z</time></trkpt><trkpt lat="44.6609331" lon="9.5438842"><ele>547.0</ele><time>2026-05-03T13:02:43.652Z</time></trkpt><trkpt lat="44.6609124" lon="9.5436205"><ele>547.0</ele><time>2026-05-03T13:02:44.65Z</time></trkpt><trkpt lat="44.6608724" lon="9.5433521"><ele>547.0</ele><time>2026-05-03T13:02:45.653Z</time></trkpt><trkpt lat="44.6608031" lon="9.5431001"><ele>547.0</ele><time>2026-05-03T13:02:46.65Z</time></trkpt><trkpt lat="44.660737" lon="9.5428719"><ele>547.0</ele><time>2026-05-03T13:02:47.654Z</time></trkpt><trkpt lat="44.6606792" lon="9.542619"><ele>546.5</ele><time>2026-05-03T13:02:48.647Z</time></trkpt><trkpt lat="44.6606387" lon="9.5424494"><ele>546.0</ele><time>2026-05-03T13:02:49.654Z</time></trkpt><trkpt lat="44.6605552" lon="9.5423046"><ele>545.5</ele><time>2026-05-03T13:02:50.65Z</time></trkpt><trkpt lat="44.6604166" lon="9.5421823"><ele>545.0</ele><time>2026-05-03T13:02:51.65Z</time></trkpt><trkpt lat="44.6602252" lon="9.5420833"><ele>547.0</ele><time>2026-05-03T13:02:52.65Z</time></trkpt><trkpt lat="44.6600626" lon="9.5419536"><ele>549.0</ele><time>2026-05-03T13:02:53.653Z</time></trkpt><trkpt lat="44.6598878" lon="9.54177"><ele>551.0</ele><time>2026-05-03T13:02:54.648Z</time></trkpt><trkpt lat="44.6597141" lon="9.5415843"><ele>551.0</ele><time>2026-05-03T13:02:55.644Z</time></trkpt><trkpt lat="44.6595154" lon="9.5414376"><ele>551.0</ele><time>2026-05-03T13:02:56.655Z</time></trkpt><trkpt lat="44.6593419" lon="9.5413475"><ele>551.0</ele><time>2026-05-03T13:02:57.65Z</time></trkpt><trkpt lat="44.6591376" lon="9.5412653"><ele>551.3333333333333</ele><time>2026-05-03T13:02:58.649Z</time></trkpt><trkpt lat="44.6589513" lon="9.5411408"><ele>551.6666666666666</ele><time>2026-05-03T13:02:59.649Z</time></trkpt><trkpt lat="44.6587799" lon="9.5410204"><ele>552.0</ele><time>2026-05-03T13:03:00.657Z</time></trkpt><trkpt lat="44.6586101" lon="9.5408987"><ele>555.6666666666666</ele><time>2026-05-03T13:03:01.651Z</time></trkpt><trkpt lat="44.6584607" lon="9.5407857"><ele>559.3333333333333</ele><time>2026-05-03T13:03:02.651Z</time></trkpt><trkpt lat="44.6583677" lon="9.5406081"><ele>563.0</ele><time>2026-05-03T13:03:03.649Z</time></trkpt><trkpt lat="44.6583214" lon="9.5403717"><ele>563.0</ele><time>2026-05-03T13:03:04.653Z</time></trkpt><trkpt lat="44.6583393" lon="9.5400966"><ele>563.0</ele><time>2026-05-03T13:03:05.654Z</time></trkpt><trkpt lat="44.6583711" lon="9.5398642"><ele>563.0</ele><time>2026-05-03T13:03:06.664Z</time></trkpt><trkpt lat="44.6583655" lon="9.5396269"><ele>562.6666666666666</ele><time>2026-05-03T13:03:07.654Z</time></trkpt><trkpt lat="44.6583202" lon="9.539376"><ele>562.3333333333334</ele><time>2026-05-03T13:03:08.652Z</time></trkpt><trkpt lat="44.6582308" lon="9.5391133"><ele>562.0</ele><time>2026-05-03T13:03:09.649Z</time></trkpt><trkpt lat="44.6581291" lon="9.5388636"><ele>558.0</ele><time>2026-05-03T13:03:10.649Z</time></trkpt><trkpt lat="44.6579981" lon="9.538663"><ele>554.0</ele><time>2026-05-03T13:03:11.655Z</time></trkpt><trkpt lat="44.6579163" lon="9.5384802"><ele>550.0</ele><time>2026-05-03T13:03:12.643Z</time></trkpt><trkpt lat="44.6578141" lon="9.5383395"><ele>559.3333333333334</ele><time>2026-05-03T13:03:13.648Z</time></trkpt><trkpt lat="44.6576822" lon="9.538248"><ele>568.6666666666666</ele><time>2026-05-03T13:03:14.647Z</time></trkpt><trkpt lat="44.657531" lon="9.538138"><ele>578.0</ele><time>2026-05-03T13:03:15.647Z</time></trkpt><trkpt lat="44.6573712" lon="9.537992"><ele>575.3333333333333</ele><time>2026-05-03T13:03:16.645Z</time></trkpt><trkpt lat="44.6571691" lon="9.5378673"><ele>572.6666666666666</ele><time>2026-05-03T13:03:17.638Z</time></trkpt><trkpt lat="44.6569685" lon="9.5378029"><ele>570.0</ele><time>2026-05-03T13:03:18.642Z</time></trkpt><trkpt lat="44.6567733" lon="9.5378048"><ele>570.0</ele><time>2026-05-03T13:03:19.634Z</time></trkpt><trkpt lat="44.6566044" lon="9.5377687"><ele>570.0</ele><time>2026-05-03T13:03:20.611Z</time></trkpt><trkpt lat="44.6564871" lon="9.5377442"><ele>570.0</ele><time>2026-05-03T13:03:21.619Z</time></trkpt><trkpt lat="44.6563765" lon="9.5376576"><ele>570.0</ele><time>2026-05-03T13:03:22.62Z</time></trkpt><trkpt lat="44.6562373" lon="9.5374917"><ele>573.3333333333334</ele><time>2026-05-03T13:03:23.628Z</time></trkpt><trkpt lat="44.656111" lon="9.5372663"><ele>576.6666666666667</ele><time>2026-05-03T13:03:24.643Z</time></trkpt><trkpt lat="44.6560168" lon="9.5370162"><ele>580.0</ele><time>2026-05-03T13:03:25.645Z</time></trkpt><trkpt lat="44.6559123" lon="9.5368164"><ele>580.0</ele><time>2026-05-03T13:03:26.648Z</time></trkpt><trkpt lat="44.6558516" lon="9.5365259"><ele>580.0</ele><time>2026-05-03T13:03:27.647Z</time></trkpt><trkpt lat="44.6557481" lon="9.5362629"><ele>580.0</ele><time>2026-05-03T13:03:28.655Z</time></trkpt><trkpt lat="44.6555914" lon="9.5360693"><ele>576.3333333333334</ele><time>2026-05-03T13:03:29.652Z</time></trkpt><trkpt lat="44.6553794" lon="9.5358932"><ele>572.6666666666666</ele><time>2026-05-03T13:03:30.654Z</time></trkpt><trkpt lat="44.6552514" lon="9.5357181"><ele>569.0</ele><time>2026-05-03T13:03:31.655Z</time></trkpt><trkpt lat="44.6551364" lon="9.5355214"><ele>574.3333333333333</ele><time>2026-05-03T13:03:32.649Z</time></trkpt><trkpt lat="44.6550975" lon="9.5352946"><ele>579.6666666666666</ele><time>2026-05-03T13:03:33.652Z</time></trkpt><trkpt lat="44.6551333" lon="9.5350531"><ele>585.0</ele><time>2026-05-03T13:03:34.652Z</time></trkpt><trkpt lat="44.6551901" lon="9.5347596"><ele>585.6666666666666</ele><time>2026-05-03T13:03:35.648Z</time></trkpt><trkpt lat="44.6552717" lon="9.5345081"><ele>586.3333333333333</ele><time>2026-05-03T13:03:36.654Z</time></trkpt><trkpt lat="44.6553289" lon="9.5342423"><ele>587.0</ele><time>2026-05-03T13:03:37.65Z</time></trkpt><trkpt lat="44.6553711" lon="9.53399"><ele>583.5</ele><time>2026-05-03T13:03:38.651Z</time></trkpt><trkpt lat="44.6553652" lon="9.5338039"><ele>580.0</ele><time>2026-05-03T13:03:39.656Z</time></trkpt><trkpt lat="44.6553318" lon="9.5336161"><ele>576.5</ele><time>2026-05-03T13:03:40.658Z</time></trkpt><trkpt lat="44.6552581" lon="9.533439"><ele>573.0</ele><time>2026-05-03T13:03:41.651Z</time></trkpt><trkpt lat="44.655077" lon="9.5333537"><ele>573.0</ele><time>2026-05-03T13:03:42.654Z</time></trkpt><trkpt lat="44.6548636" lon="9.5332016"><ele>573.0</ele><time>2026-05-03T13:03:43.643Z</time></trkpt><trkpt lat="44.6546827" lon="9.5330441"><ele>573.6666666666666</ele><time>2026-05-03T13:03:44.647Z</time></trkpt><trkpt lat="44.6544968" lon="9.5328672"><ele>574.3333333333333</ele><time>2026-05-03T13:03:45.645Z</time></trkpt><trkpt lat="44.6543687" lon="9.5326522"><ele>575.0</ele><time>2026-05-03T13:03:46.654Z</time></trkpt><trkpt lat="44.6542303" lon="9.5324223"><ele>575.0</ele><time>2026-05-03T13:03:47.649Z</time></trkpt><trkpt lat="44.6541345" lon="9.5321679"><ele>575.0</ele><time>2026-05-03T13:03:48.655Z</time></trkpt><trkpt lat="44.6540671" lon="9.5318899"><ele>575.0</ele><time>2026-05-03T13:03:49.654Z</time></trkpt><trkpt lat="44.6540137" lon="9.5315707"><ele>575.0</ele><time>2026-05-03T13:03:50.648Z</time></trkpt><trkpt lat="44.6539503" lon="9.5313009"><ele>575.0</ele><time>2026-05-03T13:03:51.644Z</time></trkpt><trkpt lat="44.6538903" lon="9.531042"><ele>575.0</ele><time>2026-05-03T13:03:52.644Z</time></trkpt><trkpt lat="44.653828" lon="9.5308321"><ele>575.3333333333333</ele><time>2026-05-03T13:03:53.647Z</time></trkpt><trkpt lat="44.653819" lon="9.5306382"><ele>575.6666666666666</ele><time>2026-05-03T13:03:54.647Z</time></trkpt><trkpt lat="44.6538438" lon="9.5304012"><ele>576.0</ele><time>2026-05-03T13:03:55.653Z</time></trkpt><trkpt lat="44.6538907" lon="9.5301821"><ele>576.3333333333334</ele><time>2026-05-03T13:03:56.65Z</time></trkpt><trkpt lat="44.6539218" lon="9.5299371"><ele>576.6666666666667</ele><time>2026-05-03T13:03:57.654Z</time></trkpt><trkpt lat="44.6538983" lon="9.5297313"><ele>577.0</ele><time>2026-05-03T13:03:58.654Z</time></trkpt><trkpt lat="44.6538394" lon="9.5295175"><ele>575.6666666666667</ele><time>2026-05-03T13:03:59.657Z</time></trkpt><trkpt lat="44.6537561" lon="9.5293463"><ele>574.3333333333334</ele><time>2026-05-03T13:04:00.659Z</time></trkpt><trkpt lat="44.6536372" lon="9.5292049"><ele>573.0</ele><time>2026-05-03T13:04:01.654Z</time></trkpt><trkpt lat="44.653518" lon="9.5290707"><ele>574.6666666666666</ele><time>2026-05-03T13:04:02.652Z</time></trkpt><trkpt lat="44.6533347" lon="9.5289278"><ele>576.3333333333333</ele><time>2026-05-03T13:04:03.653Z</time></trkpt><trkpt lat="44.6531981" lon="9.5287814"><ele>578.0</ele><time>2026-05-03T13:04:04.647Z</time></trkpt><trkpt lat="44.6530686" lon="9.5286086"><ele>578.0</ele><time>2026-05-03T13:04:05.651Z</time></trkpt><trkpt lat="44.6529438" lon="9.5284091"><ele>578.0</ele><time>2026-05-03T13:04:06.659Z</time></trkpt><trkpt lat="44.6528368" lon="9.5282101"><ele>578.0</ele><time>2026-05-03T13:04:07.651Z</time></trkpt><trkpt lat="44.6527248" lon="9.5280137"><ele>582.25</ele><time>2026-05-03T13:04:08.651Z</time></trkpt><trkpt lat="44.6526266" lon="9.5278009"><ele>586.5</ele><time>2026-05-03T13:04:09.654Z</time></trkpt><trkpt lat="44.6525772" lon="9.5276187"><ele>590.75</ele><time>2026-05-03T13:04:10.652Z</time></trkpt><trkpt lat="44.652605" lon="9.5274724"><ele>595.0</ele><time>2026-05-03T13:04:11.646Z</time></trkpt><trkpt lat="44.6526667" lon="9.5273461"><ele>595.0</ele><time>2026-05-03T13:04:12.648Z</time></trkpt><trkpt lat="44.6527614" lon="9.5271907"><ele>595.0</ele><time>2026-05-03T13:04:13.651Z</time></trkpt><trkpt lat="44.6528372" lon="9.527016"><ele>595.0</ele><time>2026-05-03T13:04:14.65Z</time></trkpt><trkpt lat="44.652906" lon="9.5268344"><ele>595.0</ele><time>2026-05-03T13:04:15.653Z</time></trkpt><trkpt lat="44.6528897" lon="9.5266368"><ele>595.25</ele><time>2026-05-03T13:04:16.648Z</time></trkpt><trkpt lat="44.6528655" lon="9.5264404"><ele>595.5</ele><time>2026-05-03T13:04:17.645Z</time></trkpt><trkpt lat="44.6528809" lon="9.5262974"><ele>595.75</ele><time>2026-05-03T13:04:18.649Z</time></trkpt><trkpt lat="44.6527827" lon="9.5261295"><ele>596.0</ele><time>2026-05-03T13:04:19.653Z</time></trkpt><trkpt lat="44.6526039" lon="9.5259164"><ele>596.0</ele><time>2026-05-03T13:04:20.643Z</time></trkpt><trkpt lat="44.652455" lon="9.5257019"><ele>596.0</ele><time>2026-05-03T13:04:21.644Z</time></trkpt><trkpt lat="44.6523377" lon="9.525495"><ele>596.0</ele><time>2026-05-03T13:04:22.644Z</time></trkpt><trkpt lat="44.6522424" lon="9.5253195"><ele>592.25</ele><time>2026-05-03T13:04:23.644Z</time></trkpt><trkpt lat="44.6522317" lon="9.5251511"><ele>588.5</ele><time>2026-05-03T13:04:24.647Z</time></trkpt><trkpt lat="44.6521672" lon="9.5249859"><ele>584.75</ele><time>2026-05-03T13:04:25.646Z</time></trkpt><trkpt lat="44.6520483" lon="9.5249158"><ele>581.0</ele><time>2026-05-03T13:04:26.646Z</time></trkpt><trkpt lat="44.6519033" lon="9.5248661"><ele>584.75</ele><time>2026-05-03T13:04:27.648Z</time></trkpt><trkpt lat="44.6517546" lon="9.5248122"><ele>588.5</ele><time>2026-05-03T13:04:28.645Z</time></trkpt><trkpt lat="44.6516706" lon="9.5247016"><ele>592.25</ele><time>2026-05-03T13:04:29.644Z</time></trkpt><trkpt lat="44.6515945" lon="9.5245045"><ele>596.0</ele><time>2026-05-03T13:04:30.64Z</time></trkpt><trkpt lat="44.6516011" lon="9.524265"><ele>596.0</ele><time>2026-05-03T13:04:31.647Z</time></trkpt><trkpt lat="44.6515944" lon="9.5240317"><ele>596.0</ele><time>2026-05-03T13:04:32.644Z</time></trkpt><trkpt lat="44.651577" lon="9.5238091"><ele>596.0</ele><time>2026-05-03T13:04:33.644Z</time></trkpt><trkpt lat="44.6515065" lon="9.5236097"><ele>591.0</ele><time>2026-05-03T13:04:34.651Z</time></trkpt><trkpt lat="44.6513362" lon="9.5232965"><ele>586.0</ele><time>2026-05-03T13:04:35.647Z</time></trkpt><trkpt lat="44.65129" lon="9.5230536"><ele>582.5</ele><time>2026-05-03T13:04:36.657Z</time></trkpt><trkpt lat="44.6512654" lon="9.5227182"><ele>579.0</ele><time>2026-05-03T13:04:37.649Z</time></trkpt><trkpt lat="44.6512284" lon="9.5223964"><ele>579.0</ele><time>2026-05-03T13:04:38.649Z</time></trkpt><trkpt lat="44.6511962" lon="9.522105"><ele>579.0</ele><time>2026-05-03T13:04:39.652Z</time></trkpt><trkpt lat="44.6511438" lon="9.5218004"><ele>579.0</ele><time>2026-05-03T13:04:40.65Z</time></trkpt><trkpt lat="44.6510742" lon="9.5215168"><ele>589.0</ele><time>2026-05-03T13:04:41.65Z</time></trkpt><trkpt lat="44.650993" lon="9.5212625"><ele>599.0</ele><time>2026-05-03T13:04:42.651Z</time></trkpt><trkpt lat="44.6508664" lon="9.5210132"><ele>609.0</ele><time>2026-05-03T13:04:43.646Z</time></trkpt><trkpt lat="44.6507852" lon="9.5207843"><ele>609.0</ele><time>2026-05-03T13:04:44.65Z</time></trkpt><trkpt lat="44.650731" lon="9.5205265"><ele>609.0</ele><time>2026-05-03T13:04:45.65Z</time></trkpt><trkpt lat="44.6506818" lon="9.5202594"><ele>609.0</ele><time>2026-05-03T13:04:46.647Z</time></trkpt><trkpt lat="44.6506323" lon="9.5199524"><ele>606.6666666666666</ele><time>2026-05-03T13:04:47.645Z</time></trkpt><trkpt lat="44.6505288" lon="9.5196671"><ele>604.3333333333333</ele><time>2026-05-03T13:04:48.65Z</time></trkpt><trkpt lat="44.6504849" lon="9.5193958"><ele>602.0</ele><time>2026-05-03T13:04:49.65Z</time></trkpt><trkpt lat="44.650461" lon="9.5191505"><ele>602.0</ele><time>2026-05-03T13:04:50.649Z</time></trkpt><trkpt lat="44.6504448" lon="9.5188865"><ele>602.0</ele><time>2026-05-03T13:04:51.649Z</time></trkpt><trkpt lat="44.6504578" lon="9.5186154"><ele>602.0</ele><time>2026-05-03T13:04:52.653Z</time></trkpt><trkpt lat="44.6504638" lon="9.5183533"><ele>601.6666666666666</ele><time>2026-05-03T13:04:53.653Z</time></trkpt><trkpt lat="44.6504442" lon="9.5181095"><ele>601.3333333333334</ele><time>2026-05-03T13:04:54.65Z</time></trkpt><trkpt lat="44.650395" lon="9.5178575"><ele>601.0</ele><time>2026-05-03T13:04:55.65Z</time></trkpt><trkpt lat="44.6503276" lon="9.5176261"><ele>609.6666666666667</ele><time>2026-05-03T13:04:56.653Z</time></trkpt><trkpt lat="44.6502338" lon="9.5173982"><ele>618.3333333333334</ele><time>2026-05-03T13:04:57.654Z</time></trkpt><trkpt lat="44.6501474" lon="9.5171432"><ele>627.0</ele><time>2026-05-03T13:04:58.65Z</time></trkpt><trkpt lat="44.6500966" lon="9.5168803"><ele>627.0</ele><time>2026-05-03T13:04:59.649Z</time></trkpt><trkpt lat="44.6500662" lon="9.5166045"><ele>627.0</ele><time>2026-05-03T13:05:00.65Z</time></trkpt><trkpt lat="44.6499701" lon="9.5163828"><ele>627.0</ele><time>2026-05-03T13:05:01.65Z</time></trkpt><trkpt lat="44.6499457" lon="9.516174"><ele>627.0</ele><time>2026-05-03T13:05:02.649Z</time></trkpt><trkpt lat="44.6499211" lon="9.5159724"><ele>627.0</ele><time>2026-05-03T13:05:03.655Z</time></trkpt><trkpt lat="44.6499313" lon="9.5157445"><ele>627.0</ele><time>2026-05-03T13:05:04.653Z</time></trkpt><trkpt lat="44.649982" lon="9.5154997"><ele>626.75</ele><time>2026-05-03T13:05:05.649Z</time></trkpt><trkpt lat="44.6500168" lon="9.5152566"><ele>626.5</ele><time>2026-05-03T13:05:06.647Z</time></trkpt><trkpt lat="44.6499961" lon="9.5150732"><ele>626.25</ele><time>2026-05-03T13:05:07.653Z</time></trkpt><trkpt lat="44.6499789" lon="9.5148817"><ele>626.0</ele><time>2026-05-03T13:05:08.656Z</time></trkpt><trkpt lat="44.6499477" lon="9.5147114"><ele>625.5</ele><time>2026-05-03T13:05:09.65Z</time></trkpt><trkpt lat="44.6499009" lon="9.514564"><ele>625.0</ele><time>2026-05-03T13:05:10.65Z</time></trkpt><trkpt lat="44.6497798" lon="9.5144623"><ele>624.5</ele><time>2026-05-03T13:05:11.659Z</time></trkpt><trkpt lat="44.6496402" lon="9.5143576"><ele>624.0</ele><time>2026-05-03T13:05:12.65Z</time></trkpt><trkpt lat="44.649506" lon="9.5142068"><ele>624.0</ele><time>2026-05-03T13:05:13.658Z</time></trkpt><trkpt lat="44.6494274" lon="9.5140187"><ele>624.0</ele><time>2026-05-03T13:05:14.644Z</time></trkpt><trkpt lat="44.6493954" lon="9.513811"><ele>624.0</ele><time>2026-05-03T13:05:15.646Z</time></trkpt><trkpt lat="44.6494821" lon="9.5136481"><ele>624.0</ele><time>2026-05-03T13:05:16.654Z</time></trkpt><trkpt lat="44.6495957" lon="9.5134849"><ele>624.0</ele><time>2026-05-03T13:05:17.656Z</time></trkpt><trkpt lat="44.6496437" lon="9.5133191"><ele>624.0</ele><time>2026-05-03T13:05:18.655Z</time></trkpt><trkpt lat="44.649715" lon="9.5131455"><ele>624.0</ele><time>2026-05-03T13:05:19.655Z</time></trkpt><trkpt lat="44.649746" lon="9.5129455"><ele>623.0</ele><time>2026-05-03T13:05:20.66Z</time></trkpt><trkpt lat="44.6497028" lon="9.5127309"><ele>622.0</ele><time>2026-05-03T13:05:21.658Z</time></trkpt><trkpt lat="44.6496443" lon="9.5125849"><ele>621.0</ele><time>2026-05-03T13:05:22.658Z</time></trkpt><trkpt lat="44.6495152" lon="9.5123605"><ele>627.0</ele><time>2026-05-03T13:05:23.66Z</time></trkpt><trkpt lat="44.6494366" lon="9.5120998"><ele>633.0</ele><time>2026-05-03T13:05:24.655Z</time></trkpt><trkpt lat="44.6493609" lon="9.5118447"><ele>639.0</ele><time>2026-05-03T13:05:25.656Z</time></trkpt><trkpt lat="44.6493805" lon="9.5116128"><ele>639.0</ele><time>2026-05-03T13:05:26.656Z</time></trkpt><trkpt lat="44.6493977" lon="9.5113911"><ele>639.0</ele><time>2026-05-03T13:05:27.653Z</time></trkpt><trkpt lat="44.6493455" lon="9.5111334"><ele>639.0</ele><time>2026-05-03T13:05:28.654Z</time></trkpt><trkpt lat="44.6493232" lon="9.5109344"><ele>637.0</ele><time>2026-05-03T13:05:29.657Z</time></trkpt><trkpt lat="44.6491805" lon="9.5106917"><ele>635.0</ele><time>2026-05-03T13:05:30.658Z</time></trkpt><trkpt lat="44.6490994" lon="9.51045"><ele>633.0</ele><time>2026-05-03T13:05:31.652Z</time></trkpt><trkpt lat="44.6490156" lon="9.510185"><ele>630.0</ele><time>2026-05-03T13:05:32.652Z</time></trkpt><trkpt lat="44.6488786" lon="9.509882"><ele>627.0</ele><time>2026-05-03T13:05:33.653Z</time></trkpt><trkpt lat="44.6487724" lon="9.5095976"><ele>624.3333333333334</ele><time>2026-05-03T13:05:34.652Z</time></trkpt><trkpt lat="44.6486917" lon="9.5093189"><ele>621.6666666666667</ele><time>2026-05-03T13:05:35.652Z</time></trkpt><trkpt lat="44.6485922" lon="9.5090594"><ele>619.0</ele><time>2026-05-03T13:05:36.655Z</time></trkpt><trkpt lat="44.648563" lon="9.5088871"><ele>623.25</ele><time>2026-05-03T13:05:37.652Z</time></trkpt><trkpt lat="44.6485198" lon="9.5087308"><ele>627.5</ele><time>2026-05-03T13:05:38.646Z</time></trkpt><trkpt lat="44.6484461" lon="9.5085946"><ele>631.75</ele><time>2026-05-03T13:05:39.653Z</time></trkpt><trkpt lat="44.6483733" lon="9.5084575"><ele>636.0</ele><time>2026-05-03T13:05:40.648Z</time></trkpt><trkpt lat="44.6483179" lon="9.5083274"><ele>636.0</ele><time>2026-05-03T13:05:41.652Z</time></trkpt><trkpt lat="44.6482495" lon="9.5081344"><ele>636.0</ele><time>2026-05-03T13:05:42.65Z</time></trkpt><trkpt lat="44.648152" lon="9.5080416"><ele>636.0</ele><time>2026-05-03T13:05:43.648Z</time></trkpt><trkpt lat="44.6480116" lon="9.508038"><ele>636.0</ele><time>2026-05-03T13:05:44.651Z</time></trkpt><trkpt lat="44.6478177" lon="9.5080498"><ele>636.3333333333334</ele><time>2026-05-03T13:05:45.647Z</time></trkpt><trkpt lat="44.6476499" lon="9.5081043"><ele>636.6666666666667</ele><time>2026-05-03T13:05:46.65Z</time></trkpt><trkpt lat="44.6475102" lon="9.5081062"><ele>637.0</ele><time>2026-05-03T13:05:47.646Z</time></trkpt><trkpt lat="44.6473928" lon="9.5078984"><ele>637.0</ele><time>2026-05-03T13:05:48.648Z</time></trkpt><trkpt lat="44.6473522" lon="9.5076059"><ele>637.0</ele><time>2026-05-03T13:05:49.653Z</time></trkpt><trkpt lat="44.647309" lon="9.5073556"><ele>637.0</ele><time>2026-05-03T13:05:50.647Z</time></trkpt><trkpt lat="44.647249" lon="9.5071421"><ele>641.6666666666667</ele><time>2026-05-03T13:05:51.649Z</time></trkpt><trkpt lat="44.6471594" lon="9.5070325"><ele>646.3333333333334</ele><time>2026-05-03T13:05:52.648Z</time></trkpt><trkpt lat="44.6470038" lon="9.5067819"><ele>651.0</ele><time>2026-05-03T13:05:53.653Z</time></trkpt><trkpt lat="44.6468478" lon="9.506543"><ele>651.0</ele><time>2026-05-03T13:05:54.648Z</time></trkpt><trkpt lat="44.6466987" lon="9.5063791"><ele>651.0</ele><time>2026-05-03T13:05:55.65Z</time></trkpt><trkpt lat="44.6466131" lon="9.5062145"><ele>651.0</ele><time>2026-05-03T13:05:56.649Z</time></trkpt><trkpt lat="44.6464906" lon="9.505995"><ele>645.6666666666666</ele><time>2026-05-03T13:05:57.652Z</time></trkpt><trkpt lat="44.6463281" lon="9.5057751"><ele>640.3333333333333</ele><time>2026-05-03T13:05:58.647Z</time></trkpt><trkpt lat="44.6462146" lon="9.5055859"><ele>635.0</ele><time>2026-05-03T13:05:59.655Z</time></trkpt><trkpt lat="44.6461233" lon="9.5054232"><ele>643.3333333333333</ele><time>2026-05-03T13:06:00.655Z</time></trkpt><trkpt lat="44.64604" lon="9.5052285"><ele>651.6666666666666</ele><time>2026-05-03T13:06:01.652Z</time></trkpt><trkpt lat="44.6460121" lon="9.5049881"><ele>660.0</ele><time>2026-05-03T13:06:02.649Z</time></trkpt><trkpt lat="44.646078" lon="9.5047663"><ele>651.0</ele><time>2026-05-03T13:06:03.648Z</time></trkpt><trkpt lat="44.6461318" lon="9.5046295"><ele>642.0</ele><time>2026-05-03T13:06:04.651Z</time></trkpt><trkpt lat="44.6462136" lon="9.5044669"><ele>633.0</ele><time>2026-05-03T13:06:05.662Z</time></trkpt><trkpt lat="44.6462471" lon="9.5042932"><ele>624.0</ele><time>2026-05-03T13:06:06.661Z</time></trkpt><trkpt lat="44.6462051" lon="9.5041231"><ele>624.0</ele><time>2026-05-03T13:06:07.653Z</time></trkpt><trkpt lat="44.6461848" lon="9.5039271"><ele>624.0</ele><time>2026-05-03T13:06:08.655Z</time></trkpt><trkpt lat="44.6460787" lon="9.5037494"><ele>624.0</ele><time>2026-05-03T13:06:09.657Z</time></trkpt><trkpt lat="44.6459872" lon="9.5035503"><ele>630.0</ele><time>2026-05-03T13:06:10.648Z</time></trkpt><trkpt lat="44.6459462" lon="9.5033459"><ele>636.0</ele><time>2026-05-03T13:06:11.649Z</time></trkpt><trkpt lat="44.645915" lon="9.5031455"><ele>642.0</ele><time>2026-05-03T13:06:12.649Z</time></trkpt><trkpt lat="44.6458541" lon="9.5029385"><ele>638.6666666666666</ele><time>2026-05-03T13:06:13.654Z</time></trkpt><trkpt lat="44.6458115" lon="9.5027499"><ele>635.3333333333333</ele><time>2026-05-03T13:06:14.662Z</time></trkpt><trkpt lat="44.6457255" lon="9.5025458"><ele>632.0</ele><time>2026-05-03T13:06:15.66Z</time></trkpt><trkpt lat="44.6456536" lon="9.5023547"><ele>632.0</ele><time>2026-05-03T13:06:16.649Z</time></trkpt><trkpt lat="44.6455972" lon="9.5021319"><ele>632.0</ele><time>2026-05-03T13:06:17.651Z</time></trkpt><trkpt lat="44.6455161" lon="9.5019273"><ele>632.0</ele><time>2026-05-03T13:06:18.654Z</time></trkpt><trkpt lat="44.6454085" lon="9.5017115"><ele>632.0</ele><time>2026-05-03T13:06:19.654Z</time></trkpt><trkpt lat="44.6453075" lon="9.5015307"><ele>632.0</ele><time>2026-05-03T13:06:20.659Z</time></trkpt><trkpt lat="44.6452045" lon="9.5013487"><ele>632.0</ele><time>2026-05-03T13:06:21.654Z</time></trkpt><trkpt lat="44.6451045" lon="9.5011712"><ele>632.0</ele><time>2026-05-03T13:06:22.656Z</time></trkpt><trkpt lat="44.644993" lon="9.5010282"><ele>632.0</ele><time>2026-05-03T13:06:23.652Z</time></trkpt><trkpt lat="44.6449276" lon="9.5008568"><ele>632.0</ele><time>2026-05-03T13:06:24.657Z</time></trkpt><trkpt lat="44.6448485" lon="9.5006757"><ele>632.0</ele><time>2026-05-03T13:06:25.652Z</time></trkpt><trkpt lat="44.6447569" lon="9.5005434"><ele>632.0</ele><time>2026-05-03T13:06:26.651Z</time></trkpt><trkpt lat="44.6446607" lon="9.5004421"><ele>632.0</ele><time>2026-05-03T13:06:27.651Z</time></trkpt><trkpt lat="44.644519" lon="9.5003496"><ele>632.0</ele><time>2026-05-03T13:06:28.658Z</time></trkpt><trkpt lat="44.6443597" lon="9.5002691"><ele>632.0</ele><time>2026-05-03T13:06:29.645Z</time></trkpt><trkpt lat="44.6442365" lon="9.5001618"><ele>631.25</ele><time>2026-05-03T13:06:30.646Z</time></trkpt><trkpt lat="44.6440915" lon="9.5000686"><ele>630.5</ele><time>2026-05-03T13:06:31.644Z</time></trkpt><trkpt lat="44.6439772" lon="9.499986"><ele>629.75</ele><time>2026-05-03T13:06:32.65Z</time></trkpt><trkpt lat="44.6438592" lon="9.499902"><ele>629.0</ele><time>2026-05-03T13:06:33.649Z</time></trkpt><trkpt lat="44.6437565" lon="9.4998172"><ele>629.0</ele><time>2026-05-03T13:06:34.642Z</time></trkpt><trkpt lat="44.6436678" lon="9.4996908"><ele>629.0</ele><time>2026-05-03T13:06:35.644Z</time></trkpt><trkpt lat="44.6435696" lon="9.4995623"><ele>629.0</ele><time>2026-05-03T13:06:36.652Z</time></trkpt><trkpt lat="44.6435009" lon="9.4994496"><ele>629.0</ele><time>2026-05-03T13:06:37.646Z</time></trkpt><trkpt lat="44.6434614" lon="9.4993619"><ele>629.0</ele><time>2026-05-03T13:06:38.652Z</time></trkpt><trkpt lat="44.6434479" lon="9.4992249"><ele>628.2</ele><time>2026-05-03T13:06:39.655Z</time></trkpt><trkpt lat="44.6434833" lon="9.4990865"><ele>627.4</ele><time>2026-05-03T13:06:40.647Z</time></trkpt><trkpt lat="44.6435191" lon="9.4989512"><ele>626.6</ele><time>2026-05-03T13:06:41.648Z</time></trkpt><trkpt lat="44.6435678" lon="9.4988128"><ele>625.8</ele><time>2026-05-03T13:06:42.649Z</time></trkpt><trkpt lat="44.6436421" lon="9.4987039"><ele>625.0</ele><time>2026-05-03T13:06:43.651Z</time></trkpt><trkpt lat="44.6436948" lon="9.4986031"><ele>625.0</ele><time>2026-05-03T13:06:44.657Z</time></trkpt><trkpt lat="44.6437469" lon="9.4985011"><ele>625.0</ele><time>2026-05-03T13:06:45.648Z</time></trkpt><trkpt lat="44.6437895" lon="9.4984153"><ele>625.0</ele><time>2026-05-03T13:06:46.65Z</time></trkpt><trkpt lat="44.6438257" lon="9.4983287"><ele>625.0</ele><time>2026-05-03T13:06:47.65Z</time></trkpt><trkpt lat="44.6438874" lon="9.4981851"><ele>625.0</ele><time>2026-05-03T13:06:49.646Z</time></trkpt><trkpt lat="44.6439377" lon="9.4980873"><ele>625.0</ele><time>2026-05-03T13:06:51.65Z</time></trkpt><trkpt lat="44.6440057" lon="9.4981022"><ele>625.0</ele><time>2026-05-03T13:06:53.654Z</time></trkpt><trkpt lat="44.6440842" lon="9.4981466"><ele>625.0</ele><time>2026-05-03T13:06:55.651Z</time></trkpt><trkpt lat="44.644155" lon="9.4982076"><ele>625.0</ele><time>2026-05-03T13:06:57.642Z</time></trkpt><trkpt lat="44.6442215" lon="9.4982566"><ele>625.0</ele><time>2026-05-03T13:06:59.644Z</time></trkpt><trkpt lat="44.6443351" lon="9.4983534"><ele>625.0</ele><time>2026-05-03T13:07:12.638Z</time></trkpt><trkpt lat="44.644426" lon="9.4984085"><ele>625.3333333333334</ele><time>2026-05-03T13:07:13.641Z</time></trkpt><trkpt lat="44.6444954" lon="9.4984401"><ele>625.6666666666667</ele><time>2026-05-03T13:07:14.632Z</time></trkpt><trkpt lat="44.6445816" lon="9.4985435"><ele>626.0</ele><time>2026-05-03T13:07:15.631Z</time></trkpt><trkpt lat="44.6446621" lon="9.4985573"><ele>626.3333333333334</ele><time>2026-05-03T13:07:16.641Z</time></trkpt><trkpt lat="44.6447438" lon="9.49859"><ele>626.6666666666666</ele><time>2026-05-03T13:07:17.649Z</time></trkpt><trkpt lat="44.644809" lon="9.4986109"><ele>627.0</ele><time>2026-05-03T13:07:18.639Z</time></trkpt><trkpt lat="44.6448841" lon="9.4986329"><ele>627.0</ele><time>2026-05-03T13:07:19.658Z</time></trkpt><trkpt lat="44.6449728" lon="9.4986687"><ele>627.0</ele><time>2026-05-03T13:07:20.652Z</time></trkpt><trkpt lat="44.6450508" lon="9.4986964"><ele>627.0</ele><time>2026-05-03T13:07:21.652Z</time></trkpt><trkpt lat="44.6451357" lon="9.4987323"><ele>627.0</ele><time>2026-05-03T13:07:22.651Z</time></trkpt><trkpt lat="44.6452214" lon="9.4987551"><ele>627.0</ele><time>2026-05-03T13:07:23.656Z</time></trkpt><trkpt lat="44.6453499" lon="9.4987369"><ele>625.8000000000001</ele><time>2026-05-03T13:07:25.645Z</time></trkpt><trkpt lat="44.6454328" lon="9.4986887"><ele>624.6</ele><time>2026-05-03T13:07:27.648Z</time></trkpt><trkpt lat="44.6455073" lon="9.4985952"><ele>623.4000000000001</ele><time>2026-05-03T13:07:30.653Z</time></trkpt><trkpt lat="44.6455568" lon="9.4984798"><ele>622.2</ele><time>2026-05-03T13:07:32.648Z</time></trkpt><trkpt lat="44.6455397" lon="9.4983529"><ele>621.0</ele><time>2026-05-03T13:07:34.647Z</time></trkpt><trkpt lat="44.6454595" lon="9.4982801"><ele>621.0</ele><time>2026-05-03T13:07:36.651Z</time></trkpt><trkpt lat="44.6453606" lon="9.498353"><ele>621.0</ele><time>2026-05-03T13:07:38.644Z</time></trkpt><trkpt lat="44.645328" lon="9.4984643"><ele>621.0</ele><time>2026-05-03T13:07:40.648Z</time></trkpt><trkpt lat="44.645255" lon="9.4985859"><ele>621.0</ele><time>2026-05-03T13:07:42.645Z</time></trkpt><trkpt lat="44.645188" lon="9.4986301"><ele>621.0</ele><time>2026-05-03T13:07:43.644Z</time></trkpt><trkpt lat="44.645114" lon="9.4986757"><ele>622.2</ele><time>2026-05-03T13:07:44.645Z</time></trkpt><trkpt lat="44.6450216" lon="9.4987186"><ele>623.4000000000001</ele><time>2026-05-03T13:07:45.64Z</time></trkpt><trkpt lat="44.6449225" lon="9.4987341"><ele>624.6</ele><time>2026-05-03T13:07:46.641Z</time></trkpt><trkpt lat="44.6448288" lon="9.4987317"><ele>625.8000000000001</ele><time>2026-05-03T13:07:47.638Z</time></trkpt><trkpt lat="44.6447317" lon="9.4987373"><ele>627.0</ele><time>2026-05-03T13:07:48.639Z</time></trkpt><trkpt lat="44.6446336" lon="9.4986724"><ele>627.0</ele><time>2026-05-03T13:07:49.646Z</time></trkpt><trkpt lat="44.6445398" lon="9.4986248"><ele>627.0</ele><time>2026-05-03T13:07:50.637Z</time></trkpt><trkpt lat="44.6444349" lon="9.4985796"><ele>627.0</ele><time>2026-05-03T13:07:51.638Z</time></trkpt><trkpt lat="44.6443258" lon="9.4985276"><ele>627.0</ele><time>2026-05-03T13:07:52.643Z</time></trkpt><trkpt lat="44.6442396" lon="9.4985073"><ele>627.0</ele><time>2026-05-03T13:07:53.626Z</time></trkpt><trkpt lat="44.6441639" lon="9.4984779"><ele>626.6</ele><time>2026-05-03T13:07:54.629Z</time></trkpt><trkpt lat="44.6440588" lon="9.4983322"><ele>626.2</ele><time>2026-05-03T13:07:57.649Z</time></trkpt><trkpt lat="44.6440523" lon="9.4981982"><ele>625.8</ele><time>2026-05-03T13:07:59.658Z</time></trkpt><trkpt lat="44.6441016" lon="9.4980901"><ele>625.4</ele><time>2026-05-03T13:08:01.646Z</time></trkpt><trkpt lat="44.6441619" lon="9.4980318"><ele>625.0</ele><time>2026-05-03T13:08:02.646Z</time></trkpt><trkpt lat="44.6442148" lon="9.4979744"><ele>625.0</ele><time>2026-05-03T13:08:03.645Z</time></trkpt><trkpt lat="44.6442887" lon="9.4979569"><ele>625.0</ele><time>2026-05-03T13:08:04.645Z</time></trkpt><trkpt lat="44.64437" lon="9.4979912"><ele>625.0</ele><time>2026-05-03T13:08:05.641Z</time></trkpt><trkpt lat="44.6444505" lon="9.4980084"><ele>625.0</ele><time>2026-05-03T13:08:06.642Z</time></trkpt><trkpt lat="44.6445439" lon="9.4980716"><ele>625.0</ele><time>2026-05-03T13:08:07.641Z</time></trkpt><trkpt lat="44.6446289" lon="9.4981071"><ele>625.0</ele><time>2026-05-03T13:08:08.641Z</time></trkpt><trkpt lat="44.6447122" lon="9.4980965"><ele>625.4</ele><time>2026-05-03T13:08:09.642Z</time></trkpt><trkpt lat="44.6448015" lon="9.4980738"><ele>625.8</ele><time>2026-05-03T13:08:10.64Z</time></trkpt><trkpt lat="44.6448978" lon="9.4980338"><ele>626.2</ele><time>2026-05-03T13:08:11.638Z</time></trkpt><trkpt lat="44.644996" lon="9.4980053"><ele>626.6</ele><time>2026-05-03T13:08:12.639Z</time></trkpt><trkpt lat="44.6450815" lon="9.4979719"><ele>627.0</ele><time>2026-05-03T13:08:13.616Z</time></trkpt><trkpt lat="44.6451671" lon="9.4979406"><ele>627.0</ele><time>2026-05-03T13:08:14.61Z</time></trkpt><trkpt lat="44.6452521" lon="9.4979096"><ele>627.0</ele><time>2026-05-03T13:08:15.599Z</time></trkpt><trkpt lat="44.6453363" lon="9.4978794"><ele>627.0</ele><time>2026-05-03T13:08:16.6Z</time></trkpt><trkpt lat="44.6454166" lon="9.4978391"><ele>627.0</ele><time>2026-05-03T13:08:17.615Z</time></trkpt><trkpt lat="44.6454946" lon="9.4977925"><ele>627.0</ele><time>2026-05-03T13:08:18.628Z</time></trkpt><trkpt lat="44.645571" lon="9.4977468"><ele>627.0</ele><time>2026-05-03T13:08:19.631Z</time></trkpt><trkpt lat="44.6456335" lon="9.4976798"><ele>627.0</ele><time>2026-05-03T13:08:20.634Z</time></trkpt><trkpt lat="44.6457017" lon="9.4976574"><ele>627.0</ele><time>2026-05-03T13:08:21.651Z</time></trkpt><trkpt lat="44.6457737" lon="9.4976382"><ele>627.0</ele><time>2026-05-03T13:08:22.649Z</time></trkpt><trkpt lat="44.6458398" lon="9.4975733"><ele>627.0</ele><time>2026-05-03T13:08:23.65Z</time></trkpt><trkpt lat="44.6459084" lon="9.4975124"><ele>627.0</ele><time>2026-05-03T13:08:24.653Z</time></trkpt><trkpt lat="44.6459783" lon="9.4974528"><ele>627.0</ele><time>2026-05-03T13:08:25.656Z</time></trkpt><trkpt lat="44.6460382" lon="9.4974091"><ele>630.25</ele><time>2026-05-03T13:08:26.647Z</time></trkpt><trkpt lat="44.6461405" lon="9.4973375"><ele>633.5</ele><time>2026-05-03T13:08:28.649Z</time></trkpt><trkpt lat="44.646199" lon="9.4971609"><ele>636.75</ele><time>2026-05-03T13:08:30.642Z</time></trkpt><trkpt lat="44.646219" lon="9.4970057"><ele>640.0</ele><time>2026-05-03T13:08:31.64Z</time></trkpt><trkpt lat="44.6462312" lon="9.4968047"><ele>639.5</ele><time>2026-05-03T13:08:32.637Z</time></trkpt><trkpt lat="44.6462605" lon="9.4966092"><ele>639.0</ele><time>2026-05-03T13:08:33.637Z</time></trkpt><trkpt lat="44.6463126" lon="9.4964273"><ele>638.5</ele><time>2026-05-03T13:08:34.641Z</time></trkpt><trkpt lat="44.6464008" lon="9.4962563"><ele>638.0</ele><time>2026-05-03T13:08:35.638Z</time></trkpt><trkpt lat="44.6465192" lon="9.496078"><ele>638.0</ele><time>2026-05-03T13:08:36.644Z</time></trkpt><trkpt lat="44.6466889" lon="9.4958679"><ele>638.0</ele><time>2026-05-03T13:08:37.642Z</time></trkpt><trkpt lat="44.6468473" lon="9.4956943"><ele>638.0</ele><time>2026-05-03T13:08:38.642Z</time></trkpt><trkpt lat="44.6469612" lon="9.4954875"><ele>645.6666666666666</ele><time>2026-05-03T13:08:39.648Z</time></trkpt><trkpt lat="44.6470478" lon="9.4952388"><ele>653.3333333333334</ele><time>2026-05-03T13:08:40.643Z</time></trkpt><trkpt lat="44.6470872" lon="9.495057"><ele>661.0</ele><time>2026-05-03T13:08:41.648Z</time></trkpt><trkpt lat="44.6471164" lon="9.4948855"><ele>661.0</ele><time>2026-05-03T13:08:42.651Z</time></trkpt><trkpt lat="44.6471618" lon="9.4947974"><ele>661.0</ele><time>2026-05-03T13:08:43.646Z</time></trkpt><trkpt lat="44.6472091" lon="9.4947381"><ele>661.0</ele><time>2026-05-03T13:08:44.647Z</time></trkpt><trkpt lat="44.6472515" lon="9.494847"><ele>661.0</ele><time>2026-05-03T13:08:46.642Z</time></trkpt><trkpt lat="44.6472294" lon="9.4950633"><ele>661.0</ele><time>2026-05-03T13:08:48.643Z</time></trkpt><trkpt lat="44.6471775" lon="9.4951976"><ele>661.0</ele><time>2026-05-03T13:08:49.649Z</time></trkpt><trkpt lat="44.6471262" lon="9.4953477"><ele>661.0</ele><time>2026-05-03T13:08:50.649Z</time></trkpt><trkpt lat="44.64709" lon="9.4954929"><ele>661.0</ele><time>2026-05-03T13:08:51.643Z</time></trkpt><trkpt lat="44.6470641" lon="9.4956627"><ele>661.0</ele><time>2026-05-03T13:08:52.644Z</time></trkpt><trkpt lat="44.6470926" lon="9.4958633"><ele>661.6666666666667</ele><time>2026-05-03T13:08:53.643Z</time></trkpt><trkpt lat="44.6471192" lon="9.4960845"><ele>662.3333333333334</ele><time>2026-05-03T13:08:54.641Z</time></trkpt><trkpt lat="44.6471536" lon="9.4963554"><ele>663.0</ele><time>2026-05-03T13:08:55.637Z</time></trkpt><trkpt lat="44.647156" lon="9.4966031"><ele>663.0</ele><time>2026-05-03T13:08:56.645Z</time></trkpt><trkpt lat="44.6470893" lon="9.4967834"><ele>663.0</ele><time>2026-05-03T13:08:57.639Z</time></trkpt><trkpt lat="44.6469877" lon="9.4969075"><ele>663.0</ele><time>2026-05-03T13:08:58.644Z</time></trkpt><trkpt lat="44.6468936" lon="9.4969836"><ele>663.0</ele><time>2026-05-03T13:08:59.645Z</time></trkpt><trkpt lat="44.6469442" lon="9.4971003"><ele>661.5</ele><time>2026-05-03T13:09:00.643Z</time></trkpt><trkpt lat="44.6470546" lon="9.4972059"><ele>660.0</ele><time>2026-05-03T13:09:01.649Z</time></trkpt><trkpt lat="44.6471204" lon="9.4972721"><ele>658.5</ele><time>2026-05-03T13:09:02.648Z</time></trkpt><trkpt lat="44.6472536" lon="9.4971914"><ele>657.0</ele><time>2026-05-03T13:09:03.648Z</time></trkpt><trkpt lat="44.6473462" lon="9.4971046"><ele>657.0</ele><time>2026-05-03T13:09:04.646Z</time></trkpt><trkpt lat="44.6474726" lon="9.4970259"><ele>657.0</ele><time>2026-05-03T13:09:05.645Z</time></trkpt><trkpt lat="44.6475883" lon="9.4969486"><ele>657.0</ele><time>2026-05-03T13:09:06.648Z</time></trkpt><trkpt lat="44.647696" lon="9.4971063"><ele>657.0</ele><time>2026-05-03T13:09:08.642Z</time></trkpt><trkpt lat="44.6477464" lon="9.4972607"><ele>659.6666666666666</ele><time>2026-05-03T13:09:09.643Z</time></trkpt><trkpt lat="44.6478168" lon="9.497526"><ele>662.3333333333333</ele><time>2026-05-03T13:09:10.649Z</time></trkpt><trkpt lat="44.6478854" lon="9.4977734"><ele>665.0</ele><time>2026-05-03T13:09:11.647Z</time></trkpt><trkpt lat="44.6479605" lon="9.4980094"><ele>665.0</ele><time>2026-05-03T13:09:12.645Z</time></trkpt><trkpt lat="44.6480117" lon="9.4981845"><ele>665.0</ele><time>2026-05-03T13:09:13.645Z</time></trkpt><trkpt lat="44.6480628" lon="9.4983065"><ele>665.0</ele><time>2026-05-03T13:09:14.648Z</time></trkpt><trkpt lat="44.6481671" lon="9.4984134"><ele>665.0</ele><time>2026-05-03T13:09:15.647Z</time></trkpt><trkpt lat="44.648331" lon="9.4984833"><ele>665.0</ele><time>2026-05-03T13:09:16.648Z</time></trkpt><trkpt lat="44.6485214" lon="9.498561"><ele>665.0</ele><time>2026-05-03T13:09:17.647Z</time></trkpt><trkpt lat="44.6487305" lon="9.4986498"><ele>665.0</ele><time>2026-05-03T13:09:18.654Z</time></trkpt><trkpt lat="44.6488623" lon="9.4986674"><ele>667.3333333333333</ele><time>2026-05-03T13:09:19.643Z</time></trkpt><trkpt lat="44.6489751" lon="9.4987352"><ele>669.6666666666666</ele><time>2026-05-03T13:09:20.653Z</time></trkpt><trkpt lat="44.6490733" lon="9.4989131"><ele>672.0</ele><time>2026-05-03T13:09:21.647Z</time></trkpt><trkpt lat="44.6491866" lon="9.4991408"><ele>672.0</ele><time>2026-05-03T13:09:22.653Z</time></trkpt><trkpt lat="44.6492714" lon="9.4993233"><ele>672.0</ele><time>2026-05-03T13:09:23.644Z</time></trkpt><trkpt lat="44.6493466" lon="9.4994465"><ele>672.0</ele><time>2026-05-03T13:09:24.647Z</time></trkpt><trkpt lat="44.6494169" lon="9.4995551"><ele>672.0</ele><time>2026-05-03T13:09:25.644Z</time></trkpt><trkpt lat="44.6494665" lon="9.4996121"><ele>672.0</ele><time>2026-05-03T13:09:26.644Z</time></trkpt><trkpt lat="44.6495716" lon="9.4995237"><ele>672.0</ele><time>2026-05-03T13:09:28.639Z</time></trkpt><trkpt lat="44.6495618" lon="9.4993986"><ele>672.0</ele><time>2026-05-03T13:09:29.642Z</time></trkpt><trkpt lat="44.6495205" lon="9.4991835"><ele>672.0</ele><time>2026-05-03T13:09:30.642Z</time></trkpt><trkpt lat="44.6494461" lon="9.4988659"><ele>673.6666666666666</ele><time>2026-05-03T13:09:31.651Z</time></trkpt><trkpt lat="44.6493974" lon="9.4985983"><ele>675.3333333333333</ele><time>2026-05-03T13:09:32.651Z</time></trkpt><trkpt lat="44.6493753" lon="9.4983854"><ele>677.0</ele><time>2026-05-03T13:09:33.651Z</time></trkpt><trkpt lat="44.6493958" lon="9.4981285"><ele>679.0</ele><time>2026-05-03T13:09:34.652Z</time></trkpt><trkpt lat="44.6494353" lon="9.4978986"><ele>681.0</ele><time>2026-05-03T13:09:35.656Z</time></trkpt><trkpt lat="44.6494411" lon="9.4976792"><ele>683.0</ele><time>2026-05-03T13:09:36.657Z</time></trkpt><trkpt lat="44.6494128" lon="9.4975329"><ele>685.0</ele><time>2026-05-03T13:09:37.65Z</time></trkpt><trkpt lat="44.6493608" lon="9.4974514"><ele>685.0</ele><time>2026-05-03T13:09:38.649Z</time></trkpt><trkpt lat="44.6493165" lon="9.4973617"><ele>685.0</ele><time>2026-05-03T13:09:39.648Z</time></trkpt><trkpt lat="44.6492256" lon="9.4972925"><ele>685.0</ele><time>2026-05-03T13:09:40.659Z</time></trkpt><trkpt lat="44.6491381" lon="9.4971836"><ele>685.0</ele><time>2026-05-03T13:09:41.644Z</time></trkpt><trkpt lat="44.6490614" lon="9.4970582"><ele>685.0</ele><time>2026-05-03T13:09:42.647Z</time></trkpt><trkpt lat="44.6490173" lon="9.4969352"><ele>686.0</ele><time>2026-05-03T13:09:43.651Z</time></trkpt><trkpt lat="44.6489957" lon="9.4967974"><ele>687.0</ele><time>2026-05-03T13:09:44.652Z</time></trkpt><trkpt lat="44.6489847" lon="9.4966332"><ele>688.0</ele><time>2026-05-03T13:09:45.663Z</time></trkpt><trkpt lat="44.6490105" lon="9.4964776"><ele>689.0</ele><time>2026-05-03T13:09:46.655Z</time></trkpt><trkpt lat="44.6490482" lon="9.4963209"><ele>690.0</ele><time>2026-05-03T13:09:47.651Z</time></trkpt><trkpt lat="44.6491117" lon="9.4961861"><ele>690.4</ele><time>2026-05-03T13:09:48.648Z</time></trkpt><trkpt lat="44.6491768" lon="9.4960697"><ele>690.8</ele><time>2026-05-03T13:09:49.645Z</time></trkpt><trkpt lat="44.6492395" lon="9.4959612"><ele>691.2</ele><time>2026-05-03T13:09:50.662Z</time></trkpt><trkpt lat="44.6493101" lon="9.4958639"><ele>691.6</ele><time>2026-05-03T13:09:51.65Z</time></trkpt><trkpt lat="44.6493701" lon="9.4958118"><ele>692.0</ele><time>2026-05-03T13:09:52.644Z</time></trkpt><trkpt lat="44.6494891" lon="9.4958265"><ele>692.0</ele><time>2026-05-03T13:09:54.649Z</time></trkpt><trkpt lat="44.64947" lon="9.4956841"><ele>692.0</ele><time>2026-05-03T13:09:55.656Z</time></trkpt><trkpt lat="44.6494604" lon="9.495561"><ele>692.0</ele><time>2026-05-03T13:09:56.645Z</time></trkpt><trkpt lat="44.6494195" lon="9.4954286"><ele>692.0</ele><time>2026-05-03T13:09:57.649Z</time></trkpt><trkpt lat="44.6493633" lon="9.495282"><ele>692.0</ele><time>2026-05-03T13:09:58.649Z</time></trkpt><trkpt lat="44.6493272" lon="9.495129"><ele>693.25</ele><time>2026-05-03T13:09:59.645Z</time></trkpt><trkpt lat="44.6493054" lon="9.4949687"><ele>694.5</ele><time>2026-05-03T13:10:00.644Z</time></trkpt><trkpt lat="44.6493228" lon="9.4948037"><ele>695.75</ele><time>2026-05-03T13:10:01.66Z</time></trkpt><trkpt lat="44.6493662" lon="9.494656"><ele>697.0</ele><time>2026-05-03T13:10:02.65Z</time></trkpt><trkpt lat="44.6494627" lon="9.4945249"><ele>699.6666666666667</ele><time>2026-05-03T13:10:03.648Z</time></trkpt><trkpt lat="44.6495828" lon="9.4944037"><ele>702.3333333333334</ele><time>2026-05-03T13:10:04.652Z</time></trkpt><trkpt lat="44.6497181" lon="9.4942676"><ele>705.0</ele><time>2026-05-03T13:10:05.655Z</time></trkpt><trkpt lat="44.6498968" lon="9.4941337"><ele>705.0</ele><time>2026-05-03T13:10:06.676Z</time></trkpt><trkpt lat="44.650062" lon="9.4940198"><ele>705.0</ele><time>2026-05-03T13:10:07.657Z</time></trkpt><trkpt lat="44.6502162" lon="9.493847"><ele>705.0</ele><time>2026-05-03T13:10:08.649Z</time></trkpt><trkpt lat="44.6503432" lon="9.4936362"><ele>708.3333333333334</ele><time>2026-05-03T13:10:09.647Z</time></trkpt><trkpt lat="44.6504416" lon="9.4934342"><ele>711.6666666666667</ele><time>2026-05-03T13:10:10.645Z</time></trkpt><trkpt lat="44.6505515" lon="9.493162"><ele>715.0</ele><time>2026-05-03T13:10:11.65Z</time></trkpt><trkpt lat="44.6506498" lon="9.4929287"><ele>715.0</ele><time>2026-05-03T13:10:12.639Z</time></trkpt><trkpt lat="44.6506838" lon="9.4927498"><ele>715.0</ele><time>2026-05-03T13:10:13.644Z</time></trkpt><trkpt lat="44.6507411" lon="9.4926179"><ele>715.0</ele><time>2026-05-03T13:10:14.647Z</time></trkpt><trkpt lat="44.6508278" lon="9.4925319"><ele>715.0</ele><time>2026-05-03T13:10:15.643Z</time></trkpt><trkpt lat="44.6509203" lon="9.4925017"><ele>715.0</ele><time>2026-05-03T13:10:16.656Z</time></trkpt><trkpt lat="44.6510037" lon="9.492511"><ele>715.0</ele><time>2026-05-03T13:10:17.647Z</time></trkpt><trkpt lat="44.6510918" lon="9.492693"><ele>715.0</ele><time>2026-05-03T13:10:19.639Z</time></trkpt><trkpt lat="44.6511567" lon="9.4929246"><ele>715.0</ele><time>2026-05-03T13:10:20.644Z</time></trkpt><trkpt lat="44.6511858" lon="9.4931432"><ele>719.75</ele><time>2026-05-03T13:10:21.652Z</time></trkpt><trkpt lat="44.65118" lon="9.4933638"><ele>724.5</ele><time>2026-05-03T13:10:22.646Z</time></trkpt><trkpt lat="44.6511675" lon="9.4935206"><ele>729.25</ele><time>2026-05-03T13:10:23.645Z</time></trkpt><trkpt lat="44.6511667" lon="9.4936931"><ele>734.0</ele><time>2026-05-03T13:10:24.646Z</time></trkpt><trkpt lat="44.6511517" lon="9.493838"><ele>734.0</ele><time>2026-05-03T13:10:25.652Z</time></trkpt><trkpt lat="44.6511426" lon="9.4939678"><ele>734.0</ele><time>2026-05-03T13:10:26.662Z</time></trkpt><trkpt lat="44.6511262" lon="9.494093"><ele>734.0</ele><time>2026-05-03T13:10:27.65Z</time></trkpt><trkpt lat="44.651173" lon="9.4941858"><ele>734.0</ele><time>2026-05-03T13:10:28.652Z</time></trkpt><trkpt lat="44.651265" lon="9.494345"><ele>734.0</ele><time>2026-05-03T13:10:29.656Z</time></trkpt><trkpt lat="44.6513586" lon="9.4945004"><ele>733.5</ele><time>2026-05-03T13:10:30.657Z</time></trkpt><trkpt lat="44.651438" lon="9.4946612"><ele>733.0</ele><time>2026-05-03T13:10:31.671Z</time></trkpt><trkpt lat="44.6514956" lon="9.4948326"><ele>732.5</ele><time>2026-05-03T13:10:32.651Z</time></trkpt><trkpt lat="44.6515589" lon="9.4950114"><ele>732.0</ele><time>2026-05-03T13:10:33.646Z</time></trkpt><trkpt lat="44.6515989" lon="9.495174"><ele>732.0</ele><time>2026-05-03T13:10:34.651Z</time></trkpt><trkpt lat="44.6516582" lon="9.495364"><ele>732.0</ele><time>2026-05-03T13:10:35.645Z</time></trkpt><trkpt lat="44.6517293" lon="9.4955617"><ele>732.0</ele><time>2026-05-03T13:10:36.661Z</time></trkpt><trkpt lat="44.6517342" lon="9.4957341"><ele>732.0</ele><time>2026-05-03T13:10:37.647Z</time></trkpt><trkpt lat="44.6517263" lon="9.4959138"><ele>732.2</ele><time>2026-05-03T13:10:38.65Z</time></trkpt><trkpt lat="44.6517054" lon="9.4960892"><ele>732.4000000000001</ele><time>2026-05-03T13:10:39.645Z</time></trkpt><trkpt lat="44.6517232" lon="9.4962333"><ele>732.5999999999999</ele><time>2026-05-03T13:10:40.65Z</time></trkpt><trkpt lat="44.6517435" lon="9.4963765"><ele>732.8</ele><time>2026-05-03T13:10:41.658Z</time></trkpt><trkpt lat="44.6517235" lon="9.4965172"><ele>733.0</ele><time>2026-05-03T13:10:42.644Z</time></trkpt><trkpt lat="44.65176" lon="9.4966378"><ele>734.0</ele><time>2026-05-03T13:10:43.647Z</time></trkpt><trkpt lat="44.6518096" lon="9.4967324"><ele>735.0</ele><time>2026-05-03T13:10:44.646Z</time></trkpt><trkpt lat="44.651887" lon="9.4967912"><ele>736.0</ele><time>2026-05-03T13:10:45.645Z</time></trkpt><trkpt lat="44.6519826" lon="9.496818"><ele>737.0</ele><time>2026-05-03T13:10:46.66Z</time></trkpt><trkpt lat="44.6520999" lon="9.4968105"><ele>738.0</ele><time>2026-05-03T13:10:47.64Z</time></trkpt><trkpt lat="44.6522052" lon="9.496762"><ele>740.5999999999999</ele><time>2026-05-03T13:10:48.644Z</time></trkpt><trkpt lat="44.652296" lon="9.4967242"><ele>743.1999999999999</ele><time>2026-05-03T13:10:49.639Z</time></trkpt><trkpt lat="44.6523767" lon="9.4966038"><ele>745.8</ele><time>2026-05-03T13:10:50.654Z</time></trkpt><trkpt lat="44.6524234" lon="9.4965044"><ele>748.4</ele><time>2026-05-03T13:10:51.66Z</time></trkpt><trkpt lat="44.6524669" lon="9.4963336"><ele>751.0</ele><time>2026-05-03T13:10:52.651Z</time></trkpt><trkpt lat="44.6524685" lon="9.4960547"><ele>751.0</ele><time>2026-05-03T13:10:53.651Z</time></trkpt><trkpt lat="44.6524496" lon="9.495774"><ele>751.0</ele><time>2026-05-03T13:10:54.651Z</time></trkpt><trkpt lat="44.6524004" lon="9.4953711"><ele>753.0</ele><time>2026-05-03T13:10:55.651Z</time></trkpt><trkpt lat="44.6523135" lon="9.4949399"><ele>755.0</ele><time>2026-05-03T13:10:56.657Z</time></trkpt><trkpt lat="44.6522233" lon="9.4945425"><ele>755.3333333333333</ele><time>2026-05-03T13:10:57.652Z</time></trkpt><trkpt lat="44.6521412" lon="9.4942727"><ele>755.6666666666666</ele><time>2026-05-03T13:10:58.65Z</time></trkpt><trkpt lat="44.6520652" lon="9.4940546"><ele>756.0</ele><time>2026-05-03T13:10:59.652Z</time></trkpt><trkpt lat="44.6520494" lon="9.4938457"><ele>756.1999999999999</ele><time>2026-05-03T13:11:00.657Z</time></trkpt><trkpt lat="44.6520652" lon="9.4937103"><ele>756.4</ele><time>2026-05-03T13:11:01.661Z</time></trkpt><trkpt lat="44.6520671" lon="9.4935991"><ele>756.6</ele><time>2026-05-03T13:11:02.653Z</time></trkpt><trkpt lat="44.6520811" lon="9.4934717"><ele>756.8</ele><time>2026-05-03T13:11:03.65Z</time></trkpt><trkpt lat="44.6521838" lon="9.4933187"><ele>757.0</ele><time>2026-05-03T13:11:04.65Z</time></trkpt><trkpt lat="44.6523502" lon="9.4931333"><ele>757.0</ele><time>2026-05-03T13:11:05.652Z</time></trkpt><trkpt lat="44.6525114" lon="9.4929586"><ele>757.0</ele><time>2026-05-03T13:11:06.655Z</time></trkpt><trkpt lat="44.6526825" lon="9.4927763"><ele>757.0</ele><time>2026-05-03T13:11:07.66Z</time></trkpt><trkpt lat="44.652817" lon="9.4926129"><ele>760.75</ele><time>2026-05-03T13:11:08.65Z</time></trkpt><trkpt lat="44.6529156" lon="9.4924413"><ele>764.5</ele><time>2026-05-03T13:11:09.654Z</time></trkpt><trkpt lat="44.6530026" lon="9.492265"><ele>768.25</ele><time>2026-05-03T13:11:10.649Z</time></trkpt><trkpt lat="44.6530376" lon="9.4920912"><ele>772.0</ele><time>2026-05-03T13:11:11.65Z</time></trkpt><trkpt lat="44.6530236" lon="9.4919091"><ele>773.0</ele><time>2026-05-03T13:11:12.683Z</time></trkpt><trkpt lat="44.6529388" lon="9.4917438"><ele>774.0</ele><time>2026-05-03T13:11:13.672Z</time></trkpt><trkpt lat="44.6528555" lon="9.491617"><ele>775.0</ele><time>2026-05-03T13:11:14.677Z</time></trkpt><trkpt lat="44.6527574" lon="9.491474"><ele>776.0</ele><time>2026-05-03T13:11:15.675Z</time></trkpt><trkpt lat="44.6526459" lon="9.4913654"><ele>773.8</ele><time>2026-05-03T13:11:16.674Z</time></trkpt><trkpt lat="44.6525312" lon="9.4913058"><ele>771.5999999999999</ele><time>2026-05-03T13:11:17.665Z</time></trkpt><trkpt lat="44.6524394" lon="9.4912426"><ele>769.4</ele><time>2026-05-03T13:11:18.653Z</time></trkpt><trkpt lat="44.6523713" lon="9.4911441"><ele>767.2</ele><time>2026-05-03T13:11:19.649Z</time></trkpt><trkpt lat="44.6523315" lon="9.4910193"><ele>765.0</ele><time>2026-05-03T13:11:20.657Z</time></trkpt><trkpt lat="44.6523272" lon="9.490877"><ele>765.0</ele><time>2026-05-03T13:11:21.678Z</time></trkpt><trkpt lat="44.6523572" lon="9.4907453"><ele>765.0</ele><time>2026-05-03T13:11:22.668Z</time></trkpt><trkpt lat="44.6523899" lon="9.4906102"><ele>765.0</ele><time>2026-05-03T13:11:23.653Z</time></trkpt><trkpt lat="44.6524533" lon="9.4904742"><ele>765.0</ele><time>2026-05-03T13:11:24.657Z</time></trkpt><trkpt lat="44.652556" lon="9.4903462"><ele>762.3333333333334</ele><time>2026-05-03T13:11:25.655Z</time></trkpt><trkpt lat="44.6526978" lon="9.4901987"><ele>759.6666666666667</ele><time>2026-05-03T13:11:26.654Z</time></trkpt><trkpt lat="44.6528442" lon="9.4900225"><ele>757.0</ele><time>2026-05-03T13:11:27.663Z</time></trkpt><trkpt lat="44.6529645" lon="9.4898502"><ele>760.5</ele><time>2026-05-03T13:11:28.648Z</time></trkpt><trkpt lat="44.6530008" lon="9.489678"><ele>764.0</ele><time>2026-05-03T13:11:29.648Z</time></trkpt><trkpt lat="44.6530065" lon="9.4894955"><ele>767.5</ele><time>2026-05-03T13:11:30.646Z</time></trkpt><trkpt lat="44.6530211" lon="9.4893265"><ele>771.0</ele><time>2026-05-03T13:11:31.647Z</time></trkpt><trkpt lat="44.653046" lon="9.4891801"><ele>771.0</ele><time>2026-05-03T13:11:32.657Z</time></trkpt><trkpt lat="44.6531381" lon="9.4890452"><ele>771.0</ele><time>2026-05-03T13:11:33.642Z</time></trkpt><trkpt lat="44.653265" lon="9.4888997"><ele>771.0</ele><time>2026-05-03T13:11:34.641Z</time></trkpt><trkpt lat="44.6534632" lon="9.4888896"><ele>773.6666666666667</ele><time>2026-05-03T13:11:35.646Z</time></trkpt><trkpt lat="44.6536252" lon="9.488798"><ele>776.3333333333334</ele><time>2026-05-03T13:11:36.655Z</time></trkpt><trkpt lat="44.6537259" lon="9.4886274"><ele>779.0</ele><time>2026-05-03T13:11:37.655Z</time></trkpt><trkpt lat="44.6538262" lon="9.488527"><ele>779.0</ele><time>2026-05-03T13:11:38.65Z</time></trkpt><trkpt lat="44.6539428" lon="9.4884327"><ele>779.0</ele><time>2026-05-03T13:11:39.649Z</time></trkpt><trkpt lat="44.654117" lon="9.4883562"><ele>779.0</ele><time>2026-05-03T13:11:40.645Z</time></trkpt><trkpt lat="44.6543037" lon="9.4883041"><ele>778.75</ele><time>2026-05-03T13:11:41.648Z</time></trkpt><trkpt lat="44.6544896" lon="9.4882614"><ele>778.5</ele><time>2026-05-03T13:11:42.654Z</time></trkpt><trkpt lat="44.6545779" lon="9.4881493"><ele>778.25</ele><time>2026-05-03T13:11:43.644Z</time></trkpt><trkpt lat="44.6546613" lon="9.4880195"><ele>778.0</ele><time>2026-05-03T13:11:44.673Z</time></trkpt><trkpt lat="44.6547452" lon="9.4879242"><ele>778.0</ele><time>2026-05-03T13:11:45.672Z</time></trkpt><trkpt lat="44.6548276" lon="9.4879035"><ele>778.0</ele><time>2026-05-03T13:11:46.647Z</time></trkpt><trkpt lat="44.6549014" lon="9.4880059"><ele>778.0</ele><time>2026-05-03T13:11:47.655Z</time></trkpt><trkpt lat="44.6550004" lon="9.4881159"><ele>778.0</ele><time>2026-05-03T13:11:48.64Z</time></trkpt><trkpt lat="44.6551137" lon="9.4882264"><ele>782.6666666666666</ele><time>2026-05-03T13:11:49.647Z</time></trkpt><trkpt lat="44.6552751" lon="9.4883456"><ele>787.3333333333333</ele><time>2026-05-03T13:11:50.651Z</time></trkpt><trkpt lat="44.6554341" lon="9.4884387"><ele>792.0</ele><time>2026-05-03T13:11:51.651Z</time></trkpt><trkpt lat="44.6556001" lon="9.4884411"><ele>794.0</ele><time>2026-05-03T13:11:52.663Z</time></trkpt><trkpt lat="44.6557321" lon="9.488355"><ele>796.0</ele><time>2026-05-03T13:11:53.66Z</time></trkpt><trkpt lat="44.655897" lon="9.4882977"><ele>798.0</ele><time>2026-05-03T13:11:54.662Z</time></trkpt><trkpt lat="44.6561021" lon="9.4882107"><ele>797.0</ele><time>2026-05-03T13:11:55.655Z</time></trkpt><trkpt lat="44.6562924" lon="9.4880263"><ele>796.0</ele><time>2026-05-03T13:11:56.652Z</time></trkpt><trkpt lat="44.6564859" lon="9.4878796"><ele>796.0</ele><time>2026-05-03T13:11:57.663Z</time></trkpt><trkpt lat="44.6566779" lon="9.4877829"><ele>796.0</ele><time>2026-05-03T13:11:58.648Z</time></trkpt><trkpt lat="44.6568871" lon="9.4877465"><ele>796.0</ele><time>2026-05-03T13:11:59.639Z</time></trkpt><trkpt lat="44.6571169" lon="9.4877239"><ele>802.0</ele><time>2026-05-03T13:12:00.647Z</time></trkpt><trkpt lat="44.6573165" lon="9.4877172"><ele>808.0</ele><time>2026-05-03T13:12:01.641Z</time></trkpt><trkpt lat="44.6574699" lon="9.4877011"><ele>814.0</ele><time>2026-05-03T13:12:02.656Z</time></trkpt><trkpt lat="44.657571" lon="9.4875407"><ele>814.0</ele><time>2026-05-03T13:12:03.648Z</time></trkpt><trkpt lat="44.6576462" lon="9.4872695"><ele>814.0</ele><time>2026-05-03T13:12:04.644Z</time></trkpt><trkpt lat="44.6577228" lon="9.4869666"><ele>814.0</ele><time>2026-05-03T13:12:05.638Z</time></trkpt><trkpt lat="44.6578557" lon="9.4867644"><ele>815.3333333333333</ele><time>2026-05-03T13:12:06.645Z</time></trkpt><trkpt lat="44.6579631" lon="9.4865894"><ele>816.6666666666667</ele><time>2026-05-03T13:12:07.679Z</time></trkpt><trkpt lat="44.6581097" lon="9.4864275"><ele>818.0</ele><time>2026-05-03T13:12:08.645Z</time></trkpt><trkpt lat="44.6583035" lon="9.4863849"><ele>818.0</ele><time>2026-05-03T13:12:09.645Z</time></trkpt><trkpt lat="44.6584837" lon="9.4863395"><ele>818.0</ele><time>2026-05-03T13:12:10.644Z</time></trkpt><trkpt lat="44.6586642" lon="9.4862841"><ele>818.0</ele><time>2026-05-03T13:12:11.649Z</time></trkpt><trkpt lat="44.6588205" lon="9.4862226"><ele>818.6666666666667</ele><time>2026-05-03T13:12:12.653Z</time></trkpt><trkpt lat="44.6589665" lon="9.4861473"><ele>819.3333333333333</ele><time>2026-05-03T13:12:13.646Z</time></trkpt><trkpt lat="44.6590665" lon="9.4859787"><ele>820.0</ele><time>2026-05-03T13:12:14.64Z</time></trkpt><trkpt lat="44.6590968" lon="9.4857715"><ele>820.0</ele><time>2026-05-03T13:12:15.642Z</time></trkpt><trkpt lat="44.6591078" lon="9.485524"><ele>820.0</ele><time>2026-05-03T13:12:16.651Z</time></trkpt><trkpt lat="44.6591269" lon="9.4852779"><ele>820.0</ele><time>2026-05-03T13:12:17.662Z</time></trkpt><trkpt lat="44.6591743" lon="9.4850331"><ele>819.6666666666666</ele><time>2026-05-03T13:12:18.655Z</time></trkpt><trkpt lat="44.6592183" lon="9.4848117"><ele>819.3333333333333</ele><time>2026-05-03T13:12:19.65Z</time></trkpt><trkpt lat="44.6592809" lon="9.4846128"><ele>819.0</ele><time>2026-05-03T13:12:20.644Z</time></trkpt><trkpt lat="44.6593906" lon="9.4844274"><ele>821.6666666666667</ele><time>2026-05-03T13:12:21.671Z</time></trkpt><trkpt lat="44.6595265" lon="9.4842432"><ele>824.3333333333334</ele><time>2026-05-03T13:12:22.662Z</time></trkpt><trkpt lat="44.6596658" lon="9.4840797"><ele>827.0</ele><time>2026-05-03T13:12:23.672Z</time></trkpt><trkpt lat="44.6597844" lon="9.4839444"><ele>827.0</ele><time>2026-05-03T13:12:24.676Z</time></trkpt><trkpt lat="44.6599425" lon="9.4838835"><ele>827.0</ele><time>2026-05-03T13:12:25.675Z</time></trkpt><trkpt lat="44.6601036" lon="9.4839093"><ele>827.0</ele><time>2026-05-03T13:12:26.651Z</time></trkpt><trkpt lat="44.6603082" lon="9.4839427"><ele>829.3333333333334</ele><time>2026-05-03T13:12:27.654Z</time></trkpt><trkpt lat="44.6604996" lon="9.4839736"><ele>831.6666666666667</ele><time>2026-05-03T13:12:28.647Z</time></trkpt><trkpt lat="44.6607132" lon="9.4840183"><ele>834.0</ele><time>2026-05-03T13:12:29.647Z</time></trkpt><trkpt lat="44.6609148" lon="9.4840406"><ele>834.0</ele><time>2026-05-03T13:12:30.645Z</time></trkpt><trkpt lat="44.6611017" lon="9.4840278"><ele>834.0</ele><time>2026-05-03T13:12:31.644Z</time></trkpt><trkpt lat="44.6613161" lon="9.483985"><ele>834.0</ele><time>2026-05-03T13:12:32.66Z</time></trkpt><trkpt lat="44.6615203" lon="9.4839599"><ele>837.0</ele><time>2026-05-03T13:12:33.648Z</time></trkpt><trkpt lat="44.6616982" lon="9.4838865"><ele>840.0</ele><time>2026-05-03T13:12:34.643Z</time></trkpt><trkpt lat="44.6618643" lon="9.4838079"><ele>843.0</ele><time>2026-05-03T13:12:35.649Z</time></trkpt><trkpt lat="44.6620115" lon="9.4836803"><ele>845.0</ele><time>2026-05-03T13:12:36.65Z</time></trkpt><trkpt lat="44.662158" lon="9.4835393"><ele>847.0</ele><time>2026-05-03T13:12:37.665Z</time></trkpt><trkpt lat="44.6622598" lon="9.4833883"><ele>849.0</ele><time>2026-05-03T13:12:38.654Z</time></trkpt><trkpt lat="44.6623947" lon="9.4832105"><ele>849.0</ele><time>2026-05-03T13:12:39.676Z</time></trkpt><trkpt lat="44.6625649" lon="9.4830351"><ele>849.0</ele><time>2026-05-03T13:12:40.654Z</time></trkpt><trkpt lat="44.6626882" lon="9.4827431"><ele>849.6666666666667</ele><time>2026-05-03T13:12:41.65Z</time></trkpt><trkpt lat="44.6628266" lon="9.4824796"><ele>850.3333333333334</ele><time>2026-05-03T13:12:42.662Z</time></trkpt><trkpt lat="44.6629511" lon="9.4822584"><ele>851.0</ele><time>2026-05-03T13:12:43.652Z</time></trkpt><trkpt lat="44.6630938" lon="9.4820596"><ele>851.0</ele><time>2026-05-03T13:12:44.659Z</time></trkpt><trkpt lat="44.6632233" lon="9.4818571"><ele>851.0</ele><time>2026-05-03T13:12:45.649Z</time></trkpt><trkpt lat="44.6633363" lon="9.4816742"><ele>851.0</ele><time>2026-05-03T13:12:46.644Z</time></trkpt><trkpt lat="44.6634743" lon="9.4815238"><ele>855.3333333333334</ele><time>2026-05-03T13:12:47.657Z</time></trkpt><trkpt lat="44.6636172" lon="9.4813827"><ele>859.6666666666667</ele><time>2026-05-03T13:12:48.642Z</time></trkpt><trkpt lat="44.663762" lon="9.4812741"><ele>864.0</ele><time>2026-05-03T13:12:49.639Z</time></trkpt><trkpt lat="44.6638898" lon="9.4811853"><ele>864.0</ele><time>2026-05-03T13:12:50.641Z</time></trkpt><trkpt lat="44.663992" lon="9.4810938"><ele>864.0</ele><time>2026-05-03T13:12:51.645Z</time></trkpt><trkpt lat="44.6640273" lon="9.4809779"><ele>864.0</ele><time>2026-05-03T13:12:52.652Z</time></trkpt><trkpt lat="44.6640384" lon="9.480855"><ele>864.0</ele><time>2026-05-03T13:12:53.638Z</time></trkpt><trkpt lat="44.6639627" lon="9.4806307"><ele>865.6666666666667</ele><time>2026-05-03T13:12:54.669Z</time></trkpt><trkpt lat="44.6639122" lon="9.4804194"><ele>867.3333333333334</ele><time>2026-05-03T13:12:55.666Z</time></trkpt><trkpt lat="44.6637991" lon="9.480213"><ele>869.0</ele><time>2026-05-03T13:12:56.666Z</time></trkpt><trkpt lat="44.6636937" lon="9.4800083"><ele>866.3333333333334</ele><time>2026-05-03T13:12:57.683Z</time></trkpt><trkpt lat="44.6635999" lon="9.4798262"><ele>863.6666666666667</ele><time>2026-05-03T13:12:58.671Z</time></trkpt><trkpt lat="44.6634841" lon="9.4796619"><ele>861.0</ele><time>2026-05-03T13:12:59.643Z</time></trkpt><trkpt lat="44.6633944" lon="9.4794872"><ele>861.0</ele><time>2026-05-03T13:13:00.667Z</time></trkpt><trkpt lat="44.6633522" lon="9.4792838"><ele>861.0</ele><time>2026-05-03T13:13:01.668Z</time></trkpt><trkpt lat="44.6634082" lon="9.4790767"><ele>861.0</ele><time>2026-05-03T13:13:02.65Z</time></trkpt><trkpt lat="44.6634936" lon="9.4788868"><ele>862.0</ele><time>2026-05-03T13:13:03.642Z</time></trkpt><trkpt lat="44.6635303" lon="9.4786341"><ele>863.0</ele><time>2026-05-03T13:13:04.647Z</time></trkpt><trkpt lat="44.6635136" lon="9.4783708"><ele>864.0</ele><time>2026-05-03T13:13:05.648Z</time></trkpt><trkpt lat="44.66352" lon="9.4780879"><ele>863.6666666666667</ele><time>2026-05-03T13:13:06.65Z</time></trkpt><trkpt lat="44.6635664" lon="9.4778295"><ele>863.3333333333334</ele><time>2026-05-03T13:13:07.665Z</time></trkpt><trkpt lat="44.6636299" lon="9.477546"><ele>863.0</ele><time>2026-05-03T13:13:08.676Z</time></trkpt><trkpt lat="44.6636596" lon="9.4772988"><ele>868.0</ele><time>2026-05-03T13:13:09.674Z</time></trkpt><trkpt lat="44.6637134" lon="9.4770571"><ele>873.0</ele><time>2026-05-03T13:13:10.647Z</time></trkpt><trkpt lat="44.663777" lon="9.4768387"><ele>878.0</ele><time>2026-05-03T13:13:11.649Z</time></trkpt><trkpt lat="44.6637745" lon="9.4766682"><ele>878.0</ele><time>2026-05-03T13:13:12.659Z</time></trkpt><trkpt lat="44.6637511" lon="9.4764928"><ele>878.0</ele><time>2026-05-03T13:13:13.653Z</time></trkpt><trkpt lat="44.6636988" lon="9.4763371"><ele>878.0</ele><time>2026-05-03T13:13:14.67Z</time></trkpt><trkpt lat="44.6636607" lon="9.4762543"><ele>878.0</ele><time>2026-05-03T13:13:15.675Z</time></trkpt><trkpt lat="44.6635399" lon="9.4761881"><ele>878.0</ele><time>2026-05-03T13:13:16.674Z</time></trkpt><trkpt lat="44.6634178" lon="9.4761281"><ele>876.0</ele><time>2026-05-03T13:13:17.67Z</time></trkpt><trkpt lat="44.6632794" lon="9.476103"><ele>874.0</ele><time>2026-05-03T13:13:18.65Z</time></trkpt><trkpt lat="44.6631474" lon="9.4760927"><ele>872.0</ele><time>2026-05-03T13:13:19.646Z</time></trkpt><trkpt lat="44.6630563" lon="9.476081"><ele>870.0</ele><time>2026-05-03T13:13:20.644Z</time></trkpt><trkpt lat="44.6630077" lon="9.4761769"><ele>868.0</ele><time>2026-05-03T13:13:21.637Z</time></trkpt><trkpt lat="44.6629331" lon="9.4762609"><ele>866.75</ele><time>2026-05-03T13:13:22.618Z</time></trkpt><trkpt lat="44.6628499" lon="9.4763427"><ele>865.5</ele><time>2026-05-03T13:13:23.611Z</time></trkpt><trkpt lat="44.6627518" lon="9.4762471"><ele>864.25</ele><time>2026-05-03T13:13:24.614Z</time></trkpt><trkpt lat="44.6626717" lon="9.4759497"><ele>863.0</ele><time>2026-05-03T13:13:25.614Z</time></trkpt><trkpt lat="44.6626537" lon="9.4753713"><ele>869.0</ele><time>2026-05-03T13:13:26.634Z</time></trkpt><trkpt lat="44.6626313" lon="9.4750331"><ele>875.0</ele><time>2026-05-03T13:13:27.68Z</time></trkpt><trkpt lat="44.6626327" lon="9.4747445"><ele>881.0</ele><time>2026-05-03T13:13:28.642Z</time></trkpt><trkpt lat="44.6625909" lon="9.4744136"><ele>881.3333333333334</ele><time>2026-05-03T13:13:29.649Z</time></trkpt><trkpt lat="44.6625433" lon="9.4741532"><ele>881.6666666666667</ele><time>2026-05-03T13:13:30.647Z</time></trkpt><trkpt lat="44.6625109" lon="9.4739955"><ele>882.0</ele><time>2026-05-03T13:13:31.643Z</time></trkpt><trkpt lat="44.6626981" lon="9.4736993"><ele>881.75</ele><time>2026-05-03T13:13:32.651Z</time></trkpt><trkpt lat="44.6628189" lon="9.4735962"><ele>881.5</ele><time>2026-05-03T13:13:33.642Z</time></trkpt><trkpt lat="44.6629073" lon="9.4735943"><ele>881.25</ele><time>2026-05-03T13:13:34.65Z</time></trkpt><trkpt lat="44.6629895" lon="9.4737183"><ele>881.0</ele><time>2026-05-03T13:13:35.638Z</time></trkpt><trkpt lat="44.6630651" lon="9.4739615"><ele>881.0</ele><time>2026-05-03T13:13:36.642Z</time></trkpt><trkpt lat="44.6631605" lon="9.4742759"><ele>881.0</ele><time>2026-05-03T13:13:37.65Z</time></trkpt><trkpt lat="44.663234" lon="9.4744899"><ele>881.0</ele><time>2026-05-03T13:13:38.647Z</time></trkpt><trkpt lat="44.6632964" lon="9.4746125"><ele>881.5999999999999</ele><time>2026-05-03T13:13:39.644Z</time></trkpt><trkpt lat="44.6633912" lon="9.4746967"><ele>882.1999999999999</ele><time>2026-05-03T13:13:40.644Z</time></trkpt><trkpt lat="44.6635035" lon="9.4747401"><ele>882.8000000000001</ele><time>2026-05-03T13:13:41.646Z</time></trkpt><trkpt lat="44.6636" lon="9.4747492"><ele>883.4000000000001</ele><time>2026-05-03T13:13:42.638Z</time></trkpt><trkpt lat="44.6636658" lon="9.4747389"><ele>884.0</ele><time>2026-05-03T13:13:43.638Z</time></trkpt><trkpt lat="44.6636805" lon="9.4745951"><ele>884.0</ele><time>2026-05-03T13:13:45.64Z</time></trkpt><trkpt lat="44.6636717" lon="9.4744344"><ele>884.0</ele><time>2026-05-03T13:13:46.641Z</time></trkpt><trkpt lat="44.6636547" lon="9.4742087"><ele>884.0</ele><time>2026-05-03T13:13:47.64Z</time></trkpt><trkpt lat="44.6636375" lon="9.473921"><ele>885.5</ele><time>2026-05-03T13:13:48.638Z</time></trkpt><trkpt lat="44.6636072" lon="9.4734629"><ele>887.0</ele><time>2026-05-03T13:13:49.646Z</time></trkpt><trkpt lat="44.6636082" lon="9.4730631"><ele>896.0</ele><time>2026-05-03T13:13:50.648Z</time></trkpt><trkpt lat="44.6636677" lon="9.4726525"><ele>905.0</ele><time>2026-05-03T13:13:51.644Z</time></trkpt><trkpt lat="44.6637117" lon="9.4723117"><ele>906.6666666666667</ele><time>2026-05-03T13:13:52.649Z</time></trkpt><trkpt lat="44.6637391" lon="9.4720793"><ele>908.3333333333333</ele><time>2026-05-03T13:13:53.647Z</time></trkpt><trkpt lat="44.6637045" lon="9.4718862"><ele>910.0</ele><time>2026-05-03T13:13:54.643Z</time></trkpt><trkpt lat="44.6636226" lon="9.4717131"><ele>905.0</ele><time>2026-05-03T13:13:55.643Z</time></trkpt><trkpt lat="44.6635108" lon="9.4716027"><ele>900.0</ele><time>2026-05-03T13:13:56.644Z</time></trkpt><trkpt lat="44.6633637" lon="9.4714912"><ele>895.0</ele><time>2026-05-03T13:13:57.643Z</time></trkpt><trkpt lat="44.6632125" lon="9.4713949"><ele>899.0</ele><time>2026-05-03T13:13:58.642Z</time></trkpt><trkpt lat="44.663086" lon="9.4712679"><ele>903.0</ele><time>2026-05-03T13:13:59.641Z</time></trkpt><trkpt lat="44.6629879" lon="9.4710599"><ele>907.0</ele><time>2026-05-03T13:14:00.639Z</time></trkpt><trkpt lat="44.6629061" lon="9.4707994"><ele>907.0</ele><time>2026-05-03T13:14:01.65Z</time></trkpt><trkpt lat="44.6628093" lon="9.4705972"><ele>907.0</ele><time>2026-05-03T13:14:02.669Z</time></trkpt><trkpt lat="44.6626781" lon="9.4704628"><ele>907.0</ele><time>2026-05-03T13:14:03.674Z</time></trkpt><trkpt lat="44.6625066" lon="9.4703456"><ele>907.25</ele><time>2026-05-03T13:14:04.671Z</time></trkpt><trkpt lat="44.6623563" lon="9.4702273"><ele>907.5</ele><time>2026-05-03T13:14:05.639Z</time></trkpt><trkpt lat="44.6622342" lon="9.4700963"><ele>907.75</ele><time>2026-05-03T13:14:06.645Z</time></trkpt><trkpt lat="44.6622769" lon="9.4699951"><ele>908.0</ele><time>2026-05-03T13:14:07.651Z</time></trkpt><trkpt lat="44.6624056" lon="9.4699382"><ele>908.0</ele><time>2026-05-03T13:14:08.64Z</time></trkpt><trkpt lat="44.6625475" lon="9.4699494"><ele>908.0</ele><time>2026-05-03T13:14:09.64Z</time></trkpt><trkpt lat="44.6626643" lon="9.470028"><ele>908.0</ele><time>2026-05-03T13:14:10.624Z</time></trkpt><trkpt lat="44.6628476" lon="9.4702157"><ele>907.5</ele><time>2026-05-03T13:14:11.628Z</time></trkpt><trkpt lat="44.6630295" lon="9.4704124"><ele>907.0</ele><time>2026-05-03T13:14:12.65Z</time></trkpt><trkpt lat="44.6632149" lon="9.470676"><ele>907.0</ele><time>2026-05-03T13:14:13.638Z</time></trkpt><trkpt lat="44.663371" lon="9.4708347"><ele>907.0</ele><time>2026-05-03T13:14:14.648Z</time></trkpt><trkpt lat="44.6635506" lon="9.4708973"><ele>907.0</ele><time>2026-05-03T13:14:15.644Z</time></trkpt><trkpt lat="44.6637385" lon="9.4709976"><ele>911.3333333333333</ele><time>2026-05-03T13:14:16.645Z</time></trkpt><trkpt lat="44.6639431" lon="9.4710943"><ele>915.6666666666667</ele><time>2026-05-03T13:14:17.646Z</time></trkpt><trkpt lat="44.6641388" lon="9.4711777"><ele>920.0</ele><time>2026-05-03T13:14:18.646Z</time></trkpt><trkpt lat="44.6643231" lon="9.4712562"><ele>918.25</ele><time>2026-05-03T13:14:19.648Z</time></trkpt><trkpt lat="44.6644892" lon="9.4713465"><ele>916.5</ele><time>2026-05-03T13:14:20.65Z</time></trkpt><trkpt lat="44.664622" lon="9.4713766"><ele>914.75</ele><time>2026-05-03T13:14:21.649Z</time></trkpt><trkpt lat="44.6647372" lon="9.4713677"><ele>913.0</ele><time>2026-05-03T13:14:22.651Z</time></trkpt><trkpt lat="44.6648311" lon="9.4712999"><ele>915.5</ele><time>2026-05-03T13:14:23.654Z</time></trkpt><trkpt lat="44.664851" lon="9.4711652"><ele>918.0</ele><time>2026-05-03T13:14:24.643Z</time></trkpt><trkpt lat="44.664788" lon="9.470991"><ele>920.5</ele><time>2026-05-03T13:14:25.641Z</time></trkpt><trkpt lat="44.6647088" lon="9.4708026"><ele>923.0</ele><time>2026-05-03T13:14:26.67Z</time></trkpt><trkpt lat="44.6646041" lon="9.4706314"><ele>925.0</ele><time>2026-05-03T13:14:27.668Z</time></trkpt><trkpt lat="44.6644357" lon="9.4703971"><ele>927.0</ele><time>2026-05-03T13:14:28.644Z</time></trkpt><trkpt lat="44.6642488" lon="9.4701906"><ele>927.0</ele><time>2026-05-03T13:14:29.643Z</time></trkpt><trkpt lat="44.6640875" lon="9.469969"><ele>927.0</ele><time>2026-05-03T13:14:30.648Z</time></trkpt><trkpt lat="44.6639428" lon="9.4697749"><ele>927.0</ele><time>2026-05-03T13:14:31.646Z</time></trkpt><trkpt lat="44.6637976" lon="9.4695636"><ele>927.0</ele><time>2026-05-03T13:14:32.654Z</time></trkpt><trkpt lat="44.6636674" lon="9.4693293"><ele>927.0</ele><time>2026-05-03T13:14:33.65Z</time></trkpt><trkpt lat="44.6635689" lon="9.469061"><ele>927.0</ele><time>2026-05-03T13:14:34.641Z</time></trkpt><trkpt lat="44.663454" lon="9.4688001"><ele>931.0</ele><time>2026-05-03T13:14:35.642Z</time></trkpt><trkpt lat="44.6633319" lon="9.4685347"><ele>935.0</ele><time>2026-05-03T13:14:36.668Z</time></trkpt><trkpt lat="44.6632137" lon="9.4682799"><ele>939.0</ele><time>2026-05-03T13:14:37.668Z</time></trkpt><trkpt lat="44.6631189" lon="9.4680456"><ele>941.5</ele><time>2026-05-03T13:14:38.644Z</time></trkpt><trkpt lat="44.663045" lon="9.4678308"><ele>944.0</ele><time>2026-05-03T13:14:39.644Z</time></trkpt><trkpt lat="44.6630085" lon="9.4676625"><ele>946.5</ele><time>2026-05-03T13:14:40.648Z</time></trkpt><trkpt lat="44.662991" lon="9.4674924"><ele>949.0</ele><time>2026-05-03T13:14:41.643Z</time></trkpt><trkpt lat="44.6629811" lon="9.4673151"><ele>949.0</ele><time>2026-05-03T13:14:42.668Z</time></trkpt><trkpt lat="44.6630156" lon="9.4671831"><ele>949.0</ele><time>2026-05-03T13:14:43.644Z</time></trkpt><trkpt lat="44.663119" lon="9.4671241"><ele>949.0</ele><time>2026-05-03T13:14:44.668Z</time></trkpt><trkpt lat="44.6632773" lon="9.4671415"><ele>949.0</ele><time>2026-05-03T13:14:45.671Z</time></trkpt><trkpt lat="44.6634261" lon="9.4672139"><ele>949.0</ele><time>2026-05-03T13:14:46.67Z</time></trkpt><trkpt lat="44.6636114" lon="9.4673405"><ele>949.0</ele><time>2026-05-03T13:14:47.666Z</time></trkpt><trkpt lat="44.6638024" lon="9.46747"><ele>949.0</ele><time>2026-05-03T13:14:48.671Z</time></trkpt><trkpt lat="44.6640114" lon="9.4675998"><ele>951.0</ele><time>2026-05-03T13:14:49.667Z</time></trkpt><trkpt lat="44.6641965" lon="9.467718"><ele>953.0</ele><time>2026-05-03T13:14:50.666Z</time></trkpt><trkpt lat="44.6643743" lon="9.4678472"><ele>955.0</ele><time>2026-05-03T13:14:51.642Z</time></trkpt><trkpt lat="44.6645737" lon="9.4679637"><ele>955.5</ele><time>2026-05-03T13:14:52.647Z</time></trkpt><trkpt lat="44.6647692" lon="9.4681446"><ele>956.0</ele><time>2026-05-03T13:14:53.645Z</time></trkpt><trkpt lat="44.6649895" lon="9.4683256"><ele>956.0</ele><time>2026-05-03T13:14:54.647Z</time></trkpt><trkpt lat="44.6651597" lon="9.468399"><ele>956.0</ele><time>2026-05-03T13:14:55.642Z</time></trkpt><trkpt lat="44.6653048" lon="9.4684326"><ele>956.0</ele><time>2026-05-03T13:14:56.664Z</time></trkpt><trkpt lat="44.6654065" lon="9.4684703"><ele>956.0</ele><time>2026-05-03T13:14:57.636Z</time></trkpt><trkpt lat="44.6655606" lon="9.4685244"><ele>958.0</ele><time>2026-05-03T13:14:58.641Z</time></trkpt><trkpt lat="44.6657003" lon="9.4684834"><ele>960.0</ele><time>2026-05-03T13:14:59.639Z</time></trkpt><trkpt lat="44.6658596" lon="9.4683437"><ele>962.0</ele><time>2026-05-03T13:15:00.644Z</time></trkpt><trkpt lat="44.6659246" lon="9.4681224"><ele>963.6666666666667</ele><time>2026-05-03T13:15:01.639Z</time></trkpt><trkpt lat="44.6659406" lon="9.4678858"><ele>965.3333333333333</ele><time>2026-05-03T13:15:02.646Z</time></trkpt><trkpt lat="44.665971" lon="9.4676014"><ele>967.0</ele><time>2026-05-03T13:15:03.643Z</time></trkpt><trkpt lat="44.6660287" lon="9.4673032"><ele>968.0</ele><time>2026-05-03T13:15:04.647Z</time></trkpt><trkpt lat="44.6660711" lon="9.4670217"><ele>969.0</ele><time>2026-05-03T13:15:05.638Z</time></trkpt><trkpt lat="44.6660955" lon="9.4667627"><ele>970.0</ele><time>2026-05-03T13:15:06.639Z</time></trkpt><trkpt lat="44.6661178" lon="9.4664938"><ele>971.0</ele><time>2026-05-03T13:15:07.638Z</time></trkpt><trkpt lat="44.6661327" lon="9.4662651"><ele>972.0</ele><time>2026-05-03T13:15:08.638Z</time></trkpt><trkpt lat="44.6661273" lon="9.4660219"><ele>973.0</ele><time>2026-05-03T13:15:09.641Z</time></trkpt><trkpt lat="44.6660975" lon="9.4658017"><ele>973.0</ele><time>2026-05-03T13:15:10.665Z</time></trkpt><trkpt lat="44.6660129" lon="9.4655952"><ele>973.0</ele><time>2026-05-03T13:15:11.664Z</time></trkpt><trkpt lat="44.665923" lon="9.4654456"><ele>973.0</ele><time>2026-05-03T13:15:12.67Z</time></trkpt><trkpt lat="44.6657727" lon="9.4652854"><ele>974.0</ele><time>2026-05-03T13:15:13.668Z</time></trkpt><trkpt lat="44.6656017" lon="9.4650893"><ele>975.0</ele><time>2026-05-03T13:15:14.64Z</time></trkpt><trkpt lat="44.6654387" lon="9.464888"><ele>976.0</ele><time>2026-05-03T13:15:15.642Z</time></trkpt><trkpt lat="44.6652346" lon="9.4647126"><ele>979.3333333333333</ele><time>2026-05-03T13:15:16.648Z</time></trkpt><trkpt lat="44.6650976" lon="9.4645791"><ele>982.6666666666667</ele><time>2026-05-03T13:15:17.641Z</time></trkpt><trkpt lat="44.6649635" lon="9.4645179"><ele>986.0</ele><time>2026-05-03T13:15:18.643Z</time></trkpt><trkpt lat="44.6648208" lon="9.4644991"><ele>986.0</ele><time>2026-05-03T13:15:19.644Z</time></trkpt><trkpt lat="44.6646708" lon="9.4645157"><ele>986.0</ele><time>2026-05-03T13:15:20.676Z</time></trkpt><trkpt lat="44.6645304" lon="9.4645567"><ele>986.0</ele><time>2026-05-03T13:15:21.673Z</time></trkpt><trkpt lat="44.6644177" lon="9.4645854"><ele>986.0</ele><time>2026-05-03T13:15:22.651Z</time></trkpt><trkpt lat="44.6643089" lon="9.4645082"><ele>985.6666666666667</ele><time>2026-05-03T13:15:23.668Z</time></trkpt><trkpt lat="44.6642032" lon="9.4643753"><ele>985.3333333333333</ele><time>2026-05-03T13:15:24.675Z</time></trkpt><trkpt lat="44.6640649" lon="9.4642092"><ele>985.0</ele><time>2026-05-03T13:15:25.648Z</time></trkpt><trkpt lat="44.6639192" lon="9.4640573"><ele>985.0</ele><time>2026-05-03T13:15:26.648Z</time></trkpt><trkpt lat="44.6637699" lon="9.463904"><ele>985.0</ele><time>2026-05-03T13:15:27.652Z</time></trkpt><trkpt lat="44.6636674" lon="9.4637317"><ele>985.0</ele><time>2026-05-03T13:15:28.643Z</time></trkpt><trkpt lat="44.6635317" lon="9.4636167"><ele>984.75</ele><time>2026-05-03T13:15:29.646Z</time></trkpt><trkpt lat="44.6634283" lon="9.4635041"><ele>984.5</ele><time>2026-05-03T13:15:30.644Z</time></trkpt><trkpt lat="44.6633371" lon="9.4633798"><ele>984.25</ele><time>2026-05-03T13:15:31.645Z</time></trkpt><trkpt lat="44.6632728" lon="9.4632171"><ele>984.0</ele><time>2026-05-03T13:15:32.652Z</time></trkpt><trkpt lat="44.6632251" lon="9.4629818"><ele>987.3333333333333</ele><time>2026-05-03T13:15:33.679Z</time></trkpt><trkpt lat="44.6631864" lon="9.4627344"><ele>990.6666666666666</ele><time>2026-05-03T13:15:34.675Z</time></trkpt><trkpt lat="44.663156" lon="9.4625114"><ele>994.0</ele><time>2026-05-03T13:15:35.677Z</time></trkpt><trkpt lat="44.6630876" lon="9.4623453"><ele>994.0</ele><time>2026-05-03T13:15:36.672Z</time></trkpt><trkpt lat="44.6630227" lon="9.4622332"><ele>994.0</ele><time>2026-05-03T13:15:37.681Z</time></trkpt><trkpt lat="44.6628738" lon="9.462115"><ele>994.0</ele><time>2026-05-03T13:15:38.678Z</time></trkpt><trkpt lat="44.6627291" lon="9.4619294"><ele>995.0</ele><time>2026-05-03T13:15:39.651Z</time></trkpt><trkpt lat="44.6625783" lon="9.4617672"><ele>996.0</ele><time>2026-05-03T13:15:40.659Z</time></trkpt><trkpt lat="44.6624394" lon="9.4616269"><ele>997.0</ele><time>2026-05-03T13:15:41.661Z</time></trkpt><trkpt lat="44.6622672" lon="9.4615177"><ele>997.0</ele><time>2026-05-03T13:15:42.652Z</time></trkpt><trkpt lat="44.6621367" lon="9.4613963"><ele>997.0</ele><time>2026-05-03T13:15:43.674Z</time></trkpt><trkpt lat="44.6620591" lon="9.4612544"><ele>997.0</ele><time>2026-05-03T13:15:44.674Z</time></trkpt><trkpt lat="44.6620736" lon="9.4610314"><ele>997.0</ele><time>2026-05-03T13:15:45.699Z</time></trkpt><trkpt lat="44.662106" lon="9.4607757"><ele>999.3333333333333</ele><time>2026-05-03T13:15:46.651Z</time></trkpt><trkpt lat="44.6621344" lon="9.4604905"><ele>1001.6666666666667</ele><time>2026-05-03T13:15:47.652Z</time></trkpt><trkpt lat="44.6622009" lon="9.4601853"><ele>1004.0</ele><time>2026-05-03T13:15:48.648Z</time></trkpt><trkpt lat="44.6622391" lon="9.4598925"><ele>1006.0</ele><time>2026-05-03T13:15:49.649Z</time></trkpt><trkpt lat="44.6622678" lon="9.4595899"><ele>1008.0</ele><time>2026-05-03T13:15:50.652Z</time></trkpt><trkpt lat="44.6622975" lon="9.4592733"><ele>1010.0</ele><time>2026-05-03T13:15:51.65Z</time></trkpt><trkpt lat="44.6623345" lon="9.4589926"><ele>1012.0</ele><time>2026-05-03T13:15:52.658Z</time></trkpt><trkpt lat="44.6623841" lon="9.4587141"><ele>1014.0</ele><time>2026-05-03T13:15:53.649Z</time></trkpt><trkpt lat="44.662425" lon="9.4584323"><ele>1016.0</ele><time>2026-05-03T13:15:54.651Z</time></trkpt><trkpt lat="44.6624351" lon="9.4581533"><ele>1016.0</ele><time>2026-05-03T13:15:55.656Z</time></trkpt><trkpt lat="44.6624263" lon="9.4578816"><ele>1016.0</ele><time>2026-05-03T13:15:56.66Z</time></trkpt><trkpt lat="44.6623796" lon="9.4576252"><ele>1016.0</ele><time>2026-05-03T13:15:57.651Z</time></trkpt><trkpt lat="44.6623836" lon="9.4573744"><ele>1016.0</ele><time>2026-05-03T13:15:58.656Z</time></trkpt><trkpt lat="44.6623707" lon="9.4571691"><ele>1016.0</ele><time>2026-05-03T13:15:59.644Z</time></trkpt><trkpt lat="44.6623367" lon="9.4570023"><ele>1016.0</ele><time>2026-05-03T13:16:00.652Z</time></trkpt><trkpt lat="44.6622854" lon="9.4568544"><ele>1016.0</ele><time>2026-05-03T13:16:01.672Z</time></trkpt><trkpt lat="44.6621931" lon="9.4567179"><ele>1017.6666666666667</ele><time>2026-05-03T13:16:02.676Z</time></trkpt><trkpt lat="44.6620451" lon="9.4566518"><ele>1019.3333333333333</ele><time>2026-05-03T13:16:03.678Z</time></trkpt><trkpt lat="44.6618645" lon="9.4566613"><ele>1021.0</ele><time>2026-05-03T13:16:04.668Z</time></trkpt><trkpt lat="44.6617192" lon="9.4566743"><ele>1021.75</ele><time>2026-05-03T13:16:05.676Z</time></trkpt><trkpt lat="44.6615403" lon="9.4566941"><ele>1022.5</ele><time>2026-05-03T13:16:06.672Z</time></trkpt><trkpt lat="44.6613938" lon="9.4567724"><ele>1023.25</ele><time>2026-05-03T13:16:07.676Z</time></trkpt><trkpt lat="44.6612848" lon="9.4568086"><ele>1024.0</ele><time>2026-05-03T13:16:08.668Z</time></trkpt><trkpt lat="44.661162" lon="9.4569113"><ele>1025.5</ele><time>2026-05-03T13:16:09.67Z</time></trkpt><trkpt lat="44.6610497" lon="9.4570715"><ele>1027.0</ele><time>2026-05-03T13:16:10.646Z</time></trkpt><trkpt lat="44.6609278" lon="9.4572409"><ele>1028.5</ele><time>2026-05-03T13:16:11.643Z</time></trkpt><trkpt lat="44.6608501" lon="9.4573528"><ele>1030.0</ele><time>2026-05-03T13:16:12.648Z</time></trkpt><trkpt lat="44.6607394" lon="9.4574361"><ele>1030.5</ele><time>2026-05-03T13:16:13.647Z</time></trkpt><trkpt lat="44.6606209" lon="9.4575106"><ele>1031.0</ele><time>2026-05-03T13:16:14.645Z</time></trkpt><trkpt lat="44.6605111" lon="9.4574445"><ele>1031.5</ele><time>2026-05-03T13:16:15.647Z</time></trkpt><trkpt lat="44.660375" lon="9.4572582"><ele>1032.0</ele><time>2026-05-03T13:16:16.653Z</time></trkpt><trkpt lat="44.6602535" lon="9.4570433"><ele>1032.0</ele><time>2026-05-03T13:16:17.647Z</time></trkpt><trkpt lat="44.6601179" lon="9.4569056"><ele>1032.0</ele><time>2026-05-03T13:16:18.638Z</time></trkpt><trkpt lat="44.6599602" lon="9.4567762"><ele>1032.0</ele><time>2026-05-03T13:16:19.639Z</time></trkpt><trkpt lat="44.6597519" lon="9.4566726"><ele>1032.0</ele><time>2026-05-03T13:16:20.649Z</time></trkpt><trkpt lat="44.6595052" lon="9.4565383"><ele>1032.0</ele><time>2026-05-03T13:16:21.652Z</time></trkpt><trkpt lat="44.6592408" lon="9.456476"><ele>1033.0</ele><time>2026-05-03T13:16:22.653Z</time></trkpt><trkpt lat="44.6590063" lon="9.4564354"><ele>1034.0</ele><time>2026-05-03T13:16:23.645Z</time></trkpt><trkpt lat="44.6587835" lon="9.4563725"><ele>1034.0</ele><time>2026-05-03T13:16:24.649Z</time></trkpt><trkpt lat="44.6585999" lon="9.4562658"><ele>1034.0</ele><time>2026-05-03T13:16:25.677Z</time></trkpt><trkpt lat="44.6583808" lon="9.4562383"><ele>1034.0</ele><time>2026-05-03T13:16:26.675Z</time></trkpt><trkpt lat="44.6581526" lon="9.4563139"><ele>1034.0</ele><time>2026-05-03T13:16:27.679Z</time></trkpt><trkpt lat="44.6579393" lon="9.4563974"><ele>1034.0</ele><time>2026-05-03T13:16:28.672Z</time></trkpt><trkpt lat="44.6577713" lon="9.4564994"><ele>1034.0</ele><time>2026-05-03T13:16:29.649Z</time></trkpt><trkpt lat="44.6576122" lon="9.4564939"><ele>1034.3333333333335</ele><time>2026-05-03T13:16:30.651Z</time></trkpt><trkpt lat="44.6574833" lon="9.4564453"><ele>1034.6666666666667</ele><time>2026-05-03T13:16:31.648Z</time></trkpt><trkpt lat="44.657366" lon="9.4563163"><ele>1035.0</ele><time>2026-05-03T13:16:32.675Z</time></trkpt><trkpt lat="44.6572933" lon="9.4560864"><ele>1038.6666666666667</ele><time>2026-05-03T13:16:33.656Z</time></trkpt><trkpt lat="44.6572153" lon="9.4558985"><ele>1042.3333333333335</ele><time>2026-05-03T13:16:34.645Z</time></trkpt><trkpt lat="44.6571984" lon="9.4557312"><ele>1046.0</ele><time>2026-05-03T13:16:35.643Z</time></trkpt><trkpt lat="44.6571797" lon="9.4554358"><ele>1047.5</ele><time>2026-05-03T13:16:36.643Z</time></trkpt><trkpt lat="44.6571491" lon="9.4552184"><ele>1049.0</ele><time>2026-05-03T13:16:37.628Z</time></trkpt><trkpt lat="44.6571633" lon="9.4550378"><ele>1050.5</ele><time>2026-05-03T13:16:38.632Z</time></trkpt><trkpt lat="44.6571484" lon="9.4549263"><ele>1052.0</ele><time>2026-05-03T13:16:39.644Z</time></trkpt><trkpt lat="44.6570507" lon="9.4548781"><ele>1049.3333333333335</ele><time>2026-05-03T13:16:40.641Z</time></trkpt><trkpt lat="44.6569266" lon="9.4548363"><ele>1046.6666666666667</ele><time>2026-05-03T13:16:41.662Z</time></trkpt><trkpt lat="44.6567701" lon="9.4548011"><ele>1044.0</ele><time>2026-05-03T13:16:42.666Z</time></trkpt><trkpt lat="44.6565998" lon="9.4547977"><ele>1044.0</ele><time>2026-05-03T13:16:43.643Z</time></trkpt><trkpt lat="44.6564717" lon="9.4547317"><ele>1044.0</ele><time>2026-05-03T13:16:44.641Z</time></trkpt><trkpt lat="44.6563215" lon="9.4546144"><ele>1044.0</ele><time>2026-05-03T13:16:45.668Z</time></trkpt><trkpt lat="44.6561931" lon="9.4544856"><ele>1045.6666666666667</ele><time>2026-05-03T13:16:46.643Z</time></trkpt><trkpt lat="44.6561319" lon="9.4542856"><ele>1047.3333333333335</ele><time>2026-05-03T13:16:47.655Z</time></trkpt><trkpt lat="44.6560187" lon="9.4539822"><ele>1049.0</ele><time>2026-05-03T13:16:48.655Z</time></trkpt><trkpt lat="44.6559504" lon="9.4536539"><ele>1050.0</ele><time>2026-05-03T13:16:49.669Z</time></trkpt><trkpt lat="44.6558235" lon="9.4533147"><ele>1051.0</ele><time>2026-05-03T13:16:50.674Z</time></trkpt><trkpt lat="44.6557744" lon="9.4530297"><ele>1053.3333333333333</ele><time>2026-05-03T13:16:51.652Z</time></trkpt><trkpt lat="44.655688" lon="9.4527638"><ele>1055.6666666666667</ele><time>2026-05-03T13:16:52.68Z</time></trkpt><trkpt lat="44.6556021" lon="9.4525073"><ele>1058.0</ele><time>2026-05-03T13:16:53.672Z</time></trkpt><trkpt lat="44.65552" lon="9.45226"><ele>1057.3333333333335</ele><time>2026-05-03T13:16:54.675Z</time></trkpt><trkpt lat="44.6554285" lon="9.4520409"><ele>1056.6666666666667</ele><time>2026-05-03T13:16:55.667Z</time></trkpt><trkpt lat="44.6553033" lon="9.4518776"><ele>1056.0</ele><time>2026-05-03T13:16:56.671Z</time></trkpt><trkpt lat="44.6551377" lon="9.4517093"><ele>1056.0</ele><time>2026-05-03T13:16:57.646Z</time></trkpt><trkpt lat="44.6549498" lon="9.4515527"><ele>1056.0</ele><time>2026-05-03T13:16:58.652Z</time></trkpt><trkpt lat="44.6547799" lon="9.4514325"><ele>1056.0</ele><time>2026-05-03T13:16:59.648Z</time></trkpt><trkpt lat="44.6545861" lon="9.4513556"><ele>1057.25</ele><time>2026-05-03T13:17:00.648Z</time></trkpt><trkpt lat="44.6544063" lon="9.4513026"><ele>1058.5</ele><time>2026-05-03T13:17:01.65Z</time></trkpt><trkpt lat="44.6542884" lon="9.451326"><ele>1059.75</ele><time>2026-05-03T13:17:02.651Z</time></trkpt><trkpt lat="44.654153" lon="9.4512692"><ele>1061.0</ele><time>2026-05-03T13:17:03.656Z</time></trkpt><trkpt lat="44.654017" lon="9.4511618"><ele>1061.0</ele><time>2026-05-03T13:17:04.652Z</time></trkpt><trkpt lat="44.6539088" lon="9.4510201"><ele>1061.0</ele><time>2026-05-03T13:17:05.651Z</time></trkpt><trkpt lat="44.6539045" lon="9.4508385"><ele>1061.0</ele><time>2026-05-03T13:17:06.65Z</time></trkpt><trkpt lat="44.6539625" lon="9.4506324"><ele>1061.0</ele><time>2026-05-03T13:17:07.65Z</time></trkpt><trkpt lat="44.6539673" lon="9.4503824"><ele>1061.3333333333335</ele><time>2026-05-03T13:17:08.646Z</time></trkpt><trkpt lat="44.6539812" lon="9.4501326"><ele>1061.6666666666667</ele><time>2026-05-03T13:17:09.648Z</time></trkpt><trkpt lat="44.6540238" lon="9.4498274"><ele>1062.0</ele><time>2026-05-03T13:17:10.647Z</time></trkpt><trkpt lat="44.6540888" lon="9.4495509"><ele>1059.0</ele><time>2026-05-03T13:17:11.649Z</time></trkpt><trkpt lat="44.6541882" lon="9.4492869"><ele>1056.0</ele><time>2026-05-03T13:17:12.651Z</time></trkpt><trkpt lat="44.6542738" lon="9.4490064"><ele>1053.0</ele><time>2026-05-03T13:17:13.644Z</time></trkpt><trkpt lat="44.6543524" lon="9.4487288"><ele>1053.0</ele><time>2026-05-03T13:17:14.642Z</time></trkpt><trkpt lat="44.6543907" lon="9.4484554"><ele>1053.0</ele><time>2026-05-03T13:17:15.668Z</time></trkpt><trkpt lat="44.6544233" lon="9.4482435"><ele>1053.0</ele><time>2026-05-03T13:17:16.639Z</time></trkpt><trkpt lat="44.6545002" lon="9.4480974"><ele>1053.0</ele><time>2026-05-03T13:17:17.642Z</time></trkpt><trkpt lat="44.6546729" lon="9.447996"><ele>1053.0</ele><time>2026-05-03T13:17:18.631Z</time></trkpt><trkpt lat="44.6548549" lon="9.4479278"><ele>1053.0</ele><time>2026-05-03T13:17:19.637Z</time></trkpt><trkpt lat="44.655066" lon="9.4478871"><ele>1051.6666666666667</ele><time>2026-05-03T13:17:20.642Z</time></trkpt><trkpt lat="44.6552431" lon="9.4478895"><ele>1050.3333333333335</ele><time>2026-05-03T13:17:21.638Z</time></trkpt><trkpt lat="44.6554034" lon="9.4478749"><ele>1049.0</ele><time>2026-05-03T13:17:22.641Z</time></trkpt><trkpt lat="44.6555551" lon="9.4478901"><ele>1049.0</ele><time>2026-05-03T13:17:23.643Z</time></trkpt><trkpt lat="44.6557019" lon="9.4478869"><ele>1049.0</ele><time>2026-05-03T13:17:24.644Z</time></trkpt><trkpt lat="44.6558013" lon="9.4477779"><ele>1049.0</ele><time>2026-05-03T13:17:25.637Z</time></trkpt><trkpt lat="44.6558628" lon="9.4475821"><ele>1049.0</ele><time>2026-05-03T13:17:26.638Z</time></trkpt><trkpt lat="44.6558261" lon="9.4473695"><ele>1047.3333333333335</ele><time>2026-05-03T13:17:27.639Z</time></trkpt><trkpt lat="44.6557309" lon="9.4470649"><ele>1045.6666666666667</ele><time>2026-05-03T13:17:28.636Z</time></trkpt><trkpt lat="44.6556841" lon="9.4468328"><ele>1044.0</ele><time>2026-05-03T13:17:29.638Z</time></trkpt><trkpt lat="44.6556708" lon="9.4466029"><ele>1044.0</ele><time>2026-05-03T13:17:30.661Z</time></trkpt><trkpt lat="44.6557029" lon="9.4463426"><ele>1044.0</ele><time>2026-05-03T13:17:31.66Z</time></trkpt><trkpt lat="44.6558037" lon="9.4461055"><ele>1044.0</ele><time>2026-05-03T13:17:32.639Z</time></trkpt><trkpt lat="44.6559316" lon="9.4459177"><ele>1041.6666666666667</ele><time>2026-05-03T13:17:33.632Z</time></trkpt><trkpt lat="44.6560856" lon="9.4457903"><ele>1039.3333333333335</ele><time>2026-05-03T13:17:34.636Z</time></trkpt><trkpt lat="44.6562525" lon="9.4456763"><ele>1037.0</ele><time>2026-05-03T13:17:35.639Z</time></trkpt><trkpt lat="44.6564387" lon="9.4457167"><ele>1037.0</ele><time>2026-05-03T13:17:36.642Z</time></trkpt><trkpt lat="44.6565787" lon="9.4457083"><ele>1037.0</ele><time>2026-05-03T13:17:37.64Z</time></trkpt><trkpt lat="44.6566946" lon="9.4456486"><ele>1037.0</ele><time>2026-05-03T13:17:38.643Z</time></trkpt><trkpt lat="44.6568133" lon="9.4455176"><ele>1037.0</ele><time>2026-05-03T13:17:39.638Z</time></trkpt><trkpt lat="44.6569505" lon="9.4453809"><ele>1032.6666666666667</ele><time>2026-05-03T13:17:40.643Z</time></trkpt><trkpt lat="44.6571509" lon="9.4452672"><ele>1028.3333333333333</ele><time>2026-05-03T13:17:41.642Z</time></trkpt><trkpt lat="44.6573353" lon="9.4451559"><ele>1024.0</ele><time>2026-05-03T13:17:42.643Z</time></trkpt><trkpt lat="44.6575341" lon="9.4451488"><ele>1024.0</ele><time>2026-05-03T13:17:43.642Z</time></trkpt><trkpt lat="44.6577117" lon="9.4451109"><ele>1024.0</ele><time>2026-05-03T13:17:44.642Z</time></trkpt><trkpt lat="44.6578714" lon="9.4451033"><ele>1024.0</ele><time>2026-05-03T13:17:45.632Z</time></trkpt><trkpt lat="44.6580148" lon="9.4451211"><ele>1022.3333333333333</ele><time>2026-05-03T13:17:46.63Z</time></trkpt><trkpt lat="44.6581779" lon="9.4451623"><ele>1020.6666666666667</ele><time>2026-05-03T13:17:47.647Z</time></trkpt><trkpt lat="44.6583139" lon="9.445146"><ele>1019.0</ele><time>2026-05-03T13:17:48.645Z</time></trkpt><trkpt lat="44.6584771" lon="9.4450741"><ele>1017.6666666666667</ele><time>2026-05-03T13:17:49.643Z</time></trkpt><trkpt lat="44.6586424" lon="9.4450623"><ele>1016.3333333333333</ele><time>2026-05-03T13:17:50.647Z</time></trkpt><trkpt lat="44.658812" lon="9.4450392"><ele>1015.0</ele><time>2026-05-03T13:17:51.665Z</time></trkpt><trkpt lat="44.6589835" lon="9.4450776"><ele>1015.0</ele><time>2026-05-03T13:17:52.685Z</time></trkpt><trkpt lat="44.6591278" lon="9.4450507"><ele>1015.0</ele><time>2026-05-03T13:17:53.647Z</time></trkpt><trkpt lat="44.6592664" lon="9.4449251"><ele>1015.0</ele><time>2026-05-03T13:17:54.646Z</time></trkpt><trkpt lat="44.6594092" lon="9.4448342"><ele>1014.6666666666666</ele><time>2026-05-03T13:17:55.647Z</time></trkpt><trkpt lat="44.6595465" lon="9.4447453"><ele>1014.3333333333333</ele><time>2026-05-03T13:17:56.642Z</time></trkpt><trkpt lat="44.6596947" lon="9.4446106"><ele>1014.0</ele><time>2026-05-03T13:17:57.645Z</time></trkpt><trkpt lat="44.6598409" lon="9.4444172"><ele>1014.0</ele><time>2026-05-03T13:17:58.646Z</time></trkpt><trkpt lat="44.6599755" lon="9.4442066"><ele>1014.0</ele><time>2026-05-03T13:17:59.651Z</time></trkpt><trkpt lat="44.6601141" lon="9.4440053"><ele>1014.0</ele><time>2026-05-03T13:18:00.648Z</time></trkpt><trkpt lat="44.6602584" lon="9.4438227"><ele>1008.3333333333333</ele><time>2026-05-03T13:18:01.643Z</time></trkpt><trkpt lat="44.6604085" lon="9.4436719"><ele>1002.6666666666666</ele><time>2026-05-03T13:18:02.645Z</time></trkpt><trkpt lat="44.6605933" lon="9.4436044"><ele>997.0</ele><time>2026-05-03T13:18:03.642Z</time></trkpt><trkpt lat="44.6607771" lon="9.4436141"><ele>997.0</ele><time>2026-05-03T13:18:04.669Z</time></trkpt><trkpt lat="44.6609563" lon="9.4436507"><ele>997.0</ele><time>2026-05-03T13:18:05.653Z</time></trkpt><trkpt lat="44.66112" lon="9.4436772"><ele>997.0</ele><time>2026-05-03T13:18:06.643Z</time></trkpt><trkpt lat="44.6612735" lon="9.443648"><ele>997.5</ele><time>2026-05-03T13:18:07.647Z</time></trkpt><trkpt lat="44.6614163" lon="9.4436053"><ele>998.0</ele><time>2026-05-03T13:18:08.649Z</time></trkpt><trkpt lat="44.6615217" lon="9.4436626"><ele>998.5</ele><time>2026-05-03T13:18:09.646Z</time></trkpt><trkpt lat="44.6615962" lon="9.4437433"><ele>999.0</ele><time>2026-05-03T13:18:10.649Z</time></trkpt><trkpt lat="44.6616691" lon="9.4439767"><ele>1002.0</ele><time>2026-05-03T13:18:11.647Z</time></trkpt><trkpt lat="44.6617617" lon="9.4441748"><ele>1005.0</ele><time>2026-05-03T13:18:12.639Z</time></trkpt><trkpt lat="44.6618014" lon="9.4443363"><ele>1008.0</ele><time>2026-05-03T13:18:13.644Z</time></trkpt><trkpt lat="44.661891" lon="9.444358"><ele>1011.0</ele><time>2026-05-03T13:18:14.644Z</time></trkpt><trkpt lat="44.6620153" lon="9.4443563"><ele>1012.75</ele><time>2026-05-03T13:18:15.646Z</time></trkpt><trkpt lat="44.6621297" lon="9.4443058"><ele>1014.5</ele><time>2026-05-03T13:18:16.646Z</time></trkpt><trkpt lat="44.662247" lon="9.4442391"><ele>1016.25</ele><time>2026-05-03T13:18:17.64Z</time></trkpt><trkpt lat="44.6622752" lon="9.4441131"><ele>1018.0</ele><time>2026-05-03T13:18:18.644Z</time></trkpt><trkpt lat="44.6622411" lon="9.4438833"><ele>1017.3333333333333</ele><time>2026-05-03T13:18:19.645Z</time></trkpt><trkpt lat="44.6621906" lon="9.443623"><ele>1016.6666666666667</ele><time>2026-05-03T13:18:20.642Z</time></trkpt><trkpt lat="44.6621529" lon="9.4433392"><ele>1016.0</ele><time>2026-05-03T13:18:21.649Z</time></trkpt><trkpt lat="44.6621654" lon="9.443057"><ele>1014.6666666666667</ele><time>2026-05-03T13:18:22.68Z</time></trkpt><trkpt lat="44.6621858" lon="9.4427276"><ele>1013.3333333333333</ele><time>2026-05-03T13:18:23.705Z</time></trkpt><trkpt lat="44.6622259" lon="9.442453"><ele>1012.0</ele><time>2026-05-03T13:18:24.652Z</time></trkpt><trkpt lat="44.6622637" lon="9.4422191"><ele>1008.0</ele><time>2026-05-03T13:18:25.654Z</time></trkpt><trkpt lat="44.6622921" lon="9.4419786"><ele>1004.0</ele><time>2026-05-03T13:18:26.651Z</time></trkpt><trkpt lat="44.662339" lon="9.4417442"><ele>1000.0</ele><time>2026-05-03T13:18:27.646Z</time></trkpt><trkpt lat="44.6623728" lon="9.4415133"><ele>1000.0</ele><time>2026-05-03T13:18:28.648Z</time></trkpt><trkpt lat="44.6624258" lon="9.4413081"><ele>1000.0</ele><time>2026-05-03T13:18:29.65Z</time></trkpt><trkpt lat="44.6624722" lon="9.4411238"><ele>1000.0</ele><time>2026-05-03T13:18:30.655Z</time></trkpt><trkpt lat="44.6625404" lon="9.4409727"><ele>1000.0</ele><time>2026-05-03T13:18:31.647Z</time></trkpt><trkpt lat="44.6626431" lon="9.4409509"><ele>1000.4</ele><time>2026-05-03T13:18:32.672Z</time></trkpt><trkpt lat="44.6627468" lon="9.4409921"><ele>1000.8</ele><time>2026-05-03T13:18:33.648Z</time></trkpt><trkpt lat="44.6628453" lon="9.4410605"><ele>1001.2</ele><time>2026-05-03T13:18:34.644Z</time></trkpt><trkpt lat="44.662955" lon="9.441121"><ele>1001.6</ele><time>2026-05-03T13:18:35.645Z</time></trkpt><trkpt lat="44.6630577" lon="9.4411696"><ele>1002.0</ele><time>2026-05-03T13:18:36.65Z</time></trkpt><trkpt lat="44.6631617" lon="9.4412083"><ele>1002.0</ele><time>2026-05-03T13:18:37.649Z</time></trkpt><trkpt lat="44.6633358" lon="9.4412419"><ele>1002.0</ele><time>2026-05-03T13:18:38.67Z</time></trkpt><trkpt lat="44.6634638" lon="9.4411919"><ele>1002.0</ele><time>2026-05-03T13:18:39.641Z</time></trkpt><trkpt lat="44.6635281" lon="9.4410738"><ele>1002.0</ele><time>2026-05-03T13:18:40.638Z</time></trkpt><trkpt lat="44.6636016" lon="9.4409998"><ele>1005.25</ele><time>2026-05-03T13:18:41.622Z</time></trkpt><trkpt lat="44.6636171" lon="9.4408102"><ele>1008.5</ele><time>2026-05-03T13:18:42.636Z</time></trkpt><trkpt lat="44.6636238" lon="9.4406273"><ele>1011.75</ele><time>2026-05-03T13:18:43.673Z</time></trkpt><trkpt lat="44.6636435" lon="9.4403742"><ele>1015.0</ele><time>2026-05-03T13:18:44.676Z</time></trkpt><trkpt lat="44.6636791" lon="9.4401026"><ele>1015.0</ele><time>2026-05-03T13:18:45.673Z</time></trkpt><trkpt lat="44.66369" lon="9.4397943"><ele>1015.0</ele><time>2026-05-03T13:18:46.647Z</time></trkpt><trkpt lat="44.6637584" lon="9.4395843"><ele>1015.0</ele><time>2026-05-03T13:18:47.648Z</time></trkpt><trkpt lat="44.6638675" lon="9.4394062"><ele>1012.0</ele><time>2026-05-03T13:18:48.64Z</time></trkpt><trkpt lat="44.6639357" lon="9.4392575"><ele>1009.0</ele><time>2026-05-03T13:18:49.648Z</time></trkpt><trkpt lat="44.6639816" lon="9.4390931"><ele>1006.0</ele><time>2026-05-03T13:18:50.672Z</time></trkpt><trkpt lat="44.664019" lon="9.4389633"><ele>1003.0</ele><time>2026-05-03T13:18:51.663Z</time></trkpt><trkpt lat="44.6639881" lon="9.43883"><ele>1004.5</ele><time>2026-05-03T13:18:52.644Z</time></trkpt><trkpt lat="44.6639219" lon="9.4387498"><ele>1006.0</ele><time>2026-05-03T13:18:53.67Z</time></trkpt><trkpt lat="44.6638306" lon="9.4386683"><ele>1007.5</ele><time>2026-05-03T13:18:54.664Z</time></trkpt><trkpt lat="44.6636973" lon="9.4386046"><ele>1009.0</ele><time>2026-05-03T13:18:55.647Z</time></trkpt><trkpt lat="44.6635462" lon="9.4385516"><ele>1001.3333333333333</ele><time>2026-05-03T13:18:56.645Z</time></trkpt><trkpt lat="44.6633835" lon="9.4384919"><ele>993.6666666666667</ele><time>2026-05-03T13:18:57.639Z</time></trkpt><trkpt lat="44.6632369" lon="9.4384003"><ele>986.0</ele><time>2026-05-03T13:18:58.649Z</time></trkpt><trkpt lat="44.6630945" lon="9.4382894"><ele>986.0</ele><time>2026-05-03T13:18:59.649Z</time></trkpt><trkpt lat="44.6630556" lon="9.4381219"><ele>986.0</ele><time>2026-05-03T13:19:00.65Z</time></trkpt><trkpt lat="44.6630318" lon="9.4378687"><ele>986.0</ele><time>2026-05-03T13:19:01.652Z</time></trkpt><trkpt lat="44.6630489" lon="9.4376275"><ele>985.75</ele><time>2026-05-03T13:19:02.675Z</time></trkpt><trkpt lat="44.6630635" lon="9.4374415"><ele>985.5</ele><time>2026-05-03T13:19:03.677Z</time></trkpt><trkpt lat="44.66306" lon="9.4372276"><ele>985.25</ele><time>2026-05-03T13:19:04.674Z</time></trkpt><trkpt lat="44.6630685" lon="9.4370209"><ele>985.0</ele><time>2026-05-03T13:19:05.677Z</time></trkpt><trkpt lat="44.6631113" lon="9.4368133"><ele>984.3333333333333</ele><time>2026-05-03T13:19:06.672Z</time></trkpt><trkpt lat="44.6631966" lon="9.4365858"><ele>983.6666666666667</ele><time>2026-05-03T13:19:07.681Z</time></trkpt><trkpt lat="44.663288" lon="9.4363387"><ele>983.0</ele><time>2026-05-03T13:19:08.647Z</time></trkpt><trkpt lat="44.6633721" lon="9.4361152"><ele>979.6666666666667</ele><time>2026-05-03T13:19:09.646Z</time></trkpt><trkpt lat="44.6634494" lon="9.435832"><ele>976.3333333333333</ele><time>2026-05-03T13:19:10.641Z</time></trkpt><trkpt lat="44.6635071" lon="9.4355598"><ele>973.0</ele><time>2026-05-03T13:19:11.641Z</time></trkpt><trkpt lat="44.6635817" lon="9.4352855"><ele>972.0</ele><time>2026-05-03T13:19:12.638Z</time></trkpt><trkpt lat="44.6636588" lon="9.4350375"><ele>971.0</ele><time>2026-05-03T13:19:13.641Z</time></trkpt><trkpt lat="44.6637405" lon="9.434774"><ele>970.0</ele><time>2026-05-03T13:19:14.642Z</time></trkpt><trkpt lat="44.663831" lon="9.4345163"><ele>970.0</ele><time>2026-05-03T13:19:15.642Z</time></trkpt><trkpt lat="44.6638832" lon="9.4342373"><ele>970.0</ele><time>2026-05-03T13:19:16.642Z</time></trkpt><trkpt lat="44.6638852" lon="9.4339415"><ele>970.0</ele><time>2026-05-03T13:19:17.643Z</time></trkpt><trkpt lat="44.6639024" lon="9.4336629"><ele>966.6666666666666</ele><time>2026-05-03T13:19:18.646Z</time></trkpt><trkpt lat="44.6639484" lon="9.4334556"><ele>963.3333333333333</ele><time>2026-05-03T13:19:19.64Z</time></trkpt><trkpt lat="44.6640107" lon="9.4332491"><ele>960.0</ele><time>2026-05-03T13:19:20.646Z</time></trkpt><trkpt lat="44.6641705" lon="9.4331943"><ele>960.0</ele><time>2026-05-03T13:19:21.641Z</time></trkpt><trkpt lat="44.664304" lon="9.4331286"><ele>960.0</ele><time>2026-05-03T13:19:22.651Z</time></trkpt><trkpt lat="44.6644057" lon="9.4330105"><ele>960.0</ele><time>2026-05-03T13:19:23.65Z</time></trkpt><trkpt lat="44.6644266" lon="9.4327893"><ele>960.0</ele><time>2026-05-03T13:19:24.644Z</time></trkpt><trkpt lat="44.6644667" lon="9.4325699"><ele>961.75</ele><time>2026-05-03T13:19:25.644Z</time></trkpt><trkpt lat="44.6645047" lon="9.4323741"><ele>963.5</ele><time>2026-05-03T13:19:26.67Z</time></trkpt><trkpt lat="44.6645678" lon="9.4321791"><ele>965.25</ele><time>2026-05-03T13:19:27.648Z</time></trkpt><trkpt lat="44.6646757" lon="9.4320516"><ele>967.0</ele><time>2026-05-03T13:19:28.644Z</time></trkpt><trkpt lat="44.6648353" lon="9.4319469"><ele>960.3333333333333</ele><time>2026-05-03T13:19:29.643Z</time></trkpt><trkpt lat="44.6650098" lon="9.4318578"><ele>953.6666666666667</ele><time>2026-05-03T13:19:30.645Z</time></trkpt><trkpt lat="44.6651802" lon="9.4318091"><ele>947.0</ele><time>2026-05-03T13:19:31.639Z</time></trkpt><trkpt lat="44.6653312" lon="9.431712"><ele>947.0</ele><time>2026-05-03T13:19:32.647Z</time></trkpt><trkpt lat="44.6655044" lon="9.4316397"><ele>947.0</ele><time>2026-05-03T13:19:33.644Z</time></trkpt><trkpt lat="44.6656982" lon="9.43157"><ele>947.0</ele><time>2026-05-03T13:19:34.634Z</time></trkpt><trkpt lat="44.6658766" lon="9.4315055"><ele>947.0</ele><time>2026-05-03T13:19:35.615Z</time></trkpt><trkpt lat="44.6660543" lon="9.4314076"><ele>947.0</ele><time>2026-05-03T13:19:36.631Z</time></trkpt><trkpt lat="44.666205" lon="9.4313125"><ele>947.0</ele><time>2026-05-03T13:19:37.642Z</time></trkpt><trkpt lat="44.6663541" lon="9.4312299"><ele>944.4000000000001</ele><time>2026-05-03T13:19:38.642Z</time></trkpt><trkpt lat="44.6664959" lon="9.4312065"><ele>941.8000000000001</ele><time>2026-05-03T13:19:39.639Z</time></trkpt><trkpt lat="44.6666113" lon="9.4311981"><ele>939.2</ele><time>2026-05-03T13:19:40.638Z</time></trkpt><trkpt lat="44.6666792" lon="9.4310854"><ele>936.6</ele><time>2026-05-03T13:19:41.627Z</time></trkpt><trkpt lat="44.6667388" lon="9.4310309"><ele>934.0</ele><time>2026-05-03T13:19:43.619Z</time></trkpt><trkpt lat="44.6665584" lon="9.4310863"><ele>934.0</ele><time>2026-05-03T13:19:45.632Z</time></trkpt><trkpt lat="44.6664216" lon="9.4311248"><ele>934.0</ele><time>2026-05-03T13:19:46.634Z</time></trkpt><trkpt lat="44.666269" lon="9.4311699"><ele>934.0</ele><time>2026-05-03T13:19:47.64Z</time></trkpt><trkpt lat="44.6661518" lon="9.4311465"><ele>934.0</ele><time>2026-05-03T13:19:48.642Z</time></trkpt><trkpt lat="44.666053" lon="9.4311217"><ele>932.2</ele><time>2026-05-03T13:19:49.642Z</time></trkpt><trkpt lat="44.6659545" lon="9.4310196"><ele>930.4000000000001</ele><time>2026-05-03T13:19:50.642Z</time></trkpt><trkpt lat="44.6659037" lon="9.4309468"><ele>928.6</ele><time>2026-05-03T13:19:51.628Z</time></trkpt><trkpt lat="44.6659189" lon="9.4308607"><ele>926.8</ele><time>2026-05-03T13:19:52.63Z</time></trkpt><trkpt lat="44.6659073" lon="9.4307189"><ele>925.0</ele><time>2026-05-03T13:19:53.64Z</time></trkpt><trkpt lat="44.6659934" lon="9.4305979"><ele>923.0</ele><time>2026-05-03T13:19:54.638Z</time></trkpt><trkpt lat="44.6661274" lon="9.4304575"><ele>921.0</ele><time>2026-05-03T13:19:55.638Z</time></trkpt><trkpt lat="44.6662603" lon="9.4303263"><ele>919.0</ele><time>2026-05-03T13:19:56.634Z</time></trkpt><trkpt lat="44.6664465" lon="9.4301399"><ele>919.0</ele><time>2026-05-03T13:19:57.638Z</time></trkpt><trkpt lat="44.666614" lon="9.4298576"><ele>919.0</ele><time>2026-05-03T13:19:58.642Z</time></trkpt><trkpt lat="44.6667766" lon="9.4296213"><ele>920.0</ele><time>2026-05-03T13:19:59.638Z</time></trkpt><trkpt lat="44.6669594" lon="9.4294076"><ele>921.0</ele><time>2026-05-03T13:20:00.644Z</time></trkpt><trkpt lat="44.6671628" lon="9.4291974"><ele>921.0</ele><time>2026-05-03T13:20:01.642Z</time></trkpt><trkpt lat="44.6673407" lon="9.429055"><ele>921.0</ele><time>2026-05-03T13:20:02.638Z</time></trkpt><trkpt lat="44.6674703" lon="9.4289923"><ele>921.0</ele><time>2026-05-03T13:20:03.637Z</time></trkpt><trkpt lat="44.6675558" lon="9.4288944"><ele>918.75</ele><time>2026-05-03T13:20:04.64Z</time></trkpt><trkpt lat="44.6676343" lon="9.4287546"><ele>916.5</ele><time>2026-05-03T13:20:05.622Z</time></trkpt><trkpt lat="44.6676466" lon="9.4286103"><ele>914.25</ele><time>2026-05-03T13:20:06.627Z</time></trkpt><trkpt lat="44.6675776" lon="9.4284416"><ele>912.0</ele><time>2026-05-03T13:20:07.644Z</time></trkpt><trkpt lat="44.6675093" lon="9.4282384"><ele>912.0</ele><time>2026-05-03T13:20:08.636Z</time></trkpt><trkpt lat="44.667457" lon="9.4280693"><ele>912.0</ele><time>2026-05-03T13:20:09.636Z</time></trkpt><trkpt lat="44.6674029" lon="9.4278809"><ele>912.0</ele><time>2026-05-03T13:20:10.64Z</time></trkpt><trkpt lat="44.6673709" lon="9.4276862"><ele>912.0</ele><time>2026-05-03T13:20:11.637Z</time></trkpt><trkpt lat="44.667353" lon="9.4274963"><ele>910.75</ele><time>2026-05-03T13:20:12.647Z</time></trkpt><trkpt lat="44.6673169" lon="9.4273528"><ele>909.5</ele><time>2026-05-03T13:20:13.642Z</time></trkpt><trkpt lat="44.6672845" lon="9.4271976"><ele>908.25</ele><time>2026-05-03T13:20:14.647Z</time></trkpt><trkpt lat="44.6672776" lon="9.4270359"><ele>907.0</ele><time>2026-05-03T13:20:15.642Z</time></trkpt><trkpt lat="44.6673317" lon="9.426894"><ele>906.25</ele><time>2026-05-03T13:20:16.642Z</time></trkpt><trkpt lat="44.6674233" lon="9.4267664"><ele>905.5</ele><time>2026-05-03T13:20:17.646Z</time></trkpt><trkpt lat="44.6675299" lon="9.4266557"><ele>904.75</ele><time>2026-05-03T13:20:18.636Z</time></trkpt><trkpt lat="44.6676608" lon="9.4265535"><ele>904.0</ele><time>2026-05-03T13:20:19.638Z</time></trkpt><trkpt lat="44.6677996" lon="9.4264954"><ele>902.0</ele><time>2026-05-03T13:20:20.634Z</time></trkpt><trkpt lat="44.6679693" lon="9.426468"><ele>900.0</ele><time>2026-05-03T13:20:21.637Z</time></trkpt><trkpt lat="44.6681158" lon="9.4264955"><ele>898.0</ele><time>2026-05-03T13:20:22.638Z</time></trkpt><trkpt lat="44.6682687" lon="9.426574"><ele>898.0</ele><time>2026-05-03T13:20:23.639Z</time></trkpt><trkpt lat="44.6683781" lon="9.4267067"><ele>898.0</ele><time>2026-05-03T13:20:24.641Z</time></trkpt><trkpt lat="44.6684499" lon="9.4268965"><ele>898.0</ele><time>2026-05-03T13:20:25.642Z</time></trkpt><trkpt lat="44.6685839" lon="9.4271213"><ele>899.5</ele><time>2026-05-03T13:20:26.643Z</time></trkpt><trkpt lat="44.6686723" lon="9.4272619"><ele>901.0</ele><time>2026-05-03T13:20:27.641Z</time></trkpt><trkpt lat="44.6687417" lon="9.4274129"><ele>902.5</ele><time>2026-05-03T13:20:28.641Z</time></trkpt><trkpt lat="44.6688464" lon="9.4275205"><ele>904.0</ele><time>2026-05-03T13:20:29.643Z</time></trkpt><trkpt lat="44.6689575" lon="9.4276425"><ele>904.0</ele><time>2026-05-03T13:20:30.636Z</time></trkpt><trkpt lat="44.6691017" lon="9.4276528"><ele>904.0</ele><time>2026-05-03T13:20:31.619Z</time></trkpt><trkpt lat="44.6692592" lon="9.4276284"><ele>904.0</ele><time>2026-05-03T13:20:32.631Z</time></trkpt><trkpt lat="44.6694089" lon="9.4275975"><ele>907.6666666666666</ele><time>2026-05-03T13:20:33.647Z</time></trkpt><trkpt lat="44.6695183" lon="9.427464"><ele>911.3333333333333</ele><time>2026-05-03T13:20:34.608Z</time></trkpt><trkpt lat="44.6695694" lon="9.4272381"><ele>915.0</ele><time>2026-05-03T13:20:35.629Z</time></trkpt><trkpt lat="44.6696063" lon="9.4269507"><ele>915.0</ele><time>2026-05-03T13:20:36.638Z</time></trkpt><trkpt lat="44.6696499" lon="9.4266668"><ele>915.0</ele><time>2026-05-03T13:20:37.64Z</time></trkpt><trkpt lat="44.6697" lon="9.4263853"><ele>915.0</ele><time>2026-05-03T13:20:38.635Z</time></trkpt><trkpt lat="44.6697597" lon="9.4261213"><ele>912.6666666666667</ele><time>2026-05-03T13:20:39.637Z</time></trkpt><trkpt lat="44.6698193" lon="9.4258504"><ele>910.3333333333334</ele><time>2026-05-03T13:20:40.635Z</time></trkpt><trkpt lat="44.6698461" lon="9.4255484"><ele>908.0</ele><time>2026-05-03T13:20:41.633Z</time></trkpt><trkpt lat="44.6698747" lon="9.4252547"><ele>904.3333333333334</ele><time>2026-05-03T13:20:42.639Z</time></trkpt><trkpt lat="44.6698955" lon="9.4249847"><ele>900.6666666666667</ele><time>2026-05-03T13:20:43.661Z</time></trkpt><trkpt lat="44.6699486" lon="9.4247253"><ele>897.0</ele><time>2026-05-03T13:20:44.661Z</time></trkpt><trkpt lat="44.6699999" lon="9.4244994"><ele>895.3333333333333</ele><time>2026-05-03T13:20:45.62Z</time></trkpt><trkpt lat="44.6700582" lon="9.4242213"><ele>893.6666666666666</ele><time>2026-05-03T13:20:46.627Z</time></trkpt><trkpt lat="44.6701234" lon="9.4239649"><ele>892.0</ele><time>2026-05-03T13:20:47.637Z</time></trkpt><trkpt lat="44.6702074" lon="9.4237373"><ele>891.2</ele><time>2026-05-03T13:20:48.635Z</time></trkpt><trkpt lat="44.6702781" lon="9.4235684"><ele>890.4000000000001</ele><time>2026-05-03T13:20:49.637Z</time></trkpt><trkpt lat="44.6703051" lon="9.4234176"><ele>889.5999999999999</ele><time>2026-05-03T13:20:50.627Z</time></trkpt><trkpt lat="44.6703212" lon="9.4233197"><ele>888.8</ele><time>2026-05-03T13:20:51.639Z</time></trkpt><trkpt lat="44.6702726" lon="9.4232067"><ele>888.0</ele><time>2026-05-03T13:20:52.66Z</time></trkpt><trkpt lat="44.6701749" lon="9.4230679"><ele>887.0</ele><time>2026-05-03T13:20:53.635Z</time></trkpt><trkpt lat="44.6700474" lon="9.4228522"><ele>886.0</ele><time>2026-05-03T13:20:54.636Z</time></trkpt><trkpt lat="44.6699927" lon="9.4226118"><ele>885.0</ele><time>2026-05-03T13:20:55.62Z</time></trkpt><trkpt lat="44.670015" lon="9.4224018"><ele>885.0</ele><time>2026-05-03T13:20:56.635Z</time></trkpt><trkpt lat="44.6700888" lon="9.4221666"><ele>885.0</ele><time>2026-05-03T13:20:57.655Z</time></trkpt><trkpt lat="44.6701293" lon="9.4219422"><ele>885.0</ele><time>2026-05-03T13:20:58.637Z</time></trkpt><trkpt lat="44.6701482" lon="9.421736"><ele>885.75</ele><time>2026-05-03T13:20:59.637Z</time></trkpt><trkpt lat="44.670134" lon="9.4215283"><ele>886.5</ele><time>2026-05-03T13:21:00.668Z</time></trkpt><trkpt lat="44.6701474" lon="9.421329"><ele>887.25</ele><time>2026-05-03T13:21:01.658Z</time></trkpt><trkpt lat="44.6701958" lon="9.4211599"><ele>888.0</ele><time>2026-05-03T13:21:02.639Z</time></trkpt><trkpt lat="44.670318" lon="9.4210501"><ele>888.0</ele><time>2026-05-03T13:21:03.634Z</time></trkpt><trkpt lat="44.6704861" lon="9.4209704"><ele>888.0</ele><time>2026-05-03T13:21:04.62Z</time></trkpt><trkpt lat="44.670662" lon="9.4209495"><ele>888.0</ele><time>2026-05-03T13:21:05.634Z</time></trkpt><trkpt lat="44.6708404" lon="9.4209072"><ele>888.0</ele><time>2026-05-03T13:21:06.638Z</time></trkpt><trkpt lat="44.6709865" lon="9.4208406"><ele>888.0</ele><time>2026-05-03T13:21:07.641Z</time></trkpt><trkpt lat="44.6711346" lon="9.4207859"><ele>888.0</ele><time>2026-05-03T13:21:08.626Z</time></trkpt><trkpt lat="44.6711959" lon="9.4206477"><ele>888.0</ele><time>2026-05-03T13:21:09.627Z</time></trkpt><trkpt lat="44.6712647" lon="9.4204738"><ele>885.25</ele><time>2026-05-03T13:21:10.636Z</time></trkpt><trkpt lat="44.6713541" lon="9.4203109"><ele>882.5</ele><time>2026-05-03T13:21:11.638Z</time></trkpt><trkpt lat="44.6714568" lon="9.4202238"><ele>879.75</ele><time>2026-05-03T13:21:12.634Z</time></trkpt><trkpt lat="44.6715709" lon="9.4201407"><ele>877.0</ele><time>2026-05-03T13:21:13.631Z</time></trkpt><trkpt lat="44.6716732" lon="9.420153"><ele>877.0</ele><time>2026-05-03T13:21:14.63Z</time></trkpt><trkpt lat="44.6717597" lon="9.42025"><ele>877.0</ele><time>2026-05-03T13:21:15.633Z</time></trkpt><trkpt lat="44.6718413" lon="9.4203666"><ele>877.0</ele><time>2026-05-03T13:21:16.631Z</time></trkpt><trkpt lat="44.6719223" lon="9.4205651"><ele>877.0</ele><time>2026-05-03T13:21:17.634Z</time></trkpt><trkpt lat="44.6720218" lon="9.4206895"><ele>880.0</ele><time>2026-05-03T13:21:18.641Z</time></trkpt><trkpt lat="44.6721946" lon="9.4207028"><ele>883.0</ele><time>2026-05-03T13:21:19.626Z</time></trkpt><trkpt lat="44.6723629" lon="9.420751"><ele>886.0</ele><time>2026-05-03T13:21:20.611Z</time></trkpt><trkpt lat="44.6725571" lon="9.4206991"><ele>886.0</ele><time>2026-05-03T13:21:21.612Z</time></trkpt><trkpt lat="44.6727367" lon="9.4206746"><ele>886.0</ele><time>2026-05-03T13:21:22.615Z</time></trkpt><trkpt lat="44.6729265" lon="9.4206579"><ele>886.0</ele><time>2026-05-03T13:21:23.616Z</time></trkpt><trkpt lat="44.6731106" lon="9.4205487"><ele>881.3333333333333</ele><time>2026-05-03T13:21:24.61Z</time></trkpt><trkpt lat="44.6732878" lon="9.4203982"><ele>876.6666666666667</ele><time>2026-05-03T13:21:25.61Z</time></trkpt><trkpt lat="44.6734809" lon="9.4202697"><ele>872.0</ele><time>2026-05-03T13:21:26.612Z</time></trkpt><trkpt lat="44.6736935" lon="9.4202418"><ele>872.0</ele><time>2026-05-03T13:21:27.618Z</time></trkpt><trkpt lat="44.6738816" lon="9.4202661"><ele>872.0</ele><time>2026-05-03T13:21:28.611Z</time></trkpt><trkpt lat="44.6740387" lon="9.4202712"><ele>872.0</ele><time>2026-05-03T13:21:29.614Z</time></trkpt><trkpt lat="44.67416" lon="9.4201692"><ele>872.0</ele><time>2026-05-03T13:21:30.617Z</time></trkpt><trkpt lat="44.6742588" lon="9.4199984"><ele>872.0</ele><time>2026-05-03T13:21:31.616Z</time></trkpt><trkpt lat="44.6743419" lon="9.4198703"><ele>872.0</ele><time>2026-05-03T13:21:32.614Z</time></trkpt><trkpt lat="44.6744225" lon="9.4197562"><ele>872.0</ele><time>2026-05-03T13:21:33.617Z</time></trkpt><trkpt lat="44.6744984" lon="9.4196317"><ele>860.25</ele><time>2026-05-03T13:21:34.609Z</time></trkpt><trkpt lat="44.6745755" lon="9.4195155"><ele>848.5</ele><time>2026-05-03T13:21:35.605Z</time></trkpt><trkpt lat="44.6746751" lon="9.4194277"><ele>836.75</ele><time>2026-05-03T13:21:36.609Z</time></trkpt><trkpt lat="44.6747812" lon="9.4193198"><ele>825.0</ele><time>2026-05-03T13:21:37.599Z</time></trkpt><trkpt lat="44.674889" lon="9.4192101"><ele>825.0</ele><time>2026-05-03T13:21:38.595Z</time></trkpt><trkpt lat="44.674997" lon="9.4190998"><ele>825.0</ele><time>2026-05-03T13:21:39.597Z</time></trkpt><trkpt lat="44.6751048" lon="9.4189888"><ele>825.0</ele><time>2026-05-03T13:21:40.6Z</time></trkpt><trkpt lat="44.675315" lon="9.4187596"><ele>819.5</ele><time>2026-05-03T13:21:42.597Z</time></trkpt><trkpt lat="44.6754143" lon="9.4186865"><ele>814.0</ele><time>2026-05-03T13:21:43.604Z</time></trkpt><trkpt lat="44.6755048" lon="9.4186268"><ele>808.5</ele><time>2026-05-03T13:21:44.609Z</time></trkpt><trkpt lat="44.6756142" lon="9.4185304"><ele>803.0</ele><time>2026-05-03T13:21:45.595Z</time></trkpt><trkpt lat="44.6757235" lon="9.4184307"><ele>803.0</ele><time>2026-05-03T13:21:46.597Z</time></trkpt><trkpt lat="44.6760578" lon="9.4181334"><ele>803.0</ele><time>2026-05-03T13:21:49.596Z</time></trkpt><trkpt lat="44.676171" lon="9.4180587"><ele>809.6666666666667</ele><time>2026-05-03T13:21:50.598Z</time></trkpt><trkpt lat="44.6762829" lon="9.4179777"><ele>816.3333333333333</ele><time>2026-05-03T13:21:51.599Z</time></trkpt><trkpt lat="44.6764335" lon="9.4179153"><ele>823.0</ele><time>2026-05-03T13:21:52.599Z</time></trkpt><trkpt lat="44.6778774" lon="9.4200423"><ele>839.0</ele><time>2026-05-03T13:22:05.616Z</time></trkpt><trkpt lat="44.6780475" lon="9.4200429"><ele>855.0</ele><time>2026-05-03T13:22:06.626Z</time></trkpt><trkpt lat="44.6784344" lon="9.4198198"><ele>855.0</ele><time>2026-05-03T13:22:08.617Z</time></trkpt><trkpt lat="44.6785483" lon="9.4200851"><ele>855.0</ele><time>2026-05-03T13:22:10.613Z</time></trkpt><trkpt lat="44.6786447" lon="9.4203283"><ele>855.0</ele><time>2026-05-03T13:22:11.623Z</time></trkpt><trkpt lat="44.6788863" lon="9.42023"><ele>857.75</ele><time>2026-05-03T13:22:12.624Z</time></trkpt><trkpt lat="44.6790246" lon="9.4201338"><ele>860.5</ele><time>2026-05-03T13:22:13.624Z</time></trkpt><trkpt lat="44.6790606" lon="9.4199403"><ele>863.25</ele><time>2026-05-03T13:22:14.645Z</time></trkpt><trkpt lat="44.6791184" lon="9.4198595"><ele>866.0</ele><time>2026-05-03T13:22:15.619Z</time></trkpt><trkpt lat="44.6790407" lon="9.4195949"><ele>868.6666666666667</ele><time>2026-05-03T13:22:16.618Z</time></trkpt><trkpt lat="44.678993" lon="9.4194257"><ele>871.3333333333333</ele><time>2026-05-03T13:22:17.622Z</time></trkpt><trkpt lat="44.6788972" lon="9.4192394"><ele>874.0</ele><time>2026-05-03T13:22:18.62Z</time></trkpt><trkpt lat="44.6785956" lon="9.4188134"><ele>864.3333333333333</ele><time>2026-05-03T13:22:20.62Z</time></trkpt><trkpt lat="44.6784959" lon="9.4186353"><ele>854.6666666666667</ele><time>2026-05-03T13:22:21.631Z</time></trkpt><trkpt lat="44.678431" lon="9.4184184"><ele>845.0</ele><time>2026-05-03T13:22:22.633Z</time></trkpt><trkpt lat="44.6783908" lon="9.4182568"><ele>845.0</ele><time>2026-05-03T13:22:23.638Z</time></trkpt><trkpt lat="44.6783527" lon="9.4179991"><ele>845.0</ele><time>2026-05-03T13:22:24.644Z</time></trkpt><trkpt lat="44.6783717" lon="9.4177359"><ele>845.0</ele><time>2026-05-03T13:22:25.64Z</time></trkpt><trkpt lat="44.678357" lon="9.4174391"><ele>846.5</ele><time>2026-05-03T13:22:26.64Z</time></trkpt><trkpt lat="44.678367" lon="9.4171748"><ele>848.0</ele><time>2026-05-03T13:22:27.638Z</time></trkpt><trkpt lat="44.6782619" lon="9.4167959"><ele>848.25</ele><time>2026-05-03T13:22:28.641Z</time></trkpt><trkpt lat="44.6781903" lon="9.4166914"><ele>848.5</ele><time>2026-05-03T13:22:29.651Z</time></trkpt><trkpt lat="44.6781146" lon="9.4165386"><ele>848.75</ele><time>2026-05-03T13:22:30.639Z</time></trkpt><trkpt lat="44.6780093" lon="9.416371"><ele>849.0</ele><time>2026-05-03T13:22:31.645Z</time></trkpt><trkpt lat="44.677894" lon="9.4162181"><ele>850.75</ele><time>2026-05-03T13:22:32.646Z</time></trkpt><trkpt lat="44.6777817" lon="9.4161106"><ele>852.5</ele><time>2026-05-03T13:22:33.645Z</time></trkpt><trkpt lat="44.6776921" lon="9.4160219"><ele>854.25</ele><time>2026-05-03T13:22:34.646Z</time></trkpt><trkpt lat="44.6776174" lon="9.4158608"><ele>856.0</ele><time>2026-05-03T13:22:35.65Z</time></trkpt><trkpt lat="44.6775745" lon="9.4156582"><ele>853.0</ele><time>2026-05-03T13:22:36.644Z</time></trkpt><trkpt lat="44.6775992" lon="9.4154698"><ele>850.0</ele><time>2026-05-03T13:22:37.642Z</time></trkpt><trkpt lat="44.6776227" lon="9.4152842"><ele>847.0</ele><time>2026-05-03T13:22:38.642Z</time></trkpt><trkpt lat="44.677595" lon="9.4151261"><ele>844.0</ele><time>2026-05-03T13:22:39.641Z</time></trkpt><trkpt lat="44.6775354" lon="9.4149881"><ele>844.0</ele><time>2026-05-03T13:22:40.642Z</time></trkpt><trkpt lat="44.6774509" lon="9.4148559"><ele>844.0</ele><time>2026-05-03T13:22:41.642Z</time></trkpt><trkpt lat="44.6773384" lon="9.414745"><ele>844.0</ele><time>2026-05-03T13:22:42.637Z</time></trkpt><trkpt lat="44.6772122" lon="9.4146239"><ele>844.0</ele><time>2026-05-03T13:22:43.639Z</time></trkpt><trkpt lat="44.6770824" lon="9.41449"><ele>841.3333333333333</ele><time>2026-05-03T13:22:44.64Z</time></trkpt><trkpt lat="44.6769668" lon="9.4143621"><ele>838.6666666666667</ele><time>2026-05-03T13:22:45.636Z</time></trkpt><trkpt lat="44.6768427" lon="9.4142337"><ele>836.0</ele><time>2026-05-03T13:22:46.646Z</time></trkpt><trkpt lat="44.6767019" lon="9.4141257"><ele>836.0</ele><time>2026-05-03T13:22:47.639Z</time></trkpt><trkpt lat="44.6765804" lon="9.4140246"><ele>836.0</ele><time>2026-05-03T13:22:48.64Z</time></trkpt><trkpt lat="44.6764746" lon="9.4139316"><ele>836.0</ele><time>2026-05-03T13:22:49.639Z</time></trkpt><trkpt lat="44.6764438" lon="9.4138294"><ele>836.0</ele><time>2026-05-03T13:22:50.636Z</time></trkpt><trkpt lat="44.6764659" lon="9.4136543"><ele>835.75</ele><time>2026-05-03T13:22:51.637Z</time></trkpt><trkpt lat="44.6765455" lon="9.4134726"><ele>835.5</ele><time>2026-05-03T13:22:52.646Z</time></trkpt><trkpt lat="44.6766178" lon="9.4132841"><ele>835.25</ele><time>2026-05-03T13:22:53.641Z</time></trkpt><trkpt lat="44.6766403" lon="9.4131185"><ele>835.0</ele><time>2026-05-03T13:22:54.646Z</time></trkpt><trkpt lat="44.6766917" lon="9.4129358"><ele>835.0</ele><time>2026-05-03T13:22:55.644Z</time></trkpt><trkpt lat="44.6767363" lon="9.4127183"><ele>835.0</ele><time>2026-05-03T13:22:56.639Z</time></trkpt><trkpt lat="44.6767231" lon="9.4125123"><ele>835.0</ele><time>2026-05-03T13:22:57.638Z</time></trkpt><trkpt lat="44.6766813" lon="9.4122891"><ele>837.0</ele><time>2026-05-03T13:22:58.642Z</time></trkpt><trkpt lat="44.6766777" lon="9.4120909"><ele>839.0</ele><time>2026-05-03T13:22:59.642Z</time></trkpt><trkpt lat="44.6765816" lon="9.4118905"><ele>841.0</ele><time>2026-05-03T13:23:00.643Z</time></trkpt><trkpt lat="44.676479" lon="9.4117137"><ele>841.0</ele><time>2026-05-03T13:23:01.641Z</time></trkpt><trkpt lat="44.6763785" lon="9.411569"><ele>841.0</ele><time>2026-05-03T13:23:02.638Z</time></trkpt><trkpt lat="44.6761931" lon="9.4114931"><ele>841.0</ele><time>2026-05-03T13:23:03.637Z</time></trkpt><trkpt lat="44.675975" lon="9.4114411"><ele>835.5</ele><time>2026-05-03T13:23:04.641Z</time></trkpt><trkpt lat="44.6757682" lon="9.4113679"><ele>830.0</ele><time>2026-05-03T13:23:05.64Z</time></trkpt><trkpt lat="44.6755259" lon="9.4113242"><ele>834.0</ele><time>2026-05-03T13:23:06.637Z</time></trkpt><trkpt lat="44.6753264" lon="9.4113135"><ele>838.0</ele><time>2026-05-03T13:23:07.637Z</time></trkpt><trkpt lat="44.6751629" lon="9.4113061"><ele>842.0</ele><time>2026-05-03T13:23:08.639Z</time></trkpt><trkpt lat="44.6750076" lon="9.4112391"><ele>842.0</ele><time>2026-05-03T13:23:09.638Z</time></trkpt><trkpt lat="44.674835" lon="9.4111721"><ele>842.0</ele><time>2026-05-03T13:23:10.643Z</time></trkpt><trkpt lat="44.6747461" lon="9.4110732"><ele>842.0</ele><time>2026-05-03T13:23:11.644Z</time></trkpt><trkpt lat="44.6746519" lon="9.4109736"><ele>842.0</ele><time>2026-05-03T13:23:12.641Z</time></trkpt><trkpt lat="44.6745404" lon="9.4107479"><ele>852.0</ele><time>2026-05-03T13:23:13.638Z</time></trkpt><trkpt lat="44.6744708" lon="9.4104024"><ele>862.0</ele><time>2026-05-03T13:23:14.643Z</time></trkpt><trkpt lat="44.6744319" lon="9.4100424"><ele>850.6666666666666</ele><time>2026-05-03T13:23:15.637Z</time></trkpt><trkpt lat="44.6743715" lon="9.4097565"><ele>839.3333333333333</ele><time>2026-05-03T13:23:16.632Z</time></trkpt><trkpt lat="44.6742628" lon="9.4095373"><ele>828.0</ele><time>2026-05-03T13:23:17.642Z</time></trkpt><trkpt lat="44.6741839" lon="9.4092628"><ele>828.0</ele><time>2026-05-03T13:23:18.639Z</time></trkpt><trkpt lat="44.6741241" lon="9.4089991"><ele>828.0</ele><time>2026-05-03T13:23:19.638Z</time></trkpt><trkpt lat="44.6740568" lon="9.4087744"><ele>828.0</ele><time>2026-05-03T13:23:20.639Z</time></trkpt><trkpt lat="44.6739825" lon="9.4085347"><ele>825.5</ele><time>2026-05-03T13:23:21.642Z</time></trkpt><trkpt lat="44.6738401" lon="9.4084803"><ele>823.0</ele><time>2026-05-03T13:23:22.643Z</time></trkpt><trkpt lat="44.6736864" lon="9.4084298"><ele>820.5</ele><time>2026-05-03T13:23:23.643Z</time></trkpt><trkpt lat="44.6735672" lon="9.4083273"><ele>818.0</ele><time>2026-05-03T13:23:24.655Z</time></trkpt><trkpt lat="44.6735024" lon="9.4081858"><ele>818.0</ele><time>2026-05-03T13:23:25.639Z</time></trkpt><trkpt lat="44.673474" lon="9.4080006"><ele>818.0</ele><time>2026-05-03T13:23:26.647Z</time></trkpt><trkpt lat="44.6734186" lon="9.4077806"><ele>818.0</ele><time>2026-05-03T13:23:27.645Z</time></trkpt><trkpt lat="44.673314" lon="9.4075334"><ele>820.3333333333334</ele><time>2026-05-03T13:23:28.643Z</time></trkpt><trkpt lat="44.67322" lon="9.4073126"><ele>822.6666666666667</ele><time>2026-05-03T13:23:29.647Z</time></trkpt><trkpt lat="44.673103" lon="9.4070906"><ele>825.0</ele><time>2026-05-03T13:23:30.659Z</time></trkpt><trkpt lat="44.672985" lon="9.4068585"><ele>822.3333333333333</ele><time>2026-05-03T13:23:31.646Z</time></trkpt><trkpt lat="44.6729149" lon="9.4065961"><ele>819.6666666666666</ele><time>2026-05-03T13:23:32.653Z</time></trkpt><trkpt lat="44.6728033" lon="9.4063505"><ele>817.0</ele><time>2026-05-03T13:23:33.65Z</time></trkpt><trkpt lat="44.6726427" lon="9.4061013"><ele>817.0</ele><time>2026-05-03T13:23:34.639Z</time></trkpt><trkpt lat="44.672497" lon="9.4059281"><ele>817.0</ele><time>2026-05-03T13:23:35.657Z</time></trkpt><trkpt lat="44.6723789" lon="9.405773"><ele>817.0</ele><time>2026-05-03T13:23:36.643Z</time></trkpt><trkpt lat="44.6722624" lon="9.4055751"><ele>817.3333333333333</ele><time>2026-05-03T13:23:37.648Z</time></trkpt><trkpt lat="44.6721761" lon="9.4053465"><ele>817.6666666666667</ele><time>2026-05-03T13:23:38.646Z</time></trkpt><trkpt lat="44.6721439" lon="9.4051462"><ele>818.0</ele><time>2026-05-03T13:23:39.647Z</time></trkpt><trkpt lat="44.6722006" lon="9.4049817"><ele>818.0</ele><time>2026-05-03T13:23:40.651Z</time></trkpt><trkpt lat="44.6722821" lon="9.4048478"><ele>818.0</ele><time>2026-05-03T13:23:41.635Z</time></trkpt><trkpt lat="44.6725356" lon="9.4047126"><ele>818.0</ele><time>2026-05-03T13:23:42.62Z</time></trkpt><trkpt lat="44.6727833" lon="9.4046522"><ele>814.0</ele><time>2026-05-03T13:23:43.624Z</time></trkpt><trkpt lat="44.672993" lon="9.4045858"><ele>810.0</ele><time>2026-05-03T13:23:44.637Z</time></trkpt><trkpt lat="44.6731903" lon="9.404488"><ele>806.0</ele><time>2026-05-03T13:23:45.649Z</time></trkpt><trkpt lat="44.6734252" lon="9.4044041"><ele>808.0</ele><time>2026-05-03T13:23:46.638Z</time></trkpt><trkpt lat="44.6736388" lon="9.4043282"><ele>810.0</ele><time>2026-05-03T13:23:47.641Z</time></trkpt><trkpt lat="44.6738352" lon="9.4042728"><ele>812.0</ele><time>2026-05-03T13:23:48.639Z</time></trkpt><trkpt lat="44.6740341" lon="9.4042893"><ele>812.0</ele><time>2026-05-03T13:23:49.641Z</time></trkpt><trkpt lat="44.674229" lon="9.4042814"><ele>812.0</ele><time>2026-05-03T13:23:50.655Z</time></trkpt><trkpt lat="44.6744063" lon="9.4042384"><ele>812.0</ele><time>2026-05-03T13:23:51.642Z</time></trkpt><trkpt lat="44.6745463" lon="9.4040876"><ele>810.3333333333334</ele><time>2026-05-03T13:23:52.64Z</time></trkpt><trkpt lat="44.6746729" lon="9.4039133"><ele>808.6666666666667</ele><time>2026-05-03T13:23:53.618Z</time></trkpt><trkpt lat="44.6748254" lon="9.4037114"><ele>807.0</ele><time>2026-05-03T13:23:54.627Z</time></trkpt><trkpt lat="44.6750077" lon="9.4035832"><ele>807.0</ele><time>2026-05-03T13:23:55.658Z</time></trkpt><trkpt lat="44.6751702" lon="9.4034622"><ele>807.0</ele><time>2026-05-03T13:23:56.633Z</time></trkpt><trkpt lat="44.6753131" lon="9.4034068"><ele>807.0</ele><time>2026-05-03T13:23:57.627Z</time></trkpt><trkpt lat="44.6754602" lon="9.4033394"><ele>812.6666666666667</ele><time>2026-05-03T13:23:58.632Z</time></trkpt><trkpt lat="44.675596" lon="9.4032603"><ele>818.3333333333334</ele><time>2026-05-03T13:23:59.623Z</time></trkpt><trkpt lat="44.6756698" lon="9.4031119"><ele>824.0</ele><time>2026-05-03T13:24:00.634Z</time></trkpt><trkpt lat="44.6756207" lon="9.4028717"><ele>824.0</ele><time>2026-05-03T13:24:01.652Z</time></trkpt><trkpt lat="44.6755222" lon="9.4026972"><ele>824.0</ele><time>2026-05-03T13:24:02.642Z</time></trkpt><trkpt lat="44.6754556" lon="9.4025661"><ele>824.0</ele><time>2026-05-03T13:24:03.646Z</time></trkpt><trkpt lat="44.6753846" lon="9.4023891"><ele>824.0</ele><time>2026-05-03T13:24:04.645Z</time></trkpt><trkpt lat="44.6753375" lon="9.4021924"><ele>818.6666666666667</ele><time>2026-05-03T13:24:05.639Z</time></trkpt><trkpt lat="44.6753256" lon="9.4019871"><ele>813.3333333333333</ele><time>2026-05-03T13:24:06.652Z</time></trkpt><trkpt lat="44.6753868" lon="9.4017851"><ele>808.0</ele><time>2026-05-03T13:24:07.647Z</time></trkpt><trkpt lat="44.6755166" lon="9.4016391"><ele>808.0</ele><time>2026-05-03T13:24:08.636Z</time></trkpt><trkpt lat="44.675691" lon="9.4015673"><ele>808.0</ele><time>2026-05-03T13:24:09.636Z</time></trkpt><trkpt lat="44.675898" lon="9.4015171"><ele>808.0</ele><time>2026-05-03T13:24:10.663Z</time></trkpt><trkpt lat="44.6760897" lon="9.4014533"><ele>805.3333333333333</ele><time>2026-05-03T13:24:11.67Z</time></trkpt><trkpt lat="44.6762907" lon="9.4013519"><ele>802.6666666666667</ele><time>2026-05-03T13:24:12.662Z</time></trkpt><trkpt lat="44.6764886" lon="9.4012271"><ele>800.0</ele><time>2026-05-03T13:24:13.647Z</time></trkpt><trkpt lat="44.6766709" lon="9.4011602"><ele>800.0</ele><time>2026-05-03T13:24:14.624Z</time></trkpt><trkpt lat="44.6768593" lon="9.4010888"><ele>800.0</ele><time>2026-05-03T13:24:15.633Z</time></trkpt><trkpt lat="44.6770281" lon="9.4009888"><ele>800.0</ele><time>2026-05-03T13:24:16.668Z</time></trkpt><trkpt lat="44.6771479" lon="9.4007885"><ele>804.3333333333334</ele><time>2026-05-03T13:24:17.634Z</time></trkpt><trkpt lat="44.6772233" lon="9.4005764"><ele>808.6666666666667</ele><time>2026-05-03T13:24:18.627Z</time></trkpt><trkpt lat="44.6773026" lon="9.4002807"><ele>813.0</ele><time>2026-05-03T13:24:19.628Z</time></trkpt><trkpt lat="44.6773928" lon="9.399978"><ele>813.0</ele><time>2026-05-03T13:24:20.639Z</time></trkpt><trkpt lat="44.6774623" lon="9.3996937"><ele>813.0</ele><time>2026-05-03T13:24:21.654Z</time></trkpt><trkpt lat="44.6775403" lon="9.3994583"><ele>813.0</ele><time>2026-05-03T13:24:22.644Z</time></trkpt><trkpt lat="44.6776203" lon="9.3992129"><ele>810.5</ele><time>2026-05-03T13:24:23.64Z</time></trkpt><trkpt lat="44.6777076" lon="9.3990405"><ele>808.0</ele><time>2026-05-03T13:24:24.643Z</time></trkpt><trkpt lat="44.6778034" lon="9.3989326"><ele>805.5</ele><time>2026-05-03T13:24:25.638Z</time></trkpt><trkpt lat="44.6778859" lon="9.3988355"><ele>803.0</ele><time>2026-05-03T13:24:26.639Z</time></trkpt><trkpt lat="44.6780093" lon="9.3988288"><ele>803.0</ele><time>2026-05-03T13:24:27.63Z</time></trkpt><trkpt lat="44.6781591" lon="9.3989293"><ele>803.0</ele><time>2026-05-03T13:24:28.627Z</time></trkpt><trkpt lat="44.6783246" lon="9.3990559"><ele>803.0</ele><time>2026-05-03T13:24:29.631Z</time></trkpt><trkpt lat="44.6785167" lon="9.3993173"><ele>802.0</ele><time>2026-05-03T13:24:30.633Z</time></trkpt><trkpt lat="44.6786898" lon="9.3994796"><ele>801.0</ele><time>2026-05-03T13:24:31.644Z</time></trkpt><trkpt lat="44.6788741" lon="9.3996222"><ele>800.0</ele><time>2026-05-03T13:24:32.634Z</time></trkpt><trkpt lat="44.6790162" lon="9.3997241"><ele>806.0</ele><time>2026-05-03T13:24:33.62Z</time></trkpt><trkpt lat="44.6791933" lon="9.3997959"><ele>812.0</ele><time>2026-05-03T13:24:34.602Z</time></trkpt><trkpt lat="44.6793527" lon="9.3998363"><ele>818.0</ele><time>2026-05-03T13:24:35.603Z</time></trkpt><trkpt lat="44.6795023" lon="9.3998814"><ele>818.0</ele><time>2026-05-03T13:24:36.606Z</time></trkpt><trkpt lat="44.6796495" lon="9.3999165"><ele>818.0</ele><time>2026-05-03T13:24:37.606Z</time></trkpt><trkpt lat="44.6797904" lon="9.3998786"><ele>818.0</ele><time>2026-05-03T13:24:38.602Z</time></trkpt><trkpt lat="44.6799279" lon="9.3997879"><ele>818.0</ele><time>2026-05-03T13:24:39.605Z</time></trkpt><trkpt lat="44.6800602" lon="9.3996514"><ele>818.0</ele><time>2026-05-03T13:24:40.606Z</time></trkpt><trkpt lat="44.6801947" lon="9.3995129"><ele>818.0</ele><time>2026-05-03T13:24:41.618Z</time></trkpt><trkpt lat="44.6803285" lon="9.3993758"><ele>818.0</ele><time>2026-05-03T13:24:42.605Z</time></trkpt><trkpt lat="44.6804625" lon="9.3992313"><ele>822.0</ele><time>2026-05-03T13:24:43.605Z</time></trkpt><trkpt lat="44.6805974" lon="9.3990595"><ele>826.0</ele><time>2026-05-03T13:24:44.62Z</time></trkpt><trkpt lat="44.6807327" lon="9.3988878"><ele>830.0</ele><time>2026-05-03T13:24:45.613Z</time></trkpt><trkpt lat="44.6807689" lon="9.3986396"><ele>830.0</ele><time>2026-05-03T13:24:46.614Z</time></trkpt><trkpt lat="44.6806941" lon="9.3980741"><ele>830.0</ele><time>2026-05-03T13:24:48.614Z</time></trkpt><trkpt lat="44.6806776" lon="9.3974276"><ele>828.0</ele><time>2026-05-03T13:24:50.618Z</time></trkpt><trkpt lat="44.6806803" lon="9.3970416"><ele>826.0</ele><time>2026-05-03T13:24:51.627Z</time></trkpt><trkpt lat="44.6807435" lon="9.3967384"><ele>820.0</ele><time>2026-05-03T13:24:52.619Z</time></trkpt><trkpt lat="44.6807635" lon="9.396163"><ele>814.0</ele><time>2026-05-03T13:24:54.619Z</time></trkpt><trkpt lat="44.6809214" lon="9.3958292"><ele>814.0</ele><time>2026-05-03T13:24:55.618Z</time></trkpt><trkpt lat="44.6810567" lon="9.3956002"><ele>814.0</ele><time>2026-05-03T13:24:56.627Z</time></trkpt><trkpt lat="44.6812128" lon="9.3951268"><ele>811.5</ele><time>2026-05-03T13:24:57.626Z</time></trkpt><trkpt lat="44.6812244" lon="9.3945937"><ele>809.0</ele><time>2026-05-03T13:24:58.631Z</time></trkpt><trkpt lat="44.6811534" lon="9.3940617"><ele>792.0</ele><time>2026-05-03T13:24:59.634Z</time></trkpt><trkpt lat="44.6811294" lon="9.3934242"><ele>792.0</ele><time>2026-05-03T13:25:00.641Z</time></trkpt><trkpt lat="44.6812025" lon="9.3931348"><ele>792.0</ele><time>2026-05-03T13:25:01.633Z</time></trkpt><trkpt lat="44.681348" lon="9.3929564"><ele>792.0</ele><time>2026-05-03T13:25:02.65Z</time></trkpt><trkpt lat="44.6815093" lon="9.3928183"><ele>790.6666666666667</ele><time>2026-05-03T13:25:03.639Z</time></trkpt><trkpt lat="44.6816805" lon="9.3927183"><ele>789.3333333333334</ele><time>2026-05-03T13:25:04.642Z</time></trkpt><trkpt lat="44.6818611" lon="9.3925962"><ele>788.0</ele><time>2026-05-03T13:25:05.635Z</time></trkpt><trkpt lat="44.682022" lon="9.3924062"><ele>788.0</ele><time>2026-05-03T13:25:06.637Z</time></trkpt><trkpt lat="44.6821872" lon="9.3922567"><ele>788.0</ele><time>2026-05-03T13:25:07.649Z</time></trkpt><trkpt lat="44.6823542" lon="9.3920514"><ele>788.0</ele><time>2026-05-03T13:25:08.63Z</time></trkpt><trkpt lat="44.6825354" lon="9.3918117"><ele>781.5</ele><time>2026-05-03T13:25:09.635Z</time></trkpt><trkpt lat="44.6826873" lon="9.3915927"><ele>775.0</ele><time>2026-05-03T13:25:10.636Z</time></trkpt><trkpt lat="44.6828419" lon="9.3913298"><ele>775.0</ele><time>2026-05-03T13:25:11.637Z</time></trkpt><trkpt lat="44.6829757" lon="9.3911055"><ele>775.0</ele><time>2026-05-03T13:25:12.648Z</time></trkpt><trkpt lat="44.6831127" lon="9.3909159"><ele>775.0</ele><time>2026-05-03T13:25:13.66Z</time></trkpt><trkpt lat="44.6832363" lon="9.3907066"><ele>772.3333333333333</ele><time>2026-05-03T13:25:14.659Z</time></trkpt><trkpt lat="44.6833147" lon="9.3904995"><ele>769.6666666666666</ele><time>2026-05-03T13:25:15.637Z</time></trkpt><trkpt lat="44.6833411" lon="9.3902697"><ele>767.0</ele><time>2026-05-03T13:25:16.638Z</time></trkpt><trkpt lat="44.6833194" lon="9.3899439"><ele>764.0</ele><time>2026-05-03T13:25:17.649Z</time></trkpt><trkpt lat="44.683263" lon="9.3896436"><ele>761.0</ele><time>2026-05-03T13:25:18.634Z</time></trkpt><trkpt lat="44.6832467" lon="9.3894111"><ele>758.0</ele><time>2026-05-03T13:25:19.639Z</time></trkpt><trkpt lat="44.6832331" lon="9.3891204"><ele>758.0</ele><time>2026-05-03T13:25:20.638Z</time></trkpt><trkpt lat="44.6832433" lon="9.3888727"><ele>758.0</ele><time>2026-05-03T13:25:21.639Z</time></trkpt><trkpt lat="44.683318" lon="9.3886456"><ele>758.0</ele><time>2026-05-03T13:25:22.658Z</time></trkpt><trkpt lat="44.6834289" lon="9.3884432"><ele>754.6666666666666</ele><time>2026-05-03T13:25:23.632Z</time></trkpt><trkpt lat="44.6835224" lon="9.3882747"><ele>751.3333333333334</ele><time>2026-05-03T13:25:24.643Z</time></trkpt><trkpt lat="44.6836995" lon="9.3882137"><ele>748.0</ele><time>2026-05-03T13:25:25.632Z</time></trkpt><trkpt lat="44.6839563" lon="9.3883479"><ele>748.0</ele><time>2026-05-03T13:25:26.632Z</time></trkpt><trkpt lat="44.6841685" lon="9.3883917"><ele>748.0</ele><time>2026-05-03T13:25:27.642Z</time></trkpt><trkpt lat="44.684384" lon="9.388409"><ele>748.0</ele><time>2026-05-03T13:25:28.633Z</time></trkpt><trkpt lat="44.6845596" lon="9.3883506"><ele>750.3333333333334</ele><time>2026-05-03T13:25:29.631Z</time></trkpt><trkpt lat="44.684762" lon="9.3882923"><ele>752.6666666666666</ele><time>2026-05-03T13:25:30.636Z</time></trkpt><trkpt lat="44.6849191" lon="9.3881114"><ele>755.0</ele><time>2026-05-03T13:25:31.634Z</time></trkpt><trkpt lat="44.6850773" lon="9.3879231"><ele>748.0</ele><time>2026-05-03T13:25:32.633Z</time></trkpt><trkpt lat="44.6852558" lon="9.3877489"><ele>741.0</ele><time>2026-05-03T13:25:33.61Z</time></trkpt><trkpt lat="44.6854379" lon="9.3875812"><ele>734.0</ele><time>2026-05-03T13:25:34.604Z</time></trkpt><trkpt lat="44.6856159" lon="9.3873947"><ele>734.0</ele><time>2026-05-03T13:25:35.606Z</time></trkpt><trkpt lat="44.685793" lon="9.3872083"><ele>734.0</ele><time>2026-05-03T13:25:36.603Z</time></trkpt><trkpt lat="44.6861392" lon="9.3868214"><ele>723.5</ele><time>2026-05-03T13:25:38.594Z</time></trkpt><trkpt lat="44.6864395" lon="9.3864689"><ele>713.0</ele><time>2026-05-03T13:25:40.595Z</time></trkpt><trkpt lat="44.6865853" lon="9.3863137"><ele>707.6666666666666</ele><time>2026-05-03T13:25:41.596Z</time></trkpt><trkpt lat="44.6867426" lon="9.3861558"><ele>702.3333333333334</ele><time>2026-05-03T13:25:42.608Z</time></trkpt><trkpt lat="44.6868921" lon="9.3859941"><ele>697.0</ele><time>2026-05-03T13:25:43.599Z</time></trkpt><trkpt lat="44.6870488" lon="9.3858276"><ele>693.5</ele><time>2026-05-03T13:25:44.595Z</time></trkpt><trkpt lat="44.6872072" lon="9.3856593"><ele>690.0</ele><time>2026-05-03T13:25:45.594Z</time></trkpt><trkpt lat="44.687474" lon="9.3853614"><ele>686.0</ele><time>2026-05-03T13:25:47.618Z</time></trkpt><trkpt lat="44.6876471" lon="9.3853307"><ele>682.0</ele><time>2026-05-03T13:25:48.604Z</time></trkpt><trkpt lat="44.68804" lon="9.3854036"><ele>677.5</ele><time>2026-05-03T13:25:50.621Z</time></trkpt><trkpt lat="44.6882762" lon="9.3856127"><ele>673.0</ele><time>2026-05-03T13:25:51.631Z</time></trkpt><trkpt lat="44.6884803" lon="9.3855911"><ele>669.6666666666667</ele><time>2026-05-03T13:25:52.616Z</time></trkpt><trkpt lat="44.68867" lon="9.3854511"><ele>666.3333333333334</ele><time>2026-05-03T13:25:53.613Z</time></trkpt><trkpt lat="44.6888698" lon="9.385339"><ele>663.0</ele><time>2026-05-03T13:25:54.604Z</time></trkpt><trkpt lat="44.6890686" lon="9.3851934"><ele>663.0</ele><time>2026-05-03T13:25:55.6Z</time></trkpt><trkpt lat="44.6892632" lon="9.3850509"><ele>663.0</ele><time>2026-05-03T13:25:56.602Z</time></trkpt><trkpt lat="44.689442" lon="9.3849078"><ele>663.0</ele><time>2026-05-03T13:25:57.601Z</time></trkpt><trkpt lat="44.6899294" lon="9.3845216"><ele>657.3333333333334</ele><time>2026-05-03T13:26:00.592Z</time></trkpt><trkpt lat="44.6900209" lon="9.3844347"><ele>651.6666666666667</ele><time>2026-05-03T13:26:01.591Z</time></trkpt><trkpt lat="44.6901361" lon="9.3843346"><ele>646.0</ele><time>2026-05-03T13:26:02.593Z</time></trkpt><trkpt lat="44.6926006" lon="9.3927165"><ele>655.5</ele><time>2026-05-03T13:26:24.629Z</time></trkpt><trkpt lat="44.6927387" lon="9.3926482"><ele>665.0</ele><time>2026-05-03T13:26:25.625Z</time></trkpt><trkpt lat="44.6928307" lon="9.3925556"><ele>674.5</ele><time>2026-05-03T13:26:26.626Z</time></trkpt><trkpt lat="44.6929064" lon="9.3924692"><ele>684.0</ele><time>2026-05-03T13:26:27.634Z</time></trkpt><trkpt lat="44.6930424" lon="9.3925479"><ele>684.0</ele><time>2026-05-03T13:26:28.641Z</time></trkpt><trkpt lat="44.6931372" lon="9.3926306"><ele>684.0</ele><time>2026-05-03T13:26:29.616Z</time></trkpt><trkpt lat="44.6932458" lon="9.3926257"><ele>684.0</ele><time>2026-05-03T13:26:30.62Z</time></trkpt><trkpt lat="44.6933667" lon="9.3925941"><ele>684.0</ele><time>2026-05-03T13:26:31.63Z</time></trkpt><trkpt lat="44.6935001" lon="9.3925237"><ele>683.0</ele><time>2026-05-03T13:26:32.636Z</time></trkpt><trkpt lat="44.693633" lon="9.3924385"><ele>682.0</ele><time>2026-05-03T13:26:33.64Z</time></trkpt><trkpt lat="44.6937422" lon="9.3923746"><ele>681.0</ele><time>2026-05-03T13:26:34.629Z</time></trkpt><trkpt lat="44.6938542" lon="9.3923066"><ele>680.0</ele><time>2026-05-03T13:26:35.615Z</time></trkpt><trkpt lat="44.6939716" lon="9.3922405"><ele>680.0</ele><time>2026-05-03T13:26:36.603Z</time></trkpt><trkpt lat="44.6940903" lon="9.392179"><ele>680.0</ele><time>2026-05-03T13:26:37.608Z</time></trkpt><trkpt lat="44.6942164" lon="9.3921702"><ele>680.0</ele><time>2026-05-03T13:26:38.625Z</time></trkpt><trkpt lat="44.6943617" lon="9.3921497"><ele>680.0</ele><time>2026-05-03T13:26:39.654Z</time></trkpt><trkpt lat="44.6945091" lon="9.3920651"><ele>678.75</ele><time>2026-05-03T13:26:40.633Z</time></trkpt><trkpt lat="44.694641" lon="9.3919552"><ele>677.5</ele><time>2026-05-03T13:26:41.627Z</time></trkpt><trkpt lat="44.6947417" lon="9.3918088"><ele>676.25</ele><time>2026-05-03T13:26:42.653Z</time></trkpt><trkpt lat="44.6948197" lon="9.3916504"><ele>675.0</ele><time>2026-05-03T13:26:43.64Z</time></trkpt><trkpt lat="44.6948843" lon="9.3915037"><ele>675.0</ele><time>2026-05-03T13:26:44.633Z</time></trkpt><trkpt lat="44.6949766" lon="9.3913637"><ele>675.0</ele><time>2026-05-03T13:26:45.628Z</time></trkpt><trkpt lat="44.6950912" lon="9.3912481"><ele>675.0</ele><time>2026-05-03T13:26:46.639Z</time></trkpt><trkpt lat="44.695197" lon="9.3910434"><ele>672.3333333333334</ele><time>2026-05-03T13:26:47.626Z</time></trkpt><trkpt lat="44.6953188" lon="9.3908634"><ele>669.6666666666667</ele><time>2026-05-03T13:26:48.644Z</time></trkpt><trkpt lat="44.6954935" lon="9.3907096"><ele>667.0</ele><time>2026-05-03T13:26:49.642Z</time></trkpt><trkpt lat="44.6956489" lon="9.3906183"><ele>665.25</ele><time>2026-05-03T13:26:50.639Z</time></trkpt><trkpt lat="44.6957617" lon="9.3905026"><ele>663.5</ele><time>2026-05-03T13:26:51.638Z</time></trkpt><trkpt lat="44.695859" lon="9.3903804"><ele>661.75</ele><time>2026-05-03T13:26:52.643Z</time></trkpt><trkpt lat="44.6959563" lon="9.3901895"><ele>660.0</ele><time>2026-05-03T13:26:53.658Z</time></trkpt><trkpt lat="44.6960195" lon="9.3900905"><ele>656.75</ele><time>2026-05-03T13:26:54.64Z</time></trkpt><trkpt lat="44.6961264" lon="9.3900728"><ele>653.5</ele><time>2026-05-03T13:26:55.638Z</time></trkpt><trkpt lat="44.6962222" lon="9.3900402"><ele>650.25</ele><time>2026-05-03T13:26:56.64Z</time></trkpt><trkpt lat="44.6962987" lon="9.3901859"><ele>647.0</ele><time>2026-05-03T13:26:57.646Z</time></trkpt><trkpt lat="44.6963459" lon="9.3903544"><ele>646.3333333333333</ele><time>2026-05-03T13:26:58.65Z</time></trkpt><trkpt lat="44.6963826" lon="9.3906431"><ele>645.6666666666666</ele><time>2026-05-03T13:26:59.635Z</time></trkpt><trkpt lat="44.6963653" lon="9.3908582"><ele>645.0</ele><time>2026-05-03T13:27:00.637Z</time></trkpt><trkpt lat="44.6963619" lon="9.3909924"><ele>645.0</ele><time>2026-05-03T13:27:01.634Z</time></trkpt><trkpt lat="44.6963971" lon="9.3911558"><ele>645.0</ele><time>2026-05-03T13:27:02.638Z</time></trkpt><trkpt lat="44.6963558" lon="9.3913064"><ele>645.0</ele><time>2026-05-03T13:27:03.644Z</time></trkpt><trkpt lat="44.6963016" lon="9.3914628"><ele>645.0</ele><time>2026-05-03T13:27:04.633Z</time></trkpt><trkpt lat="44.6962493" lon="9.3916096"><ele>645.75</ele><time>2026-05-03T13:27:05.633Z</time></trkpt><trkpt lat="44.6962078" lon="9.3917834"><ele>646.5</ele><time>2026-05-03T13:27:06.635Z</time></trkpt><trkpt lat="44.6962059" lon="9.3919776"><ele>647.25</ele><time>2026-05-03T13:27:07.641Z</time></trkpt><trkpt lat="44.6962472" lon="9.3921849"><ele>648.0</ele><time>2026-05-03T13:27:08.644Z</time></trkpt><trkpt lat="44.6962947" lon="9.3923524"><ele>649.0</ele><time>2026-05-03T13:27:09.632Z</time></trkpt><trkpt lat="44.696432" lon="9.3924712"><ele>650.0</ele><time>2026-05-03T13:27:10.639Z</time></trkpt><trkpt lat="44.6965676" lon="9.3925378"><ele>651.0</ele><time>2026-05-03T13:27:11.639Z</time></trkpt><trkpt lat="44.6967126" lon="9.3925458"><ele>651.0</ele><time>2026-05-03T13:27:12.637Z</time></trkpt><trkpt lat="44.6967723" lon="9.3926051"><ele>651.0</ele><time>2026-05-03T13:27:13.653Z</time></trkpt><trkpt lat="44.6969041" lon="9.3926075"><ele>651.0</ele><time>2026-05-03T13:27:14.64Z</time></trkpt><trkpt lat="44.6969738" lon="9.3926596"><ele>651.0</ele><time>2026-05-03T13:27:15.648Z</time></trkpt><trkpt lat="44.6971317" lon="9.3927017"><ele>651.0</ele><time>2026-05-03T13:27:16.646Z</time></trkpt><trkpt lat="44.6973115" lon="9.3927503"><ele>648.6666666666666</ele><time>2026-05-03T13:27:17.648Z</time></trkpt><trkpt lat="44.6974281" lon="9.3926509"><ele>646.3333333333333</ele><time>2026-05-03T13:27:18.656Z</time></trkpt><trkpt lat="44.6975173" lon="9.3925316"><ele>644.0</ele><time>2026-05-03T13:27:19.648Z</time></trkpt><trkpt lat="44.6977398" lon="9.3924824"><ele>642.3333333333333</ele><time>2026-05-03T13:27:20.645Z</time></trkpt><trkpt lat="44.6979445" lon="9.3925006"><ele>640.6666666666666</ele><time>2026-05-03T13:27:21.641Z</time></trkpt><trkpt lat="44.6981324" lon="9.3925767"><ele>639.0</ele><time>2026-05-03T13:27:22.64Z</time></trkpt><trkpt lat="44.6982803" lon="9.3925572"><ele>639.0</ele><time>2026-05-03T13:27:23.64Z</time></trkpt><trkpt lat="44.6984269" lon="9.3925391"><ele>639.0</ele><time>2026-05-03T13:27:24.657Z</time></trkpt><trkpt lat="44.6985424" lon="9.3925201"><ele>639.0</ele><time>2026-05-03T13:27:25.663Z</time></trkpt><trkpt lat="44.6986489" lon="9.3924664"><ele>639.0</ele><time>2026-05-03T13:27:26.64Z</time></trkpt><trkpt lat="44.6987413" lon="9.3923888"><ele>636.2</ele><time>2026-05-03T13:27:27.66Z</time></trkpt><trkpt lat="44.6988027" lon="9.3922772"><ele>633.4</ele><time>2026-05-03T13:27:28.633Z</time></trkpt><trkpt lat="44.6988486" lon="9.3921684"><ele>630.6</ele><time>2026-05-03T13:27:29.651Z</time></trkpt><trkpt lat="44.6988814" lon="9.392036"><ele>627.8</ele><time>2026-05-03T13:27:30.634Z</time></trkpt><trkpt lat="44.6989148" lon="9.3918819"><ele>625.0</ele><time>2026-05-03T13:27:31.631Z</time></trkpt><trkpt lat="44.6989428" lon="9.3917138"><ele>622.75</ele><time>2026-05-03T13:27:32.631Z</time></trkpt><trkpt lat="44.6989936" lon="9.3915619"><ele>620.5</ele><time>2026-05-03T13:27:33.631Z</time></trkpt><trkpt lat="44.6990698" lon="9.3914151"><ele>618.25</ele><time>2026-05-03T13:27:34.631Z</time></trkpt><trkpt lat="44.69917" lon="9.3913184"><ele>616.0</ele><time>2026-05-03T13:27:35.628Z</time></trkpt><trkpt lat="44.699276" lon="9.3912356"><ele>616.0</ele><time>2026-05-03T13:27:36.625Z</time></trkpt><trkpt lat="44.6993652" lon="9.391183"><ele>616.0</ele><time>2026-05-03T13:27:37.631Z</time></trkpt><trkpt lat="44.6994406" lon="9.391227"><ele>616.0</ele><time>2026-05-03T13:27:40.617Z</time></trkpt><trkpt lat="44.6994345" lon="9.3913444"><ele>616.0</ele><time>2026-05-03T13:27:41.633Z</time></trkpt><trkpt lat="44.6994012" lon="9.3914928"><ele>616.0</ele><time>2026-05-03T13:27:42.633Z</time></trkpt><trkpt lat="44.6993484" lon="9.3916535"><ele>616.0</ele><time>2026-05-03T13:27:43.632Z</time></trkpt><trkpt lat="44.6992939" lon="9.3918043"><ele>616.0</ele><time>2026-05-03T13:27:44.633Z</time></trkpt><trkpt lat="44.6992385" lon="9.3919462"><ele>616.0</ele><time>2026-05-03T13:27:45.632Z</time></trkpt><trkpt lat="44.6991942" lon="9.3921066"><ele>616.0</ele><time>2026-05-03T13:27:46.631Z</time></trkpt><trkpt lat="44.6991549" lon="9.3922795"><ele>618.25</ele><time>2026-05-03T13:27:47.631Z</time></trkpt><trkpt lat="44.6991182" lon="9.3924444"><ele>620.5</ele><time>2026-05-03T13:27:48.631Z</time></trkpt><trkpt lat="44.6990846" lon="9.3926011"><ele>622.75</ele><time>2026-05-03T13:27:49.645Z</time></trkpt><trkpt lat="44.6990682" lon="9.392759"><ele>625.0</ele><time>2026-05-03T13:27:50.623Z</time></trkpt><trkpt lat="44.6990968" lon="9.3929492"><ele>626.0</ele><time>2026-05-03T13:27:51.626Z</time></trkpt><trkpt lat="44.6991077" lon="9.3931835"><ele>627.0</ele><time>2026-05-03T13:27:52.628Z</time></trkpt><trkpt lat="44.6991939" lon="9.3934797"><ele>628.0</ele><time>2026-05-03T13:27:53.629Z</time></trkpt><trkpt lat="44.6993468" lon="9.3937775"><ele>615.0</ele><time>2026-05-03T13:27:54.638Z</time></trkpt><trkpt lat="44.6994787" lon="9.3940299"><ele>602.0</ele><time>2026-05-03T13:27:55.62Z</time></trkpt><trkpt lat="44.6996537" lon="9.3942929"><ele>602.0</ele><time>2026-05-03T13:27:56.619Z</time></trkpt><trkpt lat="44.6998045" lon="9.3945167"><ele>602.0</ele><time>2026-05-03T13:27:57.629Z</time></trkpt><trkpt lat="44.6999635" lon="9.3946779"><ele>602.0</ele><time>2026-05-03T13:27:58.632Z</time></trkpt><trkpt lat="44.7001498" lon="9.3948531"><ele>599.0</ele><time>2026-05-03T13:27:59.634Z</time></trkpt><trkpt lat="44.7003624" lon="9.3949511"><ele>596.0</ele><time>2026-05-03T13:28:00.634Z</time></trkpt><trkpt lat="44.7006288" lon="9.3949619"><ele>596.0</ele><time>2026-05-03T13:28:01.633Z</time></trkpt><trkpt lat="44.7008908" lon="9.3949112"><ele>596.0</ele><time>2026-05-03T13:28:02.631Z</time></trkpt><trkpt lat="44.7011535" lon="9.3948152"><ele>589.3333333333333</ele><time>2026-05-03T13:28:03.63Z</time></trkpt><trkpt lat="44.7014054" lon="9.3947971"><ele>582.6666666666666</ele><time>2026-05-03T13:28:04.641Z</time></trkpt><trkpt lat="44.7015834" lon="9.3947472"><ele>576.0</ele><time>2026-05-03T13:28:05.642Z</time></trkpt><trkpt lat="44.701728" lon="9.3947005"><ele>576.0</ele><time>2026-05-03T13:28:06.668Z</time></trkpt><trkpt lat="44.7018663" lon="9.3945746"><ele>576.0</ele><time>2026-05-03T13:28:07.621Z</time></trkpt><trkpt lat="44.7020037" lon="9.3944115"><ele>576.0</ele><time>2026-05-03T13:28:08.624Z</time></trkpt><trkpt lat="44.70215" lon="9.3942962"><ele>576.0</ele><time>2026-05-03T13:28:09.661Z</time></trkpt><trkpt lat="44.7022619" lon="9.3941957"><ele>576.0</ele><time>2026-05-03T13:28:10.637Z</time></trkpt><trkpt lat="44.7023376" lon="9.3941133"><ele>576.0</ele><time>2026-05-03T13:28:11.633Z</time></trkpt><trkpt lat="44.7024027" lon="9.3941154"><ele>576.0</ele><time>2026-05-03T13:28:13.633Z</time></trkpt><trkpt lat="44.7023768" lon="9.3944892"><ele>576.0</ele><time>2026-05-03T13:28:15.626Z</time></trkpt><trkpt lat="44.7022791" lon="9.3946439"><ele>576.0</ele><time>2026-05-03T13:28:16.633Z</time></trkpt><trkpt lat="44.7021433" lon="9.3947807"><ele>576.0</ele><time>2026-05-03T13:28:17.635Z</time></trkpt><trkpt lat="44.7019661" lon="9.3949208"><ele>576.0</ele><time>2026-05-03T13:28:18.633Z</time></trkpt><trkpt lat="44.7017249" lon="9.3950411"><ele>576.0</ele><time>2026-05-03T13:28:19.632Z</time></trkpt><trkpt lat="44.7015661" lon="9.3951496"><ele>576.0</ele><time>2026-05-03T13:28:20.633Z</time></trkpt><trkpt lat="44.7014048" lon="9.3953426"><ele>577.6666666666666</ele><time>2026-05-03T13:28:21.635Z</time></trkpt><trkpt lat="44.7012823" lon="9.3955214"><ele>579.3333333333333</ele><time>2026-05-03T13:28:22.633Z</time></trkpt><trkpt lat="44.701159" lon="9.3957359"><ele>581.0</ele><time>2026-05-03T13:28:23.635Z</time></trkpt><trkpt lat="44.7010164" lon="9.3959309"><ele>581.0</ele><time>2026-05-03T13:28:24.638Z</time></trkpt><trkpt lat="44.7009213" lon="9.3961078"><ele>581.0</ele><time>2026-05-03T13:28:25.635Z</time></trkpt><trkpt lat="44.7008072" lon="9.3962543"><ele>581.0</ele><time>2026-05-03T13:28:26.634Z</time></trkpt><trkpt lat="44.7007058" lon="9.3964625"><ele>581.25</ele><time>2026-05-03T13:28:27.634Z</time></trkpt><trkpt lat="44.7005854" lon="9.3965759"><ele>581.5</ele><time>2026-05-03T13:28:28.635Z</time></trkpt><trkpt lat="44.7004478" lon="9.3966541"><ele>581.75</ele><time>2026-05-03T13:28:29.632Z</time></trkpt><trkpt lat="44.7003216" lon="9.3967126"><ele>582.0</ele><time>2026-05-03T13:28:30.631Z</time></trkpt><trkpt lat="44.7002204" lon="9.3967768"><ele>582.0</ele><time>2026-05-03T13:28:31.627Z</time></trkpt><trkpt lat="44.7001375" lon="9.3969472"><ele>582.0</ele><time>2026-05-03T13:28:32.63Z</time></trkpt><trkpt lat="44.7000048" lon="9.3970877"><ele>582.0</ele><time>2026-05-03T13:28:33.615Z</time></trkpt><trkpt lat="44.6999924" lon="9.3972251"><ele>582.0</ele><time>2026-05-03T13:28:34.602Z</time></trkpt><trkpt lat="44.7000365" lon="9.397361"><ele>579.6666666666666</ele><time>2026-05-03T13:28:35.623Z</time></trkpt><trkpt lat="44.7001486" lon="9.397515"><ele>577.3333333333333</ele><time>2026-05-03T13:28:36.621Z</time></trkpt><trkpt lat="44.7003383" lon="9.3974664"><ele>575.0</ele><time>2026-05-03T13:28:37.628Z</time></trkpt><trkpt lat="44.7006231" lon="9.3972747"><ele>567.5</ele><time>2026-05-03T13:28:38.639Z</time></trkpt><trkpt lat="44.7009197" lon="9.3970235"><ele>560.0</ele><time>2026-05-03T13:28:39.633Z</time></trkpt><trkpt lat="44.7011645" lon="9.3968438"><ele>556.5</ele><time>2026-05-03T13:28:40.63Z</time></trkpt><trkpt lat="44.7013606" lon="9.3965868"><ele>553.0</ele><time>2026-05-03T13:28:41.636Z</time></trkpt><trkpt lat="44.7014673" lon="9.3963223"><ele>553.0</ele><time>2026-05-03T13:28:42.632Z</time></trkpt><trkpt lat="44.7016161" lon="9.3960624"><ele>553.0</ele><time>2026-05-03T13:28:43.633Z</time></trkpt><trkpt lat="44.7017933" lon="9.3957434"><ele>554.0</ele><time>2026-05-03T13:28:44.635Z</time></trkpt><trkpt lat="44.7019584" lon="9.3955812"><ele>555.0</ele><time>2026-05-03T13:28:45.633Z</time></trkpt><trkpt lat="44.7020898" lon="9.3954465"><ele>556.0</ele><time>2026-05-03T13:28:46.63Z</time></trkpt><trkpt lat="44.7022817" lon="9.3954101"><ele>556.0</ele><time>2026-05-03T13:28:47.618Z</time></trkpt><trkpt lat="44.7024709" lon="9.3952841"><ele>556.0</ele><time>2026-05-03T13:28:48.621Z</time></trkpt><trkpt lat="44.702651" lon="9.3952273"><ele>556.0</ele><time>2026-05-03T13:28:49.632Z</time></trkpt><trkpt lat="44.7028282" lon="9.3951402"><ele>548.0</ele><time>2026-05-03T13:28:50.631Z</time></trkpt><trkpt lat="44.7029792" lon="9.3950404"><ele>540.0</ele><time>2026-05-03T13:28:51.631Z</time></trkpt><trkpt lat="44.7031272" lon="9.3949041"><ele>532.0</ele><time>2026-05-03T13:28:52.629Z</time></trkpt><trkpt lat="44.7032791" lon="9.3947615"><ele>532.0</ele><time>2026-05-03T13:28:53.627Z</time></trkpt><trkpt lat="44.7034484" lon="9.3946736"><ele>532.0</ele><time>2026-05-03T13:28:54.627Z</time></trkpt><trkpt lat="44.7036413" lon="9.3946345"><ele>532.0</ele><time>2026-05-03T13:28:55.63Z</time></trkpt><trkpt lat="44.7037983" lon="9.3945993"><ele>532.3333333333334</ele><time>2026-05-03T13:28:56.633Z</time></trkpt><trkpt lat="44.7039466" lon="9.3945521"><ele>532.6666666666666</ele><time>2026-05-03T13:28:57.631Z</time></trkpt><trkpt lat="44.7041393" lon="9.3943949"><ele>533.0</ele><time>2026-05-03T13:28:58.634Z</time></trkpt><trkpt lat="44.7043375" lon="9.3942869"><ele>525.0</ele><time>2026-05-03T13:28:59.638Z</time></trkpt><trkpt lat="44.7045092" lon="9.3940966"><ele>517.0</ele><time>2026-05-03T13:29:00.633Z</time></trkpt><trkpt lat="44.7046282" lon="9.3941581"><ele>509.0</ele><time>2026-05-03T13:29:01.638Z</time></trkpt><trkpt lat="44.7047339" lon="9.3941522"><ele>509.0</ele><time>2026-05-03T13:29:02.628Z</time></trkpt><trkpt lat="44.7048243" lon="9.3941476"><ele>509.0</ele><time>2026-05-03T13:29:03.633Z</time></trkpt><trkpt lat="44.7049316" lon="9.394116"><ele>509.0</ele><time>2026-05-03T13:29:04.629Z</time></trkpt><trkpt lat="44.7049995" lon="9.3940528"><ele>509.0</ele><time>2026-05-03T13:29:05.628Z</time></trkpt><trkpt lat="44.7051098" lon="9.3939895"><ele>509.0</ele><time>2026-05-03T13:29:06.628Z</time></trkpt><trkpt lat="44.7052097" lon="9.3938269"><ele>500.5</ele><time>2026-05-03T13:29:07.629Z</time></trkpt><trkpt lat="44.7053253" lon="9.3936709"><ele>492.0</ele><time>2026-05-03T13:29:08.628Z</time></trkpt><trkpt lat="44.7054266" lon="9.3932647"><ele>496.0</ele><time>2026-05-03T13:29:09.628Z</time></trkpt><trkpt lat="44.7055454" lon="9.3929285"><ele>500.0</ele><time>2026-05-03T13:29:10.622Z</time></trkpt><trkpt lat="44.7056617" lon="9.3925986"><ele>500.0</ele><time>2026-05-03T13:29:11.626Z</time></trkpt><trkpt lat="44.7057228" lon="9.3923764"><ele>500.0</ele><time>2026-05-03T13:29:12.628Z</time></trkpt><trkpt lat="44.7057933" lon="9.3921864"><ele>500.0</ele><time>2026-05-03T13:29:13.629Z</time></trkpt><trkpt lat="44.7059039" lon="9.3920477"><ele>494.66666666666663</ele><time>2026-05-03T13:29:14.629Z</time></trkpt><trkpt lat="44.706089" lon="9.3919915"><ele>489.33333333333337</ele><time>2026-05-03T13:29:15.638Z</time></trkpt><trkpt lat="44.7062608" lon="9.3918434"><ele>484.0</ele><time>2026-05-03T13:29:16.637Z</time></trkpt><trkpt lat="44.7064452" lon="9.3917022"><ele>484.0</ele><time>2026-05-03T13:29:17.64Z</time></trkpt><trkpt lat="44.7066083" lon="9.3915703"><ele>484.0</ele><time>2026-05-03T13:29:18.638Z</time></trkpt><trkpt lat="44.7067693" lon="9.3913974"><ele>484.0</ele><time>2026-05-03T13:29:19.633Z</time></trkpt><trkpt lat="44.7069083" lon="9.3911705"><ele>481.0</ele><time>2026-05-03T13:29:20.635Z</time></trkpt><trkpt lat="44.7070104" lon="9.3909654"><ele>478.0</ele><time>2026-05-03T13:29:21.633Z</time></trkpt><trkpt lat="44.70708" lon="9.3907887"><ele>475.0</ele><time>2026-05-03T13:29:22.633Z</time></trkpt><trkpt lat="44.7071299" lon="9.3906537"><ele>472.0</ele><time>2026-05-03T13:29:23.629Z</time></trkpt><trkpt lat="44.7071519" lon="9.3905318"><ele>473.0</ele><time>2026-05-03T13:29:24.637Z</time></trkpt><trkpt lat="44.7070724" lon="9.3903885"><ele>474.0</ele><time>2026-05-03T13:29:25.634Z</time></trkpt><trkpt lat="44.706953" lon="9.390239"><ele>475.0</ele><time>2026-05-03T13:29:26.634Z</time></trkpt><trkpt lat="44.7068275" lon="9.3900683"><ele>476.33333333333337</ele><time>2026-05-03T13:29:27.634Z</time></trkpt><trkpt lat="44.7066729" lon="9.3898872"><ele>477.66666666666663</ele><time>2026-05-03T13:29:28.63Z</time></trkpt><trkpt lat="44.7065291" lon="9.3896871"><ele>479.0</ele><time>2026-05-03T13:29:29.633Z</time></trkpt><trkpt lat="44.7063704" lon="9.3895131"><ele>475.0</ele><time>2026-05-03T13:29:30.63Z</time></trkpt><trkpt lat="44.7061649" lon="9.3893562"><ele>471.0</ele><time>2026-05-03T13:29:31.636Z</time></trkpt><trkpt lat="44.7059902" lon="9.3892352"><ele>467.0</ele><time>2026-05-03T13:29:32.641Z</time></trkpt><trkpt lat="44.7057124" lon="9.3891118"><ele>465.8</ele><time>2026-05-03T13:29:33.632Z</time></trkpt><trkpt lat="44.7056356" lon="9.3890336"><ele>464.6</ele><time>2026-05-03T13:29:34.63Z</time></trkpt><trkpt lat="44.7055526" lon="9.3890093"><ele>463.40000000000003</ele><time>2026-05-03T13:29:35.612Z</time></trkpt><trkpt lat="44.7054387" lon="9.3890206"><ele>462.20000000000005</ele><time>2026-05-03T13:29:36.619Z</time></trkpt><trkpt lat="44.7053322" lon="9.3890524"><ele>461.0</ele><time>2026-05-03T13:29:37.617Z</time></trkpt><trkpt lat="44.7052262" lon="9.3890455"><ele>457.5</ele><time>2026-05-03T13:29:38.619Z</time></trkpt><trkpt lat="44.7051124" lon="9.3891095"><ele>454.0</ele><time>2026-05-03T13:29:39.61Z</time></trkpt><trkpt lat="44.7049968" lon="9.3892081"><ele>450.5</ele><time>2026-05-03T13:29:40.611Z</time></trkpt><trkpt lat="44.7049301" lon="9.3893521"><ele>447.0</ele><time>2026-05-03T13:29:41.616Z</time></trkpt><trkpt lat="44.704852" lon="9.389556"><ele>455.0</ele><time>2026-05-03T13:29:42.631Z</time></trkpt><trkpt lat="44.7047473" lon="9.3899724"><ele>463.0</ele><time>2026-05-03T13:29:43.612Z</time></trkpt><trkpt lat="44.7046256" lon="9.3898949"><ele>471.0</ele><time>2026-05-03T13:29:44.603Z</time></trkpt><trkpt lat="44.704499" lon="9.3897934"><ele>472.0</ele><time>2026-05-03T13:29:45.617Z</time></trkpt><trkpt lat="44.7043724" lon="9.3897089"><ele>473.0</ele><time>2026-05-03T13:29:46.627Z</time></trkpt><trkpt lat="44.7042493" lon="9.3896385"><ele>474.0</ele><time>2026-05-03T13:29:47.628Z</time></trkpt><trkpt lat="44.7041346" lon="9.3896456"><ele>475.0</ele><time>2026-05-03T13:29:48.631Z</time></trkpt><trkpt lat="44.7039969" lon="9.3896974"><ele>475.0</ele><time>2026-05-03T13:29:49.63Z</time></trkpt><trkpt lat="44.7038204" lon="9.3896701"><ele>475.0</ele><time>2026-05-03T13:29:50.632Z</time></trkpt><trkpt lat="44.7036839" lon="9.389677"><ele>475.0</ele><time>2026-05-03T13:29:51.629Z</time></trkpt><trkpt lat="44.7035145" lon="9.3895533"><ele>468.25</ele><time>2026-05-03T13:29:52.63Z</time></trkpt><trkpt lat="44.7033832" lon="9.3894881"><ele>461.5</ele><time>2026-05-03T13:29:53.633Z</time></trkpt><trkpt lat="44.7032529" lon="9.389437"><ele>454.75</ele><time>2026-05-03T13:29:54.628Z</time></trkpt><trkpt lat="44.7031524" lon="9.3893767"><ele>448.0</ele><time>2026-05-03T13:29:55.628Z</time></trkpt><trkpt lat="44.7030464" lon="9.3893693"><ele>448.0</ele><time>2026-05-03T13:29:56.628Z</time></trkpt><trkpt lat="44.7029477" lon="9.3893528"><ele>448.0</ele><time>2026-05-03T13:29:57.627Z</time></trkpt><trkpt lat="44.7028593" lon="9.3892757"><ele>448.0</ele><time>2026-05-03T13:29:58.63Z</time></trkpt><trkpt lat="44.7028856" lon="9.3891452"><ele>448.0</ele><time>2026-05-03T13:29:59.628Z</time></trkpt><trkpt lat="44.7030434" lon="9.3890092"><ele>443.5</ele><time>2026-05-03T13:30:00.629Z</time></trkpt><trkpt lat="44.7032792" lon="9.3887787"><ele>439.0</ele><time>2026-05-03T13:30:01.636Z</time></trkpt><trkpt lat="44.7034897" lon="9.3885846"><ele>437.33333333333337</ele><time>2026-05-03T13:30:02.633Z</time></trkpt><trkpt lat="44.703612" lon="9.3883806"><ele>435.66666666666663</ele><time>2026-05-03T13:30:03.63Z</time></trkpt><trkpt lat="44.7036645" lon="9.3880636"><ele>434.0</ele><time>2026-05-03T13:30:04.627Z</time></trkpt><trkpt lat="44.7037196" lon="9.3878235"><ele>433.3333333333333</ele><time>2026-05-03T13:30:05.623Z</time></trkpt><trkpt lat="44.703768" lon="9.3875912"><ele>432.66666666666663</ele><time>2026-05-03T13:30:06.626Z</time></trkpt><trkpt lat="44.703827" lon="9.3873821"><ele>432.0</ele><time>2026-05-03T13:30:07.632Z</time></trkpt><trkpt lat="44.703875" lon="9.3872259"><ele>432.0</ele><time>2026-05-03T13:30:08.633Z</time></trkpt><trkpt lat="44.7039312" lon="9.3871673"><ele>432.00000000000006</ele><time>2026-05-03T13:30:09.629Z</time></trkpt><trkpt lat="44.7040093" lon="9.387156"><ele>432.00000000000006</ele><time>2026-05-03T13:30:10.63Z</time></trkpt><trkpt lat="44.7040985" lon="9.3871776"><ele>432.0</ele><time>2026-05-03T13:30:11.626Z</time></trkpt><trkpt lat="44.7041644" lon="9.3872374"><ele>432.0</ele><time>2026-05-03T13:30:12.61Z</time></trkpt><trkpt lat="44.7043051" lon="9.3872624"><ele>432.0</ele><time>2026-05-03T13:30:14.625Z</time></trkpt><trkpt lat="44.704415" lon="9.3872877"><ele>432.0</ele><time>2026-05-03T13:30:15.625Z</time></trkpt><trkpt lat="44.7045381" lon="9.3872836"><ele>432.0</ele><time>2026-05-03T13:30:16.626Z</time></trkpt><trkpt lat="44.7046704" lon="9.3872667"><ele>432.0</ele><time>2026-05-03T13:30:17.627Z</time></trkpt><trkpt lat="44.7047911" lon="9.3872408"><ele>432.0</ele><time>2026-05-03T13:30:18.626Z</time></trkpt><trkpt lat="44.7048867" lon="9.3872167"><ele>432.0</ele><time>2026-05-03T13:30:19.627Z</time></trkpt><trkpt lat="44.7049634" lon="9.3871875"><ele>432.0</ele><time>2026-05-03T13:30:20.629Z</time></trkpt><trkpt lat="44.7050307" lon="9.3871326"><ele>432.0</ele><time>2026-05-03T13:30:21.631Z</time></trkpt><trkpt lat="44.7051033" lon="9.387091"><ele>432.0</ele><time>2026-05-03T13:30:22.629Z</time></trkpt><trkpt lat="44.7051869" lon="9.3870593"><ele>432.0</ele><time>2026-05-03T13:30:23.632Z</time></trkpt><trkpt lat="44.7052783" lon="9.3870263"><ele>430.40000000000003</ele><time>2026-05-03T13:30:24.632Z</time></trkpt><trkpt lat="44.7053743" lon="9.3869626"><ele>428.80000000000007</ele><time>2026-05-03T13:30:25.629Z</time></trkpt><trkpt lat="44.705473" lon="9.3869435"><ele>427.2</ele><time>2026-05-03T13:30:26.63Z</time></trkpt><trkpt lat="44.7055427" lon="9.3869083"><ele>425.6</ele><time>2026-05-03T13:30:27.632Z</time></trkpt><trkpt lat="44.7056012" lon="9.386818"><ele>424.0</ele><time>2026-05-03T13:30:28.629Z</time></trkpt><trkpt lat="44.705643" lon="9.3867084"><ele>424.0</ele><time>2026-05-03T13:30:29.629Z</time></trkpt><trkpt lat="44.7056613" lon="9.3865975"><ele>424.0</ele><time>2026-05-03T13:30:30.63Z</time></trkpt><trkpt lat="44.7056327" lon="9.3864462"><ele>424.0</ele><time>2026-05-03T13:30:32.632Z</time></trkpt><trkpt lat="44.7055716" lon="9.3864092"><ele>424.0</ele><time>2026-05-03T13:30:33.632Z</time></trkpt><trkpt lat="44.7054791" lon="9.3863887"><ele>424.0</ele><time>2026-05-03T13:30:34.656Z</time></trkpt><trkpt lat="44.7053659" lon="9.3863938"><ele>424.25</ele><time>2026-05-03T13:30:35.63Z</time></trkpt><trkpt lat="44.7052385" lon="9.3864029"><ele>424.5</ele><time>2026-05-03T13:30:36.635Z</time></trkpt><trkpt lat="44.7051297" lon="9.3863175"><ele>424.75</ele><time>2026-05-03T13:30:37.636Z</time></trkpt><trkpt lat="44.7050463" lon="9.3862065"><ele>425.0</ele><time>2026-05-03T13:30:38.634Z</time></trkpt><trkpt lat="44.7049787" lon="9.3860569"><ele>422.25</ele><time>2026-05-03T13:30:39.636Z</time></trkpt><trkpt lat="44.7049335" lon="9.3859131"><ele>419.5</ele><time>2026-05-03T13:30:40.633Z</time></trkpt><trkpt lat="44.7049084" lon="9.3857592"><ele>416.75</ele><time>2026-05-03T13:30:41.638Z</time></trkpt><trkpt lat="44.7049449" lon="9.3856199"><ele>414.0</ele><time>2026-05-03T13:30:42.635Z</time></trkpt><trkpt lat="44.7050288" lon="9.3854723"><ele>410.25</ele><time>2026-05-03T13:30:43.632Z</time></trkpt><trkpt lat="44.7051489" lon="9.3853439"><ele>406.5</ele><time>2026-05-03T13:30:44.629Z</time></trkpt><trkpt lat="44.7052858" lon="9.3852724"><ele>402.75</ele><time>2026-05-03T13:30:45.631Z</time></trkpt><trkpt lat="44.7054311" lon="9.3852275"><ele>399.0</ele><time>2026-05-03T13:30:46.609Z</time></trkpt><trkpt lat="44.7055328" lon="9.3851835"><ele>398.75</ele><time>2026-05-03T13:30:47.619Z</time></trkpt><trkpt lat="44.7056482" lon="9.3851476"><ele>398.5</ele><time>2026-05-03T13:30:48.629Z</time></trkpt><trkpt lat="44.7057757" lon="9.3851136"><ele>398.25</ele><time>2026-05-03T13:30:49.628Z</time></trkpt><trkpt lat="44.7058894" lon="9.3851034"><ele>398.0</ele><time>2026-05-03T13:30:50.627Z</time></trkpt><trkpt lat="44.7060409" lon="9.3851601"><ele>398.0</ele><time>2026-05-03T13:30:51.626Z</time></trkpt><trkpt lat="44.7061622" lon="9.3851604"><ele>398.0</ele><time>2026-05-03T13:30:52.634Z</time></trkpt><trkpt lat="44.7062828" lon="9.3851616"><ele>398.0</ele><time>2026-05-03T13:30:53.627Z</time></trkpt><trkpt lat="44.7063992" lon="9.3850929"><ele>398.0</ele><time>2026-05-03T13:30:54.626Z</time></trkpt><trkpt lat="44.706515" lon="9.3850479"><ele>398.0</ele><time>2026-05-03T13:30:55.626Z</time></trkpt><trkpt lat="44.7066305" lon="9.3850581"><ele>398.0</ele><time>2026-05-03T13:30:56.624Z</time></trkpt><trkpt lat="44.7067349" lon="9.384993"><ele>398.0</ele><time>2026-05-03T13:30:57.632Z</time></trkpt><trkpt lat="44.7068485" lon="9.3848645"><ele>398.0</ele><time>2026-05-03T13:30:58.629Z</time></trkpt><trkpt lat="44.7069941" lon="9.3847767"><ele>391.75</ele><time>2026-05-03T13:30:59.628Z</time></trkpt><trkpt lat="44.7071134" lon="9.3846723"><ele>385.5</ele><time>2026-05-03T13:31:00.633Z</time></trkpt><trkpt lat="44.7072154" lon="9.3845703"><ele>379.25</ele><time>2026-05-03T13:31:01.628Z</time></trkpt><trkpt lat="44.7073109" lon="9.384488"><ele>373.0</ele><time>2026-05-03T13:31:02.611Z</time></trkpt><trkpt lat="44.7074043" lon="9.384406"><ele>373.0</ele><time>2026-05-03T13:31:03.602Z</time></trkpt><trkpt lat="44.7075018" lon="9.3843312"><ele>373.0</ele><time>2026-05-03T13:31:04.601Z</time></trkpt><trkpt lat="44.7075991" lon="9.3842572"><ele>373.0</ele><time>2026-05-03T13:31:05.603Z</time></trkpt><trkpt lat="44.7076979" lon="9.3841799"><ele>373.0</ele><time>2026-05-03T13:31:06.602Z</time></trkpt><trkpt lat="44.7077972" lon="9.3841045"><ele>373.0</ele><time>2026-05-03T13:31:07.604Z</time></trkpt><trkpt lat="44.7102193" lon="9.3847661"><ele>356.0</ele><time>2026-05-03T13:31:19.621Z</time></trkpt><trkpt lat="44.7103785" lon="9.3853796"><ele>363.0</ele><time>2026-05-03T13:31:48.515Z</time></trkpt><trkpt lat="44.7098176" lon="9.3855648"><ele>361.0</ele><time>2026-05-03T13:31:51.633Z</time></trkpt><trkpt lat="44.7099382" lon="9.3854119"><ele>359.0</ele><time>2026-05-03T13:31:52.638Z</time></trkpt><trkpt lat="44.7100798" lon="9.3853233"><ele>357.0</ele><time>2026-05-03T13:31:53.633Z</time></trkpt><trkpt lat="44.7102209" lon="9.3852601"><ele>356.75</ele><time>2026-05-03T13:31:54.632Z</time></trkpt><trkpt lat="44.7103545" lon="9.385279"><ele>356.5</ele><time>2026-05-03T13:31:55.635Z</time></trkpt><trkpt lat="44.7104876" lon="9.3853211"><ele>356.25</ele><time>2026-05-03T13:31:56.63Z</time></trkpt><trkpt lat="44.7106178" lon="9.385378"><ele>356.0</ele><time>2026-05-03T13:31:57.633Z</time></trkpt><trkpt lat="44.7107407" lon="9.3853629"><ele>356.0</ele><time>2026-05-03T13:31:58.63Z</time></trkpt><trkpt lat="44.7108597" lon="9.3853293"><ele>356.0</ele><time>2026-05-03T13:31:59.63Z</time></trkpt><trkpt lat="44.7109734" lon="9.3852724"><ele>356.0</ele><time>2026-05-03T13:32:00.63Z</time></trkpt><trkpt lat="44.7110873" lon="9.3852049"><ele>356.0</ele><time>2026-05-03T13:32:01.632Z</time></trkpt><trkpt lat="44.7111914" lon="9.3851208"><ele>355.0</ele><time>2026-05-03T13:32:02.631Z</time></trkpt><trkpt lat="44.7112963" lon="9.3850309"><ele>354.0</ele><time>2026-05-03T13:32:03.634Z</time></trkpt><trkpt lat="44.7114078" lon="9.3849517"><ele>353.0</ele><time>2026-05-03T13:32:04.628Z</time></trkpt><trkpt lat="44.7115282" lon="9.3848793"><ele>352.0</ele><time>2026-05-03T13:32:05.629Z</time></trkpt><trkpt lat="44.7116462" lon="9.3847968"><ele>352.0</ele><time>2026-05-03T13:32:06.629Z</time></trkpt><trkpt lat="44.7117559" lon="9.3847026"><ele>352.0</ele><time>2026-05-03T13:32:07.63Z</time></trkpt><trkpt lat="44.7118571" lon="9.3846027"><ele>352.0</ele><time>2026-05-03T13:32:08.627Z</time></trkpt><trkpt lat="44.7119538" lon="9.3845031"><ele>352.0</ele><time>2026-05-03T13:32:09.63Z</time></trkpt><trkpt lat="44.7120561" lon="9.3844149"><ele>352.0</ele><time>2026-05-03T13:32:10.627Z</time></trkpt><trkpt lat="44.7121588" lon="9.3843289"><ele>352.0</ele><time>2026-05-03T13:32:11.626Z</time></trkpt><trkpt lat="44.7122541" lon="9.3842447"><ele>352.0</ele><time>2026-05-03T13:32:12.631Z</time></trkpt><trkpt lat="44.7123274" lon="9.3841605"><ele>352.0</ele><time>2026-05-03T13:32:13.631Z</time></trkpt><trkpt lat="44.7123876" lon="9.3840461"><ele>352.0</ele><time>2026-05-03T13:32:14.633Z</time></trkpt><trkpt lat="44.7124231" lon="9.3838984"><ele>350.0</ele><time>2026-05-03T13:32:15.631Z</time></trkpt><trkpt lat="44.7124372" lon="9.3837478"><ele>348.0</ele><time>2026-05-03T13:32:16.631Z</time></trkpt><trkpt lat="44.7124356" lon="9.3835692"><ele>346.0</ele><time>2026-05-03T13:32:17.629Z</time></trkpt><trkpt lat="44.7124397" lon="9.3833781"><ele>344.0</ele><time>2026-05-03T13:32:18.653Z</time></trkpt><trkpt lat="44.7124466" lon="9.383188"><ele>342.6</ele><time>2026-05-03T13:32:19.634Z</time></trkpt><trkpt lat="44.7124376" lon="9.3829903"><ele>341.2</ele><time>2026-05-03T13:32:20.637Z</time></trkpt><trkpt lat="44.7124222" lon="9.3828434"><ele>339.8</ele><time>2026-05-03T13:32:21.656Z</time></trkpt><trkpt lat="44.7123714" lon="9.3827556"><ele>338.40000000000003</ele><time>2026-05-03T13:32:22.637Z</time></trkpt><trkpt lat="44.7122981" lon="9.3826602"><ele>337.0</ele><time>2026-05-03T13:32:23.635Z</time></trkpt><trkpt lat="44.7121928" lon="9.3825604"><ele>337.0</ele><time>2026-05-03T13:32:24.636Z</time></trkpt><trkpt lat="44.7121134" lon="9.3824457"><ele>337.0</ele><time>2026-05-03T13:32:25.633Z</time></trkpt><trkpt lat="44.7120514" lon="9.3823132"><ele>337.0</ele><time>2026-05-03T13:32:26.656Z</time></trkpt><trkpt lat="44.7120111" lon="9.3821637"><ele>337.0</ele><time>2026-05-03T13:32:27.632Z</time></trkpt><trkpt lat="44.7120044" lon="9.3820033"><ele>335.66666666666663</ele><time>2026-05-03T13:32:28.633Z</time></trkpt><trkpt lat="44.7120173" lon="9.3818059"><ele>334.3333333333333</ele><time>2026-05-03T13:32:29.634Z</time></trkpt><trkpt lat="44.7120508" lon="9.3815882"><ele>333.0</ele><time>2026-05-03T13:32:30.632Z</time></trkpt><trkpt lat="44.7121028" lon="9.3813418"><ele>330.6666666666667</ele><time>2026-05-03T13:32:31.639Z</time></trkpt><trkpt lat="44.7121319" lon="9.3811215"><ele>328.33333333333337</ele><time>2026-05-03T13:32:32.635Z</time></trkpt><trkpt lat="44.7121744" lon="9.3809073"><ele>326.0</ele><time>2026-05-03T13:32:33.633Z</time></trkpt><trkpt lat="44.7122133" lon="9.3807115"><ele>326.0</ele><time>2026-05-03T13:32:34.633Z</time></trkpt><trkpt lat="44.712243" lon="9.3805279"><ele>326.0</ele><time>2026-05-03T13:32:35.633Z</time></trkpt><trkpt lat="44.7122537" lon="9.3803148"><ele>326.0</ele><time>2026-05-03T13:32:36.631Z</time></trkpt><trkpt lat="44.7122945" lon="9.3802333"><ele>326.0</ele><time>2026-05-03T13:32:37.641Z</time></trkpt><trkpt lat="44.7123867" lon="9.3802134"><ele>325.20000000000005</ele><time>2026-05-03T13:32:38.638Z</time></trkpt><trkpt lat="44.7124958" lon="9.3801613"><ele>324.40000000000003</ele><time>2026-05-03T13:32:39.631Z</time></trkpt><trkpt lat="44.7126118" lon="9.3801475"><ele>323.6</ele><time>2026-05-03T13:32:40.635Z</time></trkpt><trkpt lat="44.7126963" lon="9.3802025"><ele>322.8</ele><time>2026-05-03T13:32:41.636Z</time></trkpt><trkpt lat="44.7128036" lon="9.3802412"><ele>322.0</ele><time>2026-05-03T13:32:43.631Z</time></trkpt><trkpt lat="44.712884" lon="9.3802522"><ele>322.20000000000005</ele><time>2026-05-03T13:32:51.633Z</time></trkpt><trkpt lat="44.712952" lon="9.380244"><ele>322.4</ele><time>2026-05-03T13:32:52.629Z</time></trkpt><trkpt lat="44.7130205" lon="9.3802489"><ele>322.6</ele><time>2026-05-03T13:32:53.628Z</time></trkpt><trkpt lat="44.7131276" lon="9.3803305"><ele>322.79999999999995</ele><time>2026-05-03T13:32:54.63Z</time></trkpt><trkpt lat="44.7132196" lon="9.3804096"><ele>323.0</ele><time>2026-05-03T13:32:55.629Z</time></trkpt><trkpt lat="44.7133209" lon="9.3805342"><ele>323.0</ele><time>2026-05-03T13:32:56.631Z</time></trkpt><trkpt lat="44.7134295" lon="9.3806271"><ele>323.0</ele><time>2026-05-03T13:32:57.629Z</time></trkpt><trkpt lat="44.7135156" lon="9.3807221"><ele>323.0</ele><time>2026-05-03T13:32:58.632Z</time></trkpt><trkpt lat="44.7135955" lon="9.3808095"><ele>323.0</ele><time>2026-05-03T13:32:59.63Z</time></trkpt><trkpt lat="44.7136707" lon="9.3809069"><ele>323.0</ele><time>2026-05-03T13:33:00.63Z</time></trkpt><trkpt lat="44.7137561" lon="9.3810328"><ele>320.75</ele><time>2026-05-03T13:33:01.636Z</time></trkpt><trkpt lat="44.7138308" lon="9.38116"><ele>318.5</ele><time>2026-05-03T13:33:02.633Z</time></trkpt><trkpt lat="44.7139068" lon="9.3812876"><ele>316.25</ele><time>2026-05-03T13:33:03.633Z</time></trkpt><trkpt lat="44.7139354" lon="9.3814383"><ele>314.0</ele><time>2026-05-03T13:33:04.633Z</time></trkpt><trkpt lat="44.7139596" lon="9.3815938"><ele>314.0</ele><time>2026-05-03T13:33:05.632Z</time></trkpt><trkpt lat="44.7139743" lon="9.3817574"><ele>314.0</ele><time>2026-05-03T13:33:06.629Z</time></trkpt><trkpt lat="44.7139839" lon="9.3819045"><ele>314.0</ele><time>2026-05-03T13:33:07.637Z</time></trkpt><trkpt lat="44.7139911" lon="9.3820492"><ele>314.0</ele><time>2026-05-03T13:33:08.634Z</time></trkpt><trkpt lat="44.7139964" lon="9.3821974"><ele>314.0</ele><time>2026-05-03T13:33:09.629Z</time></trkpt><trkpt lat="44.714" lon="9.3823519"><ele>314.75</ele><time>2026-05-03T13:33:10.658Z</time></trkpt><trkpt lat="44.7140177" lon="9.382518"><ele>315.5</ele><time>2026-05-03T13:33:11.658Z</time></trkpt><trkpt lat="44.7140585" lon="9.3826581"><ele>316.25</ele><time>2026-05-03T13:33:12.659Z</time></trkpt><trkpt lat="44.7141247" lon="9.3827771"><ele>317.0</ele><time>2026-05-03T13:33:13.659Z</time></trkpt><trkpt lat="44.7142123" lon="9.382892"><ele>317.0</ele><time>2026-05-03T13:33:14.632Z</time></trkpt><trkpt lat="44.7142994" lon="9.3830092"><ele>317.0</ele><time>2026-05-03T13:33:15.628Z</time></trkpt><trkpt lat="44.7143822" lon="9.383116"><ele>317.0</ele><time>2026-05-03T13:33:16.627Z</time></trkpt><trkpt lat="44.7144672" lon="9.3832255"><ele>317.0</ele><time>2026-05-03T13:33:17.635Z</time></trkpt><trkpt lat="44.7145309" lon="9.383349"><ele>315.75</ele><time>2026-05-03T13:33:18.628Z</time></trkpt><trkpt lat="44.7145871" lon="9.3834856"><ele>314.5</ele><time>2026-05-03T13:33:19.628Z</time></trkpt><trkpt lat="44.7146394" lon="9.383641"><ele>313.25</ele><time>2026-05-03T13:33:20.629Z</time></trkpt><trkpt lat="44.7146892" lon="9.3837994"><ele>312.0</ele><time>2026-05-03T13:33:21.629Z</time></trkpt><trkpt lat="44.7147355" lon="9.3839859"><ele>310.6666666666667</ele><time>2026-05-03T13:33:22.633Z</time></trkpt><trkpt lat="44.7147714" lon="9.3841812"><ele>309.33333333333337</ele><time>2026-05-03T13:33:23.63Z</time></trkpt><trkpt lat="44.7147912" lon="9.3844228"><ele>308.0</ele><time>2026-05-03T13:33:24.633Z</time></trkpt><trkpt lat="44.7148205" lon="9.3846331"><ele>308.0</ele><time>2026-05-03T13:33:25.619Z</time></trkpt><trkpt lat="44.7149029" lon="9.3848313"><ele>308.0</ele><time>2026-05-03T13:33:26.612Z</time></trkpt><trkpt lat="44.714995" lon="9.3850021"><ele>308.0</ele><time>2026-05-03T13:33:27.625Z</time></trkpt><trkpt lat="44.715095" lon="9.3851668"><ele>308.0</ele><time>2026-05-03T13:33:28.621Z</time></trkpt><trkpt lat="44.7151983" lon="9.3853336"><ele>308.0</ele><time>2026-05-03T13:33:29.608Z</time></trkpt><trkpt lat="44.7152852" lon="9.3855135"><ele>308.0</ele><time>2026-05-03T13:33:30.596Z</time></trkpt><trkpt lat="44.7150387" lon="9.3856786"><ele>310.33333333333337</ele><time>2026-05-03T13:33:31.606Z</time></trkpt><trkpt lat="44.7151256" lon="9.3859278"><ele>312.6666666666667</ele><time>2026-05-03T13:33:32.609Z</time></trkpt><trkpt lat="44.7151936" lon="9.3861745"><ele>315.0</ele><time>2026-05-03T13:33:33.589Z</time></trkpt><trkpt lat="44.7150442" lon="9.3864453"><ele>313.6666666666667</ele><time>2026-05-03T13:33:34.615Z</time></trkpt><trkpt lat="44.7151298" lon="9.3867595"><ele>312.33333333333337</ele><time>2026-05-03T13:33:35.625Z</time></trkpt><trkpt lat="44.7152255" lon="9.387016"><ele>311.0</ele><time>2026-05-03T13:33:36.628Z</time></trkpt><trkpt lat="44.7153143" lon="9.3872837"><ele>311.0</ele><time>2026-05-03T13:33:37.63Z</time></trkpt><trkpt lat="44.715436" lon="9.3875445"><ele>311.0</ele><time>2026-05-03T13:33:38.635Z</time></trkpt><trkpt lat="44.7155621" lon="9.3877958"><ele>311.0</ele><time>2026-05-03T13:33:39.628Z</time></trkpt><trkpt lat="44.7156886" lon="9.3880342"><ele>309.0</ele><time>2026-05-03T13:33:40.625Z</time></trkpt><trkpt lat="44.7158162" lon="9.388263"><ele>307.0</ele><time>2026-05-03T13:33:41.6Z</time></trkpt><trkpt lat="44.715939" lon="9.3884939"><ele>305.0</ele><time>2026-05-03T13:33:42.601Z</time></trkpt><trkpt lat="44.7160753" lon="9.3887248"><ele>307.33333333333337</ele><time>2026-05-03T13:33:43.601Z</time></trkpt><trkpt lat="44.7162132" lon="9.3889587"><ele>309.6666666666667</ele><time>2026-05-03T13:33:44.601Z</time></trkpt><trkpt lat="44.716351" lon="9.389193"><ele>312.0</ele><time>2026-05-03T13:33:45.599Z</time></trkpt><trkpt lat="44.716496" lon="9.3894245"><ele>312.0</ele><time>2026-05-03T13:33:46.624Z</time></trkpt><trkpt lat="44.716642" lon="9.3896582"><ele>312.0</ele><time>2026-05-03T13:33:47.616Z</time></trkpt><trkpt lat="44.716788" lon="9.3898917"><ele>312.0</ele><time>2026-05-03T13:33:48.591Z</time></trkpt><trkpt lat="44.7169342" lon="9.3901231"><ele>322.0</ele><time>2026-05-03T13:33:49.59Z</time></trkpt><trkpt lat="44.7170801" lon="9.3903552"><ele>332.0</ele><time>2026-05-03T13:33:50.59Z</time></trkpt><trkpt lat="44.7248575" lon="9.3909323"><ele>336.0</ele><time>2026-05-03T13:35:59.618Z</time></trkpt><trkpt lat="44.7248878" lon="9.390782"><ele>340.0</ele><time>2026-05-03T13:36:00.611Z</time></trkpt><trkpt lat="44.7249158" lon="9.3906957"><ele>344.0</ele><time>2026-05-03T13:36:01.615Z</time></trkpt><trkpt lat="44.7248019" lon="9.3907589"><ele>348.0</ele><time>2026-05-03T13:36:02.615Z</time></trkpt><trkpt lat="44.7248926" lon="9.390444"><ele>350.75</ele><time>2026-05-03T13:36:03.615Z</time></trkpt><trkpt lat="44.7248304" lon="9.3903772"><ele>353.5</ele><time>2026-05-03T13:36:04.614Z</time></trkpt><trkpt lat="44.7248067" lon="9.3902724"><ele>356.25</ele><time>2026-05-03T13:36:05.645Z</time></trkpt><trkpt lat="44.7248193" lon="9.3901417"><ele>359.0</ele><time>2026-05-03T13:36:07.645Z</time></trkpt><trkpt lat="44.7248613" lon="9.3897005"><ele>358.33333333333337</ele><time>2026-05-03T13:36:09.61Z</time></trkpt><trkpt lat="44.7249266" lon="9.38943"><ele>357.6666666666667</ele><time>2026-05-03T13:36:11.611Z</time></trkpt><trkpt lat="44.7247292" lon="9.3896127"><ele>357.0</ele><time>2026-05-03T13:36:12.621Z</time></trkpt><trkpt lat="44.7248127" lon="9.3893926"><ele>357.0</ele><time>2026-05-03T13:36:13.62Z</time></trkpt><trkpt lat="44.7248858" lon="9.3893037"><ele>357.0</ele><time>2026-05-03T13:36:14.608Z</time></trkpt><trkpt lat="44.7249311" lon="9.3892045"><ele>357.0</ele><time>2026-05-03T13:36:15.61Z</time></trkpt><trkpt lat="44.7249995" lon="9.3890609"><ele>357.0</ele><time>2026-05-03T13:36:16.616Z</time></trkpt><trkpt lat="44.7250807" lon="9.3889166"><ele>357.0</ele><time>2026-05-03T13:36:17.618Z</time></trkpt><trkpt lat="44.7251494" lon="9.3889096"><ele>360.0</ele><time>2026-05-03T13:36:18.614Z</time></trkpt><trkpt lat="44.7251965" lon="9.388817"><ele>363.0</ele><time>2026-05-03T13:36:19.611Z</time></trkpt><trkpt lat="44.7252659" lon="9.3887172"><ele>366.0</ele><time>2026-05-03T13:36:20.611Z</time></trkpt><trkpt lat="44.7253594" lon="9.3886662"><ele>369.0</ele><time>2026-05-03T13:36:21.612Z</time></trkpt><trkpt lat="44.7255825" lon="9.3885743"><ele>369.0</ele><time>2026-05-03T13:36:23.604Z</time></trkpt><trkpt lat="44.7256631" lon="9.3885167"><ele>369.0</ele><time>2026-05-03T13:36:24.614Z</time></trkpt><trkpt lat="44.7257015" lon="9.3883578"><ele>369.0</ele><time>2026-05-03T13:36:25.614Z</time></trkpt><trkpt lat="44.7258332" lon="9.3883449"><ele>369.0</ele><time>2026-05-03T13:36:26.616Z</time></trkpt><trkpt lat="44.7258582" lon="9.3881446"><ele>369.0</ele><time>2026-05-03T13:36:27.612Z</time></trkpt><trkpt lat="44.7259317" lon="9.3880439"><ele>369.0</ele><time>2026-05-03T13:36:28.61Z</time></trkpt><trkpt lat="44.7259774" lon="9.3878668"><ele>369.0</ele><time>2026-05-03T13:36:29.612Z</time></trkpt><trkpt lat="44.7259978" lon="9.3877017"><ele>369.0</ele><time>2026-05-03T13:36:30.61Z</time></trkpt><trkpt lat="44.7260847" lon="9.3875874"><ele>375.5</ele><time>2026-05-03T13:36:31.611Z</time></trkpt><trkpt lat="44.7261483" lon="9.3875017"><ele>382.0</ele><time>2026-05-03T13:36:32.613Z</time></trkpt><trkpt lat="44.7262473" lon="9.3874045"><ele>388.5</ele><time>2026-05-03T13:36:33.613Z</time></trkpt><trkpt lat="44.7264127" lon="9.3872331"><ele>395.0</ele><time>2026-05-03T13:36:35.611Z</time></trkpt><trkpt lat="44.7265581" lon="9.3872807"><ele>388.66666666666663</ele><time>2026-05-03T13:36:36.62Z</time></trkpt><trkpt lat="44.7265663" lon="9.3869623"><ele>382.3333333333333</ele><time>2026-05-03T13:36:37.627Z</time></trkpt><trkpt lat="44.7265867" lon="9.3867692"><ele>376.0</ele><time>2026-05-03T13:36:38.622Z</time></trkpt><trkpt lat="44.7263862" lon="9.3865128"><ele>376.0</ele><time>2026-05-03T13:36:39.62Z</time></trkpt><trkpt lat="44.7263853" lon="9.3863465"><ele>376.0</ele><time>2026-05-03T13:36:40.624Z</time></trkpt><trkpt lat="44.7263375" lon="9.3862046"><ele>376.0</ele><time>2026-05-03T13:36:41.634Z</time></trkpt><trkpt lat="44.7262904" lon="9.3860805"><ele>376.0</ele><time>2026-05-03T13:36:42.634Z</time></trkpt><trkpt lat="44.7262552" lon="9.3859768"><ele>376.0</ele><time>2026-05-03T13:36:43.635Z</time></trkpt><trkpt lat="44.7262316" lon="9.3858747"><ele>371.25</ele><time>2026-05-03T13:36:44.636Z</time></trkpt><trkpt lat="44.7262032" lon="9.3857024"><ele>366.5</ele><time>2026-05-03T13:36:46.635Z</time></trkpt><trkpt lat="44.7261588" lon="9.3855368"><ele>361.75</ele><time>2026-05-03T13:36:48.635Z</time></trkpt><trkpt lat="44.7261326" lon="9.385359"><ele>357.0</ele><time>2026-05-03T13:36:50.633Z</time></trkpt><trkpt lat="44.7261354" lon="9.3851919"><ele>350.3333333333333</ele><time>2026-05-03T13:36:52.642Z</time></trkpt><trkpt lat="44.7261796" lon="9.3851277"><ele>343.6666666666667</ele><time>2026-05-03T13:36:53.635Z</time></trkpt><trkpt lat="44.7262384" lon="9.3850801"><ele>337.0</ele><time>2026-05-03T13:36:54.639Z</time></trkpt><trkpt lat="44.7263156" lon="9.3850756"><ele>330.33333333333337</ele><time>2026-05-03T13:36:55.637Z</time></trkpt><trkpt lat="44.7263981" lon="9.3850984"><ele>323.6666666666667</ele><time>2026-05-03T13:36:56.636Z</time></trkpt><trkpt lat="44.7264864" lon="9.3851538"><ele>317.0</ele><time>2026-05-03T13:36:57.636Z</time></trkpt><trkpt lat="44.7265719" lon="9.3852067"><ele>317.0</ele><time>2026-05-03T13:36:58.613Z</time></trkpt><trkpt lat="44.7266613" lon="9.3852661"><ele>317.0</ele><time>2026-05-03T13:36:59.609Z</time></trkpt><trkpt lat="44.7267424" lon="9.3853404"><ele>317.0</ele><time>2026-05-03T13:37:00.604Z</time></trkpt><trkpt lat="44.7268185" lon="9.3854262"><ele>317.0</ele><time>2026-05-03T13:37:01.602Z</time></trkpt><trkpt lat="44.7268958" lon="9.3855074"><ele>317.0</ele><time>2026-05-03T13:37:02.6Z</time></trkpt><trkpt lat="44.7269757" lon="9.3855849"><ele>320.2</ele><time>2026-05-03T13:37:03.597Z</time></trkpt><trkpt lat="44.7270577" lon="9.3856594"><ele>323.4</ele><time>2026-05-03T13:37:04.598Z</time></trkpt><trkpt lat="44.7271366" lon="9.3857283"><ele>326.59999999999997</ele><time>2026-05-03T13:37:05.599Z</time></trkpt><trkpt lat="44.7272131" lon="9.3857944"><ele>329.79999999999995</ele><time>2026-05-03T13:37:06.589Z</time></trkpt><trkpt lat="44.7272893" lon="9.38586"><ele>333.0</ele><time>2026-05-03T13:37:07.591Z</time></trkpt><trkpt lat="44.7273653" lon="9.3859253"><ele>333.0</ele><time>2026-05-03T13:37:08.591Z</time></trkpt><trkpt lat="44.7274414" lon="9.3859906"><ele>333.0</ele><time>2026-05-03T13:37:09.591Z</time></trkpt><trkpt lat="44.7275175" lon="9.3860552"><ele>333.0</ele><time>2026-05-03T13:37:10.592Z</time></trkpt><trkpt lat="44.7275937" lon="9.3861199"><ele>333.0</ele><time>2026-05-03T13:37:11.59Z</time></trkpt><trkpt lat="44.7276699" lon="9.3861837"><ele>333.0</ele><time>2026-05-03T13:37:12.6Z</time></trkpt><trkpt lat="44.7277481" lon="9.386246"><ele>333.0</ele><time>2026-05-03T13:37:13.605Z</time></trkpt><trkpt lat="44.7278268" lon="9.3863062"><ele>338.4</ele><time>2026-05-03T13:37:14.608Z</time></trkpt><trkpt lat="44.7279112" lon="9.3863466"><ele>343.79999999999995</ele><time>2026-05-03T13:37:15.608Z</time></trkpt><trkpt lat="44.7279964" lon="9.3863752"><ele>349.2</ele><time>2026-05-03T13:37:16.608Z</time></trkpt><trkpt lat="44.7280916" lon="9.3863962"><ele>354.6</ele><time>2026-05-03T13:37:17.61Z</time></trkpt><trkpt lat="44.728187" lon="9.3864111"><ele>360.0</ele><time>2026-05-03T13:37:18.607Z</time></trkpt><trkpt lat="44.7282801" lon="9.3864259"><ele>360.0</ele><time>2026-05-03T13:37:19.619Z</time></trkpt><trkpt lat="44.7283671" lon="9.3864493"><ele>360.0</ele><time>2026-05-03T13:37:20.608Z</time></trkpt><trkpt lat="44.7284401" lon="9.3864836"><ele>360.0</ele><time>2026-05-03T13:37:21.608Z</time></trkpt><trkpt lat="44.7285255" lon="9.3865694"><ele>360.0</ele><time>2026-05-03T13:37:22.631Z</time></trkpt><trkpt lat="44.7285969" lon="9.386708"><ele>360.0</ele><time>2026-05-03T13:37:23.633Z</time></trkpt><trkpt lat="44.7286476" lon="9.3868331"><ele>362.5</ele><time>2026-05-03T13:37:24.646Z</time></trkpt><trkpt lat="44.72868" lon="9.386937"><ele>365.0</ele><time>2026-05-03T13:37:25.634Z</time></trkpt><trkpt lat="44.7287084" lon="9.3870359"><ele>367.5</ele><time>2026-05-03T13:37:26.634Z</time></trkpt><trkpt lat="44.7287554" lon="9.3871196"><ele>370.0</ele><time>2026-05-03T13:37:27.636Z</time></trkpt><trkpt lat="44.7288104" lon="9.3871811"><ele>372.5</ele><time>2026-05-03T13:37:28.616Z</time></trkpt><trkpt lat="44.728894" lon="9.3872297"><ele>375.0</ele><time>2026-05-03T13:37:29.622Z</time></trkpt><trkpt lat="44.7289937" lon="9.387275"><ele>375.0</ele><time>2026-05-03T13:37:30.608Z</time></trkpt><trkpt lat="44.7291029" lon="9.3873051"><ele>375.0</ele><time>2026-05-03T13:37:31.609Z</time></trkpt><trkpt lat="44.7292184" lon="9.387312"><ele>375.0</ele><time>2026-05-03T13:37:32.609Z</time></trkpt><trkpt lat="44.7293211" lon="9.3873013"><ele>375.0</ele><time>2026-05-03T13:37:33.607Z</time></trkpt><trkpt lat="44.7294013" lon="9.3872851"><ele>375.0</ele><time>2026-05-03T13:37:34.622Z</time></trkpt><trkpt lat="44.7294706" lon="9.387289"><ele>367.2</ele><time>2026-05-03T13:37:35.608Z</time></trkpt><trkpt lat="44.7295459" lon="9.3873378"><ele>359.4</ele><time>2026-05-03T13:37:36.608Z</time></trkpt><trkpt lat="44.72962" lon="9.3874166"><ele>351.6</ele><time>2026-05-03T13:37:37.61Z</time></trkpt><trkpt lat="44.7296934" lon="9.3875135"><ele>343.8</ele><time>2026-05-03T13:37:38.607Z</time></trkpt><trkpt lat="44.7297714" lon="9.3876092"><ele>336.0</ele><time>2026-05-03T13:37:39.612Z</time></trkpt><trkpt lat="44.7298515" lon="9.3876765"><ele>336.0</ele><time>2026-05-03T13:37:40.621Z</time></trkpt><trkpt lat="44.7299323" lon="9.387711"><ele>336.0</ele><time>2026-05-03T13:37:41.609Z</time></trkpt><trkpt lat="44.7300062" lon="9.3877392"><ele>336.0</ele><time>2026-05-03T13:37:42.612Z</time></trkpt><trkpt lat="44.7300718" lon="9.3877782"><ele>336.0</ele><time>2026-05-03T13:37:43.608Z</time></trkpt><trkpt lat="44.7301461" lon="9.3878199"><ele>336.0</ele><time>2026-05-03T13:37:44.612Z</time></trkpt><trkpt lat="44.7302306" lon="9.3878672"><ele>336.0</ele><time>2026-05-03T13:37:45.625Z</time></trkpt><trkpt lat="44.7303199" lon="9.3879102"><ele>330.8</ele><time>2026-05-03T13:37:46.613Z</time></trkpt><trkpt lat="44.7304153" lon="9.3879456"><ele>325.6</ele><time>2026-05-03T13:37:47.61Z</time></trkpt><trkpt lat="44.73051" lon="9.3879617"><ele>320.4</ele><time>2026-05-03T13:37:48.609Z</time></trkpt><trkpt lat="44.7306038" lon="9.3879602"><ele>315.2</ele><time>2026-05-03T13:37:49.608Z</time></trkpt><trkpt lat="44.7307" lon="9.3879638"><ele>310.0</ele><time>2026-05-03T13:37:50.619Z</time></trkpt><trkpt lat="44.7307879" lon="9.3879808"><ele>315.16666666666663</ele><time>2026-05-03T13:37:51.629Z</time></trkpt><trkpt lat="44.7308618" lon="9.3880412"><ele>320.3333333333333</ele><time>2026-05-03T13:37:52.642Z</time></trkpt><trkpt lat="44.7309262" lon="9.3881401"><ele>325.5</ele><time>2026-05-03T13:37:53.639Z</time></trkpt><trkpt lat="44.73098" lon="9.3882398"><ele>330.6666666666667</ele><time>2026-05-03T13:37:54.637Z</time></trkpt><trkpt lat="44.7310323" lon="9.3883383"><ele>335.83333333333337</ele><time>2026-05-03T13:37:55.647Z</time></trkpt><trkpt lat="44.7310937" lon="9.3884225"><ele>341.0</ele><time>2026-05-03T13:37:56.617Z</time></trkpt><trkpt lat="44.7311664" lon="9.388485"><ele>341.0</ele><time>2026-05-03T13:37:57.611Z</time></trkpt><trkpt lat="44.7312494" lon="9.3885144"><ele>341.0</ele><time>2026-05-03T13:37:58.61Z</time></trkpt><trkpt lat="44.7313398" lon="9.3885105"><ele>341.0</ele><time>2026-05-03T13:37:59.612Z</time></trkpt><trkpt lat="44.7314246" lon="9.3884891"><ele>341.0</ele><time>2026-05-03T13:38:00.615Z</time></trkpt><trkpt lat="44.7315073" lon="9.3884635"><ele>341.0</ele><time>2026-05-03T13:38:01.622Z</time></trkpt><trkpt lat="44.7315986" lon="9.3884329"><ele>341.0</ele><time>2026-05-03T13:38:02.612Z</time></trkpt><trkpt lat="44.7316987" lon="9.3884171"><ele>341.0</ele><time>2026-05-03T13:38:03.609Z</time></trkpt><trkpt lat="44.7317925" lon="9.3884169"><ele>341.0</ele><time>2026-05-03T13:38:04.613Z</time></trkpt><trkpt lat="44.7318822" lon="9.3884328"><ele>341.0</ele><time>2026-05-03T13:38:05.612Z</time></trkpt><trkpt lat="44.7319649" lon="9.3884649"><ele>341.0</ele><time>2026-05-03T13:38:06.623Z</time></trkpt><trkpt lat="44.7320426" lon="9.3885057"><ele>341.0</ele><time>2026-05-03T13:38:07.618Z</time></trkpt><trkpt lat="44.7321131" lon="9.3885508"><ele>341.0</ele><time>2026-05-03T13:38:08.61Z</time></trkpt><trkpt lat="44.7321829" lon="9.3886216"><ele>337.1666666666667</ele><time>2026-05-03T13:38:09.616Z</time></trkpt><trkpt lat="44.7322508" lon="9.3886993"><ele>333.33333333333337</ele><time>2026-05-03T13:38:10.609Z</time></trkpt><trkpt lat="44.732313" lon="9.3887953"><ele>329.5</ele><time>2026-05-03T13:38:11.624Z</time></trkpt><trkpt lat="44.7323731" lon="9.3888902"><ele>325.6666666666667</ele><time>2026-05-03T13:38:12.608Z</time></trkpt><trkpt lat="44.732434" lon="9.3889724"><ele>321.8333333333333</ele><time>2026-05-03T13:38:13.6Z</time></trkpt><trkpt lat="44.732495" lon="9.3890551"><ele>318.0</ele><time>2026-05-03T13:38:14.6Z</time></trkpt><trkpt lat="44.7325555" lon="9.3891364"><ele>324.0</ele><time>2026-05-03T13:38:15.602Z</time></trkpt><trkpt lat="44.7326267" lon="9.3892215"><ele>330.0</ele><time>2026-05-03T13:38:16.614Z</time></trkpt><trkpt lat="44.7327032" lon="9.3892939"><ele>336.0</ele><time>2026-05-03T13:38:17.612Z</time></trkpt><trkpt lat="44.732795" lon="9.3893514"><ele>342.0</ele><time>2026-05-03T13:38:18.613Z</time></trkpt><trkpt lat="44.7329007" lon="9.3893187"><ele>348.0</ele><time>2026-05-03T13:38:19.63Z</time></trkpt><trkpt lat="44.7330605" lon="9.3893493"><ele>348.0</ele><time>2026-05-03T13:38:20.632Z</time></trkpt><trkpt lat="44.7332858" lon="9.3893336"><ele>348.0</ele><time>2026-05-03T13:38:21.648Z</time></trkpt><trkpt lat="44.7334811" lon="9.3892691"><ele>348.0</ele><time>2026-05-03T13:38:22.638Z</time></trkpt><trkpt lat="44.7336698" lon="9.3891832"><ele>347.0</ele><time>2026-05-03T13:38:23.633Z</time></trkpt><trkpt lat="44.7338674" lon="9.3891556"><ele>346.0</ele><time>2026-05-03T13:38:24.617Z</time></trkpt><trkpt lat="44.7340926" lon="9.3891821"><ele>345.0</ele><time>2026-05-03T13:38:25.607Z</time></trkpt><trkpt lat="44.7342926" lon="9.3892216"><ele>337.5</ele><time>2026-05-03T13:38:26.621Z</time></trkpt><trkpt lat="44.7345091" lon="9.3892953"><ele>330.0</ele><time>2026-05-03T13:38:27.613Z</time></trkpt><trkpt lat="44.7347427" lon="9.3894317"><ele>330.0</ele><time>2026-05-03T13:38:28.61Z</time></trkpt><trkpt lat="44.7349682" lon="9.3895588"><ele>330.0</ele><time>2026-05-03T13:38:29.608Z</time></trkpt><trkpt lat="44.7352024" lon="9.3896646"><ele>345.0</ele><time>2026-05-03T13:38:30.611Z</time></trkpt><trkpt lat="44.7354312" lon="9.389754"><ele>360.0</ele><time>2026-05-03T13:38:31.622Z</time></trkpt><trkpt lat="44.7356537" lon="9.389799"><ele>360.0</ele><time>2026-05-03T13:38:32.61Z</time></trkpt><trkpt lat="44.7358834" lon="9.3897833"><ele>360.0</ele><time>2026-05-03T13:38:33.606Z</time></trkpt><trkpt lat="44.7361045" lon="9.3897365"><ele>361.3333333333333</ele><time>2026-05-03T13:38:34.607Z</time></trkpt><trkpt lat="44.7363206" lon="9.3896985"><ele>362.66666666666663</ele><time>2026-05-03T13:38:35.607Z</time></trkpt><trkpt lat="44.736537" lon="9.3896613"><ele>364.0</ele><time>2026-05-03T13:38:36.611Z</time></trkpt><trkpt lat="44.7367515" lon="9.3896016"><ele>353.66666666666663</ele><time>2026-05-03T13:38:37.625Z</time></trkpt><trkpt lat="44.7369631" lon="9.3895248"><ele>343.3333333333333</ele><time>2026-05-03T13:38:38.609Z</time></trkpt><trkpt lat="44.7371562" lon="9.3893934"><ele>333.0</ele><time>2026-05-03T13:38:39.614Z</time></trkpt><trkpt lat="44.7373156" lon="9.3892492"><ele>333.0</ele><time>2026-05-03T13:38:40.608Z</time></trkpt><trkpt lat="44.7374694" lon="9.3890974"><ele>333.0</ele><time>2026-05-03T13:38:41.608Z</time></trkpt><trkpt lat="44.7376084" lon="9.3889255"><ele>333.0</ele><time>2026-05-03T13:38:42.62Z</time></trkpt><trkpt lat="44.7377443" lon="9.3888005"><ele>331.25</ele><time>2026-05-03T13:38:43.609Z</time></trkpt><trkpt lat="44.7378443" lon="9.3886478"><ele>329.5</ele><time>2026-05-03T13:38:44.61Z</time></trkpt><trkpt lat="44.7379778" lon="9.3885987"><ele>327.75</ele><time>2026-05-03T13:38:45.626Z</time></trkpt><trkpt lat="44.7381206" lon="9.3885266"><ele>326.0</ele><time>2026-05-03T13:38:46.633Z</time></trkpt><trkpt lat="44.7382265" lon="9.3884043"><ele>326.0</ele><time>2026-05-03T13:38:47.648Z</time></trkpt><trkpt lat="44.7383347" lon="9.3882998"><ele>326.0</ele><time>2026-05-03T13:38:48.637Z</time></trkpt><trkpt lat="44.7384338" lon="9.3881588"><ele>326.0</ele><time>2026-05-03T13:38:49.635Z</time></trkpt><trkpt lat="44.738546" lon="9.3880366"><ele>326.0</ele><time>2026-05-03T13:38:50.634Z</time></trkpt><trkpt lat="44.7386424" lon="9.3879346"><ele>326.4</ele><time>2026-05-03T13:38:51.637Z</time></trkpt><trkpt lat="44.7387267" lon="9.3878155"><ele>326.8</ele><time>2026-05-03T13:38:52.647Z</time></trkpt><trkpt lat="44.7387894" lon="9.3877055"><ele>327.2</ele><time>2026-05-03T13:38:53.632Z</time></trkpt><trkpt lat="44.7388398" lon="9.3875979"><ele>327.59999999999997</ele><time>2026-05-03T13:38:54.634Z</time></trkpt><trkpt lat="44.7389028" lon="9.3875085"><ele>328.0</ele><time>2026-05-03T13:38:56.632Z</time></trkpt><trkpt lat="44.7390427" lon="9.3874923"><ele>328.0</ele><time>2026-05-03T13:40:22.65Z</time></trkpt><trkpt lat="44.7391874" lon="9.3873825"><ele>328.0</ele><time>2026-05-03T13:40:23.637Z</time></trkpt><trkpt lat="44.7393246" lon="9.3873086"><ele>328.0</ele><time>2026-05-03T13:40:24.64Z</time></trkpt><trkpt lat="44.7394884" lon="9.3872449"><ele>324.0</ele><time>2026-05-03T13:40:25.639Z</time></trkpt><trkpt lat="44.7396667" lon="9.3872046"><ele>320.0</ele><time>2026-05-03T13:40:26.64Z</time></trkpt><trkpt lat="44.7398674" lon="9.387201"><ele>316.0</ele><time>2026-05-03T13:40:27.655Z</time></trkpt><trkpt lat="44.7400767" lon="9.3872344"><ele>329.3333333333333</ele><time>2026-05-03T13:40:28.645Z</time></trkpt><trkpt lat="44.7402979" lon="9.3872717"><ele>342.6666666666667</ele><time>2026-05-03T13:40:29.638Z</time></trkpt><trkpt lat="44.7404989" lon="9.3873381"><ele>356.0</ele><time>2026-05-03T13:40:30.638Z</time></trkpt><trkpt lat="44.7406786" lon="9.3874113"><ele>356.0</ele><time>2026-05-03T13:40:31.64Z</time></trkpt><trkpt lat="44.7408584" lon="9.3874969"><ele>356.0</ele><time>2026-05-03T13:40:32.625Z</time></trkpt><trkpt lat="44.7439829" lon="9.3890786"><ele>343.0</ele><time>2026-05-03T13:40:48.622Z</time></trkpt><trkpt lat="44.7442113" lon="9.389072"><ele>330.0</ele><time>2026-05-03T13:40:49.62Z</time></trkpt><trkpt lat="44.7445231" lon="9.3892854"><ele>333.5</ele><time>2026-05-03T13:40:50.619Z</time></trkpt><trkpt lat="44.7447768" lon="9.3894204"><ele>337.0</ele><time>2026-05-03T13:40:51.619Z</time></trkpt><trkpt lat="44.7480674" lon="9.389067"><ele>322.0</ele><time>2026-05-03T13:41:09.622Z</time></trkpt><trkpt lat="44.7481727" lon="9.3887684"><ele>307.0</ele><time>2026-05-03T13:41:10.618Z</time></trkpt><trkpt lat="44.7482597" lon="9.388481"><ele>307.0</ele><time>2026-05-03T13:41:11.616Z</time></trkpt><trkpt lat="44.7484072" lon="9.3883073"><ele>307.0</ele><time>2026-05-03T13:41:12.616Z</time></trkpt><trkpt lat="44.7485316" lon="9.3880724"><ele>307.0</ele><time>2026-05-03T13:41:13.617Z</time></trkpt><trkpt lat="44.7486231" lon="9.3878492"><ele>315.0</ele><time>2026-05-03T13:41:14.615Z</time></trkpt><trkpt lat="44.7487099" lon="9.3875782"><ele>323.0</ele><time>2026-05-03T13:41:15.616Z</time></trkpt><trkpt lat="44.7487854" lon="9.3873131"><ele>331.0</ele><time>2026-05-03T13:41:16.615Z</time></trkpt><trkpt lat="44.7488252" lon="9.3869879"><ele>317.0</ele><time>2026-05-03T13:41:17.618Z</time></trkpt><trkpt lat="44.7488715" lon="9.3863285"><ele>317.0</ele><time>2026-05-03T13:41:19.608Z</time></trkpt><trkpt lat="44.748888" lon="9.386026"><ele>317.0</ele><time>2026-05-03T13:41:20.621Z</time></trkpt><trkpt lat="44.7489179" lon="9.3857945"><ele>317.0</ele><time>2026-05-03T13:41:21.623Z</time></trkpt><trkpt lat="44.7489017" lon="9.3854565"><ele>314.33333333333337</ele><time>2026-05-03T13:41:22.63Z</time></trkpt><trkpt lat="44.748931" lon="9.3851795"><ele>311.6666666666667</ele><time>2026-05-03T13:41:23.637Z</time></trkpt><trkpt lat="44.7489461" lon="9.3849514"><ele>309.0</ele><time>2026-05-03T13:41:24.636Z</time></trkpt><trkpt lat="44.7489709" lon="9.3847218"><ele>310.5</ele><time>2026-05-03T13:41:25.637Z</time></trkpt><trkpt lat="44.7489814" lon="9.3843997"><ele>312.0</ele><time>2026-05-03T13:41:26.635Z</time></trkpt><trkpt lat="44.7489782" lon="9.3840476"><ele>309.5</ele><time>2026-05-03T13:41:27.636Z</time></trkpt><trkpt lat="44.7489728" lon="9.3837173"><ele>307.0</ele><time>2026-05-03T13:41:28.637Z</time></trkpt><trkpt lat="44.7489451" lon="9.3833766"><ele>307.0</ele><time>2026-05-03T13:41:29.637Z</time></trkpt><trkpt lat="44.7489083" lon="9.3830386"><ele>307.0</ele><time>2026-05-03T13:41:30.636Z</time></trkpt><trkpt lat="44.7488618" lon="9.3827628"><ele>307.0</ele><time>2026-05-03T13:41:31.638Z</time></trkpt><trkpt lat="44.7488018" lon="9.3824724"><ele>304.3333333333333</ele><time>2026-05-03T13:41:32.636Z</time></trkpt><trkpt lat="44.748761" lon="9.3821653"><ele>301.6666666666667</ele><time>2026-05-03T13:41:33.637Z</time></trkpt><trkpt lat="44.748749" lon="9.3818596"><ele>299.0</ele><time>2026-05-03T13:41:34.636Z</time></trkpt><trkpt lat="44.7487547" lon="9.3815631"><ele>294.33333333333337</ele><time>2026-05-03T13:41:35.632Z</time></trkpt><trkpt lat="44.7487928" lon="9.38128"><ele>289.6666666666667</ele><time>2026-05-03T13:41:36.632Z</time></trkpt><trkpt lat="44.7488788" lon="9.3810138"><ele>285.0</ele><time>2026-05-03T13:41:37.638Z</time></trkpt><trkpt lat="44.7490044" lon="9.3807184"><ele>280.5</ele><time>2026-05-03T13:41:38.633Z</time></trkpt><trkpt lat="44.7491706" lon="9.3804738"><ele>276.0</ele><time>2026-05-03T13:41:39.642Z</time></trkpt><trkpt lat="44.7493617" lon="9.3802023"><ele>273.0</ele><time>2026-05-03T13:41:40.637Z</time></trkpt><trkpt lat="44.749576" lon="9.3800018"><ele>270.0</ele><time>2026-05-03T13:41:41.635Z</time></trkpt><trkpt lat="44.7497838" lon="9.3797922"><ele>269.0</ele><time>2026-05-03T13:41:42.643Z</time></trkpt><trkpt lat="44.7499937" lon="9.3796497"><ele>268.0</ele><time>2026-05-03T13:41:43.641Z</time></trkpt><trkpt lat="44.7501952" lon="9.3795602"><ele>267.0</ele><time>2026-05-03T13:41:44.643Z</time></trkpt><trkpt lat="44.7504032" lon="9.3795582"><ele>267.0</ele><time>2026-05-03T13:41:45.644Z</time></trkpt><trkpt lat="44.7506339" lon="9.3796066"><ele>267.0</ele><time>2026-05-03T13:41:46.643Z</time></trkpt><trkpt lat="44.7508144" lon="9.3796697"><ele>267.0</ele><time>2026-05-03T13:41:47.648Z</time></trkpt><trkpt lat="44.7510382" lon="9.3796963"><ele>266.0</ele><time>2026-05-03T13:41:48.644Z</time></trkpt><trkpt lat="44.7512747" lon="9.379726"><ele>265.0</ele><time>2026-05-03T13:41:49.65Z</time></trkpt><trkpt lat="44.7515104" lon="9.3797446"><ele>265.0</ele><time>2026-05-03T13:41:50.646Z</time></trkpt><trkpt lat="44.7517289" lon="9.3797653"><ele>265.0</ele><time>2026-05-03T13:41:51.646Z</time></trkpt><trkpt lat="44.7519553" lon="9.3797931"><ele>265.0</ele><time>2026-05-03T13:41:52.646Z</time></trkpt><trkpt lat="44.7521824" lon="9.3798277"><ele>263.5</ele><time>2026-05-03T13:41:53.643Z</time></trkpt><trkpt lat="44.7524233" lon="9.3798467"><ele>262.0</ele><time>2026-05-03T13:41:54.644Z</time></trkpt><trkpt lat="44.7526665" lon="9.3798725"><ele>262.66666666666663</ele><time>2026-05-03T13:41:55.645Z</time></trkpt><trkpt lat="44.7528794" lon="9.3798867"><ele>263.3333333333333</ele><time>2026-05-03T13:41:56.642Z</time></trkpt><trkpt lat="44.7530872" lon="9.3798937"><ele>264.0</ele><time>2026-05-03T13:41:57.642Z</time></trkpt><trkpt lat="44.7533088" lon="9.379905"><ele>264.0</ele><time>2026-05-03T13:41:58.645Z</time></trkpt><trkpt lat="44.7535221" lon="9.379937"><ele>264.0</ele><time>2026-05-03T13:41:59.643Z</time></trkpt><trkpt lat="44.7537323" lon="9.3799076"><ele>264.0</ele><time>2026-05-03T13:42:00.647Z</time></trkpt><trkpt lat="44.7539278" lon="9.3799844"><ele>267.5</ele><time>2026-05-03T13:42:01.645Z</time></trkpt><trkpt lat="44.7541291" lon="9.3800864"><ele>271.0</ele><time>2026-05-03T13:42:02.64Z</time></trkpt><trkpt lat="44.7543301" lon="9.3802631"><ele>271.0</ele><time>2026-05-03T13:42:03.639Z</time></trkpt><trkpt lat="44.7545318" lon="9.3803937"><ele>271.0</ele><time>2026-05-03T13:42:04.638Z</time></trkpt><trkpt lat="44.7547021" lon="9.3805774"><ele>271.0</ele><time>2026-05-03T13:42:05.646Z</time></trkpt><trkpt lat="44.7548737" lon="9.380763"><ele>271.0</ele><time>2026-05-03T13:42:06.642Z</time></trkpt><trkpt lat="44.755061" lon="9.3809474"><ele>271.0</ele><time>2026-05-03T13:42:07.645Z</time></trkpt><trkpt lat="44.7552406" lon="9.3811298"><ele>270.5</ele><time>2026-05-03T13:42:08.64Z</time></trkpt><trkpt lat="44.7554501" lon="9.3812904"><ele>270.0</ele><time>2026-05-03T13:42:09.641Z</time></trkpt><trkpt lat="44.7556228" lon="9.3814612"><ele>270.0</ele><time>2026-05-03T13:42:10.635Z</time></trkpt><trkpt lat="44.7558007" lon="9.3816151"><ele>270.0</ele><time>2026-05-03T13:42:11.642Z</time></trkpt><trkpt lat="44.7559707" lon="9.381791"><ele>270.0</ele><time>2026-05-03T13:42:12.637Z</time></trkpt><trkpt lat="44.756153" lon="9.3819317"><ele>270.3333333333333</ele><time>2026-05-03T13:42:13.647Z</time></trkpt><trkpt lat="44.7563383" lon="9.3820539"><ele>270.66666666666663</ele><time>2026-05-03T13:42:14.646Z</time></trkpt><trkpt lat="44.7565606" lon="9.3821251"><ele>271.0</ele><time>2026-05-03T13:42:15.648Z</time></trkpt><trkpt lat="44.7567639" lon="9.382129"><ele>270.3333333333333</ele><time>2026-05-03T13:42:16.643Z</time></trkpt><trkpt lat="44.7569877" lon="9.3821482"><ele>269.6666666666667</ele><time>2026-05-03T13:42:17.639Z</time></trkpt><trkpt lat="44.7571926" lon="9.3821175"><ele>269.0</ele><time>2026-05-03T13:42:18.646Z</time></trkpt><trkpt lat="44.7573676" lon="9.3820407"><ele>269.0</ele><time>2026-05-03T13:42:19.654Z</time></trkpt><trkpt lat="44.7575844" lon="9.3819996"><ele>269.0</ele><time>2026-05-03T13:42:20.651Z</time></trkpt><trkpt lat="44.7578015" lon="9.3819455"><ele>269.0</ele><time>2026-05-03T13:42:21.657Z</time></trkpt><trkpt lat="44.7579777" lon="9.3819399"><ele>268.33333333333337</ele><time>2026-05-03T13:42:22.656Z</time></trkpt><trkpt lat="44.7581881" lon="9.3818855"><ele>267.6666666666667</ele><time>2026-05-03T13:42:23.655Z</time></trkpt><trkpt lat="44.7583864" lon="9.3818823"><ele>267.0</ele><time>2026-05-03T13:42:24.649Z</time></trkpt><trkpt lat="44.7586013" lon="9.3818629"><ele>266.6666666666667</ele><time>2026-05-03T13:42:25.646Z</time></trkpt><trkpt lat="44.7588072" lon="9.3818284"><ele>266.33333333333337</ele><time>2026-05-03T13:42:26.647Z</time></trkpt><trkpt lat="44.7589892" lon="9.3818178"><ele>266.0</ele><time>2026-05-03T13:42:27.648Z</time></trkpt><trkpt lat="44.7591748" lon="9.3817685"><ele>266.0</ele><time>2026-05-03T13:42:28.65Z</time></trkpt><trkpt lat="44.7593604" lon="9.3817368"><ele>266.0</ele><time>2026-05-03T13:42:29.65Z</time></trkpt><trkpt lat="44.7595229" lon="9.381714"><ele>266.0</ele><time>2026-05-03T13:42:30.653Z</time></trkpt><trkpt lat="44.7596995" lon="9.381669"><ele>266.0</ele><time>2026-05-03T13:42:31.656Z</time></trkpt><trkpt lat="44.759878" lon="9.3816931"><ele>266.0</ele><time>2026-05-03T13:42:32.647Z</time></trkpt><trkpt lat="44.7600437" lon="9.3816927"><ele>266.0</ele><time>2026-05-03T13:42:33.647Z</time></trkpt><trkpt lat="44.7602125" lon="9.3817199"><ele>266.6666666666667</ele><time>2026-05-03T13:42:34.651Z</time></trkpt><trkpt lat="44.7603953" lon="9.3818329"><ele>267.3333333333333</ele><time>2026-05-03T13:42:35.642Z</time></trkpt><trkpt lat="44.7605404" lon="9.3818988"><ele>268.0</ele><time>2026-05-03T13:42:36.646Z</time></trkpt><trkpt lat="44.7606908" lon="9.3820134"><ele>268.0</ele><time>2026-05-03T13:42:37.65Z</time></trkpt><trkpt lat="44.7608452" lon="9.382136"><ele>268.0</ele><time>2026-05-03T13:42:38.648Z</time></trkpt><trkpt lat="44.7610107" lon="9.382262"><ele>268.0</ele><time>2026-05-03T13:42:39.652Z</time></trkpt><trkpt lat="44.7611818" lon="9.3824012"><ele>266.3333333333333</ele><time>2026-05-03T13:42:40.651Z</time></trkpt><trkpt lat="44.7613579" lon="9.3825486"><ele>264.6666666666667</ele><time>2026-05-03T13:42:41.647Z</time></trkpt><trkpt lat="44.7615262" lon="9.3826155"><ele>263.0</ele><time>2026-05-03T13:42:42.646Z</time></trkpt><trkpt lat="44.7616656" lon="9.3826858"><ele>263.0</ele><time>2026-05-03T13:42:43.647Z</time></trkpt><trkpt lat="44.7617847" lon="9.3827242"><ele>263.0</ele><time>2026-05-03T13:42:44.646Z</time></trkpt><trkpt lat="44.761947" lon="9.3828108"><ele>263.0</ele><time>2026-05-03T13:42:45.643Z</time></trkpt><trkpt lat="44.7621119" lon="9.3829234"><ele>263.0</ele><time>2026-05-03T13:42:46.648Z</time></trkpt><trkpt lat="44.7622762" lon="9.3830597"><ele>263.0</ele><time>2026-05-03T13:42:47.648Z</time></trkpt><trkpt lat="44.7624551" lon="9.3831667"><ele>263.0</ele><time>2026-05-03T13:42:48.654Z</time></trkpt><trkpt lat="44.7625993" lon="9.3833046"><ele>264.6666666666667</ele><time>2026-05-03T13:42:49.649Z</time></trkpt><trkpt lat="44.7627542" lon="9.3834676"><ele>266.3333333333333</ele><time>2026-05-03T13:42:50.647Z</time></trkpt><trkpt lat="44.7629112" lon="9.3836749"><ele>268.0</ele><time>2026-05-03T13:42:51.652Z</time></trkpt><trkpt lat="44.7630602" lon="9.3838975"><ele>268.0</ele><time>2026-05-03T13:42:52.642Z</time></trkpt><trkpt lat="44.7632045" lon="9.3841226"><ele>268.0</ele><time>2026-05-03T13:42:53.646Z</time></trkpt><trkpt lat="44.7633538" lon="9.384364"><ele>268.0</ele><time>2026-05-03T13:42:54.645Z</time></trkpt><trkpt lat="44.7634668" lon="9.3845946"><ele>271.25</ele><time>2026-05-03T13:42:55.647Z</time></trkpt><trkpt lat="44.7635775" lon="9.3847452"><ele>274.5</ele><time>2026-05-03T13:42:56.642Z</time></trkpt><trkpt lat="44.7636312" lon="9.384945"><ele>277.75</ele><time>2026-05-03T13:42:57.642Z</time></trkpt><trkpt lat="44.7636996" lon="9.38509"><ele>281.0</ele><time>2026-05-03T13:42:58.643Z</time></trkpt><trkpt lat="44.7637806" lon="9.3852094"><ele>281.0</ele><time>2026-05-03T13:42:59.643Z</time></trkpt><trkpt lat="44.7638714" lon="9.3853001"><ele>281.0</ele><time>2026-05-03T13:43:00.637Z</time></trkpt><trkpt lat="44.7639272" lon="9.3854494"><ele>281.0</ele><time>2026-05-03T13:43:01.641Z</time></trkpt><trkpt lat="44.7639923" lon="9.3855845"><ele>281.0</ele><time>2026-05-03T13:43:02.646Z</time></trkpt><trkpt lat="44.7640676" lon="9.3857162"><ele>278.6</ele><time>2026-05-03T13:43:03.646Z</time></trkpt><trkpt lat="44.764106" lon="9.3857989"><ele>276.20000000000005</ele><time>2026-05-03T13:43:04.645Z</time></trkpt><trkpt lat="44.7641491" lon="9.3859069"><ele>273.79999999999995</ele><time>2026-05-03T13:43:06.648Z</time></trkpt><trkpt lat="44.7642117" lon="9.3859268"><ele>271.4</ele><time>2026-05-03T13:43:16.64Z</time></trkpt><trkpt lat="44.7643181" lon="9.3859553"><ele>269.0</ele><time>2026-05-03T13:43:17.647Z</time></trkpt><trkpt lat="44.7644555" lon="9.3859937"><ele>269.0</ele><time>2026-05-03T13:43:18.642Z</time></trkpt><trkpt lat="44.7645701" lon="9.3860108"><ele>269.0</ele><time>2026-05-03T13:43:19.643Z</time></trkpt><trkpt lat="44.7646906" lon="9.3860549"><ele>269.0</ele><time>2026-05-03T13:43:20.643Z</time></trkpt><trkpt lat="44.7647917" lon="9.3861021"><ele>269.0</ele><time>2026-05-03T13:43:21.646Z</time></trkpt><trkpt lat="44.7648949" lon="9.386136"><ele>269.0</ele><time>2026-05-03T13:43:22.647Z</time></trkpt><trkpt lat="44.7650051" lon="9.3861728"><ele>269.0</ele><time>2026-05-03T13:43:23.643Z</time></trkpt><trkpt lat="44.7651233" lon="9.3862039"><ele>269.0</ele><time>2026-05-03T13:43:24.639Z</time></trkpt><trkpt lat="44.7652386" lon="9.3862478"><ele>269.0</ele><time>2026-05-03T13:43:25.639Z</time></trkpt><trkpt lat="44.7653461" lon="9.3862954"><ele>269.2</ele><time>2026-05-03T13:43:26.644Z</time></trkpt><trkpt lat="44.7654481" lon="9.3863331"><ele>269.4</ele><time>2026-05-03T13:43:27.645Z</time></trkpt><trkpt lat="44.7655484" lon="9.3863656"><ele>269.6</ele><time>2026-05-03T13:43:28.649Z</time></trkpt><trkpt lat="44.7656455" lon="9.3863971"><ele>269.8</ele><time>2026-05-03T13:43:29.643Z</time></trkpt><trkpt lat="44.7657348" lon="9.3864437"><ele>270.0</ele><time>2026-05-03T13:43:30.642Z</time></trkpt><trkpt lat="44.7658293" lon="9.3864993"><ele>270.0</ele><time>2026-05-03T13:43:31.652Z</time></trkpt><trkpt lat="44.7659027" lon="9.3865516"><ele>270.0</ele><time>2026-05-03T13:43:32.648Z</time></trkpt><trkpt lat="44.7660318" lon="9.38666"><ele>270.0</ele><time>2026-05-03T13:43:34.644Z</time></trkpt><trkpt lat="44.7660637" lon="9.386739"><ele>270.0</ele><time>2026-05-03T13:43:36.64Z</time></trkpt><trkpt lat="44.7660618" lon="9.3866155"><ele>270.0</ele><time>2026-05-03T13:43:41.642Z</time></trkpt><trkpt lat="44.7660676" lon="9.3864627"><ele>273.25</ele><time>2026-05-03T13:43:42.637Z</time></trkpt><trkpt lat="44.7660394" lon="9.3863209"><ele>276.5</ele><time>2026-05-03T13:43:43.634Z</time></trkpt><trkpt lat="44.7660474" lon="9.3861541"><ele>279.75</ele><time>2026-05-03T13:43:44.634Z</time></trkpt><trkpt lat="44.7660756" lon="9.3859661"><ele>283.0</ele><time>2026-05-03T13:43:45.643Z</time></trkpt><trkpt lat="44.7660691" lon="9.3857857"><ele>283.0</ele><time>2026-05-03T13:43:46.644Z</time></trkpt><trkpt lat="44.7660706" lon="9.3856095"><ele>283.0</ele><time>2026-05-03T13:43:47.639Z</time></trkpt><trkpt lat="44.766097" lon="9.3854336"><ele>283.0</ele><time>2026-05-03T13:43:48.637Z</time></trkpt><trkpt lat="44.7661155" lon="9.3852624"><ele>283.0</ele><time>2026-05-03T13:43:49.628Z</time></trkpt><trkpt lat="44.7661822" lon="9.385089"><ele>283.0</ele><time>2026-05-03T13:43:50.616Z</time></trkpt><trkpt lat="44.766238" lon="9.3849039"><ele>283.0</ele><time>2026-05-03T13:43:51.625Z</time></trkpt><trkpt lat="44.7663048" lon="9.3847266"><ele>283.0</ele><time>2026-05-03T13:43:52.636Z</time></trkpt><trkpt lat="44.766336" lon="9.3845412"><ele>283.0</ele><time>2026-05-03T13:43:53.638Z</time></trkpt><trkpt lat="44.7663476" lon="9.3843592"><ele>283.0</ele><time>2026-05-03T13:43:54.639Z</time></trkpt><trkpt lat="44.7663991" lon="9.3842498"><ele>283.0</ele><time>2026-05-03T13:43:55.639Z</time></trkpt><trkpt lat="44.7664363" lon="9.3841601"><ele>283.0</ele><time>2026-05-03T13:43:56.636Z</time></trkpt><trkpt lat="44.7664228" lon="9.384043"><ele>283.0</ele><time>2026-05-03T13:43:57.638Z</time></trkpt><trkpt lat="44.7664342" lon="9.3839136"><ele>283.0</ele><time>2026-05-03T13:43:58.639Z</time></trkpt><trkpt lat="44.766451" lon="9.3837887"><ele>283.0</ele><time>2026-05-03T13:43:59.637Z</time></trkpt><trkpt lat="44.7664865" lon="9.3836614"><ele>282.8</ele><time>2026-05-03T13:44:00.639Z</time></trkpt><trkpt lat="44.7665432" lon="9.383556"><ele>282.6</ele><time>2026-05-03T13:44:01.636Z</time></trkpt><trkpt lat="44.7666188" lon="9.3834682"><ele>282.4</ele><time>2026-05-03T13:44:02.636Z</time></trkpt><trkpt lat="44.7667294" lon="9.3833945"><ele>282.2</ele><time>2026-05-03T13:44:03.637Z</time></trkpt><trkpt lat="44.7668474" lon="9.3833165"><ele>282.0</ele><time>2026-05-03T13:44:04.639Z</time></trkpt><trkpt lat="44.7669705" lon="9.3832358"><ele>284.4</ele><time>2026-05-03T13:44:05.635Z</time></trkpt><trkpt lat="44.7670678" lon="9.3831569"><ele>286.79999999999995</ele><time>2026-05-03T13:44:06.636Z</time></trkpt><trkpt lat="44.7671588" lon="9.3830717"><ele>289.2</ele><time>2026-05-03T13:44:07.64Z</time></trkpt><trkpt lat="44.7672596" lon="9.3829942"><ele>291.59999999999997</ele><time>2026-05-03T13:44:08.635Z</time></trkpt><trkpt lat="44.7673563" lon="9.3829132"><ele>294.0</ele><time>2026-05-03T13:44:09.636Z</time></trkpt><trkpt lat="44.7674563" lon="9.3828207"><ele>295.0</ele><time>2026-05-03T13:44:10.637Z</time></trkpt><trkpt lat="44.767559" lon="9.3827283"><ele>296.0</ele><time>2026-05-03T13:44:11.633Z</time></trkpt><trkpt lat="44.7676586" lon="9.382637"><ele>297.0</ele><time>2026-05-03T13:44:12.636Z</time></trkpt><trkpt lat="44.7677461" lon="9.3825364"><ele>298.0</ele><time>2026-05-03T13:44:13.632Z</time></trkpt><trkpt lat="44.7678309" lon="9.3824504"><ele>299.5</ele><time>2026-05-03T13:44:14.633Z</time></trkpt><trkpt lat="44.7679056" lon="9.3823698"><ele>301.0</ele><time>2026-05-03T13:44:15.635Z</time></trkpt><trkpt lat="44.7679633" lon="9.382306"><ele>302.5</ele><time>2026-05-03T13:44:16.639Z</time></trkpt><trkpt lat="44.7680018" lon="9.3822343"><ele>304.0</ele><time>2026-05-03T13:44:17.639Z</time></trkpt><trkpt lat="44.7680434" lon="9.3821563"><ele>305.5</ele><time>2026-05-03T13:44:18.638Z</time></trkpt><trkpt lat="44.7680932" lon="9.3820757"><ele>307.0</ele><time>2026-05-03T13:44:19.638Z</time></trkpt><trkpt lat="44.7681406" lon="9.3819701"><ele>307.4</ele><time>2026-05-03T13:44:20.636Z</time></trkpt><trkpt lat="44.7681974" lon="9.381871"><ele>307.79999999999995</ele><time>2026-05-03T13:44:21.64Z</time></trkpt><trkpt lat="44.7682714" lon="9.3817476"><ele>308.2</ele><time>2026-05-03T13:44:22.645Z</time></trkpt><trkpt lat="44.7683472" lon="9.3816253"><ele>308.59999999999997</ele><time>2026-05-03T13:44:23.64Z</time></trkpt><trkpt lat="44.7684196" lon="9.3815137"><ele>309.0</ele><time>2026-05-03T13:44:24.64Z</time></trkpt><trkpt lat="44.7684751" lon="9.3814124"><ele>309.6666666666667</ele><time>2026-05-03T13:44:25.64Z</time></trkpt><trkpt lat="44.7685278" lon="9.3813371"><ele>310.3333333333333</ele><time>2026-05-03T13:44:26.644Z</time></trkpt><trkpt lat="44.768532" lon="9.3812187"><ele>311.0</ele><time>2026-05-03T13:44:38.638Z</time></trkpt><trkpt lat="44.7685319" lon="9.3810879"><ele>311.66666666666663</ele><time>2026-05-03T13:44:39.642Z</time></trkpt><trkpt lat="44.7685277" lon="9.3809655"><ele>312.3333333333333</ele><time>2026-05-03T13:44:40.644Z</time></trkpt><trkpt lat="44.768525" lon="9.38082"><ele>313.0</ele><time>2026-05-03T13:44:41.642Z</time></trkpt><trkpt lat="44.7685213" lon="9.3806388"><ele>314.0</ele><time>2026-05-03T13:44:42.644Z</time></trkpt><trkpt lat="44.7685219" lon="9.3804516"><ele>315.0</ele><time>2026-05-03T13:44:43.642Z</time></trkpt><trkpt lat="44.7685141" lon="9.3802643"><ele>316.0</ele><time>2026-05-03T13:44:44.641Z</time></trkpt><trkpt lat="44.7685082" lon="9.3800884"><ele>317.0</ele><time>2026-05-03T13:44:45.646Z</time></trkpt><trkpt lat="44.7684996" lon="9.3799303"><ele>317.0</ele><time>2026-05-03T13:44:46.643Z</time></trkpt><trkpt lat="44.7684904" lon="9.3797798"><ele>317.0</ele><time>2026-05-03T13:44:47.645Z</time></trkpt><trkpt lat="44.7684773" lon="9.3796782"><ele>317.0</ele><time>2026-05-03T13:44:48.642Z</time></trkpt><trkpt lat="44.7685976" lon="9.3796204"><ele>317.0</ele><time>2026-05-03T13:45:24.654Z</time></trkpt><trkpt lat="44.7686074" lon="9.3797117"><ele>317.0</ele><time>2026-05-03T13:45:34.655Z</time></trkpt><trkpt lat="44.7685442" lon="9.3797143"><ele>317.0</ele><time>2026-05-03T13:45:42.643Z</time></trkpt><trkpt lat="44.7685037" lon="9.3796198"><ele>319.0</ele><time>2026-05-03T13:45:45.639Z</time></trkpt><trkpt lat="44.7684771" lon="9.3795334"><ele>321.0</ele><time>2026-05-03T13:45:49.649Z</time></trkpt><trkpt lat="44.7684305" lon="9.3783999"><ele>321.25</ele><time>2026-05-03T13:45:52.657Z</time></trkpt><trkpt lat="44.7684863" lon="9.3782487"><ele>321.5</ele><time>2026-05-03T13:45:53.648Z</time></trkpt><trkpt lat="44.7685574" lon="9.3780779"><ele>321.75</ele><time>2026-05-03T13:45:54.678Z</time></trkpt><trkpt lat="44.7686352" lon="9.3778948"><ele>322.0</ele><time>2026-05-03T13:45:55.643Z</time></trkpt><trkpt lat="44.7686845" lon="9.3777327"><ele>326.0</ele><time>2026-05-03T13:45:56.644Z</time></trkpt><trkpt lat="44.7687335" lon="9.3775679"><ele>330.0</ele><time>2026-05-03T13:45:57.646Z</time></trkpt><trkpt lat="44.7688045" lon="9.377449"><ele>334.0</ele><time>2026-05-03T13:45:58.644Z</time></trkpt><trkpt lat="44.7689581" lon="9.3773493"><ele>338.0</ele><time>2026-05-03T13:45:59.641Z</time></trkpt><trkpt lat="44.7690484" lon="9.3771857"><ele>337.0</ele><time>2026-05-03T13:46:00.639Z</time></trkpt><trkpt lat="44.7691481" lon="9.3770187"><ele>336.0</ele><time>2026-05-03T13:46:01.642Z</time></trkpt><trkpt lat="44.7692748" lon="9.3768995"><ele>335.0</ele><time>2026-05-03T13:46:02.644Z</time></trkpt><trkpt lat="44.7693883" lon="9.376765"><ele>338.0</ele><time>2026-05-03T13:46:03.641Z</time></trkpt><trkpt lat="44.7694817" lon="9.3766187"><ele>341.0</ele><time>2026-05-03T13:46:04.639Z</time></trkpt><trkpt lat="44.7695229" lon="9.3764071"><ele>344.0</ele><time>2026-05-03T13:46:05.639Z</time></trkpt><trkpt lat="44.7695579" lon="9.3762039"><ele>347.0</ele><time>2026-05-03T13:46:06.638Z</time></trkpt><trkpt lat="44.7696371" lon="9.3760133"><ele>347.0</ele><time>2026-05-03T13:46:07.639Z</time></trkpt><trkpt lat="44.769702" lon="9.3758467"><ele>347.0</ele><time>2026-05-03T13:46:08.64Z</time></trkpt><trkpt lat="44.7698167" lon="9.3757426"><ele>347.0</ele><time>2026-05-03T13:46:09.64Z</time></trkpt><trkpt lat="44.7699375" lon="9.3756363"><ele>347.0</ele><time>2026-05-03T13:46:10.637Z</time></trkpt><trkpt lat="44.7700584" lon="9.3755041"><ele>347.25</ele><time>2026-05-03T13:46:11.638Z</time></trkpt><trkpt lat="44.770129" lon="9.3753475"><ele>347.5</ele><time>2026-05-03T13:46:12.639Z</time></trkpt><trkpt lat="44.7701691" lon="9.3751707"><ele>347.75</ele><time>2026-05-03T13:46:13.639Z</time></trkpt><trkpt lat="44.7702533" lon="9.3750091"><ele>348.0</ele><time>2026-05-03T13:46:14.64Z</time></trkpt><trkpt lat="44.7703286" lon="9.3748858"><ele>349.25</ele><time>2026-05-03T13:46:15.639Z</time></trkpt><trkpt lat="44.7704426" lon="9.3748153"><ele>350.5</ele><time>2026-05-03T13:46:16.644Z</time></trkpt><trkpt lat="44.7705631" lon="9.3747901"><ele>351.75</ele><time>2026-05-03T13:46:17.64Z</time></trkpt><trkpt lat="44.7707004" lon="9.3748004"><ele>353.0</ele><time>2026-05-03T13:46:18.634Z</time></trkpt><trkpt lat="44.7708484" lon="9.3748368"><ele>353.0</ele><time>2026-05-03T13:46:19.647Z</time></trkpt><trkpt lat="44.7710177" lon="9.3749201"><ele>353.0</ele><time>2026-05-03T13:46:20.641Z</time></trkpt><trkpt lat="44.7711797" lon="9.3750126"><ele>353.0</ele><time>2026-05-03T13:46:21.641Z</time></trkpt><trkpt lat="44.771302" lon="9.3750305"><ele>354.4</ele><time>2026-05-03T13:46:22.637Z</time></trkpt><trkpt lat="44.7713923" lon="9.3750256"><ele>355.79999999999995</ele><time>2026-05-03T13:46:23.644Z</time></trkpt><trkpt lat="44.7714759" lon="9.3749647"><ele>357.2</ele><time>2026-05-03T13:46:24.647Z</time></trkpt><trkpt lat="44.7715132" lon="9.3748365"><ele>358.6</ele><time>2026-05-03T13:46:25.643Z</time></trkpt><trkpt lat="44.7715135" lon="9.3746264"><ele>360.0</ele><time>2026-05-03T13:46:26.643Z</time></trkpt><trkpt lat="44.7715279" lon="9.3744096"><ele>360.0</ele><time>2026-05-03T13:46:27.643Z</time></trkpt><trkpt lat="44.7715461" lon="9.3742207"><ele>360.0</ele><time>2026-05-03T13:46:28.645Z</time></trkpt><trkpt lat="44.7715889" lon="9.3741132"><ele>360.0</ele><time>2026-05-03T13:46:29.643Z</time></trkpt><trkpt lat="44.7716508" lon="9.3740106"><ele>360.0</ele><time>2026-05-03T13:46:30.639Z</time></trkpt><trkpt lat="44.77175" lon="9.3739575"><ele>360.0</ele><time>2026-05-03T13:46:31.642Z</time></trkpt><trkpt lat="44.7718735" lon="9.373954"><ele>362.5</ele><time>2026-05-03T13:46:32.648Z</time></trkpt><trkpt lat="44.7720111" lon="9.3739424"><ele>365.0</ele><time>2026-05-03T13:46:33.647Z</time></trkpt><trkpt lat="44.7721076" lon="9.3739222"><ele>367.5</ele><time>2026-05-03T13:46:34.646Z</time></trkpt><trkpt lat="44.7722289" lon="9.3738786"><ele>370.0</ele><time>2026-05-03T13:46:35.645Z</time></trkpt><trkpt lat="44.7723412" lon="9.3738049"><ele>370.0</ele><time>2026-05-03T13:46:36.642Z</time></trkpt><trkpt lat="44.7724386" lon="9.373663"><ele>370.0</ele><time>2026-05-03T13:46:37.643Z</time></trkpt><trkpt lat="44.7725026" lon="9.3734545"><ele>370.0</ele><time>2026-05-03T13:46:38.643Z</time></trkpt><trkpt lat="44.7725433" lon="9.3732075"><ele>370.0</ele><time>2026-05-03T13:46:39.638Z</time></trkpt><trkpt lat="44.7726131" lon="9.3730662"><ele>370.0</ele><time>2026-05-03T13:46:40.64Z</time></trkpt><trkpt lat="44.7726935" lon="9.3728991"><ele>370.0</ele><time>2026-05-03T13:46:41.643Z</time></trkpt><trkpt lat="44.7727462" lon="9.3727131"><ele>370.0</ele><time>2026-05-03T13:46:42.641Z</time></trkpt><trkpt lat="44.7728141" lon="9.3724804"><ele>375.0</ele><time>2026-05-03T13:46:43.64Z</time></trkpt><trkpt lat="44.7728585" lon="9.3723201"><ele>380.0</ele><time>2026-05-03T13:46:44.645Z</time></trkpt><trkpt lat="44.772907" lon="9.3721128"><ele>385.0</ele><time>2026-05-03T13:46:45.642Z</time></trkpt><trkpt lat="44.7729305" lon="9.371985"><ele>390.0</ele><time>2026-05-03T13:46:46.643Z</time></trkpt><trkpt lat="44.7729202" lon="9.3718207"><ele>391.25</ele><time>2026-05-03T13:46:47.64Z</time></trkpt><trkpt lat="44.7728835" lon="9.3716441"><ele>392.5</ele><time>2026-05-03T13:46:48.638Z</time></trkpt><trkpt lat="44.7728507" lon="9.371455"><ele>393.75</ele><time>2026-05-03T13:46:49.64Z</time></trkpt><trkpt lat="44.7728896" lon="9.371254"><ele>395.0</ele><time>2026-05-03T13:46:50.639Z</time></trkpt><trkpt lat="44.7729046" lon="9.3710691"><ele>399.0</ele><time>2026-05-03T13:46:51.638Z</time></trkpt><trkpt lat="44.7729058" lon="9.3708956"><ele>403.0</ele><time>2026-05-03T13:46:52.643Z</time></trkpt><trkpt lat="44.7727491" lon="9.3707556"><ele>407.0</ele><time>2026-05-03T13:46:53.647Z</time></trkpt><trkpt lat="44.7725729" lon="9.3706313"><ele>401.3333333333333</ele><time>2026-05-03T13:46:54.647Z</time></trkpt><trkpt lat="44.7724894" lon="9.3704631"><ele>395.66666666666663</ele><time>2026-05-03T13:46:55.643Z</time></trkpt><trkpt lat="44.7724422" lon="9.3702808"><ele>390.0</ele><time>2026-05-03T13:46:56.635Z</time></trkpt><trkpt lat="44.7724625" lon="9.3700477"><ele>390.0</ele><time>2026-05-03T13:46:57.632Z</time></trkpt><trkpt lat="44.7725612" lon="9.3697958"><ele>390.0</ele><time>2026-05-03T13:46:58.642Z</time></trkpt><trkpt lat="44.7725878" lon="9.3695308"><ele>390.0</ele><time>2026-05-03T13:46:59.652Z</time></trkpt><trkpt lat="44.7726363" lon="9.3692555"><ele>391.33333333333337</ele><time>2026-05-03T13:47:00.651Z</time></trkpt><trkpt lat="44.7726579" lon="9.3690252"><ele>392.6666666666667</ele><time>2026-05-03T13:47:01.646Z</time></trkpt><trkpt lat="44.7727679" lon="9.3687338"><ele>394.0</ele><time>2026-05-03T13:47:02.655Z</time></trkpt><trkpt lat="44.7729075" lon="9.3684986"><ele>399.6666666666667</ele><time>2026-05-03T13:47:03.647Z</time></trkpt><trkpt lat="44.7730069" lon="9.3682691"><ele>405.33333333333337</ele><time>2026-05-03T13:47:04.642Z</time></trkpt><trkpt lat="44.7730907" lon="9.3681088"><ele>411.0</ele><time>2026-05-03T13:47:05.641Z</time></trkpt><trkpt lat="44.7732064" lon="9.3679451"><ele>411.0</ele><time>2026-05-03T13:47:06.642Z</time></trkpt><trkpt lat="44.7732673" lon="9.3678073"><ele>411.0</ele><time>2026-05-03T13:47:07.644Z</time></trkpt><trkpt lat="44.7732688" lon="9.3677039"><ele>411.0</ele><time>2026-05-03T13:47:08.642Z</time></trkpt><trkpt lat="44.7732613" lon="9.3675429"><ele>411.0</ele><time>2026-05-03T13:47:09.642Z</time></trkpt><trkpt lat="44.7731934" lon="9.3673733"><ele>411.0</ele><time>2026-05-03T13:47:10.639Z</time></trkpt><trkpt lat="44.7731377" lon="9.3671724"><ele>412.33333333333337</ele><time>2026-05-03T13:47:11.641Z</time></trkpt><trkpt lat="44.7730467" lon="9.3670375"><ele>413.6666666666667</ele><time>2026-05-03T13:47:12.642Z</time></trkpt><trkpt lat="44.7728826" lon="9.3669935"><ele>415.0</ele><time>2026-05-03T13:47:13.639Z</time></trkpt><trkpt lat="44.7727407" lon="9.3668931"><ele>413.6666666666667</ele><time>2026-05-03T13:47:14.635Z</time></trkpt><trkpt lat="44.7726409" lon="9.366696"><ele>412.33333333333337</ele><time>2026-05-03T13:47:15.649Z</time></trkpt><trkpt lat="44.7726332" lon="9.3664452"><ele>411.0</ele><time>2026-05-03T13:47:16.646Z</time></trkpt><trkpt lat="44.7726579" lon="9.3662285"><ele>414.33333333333337</ele><time>2026-05-03T13:47:17.652Z</time></trkpt><trkpt lat="44.7727264" lon="9.3660491"><ele>417.6666666666667</ele><time>2026-05-03T13:47:18.645Z</time></trkpt><trkpt lat="44.772795" lon="9.3658684"><ele>421.0</ele><time>2026-05-03T13:47:19.646Z</time></trkpt><trkpt lat="44.7728468" lon="9.3655945"><ele>422.33333333333337</ele><time>2026-05-03T13:47:20.65Z</time></trkpt><trkpt lat="44.7729831" lon="9.3653597"><ele>423.66666666666663</ele><time>2026-05-03T13:47:21.647Z</time></trkpt><trkpt lat="44.7730881" lon="9.3651438"><ele>425.0</ele><time>2026-05-03T13:47:22.649Z</time></trkpt><trkpt lat="44.7731671" lon="9.3649426"><ele>425.0</ele><time>2026-05-03T13:47:23.646Z</time></trkpt><trkpt lat="44.7732197" lon="9.3647474"><ele>425.0</ele><time>2026-05-03T13:47:24.652Z</time></trkpt><trkpt lat="44.7731947" lon="9.3645254"><ele>425.0</ele><time>2026-05-03T13:47:25.646Z</time></trkpt><trkpt lat="44.7731085" lon="9.364311"><ele>425.3333333333333</ele><time>2026-05-03T13:47:26.649Z</time></trkpt><trkpt lat="44.773043" lon="9.3641602"><ele>425.66666666666663</ele><time>2026-05-03T13:47:27.647Z</time></trkpt><trkpt lat="44.7730136" lon="9.3638996"><ele>426.0</ele><time>2026-05-03T13:47:28.638Z</time></trkpt><trkpt lat="44.7730238" lon="9.3636744"><ele>426.0</ele><time>2026-05-03T13:47:29.642Z</time></trkpt><trkpt lat="44.773061" lon="9.3635387"><ele>426.0</ele><time>2026-05-03T13:47:30.639Z</time></trkpt><trkpt lat="44.7731591" lon="9.3633243"><ele>426.0</ele><time>2026-05-03T13:47:31.639Z</time></trkpt><trkpt lat="44.7733721" lon="9.363242"><ele>430.33333333333337</ele><time>2026-05-03T13:47:32.64Z</time></trkpt><trkpt lat="44.773567" lon="9.3631631"><ele>434.6666666666667</ele><time>2026-05-03T13:47:33.639Z</time></trkpt><trkpt lat="44.7737847" lon="9.3631283"><ele>439.0</ele><time>2026-05-03T13:47:34.639Z</time></trkpt><trkpt lat="44.7739506" lon="9.3631528"><ele>439.0</ele><time>2026-05-03T13:47:35.639Z</time></trkpt><trkpt lat="44.7741274" lon="9.3632336"><ele>439.0</ele><time>2026-05-03T13:47:36.648Z</time></trkpt><trkpt lat="44.7743154" lon="9.363341"><ele>439.0</ele><time>2026-05-03T13:47:37.646Z</time></trkpt><trkpt lat="44.774473" lon="9.3634111"><ele>440.75</ele><time>2026-05-03T13:47:38.651Z</time></trkpt><trkpt lat="44.7745926" lon="9.3634637"><ele>442.5</ele><time>2026-05-03T13:47:39.648Z</time></trkpt><trkpt lat="44.7746958" lon="9.3635999"><ele>444.25</ele><time>2026-05-03T13:47:40.65Z</time></trkpt><trkpt lat="44.7747658" lon="9.3637852"><ele>446.0</ele><time>2026-05-03T13:47:41.651Z</time></trkpt><trkpt lat="44.7748815" lon="9.363997"><ele>446.0</ele><time>2026-05-03T13:47:42.64Z</time></trkpt><trkpt lat="44.7749483" lon="9.3642558"><ele>446.0</ele><time>2026-05-03T13:47:43.64Z</time></trkpt><trkpt lat="44.7750164" lon="9.3645227"><ele>446.0</ele><time>2026-05-03T13:47:44.64Z</time></trkpt><trkpt lat="44.7751003" lon="9.3647298"><ele>449.0</ele><time>2026-05-03T13:47:45.641Z</time></trkpt><trkpt lat="44.775198" lon="9.3649075"><ele>452.0</ele><time>2026-05-03T13:47:46.644Z</time></trkpt><trkpt lat="44.7753576" lon="9.364978"><ele>455.0</ele><time>2026-05-03T13:47:47.65Z</time></trkpt><trkpt lat="44.7755248" lon="9.365031"><ele>455.0</ele><time>2026-05-03T13:47:48.646Z</time></trkpt><trkpt lat="44.7756688" lon="9.3650899"><ele>455.0</ele><time>2026-05-03T13:47:49.651Z</time></trkpt><trkpt lat="44.7757312" lon="9.365248"><ele>455.0</ele><time>2026-05-03T13:47:50.648Z</time></trkpt><trkpt lat="44.775744" lon="9.365446"><ele>455.0</ele><time>2026-05-03T13:47:51.649Z</time></trkpt><trkpt lat="44.7757785" lon="9.3655945"><ele>455.0</ele><time>2026-05-03T13:47:52.65Z</time></trkpt><trkpt lat="44.7758643" lon="9.3656757"><ele>455.0</ele><time>2026-05-03T13:47:53.645Z</time></trkpt><trkpt lat="44.7759521" lon="9.3657166"><ele>455.0</ele><time>2026-05-03T13:47:54.644Z</time></trkpt><trkpt lat="44.7760308" lon="9.365674"><ele>455.0</ele><time>2026-05-03T13:47:55.648Z</time></trkpt><trkpt lat="44.7761302" lon="9.3654825"><ele>455.0</ele><time>2026-05-03T13:47:56.641Z</time></trkpt><trkpt lat="44.7762103" lon="9.3653013"><ele>459.3333333333333</ele><time>2026-05-03T13:47:57.642Z</time></trkpt><trkpt lat="44.7762995" lon="9.3650533"><ele>463.66666666666663</ele><time>2026-05-03T13:47:58.642Z</time></trkpt><trkpt lat="44.7764166" lon="9.3648158"><ele>468.0</ele><time>2026-05-03T13:47:59.642Z</time></trkpt><trkpt lat="44.7765004" lon="9.3645488"><ele>468.0</ele><time>2026-05-03T13:48:00.641Z</time></trkpt><trkpt lat="44.7765932" lon="9.364302"><ele>468.0</ele><time>2026-05-03T13:48:01.647Z</time></trkpt><trkpt lat="44.7766763" lon="9.3640413"><ele>468.0</ele><time>2026-05-03T13:48:02.65Z</time></trkpt><trkpt lat="44.7767333" lon="9.3637463"><ele>467.33333333333337</ele><time>2026-05-03T13:48:03.65Z</time></trkpt><trkpt lat="44.7767768" lon="9.3635041"><ele>466.6666666666667</ele><time>2026-05-03T13:48:04.643Z</time></trkpt><trkpt lat="44.7768162" lon="9.3632519"><ele>466.0</ele><time>2026-05-03T13:48:05.648Z</time></trkpt><trkpt lat="44.7768536" lon="9.3629755"><ele>473.33333333333337</ele><time>2026-05-03T13:48:06.648Z</time></trkpt><trkpt lat="44.7769049" lon="9.362693"><ele>480.66666666666663</ele><time>2026-05-03T13:48:07.65Z</time></trkpt><trkpt lat="44.7769384" lon="9.362506"><ele>488.0</ele><time>2026-05-03T13:48:08.653Z</time></trkpt><trkpt lat="44.7769444" lon="9.3623437"><ele>488.0</ele><time>2026-05-03T13:48:09.651Z</time></trkpt><trkpt lat="44.7769153" lon="9.3622302"><ele>487.99999999999994</ele><time>2026-05-03T13:48:10.648Z</time></trkpt><trkpt lat="44.7768216" lon="9.36217"><ele>487.99999999999994</ele><time>2026-05-03T13:48:11.649Z</time></trkpt><trkpt lat="44.7767592" lon="9.3621086"><ele>488.0</ele><time>2026-05-03T13:48:12.65Z</time></trkpt><trkpt lat="44.7766239" lon="9.362005"><ele>488.0</ele><time>2026-05-03T13:48:13.649Z</time></trkpt><trkpt lat="44.7765211" lon="9.3618612"><ele>486.66666666666663</ele><time>2026-05-03T13:48:14.641Z</time></trkpt><trkpt lat="44.7764502" lon="9.3616497"><ele>485.33333333333337</ele><time>2026-05-03T13:48:15.648Z</time></trkpt><trkpt lat="44.7765941" lon="9.3614481"><ele>484.0</ele><time>2026-05-03T13:48:16.649Z</time></trkpt><trkpt lat="44.7767342" lon="9.3612087"><ele>484.0</ele><time>2026-05-03T13:48:17.65Z</time></trkpt><trkpt lat="44.7768288" lon="9.3610851"><ele>484.0</ele><time>2026-05-03T13:48:18.647Z</time></trkpt><trkpt lat="44.7769565" lon="9.3608568"><ele>484.0</ele><time>2026-05-03T13:48:19.646Z</time></trkpt><trkpt lat="44.7771344" lon="9.3606888"><ele>489.33333333333337</ele><time>2026-05-03T13:48:20.645Z</time></trkpt><trkpt lat="44.7771568" lon="9.3604911"><ele>494.66666666666663</ele><time>2026-05-03T13:48:21.647Z</time></trkpt><trkpt lat="44.7771304" lon="9.3602547"><ele>500.0</ele><time>2026-05-03T13:48:22.649Z</time></trkpt><trkpt lat="44.7770737" lon="9.3600469"><ele>500.0</ele><time>2026-05-03T13:48:23.648Z</time></trkpt><trkpt lat="44.776972" lon="9.3598759"><ele>500.0</ele><time>2026-05-03T13:48:24.65Z</time></trkpt><trkpt lat="44.7768164" lon="9.3599009"><ele>500.0</ele><time>2026-05-03T13:48:25.656Z</time></trkpt><trkpt lat="44.7765793" lon="9.3598889"><ele>497.66666666666663</ele><time>2026-05-03T13:48:26.656Z</time></trkpt><trkpt lat="44.7764037" lon="9.359851"><ele>495.33333333333337</ele><time>2026-05-03T13:48:27.654Z</time></trkpt><trkpt lat="44.7762712" lon="9.3597266"><ele>493.0</ele><time>2026-05-03T13:48:28.646Z</time></trkpt><trkpt lat="44.7761428" lon="9.359481"><ele>493.0</ele><time>2026-05-03T13:48:29.651Z</time></trkpt><trkpt lat="44.7760362" lon="9.3591971"><ele>493.0</ele><time>2026-05-03T13:48:30.642Z</time></trkpt><trkpt lat="44.7759237" lon="9.3589702"><ele>493.0</ele><time>2026-05-03T13:48:31.645Z</time></trkpt><trkpt lat="44.7758119" lon="9.3587572"><ele>493.0</ele><time>2026-05-03T13:48:32.647Z</time></trkpt><trkpt lat="44.7756933" lon="9.3585568"><ele>493.0</ele><time>2026-05-03T13:48:33.64Z</time></trkpt><trkpt lat="44.7755213" lon="9.3584177"><ele>493.0</ele><time>2026-05-03T13:48:34.648Z</time></trkpt><trkpt lat="44.7753574" lon="9.3584136"><ele>493.0</ele><time>2026-05-03T13:48:35.639Z</time></trkpt><trkpt lat="44.7752404" lon="9.3583471"><ele>493.0</ele><time>2026-05-03T13:48:36.647Z</time></trkpt><trkpt lat="44.7751452" lon="9.358262"><ele>493.0</ele><time>2026-05-03T13:48:37.65Z</time></trkpt><trkpt lat="44.7751743" lon="9.3580557"><ele>493.0</ele><time>2026-05-03T13:48:38.65Z</time></trkpt><trkpt lat="44.775194" lon="9.3578695"><ele>493.6666666666667</ele><time>2026-05-03T13:48:39.646Z</time></trkpt><trkpt lat="44.7752349" lon="9.3576622"><ele>494.33333333333337</ele><time>2026-05-03T13:48:40.648Z</time></trkpt><trkpt lat="44.7752159" lon="9.357312"><ele>495.0</ele><time>2026-05-03T13:48:41.642Z</time></trkpt><trkpt lat="44.7751786" lon="9.3570321"><ele>495.0</ele><time>2026-05-03T13:48:42.639Z</time></trkpt><trkpt lat="44.775076" lon="9.3568171"><ele>495.0</ele><time>2026-05-03T13:48:43.647Z</time></trkpt><trkpt lat="44.7750756" lon="9.3565206"><ele>495.0</ele><time>2026-05-03T13:48:44.652Z</time></trkpt><trkpt lat="44.7750012" lon="9.3562849"><ele>496.33333333333337</ele><time>2026-05-03T13:48:45.649Z</time></trkpt><trkpt lat="44.7749488" lon="9.3560619"><ele>497.6666666666667</ele><time>2026-05-03T13:48:46.651Z</time></trkpt><trkpt lat="44.7748753" lon="9.3558223"><ele>499.0</ele><time>2026-05-03T13:48:47.654Z</time></trkpt><trkpt lat="44.7747939" lon="9.3556066"><ele>499.75</ele><time>2026-05-03T13:48:48.657Z</time></trkpt><trkpt lat="44.7747357" lon="9.3554174"><ele>500.5</ele><time>2026-05-03T13:48:49.655Z</time></trkpt><trkpt lat="44.7747246" lon="9.3552231"><ele>501.25</ele><time>2026-05-03T13:48:50.654Z</time></trkpt><trkpt lat="44.7747398" lon="9.3550201"><ele>502.0</ele><time>2026-05-03T13:48:51.651Z</time></trkpt><trkpt lat="44.774845" lon="9.3548401"><ele>501.25</ele><time>2026-05-03T13:48:52.65Z</time></trkpt><trkpt lat="44.7749433" lon="9.3546475"><ele>500.5</ele><time>2026-05-03T13:48:53.647Z</time></trkpt><trkpt lat="44.7750309" lon="9.354513"><ele>499.75</ele><time>2026-05-03T13:48:54.656Z</time></trkpt><trkpt lat="44.7751116" lon="9.3544757"><ele>499.0</ele><time>2026-05-03T13:48:55.647Z</time></trkpt><trkpt lat="44.7752906" lon="9.354642"><ele>504.6666666666667</ele><time>2026-05-03T13:48:57.645Z</time></trkpt><trkpt lat="44.7753402" lon="9.3548771"><ele>510.33333333333337</ele><time>2026-05-03T13:48:58.646Z</time></trkpt><trkpt lat="44.7754219" lon="9.3551642"><ele>516.0</ele><time>2026-05-03T13:48:59.649Z</time></trkpt><trkpt lat="44.775427" lon="9.3553543"><ele>516.0</ele><time>2026-05-03T13:49:00.646Z</time></trkpt><trkpt lat="44.775455" lon="9.3555158"><ele>516.0</ele><time>2026-05-03T13:49:01.64Z</time></trkpt><trkpt lat="44.7755368" lon="9.3556819"><ele>516.0</ele><time>2026-05-03T13:49:02.643Z</time></trkpt><trkpt lat="44.7757342" lon="9.3556669"><ele>514.6666666666666</ele><time>2026-05-03T13:49:03.643Z</time></trkpt><trkpt lat="44.7759062" lon="9.3556843"><ele>513.3333333333333</ele><time>2026-05-03T13:49:04.641Z</time></trkpt><trkpt lat="44.7760943" lon="9.3556854"><ele>512.0</ele><time>2026-05-03T13:49:05.649Z</time></trkpt><trkpt lat="44.7762527" lon="9.3557378"><ele>516.0</ele><time>2026-05-03T13:49:06.643Z</time></trkpt><trkpt lat="44.7764171" lon="9.3557464"><ele>520.0</ele><time>2026-05-03T13:49:07.647Z</time></trkpt><trkpt lat="44.7765786" lon="9.3557339"><ele>524.0</ele><time>2026-05-03T13:49:08.646Z</time></trkpt><trkpt lat="44.7767191" lon="9.3557306"><ele>527.5</ele><time>2026-05-03T13:49:09.65Z</time></trkpt><trkpt lat="44.7768856" lon="9.3556994"><ele>531.0</ele><time>2026-05-03T13:49:10.647Z</time></trkpt><trkpt lat="44.7769931" lon="9.3557542"><ele>534.5</ele><time>2026-05-03T13:49:11.648Z</time></trkpt><trkpt lat="44.777074" lon="9.3558531"><ele>538.0</ele><time>2026-05-03T13:49:12.647Z</time></trkpt><trkpt lat="44.7771565" lon="9.3560114"><ele>538.0</ele><time>2026-05-03T13:49:13.639Z</time></trkpt><trkpt lat="44.7772259" lon="9.356129"><ele>538.0</ele><time>2026-05-03T13:49:14.641Z</time></trkpt><trkpt lat="44.7773137" lon="9.3562947"><ele>538.0</ele><time>2026-05-03T13:49:15.645Z</time></trkpt><trkpt lat="44.7773904" lon="9.3564373"><ele>538.0</ele><time>2026-05-03T13:49:16.643Z</time></trkpt><trkpt lat="44.7774613" lon="9.3565898"><ele>539.25</ele><time>2026-05-03T13:49:17.652Z</time></trkpt><trkpt lat="44.7775566" lon="9.3566968"><ele>540.5</ele><time>2026-05-03T13:49:18.648Z</time></trkpt><trkpt lat="44.7776818" lon="9.3568296"><ele>541.75</ele><time>2026-05-03T13:49:19.643Z</time></trkpt><trkpt lat="44.7777944" lon="9.3568916"><ele>543.0</ele><time>2026-05-03T13:49:20.639Z</time></trkpt><trkpt lat="44.7779749" lon="9.356879"><ele>543.0</ele><time>2026-05-03T13:49:21.641Z</time></trkpt><trkpt lat="44.778144" lon="9.3568853"><ele>543.0</ele><time>2026-05-03T13:49:22.641Z</time></trkpt><trkpt lat="44.7782997" lon="9.3568834"><ele>543.0</ele><time>2026-05-03T13:49:23.642Z</time></trkpt><trkpt lat="44.7784633" lon="9.3568628"><ele>546.0</ele><time>2026-05-03T13:49:24.642Z</time></trkpt><trkpt lat="44.7786383" lon="9.3568946"><ele>549.0</ele><time>2026-05-03T13:49:25.645Z</time></trkpt><trkpt lat="44.778816" lon="9.3569546"><ele>552.0</ele><time>2026-05-03T13:49:26.643Z</time></trkpt><trkpt lat="44.7789639" lon="9.357007"><ele>552.0</ele><time>2026-05-03T13:49:27.64Z</time></trkpt><trkpt lat="44.7791162" lon="9.3570552"><ele>552.0</ele><time>2026-05-03T13:49:28.646Z</time></trkpt><trkpt lat="44.7792402" lon="9.3570959"><ele>552.0</ele><time>2026-05-03T13:49:29.646Z</time></trkpt><trkpt lat="44.7793429" lon="9.3571493"><ele>552.0</ele><time>2026-05-03T13:49:30.643Z</time></trkpt><trkpt lat="44.7794505" lon="9.3572481"><ele>553.5</ele><time>2026-05-03T13:49:31.65Z</time></trkpt><trkpt lat="44.7795662" lon="9.3573269"><ele>555.0</ele><time>2026-05-03T13:49:32.647Z</time></trkpt><trkpt lat="44.7796582" lon="9.3574447"><ele>556.5</ele><time>2026-05-03T13:49:33.648Z</time></trkpt><trkpt lat="44.7797595" lon="9.3575933"><ele>558.0</ele><time>2026-05-03T13:49:34.646Z</time></trkpt><trkpt lat="44.7798569" lon="9.3577503"><ele>558.0</ele><time>2026-05-03T13:49:35.642Z</time></trkpt><trkpt lat="44.7799344" lon="9.3579118"><ele>558.0</ele><time>2026-05-03T13:49:36.646Z</time></trkpt><trkpt lat="44.7799894" lon="9.3581089"><ele>558.0</ele><time>2026-05-03T13:49:37.647Z</time></trkpt><trkpt lat="44.7800837" lon="9.3582888"><ele>558.0</ele><time>2026-05-03T13:49:38.644Z</time></trkpt><trkpt lat="44.7801405" lon="9.3584761"><ele>561.6666666666666</ele><time>2026-05-03T13:49:39.651Z</time></trkpt><trkpt lat="44.7802328" lon="9.3586428"><ele>565.3333333333333</ele><time>2026-05-03T13:49:40.647Z</time></trkpt><trkpt lat="44.7803542" lon="9.3587659"><ele>569.0</ele><time>2026-05-03T13:49:41.646Z</time></trkpt><trkpt lat="44.7804963" lon="9.3588536"><ele>569.0</ele><time>2026-05-03T13:49:42.647Z</time></trkpt><trkpt lat="44.7806708" lon="9.3588595"><ele>569.0</ele><time>2026-05-03T13:49:43.642Z</time></trkpt><trkpt lat="44.7808711" lon="9.3589178"><ele>569.0</ele><time>2026-05-03T13:49:44.639Z</time></trkpt><trkpt lat="44.7810017" lon="9.3589939"><ele>569.75</ele><time>2026-05-03T13:49:45.639Z</time></trkpt><trkpt lat="44.7811209" lon="9.3591272"><ele>570.5</ele><time>2026-05-03T13:49:46.646Z</time></trkpt><trkpt lat="44.7812316" lon="9.3592936"><ele>571.25</ele><time>2026-05-03T13:49:47.65Z</time></trkpt><trkpt lat="44.7812996" lon="9.3594532"><ele>572.0</ele><time>2026-05-03T13:49:48.647Z</time></trkpt><trkpt lat="44.7814036" lon="9.3595443"><ele>572.0</ele><time>2026-05-03T13:49:49.646Z</time></trkpt><trkpt lat="44.7815174" lon="9.3595941"><ele>572.0</ele><time>2026-05-03T13:49:50.667Z</time></trkpt><trkpt lat="44.7816123" lon="9.3596227"><ele>572.0</ele><time>2026-05-03T13:49:51.643Z</time></trkpt><trkpt lat="44.7817389" lon="9.3596641"><ele>572.0</ele><time>2026-05-03T13:49:52.646Z</time></trkpt><trkpt lat="44.7818886" lon="9.3597184"><ele>573.3333333333333</ele><time>2026-05-03T13:49:53.639Z</time></trkpt><trkpt lat="44.7820254" lon="9.3597996"><ele>574.6666666666666</ele><time>2026-05-03T13:49:54.643Z</time></trkpt><trkpt lat="44.7821718" lon="9.3599118"><ele>576.0</ele><time>2026-05-03T13:49:55.641Z</time></trkpt><trkpt lat="44.7823372" lon="9.3599632"><ele>576.0</ele><time>2026-05-03T13:49:56.641Z</time></trkpt><trkpt lat="44.7824563" lon="9.3600219"><ele>576.0</ele><time>2026-05-03T13:49:57.641Z</time></trkpt><trkpt lat="44.7825674" lon="9.3600904"><ele>576.0</ele><time>2026-05-03T13:49:58.644Z</time></trkpt><trkpt lat="44.7826898" lon="9.3601232"><ele>576.0</ele><time>2026-05-03T13:49:59.642Z</time></trkpt><trkpt lat="44.7828043" lon="9.3601261"><ele>577.2</ele><time>2026-05-03T13:50:00.639Z</time></trkpt><trkpt lat="44.7828867" lon="9.3600764"><ele>578.4000000000001</ele><time>2026-05-03T13:50:01.637Z</time></trkpt><trkpt lat="44.7829544" lon="9.3600109"><ele>579.6</ele><time>2026-05-03T13:50:02.642Z</time></trkpt><trkpt lat="44.7830273" lon="9.3598556"><ele>580.8000000000001</ele><time>2026-05-03T13:50:03.646Z</time></trkpt><trkpt lat="44.7830462" lon="9.3596721"><ele>582.0</ele><time>2026-05-03T13:50:04.64Z</time></trkpt><trkpt lat="44.7830488" lon="9.3594787"><ele>584.25</ele><time>2026-05-03T13:50:05.638Z</time></trkpt><trkpt lat="44.7830146" lon="9.3592835"><ele>586.5</ele><time>2026-05-03T13:50:06.638Z</time></trkpt><trkpt lat="44.7829284" lon="9.3591757"><ele>588.75</ele><time>2026-05-03T13:50:07.646Z</time></trkpt><trkpt lat="44.7828292" lon="9.3590595"><ele>591.0</ele><time>2026-05-03T13:50:08.638Z</time></trkpt><trkpt lat="44.7827348" lon="9.3589306"><ele>590.6</ele><time>2026-05-03T13:50:09.639Z</time></trkpt><trkpt lat="44.7826459" lon="9.3587974"><ele>590.2</ele><time>2026-05-03T13:50:10.639Z</time></trkpt><trkpt lat="44.7825856" lon="9.3586695"><ele>589.8</ele><time>2026-05-03T13:50:11.637Z</time></trkpt><trkpt lat="44.7825468" lon="9.3585444"><ele>589.4</ele><time>2026-05-03T13:50:12.642Z</time></trkpt><trkpt lat="44.7825628" lon="9.3584142"><ele>589.0</ele><time>2026-05-03T13:50:13.639Z</time></trkpt><trkpt lat="44.7826246" lon="9.3582892"><ele>591.6666666666667</ele><time>2026-05-03T13:50:14.64Z</time></trkpt><trkpt lat="44.7827269" lon="9.3581555"><ele>594.3333333333334</ele><time>2026-05-03T13:50:15.644Z</time></trkpt><trkpt lat="44.7828572" lon="9.3580226"><ele>597.0</ele><time>2026-05-03T13:50:16.645Z</time></trkpt><trkpt lat="44.7829972" lon="9.3578792"><ele>599.25</ele><time>2026-05-03T13:50:17.648Z</time></trkpt><trkpt lat="44.7831029" lon="9.3577399"><ele>601.5</ele><time>2026-05-03T13:50:18.642Z</time></trkpt><trkpt lat="44.7831394" lon="9.3576001"><ele>603.75</ele><time>2026-05-03T13:50:19.647Z</time></trkpt><trkpt lat="44.7831024" lon="9.3574314"><ele>606.0</ele><time>2026-05-03T13:50:20.647Z</time></trkpt><trkpt lat="44.7830687" lon="9.3572715"><ele>607.75</ele><time>2026-05-03T13:50:21.636Z</time></trkpt><trkpt lat="44.7830319" lon="9.3571111"><ele>609.5</ele><time>2026-05-03T13:50:22.639Z</time></trkpt><trkpt lat="44.7829104" lon="9.3569686"><ele>611.25</ele><time>2026-05-03T13:50:23.642Z</time></trkpt><trkpt lat="44.7828493" lon="9.3567767"><ele>613.0</ele><time>2026-05-03T13:50:24.639Z</time></trkpt><trkpt lat="44.7827313" lon="9.3566192"><ele>613.0</ele><time>2026-05-03T13:50:25.643Z</time></trkpt><trkpt lat="44.7826956" lon="9.3564834"><ele>613.0</ele><time>2026-05-03T13:50:26.638Z</time></trkpt><trkpt lat="44.7826955" lon="9.3563807"><ele>613.0</ele><time>2026-05-03T13:50:27.637Z</time></trkpt><trkpt lat="44.7827777" lon="9.3562974"><ele>613.0</ele><time>2026-05-03T13:50:28.634Z</time></trkpt><trkpt lat="44.7829175" lon="9.3562667"><ele>613.0</ele><time>2026-05-03T13:50:29.636Z</time></trkpt><trkpt lat="44.7830866" lon="9.3562523"><ele>613.0</ele><time>2026-05-03T13:50:30.639Z</time></trkpt><trkpt lat="44.7832712" lon="9.3562979"><ele>613.0</ele><time>2026-05-03T13:50:31.646Z</time></trkpt><trkpt lat="44.7834047" lon="9.3564029"><ele>613.0</ele><time>2026-05-03T13:50:32.644Z</time></trkpt><trkpt lat="44.7835108" lon="9.3564713"><ele>614.5</ele><time>2026-05-03T13:50:33.645Z</time></trkpt><trkpt lat="44.7836525" lon="9.3565044"><ele>616.0</ele><time>2026-05-03T13:50:34.646Z</time></trkpt><trkpt lat="44.783759" lon="9.3564899"><ele>617.5</ele><time>2026-05-03T13:50:35.647Z</time></trkpt><trkpt lat="44.7838905" lon="9.3564489"><ele>619.0</ele><time>2026-05-03T13:50:36.647Z</time></trkpt><trkpt lat="44.7840428" lon="9.3564241"><ele>619.0</ele><time>2026-05-03T13:50:37.648Z</time></trkpt><trkpt lat="44.7841937" lon="9.3564259"><ele>619.0</ele><time>2026-05-03T13:50:38.647Z</time></trkpt><trkpt lat="44.7843285" lon="9.3564469"><ele>619.0</ele><time>2026-05-03T13:50:39.648Z</time></trkpt><trkpt lat="44.7844343" lon="9.3565286"><ele>619.0</ele><time>2026-05-03T13:50:40.645Z</time></trkpt><trkpt lat="44.7845293" lon="9.3566268"><ele>620.0</ele><time>2026-05-03T13:50:41.648Z</time></trkpt><trkpt lat="44.7846257" lon="9.3567515"><ele>621.0</ele><time>2026-05-03T13:50:42.647Z</time></trkpt><trkpt lat="44.7847216" lon="9.3569094"><ele>622.0</ele><time>2026-05-03T13:50:43.645Z</time></trkpt><trkpt lat="44.784821" lon="9.3570306"><ele>623.0</ele><time>2026-05-03T13:50:44.647Z</time></trkpt><trkpt lat="44.7849108" lon="9.3571594"><ele>622.25</ele><time>2026-05-03T13:50:45.65Z</time></trkpt><trkpt lat="44.7850183" lon="9.357249"><ele>621.5</ele><time>2026-05-03T13:50:46.64Z</time></trkpt><trkpt lat="44.7851029" lon="9.3572668"><ele>620.75</ele><time>2026-05-03T13:50:47.633Z</time></trkpt><trkpt lat="44.7851934" lon="9.3571772"><ele>620.0</ele><time>2026-05-03T13:50:48.634Z</time></trkpt><trkpt lat="44.7853068" lon="9.3570314"><ele>622.5</ele><time>2026-05-03T13:50:49.634Z</time></trkpt><trkpt lat="44.7854149" lon="9.3569164"><ele>625.0</ele><time>2026-05-03T13:50:50.638Z</time></trkpt><trkpt lat="44.7855412" lon="9.3568092"><ele>627.5</ele><time>2026-05-03T13:50:51.641Z</time></trkpt><trkpt lat="44.7856647" lon="9.3566647"><ele>630.0</ele><time>2026-05-03T13:50:52.643Z</time></trkpt><trkpt lat="44.7857275" lon="9.3564302"><ele>631.0</ele><time>2026-05-03T13:50:53.643Z</time></trkpt><trkpt lat="44.7858217" lon="9.3562755"><ele>632.0</ele><time>2026-05-03T13:50:54.644Z</time></trkpt><trkpt lat="44.7859457" lon="9.3561832"><ele>633.0</ele><time>2026-05-03T13:50:55.643Z</time></trkpt><trkpt lat="44.7860704" lon="9.3560883"><ele>634.0</ele><time>2026-05-03T13:50:56.647Z</time></trkpt><trkpt lat="44.7861776" lon="9.3559822"><ele>636.0</ele><time>2026-05-03T13:50:57.642Z</time></trkpt><trkpt lat="44.7863083" lon="9.3558484"><ele>638.0</ele><time>2026-05-03T13:50:58.646Z</time></trkpt><trkpt lat="44.7864755" lon="9.3557512"><ele>640.0</ele><time>2026-05-03T13:50:59.646Z</time></trkpt><trkpt lat="44.7866244" lon="9.355679"><ele>640.0</ele><time>2026-05-03T13:51:00.642Z</time></trkpt><trkpt lat="44.7867878" lon="9.3556034"><ele>640.0</ele><time>2026-05-03T13:51:01.642Z</time></trkpt><trkpt lat="44.7869371" lon="9.355512"><ele>640.0</ele><time>2026-05-03T13:51:02.646Z</time></trkpt><trkpt lat="44.7871031" lon="9.3554155"><ele>643.25</ele><time>2026-05-03T13:51:03.642Z</time></trkpt><trkpt lat="44.7872609" lon="9.3553722"><ele>646.5</ele><time>2026-05-03T13:51:04.642Z</time></trkpt><trkpt lat="44.7873663" lon="9.3553822"><ele>649.75</ele><time>2026-05-03T13:51:05.643Z</time></trkpt><trkpt lat="44.7874555" lon="9.3553961"><ele>653.0</ele><time>2026-05-03T13:51:06.639Z</time></trkpt><trkpt lat="44.787513" lon="9.3555447"><ele>653.0</ele><time>2026-05-03T13:51:07.64Z</time></trkpt><trkpt lat="44.7875505" lon="9.355806"><ele>653.0</ele><time>2026-05-03T13:51:08.642Z</time></trkpt><trkpt lat="44.787576" lon="9.3560587"><ele>653.0</ele><time>2026-05-03T13:51:09.642Z</time></trkpt><trkpt lat="44.7876288" lon="9.3562754"><ele>653.0</ele><time>2026-05-03T13:51:10.641Z</time></trkpt><trkpt lat="44.7876267" lon="9.3565349"><ele>653.0</ele><time>2026-05-03T13:51:11.642Z</time></trkpt><trkpt lat="44.7876592" lon="9.3568058"><ele>653.0</ele><time>2026-05-03T13:51:12.642Z</time></trkpt><trkpt lat="44.7876787" lon="9.3570417"><ele>654.0</ele><time>2026-05-03T13:51:13.643Z</time></trkpt><trkpt lat="44.7876781" lon="9.3572642"><ele>655.0</ele><time>2026-05-03T13:51:14.642Z</time></trkpt><trkpt lat="44.7876761" lon="9.3574863"><ele>656.0</ele><time>2026-05-03T13:51:15.643Z</time></trkpt><trkpt lat="44.7877049" lon="9.3577145"><ele>660.3333333333333</ele><time>2026-05-03T13:51:16.646Z</time></trkpt><trkpt lat="44.7877566" lon="9.3579312"><ele>664.6666666666666</ele><time>2026-05-03T13:51:17.641Z</time></trkpt><trkpt lat="44.7878319" lon="9.3581167"><ele>669.0</ele><time>2026-05-03T13:51:18.641Z</time></trkpt><trkpt lat="44.7879788" lon="9.3582809"><ele>669.6666666666666</ele><time>2026-05-03T13:51:19.64Z</time></trkpt><trkpt lat="44.7880846" lon="9.3584871"><ele>670.3333333333333</ele><time>2026-05-03T13:51:20.64Z</time></trkpt><trkpt lat="44.7881848" lon="9.3586247"><ele>671.0</ele><time>2026-05-03T13:51:21.639Z</time></trkpt><trkpt lat="44.788313" lon="9.3587745"><ele>671.0</ele><time>2026-05-03T13:51:22.64Z</time></trkpt><trkpt lat="44.7884473" lon="9.3589094"><ele>671.0</ele><time>2026-05-03T13:51:23.637Z</time></trkpt><trkpt lat="44.7885881" lon="9.359015"><ele>671.0</ele><time>2026-05-03T13:51:24.644Z</time></trkpt><trkpt lat="44.7887414" lon="9.3588772"><ele>674.5</ele><time>2026-05-03T13:51:25.643Z</time></trkpt><trkpt lat="44.7889014" lon="9.3587365"><ele>678.0</ele><time>2026-05-03T13:51:26.641Z</time></trkpt><trkpt lat="44.7892106" lon="9.3585117"><ele>683.5</ele><time>2026-05-03T13:51:27.642Z</time></trkpt><trkpt lat="44.789458" lon="9.3584523"><ele>689.0</ele><time>2026-05-03T13:51:28.638Z</time></trkpt><trkpt lat="44.789661" lon="9.3584487"><ele>689.0</ele><time>2026-05-03T13:51:29.637Z</time></trkpt><trkpt lat="44.7898931" lon="9.3585357"><ele>689.0</ele><time>2026-05-03T13:51:30.639Z</time></trkpt><trkpt lat="44.7901058" lon="9.3587102"><ele>694.5</ele><time>2026-05-03T13:51:31.63Z</time></trkpt><trkpt lat="44.7903192" lon="9.3588348"><ele>700.0</ele><time>2026-05-03T13:51:32.621Z</time></trkpt><trkpt lat="44.7905792" lon="9.3591861"><ele>700.0</ele><time>2026-05-03T13:51:33.64Z</time></trkpt><trkpt lat="44.7908043" lon="9.3595555"><ele>700.0</ele><time>2026-05-03T13:51:34.648Z</time></trkpt><trkpt lat="44.7910087" lon="9.3598699"><ele>706.0</ele><time>2026-05-03T13:51:35.643Z</time></trkpt><trkpt lat="44.7911152" lon="9.3601979"><ele>712.0</ele><time>2026-05-03T13:51:36.645Z</time></trkpt><trkpt lat="44.7911809" lon="9.3605065"><ele>710.5</ele><time>2026-05-03T13:51:37.642Z</time></trkpt><trkpt lat="44.7912369" lon="9.3608474"><ele>709.0</ele><time>2026-05-03T13:51:38.641Z</time></trkpt><trkpt lat="44.7913668" lon="9.3611633"><ele>709.0</ele><time>2026-05-03T13:51:39.642Z</time></trkpt><trkpt lat="44.791547" lon="9.361348"><ele>709.0</ele><time>2026-05-03T13:51:40.642Z</time></trkpt><trkpt lat="44.7917086" lon="9.3615547"><ele>709.0</ele><time>2026-05-03T13:51:41.639Z</time></trkpt><trkpt lat="44.7918325" lon="9.3617406"><ele>710.3333333333334</ele><time>2026-05-03T13:51:42.639Z</time></trkpt><trkpt lat="44.791983" lon="9.3618482"><ele>711.6666666666666</ele><time>2026-05-03T13:51:43.634Z</time></trkpt><trkpt lat="44.7921477" lon="9.3619312"><ele>713.0</ele><time>2026-05-03T13:51:44.637Z</time></trkpt><trkpt lat="44.7923293" lon="9.3619594"><ele>713.0</ele><time>2026-05-03T13:51:45.643Z</time></trkpt><trkpt lat="44.7924897" lon="9.3619235"><ele>713.0</ele><time>2026-05-03T13:51:46.619Z</time></trkpt><trkpt lat="44.7926189" lon="9.3618282"><ele>713.0</ele><time>2026-05-03T13:51:47.627Z</time></trkpt><trkpt lat="44.7927535" lon="9.3615834"><ele>717.5</ele><time>2026-05-03T13:51:48.637Z</time></trkpt><trkpt lat="44.7928728" lon="9.3612269"><ele>722.0</ele><time>2026-05-03T13:51:49.65Z</time></trkpt><trkpt lat="44.7930021" lon="9.3610576"><ele>722.0</ele><time>2026-05-03T13:51:50.658Z</time></trkpt><trkpt lat="44.7931904" lon="9.3608893"><ele>722.0</ele><time>2026-05-03T13:51:51.647Z</time></trkpt><trkpt lat="44.7933412" lon="9.3607969"><ele>722.0</ele><time>2026-05-03T13:51:52.652Z</time></trkpt><trkpt lat="44.793505" lon="9.3607984"><ele>725.6666666666666</ele><time>2026-05-03T13:51:53.644Z</time></trkpt><trkpt lat="44.7936065" lon="9.360836"><ele>729.3333333333334</ele><time>2026-05-03T13:51:54.637Z</time></trkpt><trkpt lat="44.7936737" lon="9.3611452"><ele>733.0</ele><time>2026-05-03T13:51:55.656Z</time></trkpt><trkpt lat="44.7936807" lon="9.3614583"><ele>733.0</ele><time>2026-05-03T13:51:56.643Z</time></trkpt><trkpt lat="44.7937488" lon="9.3617964"><ele>733.0</ele><time>2026-05-03T13:51:57.644Z</time></trkpt><trkpt lat="44.7938214" lon="9.3621647"><ele>732.5</ele><time>2026-05-03T13:51:58.639Z</time></trkpt><trkpt lat="44.7939262" lon="9.3625825"><ele>732.0</ele><time>2026-05-03T13:51:59.646Z</time></trkpt><trkpt lat="44.7940111" lon="9.3629261"><ele>731.0</ele><time>2026-05-03T13:52:00.653Z</time></trkpt><trkpt lat="44.7941014" lon="9.363308"><ele>730.0</ele><time>2026-05-03T13:52:01.647Z</time></trkpt><trkpt lat="44.7941861" lon="9.3637133"><ele>729.5</ele><time>2026-05-03T13:52:02.651Z</time></trkpt><trkpt lat="44.7942589" lon="9.3640725"><ele>729.0</ele><time>2026-05-03T13:52:03.652Z</time></trkpt><trkpt lat="44.7943054" lon="9.3643671"><ele>729.0</ele><time>2026-05-03T13:52:04.642Z</time></trkpt><trkpt lat="44.7943345" lon="9.3646707"><ele>729.0</ele><time>2026-05-03T13:52:05.655Z</time></trkpt><trkpt lat="44.7943227" lon="9.3649526"><ele>729.0</ele><time>2026-05-03T13:52:06.638Z</time></trkpt><trkpt lat="44.7942825" lon="9.3652662"><ele>735.6666666666666</ele><time>2026-05-03T13:52:07.64Z</time></trkpt><trkpt lat="44.7942344" lon="9.3655863"><ele>742.3333333333333</ele><time>2026-05-03T13:52:08.639Z</time></trkpt><trkpt lat="44.7941865" lon="9.3658371"><ele>749.0</ele><time>2026-05-03T13:52:09.635Z</time></trkpt><trkpt lat="44.7940612" lon="9.3660745"><ele>749.0</ele><time>2026-05-03T13:52:10.64Z</time></trkpt><trkpt lat="44.7939036" lon="9.3662709"><ele>749.0</ele><time>2026-05-03T13:52:11.658Z</time></trkpt><trkpt lat="44.7937857" lon="9.3664903"><ele>749.0</ele><time>2026-05-03T13:52:12.642Z</time></trkpt><trkpt lat="44.7937274" lon="9.3667463"><ele>751.0</ele><time>2026-05-03T13:52:13.639Z</time></trkpt><trkpt lat="44.7936922" lon="9.3670295"><ele>753.0</ele><time>2026-05-03T13:52:14.643Z</time></trkpt><trkpt lat="44.7936558" lon="9.3673597"><ele>755.0</ele><time>2026-05-03T13:52:15.643Z</time></trkpt><trkpt lat="44.7936041" lon="9.3676457"><ele>756.6666666666666</ele><time>2026-05-03T13:52:16.648Z</time></trkpt><trkpt lat="44.7935557" lon="9.3678978"><ele>758.3333333333334</ele><time>2026-05-03T13:52:17.649Z</time></trkpt><trkpt lat="44.793533" lon="9.3681476"><ele>760.0</ele><time>2026-05-03T13:52:18.644Z</time></trkpt><trkpt lat="44.7935003" lon="9.3684169"><ele>756.6666666666667</ele><time>2026-05-03T13:52:19.646Z</time></trkpt><trkpt lat="44.7934562" lon="9.3687091"><ele>753.3333333333334</ele><time>2026-05-03T13:52:20.645Z</time></trkpt><trkpt lat="44.793422" lon="9.3689931"><ele>750.0</ele><time>2026-05-03T13:52:21.66Z</time></trkpt><trkpt lat="44.7934276" lon="9.3692724"><ele>750.0</ele><time>2026-05-03T13:52:22.65Z</time></trkpt><trkpt lat="44.7934716" lon="9.3695597"><ele>750.0</ele><time>2026-05-03T13:52:23.648Z</time></trkpt><trkpt lat="44.793501" lon="9.3698336"><ele>750.0</ele><time>2026-05-03T13:52:24.646Z</time></trkpt><trkpt lat="44.7935261" lon="9.3700836"><ele>751.0</ele><time>2026-05-03T13:52:25.639Z</time></trkpt><trkpt lat="44.793571" lon="9.3703432"><ele>752.0</ele><time>2026-05-03T13:52:26.655Z</time></trkpt><trkpt lat="44.7935418" lon="9.3705011"><ele>753.0</ele><time>2026-05-03T13:52:27.647Z</time></trkpt><trkpt lat="44.7935251" lon="9.3706106"><ele>754.0</ele><time>2026-05-03T13:52:28.654Z</time></trkpt><trkpt lat="44.7935925" lon="9.3706824"><ele>754.0</ele><time>2026-05-03T13:52:29.655Z</time></trkpt><trkpt lat="44.7936715" lon="9.3707458"><ele>754.0</ele><time>2026-05-03T13:52:30.648Z</time></trkpt><trkpt lat="44.7938098" lon="9.3707555"><ele>754.0</ele><time>2026-05-03T13:52:31.647Z</time></trkpt><trkpt lat="44.7939504" lon="9.3707031"><ele>754.0</ele><time>2026-05-03T13:52:32.66Z</time></trkpt><trkpt lat="44.7940929" lon="9.3706082"><ele>758.0</ele><time>2026-05-03T13:52:33.646Z</time></trkpt><trkpt lat="44.7942415" lon="9.3704566"><ele>762.0</ele><time>2026-05-03T13:52:34.643Z</time></trkpt><trkpt lat="44.7943876" lon="9.3703643"><ele>766.0</ele><time>2026-05-03T13:52:35.644Z</time></trkpt><trkpt lat="44.7945574" lon="9.3702495"><ele>768.6666666666667</ele><time>2026-05-03T13:52:36.645Z</time></trkpt><trkpt lat="44.7947296" lon="9.3701262"><ele>771.3333333333334</ele><time>2026-05-03T13:52:37.659Z</time></trkpt><trkpt lat="44.794956" lon="9.3700348"><ele>774.0</ele><time>2026-05-03T13:52:38.645Z</time></trkpt><trkpt lat="44.7951417" lon="9.3699401"><ele>782.6666666666667</ele><time>2026-05-03T13:52:39.647Z</time></trkpt><trkpt lat="44.7953277" lon="9.3698045"><ele>791.3333333333334</ele><time>2026-05-03T13:52:40.645Z</time></trkpt><trkpt lat="44.795471" lon="9.3696174"><ele>800.0</ele><time>2026-05-03T13:52:41.647Z</time></trkpt><trkpt lat="44.7955591" lon="9.3694735"><ele>800.0</ele><time>2026-05-03T13:52:42.658Z</time></trkpt><trkpt lat="44.7956296" lon="9.3692047"><ele>800.0</ele><time>2026-05-03T13:52:43.643Z</time></trkpt><trkpt lat="44.7956304" lon="9.3690331"><ele>800.0</ele><time>2026-05-03T13:52:44.642Z</time></trkpt><trkpt lat="44.7955378" lon="9.3688954"><ele>797.3333333333334</ele><time>2026-05-03T13:52:45.643Z</time></trkpt><trkpt lat="44.7954528" lon="9.3687122"><ele>794.6666666666667</ele><time>2026-05-03T13:52:46.644Z</time></trkpt><trkpt lat="44.795397" lon="9.3684377"><ele>792.0</ele><time>2026-05-03T13:52:47.656Z</time></trkpt><trkpt lat="44.7953953" lon="9.3681533"><ele>791.6666666666667</ele><time>2026-05-03T13:52:48.645Z</time></trkpt><trkpt lat="44.7954927" lon="9.3678886"><ele>791.3333333333334</ele><time>2026-05-03T13:52:49.644Z</time></trkpt><trkpt lat="44.7956166" lon="9.367679"><ele>791.0</ele><time>2026-05-03T13:52:50.644Z</time></trkpt><trkpt lat="44.7957331" lon="9.3674932"><ele>791.0</ele><time>2026-05-03T13:52:51.647Z</time></trkpt><trkpt lat="44.7958123" lon="9.3672616"><ele>791.0</ele><time>2026-05-03T13:52:52.662Z</time></trkpt><trkpt lat="44.7959137" lon="9.3671454"><ele>791.0</ele><time>2026-05-03T13:52:53.648Z</time></trkpt><trkpt lat="44.7960273" lon="9.3670208"><ele>793.5</ele><time>2026-05-03T13:52:54.649Z</time></trkpt><trkpt lat="44.7961132" lon="9.3668823"><ele>796.0</ele><time>2026-05-03T13:52:55.646Z</time></trkpt><trkpt lat="44.7962073" lon="9.3667647"><ele>798.5</ele><time>2026-05-03T13:52:56.645Z</time></trkpt><trkpt lat="44.796301" lon="9.3666615"><ele>801.0</ele><time>2026-05-03T13:52:57.656Z</time></trkpt><trkpt lat="44.7963718" lon="9.3665647"><ele>801.0</ele><time>2026-05-03T13:52:58.646Z</time></trkpt><trkpt lat="44.7964301" lon="9.3664958"><ele>801.0</ele><time>2026-05-03T13:52:59.65Z</time></trkpt><trkpt lat="44.7964824" lon="9.3664332"><ele>801.0</ele><time>2026-05-03T13:53:00.645Z</time></trkpt><trkpt lat="44.7965405" lon="9.3663763"><ele>801.0</ele><time>2026-05-03T13:53:01.646Z</time></trkpt><trkpt lat="44.796626" lon="9.3662625"><ele>801.0</ele><time>2026-05-03T13:53:03.649Z</time></trkpt><trkpt lat="44.7966608" lon="9.3661649"><ele>801.0</ele><time>2026-05-03T13:53:05.645Z</time></trkpt><trkpt lat="44.7966954" lon="9.3660886"><ele>801.0</ele><time>2026-05-03T13:53:34.648Z</time></trkpt><trkpt lat="44.7967529" lon="9.3660067"><ele>801.0</ele><time>2026-05-03T13:53:37.644Z</time></trkpt><trkpt lat="44.7967738" lon="9.3658236"><ele>801.0</ele><time>2026-05-03T13:53:39.646Z</time></trkpt><trkpt lat="44.7968027" lon="9.3656707"><ele>801.0</ele><time>2026-05-03T13:53:40.63Z</time></trkpt><trkpt lat="44.7968451" lon="9.3654924"><ele>809.0</ele><time>2026-05-03T13:53:41.645Z</time></trkpt><trkpt lat="44.7969235" lon="9.3652475"><ele>817.0</ele><time>2026-05-03T13:53:42.647Z</time></trkpt><trkpt lat="44.7970206" lon="9.365041"><ele>825.0</ele><time>2026-05-03T13:53:43.632Z</time></trkpt><trkpt lat="44.7971535" lon="9.3647874"><ele>826.5</ele><time>2026-05-03T13:53:44.641Z</time></trkpt><trkpt lat="44.7972947" lon="9.3644368"><ele>828.0</ele><time>2026-05-03T13:53:45.645Z</time></trkpt><trkpt lat="44.7974133" lon="9.3640909"><ele>826.0</ele><time>2026-05-03T13:53:46.648Z</time></trkpt><trkpt lat="44.7975617" lon="9.3637386"><ele>824.0</ele><time>2026-05-03T13:53:47.643Z</time></trkpt><trkpt lat="44.7976981" lon="9.3634789"><ele>831.5</ele><time>2026-05-03T13:53:48.644Z</time></trkpt><trkpt lat="44.7978482" lon="9.3631989"><ele>839.0</ele><time>2026-05-03T13:53:49.662Z</time></trkpt><trkpt lat="44.7979919" lon="9.3629726"><ele>839.0</ele><time>2026-05-03T13:53:50.644Z</time></trkpt><trkpt lat="44.7981553" lon="9.3627136"><ele>839.0</ele><time>2026-05-03T13:53:51.646Z</time></trkpt><trkpt lat="44.7983844" lon="9.3624567"><ele>847.0</ele><time>2026-05-03T13:53:52.653Z</time></trkpt><trkpt lat="44.7985505" lon="9.3624364"><ele>855.0</ele><time>2026-05-03T13:53:53.652Z</time></trkpt><trkpt lat="44.7987077" lon="9.3623897"><ele>863.0</ele><time>2026-05-03T13:53:54.663Z</time></trkpt><trkpt lat="44.7988366" lon="9.3623128"><ele>863.0</ele><time>2026-05-03T13:53:55.649Z</time></trkpt><trkpt lat="44.7989075" lon="9.3621996"><ele>863.0</ele><time>2026-05-03T13:53:56.646Z</time></trkpt><trkpt lat="44.7989214" lon="9.3619717"><ele>863.0</ele><time>2026-05-03T13:53:57.646Z</time></trkpt><trkpt lat="44.7989105" lon="9.3617377"><ele>863.0</ele><time>2026-05-03T13:53:58.649Z</time></trkpt><trkpt lat="44.7988589" lon="9.3615721"><ele>862.6666666666667</ele><time>2026-05-03T13:53:59.661Z</time></trkpt><trkpt lat="44.7988219" lon="9.3613927"><ele>862.3333333333333</ele><time>2026-05-03T13:54:00.646Z</time></trkpt><trkpt lat="44.7988405" lon="9.3611318"><ele>862.0</ele><time>2026-05-03T13:54:01.646Z</time></trkpt><trkpt lat="44.7988946" lon="9.3607907"><ele>862.0</ele><time>2026-05-03T13:54:02.652Z</time></trkpt><trkpt lat="44.7989961" lon="9.360533"><ele>862.0</ele><time>2026-05-03T13:54:03.648Z</time></trkpt><trkpt lat="44.7990845" lon="9.3603536"><ele>862.0</ele><time>2026-05-03T13:54:04.653Z</time></trkpt><trkpt lat="44.7991879" lon="9.3601604"><ele>860.3333333333333</ele><time>2026-05-03T13:54:05.644Z</time></trkpt><trkpt lat="44.7992977" lon="9.360025"><ele>858.6666666666667</ele><time>2026-05-03T13:54:06.651Z</time></trkpt><trkpt lat="44.7993744" lon="9.3598362"><ele>857.0</ele><time>2026-05-03T13:54:07.651Z</time></trkpt><trkpt lat="44.799329" lon="9.3596269"><ele>857.0</ele><time>2026-05-03T13:54:08.651Z</time></trkpt><trkpt lat="44.7992535" lon="9.3594209"><ele>857.0</ele><time>2026-05-03T13:54:09.655Z</time></trkpt><trkpt lat="44.7991983" lon="9.3592189"><ele>857.0</ele><time>2026-05-03T13:54:10.645Z</time></trkpt><trkpt lat="44.7992214" lon="9.3590381"><ele>857.0</ele><time>2026-05-03T13:54:11.644Z</time></trkpt><trkpt lat="44.7993172" lon="9.3588661"><ele>857.0</ele><time>2026-05-03T13:54:12.643Z</time></trkpt><trkpt lat="44.7994409" lon="9.3587001"><ele>857.0</ele><time>2026-05-03T13:54:13.65Z</time></trkpt><trkpt lat="44.7995812" lon="9.3586491"><ele>857.0</ele><time>2026-05-03T13:54:14.667Z</time></trkpt><trkpt lat="44.7997351" lon="9.3586062"><ele>857.0</ele><time>2026-05-03T13:54:15.651Z</time></trkpt><trkpt lat="44.7999176" lon="9.358602"><ele>857.0</ele><time>2026-05-03T13:54:16.655Z</time></trkpt><trkpt lat="44.8000814" lon="9.358629"><ele>857.0</ele><time>2026-05-03T13:54:17.643Z</time></trkpt><trkpt lat="44.8002811" lon="9.3586946"><ele>859.75</ele><time>2026-05-03T13:54:18.651Z</time></trkpt><trkpt lat="44.8004231" lon="9.3586576"><ele>862.5</ele><time>2026-05-03T13:54:19.66Z</time></trkpt><trkpt lat="44.8005572" lon="9.3586829"><ele>865.25</ele><time>2026-05-03T13:54:20.652Z</time></trkpt><trkpt lat="44.8006926" lon="9.3587935"><ele>868.0</ele><time>2026-05-03T13:54:21.647Z</time></trkpt><trkpt lat="44.8008374" lon="9.3590494"><ele>874.6666666666666</ele><time>2026-05-03T13:54:22.65Z</time></trkpt><trkpt lat="44.8009818" lon="9.3592616"><ele>881.3333333333333</ele><time>2026-05-03T13:54:23.642Z</time></trkpt><trkpt lat="44.8011307" lon="9.3594545"><ele>888.0</ele><time>2026-05-03T13:54:24.658Z</time></trkpt><trkpt lat="44.801309" lon="9.3595762"><ele>889.75</ele><time>2026-05-03T13:54:25.649Z</time></trkpt><trkpt lat="44.801423" lon="9.3596092"><ele>891.5</ele><time>2026-05-03T13:54:26.645Z</time></trkpt><trkpt lat="44.8015138" lon="9.3595602"><ele>893.25</ele><time>2026-05-03T13:54:27.641Z</time></trkpt><trkpt lat="44.8015992" lon="9.3593726"><ele>895.0</ele><time>2026-05-03T13:54:28.646Z</time></trkpt><trkpt lat="44.8017094" lon="9.359172"><ele>895.0</ele><time>2026-05-03T13:54:29.657Z</time></trkpt><trkpt lat="44.8018287" lon="9.3589573"><ele>895.0</ele><time>2026-05-03T13:54:30.644Z</time></trkpt><trkpt lat="44.8019927" lon="9.3586761"><ele>894.3333333333333</ele><time>2026-05-03T13:54:31.648Z</time></trkpt><trkpt lat="44.802207" lon="9.3585655"><ele>893.6666666666667</ele><time>2026-05-03T13:54:32.65Z</time></trkpt><trkpt lat="44.8024059" lon="9.3585005"><ele>893.0</ele><time>2026-05-03T13:54:33.656Z</time></trkpt><trkpt lat="44.802612" lon="9.3584938"><ele>897.6666666666667</ele><time>2026-05-03T13:54:34.668Z</time></trkpt><trkpt lat="44.8028185" lon="9.358498"><ele>902.3333333333333</ele><time>2026-05-03T13:54:35.645Z</time></trkpt><trkpt lat="44.8030213" lon="9.3585063"><ele>907.0</ele><time>2026-05-03T13:54:36.646Z</time></trkpt><trkpt lat="44.8032175" lon="9.3585843"><ele>907.0</ele><time>2026-05-03T13:54:37.644Z</time></trkpt><trkpt lat="44.8033806" lon="9.3586629"><ele>907.0</ele><time>2026-05-03T13:54:38.643Z</time></trkpt><trkpt lat="44.803466" lon="9.358683"><ele>907.0</ele><time>2026-05-03T13:54:39.658Z</time></trkpt><trkpt lat="44.8035421" lon="9.358681"><ele>907.0</ele><time>2026-05-03T13:54:40.645Z</time></trkpt><trkpt lat="44.8035891" lon="9.3586043"><ele>907.0</ele><time>2026-05-03T13:54:41.64Z</time></trkpt><trkpt lat="44.8036225" lon="9.3584148"><ele>913.3333333333333</ele><time>2026-05-03T13:54:42.645Z</time></trkpt><trkpt lat="44.8037246" lon="9.3582258"><ele>919.6666666666667</ele><time>2026-05-03T13:54:43.645Z</time></trkpt><trkpt lat="44.80383" lon="9.358111"><ele>926.0</ele><time>2026-05-03T13:54:44.662Z</time></trkpt><trkpt lat="44.8039446" lon="9.3578287"><ele>926.0</ele><time>2026-05-03T13:54:45.65Z</time></trkpt><trkpt lat="44.8039985" lon="9.3575863"><ele>926.0</ele><time>2026-05-03T13:54:46.655Z</time></trkpt><trkpt lat="44.8040435" lon="9.3573264"><ele>926.0</ele><time>2026-05-03T13:54:47.652Z</time></trkpt><trkpt lat="44.8040602" lon="9.3570683"><ele>926.3333333333334</ele><time>2026-05-03T13:54:48.65Z</time></trkpt><trkpt lat="44.8040795" lon="9.356796"><ele>926.6666666666667</ele><time>2026-05-03T13:54:49.664Z</time></trkpt><trkpt lat="44.8041222" lon="9.3565698"><ele>927.0</ele><time>2026-05-03T13:54:50.654Z</time></trkpt><trkpt lat="44.804133" lon="9.3563474"><ele>925.0</ele><time>2026-05-03T13:54:51.656Z</time></trkpt><trkpt lat="44.804244" lon="9.3562558"><ele>923.0</ele><time>2026-05-03T13:54:52.662Z</time></trkpt><trkpt lat="44.8043361" lon="9.3561796"><ele>921.0</ele><time>2026-05-03T13:54:53.658Z</time></trkpt><trkpt lat="44.804422" lon="9.3561171"><ele>919.0</ele><time>2026-05-03T13:54:54.668Z</time></trkpt><trkpt lat="44.8045245" lon="9.3560077"><ele>927.3333333333333</ele><time>2026-05-03T13:54:55.658Z</time></trkpt><trkpt lat="44.8045925" lon="9.3558479"><ele>935.6666666666667</ele><time>2026-05-03T13:54:56.65Z</time></trkpt><trkpt lat="44.8045883" lon="9.3556168"><ele>944.0</ele><time>2026-05-03T13:54:57.65Z</time></trkpt><trkpt lat="44.8046007" lon="9.3553483"><ele>944.0</ele><time>2026-05-03T13:54:58.658Z</time></trkpt><trkpt lat="44.804589" lon="9.3551281"><ele>944.0</ele><time>2026-05-03T13:54:59.667Z</time></trkpt><trkpt lat="44.8045977" lon="9.3549002"><ele>944.0</ele><time>2026-05-03T13:55:00.649Z</time></trkpt><trkpt lat="44.8045725" lon="9.3547414"><ele>944.0</ele><time>2026-05-03T13:55:01.65Z</time></trkpt><trkpt lat="44.804538" lon="9.3545987"><ele>942.0</ele><time>2026-05-03T13:55:02.65Z</time></trkpt><trkpt lat="44.8046442" lon="9.3544157"><ele>940.0</ele><time>2026-05-03T13:55:03.652Z</time></trkpt><trkpt lat="44.8047791" lon="9.3543238"><ele>938.0</ele><time>2026-05-03T13:55:04.666Z</time></trkpt><trkpt lat="44.8049079" lon="9.3542446"><ele>938.0</ele><time>2026-05-03T13:55:05.65Z</time></trkpt><trkpt lat="44.8050461" lon="9.3541241"><ele>938.0</ele><time>2026-05-03T13:55:06.65Z</time></trkpt><trkpt lat="44.8051912" lon="9.3539755"><ele>938.0</ele><time>2026-05-03T13:55:07.65Z</time></trkpt><trkpt lat="44.8053412" lon="9.3537448"><ele>942.0</ele><time>2026-05-03T13:55:08.647Z</time></trkpt><trkpt lat="44.8054735" lon="9.3535533"><ele>946.0</ele><time>2026-05-03T13:55:09.662Z</time></trkpt><trkpt lat="44.8056142" lon="9.3533539"><ele>950.0</ele><time>2026-05-03T13:55:10.654Z</time></trkpt><trkpt lat="44.8057213" lon="9.3531672"><ele>951.25</ele><time>2026-05-03T13:55:11.65Z</time></trkpt><trkpt lat="44.8057941" lon="9.3529303"><ele>952.5</ele><time>2026-05-03T13:55:12.645Z</time></trkpt><trkpt lat="44.8058327" lon="9.3527794"><ele>953.75</ele><time>2026-05-03T13:55:13.646Z</time></trkpt><trkpt lat="44.8058808" lon="9.3525978"><ele>955.0</ele><time>2026-05-03T13:55:14.647Z</time></trkpt><trkpt lat="44.8058726" lon="9.3523992"><ele>955.0</ele><time>2026-05-03T13:55:15.658Z</time></trkpt><trkpt lat="44.8058291" lon="9.3522093"><ele>955.0</ele><time>2026-05-03T13:55:16.648Z</time></trkpt><trkpt lat="44.8057587" lon="9.3520731"><ele>955.0</ele><time>2026-05-03T13:55:17.651Z</time></trkpt><trkpt lat="44.8057193" lon="9.3519171"><ele>955.0</ele><time>2026-05-03T13:55:18.646Z</time></trkpt><trkpt lat="44.8057444" lon="9.3517924"><ele>954.3333333333333</ele><time>2026-05-03T13:55:19.644Z</time></trkpt><trkpt lat="44.8058104" lon="9.3516149"><ele>953.6666666666667</ele><time>2026-05-03T13:55:20.654Z</time></trkpt><trkpt lat="44.8058628" lon="9.3514018"><ele>953.0</ele><time>2026-05-03T13:55:21.649Z</time></trkpt><trkpt lat="44.8059077" lon="9.3511539"><ele>953.0</ele><time>2026-05-03T13:55:22.653Z</time></trkpt><trkpt lat="44.8059462" lon="9.3510287"><ele>953.0</ele><time>2026-05-03T13:55:23.648Z</time></trkpt><trkpt lat="44.8059902" lon="9.350856"><ele>953.0</ele><time>2026-05-03T13:55:24.65Z</time></trkpt><trkpt lat="44.8060157" lon="9.3506418"><ele>953.0</ele><time>2026-05-03T13:55:25.663Z</time></trkpt><trkpt lat="44.8060581" lon="9.3504868"><ele>957.0</ele><time>2026-05-03T13:55:26.648Z</time></trkpt><trkpt lat="44.8061324" lon="9.3503244"><ele>961.0</ele><time>2026-05-03T13:55:27.649Z</time></trkpt><trkpt lat="44.8062497" lon="9.3502411"><ele>965.0</ele><time>2026-05-03T13:55:28.648Z</time></trkpt><trkpt lat="44.8063539" lon="9.3501816"><ele>969.0</ele><time>2026-05-03T13:55:29.652Z</time></trkpt><trkpt lat="44.8064936" lon="9.3500998"><ele>969.0</ele><time>2026-05-03T13:55:30.664Z</time></trkpt><trkpt lat="44.806631" lon="9.3500499"><ele>969.0</ele><time>2026-05-03T13:55:31.645Z</time></trkpt><trkpt lat="44.8067456" lon="9.3499677"><ele>969.0</ele><time>2026-05-03T13:55:32.648Z</time></trkpt><trkpt lat="44.806793" lon="9.3497488"><ele>969.0</ele><time>2026-05-03T13:55:33.645Z</time></trkpt><trkpt lat="44.8067986" lon="9.3495376"><ele>969.0</ele><time>2026-05-03T13:55:34.646Z</time></trkpt><trkpt lat="44.8068102" lon="9.3493156"><ele>969.0</ele><time>2026-05-03T13:55:35.658Z</time></trkpt><trkpt lat="44.8068335" lon="9.3490966"><ele>969.0</ele><time>2026-05-03T13:55:36.65Z</time></trkpt><trkpt lat="44.8068479" lon="9.3488674"><ele>980.6666666666667</ele><time>2026-05-03T13:55:37.65Z</time></trkpt><trkpt lat="44.8068499" lon="9.3486275"><ele>992.3333333333334</ele><time>2026-05-03T13:55:38.65Z</time></trkpt><trkpt lat="44.8068645" lon="9.348411"><ele>1004.0</ele><time>2026-05-03T13:55:39.647Z</time></trkpt><trkpt lat="44.8068723" lon="9.3481999"><ele>1006.3333333333334</ele><time>2026-05-03T13:55:40.661Z</time></trkpt><trkpt lat="44.8068294" lon="9.3479818"><ele>1008.6666666666667</ele><time>2026-05-03T13:55:41.649Z</time></trkpt><trkpt lat="44.8067572" lon="9.3477569"><ele>1011.0</ele><time>2026-05-03T13:55:42.647Z</time></trkpt><trkpt lat="44.8066541" lon="9.3476144"><ele>1003.3333333333333</ele><time>2026-05-03T13:55:43.644Z</time></trkpt><trkpt lat="44.8064917" lon="9.3475006"><ele>995.6666666666666</ele><time>2026-05-03T13:55:44.642Z</time></trkpt><trkpt lat="44.8063313" lon="9.347352"><ele>988.0</ele><time>2026-05-03T13:55:45.661Z</time></trkpt><trkpt lat="44.806142" lon="9.3472116"><ele>992.3333333333333</ele><time>2026-05-03T13:55:46.647Z</time></trkpt><trkpt lat="44.805964" lon="9.3470841"><ele>996.6666666666667</ele><time>2026-05-03T13:55:47.65Z</time></trkpt><trkpt lat="44.8057859" lon="9.3469957"><ele>1001.0</ele><time>2026-05-03T13:55:48.645Z</time></trkpt><trkpt lat="44.8055447" lon="9.347031"><ele>1001.0</ele><time>2026-05-03T13:55:49.649Z</time></trkpt><trkpt lat="44.8053405" lon="9.3470069"><ele>1001.0</ele><time>2026-05-03T13:55:50.66Z</time></trkpt><trkpt lat="44.8051485" lon="9.3469247"><ele>1001.0</ele><time>2026-05-03T13:55:51.653Z</time></trkpt><trkpt lat="44.8049529" lon="9.3468938"><ele>996.0</ele><time>2026-05-03T13:55:52.645Z</time></trkpt><trkpt lat="44.8048112" lon="9.3467565"><ele>991.0</ele><time>2026-05-03T13:55:53.644Z</time></trkpt><trkpt lat="44.8046678" lon="9.3465421"><ele>986.0</ele><time>2026-05-03T13:55:54.649Z</time></trkpt><trkpt lat="44.8045004" lon="9.3462858"><ele>985.3333333333334</ele><time>2026-05-03T13:55:55.662Z</time></trkpt><trkpt lat="44.8043332" lon="9.3461193"><ele>984.6666666666667</ele><time>2026-05-03T13:55:56.649Z</time></trkpt><trkpt lat="44.804185" lon="9.3459567"><ele>984.0</ele><time>2026-05-03T13:55:57.647Z</time></trkpt><trkpt lat="44.8040483" lon="9.3458249"><ele>984.0</ele><time>2026-05-03T13:55:58.644Z</time></trkpt><trkpt lat="44.8040432" lon="9.3455776"><ele>984.0</ele><time>2026-05-03T13:55:59.645Z</time></trkpt><trkpt lat="44.8040402" lon="9.3453469"><ele>984.0</ele><time>2026-05-03T13:56:00.656Z</time></trkpt><trkpt lat="44.804004" lon="9.3451464"><ele>987.5</ele><time>2026-05-03T13:56:01.647Z</time></trkpt><trkpt lat="44.8040126" lon="9.3449107"><ele>991.0</ele><time>2026-05-03T13:56:02.634Z</time></trkpt><trkpt lat="44.804014" lon="9.3446999"><ele>994.5</ele><time>2026-05-03T13:56:03.618Z</time></trkpt><trkpt lat="44.8039962" lon="9.3445784"><ele>998.0</ele><time>2026-05-03T13:56:04.628Z</time></trkpt><trkpt lat="44.8039072" lon="9.3445562"><ele>1000.0</ele><time>2026-05-03T13:56:05.659Z</time></trkpt><trkpt lat="44.8037274" lon="9.3445897"><ele>1002.0</ele><time>2026-05-03T13:56:06.643Z</time></trkpt><trkpt lat="44.803625" lon="9.3445315"><ele>1004.0</ele><time>2026-05-03T13:56:07.651Z</time></trkpt><trkpt lat="44.803491" lon="9.3444381"><ele>1006.0</ele><time>2026-05-03T13:56:08.647Z</time></trkpt><trkpt lat="44.8035229" lon="9.3443066"><ele>1006.0</ele><time>2026-05-03T13:56:09.645Z</time></trkpt><trkpt lat="44.8035934" lon="9.3441332"><ele>1006.0</ele><time>2026-05-03T13:56:10.645Z</time></trkpt><trkpt lat="44.8037053" lon="9.3437576"><ele>1006.0</ele><time>2026-05-03T13:56:11.648Z</time></trkpt><trkpt lat="44.8038907" lon="9.3436162"><ele>1005.5</ele><time>2026-05-03T13:56:12.658Z</time></trkpt><trkpt lat="44.8040834" lon="9.3435058"><ele>1005.0</ele><time>2026-05-03T13:56:13.654Z</time></trkpt><trkpt lat="44.8043273" lon="9.343486"><ele>1012.0</ele><time>2026-05-03T13:56:14.656Z</time></trkpt><trkpt lat="44.8045173" lon="9.3433773"><ele>1019.0</ele><time>2026-05-03T13:56:15.646Z</time></trkpt><trkpt lat="44.8046551" lon="9.3432846"><ele>1026.0</ele><time>2026-05-03T13:56:16.646Z</time></trkpt><trkpt lat="44.8047662" lon="9.3431885"><ele>1026.25</ele><time>2026-05-03T13:56:17.648Z</time></trkpt><trkpt lat="44.8048181" lon="9.3430295"><ele>1026.5</ele><time>2026-05-03T13:56:18.647Z</time></trkpt><trkpt lat="44.8048455" lon="9.3428513"><ele>1026.75</ele><time>2026-05-03T13:56:19.644Z</time></trkpt><trkpt lat="44.8048388" lon="9.3426858"><ele>1027.0</ele><time>2026-05-03T13:56:20.643Z</time></trkpt><trkpt lat="44.8047367" lon="9.3424536"><ele>1027.0</ele><time>2026-05-03T13:56:21.635Z</time></trkpt><trkpt lat="44.8047235" lon="9.3422774"><ele>1027.0</ele><time>2026-05-03T13:56:22.634Z</time></trkpt><trkpt lat="44.8045758" lon="9.3420794"><ele>1027.0</ele><time>2026-05-03T13:56:23.632Z</time></trkpt><trkpt lat="44.8044166" lon="9.3419274"><ele>1027.5</ele><time>2026-05-03T13:56:24.646Z</time></trkpt><trkpt lat="44.8043516" lon="9.341802"><ele>1028.0</ele><time>2026-05-03T13:56:25.647Z</time></trkpt><trkpt lat="44.8043221" lon="9.3416052"><ele>1028.5</ele><time>2026-05-03T13:56:26.653Z</time></trkpt><trkpt lat="44.8043191" lon="9.341396"><ele>1029.0</ele><time>2026-05-03T13:56:27.656Z</time></trkpt><trkpt lat="44.8043032" lon="9.3412113"><ele>1029.0</ele><time>2026-05-03T13:56:28.655Z</time></trkpt><trkpt lat="44.8043258" lon="9.3410276"><ele>1029.0</ele><time>2026-05-03T13:56:29.659Z</time></trkpt><trkpt lat="44.8043456" lon="9.3408141"><ele>1029.0</ele><time>2026-05-03T13:56:30.65Z</time></trkpt><trkpt lat="44.8043322" lon="9.3405838"><ele>1029.0</ele><time>2026-05-03T13:56:31.643Z</time></trkpt><trkpt lat="44.8043397" lon="9.3403994"><ele>1033.0</ele><time>2026-05-03T13:56:32.644Z</time></trkpt><trkpt lat="44.8042998" lon="9.340264"><ele>1037.0</ele><time>2026-05-03T13:56:33.646Z</time></trkpt><trkpt lat="44.8041738" lon="9.3401896"><ele>1041.0</ele><time>2026-05-03T13:56:34.642Z</time></trkpt><trkpt lat="44.8039568" lon="9.3401525"><ele>1041.0</ele><time>2026-05-03T13:56:35.642Z</time></trkpt><trkpt lat="44.8037916" lon="9.340061"><ele>1041.0</ele><time>2026-05-03T13:56:36.647Z</time></trkpt><trkpt lat="44.8036684" lon="9.3399413"><ele>1041.0</ele><time>2026-05-03T13:56:37.645Z</time></trkpt><trkpt lat="44.8034965" lon="9.3398498"><ele>1039.0</ele><time>2026-05-03T13:56:38.643Z</time></trkpt><trkpt lat="44.8034846" lon="9.3396594"><ele>1037.0</ele><time>2026-05-03T13:56:39.645Z</time></trkpt><trkpt lat="44.8035584" lon="9.3393979"><ele>1035.0</ele><time>2026-05-03T13:56:40.644Z</time></trkpt><trkpt lat="44.8036622" lon="9.3391619"><ele>1035.0</ele><time>2026-05-03T13:56:41.645Z</time></trkpt><trkpt lat="44.8037534" lon="9.3389413"><ele>1035.0</ele><time>2026-05-03T13:56:42.643Z</time></trkpt><trkpt lat="44.8038076" lon="9.3387781"><ele>1035.0</ele><time>2026-05-03T13:56:43.647Z</time></trkpt><trkpt lat="44.8038549" lon="9.3385738"><ele>1034.0</ele><time>2026-05-03T13:56:44.651Z</time></trkpt><trkpt lat="44.8039176" lon="9.3383705"><ele>1033.0</ele><time>2026-05-03T13:56:45.645Z</time></trkpt><trkpt lat="44.8039731" lon="9.3380307"><ele>1032.0</ele><time>2026-05-03T13:56:46.646Z</time></trkpt><trkpt lat="44.803962" lon="9.3378345"><ele>1038.0</ele><time>2026-05-03T13:56:47.644Z</time></trkpt><trkpt lat="44.8039228" lon="9.3376509"><ele>1044.0</ele><time>2026-05-03T13:56:48.638Z</time></trkpt><trkpt lat="44.8038207" lon="9.337492"><ele>1050.0</ele><time>2026-05-03T13:56:49.65Z</time></trkpt><trkpt lat="44.8036257" lon="9.3373922"><ele>1062.5</ele><time>2026-05-03T13:56:50.652Z</time></trkpt><trkpt lat="44.8034378" lon="9.3371965"><ele>1075.0</ele><time>2026-05-03T13:56:51.65Z</time></trkpt><trkpt lat="44.8032355" lon="9.337011"><ele>1075.0</ele><time>2026-05-03T13:56:52.652Z</time></trkpt><trkpt lat="44.8030494" lon="9.336897"><ele>1075.0</ele><time>2026-05-03T13:56:53.646Z</time></trkpt><trkpt lat="44.8028656" lon="9.3367477"><ele>1075.0</ele><time>2026-05-03T13:56:54.645Z</time></trkpt><trkpt lat="44.8026497" lon="9.3366034"><ele>1075.0</ele><time>2026-05-03T13:56:55.648Z</time></trkpt><trkpt lat="44.8025002" lon="9.3364293"><ele>1075.0</ele><time>2026-05-03T13:56:56.647Z</time></trkpt><trkpt lat="44.8023509" lon="9.3362208"><ele>1075.0</ele><time>2026-05-03T13:56:57.639Z</time></trkpt><trkpt lat="44.8022581" lon="9.3359164"><ele>1075.0</ele><time>2026-05-03T13:56:58.644Z</time></trkpt><trkpt lat="44.80218" lon="9.3356508"><ele>1075.0</ele><time>2026-05-03T13:56:59.644Z</time></trkpt><trkpt lat="44.8020417" lon="9.3353995"><ele>1075.0</ele><time>2026-05-03T13:57:00.642Z</time></trkpt><trkpt lat="44.8019505" lon="9.3351241"><ele>1077.6666666666665</ele><time>2026-05-03T13:57:01.641Z</time></trkpt><trkpt lat="44.801866" lon="9.3348732"><ele>1080.3333333333333</ele><time>2026-05-03T13:57:02.645Z</time></trkpt><trkpt lat="44.8017976" lon="9.3346548"><ele>1083.0</ele><time>2026-05-03T13:57:03.635Z</time></trkpt><trkpt lat="44.801747" lon="9.3344712"><ele>1083.0</ele><time>2026-05-03T13:57:04.632Z</time></trkpt><trkpt lat="44.8017521" lon="9.334275"><ele>1083.0</ele><time>2026-05-03T13:57:05.626Z</time></trkpt><trkpt lat="44.8017718" lon="9.3340764"><ele>1083.0</ele><time>2026-05-03T13:57:06.615Z</time></trkpt><trkpt lat="44.8017799" lon="9.3338986"><ele>1083.0</ele><time>2026-05-03T13:57:07.616Z</time></trkpt><trkpt lat="44.8017741" lon="9.3336899"><ele>1089.6666666666667</ele><time>2026-05-03T13:57:08.613Z</time></trkpt><trkpt lat="44.8017398" lon="9.3335027"><ele>1096.3333333333335</ele><time>2026-05-03T13:57:09.598Z</time></trkpt><trkpt lat="44.8016389" lon="9.333368"><ele>1103.0</ele><time>2026-05-03T13:57:10.592Z</time></trkpt><trkpt lat="44.8014958" lon="9.3332245"><ele>1103.0</ele><time>2026-05-03T13:57:11.613Z</time></trkpt><trkpt lat="44.8013431" lon="9.3330699"><ele>1103.0</ele><time>2026-05-03T13:57:12.614Z</time></trkpt><trkpt lat="44.8011864" lon="9.332876"><ele>1103.0</ele><time>2026-05-03T13:57:13.624Z</time></trkpt><trkpt lat="44.801052" lon="9.3327422"><ele>1102.6666666666667</ele><time>2026-05-03T13:57:14.628Z</time></trkpt><trkpt lat="44.8008503" lon="9.3326586"><ele>1102.3333333333333</ele><time>2026-05-03T13:57:15.614Z</time></trkpt><trkpt lat="44.8006698" lon="9.3325584"><ele>1102.0</ele><time>2026-05-03T13:57:16.616Z</time></trkpt><trkpt lat="44.8004461" lon="9.3324992"><ele>1102.0</ele><time>2026-05-03T13:57:17.619Z</time></trkpt><trkpt lat="44.8002386" lon="9.3324582"><ele>1102.0</ele><time>2026-05-03T13:57:18.617Z</time></trkpt><trkpt lat="44.8000318" lon="9.3324193"><ele>1102.0</ele><time>2026-05-03T13:57:19.62Z</time></trkpt><trkpt lat="44.799824" lon="9.3324046"><ele>1103.0</ele><time>2026-05-03T13:57:20.631Z</time></trkpt><trkpt lat="44.7996161" lon="9.3323276"><ele>1104.0</ele><time>2026-05-03T13:57:21.641Z</time></trkpt><trkpt lat="44.7994297" lon="9.3321535"><ele>1105.0</ele><time>2026-05-03T13:57:22.641Z</time></trkpt><trkpt lat="44.7992701" lon="9.3319487"><ele>1105.0</ele><time>2026-05-03T13:57:23.639Z</time></trkpt><trkpt lat="44.7991457" lon="9.3317433"><ele>1105.0</ele><time>2026-05-03T13:57:24.643Z</time></trkpt><trkpt lat="44.7990447" lon="9.3315538"><ele>1105.0</ele><time>2026-05-03T13:57:25.639Z</time></trkpt><trkpt lat="44.798939" lon="9.3313412"><ele>1117.0</ele><time>2026-05-03T13:57:26.636Z</time></trkpt><trkpt lat="44.7988309" lon="9.3310505"><ele>1129.0</ele><time>2026-05-03T13:57:27.643Z</time></trkpt><trkpt lat="44.7987537" lon="9.3307609"><ele>1128.6666666666665</ele><time>2026-05-03T13:57:28.642Z</time></trkpt><trkpt lat="44.7986909" lon="9.330491"><ele>1128.3333333333333</ele><time>2026-05-03T13:57:29.643Z</time></trkpt><trkpt lat="44.7985729" lon="9.3302724"><ele>1128.0</ele><time>2026-05-03T13:57:30.642Z</time></trkpt><trkpt lat="44.7983908" lon="9.3301233"><ele>1128.0</ele><time>2026-05-03T13:57:31.642Z</time></trkpt><trkpt lat="44.7982315" lon="9.3299721"><ele>1128.0</ele><time>2026-05-03T13:57:32.642Z</time></trkpt><trkpt lat="44.7980824" lon="9.3298357"><ele>1128.0</ele><time>2026-05-03T13:57:33.637Z</time></trkpt><trkpt lat="44.7979108" lon="9.3297229"><ele>1129.3333333333333</ele><time>2026-05-03T13:57:34.635Z</time></trkpt><trkpt lat="44.7977339" lon="9.3295903"><ele>1130.6666666666665</ele><time>2026-05-03T13:57:35.636Z</time></trkpt><trkpt lat="44.7975373" lon="9.3294751"><ele>1132.0</ele><time>2026-05-03T13:57:36.638Z</time></trkpt><trkpt lat="44.7973701" lon="9.3293896"><ele>1133.6666666666665</ele><time>2026-05-03T13:57:37.64Z</time></trkpt><trkpt lat="44.7972159" lon="9.3293061"><ele>1135.3333333333333</ele><time>2026-05-03T13:57:38.638Z</time></trkpt><trkpt lat="44.7970434" lon="9.3292099"><ele>1137.0</ele><time>2026-05-03T13:57:39.627Z</time></trkpt><trkpt lat="44.7968935" lon="9.3291009"><ele>1138.3333333333333</ele><time>2026-05-03T13:57:40.614Z</time></trkpt><trkpt lat="44.7967532" lon="9.3289476"><ele>1139.6666666666665</ele><time>2026-05-03T13:57:41.594Z</time></trkpt><trkpt lat="44.7965983" lon="9.3288398"><ele>1141.0</ele><time>2026-05-03T13:57:42.616Z</time></trkpt><trkpt lat="44.7965136" lon="9.328742"><ele>1144.5</ele><time>2026-05-03T13:57:43.616Z</time></trkpt><trkpt lat="44.7964083" lon="9.3286545"><ele>1148.0</ele><time>2026-05-03T13:57:44.616Z</time></trkpt><trkpt lat="44.7962825" lon="9.3286508"><ele>1151.5</ele><time>2026-05-03T13:57:45.617Z</time></trkpt><trkpt lat="44.7961649" lon="9.3285486"><ele>1155.0</ele><time>2026-05-03T13:57:46.597Z</time></trkpt><trkpt lat="44.7960475" lon="9.3284533"><ele>1159.6</ele><time>2026-05-03T13:57:47.6Z</time></trkpt><trkpt lat="44.7959327" lon="9.3286041"><ele>1164.2</ele><time>2026-05-03T13:57:48.62Z</time></trkpt><trkpt lat="44.7958265" lon="9.3286923"><ele>1168.8</ele><time>2026-05-03T13:57:49.619Z</time></trkpt><trkpt lat="44.7957408" lon="9.3287354"><ele>1173.4</ele><time>2026-05-03T13:57:50.617Z</time></trkpt><trkpt lat="44.7958004" lon="9.3287851"><ele>1178.0</ele><time>2026-05-03T13:57:51.628Z</time></trkpt><trkpt lat="44.7957041" lon="9.3287002"><ele>1178.0</ele><time>2026-05-03T13:57:52.632Z</time></trkpt><trkpt lat="44.7958021" lon="9.3286037"><ele>1178.0</ele><time>2026-05-03T13:57:54.633Z</time></trkpt><trkpt lat="44.7959635" lon="9.3285377"><ele>1178.0</ele><time>2026-05-03T13:57:55.626Z</time></trkpt><trkpt lat="44.7961827" lon="9.3284986"><ele>1170.3333333333335</ele><time>2026-05-03T13:57:56.639Z</time></trkpt><trkpt lat="44.7963458" lon="9.3284436"><ele>1162.6666666666667</ele><time>2026-05-03T13:57:57.643Z</time></trkpt><trkpt lat="44.7964616" lon="9.3283499"><ele>1155.0</ele><time>2026-05-03T13:57:58.647Z</time></trkpt><trkpt lat="44.7968579" lon="9.3283883"><ele>1151.25</ele><time>2026-05-03T13:58:00.646Z</time></trkpt><trkpt lat="44.797045" lon="9.3283662"><ele>1147.5</ele><time>2026-05-03T13:58:01.645Z</time></trkpt><trkpt lat="44.7971704" lon="9.3283413"><ele>1143.75</ele><time>2026-05-03T13:58:02.646Z</time></trkpt><trkpt lat="44.7972521" lon="9.3283326"><ele>1140.0</ele><time>2026-05-03T13:58:03.64Z</time></trkpt><trkpt lat="44.7973308" lon="9.32825"><ele>1138.0</ele><time>2026-05-03T13:58:05.648Z</time></trkpt><trkpt lat="44.7972422" lon="9.3280409"><ele>1136.0</ele><time>2026-05-03T13:58:07.644Z</time></trkpt><trkpt lat="44.7971848" lon="9.3279042"><ele>1134.0</ele><time>2026-05-03T13:58:08.649Z</time></trkpt><trkpt lat="44.7971233" lon="9.3277894"><ele>1132.0</ele><time>2026-05-03T13:58:09.65Z</time></trkpt><trkpt lat="44.7970792" lon="9.3277083"><ele>1132.0</ele><time>2026-05-03T13:58:10.652Z</time></trkpt><trkpt lat="44.7970046" lon="9.3276078"><ele>1132.0</ele><time>2026-05-03T13:58:12.648Z</time></trkpt><trkpt lat="44.7969724" lon="9.3275306"><ele>1132.0</ele><time>2026-05-03T13:58:13.645Z</time></trkpt><trkpt lat="44.7969455" lon="9.3274494"><ele>1132.0</ele><time>2026-05-03T13:58:14.647Z</time></trkpt><trkpt lat="44.7969161" lon="9.3272914"><ele>1132.0</ele><time>2026-05-03T13:58:16.649Z</time></trkpt><trkpt lat="44.7968814" lon="9.3271886"><ele>1132.0</ele><time>2026-05-03T13:58:17.646Z</time></trkpt><trkpt lat="44.7968527" lon="9.3270762"><ele>1129.8</ele><time>2026-05-03T13:58:18.643Z</time></trkpt><trkpt lat="44.7968412" lon="9.3269591"><ele>1127.6</ele><time>2026-05-03T13:58:19.647Z</time></trkpt><trkpt lat="44.796858" lon="9.3268242"><ele>1125.3999999999999</ele><time>2026-05-03T13:58:20.646Z</time></trkpt><trkpt lat="44.7968703" lon="9.3266833"><ele>1123.2</ele><time>2026-05-03T13:58:21.642Z</time></trkpt><trkpt lat="44.796878" lon="9.3265342"><ele>1121.0</ele><time>2026-05-03T13:58:22.643Z</time></trkpt><trkpt lat="44.7968763" lon="9.3263814"><ele>1120.5</ele><time>2026-05-03T13:58:23.645Z</time></trkpt><trkpt lat="44.7968559" lon="9.3262377"><ele>1120.0</ele><time>2026-05-03T13:58:24.641Z</time></trkpt><trkpt lat="44.7968327" lon="9.3260786"><ele>1119.5</ele><time>2026-05-03T13:58:25.644Z</time></trkpt><trkpt lat="44.7968532" lon="9.325915"><ele>1119.0</ele><time>2026-05-03T13:58:26.639Z</time></trkpt><trkpt lat="44.7968818" lon="9.3257378"><ele>1119.0</ele><time>2026-05-03T13:58:27.641Z</time></trkpt><trkpt lat="44.7969058" lon="9.3255727"><ele>1119.0</ele><time>2026-05-03T13:58:28.643Z</time></trkpt><trkpt lat="44.7969429" lon="9.3253922"><ele>1119.0</ele><time>2026-05-03T13:58:29.646Z</time></trkpt><trkpt lat="44.7969546" lon="9.3251884"><ele>1119.0</ele><time>2026-05-03T13:58:30.64Z</time></trkpt><trkpt lat="44.7969852" lon="9.3249965"><ele>1120.0</ele><time>2026-05-03T13:58:31.632Z</time></trkpt><trkpt lat="44.7970301" lon="9.3248406"><ele>1121.0</ele><time>2026-05-03T13:58:32.641Z</time></trkpt><trkpt lat="44.7970603" lon="9.3246744"><ele>1122.0</ele><time>2026-05-03T13:58:33.641Z</time></trkpt><trkpt lat="44.7970809" lon="9.3244833"><ele>1123.0</ele><time>2026-05-03T13:58:34.647Z</time></trkpt><trkpt lat="44.7971067" lon="9.3242773"><ele>1124.3333333333333</ele><time>2026-05-03T13:58:35.642Z</time></trkpt><trkpt lat="44.7972615" lon="9.3240714"><ele>1125.6666666666667</ele><time>2026-05-03T13:58:36.649Z</time></trkpt><trkpt lat="44.7973459" lon="9.3238626"><ele>1127.0</ele><time>2026-05-03T13:58:37.647Z</time></trkpt><trkpt lat="44.797391" lon="9.3236253"><ele>1129.0</ele><time>2026-05-03T13:58:38.646Z</time></trkpt><trkpt lat="44.7974187" lon="9.3233297"><ele>1131.0</ele><time>2026-05-03T13:58:39.647Z</time></trkpt><trkpt lat="44.797404" lon="9.3230684"><ele>1133.0</ele><time>2026-05-03T13:58:40.647Z</time></trkpt><trkpt lat="44.7973754" lon="9.3228083"><ele>1135.75</ele><time>2026-05-03T13:58:41.649Z</time></trkpt><trkpt lat="44.7973825" lon="9.3225968"><ele>1138.5</ele><time>2026-05-03T13:58:42.648Z</time></trkpt><trkpt lat="44.7973284" lon="9.3224445"><ele>1141.25</ele><time>2026-05-03T13:58:43.652Z</time></trkpt><trkpt lat="44.7973162" lon="9.322281"><ele>1144.0</ele><time>2026-05-03T13:58:44.645Z</time></trkpt><trkpt lat="44.7973569" lon="9.3221183"><ele>1143.5</ele><time>2026-05-03T13:58:45.645Z</time></trkpt><trkpt lat="44.7974788" lon="9.322158"><ele>1143.0</ele><time>2026-05-03T13:58:46.641Z</time></trkpt><trkpt lat="44.7975767" lon="9.3220942"><ele>1142.5</ele><time>2026-05-03T13:58:47.644Z</time></trkpt><trkpt lat="44.7977212" lon="9.3220438"><ele>1142.0</ele><time>2026-05-03T13:58:48.642Z</time></trkpt><trkpt lat="44.7978355" lon="9.3218972"><ele>1142.0</ele><time>2026-05-03T13:58:49.628Z</time></trkpt><trkpt lat="44.7979426" lon="9.3218"><ele>1142.0</ele><time>2026-05-03T13:58:50.621Z</time></trkpt><trkpt lat="44.7981528" lon="9.3216268"><ele>1142.0</ele><time>2026-05-03T13:58:51.638Z</time></trkpt><trkpt lat="44.7983205" lon="9.321448"><ele>1145.6666666666667</ele><time>2026-05-03T13:58:52.64Z</time></trkpt><trkpt lat="44.7984994" lon="9.321327"><ele>1149.3333333333333</ele><time>2026-05-03T13:58:53.641Z</time></trkpt><trkpt lat="44.7986563" lon="9.321206"><ele>1153.0</ele><time>2026-05-03T13:58:54.643Z</time></trkpt><trkpt lat="44.7987876" lon="9.3211033"><ele>1146.0</ele><time>2026-05-03T13:58:55.638Z</time></trkpt><trkpt lat="44.7989184" lon="9.3209992"><ele>1139.0</ele><time>2026-05-03T13:58:56.626Z</time></trkpt><trkpt lat="44.7989798" lon="9.3209233"><ele>1132.0</ele><time>2026-05-03T13:58:57.628Z</time></trkpt><trkpt lat="44.7990733" lon="9.3209823"><ele>1125.0</ele><time>2026-05-03T13:58:58.64Z</time></trkpt><trkpt lat="44.7991868" lon="9.3208849"><ele>1113.0</ele><time>2026-05-03T13:58:59.606Z</time></trkpt><trkpt lat="44.7993414" lon="9.3208021"><ele>1101.0</ele><time>2026-05-03T13:59:00.618Z</time></trkpt><trkpt lat="44.7994434" lon="9.32067"><ele>1089.0</ele><time>2026-05-03T13:59:01.615Z</time></trkpt><trkpt lat="44.799621" lon="9.3205785"><ele>1090.0</ele><time>2026-05-03T13:59:02.624Z</time></trkpt><trkpt lat="44.7996384" lon="9.3204519"><ele>1091.0</ele><time>2026-05-03T13:59:03.617Z</time></trkpt><trkpt lat="44.7996025" lon="9.3202977"><ele>1092.0</ele><time>2026-05-03T13:59:04.597Z</time></trkpt><trkpt lat="44.7994853" lon="9.3201903"><ele>1093.0</ele><time>2026-05-03T13:59:05.616Z</time></trkpt><trkpt lat="44.799374" lon="9.3201005"><ele>1103.3333333333333</ele><time>2026-05-03T13:59:06.601Z</time></trkpt><trkpt lat="44.799235" lon="9.3200073"><ele>1113.6666666666667</ele><time>2026-05-03T13:59:07.617Z</time></trkpt><trkpt lat="44.7990849" lon="9.3199098"><ele>1124.0</ele><time>2026-05-03T13:59:08.615Z</time></trkpt><trkpt lat="44.7990246" lon="9.3197336"><ele>1124.6000000000001</ele><time>2026-05-03T13:59:09.63Z</time></trkpt><trkpt lat="44.7989484" lon="9.3196748"><ele>1125.2</ele><time>2026-05-03T13:59:10.629Z</time></trkpt><trkpt lat="44.7989344" lon="9.3195793"><ele>1125.8000000000002</ele><time>2026-05-03T13:59:11.628Z</time></trkpt><trkpt lat="44.7988413" lon="9.3194339"><ele>1126.4</ele><time>2026-05-03T13:59:12.645Z</time></trkpt><trkpt lat="44.7988112" lon="9.31932"><ele>1127.0</ele><time>2026-05-03T13:59:13.642Z</time></trkpt><trkpt lat="44.7988868" lon="9.3192592"><ele>1127.0</ele><time>2026-05-03T13:59:14.641Z</time></trkpt><trkpt lat="44.7990239" lon="9.3191907"><ele>1127.0</ele><time>2026-05-03T13:59:15.644Z</time></trkpt><trkpt lat="44.7991468" lon="9.3190896"><ele>1127.0</ele><time>2026-05-03T13:59:16.644Z</time></trkpt><trkpt lat="44.7992592" lon="9.3189479"><ele>1127.0</ele><time>2026-05-03T13:59:17.639Z</time></trkpt><trkpt lat="44.7994101" lon="9.3187475"><ele>1123.0</ele><time>2026-05-03T13:59:18.646Z</time></trkpt><trkpt lat="44.799523" lon="9.3185639"><ele>1119.0</ele><time>2026-05-03T13:59:19.645Z</time></trkpt><trkpt lat="44.7996008" lon="9.318376"><ele>1115.0</ele><time>2026-05-03T13:59:20.646Z</time></trkpt><trkpt lat="44.7996293" lon="9.3182436"><ele>1111.0</ele><time>2026-05-03T13:59:21.642Z</time></trkpt><trkpt lat="44.7996338" lon="9.3180851"><ele>1111.3333333333333</ele><time>2026-05-03T13:59:22.651Z</time></trkpt><trkpt lat="44.7996339" lon="9.3179423"><ele>1111.6666666666667</ele><time>2026-05-03T13:59:23.643Z</time></trkpt><trkpt lat="44.7996256" lon="9.3177207"><ele>1112.0</ele><time>2026-05-03T13:59:24.643Z</time></trkpt><trkpt lat="44.799663" lon="9.3174531"><ele>1111.6666666666667</ele><time>2026-05-03T13:59:25.644Z</time></trkpt><trkpt lat="44.7997239" lon="9.3171737"><ele>1111.3333333333333</ele><time>2026-05-03T13:59:26.641Z</time></trkpt><trkpt lat="44.79973" lon="9.3169768"><ele>1111.0</ele><time>2026-05-03T13:59:27.628Z</time></trkpt><trkpt lat="44.7997432" lon="9.3167309"><ele>1111.0</ele><time>2026-05-03T13:59:28.621Z</time></trkpt><trkpt lat="44.7997341" lon="9.3164971"><ele>1111.0</ele><time>2026-05-03T13:59:29.621Z</time></trkpt><trkpt lat="44.7997647" lon="9.3162542"><ele>1111.0</ele><time>2026-05-03T13:59:30.599Z</time></trkpt><trkpt lat="44.7997985" lon="9.3160085"><ele>1112.6666666666665</ele><time>2026-05-03T13:59:31.602Z</time></trkpt><trkpt lat="44.7998343" lon="9.315763"><ele>1114.3333333333333</ele><time>2026-05-03T13:59:32.602Z</time></trkpt><trkpt lat="44.7998554" lon="9.3155245"><ele>1116.0</ele><time>2026-05-03T13:59:33.602Z</time></trkpt><trkpt lat="44.7998868" lon="9.3152901"><ele>1117.8</ele><time>2026-05-03T13:59:34.601Z</time></trkpt><trkpt lat="44.7999222" lon="9.3150647"><ele>1119.6</ele><time>2026-05-03T13:59:35.604Z</time></trkpt><trkpt lat="44.799927" lon="9.31493"><ele>1121.4</ele><time>2026-05-03T13:59:36.622Z</time></trkpt><trkpt lat="44.7999318" lon="9.3148123"><ele>1123.2</ele><time>2026-05-03T13:59:37.623Z</time></trkpt><trkpt lat="44.7999601" lon="9.3147007"><ele>1125.0</ele><time>2026-05-03T13:59:38.631Z</time></trkpt><trkpt lat="44.8000573" lon="9.3145871"><ele>1126.75</ele><time>2026-05-03T13:59:39.626Z</time></trkpt><trkpt lat="44.8001376" lon="9.3144649"><ele>1128.5</ele><time>2026-05-03T13:59:40.627Z</time></trkpt><trkpt lat="44.8001887" lon="9.3143148"><ele>1130.25</ele><time>2026-05-03T13:59:41.636Z</time></trkpt><trkpt lat="44.800232" lon="9.3140972"><ele>1132.0</ele><time>2026-05-03T13:59:42.62Z</time></trkpt><trkpt lat="44.8002854" lon="9.3138964"><ele>1123.6666666666665</ele><time>2026-05-03T13:59:43.605Z</time></trkpt><trkpt lat="44.800374" lon="9.3137059"><ele>1115.3333333333333</ele><time>2026-05-03T13:59:44.618Z</time></trkpt><trkpt lat="44.8004848" lon="9.3135722"><ele>1107.0</ele><time>2026-05-03T13:59:45.621Z</time></trkpt><trkpt lat="44.800652" lon="9.3134787"><ele>1107.0</ele><time>2026-05-03T13:59:46.634Z</time></trkpt><trkpt lat="44.8008249" lon="9.3134561"><ele>1107.0</ele><time>2026-05-03T13:59:47.645Z</time></trkpt><trkpt lat="44.8009987" lon="9.3134382"><ele>1107.0</ele><time>2026-05-03T13:59:48.648Z</time></trkpt><trkpt lat="44.8011366" lon="9.3135196"><ele>1105.5</ele><time>2026-05-03T13:59:49.64Z</time></trkpt><trkpt lat="44.8012529" lon="9.3136677"><ele>1104.0</ele><time>2026-05-03T13:59:50.639Z</time></trkpt><trkpt lat="44.8013321" lon="9.3137857"><ele>1102.5</ele><time>2026-05-03T13:59:51.639Z</time></trkpt><trkpt lat="44.8014293" lon="9.3138084"><ele>1101.0</ele><time>2026-05-03T13:59:52.641Z</time></trkpt><trkpt lat="44.8015349" lon="9.3137625"><ele>1101.0</ele><time>2026-05-03T13:59:53.643Z</time></trkpt><trkpt lat="44.8016199" lon="9.3136899"><ele>1101.0</ele><time>2026-05-03T13:59:54.643Z</time></trkpt><trkpt lat="44.8017171" lon="9.3136661"><ele>1101.0</ele><time>2026-05-03T13:59:55.651Z</time></trkpt><trkpt lat="44.8018132" lon="9.313576"><ele>1101.0</ele><time>2026-05-03T13:59:56.647Z</time></trkpt><trkpt lat="44.8019182" lon="9.3134768"><ele>1101.0</ele><time>2026-05-03T13:59:57.645Z</time></trkpt><trkpt lat="44.8020138" lon="9.3133576"><ele>1100.25</ele><time>2026-05-03T13:59:58.65Z</time></trkpt><trkpt lat="44.8021012" lon="9.3132495"><ele>1099.5</ele><time>2026-05-03T13:59:59.644Z</time></trkpt><trkpt lat="44.8021695" lon="9.3130699"><ele>1098.75</ele><time>2026-05-03T14:00:00.645Z</time></trkpt><trkpt lat="44.8022393" lon="9.3129104"><ele>1098.0</ele><time>2026-05-03T14:00:01.626Z</time></trkpt><trkpt lat="44.8023123" lon="9.3126873"><ele>1098.0</ele><time>2026-05-03T14:00:02.629Z</time></trkpt><trkpt lat="44.8023675" lon="9.3123445"><ele>1098.0</ele><time>2026-05-03T14:00:03.645Z</time></trkpt><trkpt lat="44.8024795" lon="9.3120565"><ele>1096.3333333333333</ele><time>2026-05-03T14:00:04.645Z</time></trkpt><trkpt lat="44.8025894" lon="9.311846"><ele>1094.6666666666665</ele><time>2026-05-03T14:00:05.644Z</time></trkpt><trkpt lat="44.8027099" lon="9.3115776"><ele>1093.0</ele><time>2026-05-03T14:00:06.646Z</time></trkpt><trkpt lat="44.8028848" lon="9.3113768"><ele>1093.0</ele><time>2026-05-03T14:00:07.646Z</time></trkpt><trkpt lat="44.8030403" lon="9.3112697"><ele>1093.0</ele><time>2026-05-03T14:00:08.644Z</time></trkpt><trkpt lat="44.803179" lon="9.3111336"><ele>1093.0</ele><time>2026-05-03T14:00:09.645Z</time></trkpt><trkpt lat="44.8033199" lon="9.3109463"><ele>1093.0</ele><time>2026-05-03T14:00:10.646Z</time></trkpt><trkpt lat="44.8034239" lon="9.3107098"><ele>1093.0</ele><time>2026-05-03T14:00:11.647Z</time></trkpt><trkpt lat="44.8035446" lon="9.3104351"><ele>1093.0</ele><time>2026-05-03T14:00:12.642Z</time></trkpt><trkpt lat="44.8036416" lon="9.3101601"><ele>1094.3333333333333</ele><time>2026-05-03T14:00:13.642Z</time></trkpt><trkpt lat="44.8037324" lon="9.3098701"><ele>1095.6666666666667</ele><time>2026-05-03T14:00:14.637Z</time></trkpt><trkpt lat="44.8038101" lon="9.3095752"><ele>1097.0</ele><time>2026-05-03T14:00:15.64Z</time></trkpt><trkpt lat="44.8038998" lon="9.3092466"><ele>1092.3333333333335</ele><time>2026-05-03T14:00:16.634Z</time></trkpt><trkpt lat="44.8039763" lon="9.3089459"><ele>1087.6666666666667</ele><time>2026-05-03T14:00:17.633Z</time></trkpt><trkpt lat="44.8040885" lon="9.3087059"><ele>1083.0</ele><time>2026-05-03T14:00:18.631Z</time></trkpt><trkpt lat="44.8042533" lon="9.3084756"><ele>1082.3333333333333</ele><time>2026-05-03T14:00:19.634Z</time></trkpt><trkpt lat="44.8044277" lon="9.3083152"><ele>1081.6666666666665</ele><time>2026-05-03T14:00:20.636Z</time></trkpt><trkpt lat="44.8045766" lon="9.3081204"><ele>1081.0</ele><time>2026-05-03T14:00:21.635Z</time></trkpt><trkpt lat="44.8047195" lon="9.307925"><ele>1081.0</ele><time>2026-05-03T14:00:22.636Z</time></trkpt><trkpt lat="44.8048673" lon="9.3076497"><ele>1081.0</ele><time>2026-05-03T14:00:23.635Z</time></trkpt><trkpt lat="44.8050173" lon="9.3073723"><ele>1085.0</ele><time>2026-05-03T14:00:24.633Z</time></trkpt><trkpt lat="44.805174" lon="9.3071343"><ele>1089.0</ele><time>2026-05-03T14:00:25.637Z</time></trkpt><trkpt lat="44.8052783" lon="9.3069051"><ele>1093.0</ele><time>2026-05-03T14:00:26.631Z</time></trkpt><trkpt lat="44.8054109" lon="9.3067209"><ele>1093.0</ele><time>2026-05-03T14:00:27.631Z</time></trkpt><trkpt lat="44.8055486" lon="9.3065292"><ele>1093.0</ele><time>2026-05-03T14:00:28.636Z</time></trkpt><trkpt lat="44.8056539" lon="9.3063172"><ele>1093.0</ele><time>2026-05-03T14:00:29.63Z</time></trkpt><trkpt lat="44.8056696" lon="9.3061031"><ele>1090.0</ele><time>2026-05-03T14:00:30.636Z</time></trkpt><trkpt lat="44.805669" lon="9.3058636"><ele>1087.0</ele><time>2026-05-03T14:00:31.631Z</time></trkpt><trkpt lat="44.8056871" lon="9.3056196"><ele>1084.0</ele><time>2026-05-03T14:00:32.636Z</time></trkpt><trkpt lat="44.8057398" lon="9.305367"><ele>1084.3333333333333</ele><time>2026-05-03T14:00:33.635Z</time></trkpt><trkpt lat="44.8058097" lon="9.3051336"><ele>1084.6666666666667</ele><time>2026-05-03T14:00:34.633Z</time></trkpt><trkpt lat="44.8059109" lon="9.3048382"><ele>1085.0</ele><time>2026-05-03T14:00:35.625Z</time></trkpt><trkpt lat="44.8060227" lon="9.3044975"><ele>1085.0</ele><time>2026-05-03T14:00:36.621Z</time></trkpt><trkpt lat="44.8060842" lon="9.3042195"><ele>1085.0</ele><time>2026-05-03T14:00:37.622Z</time></trkpt><trkpt lat="44.8061835" lon="9.3039544"><ele>1085.0</ele><time>2026-05-03T14:00:38.624Z</time></trkpt><trkpt lat="44.8062673" lon="9.3036822"><ele>1078.6666666666667</ele><time>2026-05-03T14:00:39.63Z</time></trkpt><trkpt lat="44.8063627" lon="9.3034504"><ele>1072.3333333333333</ele><time>2026-05-03T14:00:40.627Z</time></trkpt><trkpt lat="44.8064859" lon="9.3032301"><ele>1066.0</ele><time>2026-05-03T14:00:41.63Z</time></trkpt><trkpt lat="44.8065854" lon="9.3030118"><ele>1058.5</ele><time>2026-05-03T14:00:42.63Z</time></trkpt><trkpt lat="44.8066653" lon="9.3027155"><ele>1051.0</ele><time>2026-05-03T14:00:43.637Z</time></trkpt><trkpt lat="44.8067887" lon="9.3024236"><ele>1057.0</ele><time>2026-05-03T14:00:44.633Z</time></trkpt><trkpt lat="44.806901" lon="9.3021557"><ele>1063.0</ele><time>2026-05-03T14:00:45.632Z</time></trkpt><trkpt lat="44.8070151" lon="9.3019615"><ele>1069.0</ele><time>2026-05-03T14:00:46.631Z</time></trkpt><trkpt lat="44.8071076" lon="9.3017725"><ele>1069.0</ele><time>2026-05-03T14:00:47.631Z</time></trkpt><trkpt lat="44.8071661" lon="9.3015395"><ele>1069.0</ele><time>2026-05-03T14:00:48.629Z</time></trkpt><trkpt lat="44.8071968" lon="9.301297"><ele>1069.0</ele><time>2026-05-03T14:00:49.626Z</time></trkpt><trkpt lat="44.8072096" lon="9.3010224"><ele>1064.6666666666665</ele><time>2026-05-03T14:00:50.626Z</time></trkpt><trkpt lat="44.8072206" lon="9.300753"><ele>1060.3333333333333</ele><time>2026-05-03T14:00:51.629Z</time></trkpt><trkpt lat="44.807214" lon="9.3005627"><ele>1056.0</ele><time>2026-05-03T14:00:52.629Z</time></trkpt><trkpt lat="44.8072098" lon="9.3003505"><ele>1051.75</ele><time>2026-05-03T14:00:53.629Z</time></trkpt><trkpt lat="44.8072411" lon="9.3001573"><ele>1047.5</ele><time>2026-05-03T14:00:54.623Z</time></trkpt><trkpt lat="44.8073139" lon="9.300034"><ele>1043.25</ele><time>2026-05-03T14:00:55.63Z</time></trkpt><trkpt lat="44.8073766" lon="9.2999401"><ele>1039.0</ele><time>2026-05-03T14:00:56.623Z</time></trkpt><trkpt lat="44.8073804" lon="9.299672"><ele>1035.25</ele><time>2026-05-03T14:00:58.625Z</time></trkpt><trkpt lat="44.8073782" lon="9.2995475"><ele>1031.5</ele><time>2026-05-03T14:00:59.633Z</time></trkpt><trkpt lat="44.8074287" lon="9.2993656"><ele>1027.75</ele><time>2026-05-03T14:01:00.636Z</time></trkpt><trkpt lat="44.807552" lon="9.2992072"><ele>1024.0</ele><time>2026-05-03T14:01:01.638Z</time></trkpt><trkpt lat="44.807682" lon="9.2989846"><ele>1028.6666666666665</ele><time>2026-05-03T14:01:02.636Z</time></trkpt><trkpt lat="44.807778" lon="9.2987796"><ele>1033.3333333333333</ele><time>2026-05-03T14:01:03.637Z</time></trkpt><trkpt lat="44.8078648" lon="9.2985798"><ele>1038.0</ele><time>2026-05-03T14:01:04.634Z</time></trkpt><trkpt lat="44.807961" lon="9.2983534"><ele>1038.0</ele><time>2026-05-03T14:01:05.642Z</time></trkpt><trkpt lat="44.8080348" lon="9.2981019"><ele>1038.0</ele><time>2026-05-03T14:01:06.644Z</time></trkpt><trkpt lat="44.8080974" lon="9.2978582"><ele>1038.0</ele><time>2026-05-03T14:01:07.633Z</time></trkpt><trkpt lat="44.8081451" lon="9.2976843"><ele>1038.5</ele><time>2026-05-03T14:01:08.631Z</time></trkpt><trkpt lat="44.8082474" lon="9.2975674"><ele>1039.0</ele><time>2026-05-03T14:01:09.634Z</time></trkpt><trkpt lat="44.8083402" lon="9.297504"><ele>1039.5</ele><time>2026-05-03T14:01:10.634Z</time></trkpt><trkpt lat="44.8084782" lon="9.297452"><ele>1040.0</ele><time>2026-05-03T14:01:11.633Z</time></trkpt><trkpt lat="44.8085753" lon="9.2973557"><ele>1038.5</ele><time>2026-05-03T14:01:12.637Z</time></trkpt><trkpt lat="44.808628" lon="9.2972306"><ele>1037.0</ele><time>2026-05-03T14:01:13.635Z</time></trkpt><trkpt lat="44.8086654" lon="9.2970691"><ele>1035.5</ele><time>2026-05-03T14:01:14.621Z</time></trkpt><trkpt lat="44.8086611" lon="9.2968699"><ele>1034.0</ele><time>2026-05-03T14:01:15.606Z</time></trkpt><trkpt lat="44.8086633" lon="9.2966315"><ele>1031.0</ele><time>2026-05-03T14:01:16.605Z</time></trkpt><trkpt lat="44.8086226" lon="9.2963004"><ele>1028.0</ele><time>2026-05-03T14:01:17.616Z</time></trkpt><trkpt lat="44.8085559" lon="9.2959964"><ele>1017.0</ele><time>2026-05-03T14:01:18.602Z</time></trkpt><trkpt lat="44.8084423" lon="9.2956738"><ele>1006.0</ele><time>2026-05-03T14:01:19.621Z</time></trkpt><trkpt lat="44.8083705" lon="9.2953703"><ele>1002.0</ele><time>2026-05-03T14:01:20.617Z</time></trkpt><trkpt lat="44.8083031" lon="9.2951167"><ele>998.0</ele><time>2026-05-03T14:01:21.617Z</time></trkpt><trkpt lat="44.8082385" lon="9.2949073"><ele>994.0</ele><time>2026-05-03T14:01:22.635Z</time></trkpt><trkpt lat="44.8082252" lon="9.2946946"><ele>992.25</ele><time>2026-05-03T14:01:23.629Z</time></trkpt><trkpt lat="44.8082778" lon="9.294564"><ele>990.5</ele><time>2026-05-03T14:01:24.617Z</time></trkpt><trkpt lat="44.8083588" lon="9.294482"><ele>988.75</ele><time>2026-05-03T14:01:25.619Z</time></trkpt><trkpt lat="44.8085202" lon="9.2944716"><ele>987.0</ele><time>2026-05-03T14:01:26.625Z</time></trkpt><trkpt lat="44.8086735" lon="9.2944583"><ele>987.0</ele><time>2026-05-03T14:01:27.625Z</time></trkpt><trkpt lat="44.8087986" lon="9.2943901"><ele>987.0</ele><time>2026-05-03T14:01:28.627Z</time></trkpt><trkpt lat="44.8088516" lon="9.2941275"><ele>987.0</ele><time>2026-05-03T14:01:29.634Z</time></trkpt><trkpt lat="44.809001" lon="9.2940158"><ele>987.0</ele><time>2026-05-03T14:01:30.636Z</time></trkpt><trkpt lat="44.8091469" lon="9.2939299"><ele>987.0</ele><time>2026-05-03T14:01:31.624Z</time></trkpt><trkpt lat="44.8092922" lon="9.2938723"><ele>987.0</ele><time>2026-05-03T14:01:32.63Z</time></trkpt><trkpt lat="44.8094451" lon="9.2938533"><ele>987.5</ele><time>2026-05-03T14:01:33.635Z</time></trkpt><trkpt lat="44.8094938" lon="9.2937035"><ele>988.0</ele><time>2026-05-03T14:01:34.628Z</time></trkpt><trkpt lat="44.8095152" lon="9.2935478"><ele>988.5</ele><time>2026-05-03T14:01:35.627Z</time></trkpt><trkpt lat="44.8095162" lon="9.2932525"><ele>989.0</ele><time>2026-05-03T14:01:36.63Z</time></trkpt><trkpt lat="44.8094766" lon="9.2930094"><ele>989.0</ele><time>2026-05-03T14:01:37.632Z</time></trkpt><trkpt lat="44.8095023" lon="9.2927262"><ele>989.0</ele><time>2026-05-03T14:01:38.631Z</time></trkpt><trkpt lat="44.8095302" lon="9.2924954"><ele>989.0</ele><time>2026-05-03T14:01:39.632Z</time></trkpt><trkpt lat="44.8095706" lon="9.2921957"><ele>985.3333333333334</ele><time>2026-05-03T14:01:40.629Z</time></trkpt><trkpt lat="44.8096165" lon="9.2918987"><ele>981.6666666666667</ele><time>2026-05-03T14:01:41.63Z</time></trkpt><trkpt lat="44.8096516" lon="9.2916106"><ele>978.0</ele><time>2026-05-03T14:01:42.634Z</time></trkpt><trkpt lat="44.8096725" lon="9.2913607"><ele>976.5</ele><time>2026-05-03T14:01:43.634Z</time></trkpt><trkpt lat="44.8097268" lon="9.2911294"><ele>975.0</ele><time>2026-05-03T14:01:44.634Z</time></trkpt><trkpt lat="44.8098448" lon="9.291036"><ele>973.5</ele><time>2026-05-03T14:01:45.631Z</time></trkpt><trkpt lat="44.8099724" lon="9.2909513"><ele>972.0</ele><time>2026-05-03T14:01:46.631Z</time></trkpt><trkpt lat="44.8100498" lon="9.2908909"><ele>972.0</ele><time>2026-05-03T14:01:47.636Z</time></trkpt><trkpt lat="44.8100636" lon="9.2907296"><ele>972.0</ele><time>2026-05-03T14:01:49.634Z</time></trkpt><trkpt lat="44.8099813" lon="9.2907183"><ele>972.0</ele><time>2026-05-03T14:01:50.637Z</time></trkpt><trkpt lat="44.8099305" lon="9.2906458"><ele>972.0</ele><time>2026-05-03T14:01:51.635Z</time></trkpt><trkpt lat="44.8098749" lon="9.2905909"><ele>972.0</ele><time>2026-05-03T14:01:52.634Z</time></trkpt><trkpt lat="44.8098387" lon="9.2904967"><ele>972.0</ele><time>2026-05-03T14:01:53.638Z</time></trkpt><trkpt lat="44.8098688" lon="9.2903588"><ele>969.5</ele><time>2026-05-03T14:01:54.637Z</time></trkpt><trkpt lat="44.8099086" lon="9.2902172"><ele>967.0</ele><time>2026-05-03T14:01:55.631Z</time></trkpt><trkpt lat="44.8099533" lon="9.2900561"><ele>964.5</ele><time>2026-05-03T14:01:56.634Z</time></trkpt><trkpt lat="44.8099763" lon="9.2899022"><ele>962.0</ele><time>2026-05-03T14:01:57.634Z</time></trkpt><trkpt lat="44.8099822" lon="9.2897346"><ele>958.6666666666667</ele><time>2026-05-03T14:01:58.631Z</time></trkpt><trkpt lat="44.8100108" lon="9.2895354"><ele>955.3333333333333</ele><time>2026-05-03T14:01:59.637Z</time></trkpt><trkpt lat="44.8100655" lon="9.2893287"><ele>952.0</ele><time>2026-05-03T14:02:00.635Z</time></trkpt><trkpt lat="44.8101203" lon="9.2890539"><ele>951.3333333333333</ele><time>2026-05-03T14:02:01.629Z</time></trkpt><trkpt lat="44.8102187" lon="9.2888214"><ele>950.6666666666667</ele><time>2026-05-03T14:02:02.631Z</time></trkpt><trkpt lat="44.8102863" lon="9.2885695"><ele>950.0</ele><time>2026-05-03T14:02:03.63Z</time></trkpt><trkpt lat="44.8103466" lon="9.2883883"><ele>950.0</ele><time>2026-05-03T14:02:04.618Z</time></trkpt><trkpt lat="44.8104477" lon="9.2882791"><ele>950.0</ele><time>2026-05-03T14:02:05.59Z</time></trkpt><trkpt lat="44.8105286" lon="9.2882251"><ele>950.0</ele><time>2026-05-03T14:02:06.597Z</time></trkpt><trkpt lat="44.8106804" lon="9.2882228"><ele>950.0</ele><time>2026-05-03T14:02:07.614Z</time></trkpt><trkpt lat="44.8108083" lon="9.2881602"><ele>944.5</ele><time>2026-05-03T14:02:08.621Z</time></trkpt><trkpt lat="44.8108549" lon="9.2880804"><ele>939.0</ele><time>2026-05-03T14:02:09.631Z</time></trkpt><trkpt lat="44.8107681" lon="9.2880045"><ele>933.5</ele><time>2026-05-03T14:02:10.625Z</time></trkpt><trkpt lat="44.8106508" lon="9.2879035"><ele>928.0</ele><time>2026-05-03T14:02:11.626Z</time></trkpt><trkpt lat="44.8105314" lon="9.2878045"><ele>928.0</ele><time>2026-05-03T14:02:12.629Z</time></trkpt><trkpt lat="44.8104592" lon="9.2877503"><ele>928.0</ele><time>2026-05-03T14:02:13.619Z</time></trkpt><trkpt lat="44.8103541" lon="9.2877316"><ele>928.0</ele><time>2026-05-03T14:02:14.606Z</time></trkpt><trkpt lat="44.810249" lon="9.287663"><ele>928.0</ele><time>2026-05-03T14:02:15.588Z</time></trkpt><trkpt lat="44.810148" lon="9.2875924"><ele>928.0</ele><time>2026-05-03T14:02:16.588Z</time></trkpt><trkpt lat="44.8100425" lon="9.2874767"><ele>922.0</ele><time>2026-05-03T14:02:17.575Z</time></trkpt><trkpt lat="44.809929" lon="9.2874647"><ele>916.0</ele><time>2026-05-03T14:02:18.586Z</time></trkpt><trkpt lat="44.8097384" lon="9.2876612"><ele>910.0</ele><time>2026-05-03T14:02:19.605Z</time></trkpt><trkpt lat="44.8096083" lon="9.2878515"><ele>923.0</ele><time>2026-05-03T14:02:20.586Z</time></trkpt><trkpt lat="44.8094341" lon="9.2880997"><ele>936.0</ele><time>2026-05-03T14:02:21.618Z</time></trkpt><trkpt lat="44.8093641" lon="9.2883669"><ele>926.0</ele><time>2026-05-03T14:02:22.623Z</time></trkpt><trkpt lat="44.809316" lon="9.2891145"><ele>930.0</ele><time>2026-05-03T14:02:23.625Z</time></trkpt><trkpt lat="44.8093685" lon="9.2895843"><ele>934.0</ele><time>2026-05-03T14:02:24.638Z</time></trkpt><trkpt lat="44.8092839" lon="9.2897759"><ele>934.0</ele><time>2026-05-03T14:02:25.632Z</time></trkpt><trkpt lat="44.8091588" lon="9.2898496"><ele>934.0</ele><time>2026-05-03T14:02:26.628Z</time></trkpt><trkpt lat="44.8090421" lon="9.2898002"><ele>934.0</ele><time>2026-05-03T14:02:28.63Z</time></trkpt><trkpt lat="44.8089632" lon="9.2896804"><ele>934.0</ele><time>2026-05-03T14:02:29.628Z</time></trkpt><trkpt lat="44.808944" lon="9.2895301"><ele>932.0</ele><time>2026-05-03T14:02:30.631Z</time></trkpt><trkpt lat="44.8089667" lon="9.289349"><ele>930.0</ele><time>2026-05-03T14:02:31.634Z</time></trkpt><trkpt lat="44.8089979" lon="9.2891622"><ele>928.0</ele><time>2026-05-03T14:02:32.625Z</time></trkpt><trkpt lat="44.809049" lon="9.2889663"><ele>926.0</ele><time>2026-05-03T14:02:33.629Z</time></trkpt><trkpt lat="44.8091452" lon="9.2887374"><ele>931.0</ele><time>2026-05-03T14:02:34.632Z</time></trkpt><trkpt lat="44.8093069" lon="9.2884946"><ele>936.0</ele><time>2026-05-03T14:02:35.65Z</time></trkpt><trkpt lat="44.809517" lon="9.288286"><ele>923.0</ele><time>2026-05-03T14:02:36.643Z</time></trkpt><trkpt lat="44.8097521" lon="9.288039"><ele>910.0</ele><time>2026-05-03T14:02:37.644Z</time></trkpt><trkpt lat="44.8099824" lon="9.2878026"><ele>919.0</ele><time>2026-05-03T14:02:38.643Z</time></trkpt><trkpt lat="44.8101888" lon="9.2875793"><ele>928.0</ele><time>2026-05-03T14:02:39.645Z</time></trkpt><trkpt lat="44.8103941" lon="9.287408"><ele>920.0</ele><time>2026-05-03T14:02:40.647Z</time></trkpt><trkpt lat="44.8105895" lon="9.2872421"><ele>912.0</ele><time>2026-05-03T14:02:41.645Z</time></trkpt><trkpt lat="44.8107812" lon="9.2870903"><ele>904.0</ele><time>2026-05-03T14:02:42.646Z</time></trkpt><trkpt lat="44.8108962" lon="9.2868665"><ele>904.0</ele><time>2026-05-03T14:02:43.643Z</time></trkpt><trkpt lat="44.8109847" lon="9.2866535"><ele>904.0</ele><time>2026-05-03T14:02:44.639Z</time></trkpt><trkpt lat="44.8110935" lon="9.2864556"><ele>904.0</ele><time>2026-05-03T14:02:45.635Z</time></trkpt><trkpt lat="44.8112387" lon="9.2863316"><ele>903.3333333333333</ele><time>2026-05-03T14:02:46.644Z</time></trkpt><trkpt lat="44.8113814" lon="9.2863376"><ele>902.6666666666667</ele><time>2026-05-03T14:02:47.638Z</time></trkpt><trkpt lat="44.8115225" lon="9.2864921"><ele>902.0</ele><time>2026-05-03T14:02:48.635Z</time></trkpt><trkpt lat="44.8116916" lon="9.2867122"><ele>902.0</ele><time>2026-05-03T14:02:49.639Z</time></trkpt><trkpt lat="44.8118175" lon="9.2869625"><ele>902.0</ele><time>2026-05-03T14:02:50.633Z</time></trkpt><trkpt lat="44.8119585" lon="9.2872287"><ele>908.6666666666667</ele><time>2026-05-03T14:02:51.633Z</time></trkpt><trkpt lat="44.8120849" lon="9.287489"><ele>915.3333333333333</ele><time>2026-05-03T14:02:52.638Z</time></trkpt><trkpt lat="44.8122043" lon="9.2876253"><ele>922.0</ele><time>2026-05-03T14:02:53.64Z</time></trkpt><trkpt lat="44.8122659" lon="9.2877791"><ele>922.0</ele><time>2026-05-03T14:02:54.638Z</time></trkpt><trkpt lat="44.8123199" lon="9.2878904"><ele>922.0</ele><time>2026-05-03T14:02:55.638Z</time></trkpt><trkpt lat="44.8123555" lon="9.2879714"><ele>922.0</ele><time>2026-05-03T14:02:56.634Z</time></trkpt><trkpt lat="44.8123174" lon="9.2878226"><ele>922.0</ele><time>2026-05-03T14:02:59.642Z</time></trkpt><trkpt lat="44.8123033" lon="9.2876428"><ele>922.0</ele><time>2026-05-03T14:03:00.637Z</time></trkpt><trkpt lat="44.8122894" lon="9.2874925"><ele>922.0</ele><time>2026-05-03T14:03:01.627Z</time></trkpt><trkpt lat="44.81221" lon="9.2872668"><ele>922.0</ele><time>2026-05-03T14:03:02.624Z</time></trkpt><trkpt lat="44.8121205" lon="9.2870452"><ele>922.0</ele><time>2026-05-03T14:03:03.637Z</time></trkpt><trkpt lat="44.8120243" lon="9.286824"><ele>922.3333333333333</ele><time>2026-05-03T14:03:04.636Z</time></trkpt><trkpt lat="44.8119117" lon="9.2866113"><ele>922.6666666666667</ele><time>2026-05-03T14:03:05.64Z</time></trkpt><trkpt lat="44.8118365" lon="9.2863938"><ele>923.0</ele><time>2026-05-03T14:03:06.628Z</time></trkpt><trkpt lat="44.8117274" lon="9.2862041"><ele>912.0</ele><time>2026-05-03T14:03:07.627Z</time></trkpt><trkpt lat="44.8116687" lon="9.2859618"><ele>901.0</ele><time>2026-05-03T14:03:08.639Z</time></trkpt><trkpt lat="44.8116371" lon="9.285704"><ele>890.0</ele><time>2026-05-03T14:03:09.64Z</time></trkpt><trkpt lat="44.811576" lon="9.2854813"><ele>885.5</ele><time>2026-05-03T14:03:10.641Z</time></trkpt><trkpt lat="44.8115125" lon="9.2853473"><ele>881.0</ele><time>2026-05-03T14:03:11.643Z</time></trkpt><trkpt lat="44.8115055" lon="9.2851285"><ele>876.5</ele><time>2026-05-03T14:03:12.643Z</time></trkpt><trkpt lat="44.811564" lon="9.2849716"><ele>872.0</ele><time>2026-05-03T14:03:13.629Z</time></trkpt><trkpt lat="44.8116783" lon="9.2848764"><ele>872.0</ele><time>2026-05-03T14:03:14.629Z</time></trkpt><trkpt lat="44.8118013" lon="9.2847823"><ele>872.0</ele><time>2026-05-03T14:03:15.638Z</time></trkpt><trkpt lat="44.8119306" lon="9.2845943"><ele>872.0</ele><time>2026-05-03T14:03:16.639Z</time></trkpt><trkpt lat="44.8120737" lon="9.2843748"><ele>873.5</ele><time>2026-05-03T14:03:17.631Z</time></trkpt><trkpt lat="44.8122271" lon="9.2841361"><ele>875.0</ele><time>2026-05-03T14:03:18.626Z</time></trkpt><trkpt lat="44.8123681" lon="9.283872"><ele>866.0</ele><time>2026-05-03T14:03:19.64Z</time></trkpt><trkpt lat="44.8124818" lon="9.2835809"><ele>857.0</ele><time>2026-05-03T14:03:20.631Z</time></trkpt><trkpt lat="44.8126398" lon="9.2833431"><ele>857.6666666666667</ele><time>2026-05-03T14:03:21.625Z</time></trkpt><trkpt lat="44.8127726" lon="9.2831043"><ele>858.3333333333333</ele><time>2026-05-03T14:03:22.637Z</time></trkpt><trkpt lat="44.812894" lon="9.2828633"><ele>859.0</ele><time>2026-05-03T14:03:23.639Z</time></trkpt><trkpt lat="44.8130353" lon="9.2827361"><ele>859.0</ele><time>2026-05-03T14:03:24.64Z</time></trkpt><trkpt lat="44.8132099" lon="9.2826322"><ele>859.0</ele><time>2026-05-03T14:03:25.639Z</time></trkpt><trkpt lat="44.8134116" lon="9.2825727"><ele>859.0</ele><time>2026-05-03T14:03:26.631Z</time></trkpt><trkpt lat="44.8136019" lon="9.2825311"><ele>861.75</ele><time>2026-05-03T14:03:27.627Z</time></trkpt><trkpt lat="44.813784" lon="9.2825119"><ele>864.5</ele><time>2026-05-03T14:03:28.638Z</time></trkpt><trkpt lat="44.813924" lon="9.2825401"><ele>867.25</ele><time>2026-05-03T14:03:29.639Z</time></trkpt><trkpt lat="44.8140193" lon="9.282545"><ele>870.0</ele><time>2026-05-03T14:03:30.643Z</time></trkpt><trkpt lat="44.8140813" lon="9.2824885"><ele>870.0</ele><time>2026-05-03T14:03:32.635Z</time></trkpt><trkpt lat="44.8140745" lon="9.2823181"><ele>870.0</ele><time>2026-05-03T14:03:34.641Z</time></trkpt><trkpt lat="44.8140508" lon="9.2821824"><ele>870.0</ele><time>2026-05-03T14:03:36.644Z</time></trkpt><trkpt lat="44.8139206" lon="9.2821505"><ele>870.0</ele><time>2026-05-03T14:03:38.628Z</time></trkpt><trkpt lat="44.8137953" lon="9.2821417"><ele>872.3333333333333</ele><time>2026-05-03T14:03:39.638Z</time></trkpt><trkpt lat="44.8136555" lon="9.2821717"><ele>874.6666666666666</ele><time>2026-05-03T14:03:40.636Z</time></trkpt><trkpt lat="44.8134952" lon="9.2822171"><ele>877.0</ele><time>2026-05-03T14:03:41.637Z</time></trkpt><trkpt lat="44.8133287" lon="9.2822535"><ele>877.0</ele><time>2026-05-03T14:03:42.638Z</time></trkpt><trkpt lat="44.8131693" lon="9.2822286"><ele>877.0</ele><time>2026-05-03T14:03:43.637Z</time></trkpt><trkpt lat="44.8130122" lon="9.2821786"><ele>877.0</ele><time>2026-05-03T14:03:44.642Z</time></trkpt><trkpt lat="44.8128452" lon="9.282116"><ele>877.0</ele><time>2026-05-03T14:03:45.645Z</time></trkpt><trkpt lat="44.8127422" lon="9.2819965"><ele>877.0</ele><time>2026-05-03T14:03:46.642Z</time></trkpt><trkpt lat="44.8126363" lon="9.2818281"><ele>877.0</ele><time>2026-05-03T14:03:47.638Z</time></trkpt><trkpt lat="44.8125438" lon="9.281596"><ele>866.3333333333333</ele><time>2026-05-03T14:03:48.641Z</time></trkpt><trkpt lat="44.8124739" lon="9.2813342"><ele>855.6666666666667</ele><time>2026-05-03T14:03:49.642Z</time></trkpt><trkpt lat="44.8124261" lon="9.2810635"><ele>845.0</ele><time>2026-05-03T14:03:50.643Z</time></trkpt><trkpt lat="44.8123647" lon="9.2807773"><ele>845.5</ele><time>2026-05-03T14:03:51.643Z</time></trkpt><trkpt lat="44.8122973" lon="9.2804591"><ele>846.0</ele><time>2026-05-03T14:03:52.644Z</time></trkpt><trkpt lat="44.8122162" lon="9.2801632"><ele>846.0</ele><time>2026-05-03T14:03:53.647Z</time></trkpt><trkpt lat="44.812141" lon="9.2798951"><ele>846.0</ele><time>2026-05-03T14:03:54.643Z</time></trkpt><trkpt lat="44.8121045" lon="9.2796312"><ele>846.0</ele><time>2026-05-03T14:03:55.647Z</time></trkpt><trkpt lat="44.8120672" lon="9.2793682"><ele>844.75</ele><time>2026-05-03T14:03:56.646Z</time></trkpt><trkpt lat="44.8121222" lon="9.2791772"><ele>843.5</ele><time>2026-05-03T14:03:57.646Z</time></trkpt><trkpt lat="44.8121929" lon="9.2789919"><ele>842.25</ele><time>2026-05-03T14:03:58.646Z</time></trkpt><trkpt lat="44.8122128" lon="9.2787851"><ele>841.0</ele><time>2026-05-03T14:03:59.655Z</time></trkpt><trkpt lat="44.812235" lon="9.2786348"><ele>840.0</ele><time>2026-05-03T14:04:00.648Z</time></trkpt><trkpt lat="44.812179" lon="9.2785055"><ele>839.0</ele><time>2026-05-03T14:04:01.644Z</time></trkpt><trkpt lat="44.8120953" lon="9.2782923"><ele>838.0</ele><time>2026-05-03T14:04:02.651Z</time></trkpt><trkpt lat="44.8120047" lon="9.2780912"><ele>837.0</ele><time>2026-05-03T14:04:03.647Z</time></trkpt><trkpt lat="44.8119289" lon="9.2778661"><ele>835.0</ele><time>2026-05-03T14:04:04.646Z</time></trkpt><trkpt lat="44.8119351" lon="9.2775917"><ele>833.0</ele><time>2026-05-03T14:04:05.645Z</time></trkpt><trkpt lat="44.8119345" lon="9.277292"><ele>831.0</ele><time>2026-05-03T14:04:06.641Z</time></trkpt><trkpt lat="44.8119427" lon="9.2769898"><ele>830.0</ele><time>2026-05-03T14:04:07.647Z</time></trkpt><trkpt lat="44.8119098" lon="9.2767187"><ele>829.0</ele><time>2026-05-03T14:04:08.641Z</time></trkpt><trkpt lat="44.811808" lon="9.2765118"><ele>828.0</ele><time>2026-05-03T14:04:09.643Z</time></trkpt><trkpt lat="44.8117266" lon="9.2763229"><ele>818.0</ele><time>2026-05-03T14:04:10.644Z</time></trkpt><trkpt lat="44.8116525" lon="9.2761564"><ele>808.0</ele><time>2026-05-03T14:04:11.649Z</time></trkpt><trkpt lat="44.8116155" lon="9.2759669"><ele>798.0</ele><time>2026-05-03T14:04:12.644Z</time></trkpt><trkpt lat="44.811634" lon="9.2757124"><ele>797.6666666666667</ele><time>2026-05-03T14:04:13.642Z</time></trkpt><trkpt lat="44.8117668" lon="9.2754497"><ele>797.3333333333334</ele><time>2026-05-03T14:04:14.646Z</time></trkpt><trkpt lat="44.8118578" lon="9.2752296"><ele>797.0</ele><time>2026-05-03T14:04:15.645Z</time></trkpt><trkpt lat="44.8118247" lon="9.2750435"><ele>797.0</ele><time>2026-05-03T14:04:16.651Z</time></trkpt><trkpt lat="44.8117507" lon="9.2748426"><ele>797.0</ele><time>2026-05-03T14:04:17.648Z</time></trkpt><trkpt lat="44.8116504" lon="9.2746928"><ele>797.0</ele><time>2026-05-03T14:04:18.648Z</time></trkpt><trkpt lat="44.8116218" lon="9.2745077"><ele>797.0</ele><time>2026-05-03T14:04:19.647Z</time></trkpt><trkpt lat="44.811598" lon="9.2742613"><ele>795.3333333333334</ele><time>2026-05-03T14:04:20.648Z</time></trkpt><trkpt lat="44.8115898" lon="9.2739825"><ele>793.6666666666667</ele><time>2026-05-03T14:04:21.644Z</time></trkpt><trkpt lat="44.8115726" lon="9.2737234"><ele>792.0</ele><time>2026-05-03T14:04:22.645Z</time></trkpt><trkpt lat="44.8115573" lon="9.2734222"><ele>788.3333333333333</ele><time>2026-05-03T14:04:23.646Z</time></trkpt><trkpt lat="44.811601" lon="9.273101"><ele>784.6666666666666</ele><time>2026-05-03T14:04:24.643Z</time></trkpt><trkpt lat="44.8115887" lon="9.272795"><ele>781.0</ele><time>2026-05-03T14:04:25.646Z</time></trkpt><trkpt lat="44.8116086" lon="9.2724937"><ele>779.0</ele><time>2026-05-03T14:04:26.646Z</time></trkpt><trkpt lat="44.8116251" lon="9.2721911"><ele>777.0</ele><time>2026-05-03T14:04:27.646Z</time></trkpt><trkpt lat="44.811627" lon="9.2719232"><ele>775.0</ele><time>2026-05-03T14:04:28.641Z</time></trkpt><trkpt lat="44.8116217" lon="9.2716415"><ele>772.3333333333333</ele><time>2026-05-03T14:04:29.652Z</time></trkpt><trkpt lat="44.8116312" lon="9.2714022"><ele>769.6666666666666</ele><time>2026-05-03T14:04:30.643Z</time></trkpt><trkpt lat="44.8116237" lon="9.2712235"><ele>767.0</ele><time>2026-05-03T14:04:31.641Z</time></trkpt><trkpt lat="44.8117283" lon="9.270995"><ele>767.0</ele><time>2026-05-03T14:04:33.651Z</time></trkpt><trkpt lat="44.8118005" lon="9.2708407"><ele>767.0</ele><time>2026-05-03T14:04:34.642Z</time></trkpt><trkpt lat="44.8118369" lon="9.270718"><ele>767.0</ele><time>2026-05-03T14:04:35.64Z</time></trkpt><trkpt lat="44.8118142" lon="9.2706299"><ele>767.0</ele><time>2026-05-03T14:04:36.639Z</time></trkpt><trkpt lat="44.8117634" lon="9.2705234"><ele>767.0</ele><time>2026-05-03T14:04:38.646Z</time></trkpt><trkpt lat="44.8117141" lon="9.270443"><ele>767.0</ele><time>2026-05-03T14:04:40.625Z</time></trkpt><trkpt lat="44.811656" lon="9.2704797"><ele>767.0</ele><time>2026-05-03T14:04:41.615Z</time></trkpt><trkpt lat="44.8115331" lon="9.2706117"><ele>767.0</ele><time>2026-05-03T14:04:42.625Z</time></trkpt><trkpt lat="44.8114028" lon="9.2707825"><ele>767.0</ele><time>2026-05-03T14:04:43.634Z</time></trkpt><trkpt lat="44.8112145" lon="9.2710295"><ele>767.0</ele><time>2026-05-03T14:04:44.639Z</time></trkpt><trkpt lat="44.811064" lon="9.2712357"><ele>767.0</ele><time>2026-05-03T14:04:45.642Z</time></trkpt><trkpt lat="44.8109636" lon="9.2713947"><ele>767.0</ele><time>2026-05-03T14:04:46.643Z</time></trkpt><trkpt lat="44.8108938" lon="9.2715514"><ele>765.25</ele><time>2026-05-03T14:04:47.643Z</time></trkpt><trkpt lat="44.81082" lon="9.2717018"><ele>763.5</ele><time>2026-05-03T14:04:48.64Z</time></trkpt><trkpt lat="44.8107459" lon="9.2718304"><ele>761.75</ele><time>2026-05-03T14:04:49.639Z</time></trkpt><trkpt lat="44.8106873" lon="9.2719562"><ele>760.0</ele><time>2026-05-03T14:04:50.639Z</time></trkpt><trkpt lat="44.8106363" lon="9.2720997"><ele>760.0</ele><time>2026-05-03T14:04:51.644Z</time></trkpt><trkpt lat="44.8106125" lon="9.2722529"><ele>760.0</ele><time>2026-05-03T14:04:52.642Z</time></trkpt><trkpt lat="44.8105706" lon="9.2724087"><ele>760.0</ele><time>2026-05-03T14:04:53.646Z</time></trkpt><trkpt lat="44.8105201" lon="9.2725725"><ele>760.0</ele><time>2026-05-03T14:04:54.643Z</time></trkpt><trkpt lat="44.8104467" lon="9.2727363"><ele>761.0</ele><time>2026-05-03T14:04:55.641Z</time></trkpt><trkpt lat="44.8103465" lon="9.2728679"><ele>762.0</ele><time>2026-05-03T14:04:56.638Z</time></trkpt><trkpt lat="44.8102721" lon="9.2730045"><ele>763.0</ele><time>2026-05-03T14:04:57.64Z</time></trkpt><trkpt lat="44.8102191" lon="9.2731264"><ele>764.0</ele><time>2026-05-03T14:04:58.637Z</time></trkpt><trkpt lat="44.8101838" lon="9.2732554"><ele>764.4000000000001</ele><time>2026-05-03T14:04:59.647Z</time></trkpt><trkpt lat="44.8101666" lon="9.2733867"><ele>764.8</ele><time>2026-05-03T14:05:00.641Z</time></trkpt><trkpt lat="44.8101645" lon="9.2735132"><ele>765.2</ele><time>2026-05-03T14:05:01.64Z</time></trkpt><trkpt lat="44.8101595" lon="9.2736149"><ele>765.5999999999999</ele><time>2026-05-03T14:05:02.641Z</time></trkpt><trkpt lat="44.8101288" lon="9.2737428"><ele>766.0</ele><time>2026-05-03T14:05:04.637Z</time></trkpt><trkpt lat="44.8101313" lon="9.2734781"><ele>759.0</ele><time>2026-05-03T14:05:08.643Z</time></trkpt><trkpt lat="44.8101194" lon="9.2733287"><ele>752.0</ele><time>2026-05-03T14:05:09.641Z</time></trkpt><trkpt lat="44.8100997" lon="9.2731147"><ele>745.0</ele><time>2026-05-03T14:05:10.649Z</time></trkpt><trkpt lat="44.8100754" lon="9.2728361"><ele>744.3333333333334</ele><time>2026-05-03T14:05:11.645Z</time></trkpt><trkpt lat="44.8100449" lon="9.2725293"><ele>743.6666666666666</ele><time>2026-05-03T14:05:12.63Z</time></trkpt><trkpt lat="44.8100223" lon="9.2722128"><ele>743.0</ele><time>2026-05-03T14:05:13.621Z</time></trkpt><trkpt lat="44.8099345" lon="9.2716167"><ele>739.5</ele><time>2026-05-03T14:05:14.632Z</time></trkpt><trkpt lat="44.8099066" lon="9.2711375"><ele>736.0</ele><time>2026-05-03T14:05:15.645Z</time></trkpt><trkpt lat="44.8099125" lon="9.2708152"><ele>736.0</ele><time>2026-05-03T14:05:16.644Z</time></trkpt><trkpt lat="44.8099435" lon="9.2706083"><ele>736.0</ele><time>2026-05-03T14:05:17.644Z</time></trkpt><trkpt lat="44.8100349" lon="9.27052"><ele>736.0</ele><time>2026-05-03T14:05:18.64Z</time></trkpt><trkpt lat="44.810127" lon="9.270433"><ele>736.0</ele><time>2026-05-03T14:05:19.642Z</time></trkpt><trkpt lat="44.8101394" lon="9.270264"><ele>734.0</ele><time>2026-05-03T14:05:21.641Z</time></trkpt><trkpt lat="44.8100526" lon="9.2701762"><ele>732.0</ele><time>2026-05-03T14:05:23.64Z</time></trkpt><trkpt lat="44.8099822" lon="9.2701719"><ele>730.0</ele><time>2026-05-03T14:05:24.637Z</time></trkpt><trkpt lat="44.8099075" lon="9.2702074"><ele>728.0</ele><time>2026-05-03T14:05:25.637Z</time></trkpt><trkpt lat="44.8098237" lon="9.2702724"><ele>726.0</ele><time>2026-05-03T14:05:26.643Z</time></trkpt><trkpt lat="44.8097454" lon="9.2703924"><ele>726.0</ele><time>2026-05-03T14:05:27.647Z</time></trkpt><trkpt lat="44.8096424" lon="9.2705895"><ele>726.0</ele><time>2026-05-03T14:05:28.647Z</time></trkpt><trkpt lat="44.8095581" lon="9.2707557"><ele>726.0</ele><time>2026-05-03T14:05:29.641Z</time></trkpt><trkpt lat="44.809484" lon="9.2709442"><ele>724.0</ele><time>2026-05-03T14:05:30.64Z</time></trkpt><trkpt lat="44.8093492" lon="9.2711154"><ele>722.0</ele><time>2026-05-03T14:05:31.632Z</time></trkpt><trkpt lat="44.8092512" lon="9.2712498"><ele>720.0</ele><time>2026-05-03T14:05:32.633Z</time></trkpt><trkpt lat="44.809152" lon="9.2712996"><ele>718.0</ele><time>2026-05-03T14:05:33.63Z</time></trkpt><trkpt lat="44.8090702" lon="9.2713674"><ele>718.0</ele><time>2026-05-03T14:05:34.63Z</time></trkpt><trkpt lat="44.8089589" lon="9.2713514"><ele>718.0</ele><time>2026-05-03T14:05:35.635Z</time></trkpt><trkpt lat="44.8088844" lon="9.2712487"><ele>718.0</ele><time>2026-05-03T14:05:36.647Z</time></trkpt><trkpt lat="44.8088177" lon="9.2710921"><ele>718.0</ele><time>2026-05-03T14:05:37.65Z</time></trkpt><trkpt lat="44.8088195" lon="9.2709588"><ele>718.0</ele><time>2026-05-03T14:05:38.649Z</time></trkpt><trkpt lat="44.8088651" lon="9.2708079"><ele>718.0</ele><time>2026-05-03T14:05:39.643Z</time></trkpt><trkpt lat="44.8089565" lon="9.2706334"><ele>718.0</ele><time>2026-05-03T14:05:40.642Z</time></trkpt><trkpt lat="44.8090628" lon="9.2704634"><ele>718.0</ele><time>2026-05-03T14:05:41.645Z</time></trkpt><trkpt lat="44.8091507" lon="9.2702948"><ele>717.0</ele><time>2026-05-03T14:05:42.649Z</time></trkpt><trkpt lat="44.8092436" lon="9.2700738"><ele>716.0</ele><time>2026-05-03T14:05:43.65Z</time></trkpt><trkpt lat="44.809314" lon="9.2698678"><ele>715.0</ele><time>2026-05-03T14:05:44.651Z</time></trkpt><trkpt lat="44.8093752" lon="9.2696607"><ele>715.0</ele><time>2026-05-03T14:05:45.647Z</time></trkpt><trkpt lat="44.8094259" lon="9.2694637"><ele>715.0</ele><time>2026-05-03T14:05:46.646Z</time></trkpt><trkpt lat="44.809472" lon="9.2692699"><ele>715.0</ele><time>2026-05-03T14:05:47.646Z</time></trkpt><trkpt lat="44.8095173" lon="9.2690979"><ele>715.0</ele><time>2026-05-03T14:05:48.645Z</time></trkpt><trkpt lat="44.8095784" lon="9.2689245"><ele>709.6666666666667</ele><time>2026-05-03T14:05:49.641Z</time></trkpt><trkpt lat="44.8096388" lon="9.2687483"><ele>704.3333333333334</ele><time>2026-05-03T14:05:50.642Z</time></trkpt><trkpt lat="44.8097098" lon="9.2685505"><ele>699.0</ele><time>2026-05-03T14:05:51.639Z</time></trkpt><trkpt lat="44.8098424" lon="9.2684042"><ele>699.0</ele><time>2026-05-03T14:05:52.64Z</time></trkpt><trkpt lat="44.8099402" lon="9.2682039"><ele>699.0</ele><time>2026-05-03T14:05:53.643Z</time></trkpt><trkpt lat="44.8100084" lon="9.2679896"><ele>699.0</ele><time>2026-05-03T14:05:54.642Z</time></trkpt><trkpt lat="44.8101035" lon="9.2678494"><ele>699.25</ele><time>2026-05-03T14:05:55.643Z</time></trkpt><trkpt lat="44.8102161" lon="9.2677187"><ele>699.5</ele><time>2026-05-03T14:05:56.643Z</time></trkpt><trkpt lat="44.8102975" lon="9.2676182"><ele>699.75</ele><time>2026-05-03T14:05:57.639Z</time></trkpt><trkpt lat="44.8104273" lon="9.2674753"><ele>700.0</ele><time>2026-05-03T14:05:58.64Z</time></trkpt><trkpt lat="44.8105732" lon="9.2673265"><ele>697.3333333333334</ele><time>2026-05-03T14:05:59.64Z</time></trkpt><trkpt lat="44.8107266" lon="9.2671721"><ele>694.6666666666666</ele><time>2026-05-03T14:06:00.636Z</time></trkpt><trkpt lat="44.8108481" lon="9.2670049"><ele>692.0</ele><time>2026-05-03T14:06:01.636Z</time></trkpt><trkpt lat="44.8109398" lon="9.2668237"><ele>693.6666666666666</ele><time>2026-05-03T14:06:02.638Z</time></trkpt><trkpt lat="44.8110202" lon="9.2665927"><ele>695.3333333333334</ele><time>2026-05-03T14:06:03.64Z</time></trkpt><trkpt lat="44.8110987" lon="9.2663726"><ele>697.0</ele><time>2026-05-03T14:06:04.636Z</time></trkpt><trkpt lat="44.811175" lon="9.2661169"><ele>697.0</ele><time>2026-05-03T14:06:05.64Z</time></trkpt><trkpt lat="44.8112349" lon="9.2659034"><ele>697.0</ele><time>2026-05-03T14:06:06.638Z</time></trkpt><trkpt lat="44.8113063" lon="9.26572"><ele>697.0</ele><time>2026-05-03T14:06:07.64Z</time></trkpt><trkpt lat="44.8113537" lon="9.2655311"><ele>701.5</ele><time>2026-05-03T14:06:08.645Z</time></trkpt><trkpt lat="44.8113316" lon="9.2653502"><ele>706.0</ele><time>2026-05-03T14:06:09.642Z</time></trkpt><trkpt lat="44.8113347" lon="9.2651703"><ele>710.5</ele><time>2026-05-03T14:06:10.642Z</time></trkpt><trkpt lat="44.8112659" lon="9.2649834"><ele>715.0</ele><time>2026-05-03T14:06:11.642Z</time></trkpt><trkpt lat="44.8110488" lon="9.2648385"><ele>706.5</ele><time>2026-05-03T14:06:12.642Z</time></trkpt><trkpt lat="44.8108196" lon="9.2646368"><ele>698.0</ele><time>2026-05-03T14:06:13.631Z</time></trkpt><trkpt lat="44.8105206" lon="9.2644923"><ele>698.0</ele><time>2026-05-03T14:06:14.633Z</time></trkpt><trkpt lat="44.810304" lon="9.2643491"><ele>698.0</ele><time>2026-05-03T14:06:15.637Z</time></trkpt><trkpt lat="44.8101471" lon="9.2641795"><ele>698.0</ele><time>2026-05-03T14:06:16.634Z</time></trkpt><trkpt lat="44.8100598" lon="9.2639639"><ele>695.5</ele><time>2026-05-03T14:06:17.636Z</time></trkpt><trkpt lat="44.8099451" lon="9.2637644"><ele>693.0</ele><time>2026-05-03T14:06:18.64Z</time></trkpt><trkpt lat="44.8098573" lon="9.2635947"><ele>690.5</ele><time>2026-05-03T14:06:19.636Z</time></trkpt><trkpt lat="44.8097997" lon="9.2634506"><ele>688.0</ele><time>2026-05-03T14:06:20.632Z</time></trkpt><trkpt lat="44.8097145" lon="9.2633474"><ele>688.0</ele><time>2026-05-03T14:06:21.635Z</time></trkpt><trkpt lat="44.809608" lon="9.2632252"><ele>688.0</ele><time>2026-05-03T14:06:22.634Z</time></trkpt><trkpt lat="44.8095142" lon="9.2630778"><ele>688.0</ele><time>2026-05-03T14:06:23.652Z</time></trkpt><trkpt lat="44.8093717" lon="9.2629282"><ele>683.3333333333334</ele><time>2026-05-03T14:06:24.643Z</time></trkpt><trkpt lat="44.8092238" lon="9.2627808"><ele>678.6666666666666</ele><time>2026-05-03T14:06:25.638Z</time></trkpt><trkpt lat="44.8091393" lon="9.2625599"><ele>674.0</ele><time>2026-05-03T14:06:26.636Z</time></trkpt><trkpt lat="44.809087" lon="9.2623185"><ele>677.0</ele><time>2026-05-03T14:06:27.643Z</time></trkpt><trkpt lat="44.8090077" lon="9.262142"><ele>680.0</ele><time>2026-05-03T14:06:28.656Z</time></trkpt><trkpt lat="44.8089707" lon="9.2618989"><ele>683.0</ele><time>2026-05-03T14:06:29.646Z</time></trkpt><trkpt lat="44.8089277" lon="9.2616994"><ele>683.0</ele><time>2026-05-03T14:06:30.646Z</time></trkpt><trkpt lat="44.8088887" lon="9.261458"><ele>683.0</ele><time>2026-05-03T14:06:31.64Z</time></trkpt><trkpt lat="44.8088729" lon="9.2612086"><ele>683.0</ele><time>2026-05-03T14:06:32.642Z</time></trkpt><trkpt lat="44.8088673" lon="9.2609748"><ele>683.2</ele><time>2026-05-03T14:06:33.658Z</time></trkpt><trkpt lat="44.8088441" lon="9.2607742"><ele>683.4</ele><time>2026-05-03T14:06:34.644Z</time></trkpt><trkpt lat="44.8087995" lon="9.2606283"><ele>683.6</ele><time>2026-05-03T14:06:35.652Z</time></trkpt><trkpt lat="44.8087859" lon="9.2604938"><ele>683.8000000000001</ele><time>2026-05-03T14:06:36.641Z</time></trkpt><trkpt lat="44.8088403" lon="9.2603933"><ele>684.0</ele><time>2026-05-03T14:06:37.643Z</time></trkpt><trkpt lat="44.8089032" lon="9.2602792"><ele>682.75</ele><time>2026-05-03T14:06:38.653Z</time></trkpt><trkpt lat="44.8089864" lon="9.2601974"><ele>681.5</ele><time>2026-05-03T14:06:39.643Z</time></trkpt><trkpt lat="44.8091072" lon="9.2602113"><ele>680.25</ele><time>2026-05-03T14:06:40.643Z</time></trkpt><trkpt lat="44.8092104" lon="9.2602274"><ele>679.0</ele><time>2026-05-03T14:06:41.642Z</time></trkpt><trkpt lat="44.8093548" lon="9.2602988"><ele>679.0</ele><time>2026-05-03T14:06:42.642Z</time></trkpt><trkpt lat="44.8094995" lon="9.2602892"><ele>679.0</ele><time>2026-05-03T14:06:43.642Z</time></trkpt><trkpt lat="44.8096435" lon="9.260264"><ele>679.0</ele><time>2026-05-03T14:06:44.654Z</time></trkpt><trkpt lat="44.8097939" lon="9.2601956"><ele>679.0</ele><time>2026-05-03T14:06:45.644Z</time></trkpt><trkpt lat="44.8099737" lon="9.2600979"><ele>677.3333333333334</ele><time>2026-05-03T14:06:46.641Z</time></trkpt><trkpt lat="44.8101613" lon="9.2599265"><ele>675.6666666666666</ele><time>2026-05-03T14:06:47.644Z</time></trkpt><trkpt lat="44.8103423" lon="9.2597406"><ele>674.0</ele><time>2026-05-03T14:06:48.644Z</time></trkpt><trkpt lat="44.8105263" lon="9.2596147"><ele>674.0</ele><time>2026-05-03T14:06:49.653Z</time></trkpt><trkpt lat="44.8107573" lon="9.2595167"><ele>674.0</ele><time>2026-05-03T14:06:50.644Z</time></trkpt><trkpt lat="44.8109475" lon="9.2594604"><ele>674.0</ele><time>2026-05-03T14:06:51.646Z</time></trkpt><trkpt lat="44.8110926" lon="9.2593837"><ele>677.6666666666666</ele><time>2026-05-03T14:06:52.643Z</time></trkpt><trkpt lat="44.8111956" lon="9.2592525"><ele>681.3333333333334</ele><time>2026-05-03T14:06:53.643Z</time></trkpt><trkpt lat="44.8112586" lon="9.2590569"><ele>685.0</ele><time>2026-05-03T14:06:54.654Z</time></trkpt><trkpt lat="44.8112971" lon="9.2588331"><ele>685.0</ele><time>2026-05-03T14:06:55.644Z</time></trkpt><trkpt lat="44.811319" lon="9.258613"><ele>685.0</ele><time>2026-05-03T14:06:56.643Z</time></trkpt><trkpt lat="44.8113586" lon="9.2584181"><ele>685.0</ele><time>2026-05-03T14:06:57.643Z</time></trkpt><trkpt lat="44.8113626" lon="9.2581369"><ele>684.0</ele><time>2026-05-03T14:06:58.645Z</time></trkpt><trkpt lat="44.8113526" lon="9.257923"><ele>683.0</ele><time>2026-05-03T14:06:59.656Z</time></trkpt><trkpt lat="44.8113679" lon="9.2577119"><ele>682.0</ele><time>2026-05-03T14:07:00.646Z</time></trkpt><trkpt lat="44.811404" lon="9.2574746"><ele>681.0</ele><time>2026-05-03T14:07:01.643Z</time></trkpt><trkpt lat="44.8114305" lon="9.2572828"><ele>680.0</ele><time>2026-05-03T14:07:02.641Z</time></trkpt><trkpt lat="44.8114545" lon="9.2571909"><ele>679.0</ele><time>2026-05-03T14:07:03.648Z</time></trkpt><trkpt lat="44.8115145" lon="9.2570644"><ele>678.0</ele><time>2026-05-03T14:07:04.661Z</time></trkpt><trkpt lat="44.8116092" lon="9.2570027"><ele>677.0</ele><time>2026-05-03T14:07:05.645Z</time></trkpt><trkpt lat="44.8117735" lon="9.2568797"><ele>682.0</ele><time>2026-05-03T14:07:06.645Z</time></trkpt><trkpt lat="44.811916" lon="9.2567227"><ele>687.0</ele><time>2026-05-03T14:07:07.646Z</time></trkpt><trkpt lat="44.8119812" lon="9.2565115"><ele>692.0</ele><time>2026-05-03T14:07:08.648Z</time></trkpt><trkpt lat="44.811983" lon="9.2562576"><ele>692.3333333333333</ele><time>2026-05-03T14:07:09.644Z</time></trkpt><trkpt lat="44.8119832" lon="9.2559826"><ele>692.6666666666666</ele><time>2026-05-03T14:07:10.658Z</time></trkpt><trkpt lat="44.8119553" lon="9.2556947"><ele>693.0</ele><time>2026-05-03T14:07:11.645Z</time></trkpt><trkpt lat="44.8119091" lon="9.2553112"><ele>694.0</ele><time>2026-05-03T14:07:12.646Z</time></trkpt><trkpt lat="44.8118324" lon="9.2550029"><ele>695.0</ele><time>2026-05-03T14:07:13.647Z</time></trkpt><trkpt lat="44.8117322" lon="9.2547202"><ele>686.0</ele><time>2026-05-03T14:07:14.644Z</time></trkpt><trkpt lat="44.811639" lon="9.2544285"><ele>677.0</ele><time>2026-05-03T14:07:15.662Z</time></trkpt><trkpt lat="44.8115206" lon="9.2541315"><ele>682.5</ele><time>2026-05-03T14:07:16.646Z</time></trkpt><trkpt lat="44.8113923" lon="9.2538426"><ele>688.0</ele><time>2026-05-03T14:07:17.646Z</time></trkpt><trkpt lat="44.8112612" lon="9.2535909"><ele>688.0</ele><time>2026-05-03T14:07:18.647Z</time></trkpt><trkpt lat="44.8110551" lon="9.2533692"><ele>688.0</ele><time>2026-05-03T14:07:19.64Z</time></trkpt><trkpt lat="44.8109222" lon="9.2531128"><ele>683.6666666666667</ele><time>2026-05-03T14:07:20.654Z</time></trkpt><trkpt lat="44.8108132" lon="9.2528312"><ele>679.3333333333334</ele><time>2026-05-03T14:07:21.64Z</time></trkpt><trkpt lat="44.8107149" lon="9.2525648"><ele>675.0</ele><time>2026-05-03T14:07:22.643Z</time></trkpt><trkpt lat="44.8106472" lon="9.2522534"><ele>675.0</ele><time>2026-05-03T14:07:23.642Z</time></trkpt><trkpt lat="44.8105981" lon="9.2520097"><ele>675.0</ele><time>2026-05-03T14:07:24.642Z</time></trkpt><trkpt lat="44.8105034" lon="9.2517693"><ele>675.0</ele><time>2026-05-03T14:07:25.653Z</time></trkpt><trkpt lat="44.8104614" lon="9.2515845"><ele>672.6666666666666</ele><time>2026-05-03T14:07:26.639Z</time></trkpt><trkpt lat="44.8105266" lon="9.2514001"><ele>670.3333333333333</ele><time>2026-05-03T14:07:27.64Z</time></trkpt><trkpt lat="44.810577" lon="9.2512068"><ele>668.0</ele><time>2026-05-03T14:07:28.644Z</time></trkpt><trkpt lat="44.810731" lon="9.2510683"><ele>668.0</ele><time>2026-05-03T14:07:29.645Z</time></trkpt><trkpt lat="44.8109441" lon="9.2508205"><ele>668.0</ele><time>2026-05-03T14:07:30.653Z</time></trkpt><trkpt lat="44.8111118" lon="9.2505995"><ele>666.3333333333333</ele><time>2026-05-03T14:07:31.646Z</time></trkpt><trkpt lat="44.8112862" lon="9.2504304"><ele>664.6666666666666</ele><time>2026-05-03T14:07:32.652Z</time></trkpt><trkpt lat="44.8114745" lon="9.2503153"><ele>663.0</ele><time>2026-05-03T14:07:33.651Z</time></trkpt><trkpt lat="44.8116513" lon="9.2502302"><ele>663.0</ele><time>2026-05-03T14:07:34.642Z</time></trkpt><trkpt lat="44.8117992" lon="9.2501724"><ele>663.0</ele><time>2026-05-03T14:07:35.655Z</time></trkpt><trkpt lat="44.8119418" lon="9.2501517"><ele>663.0</ele><time>2026-05-03T14:07:36.65Z</time></trkpt><trkpt lat="44.8120771" lon="9.2501942"><ele>663.0</ele><time>2026-05-03T14:07:37.646Z</time></trkpt><trkpt lat="44.8122273" lon="9.2502582"><ele>665.5</ele><time>2026-05-03T14:07:38.644Z</time></trkpt><trkpt lat="44.8123297" lon="9.2502726"><ele>668.0</ele><time>2026-05-03T14:07:39.644Z</time></trkpt><trkpt lat="44.8124814" lon="9.2501313"><ele>670.5</ele><time>2026-05-03T14:07:41.65Z</time></trkpt><trkpt lat="44.8125346" lon="9.2499666"><ele>673.0</ele><time>2026-05-03T14:07:42.641Z</time></trkpt><trkpt lat="44.8125254" lon="9.2498688"><ele>674.0</ele><time>2026-05-03T14:07:43.642Z</time></trkpt><trkpt lat="44.8124911" lon="9.249697"><ele>675.0</ele><time>2026-05-03T14:07:44.643Z</time></trkpt><trkpt lat="44.8124043" lon="9.2495236"><ele>676.0</ele><time>2026-05-03T14:07:45.653Z</time></trkpt><trkpt lat="44.8122802" lon="9.2492923"><ele>676.0</ele><time>2026-05-03T14:07:46.64Z</time></trkpt><trkpt lat="44.8121856" lon="9.2490348"><ele>676.0</ele><time>2026-05-03T14:07:47.639Z</time></trkpt><trkpt lat="44.812126" lon="9.24884"><ele>676.0</ele><time>2026-05-03T14:07:48.647Z</time></trkpt><trkpt lat="44.8121124" lon="9.248645"><ele>676.0</ele><time>2026-05-03T14:07:49.653Z</time></trkpt><trkpt lat="44.8121091" lon="9.2484593"><ele>676.0</ele><time>2026-05-03T14:07:50.657Z</time></trkpt><trkpt lat="44.8120648" lon="9.2482433"><ele>676.0</ele><time>2026-05-03T14:07:51.645Z</time></trkpt><trkpt lat="44.8120562" lon="9.2480238"><ele>676.0</ele><time>2026-05-03T14:07:52.649Z</time></trkpt><trkpt lat="44.8120091" lon="9.2477754"><ele>675.25</ele><time>2026-05-03T14:07:53.652Z</time></trkpt><trkpt lat="44.8120011" lon="9.2475983"><ele>674.5</ele><time>2026-05-03T14:07:54.657Z</time></trkpt><trkpt lat="44.8119824" lon="9.2473924"><ele>673.75</ele><time>2026-05-03T14:07:55.66Z</time></trkpt><trkpt lat="44.8119749" lon="9.2471906"><ele>673.0</ele><time>2026-05-03T14:07:56.643Z</time></trkpt><trkpt lat="44.8120031" lon="9.2469481"><ele>672.8</ele><time>2026-05-03T14:07:57.643Z</time></trkpt><trkpt lat="44.812079" lon="9.2468187"><ele>672.5999999999999</ele><time>2026-05-03T14:07:58.645Z</time></trkpt><trkpt lat="44.8121557" lon="9.2466847"><ele>672.4000000000001</ele><time>2026-05-03T14:07:59.653Z</time></trkpt><trkpt lat="44.8121793" lon="9.2465605"><ele>672.2</ele><time>2026-05-03T14:08:00.658Z</time></trkpt><trkpt lat="44.8121606" lon="9.2464334"><ele>672.0</ele><time>2026-05-03T14:08:01.645Z</time></trkpt><trkpt lat="44.8121265" lon="9.2463221"><ele>673.25</ele><time>2026-05-03T14:08:02.647Z</time></trkpt><trkpt lat="44.812048" lon="9.2462652"><ele>674.5</ele><time>2026-05-03T14:08:03.647Z</time></trkpt><trkpt lat="44.8119482" lon="9.2461961"><ele>675.75</ele><time>2026-05-03T14:08:04.64Z</time></trkpt><trkpt lat="44.8118372" lon="9.2461171"><ele>677.0</ele><time>2026-05-03T14:08:05.655Z</time></trkpt><trkpt lat="44.8117241" lon="9.2459942"><ele>673.6666666666666</ele><time>2026-05-03T14:08:06.641Z</time></trkpt><trkpt lat="44.8116039" lon="9.2458394"><ele>670.3333333333334</ele><time>2026-05-03T14:08:07.642Z</time></trkpt><trkpt lat="44.8115102" lon="9.2456603"><ele>667.0</ele><time>2026-05-03T14:08:08.642Z</time></trkpt><trkpt lat="44.8114196" lon="9.2454409"><ele>667.0</ele><time>2026-05-03T14:08:09.646Z</time></trkpt><trkpt lat="44.8113201" lon="9.2452094"><ele>667.0</ele><time>2026-05-03T14:08:10.659Z</time></trkpt><trkpt lat="44.8112423" lon="9.2450444"><ele>667.0</ele><time>2026-05-03T14:08:11.646Z</time></trkpt><trkpt lat="44.8111781" lon="9.2448532"><ele>668.6666666666667</ele><time>2026-05-03T14:08:12.641Z</time></trkpt><trkpt lat="44.8111041" lon="9.2446374"><ele>670.3333333333334</ele><time>2026-05-03T14:08:13.637Z</time></trkpt><trkpt lat="44.8110832" lon="9.2443673"><ele>672.0</ele><time>2026-05-03T14:08:14.641Z</time></trkpt><trkpt lat="44.8110542" lon="9.2441188"><ele>672.6666666666666</ele><time>2026-05-03T14:08:15.657Z</time></trkpt><trkpt lat="44.8110461" lon="9.2438312"><ele>673.3333333333333</ele><time>2026-05-03T14:08:16.643Z</time></trkpt><trkpt lat="44.8110239" lon="9.2435815"><ele>674.0</ele><time>2026-05-03T14:08:17.647Z</time></trkpt><trkpt lat="44.8110215" lon="9.2433256"><ele>674.3333333333333</ele><time>2026-05-03T14:08:18.645Z</time></trkpt><trkpt lat="44.8110128" lon="9.243074"><ele>674.6666666666666</ele><time>2026-05-03T14:08:19.647Z</time></trkpt><trkpt lat="44.8109786" lon="9.2428171"><ele>675.0</ele><time>2026-05-03T14:08:20.643Z</time></trkpt><trkpt lat="44.8109199" lon="9.24259"><ele>668.6666666666666</ele><time>2026-05-03T14:08:21.652Z</time></trkpt><trkpt lat="44.8108226" lon="9.2424125"><ele>662.3333333333333</ele><time>2026-05-03T14:08:22.644Z</time></trkpt><trkpt lat="44.8107058" lon="9.2422758"><ele>656.0</ele><time>2026-05-03T14:08:23.645Z</time></trkpt><trkpt lat="44.8105546" lon="9.2421777"><ele>656.0</ele><time>2026-05-03T14:08:24.642Z</time></trkpt><trkpt lat="44.8104392" lon="9.2420467"><ele>656.0</ele><time>2026-05-03T14:08:25.642Z</time></trkpt><trkpt lat="44.810364" lon="9.2418874"><ele>656.0</ele><time>2026-05-03T14:08:26.654Z</time></trkpt><trkpt lat="44.8103009" lon="9.2417128"><ele>656.0</ele><time>2026-05-03T14:08:27.643Z</time></trkpt><trkpt lat="44.8102199" lon="9.2414927"><ele>654.0</ele><time>2026-05-03T14:08:28.644Z</time></trkpt><trkpt lat="44.8100959" lon="9.2413583"><ele>652.0</ele><time>2026-05-03T14:08:29.648Z</time></trkpt><trkpt lat="44.810015" lon="9.2411905"><ele>650.0</ele><time>2026-05-03T14:08:30.646Z</time></trkpt><trkpt lat="44.8099673" lon="9.2409982"><ele>648.0</ele><time>2026-05-03T14:08:31.656Z</time></trkpt><trkpt lat="44.8099614" lon="9.2407777"><ele>648.3333333333334</ele><time>2026-05-03T14:08:32.642Z</time></trkpt><trkpt lat="44.8099963" lon="9.2405899"><ele>648.6666666666667</ele><time>2026-05-03T14:08:33.638Z</time></trkpt><trkpt lat="44.8100694" lon="9.2403562"><ele>649.0</ele><time>2026-05-03T14:08:34.642Z</time></trkpt><trkpt lat="44.8101073" lon="9.2401342"><ele>649.0</ele><time>2026-05-03T14:08:35.644Z</time></trkpt><trkpt lat="44.8101414" lon="9.2398999"><ele>649.0</ele><time>2026-05-03T14:08:36.654Z</time></trkpt><trkpt lat="44.8101595" lon="9.2396729"><ele>649.0</ele><time>2026-05-03T14:08:37.639Z</time></trkpt><trkpt lat="44.8101311" lon="9.2394895"><ele>649.0</ele><time>2026-05-03T14:08:38.636Z</time></trkpt><trkpt lat="44.810078" lon="9.2392958"><ele>649.0</ele><time>2026-05-03T14:08:39.637Z</time></trkpt><trkpt lat="44.8100044" lon="9.2391174"><ele>649.0</ele><time>2026-05-03T14:08:40.638Z</time></trkpt><trkpt lat="44.809878" lon="9.2390117"><ele>649.0</ele><time>2026-05-03T14:08:41.657Z</time></trkpt><trkpt lat="44.8097735" lon="9.238931"><ele>648.4000000000001</ele><time>2026-05-03T14:08:42.639Z</time></trkpt><trkpt lat="44.8096824" lon="9.2388313"><ele>647.8</ele><time>2026-05-03T14:08:43.637Z</time></trkpt><trkpt lat="44.8096597" lon="9.2387016"><ele>647.2</ele><time>2026-05-03T14:08:44.637Z</time></trkpt><trkpt lat="44.8096885" lon="9.2385417"><ele>646.5999999999999</ele><time>2026-05-03T14:08:45.635Z</time></trkpt><trkpt lat="44.8096958" lon="9.2383814"><ele>646.0</ele><time>2026-05-03T14:08:46.648Z</time></trkpt><trkpt lat="44.8096939" lon="9.2381881"><ele>646.3333333333334</ele><time>2026-05-03T14:08:47.64Z</time></trkpt><trkpt lat="44.8096773" lon="9.2379723"><ele>646.6666666666666</ele><time>2026-05-03T14:08:48.642Z</time></trkpt><trkpt lat="44.8096471" lon="9.2377291"><ele>647.0</ele><time>2026-05-03T14:08:49.646Z</time></trkpt><trkpt lat="44.8096294" lon="9.237448"><ele>646.6666666666666</ele><time>2026-05-03T14:08:50.645Z</time></trkpt><trkpt lat="44.8096047" lon="9.2371641"><ele>646.3333333333334</ele><time>2026-05-03T14:08:51.659Z</time></trkpt><trkpt lat="44.8095796" lon="9.236904"><ele>646.0</ele><time>2026-05-03T14:08:52.645Z</time></trkpt><trkpt lat="44.8096207" lon="9.23662"><ele>643.3333333333334</ele><time>2026-05-03T14:08:53.647Z</time></trkpt><trkpt lat="44.8096435" lon="9.2363487"><ele>640.6666666666666</ele><time>2026-05-03T14:08:54.648Z</time></trkpt><trkpt lat="44.8096601" lon="9.2360922"><ele>638.0</ele><time>2026-05-03T14:08:55.641Z</time></trkpt><trkpt lat="44.809653" lon="9.2358876"><ele>638.0</ele><time>2026-05-03T14:08:56.654Z</time></trkpt><trkpt lat="44.8096415" lon="9.2356792"><ele>638.0</ele><time>2026-05-03T14:08:57.641Z</time></trkpt><trkpt lat="44.8096752" lon="9.2354947"><ele>638.0</ele><time>2026-05-03T14:08:58.641Z</time></trkpt><trkpt lat="44.8097476" lon="9.2353268"><ele>638.0</ele><time>2026-05-03T14:08:59.638Z</time></trkpt><trkpt lat="44.8098856" lon="9.235207"><ele>638.6666666666666</ele><time>2026-05-03T14:09:00.641Z</time></trkpt><trkpt lat="44.810071" lon="9.2350557"><ele>639.3333333333334</ele><time>2026-05-03T14:09:01.64Z</time></trkpt><trkpt lat="44.8101793" lon="9.2349213"><ele>640.0</ele><time>2026-05-03T14:09:02.65Z</time></trkpt><trkpt lat="44.8102456" lon="9.2347293"><ele>636.0</ele><time>2026-05-03T14:09:03.637Z</time></trkpt><trkpt lat="44.8103358" lon="9.2344757"><ele>632.0</ele><time>2026-05-03T14:09:04.639Z</time></trkpt><trkpt lat="44.8104392" lon="9.2342924"><ele>628.0</ele><time>2026-05-03T14:09:05.639Z</time></trkpt><trkpt lat="44.8105506" lon="9.2340899"><ele>623.6666666666667</ele><time>2026-05-03T14:09:06.638Z</time></trkpt><trkpt lat="44.8106645" lon="9.2338605"><ele>619.3333333333334</ele><time>2026-05-03T14:09:07.649Z</time></trkpt><trkpt lat="44.8108131" lon="9.2336673"><ele>615.0</ele><time>2026-05-03T14:09:08.636Z</time></trkpt><trkpt lat="44.810972" lon="9.2335004"><ele>615.6666666666666</ele><time>2026-05-03T14:09:09.636Z</time></trkpt><trkpt lat="44.811108" lon="9.2333336"><ele>616.3333333333333</ele><time>2026-05-03T14:09:10.641Z</time></trkpt><trkpt lat="44.8112589" lon="9.2332146"><ele>617.0</ele><time>2026-05-03T14:09:11.643Z</time></trkpt><trkpt lat="44.8113839" lon="9.2330974"><ele>617.0</ele><time>2026-05-03T14:09:12.654Z</time></trkpt><trkpt lat="44.8115103" lon="9.2329961"><ele>617.0</ele><time>2026-05-03T14:09:13.641Z</time></trkpt><trkpt lat="44.8116051" lon="9.2328727"><ele>617.0</ele><time>2026-05-03T14:09:14.638Z</time></trkpt><trkpt lat="44.8116739" lon="9.2327456"><ele>617.0</ele><time>2026-05-03T14:09:15.641Z</time></trkpt><trkpt lat="44.8116751" lon="9.2325802"><ele>617.0</ele><time>2026-05-03T14:09:16.641Z</time></trkpt><trkpt lat="44.811654" lon="9.2323836"><ele>617.0</ele><time>2026-05-03T14:09:17.648Z</time></trkpt><trkpt lat="44.8116122" lon="9.2322047"><ele>617.0</ele><time>2026-05-03T14:09:18.651Z</time></trkpt><trkpt lat="44.8116343" lon="9.232024"><ele>617.0</ele><time>2026-05-03T14:09:19.646Z</time></trkpt><trkpt lat="44.8117275" lon="9.231882"><ele>617.0</ele><time>2026-05-03T14:09:20.644Z</time></trkpt><trkpt lat="44.8118254" lon="9.2317364"><ele>617.0</ele><time>2026-05-03T14:09:21.642Z</time></trkpt><trkpt lat="44.8119213" lon="9.2315718"><ele>617.0</ele><time>2026-05-03T14:09:22.637Z</time></trkpt><trkpt lat="44.8119378" lon="9.2313643"><ele>617.0</ele><time>2026-05-03T14:09:23.64Z</time></trkpt><trkpt lat="44.8119153" lon="9.231193"><ele>617.0</ele><time>2026-05-03T14:09:24.654Z</time></trkpt><trkpt lat="44.8118788" lon="9.2309494"><ele>617.0</ele><time>2026-05-03T14:09:25.642Z</time></trkpt><trkpt lat="44.8118377" lon="9.2307545"><ele>617.0</ele><time>2026-05-03T14:09:26.644Z</time></trkpt><trkpt lat="44.8118799" lon="9.2305231"><ele>615.0</ele><time>2026-05-03T14:09:27.643Z</time></trkpt><trkpt lat="44.8119502" lon="9.2302803"><ele>613.0</ele><time>2026-05-03T14:09:28.642Z</time></trkpt><trkpt lat="44.8120204" lon="9.2300449"><ele>611.0</ele><time>2026-05-03T14:09:29.655Z</time></trkpt><trkpt lat="44.8121067" lon="9.2298286"><ele>609.3333333333333</ele><time>2026-05-03T14:09:30.643Z</time></trkpt><trkpt lat="44.8121842" lon="9.2296178"><ele>607.6666666666666</ele><time>2026-05-03T14:09:31.639Z</time></trkpt><trkpt lat="44.8122211" lon="9.2294145"><ele>606.0</ele><time>2026-05-03T14:09:32.639Z</time></trkpt><trkpt lat="44.8122489" lon="9.2291996"><ele>604.0</ele><time>2026-05-03T14:09:33.643Z</time></trkpt><trkpt lat="44.8122141" lon="9.2289452"><ele>602.0</ele><time>2026-05-03T14:09:34.658Z</time></trkpt><trkpt lat="44.812171" lon="9.2286916"><ele>600.0</ele><time>2026-05-03T14:09:35.645Z</time></trkpt><trkpt lat="44.8121308" lon="9.228449"><ele>600.0</ele><time>2026-05-03T14:09:36.647Z</time></trkpt><trkpt lat="44.8121074" lon="9.228217"><ele>600.0</ele><time>2026-05-03T14:09:37.645Z</time></trkpt><trkpt lat="44.8121494" lon="9.2279445"><ele>600.0</ele><time>2026-05-03T14:09:38.648Z</time></trkpt><trkpt lat="44.8122074" lon="9.2276911"><ele>598.3333333333334</ele><time>2026-05-03T14:09:39.655Z</time></trkpt><trkpt lat="44.8123496" lon="9.2274615"><ele>596.6666666666667</ele><time>2026-05-03T14:09:40.642Z</time></trkpt><trkpt lat="44.8124622" lon="9.2272724"><ele>595.0</ele><time>2026-05-03T14:09:41.646Z</time></trkpt><trkpt lat="44.8126318" lon="9.2271287"><ele>595.6666666666667</ele><time>2026-05-03T14:09:42.643Z</time></trkpt><trkpt lat="44.8127659" lon="9.2269544"><ele>596.3333333333334</ele><time>2026-05-03T14:09:43.649Z</time></trkpt><trkpt lat="44.8128853" lon="9.226752"><ele>597.0</ele><time>2026-05-03T14:09:44.655Z</time></trkpt><trkpt lat="44.8129829" lon="9.2265584"><ele>592.6666666666666</ele><time>2026-05-03T14:09:45.641Z</time></trkpt><trkpt lat="44.8130455" lon="9.2263584"><ele>588.3333333333333</ele><time>2026-05-03T14:09:46.641Z</time></trkpt><trkpt lat="44.8131373" lon="9.2261624"><ele>584.0</ele><time>2026-05-03T14:09:47.643Z</time></trkpt><trkpt lat="44.8132485" lon="9.2259911"><ele>584.0</ele><time>2026-05-03T14:09:48.639Z</time></trkpt><trkpt lat="44.8133903" lon="9.2259037"><ele>584.0</ele><time>2026-05-03T14:09:49.651Z</time></trkpt><trkpt lat="44.8135561" lon="9.2258722"><ele>584.0</ele><time>2026-05-03T14:09:50.636Z</time></trkpt><trkpt lat="44.8137476" lon="9.2258005"><ele>582.6666666666666</ele><time>2026-05-03T14:09:51.644Z</time></trkpt><trkpt lat="44.8138839" lon="9.2256944"><ele>581.3333333333334</ele><time>2026-05-03T14:09:52.646Z</time></trkpt><trkpt lat="44.8140129" lon="9.2255437"><ele>580.0</ele><time>2026-05-03T14:09:53.644Z</time></trkpt><trkpt lat="44.8141379" lon="9.2254304"><ele>580.0</ele><time>2026-05-03T14:09:54.654Z</time></trkpt><trkpt lat="44.814213" lon="9.2252046"><ele>580.0</ele><time>2026-05-03T14:09:55.641Z</time></trkpt><trkpt lat="44.814266" lon="9.2249486"><ele>580.0</ele><time>2026-05-03T14:09:56.646Z</time></trkpt><trkpt lat="44.8143052" lon="9.2246608"><ele>581.0</ele><time>2026-05-03T14:09:57.642Z</time></trkpt><trkpt lat="44.8143254" lon="9.2244603"><ele>582.0</ele><time>2026-05-03T14:09:58.644Z</time></trkpt><trkpt lat="44.8143937" lon="9.2242213"><ele>583.0</ele><time>2026-05-03T14:09:59.656Z</time></trkpt><trkpt lat="44.8144617" lon="9.2239416"><ele>578.6666666666667</ele><time>2026-05-03T14:10:00.65Z</time></trkpt><trkpt lat="44.8145291" lon="9.2237113"><ele>574.3333333333334</ele><time>2026-05-03T14:10:01.647Z</time></trkpt><trkpt lat="44.8145986" lon="9.2235048"><ele>570.0</ele><time>2026-05-03T14:10:02.647Z</time></trkpt><trkpt lat="44.814698" lon="9.2233385"><ele>570.0</ele><time>2026-05-03T14:10:03.646Z</time></trkpt><trkpt lat="44.8148141" lon="9.2232069"><ele>570.0</ele><time>2026-05-03T14:10:04.656Z</time></trkpt><trkpt lat="44.8149132" lon="9.2230681"><ele>570.0</ele><time>2026-05-03T14:10:05.645Z</time></trkpt><trkpt lat="44.8149642" lon="9.2229104"><ele>570.0</ele><time>2026-05-03T14:10:06.642Z</time></trkpt><trkpt lat="44.815075" lon="9.2227674"><ele>569.25</ele><time>2026-05-03T14:10:07.647Z</time></trkpt><trkpt lat="44.8151956" lon="9.2226497"><ele>568.5</ele><time>2026-05-03T14:10:08.642Z</time></trkpt><trkpt lat="44.8153168" lon="9.2225412"><ele>567.75</ele><time>2026-05-03T14:10:09.655Z</time></trkpt><trkpt lat="44.8153846" lon="9.2223601"><ele>567.0</ele><time>2026-05-03T14:10:10.64Z</time></trkpt><trkpt lat="44.8154477" lon="9.2221583"><ele>563.3333333333334</ele><time>2026-05-03T14:10:11.644Z</time></trkpt><trkpt lat="44.8154971" lon="9.2219045"><ele>559.6666666666667</ele><time>2026-05-03T14:10:12.641Z</time></trkpt><trkpt lat="44.8155598" lon="9.2216726"><ele>556.0</ele><time>2026-05-03T14:10:13.648Z</time></trkpt><trkpt lat="44.8156358" lon="9.221418"><ele>552.3333333333334</ele><time>2026-05-03T14:10:14.64Z</time></trkpt><trkpt lat="44.8157442" lon="9.2212129"><ele>548.6666666666666</ele><time>2026-05-03T14:10:15.627Z</time></trkpt><trkpt lat="44.8158481" lon="9.2210227"><ele>545.0</ele><time>2026-05-03T14:10:16.646Z</time></trkpt><trkpt lat="44.8159512" lon="9.220861"><ele>546.3333333333333</ele><time>2026-05-03T14:10:17.647Z</time></trkpt><trkpt lat="44.8160771" lon="9.2207064"><ele>547.6666666666666</ele><time>2026-05-03T14:10:18.643Z</time></trkpt><trkpt lat="44.81624" lon="9.2204974"><ele>549.0</ele><time>2026-05-03T14:10:19.661Z</time></trkpt><trkpt lat="44.8163661" lon="9.2202941"><ele>545.6666666666666</ele><time>2026-05-03T14:10:20.651Z</time></trkpt><trkpt lat="44.8164691" lon="9.2200849"><ele>542.3333333333333</ele><time>2026-05-03T14:10:21.643Z</time></trkpt><trkpt lat="44.8165634" lon="9.219929"><ele>539.0</ele><time>2026-05-03T14:10:22.647Z</time></trkpt><trkpt lat="44.8166829" lon="9.2197747"><ele>536.75</ele><time>2026-05-03T14:10:23.649Z</time></trkpt><trkpt lat="44.8168097" lon="9.2196741"><ele>534.5</ele><time>2026-05-03T14:10:24.661Z</time></trkpt><trkpt lat="44.8169457" lon="9.2195443"><ele>532.25</ele><time>2026-05-03T14:10:25.649Z</time></trkpt><trkpt lat="44.8170562" lon="9.2194266"><ele>530.0</ele><time>2026-05-03T14:10:26.646Z</time></trkpt><trkpt lat="44.8171478" lon="9.2193008"><ele>529.0</ele><time>2026-05-03T14:10:27.645Z</time></trkpt><trkpt lat="44.81724" lon="9.2191705"><ele>528.0</ele><time>2026-05-03T14:10:28.647Z</time></trkpt><trkpt lat="44.8173162" lon="9.2190292"><ele>527.0</ele><time>2026-05-03T14:10:29.654Z</time></trkpt><trkpt lat="44.8173529" lon="9.2189255"><ele>526.0</ele><time>2026-05-03T14:10:30.644Z</time></trkpt><trkpt lat="44.8173522" lon="9.218765"><ele>524.6</ele><time>2026-05-03T14:10:31.642Z</time></trkpt><trkpt lat="44.8172967" lon="9.2186484"><ele>523.2</ele><time>2026-05-03T14:10:32.644Z</time></trkpt><trkpt lat="44.8172474" lon="9.2185347"><ele>521.8</ele><time>2026-05-03T14:10:33.644Z</time></trkpt><trkpt lat="44.8171857" lon="9.2184433"><ele>520.4</ele><time>2026-05-03T14:10:34.657Z</time></trkpt><trkpt lat="44.8170953" lon="9.2184108"><ele>519.0</ele><time>2026-05-03T14:10:35.641Z</time></trkpt><trkpt lat="44.8169898" lon="9.218429"><ele>519.0</ele><time>2026-05-03T14:10:36.642Z</time></trkpt><trkpt lat="44.816886" lon="9.218492"><ele>519.0</ele><time>2026-05-03T14:10:37.64Z</time></trkpt><trkpt lat="44.8167484" lon="9.2186022"><ele>519.0</ele><time>2026-05-03T14:10:38.64Z</time></trkpt><trkpt lat="44.81662" lon="9.2187513"><ele>519.0</ele><time>2026-05-03T14:10:39.653Z</time></trkpt><trkpt lat="44.8164969" lon="9.2188901"><ele>518.6</ele><time>2026-05-03T14:10:40.643Z</time></trkpt><trkpt lat="44.8163955" lon="9.218928"><ele>518.2</ele><time>2026-05-03T14:10:41.643Z</time></trkpt><trkpt lat="44.8163003" lon="9.2189283"><ele>517.8000000000001</ele><time>2026-05-03T14:10:42.642Z</time></trkpt><trkpt lat="44.816236" lon="9.2188462"><ele>517.4</ele><time>2026-05-03T14:10:43.639Z</time></trkpt><trkpt lat="44.8162184" lon="9.2187116"><ele>517.0</ele><time>2026-05-03T14:10:44.642Z</time></trkpt><trkpt lat="44.8162539" lon="9.2185525"><ele>517.0</ele><time>2026-05-03T14:10:45.641Z</time></trkpt><trkpt lat="44.8163499" lon="9.2183685"><ele>517.0</ele><time>2026-05-03T14:10:46.647Z</time></trkpt><trkpt lat="44.8164903" lon="9.2181414"><ele>517.0</ele><time>2026-05-03T14:10:47.642Z</time></trkpt><trkpt lat="44.8166409" lon="9.2179104"><ele>513.6666666666667</ele><time>2026-05-03T14:10:48.638Z</time></trkpt><trkpt lat="44.8168225" lon="9.217706"><ele>510.33333333333337</ele><time>2026-05-03T14:10:49.643Z</time></trkpt><trkpt lat="44.8169717" lon="9.2175443"><ele>507.0</ele><time>2026-05-03T14:10:50.645Z</time></trkpt><trkpt lat="44.81712" lon="9.2173903"><ele>504.25</ele><time>2026-05-03T14:10:51.644Z</time></trkpt><trkpt lat="44.8172736" lon="9.2172812"><ele>501.5</ele><time>2026-05-03T14:10:52.642Z</time></trkpt><trkpt lat="44.8174133" lon="9.2172078"><ele>498.75</ele><time>2026-05-03T14:10:53.641Z</time></trkpt><trkpt lat="44.8175329" lon="9.2171895"><ele>496.0</ele><time>2026-05-03T14:10:54.64Z</time></trkpt><trkpt lat="44.8176433" lon="9.2171764"><ele>497.0</ele><time>2026-05-03T14:10:55.644Z</time></trkpt><trkpt lat="44.8177369" lon="9.2172159"><ele>498.0</ele><time>2026-05-03T14:10:56.642Z</time></trkpt><trkpt lat="44.8178152" lon="9.2172806"><ele>499.0</ele><time>2026-05-03T14:10:57.64Z</time></trkpt><trkpt lat="44.8178856" lon="9.2173875"><ele>500.0</ele><time>2026-05-03T14:10:58.64Z</time></trkpt><trkpt lat="44.8179555" lon="9.2175256"><ele>501.0</ele><time>2026-05-03T14:10:59.641Z</time></trkpt><trkpt lat="44.8180228" lon="9.2176263"><ele>501.0</ele><time>2026-05-03T14:11:00.641Z</time></trkpt><trkpt lat="44.8180608" lon="9.2177326"><ele>501.0</ele><time>2026-05-03T14:11:01.634Z</time></trkpt><trkpt lat="44.8180944" lon="9.2178268"><ele>501.0</ele><time>2026-05-03T14:11:02.636Z</time></trkpt><trkpt lat="44.8181281" lon="9.2179233"><ele>501.0</ele><time>2026-05-03T14:11:03.637Z</time></trkpt><trkpt lat="44.8181768" lon="9.2180054"><ele>501.0</ele><time>2026-05-03T14:11:04.637Z</time></trkpt><trkpt lat="44.8182373" lon="9.2180451"><ele>501.0</ele><time>2026-05-03T14:11:05.642Z</time></trkpt><trkpt lat="44.8183101" lon="9.2180531"><ele>501.0</ele><time>2026-05-03T14:11:06.641Z</time></trkpt><trkpt lat="44.8184013" lon="9.2180118"><ele>501.0</ele><time>2026-05-03T14:11:07.641Z</time></trkpt><trkpt lat="44.818498" lon="9.2179334"><ele>501.0</ele><time>2026-05-03T14:11:08.637Z</time></trkpt><trkpt lat="44.8185437" lon="9.2178163"><ele>501.0</ele><time>2026-05-03T14:11:09.634Z</time></trkpt><trkpt lat="44.8185543" lon="9.2176698"><ele>501.0</ele><time>2026-05-03T14:11:10.629Z</time></trkpt><trkpt lat="44.8185339" lon="9.2175323"><ele>501.0</ele><time>2026-05-03T14:11:11.631Z</time></trkpt><trkpt lat="44.8184835" lon="9.2173703"><ele>501.0</ele><time>2026-05-03T14:11:12.636Z</time></trkpt><trkpt lat="44.8184113" lon="9.2172258"><ele>501.0</ele><time>2026-05-03T14:11:13.635Z</time></trkpt><trkpt lat="44.8183182" lon="9.2171498"><ele>501.0</ele><time>2026-05-03T14:11:14.637Z</time></trkpt><trkpt lat="44.8182123" lon="9.2170747"><ele>498.0</ele><time>2026-05-03T14:11:15.642Z</time></trkpt><trkpt lat="44.8180977" lon="9.2169722"><ele>495.0</ele><time>2026-05-03T14:11:16.638Z</time></trkpt><trkpt lat="44.817997" lon="9.2168506"><ele>492.0</ele><time>2026-05-03T14:11:17.64Z</time></trkpt><trkpt lat="44.8179125" lon="9.2167033"><ele>489.0</ele><time>2026-05-03T14:11:18.64Z</time></trkpt><trkpt lat="44.8178623" lon="9.2165455"><ele>486.79999999999995</ele><time>2026-05-03T14:11:19.639Z</time></trkpt><trkpt lat="44.8178279" lon="9.2163912"><ele>484.59999999999997</ele><time>2026-05-03T14:11:20.639Z</time></trkpt><trkpt lat="44.8178226" lon="9.2162349"><ele>482.4</ele><time>2026-05-03T14:11:21.639Z</time></trkpt><trkpt lat="44.8178224" lon="9.2160788"><ele>480.2</ele><time>2026-05-03T14:11:22.633Z</time></trkpt><trkpt lat="44.8178405" lon="9.2159347"><ele>478.0</ele><time>2026-05-03T14:11:23.635Z</time></trkpt><trkpt lat="44.8178273" lon="9.2157991"><ele>478.0</ele><time>2026-05-03T14:11:24.635Z</time></trkpt><trkpt lat="44.8177908" lon="9.215674"><ele>477.99999999999994</ele><time>2026-05-03T14:11:25.636Z</time></trkpt><trkpt lat="44.817745" lon="9.2155523"><ele>477.99999999999994</ele><time>2026-05-03T14:11:26.637Z</time></trkpt><trkpt lat="44.8176765" lon="9.2154481"><ele>478.0</ele><time>2026-05-03T14:11:27.641Z</time></trkpt><trkpt lat="44.8176057" lon="9.2153528"><ele>478.0</ele><time>2026-05-03T14:11:28.642Z</time></trkpt><trkpt lat="44.8175352" lon="9.2152652"><ele>477.50000000000006</ele><time>2026-05-03T14:11:29.64Z</time></trkpt><trkpt lat="44.8174663" lon="9.2151931"><ele>477.0</ele><time>2026-05-03T14:11:30.649Z</time></trkpt><trkpt lat="44.8173998" lon="9.2151218"><ele>476.5</ele><time>2026-05-03T14:11:31.644Z</time></trkpt><trkpt lat="44.8173349" lon="9.215055"><ele>476.0</ele><time>2026-05-03T14:11:32.642Z</time></trkpt><trkpt lat="44.8172643" lon="9.2150227"><ele>475.50000000000006</ele><time>2026-05-03T14:11:33.643Z</time></trkpt><trkpt lat="44.8171946" lon="9.2150195"><ele>475.0</ele><time>2026-05-03T14:11:34.642Z</time></trkpt><trkpt lat="44.8171256" lon="9.2150416"><ele>475.0</ele><time>2026-05-03T14:11:35.638Z</time></trkpt><trkpt lat="44.8170659" lon="9.2150769"><ele>475.00000000000006</ele><time>2026-05-03T14:11:36.64Z</time></trkpt><trkpt lat="44.8169979" lon="9.2150941"><ele>475.0</ele><time>2026-05-03T14:11:37.64Z</time></trkpt><trkpt lat="44.8169302" lon="9.2150934"><ele>475.0</ele><time>2026-05-03T14:11:38.642Z</time></trkpt><trkpt lat="44.8168638" lon="9.2150534"><ele>475.00000000000006</ele><time>2026-05-03T14:11:39.643Z</time></trkpt><trkpt lat="44.8168159" lon="9.214978"><ele>475.0</ele><time>2026-05-03T14:11:40.639Z</time></trkpt><trkpt lat="44.8167928" lon="9.2148862"><ele>475.0</ele><time>2026-05-03T14:11:41.64Z</time></trkpt><trkpt lat="44.8167816" lon="9.2147814"><ele>472.6</ele><time>2026-05-03T14:11:42.642Z</time></trkpt><trkpt lat="44.8168383" lon="9.2146794"><ele>470.2</ele><time>2026-05-03T14:11:43.637Z</time></trkpt><trkpt lat="44.8169333" lon="9.2146112"><ele>467.79999999999995</ele><time>2026-05-03T14:11:44.638Z</time></trkpt><trkpt lat="44.8170429" lon="9.2145789"><ele>465.4</ele><time>2026-05-03T14:11:45.64Z</time></trkpt><trkpt lat="44.8171586" lon="9.2145392"><ele>463.0</ele><time>2026-05-03T14:11:46.64Z</time></trkpt><trkpt lat="44.8172673" lon="9.2145"><ele>463.0</ele><time>2026-05-03T14:11:47.646Z</time></trkpt><trkpt lat="44.8173762" lon="9.2144588"><ele>463.0</ele><time>2026-05-03T14:11:48.643Z</time></trkpt><trkpt lat="44.81749" lon="9.2144177"><ele>463.0</ele><time>2026-05-03T14:11:49.64Z</time></trkpt><trkpt lat="44.8176173" lon="9.2144099"><ele>463.0</ele><time>2026-05-03T14:11:50.642Z</time></trkpt><trkpt lat="44.8177537" lon="9.214444"><ele>461.33333333333337</ele><time>2026-05-03T14:11:51.642Z</time></trkpt><trkpt lat="44.8179055" lon="9.2145254"><ele>459.66666666666663</ele><time>2026-05-03T14:11:52.64Z</time></trkpt><trkpt lat="44.8180586" lon="9.2146619"><ele>458.0</ele><time>2026-05-03T14:11:53.645Z</time></trkpt><trkpt lat="44.8182031" lon="9.214735"><ele>458.0</ele><time>2026-05-03T14:11:54.639Z</time></trkpt><trkpt lat="44.8183256" lon="9.2148159"><ele>457.99999999999994</ele><time>2026-05-03T14:11:55.643Z</time></trkpt><trkpt lat="44.8184143" lon="9.2148333"><ele>457.99999999999994</ele><time>2026-05-03T14:11:56.637Z</time></trkpt><trkpt lat="44.818492" lon="9.2148371"><ele>458.0</ele><time>2026-05-03T14:11:57.634Z</time></trkpt><trkpt lat="44.8185698" lon="9.2148383"><ele>458.0</ele><time>2026-05-03T14:11:58.632Z</time></trkpt><trkpt lat="44.8186588" lon="9.214814"><ele>457.16666666666663</ele><time>2026-05-03T14:11:59.635Z</time></trkpt><trkpt lat="44.8187477" lon="9.2147714"><ele>456.3333333333333</ele><time>2026-05-03T14:12:00.638Z</time></trkpt><trkpt lat="44.8188236" lon="9.2147158"><ele>455.5</ele><time>2026-05-03T14:12:01.635Z</time></trkpt><trkpt lat="44.8188936" lon="9.2146468"><ele>454.66666666666663</ele><time>2026-05-03T14:12:02.637Z</time></trkpt><trkpt lat="44.8189442" lon="9.2145624"><ele>453.8333333333333</ele><time>2026-05-03T14:12:03.643Z</time></trkpt><trkpt lat="44.818967" lon="9.2144718"><ele>453.0</ele><time>2026-05-03T14:12:04.643Z</time></trkpt><trkpt lat="44.8189815" lon="9.2143663"><ele>453.0</ele><time>2026-05-03T14:12:05.644Z</time></trkpt><trkpt lat="44.8189871" lon="9.2142435"><ele>453.0</ele><time>2026-05-03T14:12:06.643Z</time></trkpt><trkpt lat="44.8189751" lon="9.2141038"><ele>453.0</ele><time>2026-05-03T14:12:07.647Z</time></trkpt><trkpt lat="44.8189623" lon="9.2139682"><ele>453.0</ele><time>2026-05-03T14:12:08.65Z</time></trkpt><trkpt lat="44.8189561" lon="9.2138519"><ele>453.0</ele><time>2026-05-03T14:12:09.647Z</time></trkpt><trkpt lat="44.8189558" lon="9.213738"><ele>453.0</ele><time>2026-05-03T14:12:10.64Z</time></trkpt><trkpt lat="44.8189892" lon="9.2136155"><ele>452.2</ele><time>2026-05-03T14:12:11.638Z</time></trkpt><trkpt lat="44.8190359" lon="9.2135085"><ele>451.4</ele><time>2026-05-03T14:12:12.64Z</time></trkpt><trkpt lat="44.8190895" lon="9.2134081"><ele>450.59999999999997</ele><time>2026-05-03T14:12:13.645Z</time></trkpt><trkpt lat="44.8191721" lon="9.2133156"><ele>449.79999999999995</ele><time>2026-05-03T14:12:14.641Z</time></trkpt><trkpt lat="44.819272" lon="9.2132351"><ele>449.0</ele><time>2026-05-03T14:12:15.645Z</time></trkpt><trkpt lat="44.8193896" lon="9.2131617"><ele>450.79999999999995</ele><time>2026-05-03T14:12:16.648Z</time></trkpt><trkpt lat="44.8195032" lon="9.2130723"><ele>452.59999999999997</ele><time>2026-05-03T14:12:17.647Z</time></trkpt><trkpt lat="44.8196042" lon="9.2129964"><ele>454.4</ele><time>2026-05-03T14:12:18.649Z</time></trkpt><trkpt lat="44.819671" lon="9.2129256"><ele>456.2</ele><time>2026-05-03T14:12:19.649Z</time></trkpt><trkpt lat="44.819699" lon="9.2128221"><ele>458.0</ele><time>2026-05-03T14:12:20.641Z</time></trkpt><trkpt lat="44.8197301" lon="9.2127017"><ele>458.0</ele><time>2026-05-03T14:12:21.638Z</time></trkpt><trkpt lat="44.8197525" lon="9.2125157"><ele>458.0</ele><time>2026-05-03T14:12:22.639Z</time></trkpt><trkpt lat="44.8197577" lon="9.2123433"><ele>458.0</ele><time>2026-05-03T14:12:23.646Z</time></trkpt><trkpt lat="44.8197157" lon="9.2121233"><ele>458.0</ele><time>2026-05-03T14:12:24.643Z</time></trkpt><trkpt lat="44.8196382" lon="9.2118901"><ele>460.0</ele><time>2026-05-03T14:12:25.639Z</time></trkpt><trkpt lat="44.8195195" lon="9.2116638"><ele>462.0</ele><time>2026-05-03T14:12:26.639Z</time></trkpt><trkpt lat="44.8194028" lon="9.2114219"><ele>464.0</ele><time>2026-05-03T14:12:27.639Z</time></trkpt><trkpt lat="44.8193279" lon="9.2111779"><ele>457.0</ele><time>2026-05-03T14:12:28.646Z</time></trkpt><trkpt lat="44.8192783" lon="9.2109421"><ele>450.0</ele><time>2026-05-03T14:12:29.644Z</time></trkpt><trkpt lat="44.8192352" lon="9.2107438"><ele>443.0</ele><time>2026-05-03T14:12:30.643Z</time></trkpt><trkpt lat="44.8191942" lon="9.2105478"><ele>443.0</ele><time>2026-05-03T14:12:31.64Z</time></trkpt><trkpt lat="44.8191293" lon="9.210362"><ele>443.0</ele><time>2026-05-03T14:12:32.638Z</time></trkpt><trkpt lat="44.8190882" lon="9.2101782"><ele>443.0</ele><time>2026-05-03T14:12:33.639Z</time></trkpt><trkpt lat="44.8190584" lon="9.2099954"><ele>443.0</ele><time>2026-05-03T14:12:34.644Z</time></trkpt><trkpt lat="44.8190318" lon="9.209813"><ele>442.2</ele><time>2026-05-03T14:12:35.644Z</time></trkpt><trkpt lat="44.819007" lon="9.2096425"><ele>441.4</ele><time>2026-05-03T14:12:36.646Z</time></trkpt><trkpt lat="44.8189735" lon="9.2095174"><ele>440.59999999999997</ele><time>2026-05-03T14:12:37.64Z</time></trkpt><trkpt lat="44.8189851" lon="9.20939"><ele>439.79999999999995</ele><time>2026-05-03T14:12:38.639Z</time></trkpt><trkpt lat="44.8190411" lon="9.2092334"><ele>439.0</ele><time>2026-05-03T14:12:39.636Z</time></trkpt><trkpt lat="44.8190714" lon="9.209051"><ele>439.25</ele><time>2026-05-03T14:12:40.636Z</time></trkpt><trkpt lat="44.819126" lon="9.2089157"><ele>439.5</ele><time>2026-05-03T14:12:41.637Z</time></trkpt><trkpt lat="44.8192319" lon="9.2087611"><ele>439.75</ele><time>2026-05-03T14:12:42.641Z</time></trkpt><trkpt lat="44.8193135" lon="9.2086843"><ele>440.0</ele><time>2026-05-03T14:12:43.64Z</time></trkpt><trkpt lat="44.8194089" lon="9.2085821"><ele>440.0</ele><time>2026-05-03T14:12:44.64Z</time></trkpt><trkpt lat="44.8195016" lon="9.2084628"><ele>440.0</ele><time>2026-05-03T14:12:45.638Z</time></trkpt><trkpt lat="44.819591" lon="9.2083383"><ele>440.0</ele><time>2026-05-03T14:12:46.637Z</time></trkpt><trkpt lat="44.8196795" lon="9.208212"><ele>440.0</ele><time>2026-05-03T14:12:47.639Z</time></trkpt><trkpt lat="44.8197599" lon="9.2081211"><ele>440.6</ele><time>2026-05-03T14:12:48.64Z</time></trkpt><trkpt lat="44.8198429" lon="9.2080265"><ele>441.2</ele><time>2026-05-03T14:12:49.646Z</time></trkpt><trkpt lat="44.8199216" lon="9.2079253"><ele>441.79999999999995</ele><time>2026-05-03T14:12:50.642Z</time></trkpt><trkpt lat="44.8200014" lon="9.2078153"><ele>442.4</ele><time>2026-05-03T14:12:51.642Z</time></trkpt><trkpt lat="44.8200876" lon="9.2076986"><ele>443.0</ele><time>2026-05-03T14:12:52.644Z</time></trkpt><trkpt lat="44.820179" lon="9.2075725"><ele>443.0</ele><time>2026-05-03T14:12:53.646Z</time></trkpt><trkpt lat="44.8202679" lon="9.2074516"><ele>443.0</ele><time>2026-05-03T14:12:54.642Z</time></trkpt><trkpt lat="44.8203554" lon="9.2073211"><ele>443.0</ele><time>2026-05-03T14:12:55.642Z</time></trkpt><trkpt lat="44.8204471" lon="9.2071775"><ele>443.0</ele><time>2026-05-03T14:12:56.638Z</time></trkpt><trkpt lat="44.8205368" lon="9.2070274"><ele>440.25</ele><time>2026-05-03T14:12:57.64Z</time></trkpt><trkpt lat="44.8206175" lon="9.206887"><ele>437.5</ele><time>2026-05-03T14:12:58.641Z</time></trkpt><trkpt lat="44.8207025" lon="9.2067705"><ele>434.75</ele><time>2026-05-03T14:12:59.639Z</time></trkpt><trkpt lat="44.8207807" lon="9.2066712"><ele>432.0</ele><time>2026-05-03T14:13:00.642Z</time></trkpt><trkpt lat="44.8208696" lon="9.2065466"><ele>432.0</ele><time>2026-05-03T14:13:01.64Z</time></trkpt><trkpt lat="44.8209517" lon="9.2064385"><ele>432.0</ele><time>2026-05-03T14:13:02.64Z</time></trkpt><trkpt lat="44.8210405" lon="9.206337"><ele>432.0</ele><time>2026-05-03T14:13:03.647Z</time></trkpt><trkpt lat="44.8211217" lon="9.206224"><ele>432.0</ele><time>2026-05-03T14:13:04.644Z</time></trkpt><trkpt lat="44.8212128" lon="9.2060878"><ele>432.0</ele><time>2026-05-03T14:13:05.643Z</time></trkpt><trkpt lat="44.8213032" lon="9.2059589"><ele>432.0</ele><time>2026-05-03T14:13:06.647Z</time></trkpt><trkpt lat="44.8213798" lon="9.2058412"><ele>432.0</ele><time>2026-05-03T14:13:07.644Z</time></trkpt><trkpt lat="44.821458" lon="9.2057156"><ele>432.0</ele><time>2026-05-03T14:13:08.641Z</time></trkpt><trkpt lat="44.8215341" lon="9.2056115"><ele>431.20000000000005</ele><time>2026-05-03T14:13:09.646Z</time></trkpt><trkpt lat="44.821611" lon="9.2055069"><ele>430.40000000000003</ele><time>2026-05-03T14:13:10.641Z</time></trkpt><trkpt lat="44.8216872" lon="9.2054073"><ele>429.59999999999997</ele><time>2026-05-03T14:13:11.642Z</time></trkpt><trkpt lat="44.8217512" lon="9.2052828"><ele>428.79999999999995</ele><time>2026-05-03T14:13:12.641Z</time></trkpt><trkpt lat="44.8218102" lon="9.2051545"><ele>428.0</ele><time>2026-05-03T14:13:13.635Z</time></trkpt><trkpt lat="44.8218605" lon="9.2050097"><ele>428.59999999999997</ele><time>2026-05-03T14:13:14.642Z</time></trkpt><trkpt lat="44.8219153" lon="9.2048713"><ele>429.19999999999993</ele><time>2026-05-03T14:13:15.642Z</time></trkpt><trkpt lat="44.821958" lon="9.2047356"><ele>429.8</ele><time>2026-05-03T14:13:16.642Z</time></trkpt><trkpt lat="44.82199" lon="9.2045772"><ele>430.4</ele><time>2026-05-03T14:13:17.642Z</time></trkpt><trkpt lat="44.822026" lon="9.2044289"><ele>431.0</ele><time>2026-05-03T14:13:18.641Z</time></trkpt><trkpt lat="44.8220615" lon="9.2042848"><ele>431.0</ele><time>2026-05-03T14:13:19.644Z</time></trkpt><trkpt lat="44.8220923" lon="9.204141"><ele>431.0</ele><time>2026-05-03T14:13:20.64Z</time></trkpt><trkpt lat="44.8221193" lon="9.2040036"><ele>431.0</ele><time>2026-05-03T14:13:21.642Z</time></trkpt><trkpt lat="44.8221512" lon="9.2038457"><ele>431.0</ele><time>2026-05-03T14:13:22.64Z</time></trkpt><trkpt lat="44.8221827" lon="9.2036932"><ele>431.0</ele><time>2026-05-03T14:13:23.643Z</time></trkpt><trkpt lat="44.8222254" lon="9.2035416"><ele>429.4</ele><time>2026-05-03T14:13:24.64Z</time></trkpt><trkpt lat="44.822274" lon="9.2033939"><ele>427.8</ele><time>2026-05-03T14:13:25.64Z</time></trkpt><trkpt lat="44.8223243" lon="9.2032554"><ele>426.2</ele><time>2026-05-03T14:13:26.635Z</time></trkpt><trkpt lat="44.8223672" lon="9.2031126"><ele>424.59999999999997</ele><time>2026-05-03T14:13:27.637Z</time></trkpt><trkpt lat="44.8224064" lon="9.2029699"><ele>423.0</ele><time>2026-05-03T14:13:28.638Z</time></trkpt><trkpt lat="44.822449" lon="9.2028274"><ele>423.0</ele><time>2026-05-03T14:13:29.639Z</time></trkpt><trkpt lat="44.8224921" lon="9.2026685"><ele>423.0</ele><time>2026-05-03T14:13:30.639Z</time></trkpt><trkpt lat="44.8225415" lon="9.2025175"><ele>423.0</ele><time>2026-05-03T14:13:31.635Z</time></trkpt><trkpt lat="44.8225916" lon="9.2023992"><ele>423.0</ele><time>2026-05-03T14:13:32.637Z</time></trkpt><trkpt lat="44.8226536" lon="9.2022979"><ele>423.0</ele><time>2026-05-03T14:13:33.641Z</time></trkpt><trkpt lat="44.8227237" lon="9.2022011"><ele>422.79999999999995</ele><time>2026-05-03T14:13:34.638Z</time></trkpt><trkpt lat="44.822788" lon="9.2021024"><ele>422.6</ele><time>2026-05-03T14:13:35.637Z</time></trkpt><trkpt lat="44.822826" lon="9.2019807"><ele>422.4</ele><time>2026-05-03T14:13:36.638Z</time></trkpt><trkpt lat="44.8228656" lon="9.2018622"><ele>422.20000000000005</ele><time>2026-05-03T14:13:37.637Z</time></trkpt><trkpt lat="44.8229038" lon="9.2017276"><ele>422.0</ele><time>2026-05-03T14:13:38.636Z</time></trkpt><trkpt lat="44.8229447" lon="9.2015915"><ele>421.49999999999994</ele><time>2026-05-03T14:13:39.635Z</time></trkpt><trkpt lat="44.8229806" lon="9.2014627"><ele>421.0</ele><time>2026-05-03T14:13:40.63Z</time></trkpt><trkpt lat="44.8230099" lon="9.2013385"><ele>420.5</ele><time>2026-05-03T14:13:41.631Z</time></trkpt><trkpt lat="44.8230275" lon="9.2012182"><ele>420.0</ele><time>2026-05-03T14:13:42.623Z</time></trkpt><trkpt lat="44.823039" lon="9.2011034"><ele>419.49999999999994</ele><time>2026-05-03T14:13:43.619Z</time></trkpt><trkpt lat="44.8230588" lon="9.2010009"><ele>419.0</ele><time>2026-05-03T14:13:44.63Z</time></trkpt><trkpt lat="44.8230838" lon="9.2009169"><ele>419.0</ele><time>2026-05-03T14:13:45.63Z</time></trkpt><trkpt lat="44.823023" lon="9.2007102"><ele>419.0</ele><time>2026-05-03T14:13:55.63Z</time></trkpt><trkpt lat="44.8229297" lon="9.2006775"><ele>419.0</ele><time>2026-05-03T14:13:56.628Z</time></trkpt><trkpt lat="44.8227899" lon="9.2006048"><ele>419.0</ele><time>2026-05-03T14:13:57.631Z</time></trkpt><trkpt lat="44.8226602" lon="9.2005248"><ele>418.0</ele><time>2026-05-03T14:13:58.643Z</time></trkpt><trkpt lat="44.8225812" lon="9.2004681"><ele>417.0</ele><time>2026-05-03T14:13:59.644Z</time></trkpt><trkpt lat="44.8224797" lon="9.2003838"><ele>416.0</ele><time>2026-05-03T14:14:00.641Z</time></trkpt><trkpt lat="44.8223597" lon="9.2003251"><ele>415.0</ele><time>2026-05-03T14:14:01.638Z</time></trkpt><trkpt lat="44.8222563" lon="9.2002742"><ele>414.0</ele><time>2026-05-03T14:14:02.636Z</time></trkpt><trkpt lat="44.8221661" lon="9.2002195"><ele>414.0</ele><time>2026-05-03T14:14:03.639Z</time></trkpt><trkpt lat="44.8220542" lon="9.20016"><ele>414.0</ele><time>2026-05-03T14:14:04.634Z</time></trkpt><trkpt lat="44.8219531" lon="9.200086"><ele>414.0</ele><time>2026-05-03T14:14:05.634Z</time></trkpt><trkpt lat="44.8218508" lon="9.1999969"><ele>414.0</ele><time>2026-05-03T14:14:06.635Z</time></trkpt><trkpt lat="44.8217569" lon="9.1998857"><ele>412.4</ele><time>2026-05-03T14:14:07.64Z</time></trkpt><trkpt lat="44.8216781" lon="9.1997785"><ele>410.79999999999995</ele><time>2026-05-03T14:14:08.639Z</time></trkpt><trkpt lat="44.8216308" lon="9.1996535"><ele>409.20000000000005</ele><time>2026-05-03T14:14:09.635Z</time></trkpt><trkpt lat="44.8216098" lon="9.1995221"><ele>407.6</ele><time>2026-05-03T14:14:10.635Z</time></trkpt><trkpt lat="44.8216158" lon="9.1994047"><ele>406.0</ele><time>2026-05-03T14:14:11.635Z</time></trkpt><trkpt lat="44.82163" lon="9.1993008"><ele>406.0</ele><time>2026-05-03T14:14:12.633Z</time></trkpt><trkpt lat="44.8216857" lon="9.1990263"><ele>406.0</ele><time>2026-05-03T14:14:18.638Z</time></trkpt><trkpt lat="44.8217096" lon="9.1989208"><ele>406.0</ele><time>2026-05-03T14:14:19.636Z</time></trkpt><trkpt lat="44.8217196" lon="9.1988163"><ele>406.0</ele><time>2026-05-03T14:14:20.635Z</time></trkpt><trkpt lat="44.8217342" lon="9.1987101"><ele>406.0</ele><time>2026-05-03T14:14:21.634Z</time></trkpt><trkpt lat="44.8217642" lon="9.1985896"><ele>405.6666666666667</ele><time>2026-05-03T14:14:22.631Z</time></trkpt><trkpt lat="44.8217925" lon="9.1984655"><ele>405.33333333333337</ele><time>2026-05-03T14:14:23.636Z</time></trkpt><trkpt lat="44.821825" lon="9.1983339"><ele>405.0</ele><time>2026-05-03T14:14:24.639Z</time></trkpt><trkpt lat="44.8218357" lon="9.1982198"><ele>404.66666666666663</ele><time>2026-05-03T14:14:25.637Z</time></trkpt><trkpt lat="44.8218411" lon="9.1981221"><ele>404.3333333333333</ele><time>2026-05-03T14:14:26.635Z</time></trkpt><trkpt lat="44.8218588" lon="9.1979841"><ele>404.0</ele><time>2026-05-03T14:14:28.639Z</time></trkpt><trkpt lat="44.8218698" lon="9.1978435"><ele>404.75</ele><time>2026-05-03T14:14:40.635Z</time></trkpt><trkpt lat="44.8218838" lon="9.1976959"><ele>405.5</ele><time>2026-05-03T14:14:41.634Z</time></trkpt><trkpt lat="44.821924" lon="9.1975216"><ele>406.25</ele><time>2026-05-03T14:14:42.634Z</time></trkpt><trkpt lat="44.8219527" lon="9.1973086"><ele>407.0</ele><time>2026-05-03T14:14:43.634Z</time></trkpt><trkpt lat="44.8220019" lon="9.1970874"><ele>407.0</ele><time>2026-05-03T14:14:44.632Z</time></trkpt><trkpt lat="44.8220342" lon="9.1969556"><ele>407.0</ele><time>2026-05-03T14:14:45.635Z</time></trkpt><trkpt lat="44.8220567" lon="9.196764"><ele>407.0</ele><time>2026-05-03T14:14:46.64Z</time></trkpt><trkpt lat="44.8220661" lon="9.196579"><ele>407.0</ele><time>2026-05-03T14:14:47.635Z</time></trkpt><trkpt lat="44.8220879" lon="9.1963919"><ele>406.75</ele><time>2026-05-03T14:14:48.64Z</time></trkpt><trkpt lat="44.8221212" lon="9.1962174"><ele>406.5</ele><time>2026-05-03T14:14:49.639Z</time></trkpt><trkpt lat="44.8221488" lon="9.1960393"><ele>406.25</ele><time>2026-05-03T14:14:50.637Z</time></trkpt><trkpt lat="44.8221633" lon="9.1958454"><ele>406.0</ele><time>2026-05-03T14:14:51.638Z</time></trkpt><trkpt lat="44.8221938" lon="9.1955862"><ele>405.0</ele><time>2026-05-03T14:14:52.642Z</time></trkpt><trkpt lat="44.8222035" lon="9.1953323"><ele>404.0</ele><time>2026-05-03T14:14:53.638Z</time></trkpt><trkpt lat="44.8222415" lon="9.1951136"><ele>403.0</ele><time>2026-05-03T14:14:54.638Z</time></trkpt><trkpt lat="44.8222927" lon="9.1948909"><ele>402.33333333333337</ele><time>2026-05-03T14:14:55.64Z</time></trkpt><trkpt lat="44.8222872" lon="9.1946805"><ele>401.66666666666663</ele><time>2026-05-03T14:14:56.64Z</time></trkpt><trkpt lat="44.82231" lon="9.1944361"><ele>401.0</ele><time>2026-05-03T14:14:57.641Z</time></trkpt><trkpt lat="44.8223181" lon="9.1942408"><ele>401.0</ele><time>2026-05-03T14:14:58.643Z</time></trkpt><trkpt lat="44.8223431" lon="9.1940264"><ele>401.0</ele><time>2026-05-03T14:14:59.642Z</time></trkpt><trkpt lat="44.8223243" lon="9.1938184"><ele>401.0</ele><time>2026-05-03T14:15:00.63Z</time></trkpt><trkpt lat="44.8223636" lon="9.1937305"><ele>401.0</ele><time>2026-05-03T14:15:01.631Z</time></trkpt><trkpt lat="44.8224576" lon="9.1936372"><ele>400.75</ele><time>2026-05-03T14:15:02.63Z</time></trkpt><trkpt lat="44.8226471" lon="9.1937021"><ele>400.5</ele><time>2026-05-03T14:15:04.634Z</time></trkpt><trkpt lat="44.8227646" lon="9.1937531"><ele>400.25</ele><time>2026-05-03T14:15:05.63Z</time></trkpt><trkpt lat="44.8228748" lon="9.1937965"><ele>400.0</ele><time>2026-05-03T14:15:06.628Z</time></trkpt><trkpt lat="44.8229624" lon="9.1938338"><ele>401.2</ele><time>2026-05-03T14:15:07.63Z</time></trkpt><trkpt lat="44.8230408" lon="9.1939017"><ele>402.4</ele><time>2026-05-03T14:15:08.633Z</time></trkpt><trkpt lat="44.8231001" lon="9.1939574"><ele>403.6</ele><time>2026-05-03T14:15:09.635Z</time></trkpt><trkpt lat="44.8231777" lon="9.1937748"><ele>404.8</ele><time>2026-05-03T14:15:33.632Z</time></trkpt><trkpt lat="44.8231933" lon="9.1936797"><ele>406.0</ele><time>2026-05-03T14:15:34.628Z</time></trkpt><trkpt lat="44.8232105" lon="9.1935425"><ele>406.0</ele><time>2026-05-03T14:15:35.627Z</time></trkpt><trkpt lat="44.8232248" lon="9.1933823"><ele>406.0</ele><time>2026-05-03T14:15:36.628Z</time></trkpt><trkpt lat="44.8232252" lon="9.1932206"><ele>406.0</ele><time>2026-05-03T14:15:37.63Z</time></trkpt><trkpt lat="44.8232238" lon="9.1930367"><ele>406.0</ele><time>2026-05-03T14:15:38.63Z</time></trkpt><trkpt lat="44.8232296" lon="9.1928679"><ele>405.6</ele><time>2026-05-03T14:15:39.629Z</time></trkpt><trkpt lat="44.8232564" lon="9.1927142"><ele>405.20000000000005</ele><time>2026-05-03T14:15:40.608Z</time></trkpt><trkpt lat="44.8233087" lon="9.1925658"><ele>404.79999999999995</ele><time>2026-05-03T14:15:41.617Z</time></trkpt><trkpt lat="44.8233707" lon="9.1924303"><ele>404.4</ele><time>2026-05-03T14:15:42.627Z</time></trkpt><trkpt lat="44.8234157" lon="9.1922996"><ele>404.0</ele><time>2026-05-03T14:15:43.628Z</time></trkpt><trkpt lat="44.8234471" lon="9.192166"><ele>404.2</ele><time>2026-05-03T14:15:44.626Z</time></trkpt><trkpt lat="44.8234759" lon="9.1920304"><ele>404.4</ele><time>2026-05-03T14:15:45.627Z</time></trkpt><trkpt lat="44.8235067" lon="9.1919086"><ele>404.6</ele><time>2026-05-03T14:15:46.627Z</time></trkpt><trkpt lat="44.8235315" lon="9.1917925"><ele>404.8</ele><time>2026-05-03T14:15:47.625Z</time></trkpt><trkpt lat="44.8235399" lon="9.1916557"><ele>405.0</ele><time>2026-05-03T14:15:48.63Z</time></trkpt><trkpt lat="44.823562" lon="9.1915362"><ele>404.6</ele><time>2026-05-03T14:15:49.632Z</time></trkpt><trkpt lat="44.8235893" lon="9.1914201"><ele>404.2</ele><time>2026-05-03T14:15:50.629Z</time></trkpt><trkpt lat="44.8236183" lon="9.1913051"><ele>403.79999999999995</ele><time>2026-05-03T14:15:51.631Z</time></trkpt><trkpt lat="44.8236488" lon="9.191186"><ele>403.4</ele><time>2026-05-03T14:15:52.631Z</time></trkpt><trkpt lat="44.8236913" lon="9.1910624"><ele>403.0</ele><time>2026-05-03T14:15:53.631Z</time></trkpt><trkpt lat="44.8237234" lon="9.1909376"><ele>403.0</ele><time>2026-05-03T14:15:54.632Z</time></trkpt><trkpt lat="44.8237561" lon="9.1908084"><ele>403.0</ele><time>2026-05-03T14:15:55.629Z</time></trkpt><trkpt lat="44.8237894" lon="9.1906821"><ele>403.0</ele><time>2026-05-03T14:15:56.625Z</time></trkpt><trkpt lat="44.8238221" lon="9.1905559"><ele>403.0</ele><time>2026-05-03T14:15:57.628Z</time></trkpt><trkpt lat="44.8238535" lon="9.1904301"><ele>403.0</ele><time>2026-05-03T14:15:58.63Z</time></trkpt><trkpt lat="44.8238939" lon="9.1903068"><ele>402.50000000000006</ele><time>2026-05-03T14:15:59.631Z</time></trkpt><trkpt lat="44.8239444" lon="9.1901978"><ele>402.0</ele><time>2026-05-03T14:16:00.631Z</time></trkpt><trkpt lat="44.8239889" lon="9.1900966"><ele>401.5</ele><time>2026-05-03T14:16:01.628Z</time></trkpt><trkpt lat="44.8240345" lon="9.1900206"><ele>401.0</ele><time>2026-05-03T14:16:02.628Z</time></trkpt><trkpt lat="44.8240787" lon="9.1899422"><ele>400.50000000000006</ele><time>2026-05-03T14:16:03.628Z</time></trkpt><trkpt lat="44.8241241" lon="9.1898482"><ele>400.0</ele><time>2026-05-03T14:16:04.631Z</time></trkpt><trkpt lat="44.8241665" lon="9.1897597"><ele>400.6</ele><time>2026-05-03T14:16:05.628Z</time></trkpt><trkpt lat="44.8241941" lon="9.1896642"><ele>401.2</ele><time>2026-05-03T14:16:06.627Z</time></trkpt><trkpt lat="44.8242278" lon="9.1895697"><ele>401.79999999999995</ele><time>2026-05-03T14:16:07.629Z</time></trkpt><trkpt lat="44.8242823" lon="9.1894495"><ele>402.4</ele><time>2026-05-03T14:16:08.628Z</time></trkpt><trkpt lat="44.8243479" lon="9.1893308"><ele>403.0</ele><time>2026-05-03T14:16:09.632Z</time></trkpt><trkpt lat="44.8244006" lon="9.1892102"><ele>403.0</ele><time>2026-05-03T14:16:10.627Z</time></trkpt><trkpt lat="44.8244549" lon="9.1890911"><ele>403.0</ele><time>2026-05-03T14:16:11.628Z</time></trkpt><trkpt lat="44.8245072" lon="9.1889496"><ele>403.0</ele><time>2026-05-03T14:16:12.628Z</time></trkpt><trkpt lat="44.8245331" lon="9.1887934"><ele>403.0</ele><time>2026-05-03T14:16:13.628Z</time></trkpt><trkpt lat="44.8245453" lon="9.1886163"><ele>402.75</ele><time>2026-05-03T14:16:14.629Z</time></trkpt><trkpt lat="44.8245495" lon="9.1884312"><ele>402.5</ele><time>2026-05-03T14:16:15.628Z</time></trkpt><trkpt lat="44.8245575" lon="9.1882558"><ele>402.25</ele><time>2026-05-03T14:16:16.628Z</time></trkpt><trkpt lat="44.8245604" lon="9.1880977"><ele>402.0</ele><time>2026-05-03T14:16:17.629Z</time></trkpt><trkpt lat="44.8245628" lon="9.1879407"><ele>401.0</ele><time>2026-05-03T14:16:18.628Z</time></trkpt><trkpt lat="44.8245654" lon="9.1877794"><ele>400.0</ele><time>2026-05-03T14:16:19.63Z</time></trkpt><trkpt lat="44.8245696" lon="9.1876081"><ele>399.0</ele><time>2026-05-03T14:16:20.628Z</time></trkpt><trkpt lat="44.8245803" lon="9.187432"><ele>398.0</ele><time>2026-05-03T14:16:21.627Z</time></trkpt><trkpt lat="44.824597" lon="9.1872262"><ele>397.3333333333333</ele><time>2026-05-03T14:16:22.63Z</time></trkpt><trkpt lat="44.8246278" lon="9.1870067"><ele>396.66666666666663</ele><time>2026-05-03T14:16:23.63Z</time></trkpt><trkpt lat="44.8246379" lon="9.186772"><ele>396.0</ele><time>2026-05-03T14:16:24.628Z</time></trkpt><trkpt lat="44.8246524" lon="9.1865623"><ele>395.25</ele><time>2026-05-03T14:16:25.632Z</time></trkpt><trkpt lat="44.8246691" lon="9.186403"><ele>394.5</ele><time>2026-05-03T14:16:26.629Z</time></trkpt><trkpt lat="44.8246832" lon="9.1861787"><ele>393.75</ele><time>2026-05-03T14:16:27.627Z</time></trkpt><trkpt lat="44.8247084" lon="9.1860174"><ele>393.0</ele><time>2026-05-03T14:16:28.635Z</time></trkpt><trkpt lat="44.8247648" lon="9.1858467"><ele>393.0</ele><time>2026-05-03T14:16:29.633Z</time></trkpt><trkpt lat="44.8247882" lon="9.1857088"><ele>393.0</ele><time>2026-05-03T14:16:30.628Z</time></trkpt><trkpt lat="44.8247975" lon="9.1855443"><ele>393.0</ele><time>2026-05-03T14:16:31.633Z</time></trkpt><trkpt lat="44.8248185" lon="9.1853762"><ele>393.0</ele><time>2026-05-03T14:16:32.633Z</time></trkpt><trkpt lat="44.8248352" lon="9.185221"><ele>393.0</ele><time>2026-05-03T14:16:33.636Z</time></trkpt><trkpt lat="44.8248518" lon="9.1850545"><ele>393.0</ele><time>2026-05-03T14:16:34.633Z</time></trkpt><trkpt lat="44.8248568" lon="9.1848828"><ele>393.0</ele><time>2026-05-03T14:16:35.632Z</time></trkpt><trkpt lat="44.8248735" lon="9.1847132"><ele>393.0</ele><time>2026-05-03T14:16:36.628Z</time></trkpt><trkpt lat="44.8248856" lon="9.184518"><ele>392.0</ele><time>2026-05-03T14:16:37.628Z</time></trkpt><trkpt lat="44.8248819" lon="9.1842975"><ele>391.0</ele><time>2026-05-03T14:16:38.629Z</time></trkpt><trkpt lat="44.8248761" lon="9.1840259"><ele>390.0</ele><time>2026-05-03T14:16:39.633Z</time></trkpt><trkpt lat="44.8248879" lon="9.1838024"><ele>389.5</ele><time>2026-05-03T14:16:40.632Z</time></trkpt><trkpt lat="44.8248856" lon="9.1836271"><ele>389.0</ele><time>2026-05-03T14:16:41.632Z</time></trkpt><trkpt lat="44.8249128" lon="9.1834345"><ele>388.5</ele><time>2026-05-03T14:16:42.633Z</time></trkpt><trkpt lat="44.8249326" lon="9.1832484"><ele>388.0</ele><time>2026-05-03T14:16:43.634Z</time></trkpt><trkpt lat="44.8249421" lon="9.1831077"><ele>388.0</ele><time>2026-05-03T14:16:44.63Z</time></trkpt><trkpt lat="44.8249594" lon="9.1829538"><ele>388.0</ele><time>2026-05-03T14:16:45.63Z</time></trkpt><trkpt lat="44.8250074" lon="9.182786"><ele>388.0</ele><time>2026-05-03T14:16:46.631Z</time></trkpt><trkpt lat="44.8250348" lon="9.1826092"><ele>388.0</ele><time>2026-05-03T14:16:47.634Z</time></trkpt><trkpt lat="44.8250232" lon="9.1824022"><ele>388.0</ele><time>2026-05-03T14:16:48.634Z</time></trkpt><trkpt lat="44.8250019" lon="9.1822361"><ele>388.0</ele><time>2026-05-03T14:16:49.635Z</time></trkpt><trkpt lat="44.8249728" lon="9.1820027"><ele>388.0</ele><time>2026-05-03T14:16:50.636Z</time></trkpt><trkpt lat="44.8249392" lon="9.1817964"><ele>388.0</ele><time>2026-05-03T14:16:51.634Z</time></trkpt><trkpt lat="44.8249311" lon="9.1815959"><ele>387.0</ele><time>2026-05-03T14:16:52.637Z</time></trkpt><trkpt lat="44.8248978" lon="9.1813699"><ele>386.0</ele><time>2026-05-03T14:16:53.64Z</time></trkpt><trkpt lat="44.8248655" lon="9.1811609"><ele>385.0</ele><time>2026-05-03T14:16:54.633Z</time></trkpt><trkpt lat="44.8248365" lon="9.1809204"><ele>385.0</ele><time>2026-05-03T14:16:55.632Z</time></trkpt><trkpt lat="44.8247975" lon="9.1806833"><ele>385.0</ele><time>2026-05-03T14:16:56.638Z</time></trkpt><trkpt lat="44.8247835" lon="9.1804921"><ele>385.0</ele><time>2026-05-03T14:16:57.637Z</time></trkpt><trkpt lat="44.8247841" lon="9.1802701"><ele>384.5</ele><time>2026-05-03T14:16:58.634Z</time></trkpt><trkpt lat="44.8247739" lon="9.1800557"><ele>384.0</ele><time>2026-05-03T14:16:59.634Z</time></trkpt><trkpt lat="44.8247583" lon="9.179857"><ele>383.5</ele><time>2026-05-03T14:17:00.632Z</time></trkpt><trkpt lat="44.8247559" lon="9.1796825"><ele>383.0</ele><time>2026-05-03T14:17:01.638Z</time></trkpt><trkpt lat="44.8247571" lon="9.1794858"><ele>382.5</ele><time>2026-05-03T14:17:02.637Z</time></trkpt><trkpt lat="44.8247464" lon="9.1793053"><ele>382.0</ele><time>2026-05-03T14:17:03.634Z</time></trkpt><trkpt lat="44.8247726" lon="9.1791377"><ele>381.5</ele><time>2026-05-03T14:17:04.634Z</time></trkpt><trkpt lat="44.82477" lon="9.1789771"><ele>381.0</ele><time>2026-05-03T14:17:05.635Z</time></trkpt><trkpt lat="44.8247615" lon="9.178803"><ele>380.6666666666667</ele><time>2026-05-03T14:17:06.633Z</time></trkpt><trkpt lat="44.8247511" lon="9.1785973"><ele>380.33333333333337</ele><time>2026-05-03T14:17:07.629Z</time></trkpt><trkpt lat="44.8247377" lon="9.1783745"><ele>380.0</ele><time>2026-05-03T14:17:08.632Z</time></trkpt><trkpt lat="44.8247347" lon="9.1781361"><ele>380.0</ele><time>2026-05-03T14:17:09.627Z</time></trkpt><trkpt lat="44.8247308" lon="9.1779145"><ele>380.0</ele><time>2026-05-03T14:17:10.628Z</time></trkpt><trkpt lat="44.8247497" lon="9.1776506"><ele>380.0</ele><time>2026-05-03T14:17:11.626Z</time></trkpt><trkpt lat="44.8247525" lon="9.1774036"><ele>381.0</ele><time>2026-05-03T14:17:12.628Z</time></trkpt><trkpt lat="44.8247673" lon="9.177091"><ele>382.0</ele><time>2026-05-03T14:17:13.629Z</time></trkpt><trkpt lat="44.8247686" lon="9.1767667"><ele>382.0</ele><time>2026-05-03T14:17:14.63Z</time></trkpt><trkpt lat="44.8247676" lon="9.1764865"><ele>382.0</ele><time>2026-05-03T14:17:15.627Z</time></trkpt><trkpt lat="44.8247508" lon="9.1761837"><ele>382.0</ele><time>2026-05-03T14:17:16.628Z</time></trkpt><trkpt lat="44.8247529" lon="9.175859"><ele>381.0</ele><time>2026-05-03T14:17:17.628Z</time></trkpt><trkpt lat="44.8247605" lon="9.1755709"><ele>380.0</ele><time>2026-05-03T14:17:18.628Z</time></trkpt><trkpt lat="44.8247784" lon="9.175213"><ele>380.0</ele><time>2026-05-03T14:17:19.63Z</time></trkpt><trkpt lat="44.8247605" lon="9.1748891"><ele>380.0</ele><time>2026-05-03T14:17:20.629Z</time></trkpt><trkpt lat="44.8247676" lon="9.1745473"><ele>379.5</ele><time>2026-05-03T14:17:21.628Z</time></trkpt><trkpt lat="44.82476" lon="9.1742149"><ele>379.0</ele><time>2026-05-03T14:17:22.624Z</time></trkpt><trkpt lat="44.8247714" lon="9.1739124"><ele>378.3333333333333</ele><time>2026-05-03T14:17:23.634Z</time></trkpt><trkpt lat="44.8247739" lon="9.1736424"><ele>377.6666666666667</ele><time>2026-05-03T14:17:24.628Z</time></trkpt><trkpt lat="44.8247544" lon="9.1733437"><ele>377.0</ele><time>2026-05-03T14:17:25.636Z</time></trkpt><trkpt lat="44.8247653" lon="9.1730718"><ele>376.0</ele><time>2026-05-03T14:17:26.632Z</time></trkpt><trkpt lat="44.824743" lon="9.1727455"><ele>375.0</ele><time>2026-05-03T14:17:27.633Z</time></trkpt><trkpt lat="44.8247391" lon="9.1724095"><ele>374.0</ele><time>2026-05-03T14:17:28.632Z</time></trkpt><trkpt lat="44.8247487" lon="9.1720653"><ele>373.0</ele><time>2026-05-03T14:17:29.634Z</time></trkpt><trkpt lat="44.8247562" lon="9.1717203"><ele>372.3333333333333</ele><time>2026-05-03T14:17:30.632Z</time></trkpt><trkpt lat="44.8247667" lon="9.1713867"><ele>371.6666666666667</ele><time>2026-05-03T14:17:31.634Z</time></trkpt><trkpt lat="44.8247917" lon="9.1711013"><ele>371.0</ele><time>2026-05-03T14:17:32.634Z</time></trkpt><trkpt lat="44.8247975" lon="9.1707904"><ele>371.0</ele><time>2026-05-03T14:17:33.634Z</time></trkpt><trkpt lat="44.8247815" lon="9.1704864"><ele>371.0</ele><time>2026-05-03T14:17:34.634Z</time></trkpt><trkpt lat="44.8248059" lon="9.170217"><ele>371.0</ele><time>2026-05-03T14:17:35.634Z</time></trkpt><trkpt lat="44.8248201" lon="9.1699469"><ele>371.0</ele><time>2026-05-03T14:17:36.63Z</time></trkpt><trkpt lat="44.8248097" lon="9.1697043"><ele>371.0</ele><time>2026-05-03T14:17:37.632Z</time></trkpt><trkpt lat="44.8248155" lon="9.1694166"><ele>371.0</ele><time>2026-05-03T14:17:38.633Z</time></trkpt><trkpt lat="44.8248376" lon="9.1691306"><ele>369.33333333333337</ele><time>2026-05-03T14:17:39.631Z</time></trkpt><trkpt lat="44.8248686" lon="9.1688474"><ele>367.6666666666667</ele><time>2026-05-03T14:17:40.631Z</time></trkpt><trkpt lat="44.8249011" lon="9.1685453"><ele>366.0</ele><time>2026-05-03T14:17:41.633Z</time></trkpt><trkpt lat="44.8249297" lon="9.1682738"><ele>366.0</ele><time>2026-05-03T14:17:42.631Z</time></trkpt><trkpt lat="44.8248776" lon="9.1679534"><ele>366.0</ele><time>2026-05-03T14:17:43.632Z</time></trkpt><trkpt lat="44.8248374" lon="9.1676337"><ele>367.0</ele><time>2026-05-03T14:17:44.634Z</time></trkpt><trkpt lat="44.8247782" lon="9.1672945"><ele>368.0</ele><time>2026-05-03T14:17:45.633Z</time></trkpt><trkpt lat="44.8247544" lon="9.1669937"><ele>368.0</ele><time>2026-05-03T14:17:46.631Z</time></trkpt><trkpt lat="44.8247349" lon="9.1667096"><ele>368.0</ele><time>2026-05-03T14:17:47.631Z</time></trkpt><trkpt lat="44.8247312" lon="9.1664354"><ele>368.0</ele><time>2026-05-03T14:17:48.631Z</time></trkpt><trkpt lat="44.8247322" lon="9.1661364"><ele>367.25</ele><time>2026-05-03T14:17:49.635Z</time></trkpt><trkpt lat="44.8247505" lon="9.1659072"><ele>366.5</ele><time>2026-05-03T14:17:50.632Z</time></trkpt><trkpt lat="44.8247841" lon="9.165724"><ele>365.75</ele><time>2026-05-03T14:17:51.633Z</time></trkpt><trkpt lat="44.8247962" lon="9.1655582"><ele>365.0</ele><time>2026-05-03T14:17:52.632Z</time></trkpt><trkpt lat="44.8248024" lon="9.1653766"><ele>364.0</ele><time>2026-05-03T14:17:53.634Z</time></trkpt><trkpt lat="44.8248349" lon="9.1651528"><ele>363.0</ele><time>2026-05-03T14:17:54.634Z</time></trkpt><trkpt lat="44.8248933" lon="9.1649527"><ele>362.0</ele><time>2026-05-03T14:17:55.636Z</time></trkpt><trkpt lat="44.8249112" lon="9.1647974"><ele>361.0</ele><time>2026-05-03T14:17:56.632Z</time></trkpt><trkpt lat="44.8249506" lon="9.1646026"><ele>360.0</ele><time>2026-05-03T14:17:57.631Z</time></trkpt><trkpt lat="44.8249873" lon="9.164359"><ele>359.0</ele><time>2026-05-03T14:17:58.637Z</time></trkpt><trkpt lat="44.8250338" lon="9.1640711"><ele>358.0</ele><time>2026-05-03T14:17:59.641Z</time></trkpt><trkpt lat="44.8250917" lon="9.1637595"><ele>366.0</ele><time>2026-05-03T14:18:00.634Z</time></trkpt><trkpt lat="44.8251479" lon="9.1634291"><ele>374.0</ele><time>2026-05-03T14:18:01.632Z</time></trkpt><trkpt lat="44.8251557" lon="9.1630562"><ele>369.0</ele><time>2026-05-03T14:18:02.634Z</time></trkpt><trkpt lat="44.8251217" lon="9.162759"><ele>364.0</ele><time>2026-05-03T14:18:03.635Z</time></trkpt><trkpt lat="44.8250785" lon="9.1624481"><ele>359.0</ele><time>2026-05-03T14:18:04.635Z</time></trkpt><trkpt lat="44.8250608" lon="9.1620538"><ele>358.6666666666667</ele><time>2026-05-03T14:18:05.634Z</time></trkpt><trkpt lat="44.8250491" lon="9.1617162"><ele>358.3333333333333</ele><time>2026-05-03T14:18:06.631Z</time></trkpt><trkpt lat="44.8250191" lon="9.1614368"><ele>358.0</ele><time>2026-05-03T14:18:07.632Z</time></trkpt><trkpt lat="44.8250136" lon="9.1611273"><ele>357.0</ele><time>2026-05-03T14:18:08.629Z</time></trkpt><trkpt lat="44.8250197" lon="9.1609004"><ele>356.0</ele><time>2026-05-03T14:18:09.629Z</time></trkpt><trkpt lat="44.8250127" lon="9.1606556"><ele>355.0</ele><time>2026-05-03T14:18:10.632Z</time></trkpt><trkpt lat="44.8249619" lon="9.160324"><ele>354.66666666666663</ele><time>2026-05-03T14:18:11.633Z</time></trkpt><trkpt lat="44.8249049" lon="9.1600174"><ele>354.3333333333333</ele><time>2026-05-03T14:18:12.631Z</time></trkpt><trkpt lat="44.8248512" lon="9.1597227"><ele>354.0</ele><time>2026-05-03T14:18:13.632Z</time></trkpt><trkpt lat="44.8247914" lon="9.1594233"><ele>354.0</ele><time>2026-05-03T14:18:14.632Z</time></trkpt><trkpt lat="44.8247671" lon="9.1591703"><ele>354.0</ele><time>2026-05-03T14:18:15.629Z</time></trkpt><trkpt lat="44.8247349" lon="9.1588949"><ele>354.0</ele><time>2026-05-03T14:18:16.63Z</time></trkpt><trkpt lat="44.8246899" lon="9.1586656"><ele>354.3333333333333</ele><time>2026-05-03T14:18:17.63Z</time></trkpt><trkpt lat="44.8246771" lon="9.1583856"><ele>354.66666666666663</ele><time>2026-05-03T14:18:18.627Z</time></trkpt><trkpt lat="44.824638" lon="9.15816"><ele>355.0</ele><time>2026-05-03T14:18:19.627Z</time></trkpt><trkpt lat="44.8245972" lon="9.1579319"><ele>355.5</ele><time>2026-05-03T14:18:20.629Z</time></trkpt><trkpt lat="44.8245754" lon="9.1577687"><ele>356.0</ele><time>2026-05-03T14:18:21.629Z</time></trkpt><trkpt lat="44.8245117" lon="9.157626"><ele>356.5</ele><time>2026-05-03T14:18:22.627Z</time></trkpt><trkpt lat="44.8244338" lon="9.1575022"><ele>357.0</ele><time>2026-05-03T14:18:23.629Z</time></trkpt><trkpt lat="44.8243338" lon="9.1573968"><ele>356.5</ele><time>2026-05-03T14:18:24.626Z</time></trkpt><trkpt lat="44.8242008" lon="9.1573439"><ele>356.0</ele><time>2026-05-03T14:18:25.631Z</time></trkpt><trkpt lat="44.8240721" lon="9.1572705"><ele>355.5</ele><time>2026-05-03T14:18:26.628Z</time></trkpt><trkpt lat="44.8239796" lon="9.1571678"><ele>355.0</ele><time>2026-05-03T14:18:27.627Z</time></trkpt><trkpt lat="44.8238509" lon="9.1570503"><ele>355.0</ele><time>2026-05-03T14:18:28.633Z</time></trkpt><trkpt lat="44.8237068" lon="9.1569474"><ele>355.0</ele><time>2026-05-03T14:18:29.633Z</time></trkpt><trkpt lat="44.8235738" lon="9.156835"><ele>355.0</ele><time>2026-05-03T14:18:30.629Z</time></trkpt><trkpt lat="44.8234314" lon="9.1567242"><ele>355.0</ele><time>2026-05-03T14:18:31.63Z</time></trkpt><trkpt lat="44.8233237" lon="9.1565573"><ele>355.0</ele><time>2026-05-03T14:18:32.625Z</time></trkpt><trkpt lat="44.8232704" lon="9.1563451"><ele>355.0</ele><time>2026-05-03T14:18:33.608Z</time></trkpt><trkpt lat="44.8232596" lon="9.1561146"><ele>355.0</ele><time>2026-05-03T14:18:34.614Z</time></trkpt><trkpt lat="44.8233069" lon="9.1558618"><ele>355.0</ele><time>2026-05-03T14:18:35.628Z</time></trkpt><trkpt lat="44.8233231" lon="9.1556351"><ele>355.0</ele><time>2026-05-03T14:18:36.625Z</time></trkpt><trkpt lat="44.823334" lon="9.1554328"><ele>354.3333333333333</ele><time>2026-05-03T14:18:37.628Z</time></trkpt><trkpt lat="44.8233587" lon="9.1552111"><ele>353.6666666666667</ele><time>2026-05-03T14:18:38.622Z</time></trkpt><trkpt lat="44.8233916" lon="9.15496"><ele>353.0</ele><time>2026-05-03T14:18:39.627Z</time></trkpt><trkpt lat="44.8234126" lon="9.1547193"><ele>352.0</ele><time>2026-05-03T14:18:40.623Z</time></trkpt><trkpt lat="44.823415" lon="9.1544919"><ele>351.0</ele><time>2026-05-03T14:18:41.629Z</time></trkpt><trkpt lat="44.8234155" lon="9.1542468"><ele>350.0</ele><time>2026-05-03T14:18:42.626Z</time></trkpt><trkpt lat="44.8234218" lon="9.1539824"><ele>348.33333333333337</ele><time>2026-05-03T14:18:43.627Z</time></trkpt><trkpt lat="44.8234501" lon="9.1537443"><ele>346.6666666666667</ele><time>2026-05-03T14:18:44.627Z</time></trkpt><trkpt lat="44.8234475" lon="9.1534819"><ele>345.0</ele><time>2026-05-03T14:18:45.627Z</time></trkpt><trkpt lat="44.8234547" lon="9.1532561"><ele>345.0</ele><time>2026-05-03T14:18:46.63Z</time></trkpt><trkpt lat="44.8234723" lon="9.1530176"><ele>345.0</ele><time>2026-05-03T14:18:47.634Z</time></trkpt><trkpt lat="44.8234819" lon="9.1527595"><ele>345.0</ele><time>2026-05-03T14:18:48.63Z</time></trkpt><trkpt lat="44.8234941" lon="9.1524855"><ele>346.3333333333333</ele><time>2026-05-03T14:18:49.627Z</time></trkpt><trkpt lat="44.8234995" lon="9.1522046"><ele>347.66666666666663</ele><time>2026-05-03T14:18:50.632Z</time></trkpt><trkpt lat="44.8235147" lon="9.1518982"><ele>349.0</ele><time>2026-05-03T14:18:51.631Z</time></trkpt><trkpt lat="44.823533" lon="9.1515842"><ele>348.66666666666663</ele><time>2026-05-03T14:18:52.631Z</time></trkpt><trkpt lat="44.8235293" lon="9.1512764"><ele>348.3333333333333</ele><time>2026-05-03T14:18:53.63Z</time></trkpt><trkpt lat="44.8235212" lon="9.1509681"><ele>348.0</ele><time>2026-05-03T14:18:54.626Z</time></trkpt><trkpt lat="44.823526" lon="9.1506802"><ele>347.6666666666667</ele><time>2026-05-03T14:18:55.627Z</time></trkpt><trkpt lat="44.8235414" lon="9.1503628"><ele>347.33333333333337</ele><time>2026-05-03T14:18:56.625Z</time></trkpt><trkpt lat="44.8235548" lon="9.1500597"><ele>347.0</ele><time>2026-05-03T14:18:57.624Z</time></trkpt><trkpt lat="44.8235837" lon="9.14971"><ele>345.5</ele><time>2026-05-03T14:18:58.626Z</time></trkpt><trkpt lat="44.8236167" lon="9.1493813"><ele>344.0</ele><time>2026-05-03T14:18:59.626Z</time></trkpt><trkpt lat="44.8236516" lon="9.1490698"><ele>343.6666666666667</ele><time>2026-05-03T14:19:00.629Z</time></trkpt><trkpt lat="44.8236851" lon="9.1487551"><ele>343.3333333333333</ele><time>2026-05-03T14:19:01.631Z</time></trkpt><trkpt lat="44.8236919" lon="9.1484564"><ele>343.0</ele><time>2026-05-03T14:19:02.629Z</time></trkpt><trkpt lat="44.8237117" lon="9.1481505"><ele>343.0</ele><time>2026-05-03T14:19:03.631Z</time></trkpt><trkpt lat="44.8237335" lon="9.1478212"><ele>343.0</ele><time>2026-05-03T14:19:04.627Z</time></trkpt><trkpt lat="44.8237574" lon="9.1474782"><ele>344.0</ele><time>2026-05-03T14:19:05.626Z</time></trkpt><trkpt lat="44.8237955" lon="9.1471286"><ele>345.0</ele><time>2026-05-03T14:19:06.626Z</time></trkpt><trkpt lat="44.8238154" lon="9.1468488"><ele>344.3333333333333</ele><time>2026-05-03T14:19:07.628Z</time></trkpt><trkpt lat="44.8238504" lon="9.1465442"><ele>343.66666666666663</ele><time>2026-05-03T14:19:08.626Z</time></trkpt><trkpt lat="44.8238904" lon="9.1462483"><ele>343.0</ele><time>2026-05-03T14:19:09.629Z</time></trkpt><trkpt lat="44.8239356" lon="9.1459337"><ele>340.0</ele><time>2026-05-03T14:19:10.626Z</time></trkpt><trkpt lat="44.8239586" lon="9.1455938"><ele>337.0</ele><time>2026-05-03T14:19:11.627Z</time></trkpt><trkpt lat="44.8239823" lon="9.1452552"><ele>337.0</ele><time>2026-05-03T14:19:12.627Z</time></trkpt><trkpt lat="44.8239977" lon="9.1449233"><ele>337.0</ele><time>2026-05-03T14:19:13.629Z</time></trkpt><trkpt lat="44.8240049" lon="9.1445649"><ele>336.5</ele><time>2026-05-03T14:19:14.63Z</time></trkpt><trkpt lat="44.8240002" lon="9.144227"><ele>336.0</ele><time>2026-05-03T14:19:15.627Z</time></trkpt><trkpt lat="44.8239654" lon="9.1438707"><ele>336.0</ele><time>2026-05-03T14:19:16.627Z</time></trkpt><trkpt lat="44.8239468" lon="9.1435125"><ele>336.0</ele><time>2026-05-03T14:19:17.625Z</time></trkpt><trkpt lat="44.8238845" lon="9.1431588"><ele>337.0</ele><time>2026-05-03T14:19:18.629Z</time></trkpt><trkpt lat="44.8238345" lon="9.1428014"><ele>338.0</ele><time>2026-05-03T14:19:19.631Z</time></trkpt><trkpt lat="44.8237774" lon="9.1424398"><ele>339.5</ele><time>2026-05-03T14:19:20.629Z</time></trkpt><trkpt lat="44.823709" lon="9.1420824"><ele>341.0</ele><time>2026-05-03T14:19:21.625Z</time></trkpt><trkpt lat="44.8236413" lon="9.1416992"><ele>341.5</ele><time>2026-05-03T14:19:22.632Z</time></trkpt><trkpt lat="44.8236186" lon="9.1413387"><ele>342.0</ele><time>2026-05-03T14:19:23.635Z</time></trkpt><trkpt lat="44.8235768" lon="9.1410065"><ele>341.6666666666667</ele><time>2026-05-03T14:19:24.63Z</time></trkpt><trkpt lat="44.8235451" lon="9.140689"><ele>341.33333333333337</ele><time>2026-05-03T14:19:25.631Z</time></trkpt><trkpt lat="44.8235219" lon="9.1403955"><ele>341.0</ele><time>2026-05-03T14:19:26.63Z</time></trkpt><trkpt lat="44.8234843" lon="9.1400593"><ele>341.0</ele><time>2026-05-03T14:19:27.633Z</time></trkpt><trkpt lat="44.8234973" lon="9.1396863"><ele>341.0</ele><time>2026-05-03T14:19:28.631Z</time></trkpt><trkpt lat="44.8235348" lon="9.1393268"><ele>338.5</ele><time>2026-05-03T14:19:29.631Z</time></trkpt><trkpt lat="44.823578" lon="9.138994"><ele>336.0</ele><time>2026-05-03T14:19:30.631Z</time></trkpt><trkpt lat="44.8236155" lon="9.138653"><ele>336.0</ele><time>2026-05-03T14:19:31.632Z</time></trkpt><trkpt lat="44.8236747" lon="9.1382791"><ele>336.0</ele><time>2026-05-03T14:19:32.631Z</time></trkpt><trkpt lat="44.8237008" lon="9.1379104"><ele>336.5</ele><time>2026-05-03T14:19:33.632Z</time></trkpt><trkpt lat="44.8237251" lon="9.1375661"><ele>337.0</ele><time>2026-05-03T14:19:34.63Z</time></trkpt><trkpt lat="44.8237267" lon="9.1372541"><ele>337.0</ele><time>2026-05-03T14:19:35.632Z</time></trkpt><trkpt lat="44.8237144" lon="9.1369283"><ele>337.0</ele><time>2026-05-03T14:19:36.631Z</time></trkpt><trkpt lat="44.8237227" lon="9.1366315"><ele>337.0</ele><time>2026-05-03T14:19:37.63Z</time></trkpt><trkpt lat="44.8236856" lon="9.1363556"><ele>338.3333333333333</ele><time>2026-05-03T14:19:38.627Z</time></trkpt><trkpt lat="44.8236524" lon="9.1360745"><ele>339.6666666666667</ele><time>2026-05-03T14:19:39.627Z</time></trkpt><trkpt lat="44.8235993" lon="9.1358227"><ele>341.0</ele><time>2026-05-03T14:19:40.626Z</time></trkpt><trkpt lat="44.8235146" lon="9.1355592"><ele>336.6666666666667</ele><time>2026-05-03T14:19:41.627Z</time></trkpt><trkpt lat="44.8234054" lon="9.1353036"><ele>332.3333333333333</ele><time>2026-05-03T14:19:42.63Z</time></trkpt><trkpt lat="44.8232754" lon="9.1350888"><ele>328.0</ele><time>2026-05-03T14:19:43.632Z</time></trkpt><trkpt lat="44.8231452" lon="9.1348721"><ele>328.0</ele><time>2026-05-03T14:19:44.633Z</time></trkpt><trkpt lat="44.8230384" lon="9.1346249"><ele>328.0</ele><time>2026-05-03T14:19:45.627Z</time></trkpt><trkpt lat="44.8229431" lon="9.1343613"><ele>328.0</ele><time>2026-05-03T14:19:46.628Z</time></trkpt><trkpt lat="44.8228432" lon="9.1340699"><ele>328.0</ele><time>2026-05-03T14:19:47.628Z</time></trkpt><trkpt lat="44.822745" lon="9.1337821"><ele>328.0</ele><time>2026-05-03T14:19:48.636Z</time></trkpt><trkpt lat="44.8226763" lon="9.1334809"><ele>328.5</ele><time>2026-05-03T14:19:49.638Z</time></trkpt><trkpt lat="44.822661" lon="9.1331846"><ele>329.0</ele><time>2026-05-03T14:19:50.631Z</time></trkpt><trkpt lat="44.8226512" lon="9.1328308"><ele>329.0</ele><time>2026-05-03T14:19:51.638Z</time></trkpt><trkpt lat="44.822653" lon="9.1324852"><ele>329.0</ele><time>2026-05-03T14:19:52.634Z</time></trkpt><trkpt lat="44.8226486" lon="9.1321352"><ele>325.33333333333337</ele><time>2026-05-03T14:19:53.636Z</time></trkpt><trkpt lat="44.8226234" lon="9.1318062"><ele>321.6666666666667</ele><time>2026-05-03T14:19:54.631Z</time></trkpt><trkpt lat="44.8225961" lon="9.1315076"><ele>318.0</ele><time>2026-05-03T14:19:55.635Z</time></trkpt><trkpt lat="44.8225944" lon="9.1311471"><ele>318.0</ele><time>2026-05-03T14:19:56.634Z</time></trkpt><trkpt lat="44.8225918" lon="9.1308459"><ele>318.0</ele><time>2026-05-03T14:19:57.628Z</time></trkpt><trkpt lat="44.8226073" lon="9.1305041"><ele>318.5</ele><time>2026-05-03T14:19:58.64Z</time></trkpt><trkpt lat="44.8226153" lon="9.1301754"><ele>319.0</ele><time>2026-05-03T14:19:59.635Z</time></trkpt><trkpt lat="44.8226406" lon="9.1298438"><ele>319.0</ele><time>2026-05-03T14:20:00.635Z</time></trkpt><trkpt lat="44.8226623" lon="9.1295696"><ele>319.0</ele><time>2026-05-03T14:20:01.632Z</time></trkpt><trkpt lat="44.8227094" lon="9.1292651"><ele>319.0</ele><time>2026-05-03T14:20:02.636Z</time></trkpt><trkpt lat="44.8227795" lon="9.1289665"><ele>317.0</ele><time>2026-05-03T14:20:03.639Z</time></trkpt><trkpt lat="44.8228925" lon="9.1287109"><ele>315.0</ele><time>2026-05-03T14:20:04.633Z</time></trkpt><trkpt lat="44.8230029" lon="9.1284495"><ele>313.0</ele><time>2026-05-03T14:20:05.636Z</time></trkpt><trkpt lat="44.823088" lon="9.1281786"><ele>312.66666666666663</ele><time>2026-05-03T14:20:06.636Z</time></trkpt><trkpt lat="44.8231886" lon="9.127994"><ele>312.3333333333333</ele><time>2026-05-03T14:20:07.642Z</time></trkpt><trkpt lat="44.8233428" lon="9.1277964"><ele>312.0</ele><time>2026-05-03T14:20:08.64Z</time></trkpt><trkpt lat="44.8234754" lon="9.1276172"><ele>311.6666666666667</ele><time>2026-05-03T14:20:09.638Z</time></trkpt><trkpt lat="44.8235919" lon="9.1274053"><ele>311.33333333333337</ele><time>2026-05-03T14:20:10.633Z</time></trkpt><trkpt lat="44.8237176" lon="9.1272164"><ele>311.0</ele><time>2026-05-03T14:20:11.631Z</time></trkpt><trkpt lat="44.8238131" lon="9.1270422"><ele>311.0</ele><time>2026-05-03T14:20:12.632Z</time></trkpt><trkpt lat="44.8239146" lon="9.1268764"><ele>311.0</ele><time>2026-05-03T14:20:13.638Z</time></trkpt><trkpt lat="44.824009" lon="9.1267072"><ele>311.0</ele><time>2026-05-03T14:20:14.633Z</time></trkpt><trkpt lat="44.8240876" lon="9.1265807"><ele>311.0</ele><time>2026-05-03T14:20:15.632Z</time></trkpt><trkpt lat="44.8241579" lon="9.1264166"><ele>310.75</ele><time>2026-05-03T14:20:16.635Z</time></trkpt><trkpt lat="44.8242433" lon="9.1262411"><ele>310.5</ele><time>2026-05-03T14:20:17.629Z</time></trkpt><trkpt lat="44.8243464" lon="9.126069"><ele>310.25</ele><time>2026-05-03T14:20:18.635Z</time></trkpt><trkpt lat="44.8244007" lon="9.1259358"><ele>310.0</ele><time>2026-05-03T14:20:19.629Z</time></trkpt><trkpt lat="44.8244709" lon="9.1258035"><ele>310.0</ele><time>2026-05-03T14:20:20.634Z</time></trkpt><trkpt lat="44.8245401" lon="9.125684"><ele>310.0</ele><time>2026-05-03T14:20:21.632Z</time></trkpt><trkpt lat="44.8246263" lon="9.1255484"><ele>310.0</ele><time>2026-05-03T14:20:22.633Z</time></trkpt><trkpt lat="44.8247131" lon="9.1254052"><ele>310.0</ele><time>2026-05-03T14:20:23.633Z</time></trkpt><trkpt lat="44.8248" lon="9.1252632"><ele>310.0</ele><time>2026-05-03T14:20:24.638Z</time></trkpt><trkpt lat="44.8248974" lon="9.1251131"><ele>310.0</ele><time>2026-05-03T14:20:25.632Z</time></trkpt><trkpt lat="44.8249732" lon="9.1249542"><ele>310.0</ele><time>2026-05-03T14:20:26.634Z</time></trkpt><trkpt lat="44.8250764" lon="9.1247932"><ele>310.0</ele><time>2026-05-03T14:20:27.633Z</time></trkpt><trkpt lat="44.8251716" lon="9.1245875"><ele>310.0</ele><time>2026-05-03T14:20:28.634Z</time></trkpt><trkpt lat="44.8252593" lon="9.1244517"><ele>310.0</ele><time>2026-05-03T14:20:29.64Z</time></trkpt><trkpt lat="44.8253574" lon="9.1242549"><ele>310.0</ele><time>2026-05-03T14:20:30.629Z</time></trkpt><trkpt lat="44.8254469" lon="9.1240797"><ele>309.5</ele><time>2026-05-03T14:20:31.631Z</time></trkpt><trkpt lat="44.825546" lon="9.123935"><ele>309.0</ele><time>2026-05-03T14:20:32.632Z</time></trkpt><trkpt lat="44.8256392" lon="9.1237866"><ele>308.5</ele><time>2026-05-03T14:20:33.631Z</time></trkpt><trkpt lat="44.8257206" lon="9.1236149"><ele>308.0</ele><time>2026-05-03T14:20:34.631Z</time></trkpt><trkpt lat="44.8257962" lon="9.1234588"><ele>308.0</ele><time>2026-05-03T14:20:35.635Z</time></trkpt><trkpt lat="44.8258589" lon="9.1233078"><ele>308.0</ele><time>2026-05-03T14:20:36.633Z</time></trkpt><trkpt lat="44.8259487" lon="9.1231673"><ele>308.0</ele><time>2026-05-03T14:20:37.629Z</time></trkpt><trkpt lat="44.8260365" lon="9.1230191"><ele>308.0</ele><time>2026-05-03T14:20:38.627Z</time></trkpt><trkpt lat="44.8261076" lon="9.1228626"><ele>310.0</ele><time>2026-05-03T14:20:39.628Z</time></trkpt><trkpt lat="44.8261894" lon="9.1227083"><ele>312.0</ele><time>2026-05-03T14:20:40.638Z</time></trkpt><trkpt lat="44.8263076" lon="9.1225789"><ele>314.0</ele><time>2026-05-03T14:20:41.633Z</time></trkpt><trkpt lat="44.8264343" lon="9.1224045"><ele>314.25</ele><time>2026-05-03T14:20:42.631Z</time></trkpt><trkpt lat="44.8265519" lon="9.1222956"><ele>314.5</ele><time>2026-05-03T14:20:43.629Z</time></trkpt><trkpt lat="44.8266736" lon="9.1221332"><ele>314.75</ele><time>2026-05-03T14:20:44.629Z</time></trkpt><trkpt lat="44.8267495" lon="9.1220229"><ele>315.0</ele><time>2026-05-03T14:20:45.63Z</time></trkpt><trkpt lat="44.8268257" lon="9.1219068"><ele>315.0</ele><time>2026-05-03T14:20:46.633Z</time></trkpt><trkpt lat="44.8269191" lon="9.1217748"><ele>315.0</ele><time>2026-05-03T14:20:47.627Z</time></trkpt><trkpt lat="44.8270279" lon="9.1216792"><ele>315.0</ele><time>2026-05-03T14:20:48.627Z</time></trkpt><trkpt lat="44.8271566" lon="9.1215895"><ele>315.0</ele><time>2026-05-03T14:20:49.629Z</time></trkpt><trkpt lat="44.8272711" lon="9.1214953"><ele>313.25</ele><time>2026-05-03T14:20:50.625Z</time></trkpt><trkpt lat="44.8273839" lon="9.1213898"><ele>311.5</ele><time>2026-05-03T14:20:51.629Z</time></trkpt><trkpt lat="44.8275137" lon="9.1213165"><ele>309.75</ele><time>2026-05-03T14:20:52.628Z</time></trkpt><trkpt lat="44.8276305" lon="9.1212171"><ele>308.0</ele><time>2026-05-03T14:20:53.629Z</time></trkpt><trkpt lat="44.8277899" lon="9.1210938"><ele>308.0</ele><time>2026-05-03T14:20:54.628Z</time></trkpt><trkpt lat="44.8279066" lon="9.1210109"><ele>308.0</ele><time>2026-05-03T14:20:55.629Z</time></trkpt><trkpt lat="44.8280407" lon="9.1209575"><ele>308.0</ele><time>2026-05-03T14:20:56.63Z</time></trkpt><trkpt lat="44.8281857" lon="9.1209193"><ele>308.0</ele><time>2026-05-03T14:20:57.625Z</time></trkpt><trkpt lat="44.8283317" lon="9.1208768"><ele>306.33333333333337</ele><time>2026-05-03T14:20:58.63Z</time></trkpt><trkpt lat="44.8284835" lon="9.1208425"><ele>304.6666666666667</ele><time>2026-05-03T14:20:59.627Z</time></trkpt><trkpt lat="44.8286282" lon="9.120792"><ele>303.0</ele><time>2026-05-03T14:21:00.626Z</time></trkpt><trkpt lat="44.8287748" lon="9.1207194"><ele>303.0</ele><time>2026-05-03T14:21:01.628Z</time></trkpt><trkpt lat="44.8289375" lon="9.1206727"><ele>303.0</ele><time>2026-05-03T14:21:02.626Z</time></trkpt><trkpt lat="44.8291255" lon="9.1206133"><ele>303.0</ele><time>2026-05-03T14:21:03.629Z</time></trkpt><trkpt lat="44.8293198" lon="9.1205467"><ele>304.0</ele><time>2026-05-03T14:21:04.627Z</time></trkpt><trkpt lat="44.8295125" lon="9.1204969"><ele>305.0</ele><time>2026-05-03T14:21:05.626Z</time></trkpt><trkpt lat="44.829685" lon="9.1204142"><ele>306.0</ele><time>2026-05-03T14:21:06.626Z</time></trkpt><trkpt lat="44.8298412" lon="9.1203321"><ele>306.0</ele><time>2026-05-03T14:21:07.626Z</time></trkpt><trkpt lat="44.8300004" lon="9.12021"><ele>306.0</ele><time>2026-05-03T14:21:08.632Z</time></trkpt><trkpt lat="44.8301451" lon="9.1200403"><ele>306.0</ele><time>2026-05-03T14:21:09.625Z</time></trkpt><trkpt lat="44.8302713" lon="9.1198364"><ele>306.0</ele><time>2026-05-03T14:21:10.625Z</time></trkpt><trkpt lat="44.8303627" lon="9.1196298"><ele>306.0</ele><time>2026-05-03T14:21:11.626Z</time></trkpt><trkpt lat="44.8304491" lon="9.1193944"><ele>306.0</ele><time>2026-05-03T14:21:12.63Z</time></trkpt><trkpt lat="44.8305061" lon="9.1191782"><ele>305.0</ele><time>2026-05-03T14:21:13.641Z</time></trkpt><trkpt lat="44.8306383" lon="9.1189811"><ele>304.0</ele><time>2026-05-03T14:21:14.631Z</time></trkpt><trkpt lat="44.8307452" lon="9.1187859"><ele>303.0</ele><time>2026-05-03T14:21:15.632Z</time></trkpt><trkpt lat="44.8308139" lon="9.1186163"><ele>303.0</ele><time>2026-05-03T14:21:16.636Z</time></trkpt><trkpt lat="44.8309126" lon="9.1184626"><ele>303.0</ele><time>2026-05-03T14:21:17.634Z</time></trkpt><trkpt lat="44.8310511" lon="9.1183379"><ele>303.0</ele><time>2026-05-03T14:21:18.628Z</time></trkpt><trkpt lat="44.8312042" lon="9.1182583"><ele>301.3333333333333</ele><time>2026-05-03T14:21:19.643Z</time></trkpt><trkpt lat="44.8313857" lon="9.1182705"><ele>299.66666666666663</ele><time>2026-05-03T14:21:20.629Z</time></trkpt><trkpt lat="44.8315311" lon="9.1183"><ele>298.0</ele><time>2026-05-03T14:21:21.63Z</time></trkpt><trkpt lat="44.8316991" lon="9.1182994"><ele>298.0</ele><time>2026-05-03T14:21:22.636Z</time></trkpt><trkpt lat="44.8318555" lon="9.1183166"><ele>298.0</ele><time>2026-05-03T14:21:23.63Z</time></trkpt><trkpt lat="44.8320368" lon="9.1182833"><ele>298.0</ele><time>2026-05-03T14:21:24.644Z</time></trkpt><trkpt lat="44.8322393" lon="9.1181911"><ele>298.0</ele><time>2026-05-03T14:21:25.636Z</time></trkpt><trkpt lat="44.8324762" lon="9.1180402"><ele>298.0</ele><time>2026-05-03T14:21:26.632Z</time></trkpt><trkpt lat="44.8327116" lon="9.1178425"><ele>300.0</ele><time>2026-05-03T14:21:27.631Z</time></trkpt><trkpt lat="44.832956" lon="9.1176439"><ele>302.0</ele><time>2026-05-03T14:21:28.633Z</time></trkpt><trkpt lat="44.8331649" lon="9.117495"><ele>299.5</ele><time>2026-05-03T14:21:29.644Z</time></trkpt><trkpt lat="44.8333868" lon="9.1173704"><ele>297.0</ele><time>2026-05-03T14:21:30.636Z</time></trkpt><trkpt lat="44.8335921" lon="9.1172692"><ele>297.0</ele><time>2026-05-03T14:21:31.635Z</time></trkpt><trkpt lat="44.8338068" lon="9.1171995"><ele>297.0</ele><time>2026-05-03T14:21:32.629Z</time></trkpt><trkpt lat="44.8340127" lon="9.1170833"><ele>297.0</ele><time>2026-05-03T14:21:33.631Z</time></trkpt><trkpt lat="44.8341957" lon="9.1169514"><ele>297.6666666666667</ele><time>2026-05-03T14:21:34.647Z</time></trkpt><trkpt lat="44.8343633" lon="9.1167835"><ele>298.33333333333337</ele><time>2026-05-03T14:21:35.638Z</time></trkpt><trkpt lat="44.8345322" lon="9.1165827"><ele>299.0</ele><time>2026-05-03T14:21:36.636Z</time></trkpt><trkpt lat="44.8346695" lon="9.1163332"><ele>299.0</ele><time>2026-05-03T14:21:37.642Z</time></trkpt><trkpt lat="44.8348024" lon="9.1160955"><ele>299.0</ele><time>2026-05-03T14:21:38.638Z</time></trkpt><trkpt lat="44.8349794" lon="9.1158447"><ele>296.6666666666667</ele><time>2026-05-03T14:21:39.654Z</time></trkpt><trkpt lat="44.835151" lon="9.1156315"><ele>294.3333333333333</ele><time>2026-05-03T14:21:40.638Z</time></trkpt><trkpt lat="44.8352669" lon="9.1154263"><ele>292.0</ele><time>2026-05-03T14:21:41.638Z</time></trkpt><trkpt lat="44.8353501" lon="9.1152267"><ele>292.0</ele><time>2026-05-03T14:21:42.642Z</time></trkpt><trkpt lat="44.8354645" lon="9.1149617"><ele>292.0</ele><time>2026-05-03T14:21:43.638Z</time></trkpt><trkpt lat="44.8355697" lon="9.1147514"><ele>292.0</ele><time>2026-05-03T14:21:44.644Z</time></trkpt><trkpt lat="44.8356982" lon="9.1144635"><ele>291.5</ele><time>2026-05-03T14:21:45.635Z</time></trkpt><trkpt lat="44.8358255" lon="9.1141979"><ele>291.0</ele><time>2026-05-03T14:21:46.637Z</time></trkpt><trkpt lat="44.8359659" lon="9.113902"><ele>292.5</ele><time>2026-05-03T14:21:47.634Z</time></trkpt><trkpt lat="44.836101" lon="9.1135767"><ele>294.0</ele><time>2026-05-03T14:21:48.635Z</time></trkpt><trkpt lat="44.8361852" lon="9.1132872"><ele>293.6666666666667</ele><time>2026-05-03T14:21:49.647Z</time></trkpt><trkpt lat="44.8362517" lon="9.1130048"><ele>293.33333333333337</ele><time>2026-05-03T14:21:50.636Z</time></trkpt><trkpt lat="44.8363167" lon="9.112732"><ele>293.0</ele><time>2026-05-03T14:21:51.643Z</time></trkpt><trkpt lat="44.8363705" lon="9.1125118"><ele>292.0</ele><time>2026-05-03T14:21:52.648Z</time></trkpt><trkpt lat="44.8364549" lon="9.1122751"><ele>291.0</ele><time>2026-05-03T14:21:53.648Z</time></trkpt><trkpt lat="44.8365796" lon="9.112086"><ele>290.0</ele><time>2026-05-03T14:21:54.647Z</time></trkpt><trkpt lat="44.8367237" lon="9.1119625"><ele>290.5</ele><time>2026-05-03T14:21:55.635Z</time></trkpt><trkpt lat="44.8369314" lon="9.1118798"><ele>291.0</ele><time>2026-05-03T14:21:56.639Z</time></trkpt><trkpt lat="44.8371717" lon="9.1118011"><ele>291.0</ele><time>2026-05-03T14:21:57.64Z</time></trkpt><trkpt lat="44.8373974" lon="9.1116933"><ele>291.0</ele><time>2026-05-03T14:21:58.641Z</time></trkpt><trkpt lat="44.8376409" lon="9.1116071"><ele>289.0</ele><time>2026-05-03T14:21:59.654Z</time></trkpt><trkpt lat="44.8378631" lon="9.1114587"><ele>287.0</ele><time>2026-05-03T14:22:00.637Z</time></trkpt><trkpt lat="44.838074" lon="9.1113388"><ele>287.0</ele><time>2026-05-03T14:22:01.641Z</time></trkpt><trkpt lat="44.8382756" lon="9.1112377"><ele>287.0</ele><time>2026-05-03T14:22:02.638Z</time></trkpt><trkpt lat="44.8384771" lon="9.1111177"><ele>287.0</ele><time>2026-05-03T14:22:03.638Z</time></trkpt><trkpt lat="44.838675" lon="9.1109772"><ele>287.0</ele><time>2026-05-03T14:22:04.643Z</time></trkpt><trkpt lat="44.8388753" lon="9.1108288"><ele>287.0</ele><time>2026-05-03T14:22:05.636Z</time></trkpt><trkpt lat="44.8390788" lon="9.1106815"><ele>287.0</ele><time>2026-05-03T14:22:06.643Z</time></trkpt><trkpt lat="44.8392849" lon="9.1105306"><ele>287.0</ele><time>2026-05-03T14:22:07.642Z</time></trkpt><trkpt lat="44.8394978" lon="9.1103975"><ele>287.0</ele><time>2026-05-03T14:22:08.636Z</time></trkpt><trkpt lat="44.8396797" lon="9.110295"><ele>287.0</ele><time>2026-05-03T14:22:09.638Z</time></trkpt><trkpt lat="44.8398403" lon="9.1101939"><ele>287.0</ele><time>2026-05-03T14:22:10.652Z</time></trkpt><trkpt lat="44.8399876" lon="9.1101057"><ele>287.0</ele><time>2026-05-03T14:22:11.635Z</time></trkpt><trkpt lat="44.8401374" lon="9.1100528"><ele>287.0</ele><time>2026-05-03T14:22:12.635Z</time></trkpt><trkpt lat="44.8403125" lon="9.1099356"><ele>287.0</ele><time>2026-05-03T14:22:13.642Z</time></trkpt><trkpt lat="44.8404547" lon="9.109872"><ele>287.0</ele><time>2026-05-03T14:22:14.639Z</time></trkpt><trkpt lat="44.8406046" lon="9.1097971"><ele>287.0</ele><time>2026-05-03T14:22:15.652Z</time></trkpt><trkpt lat="44.8407386" lon="9.1097167"><ele>287.0</ele><time>2026-05-03T14:22:16.634Z</time></trkpt><trkpt lat="44.8408755" lon="9.109608"><ele>287.5</ele><time>2026-05-03T14:22:17.636Z</time></trkpt><trkpt lat="44.8410065" lon="9.1095302"><ele>288.0</ele><time>2026-05-03T14:22:18.634Z</time></trkpt><trkpt lat="44.8411247" lon="9.1094808"><ele>288.5</ele><time>2026-05-03T14:22:19.635Z</time></trkpt><trkpt lat="44.8412472" lon="9.1094168"><ele>289.0</ele><time>2026-05-03T14:22:20.642Z</time></trkpt><trkpt lat="44.8413448" lon="9.1093973"><ele>289.0</ele><time>2026-05-03T14:22:21.634Z</time></trkpt><trkpt lat="44.8414508" lon="9.1093393"><ele>289.0</ele><time>2026-05-03T14:22:22.635Z</time></trkpt><trkpt lat="44.8415576" lon="9.1092443"><ele>289.0</ele><time>2026-05-03T14:22:23.635Z</time></trkpt><trkpt lat="44.8416438" lon="9.1091193"><ele>289.0</ele><time>2026-05-03T14:22:24.633Z</time></trkpt><trkpt lat="44.8417359" lon="9.1090062"><ele>289.0</ele><time>2026-05-03T14:22:25.649Z</time></trkpt><trkpt lat="44.8418228" lon="9.1088828"><ele>289.0</ele><time>2026-05-03T14:22:26.637Z</time></trkpt><trkpt lat="44.8419011" lon="9.1087549"><ele>289.0</ele><time>2026-05-03T14:22:27.634Z</time></trkpt><trkpt lat="44.8419833" lon="9.1086207"><ele>289.0</ele><time>2026-05-03T14:22:28.636Z</time></trkpt><trkpt lat="44.8420655" lon="9.1084994"><ele>289.0</ele><time>2026-05-03T14:22:29.634Z</time></trkpt><trkpt lat="44.8421485" lon="9.1083701"><ele>289.0</ele><time>2026-05-03T14:22:30.646Z</time></trkpt><trkpt lat="44.8422346" lon="9.108248"><ele>289.0</ele><time>2026-05-03T14:22:31.633Z</time></trkpt><trkpt lat="44.8423269" lon="9.1081383"><ele>289.0</ele><time>2026-05-03T14:22:32.635Z</time></trkpt><trkpt lat="44.8424212" lon="9.1080254"><ele>289.0</ele><time>2026-05-03T14:22:33.614Z</time></trkpt><trkpt lat="44.8425237" lon="9.1079107"><ele>289.0</ele><time>2026-05-03T14:22:34.617Z</time></trkpt><trkpt lat="44.8426281" lon="9.1077931"><ele>289.0</ele><time>2026-05-03T14:22:35.625Z</time></trkpt><trkpt lat="44.8427431" lon="9.1076667"><ele>289.0</ele><time>2026-05-03T14:22:36.627Z</time></trkpt><trkpt lat="44.8428588" lon="9.1075423"><ele>287.3333333333333</ele><time>2026-05-03T14:22:37.617Z</time></trkpt><trkpt lat="44.8429906" lon="9.1074028"><ele>285.6666666666667</ele><time>2026-05-03T14:22:38.619Z</time></trkpt><trkpt lat="44.8431274" lon="9.1072162"><ele>284.0</ele><time>2026-05-03T14:22:39.641Z</time></trkpt><trkpt lat="44.8432903" lon="9.1070392"><ele>284.0</ele><time>2026-05-03T14:22:40.654Z</time></trkpt><trkpt lat="44.8434436" lon="9.1068382"><ele>284.0</ele><time>2026-05-03T14:22:41.637Z</time></trkpt><trkpt lat="44.8435874" lon="9.1066216"><ele>284.0</ele><time>2026-05-03T14:22:42.64Z</time></trkpt><trkpt lat="44.8437304" lon="9.1064401"><ele>283.6666666666667</ele><time>2026-05-03T14:22:43.64Z</time></trkpt><trkpt lat="44.8438562" lon="9.1062506"><ele>283.3333333333333</ele><time>2026-05-03T14:22:44.645Z</time></trkpt><trkpt lat="44.8439724" lon="9.106055"><ele>283.0</ele><time>2026-05-03T14:22:45.649Z</time></trkpt><trkpt lat="44.844097" lon="9.105873"><ele>283.3333333333333</ele><time>2026-05-03T14:22:46.646Z</time></trkpt><trkpt lat="44.8442067" lon="9.1056757"><ele>283.6666666666667</ele><time>2026-05-03T14:22:47.642Z</time></trkpt><trkpt lat="44.844348" lon="9.1055246"><ele>284.0</ele><time>2026-05-03T14:22:48.638Z</time></trkpt><trkpt lat="44.8444819" lon="9.1053076"><ele>284.0</ele><time>2026-05-03T14:22:49.642Z</time></trkpt><trkpt lat="44.8446293" lon="9.1051044"><ele>284.0</ele><time>2026-05-03T14:22:50.648Z</time></trkpt><trkpt lat="44.8447607" lon="9.1049267"><ele>284.0</ele><time>2026-05-03T14:22:51.638Z</time></trkpt><trkpt lat="44.8448996" lon="9.1047252"><ele>283.0</ele><time>2026-05-03T14:22:52.647Z</time></trkpt><trkpt lat="44.8450628" lon="9.1045525"><ele>282.0</ele><time>2026-05-03T14:22:53.642Z</time></trkpt><trkpt lat="44.8451845" lon="9.104345"><ele>281.0</ele><time>2026-05-03T14:22:54.637Z</time></trkpt><trkpt lat="44.8453346" lon="9.1041388"><ele>279.33333333333337</ele><time>2026-05-03T14:22:55.65Z</time></trkpt><trkpt lat="44.8454588" lon="9.1039396"><ele>277.6666666666667</ele><time>2026-05-03T14:22:56.641Z</time></trkpt><trkpt lat="44.8455957" lon="9.1037445"><ele>276.0</ele><time>2026-05-03T14:22:57.639Z</time></trkpt><trkpt lat="44.8457491" lon="9.1035798"><ele>276.0</ele><time>2026-05-03T14:22:58.639Z</time></trkpt><trkpt lat="44.8459069" lon="9.1034264"><ele>276.0</ele><time>2026-05-03T14:22:59.643Z</time></trkpt><trkpt lat="44.8460649" lon="9.1032471"><ele>276.0</ele><time>2026-05-03T14:23:00.637Z</time></trkpt><trkpt lat="44.8461893" lon="9.103088"><ele>276.6666666666667</ele><time>2026-05-03T14:23:01.656Z</time></trkpt><trkpt lat="44.8463263" lon="9.1028856"><ele>277.33333333333337</ele><time>2026-05-03T14:23:02.636Z</time></trkpt><trkpt lat="44.8465019" lon="9.1026756"><ele>278.0</ele><time>2026-05-03T14:23:03.641Z</time></trkpt><trkpt lat="44.8466575" lon="9.102482"><ele>277.6666666666667</ele><time>2026-05-03T14:23:04.637Z</time></trkpt><trkpt lat="44.846833" lon="9.1022671"><ele>277.3333333333333</ele><time>2026-05-03T14:23:05.636Z</time></trkpt><trkpt lat="44.846977" lon="9.1020536"><ele>277.0</ele><time>2026-05-03T14:23:06.647Z</time></trkpt><trkpt lat="44.847107" lon="9.1018942"><ele>277.0</ele><time>2026-05-03T14:23:07.642Z</time></trkpt><trkpt lat="44.8472433" lon="9.1016719"><ele>277.0</ele><time>2026-05-03T14:23:08.64Z</time></trkpt><trkpt lat="44.8473814" lon="9.1014597"><ele>277.0</ele><time>2026-05-03T14:23:09.645Z</time></trkpt><trkpt lat="44.8474963" lon="9.1012922"><ele>276.66666666666663</ele><time>2026-05-03T14:23:10.637Z</time></trkpt><trkpt lat="44.8476136" lon="9.1011814"><ele>276.3333333333333</ele><time>2026-05-03T14:23:11.654Z</time></trkpt><trkpt lat="44.8477287" lon="9.1010265"><ele>276.0</ele><time>2026-05-03T14:23:12.64Z</time></trkpt><trkpt lat="44.8478551" lon="9.1008731"><ele>274.0</ele><time>2026-05-03T14:23:13.634Z</time></trkpt><trkpt lat="44.8479724" lon="9.1006924"><ele>272.0</ele><time>2026-05-03T14:23:14.632Z</time></trkpt><trkpt lat="44.8481136" lon="9.1005395"><ele>270.0</ele><time>2026-05-03T14:23:15.645Z</time></trkpt><trkpt lat="44.8482396" lon="9.1003677"><ele>270.0</ele><time>2026-05-03T14:23:16.648Z</time></trkpt><trkpt lat="44.8483625" lon="9.1001698"><ele>270.0</ele><time>2026-05-03T14:23:17.64Z</time></trkpt><trkpt lat="44.8484779" lon="9.0999988"><ele>270.0</ele><time>2026-05-03T14:23:18.64Z</time></trkpt><trkpt lat="44.8486053" lon="9.0998448"><ele>270.5</ele><time>2026-05-03T14:23:19.641Z</time></trkpt><trkpt lat="44.8487096" lon="9.0997052"><ele>271.0</ele><time>2026-05-03T14:23:20.636Z</time></trkpt><trkpt lat="44.8488229" lon="9.0995769"><ele>271.5</ele><time>2026-05-03T14:23:21.648Z</time></trkpt><trkpt lat="44.8489324" lon="9.0994264"><ele>272.0</ele><time>2026-05-03T14:23:22.641Z</time></trkpt><trkpt lat="44.8490316" lon="9.0992799"><ele>272.0</ele><time>2026-05-03T14:23:23.643Z</time></trkpt><trkpt lat="44.8491426" lon="9.0991503"><ele>272.0</ele><time>2026-05-03T14:23:24.636Z</time></trkpt><trkpt lat="44.8492602" lon="9.099038"><ele>272.0</ele><time>2026-05-03T14:23:25.646Z</time></trkpt><trkpt lat="44.8493769" lon="9.0988862"><ele>272.0</ele><time>2026-05-03T14:23:26.652Z</time></trkpt><trkpt lat="44.8494968" lon="9.0987805"><ele>271.0</ele><time>2026-05-03T14:23:27.639Z</time></trkpt><trkpt lat="44.8496139" lon="9.0986342"><ele>270.0</ele><time>2026-05-03T14:23:28.638Z</time></trkpt><trkpt lat="44.8497503" lon="9.0985369"><ele>269.0</ele><time>2026-05-03T14:23:29.642Z</time></trkpt><trkpt lat="44.8498586" lon="9.0984302"><ele>268.0</ele><time>2026-05-03T14:23:30.642Z</time></trkpt><trkpt lat="44.8499949" lon="9.0983555"><ele>268.0</ele><time>2026-05-03T14:23:31.652Z</time></trkpt><trkpt lat="44.8501074" lon="9.0982895"><ele>268.0</ele><time>2026-05-03T14:23:32.639Z</time></trkpt><trkpt lat="44.8502237" lon="9.098194"><ele>268.0</ele><time>2026-05-03T14:23:33.64Z</time></trkpt><trkpt lat="44.8503242" lon="9.0981081"><ele>268.0</ele><time>2026-05-03T14:23:34.639Z</time></trkpt><trkpt lat="44.8504133" lon="9.0980196"><ele>267.5</ele><time>2026-05-03T14:23:35.64Z</time></trkpt><trkpt lat="44.8505193" lon="9.0979486"><ele>267.0</ele><time>2026-05-03T14:23:36.648Z</time></trkpt><trkpt lat="44.8506198" lon="9.0978828"><ele>266.5</ele><time>2026-05-03T14:23:37.639Z</time></trkpt><trkpt lat="44.8507286" lon="9.0978064"><ele>266.0</ele><time>2026-05-03T14:23:38.638Z</time></trkpt><trkpt lat="44.850828" lon="9.0977362"><ele>266.0</ele><time>2026-05-03T14:23:39.636Z</time></trkpt><trkpt lat="44.8509297" lon="9.0976625"><ele>266.0</ele><time>2026-05-03T14:23:40.635Z</time></trkpt><trkpt lat="44.8510382" lon="9.0975873"><ele>266.0</ele><time>2026-05-03T14:23:41.648Z</time></trkpt><trkpt lat="44.8511478" lon="9.0975035"><ele>266.0</ele><time>2026-05-03T14:23:42.639Z</time></trkpt><trkpt lat="44.8512449" lon="9.0974436"><ele>265.8</ele><time>2026-05-03T14:23:43.639Z</time></trkpt><trkpt lat="44.8513397" lon="9.0973894"><ele>265.6</ele><time>2026-05-03T14:23:44.639Z</time></trkpt><trkpt lat="44.8514207" lon="9.0973308"><ele>265.4</ele><time>2026-05-03T14:23:45.638Z</time></trkpt><trkpt lat="44.851505" lon="9.0972663"><ele>265.2</ele><time>2026-05-03T14:23:46.648Z</time></trkpt><trkpt lat="44.8516004" lon="9.097198"><ele>265.0</ele><time>2026-05-03T14:23:47.64Z</time></trkpt><trkpt lat="44.8517181" lon="9.0971173"><ele>265.0</ele><time>2026-05-03T14:23:48.64Z</time></trkpt><trkpt lat="44.8518417" lon="9.0970243"><ele>265.0</ele><time>2026-05-03T14:23:49.641Z</time></trkpt><trkpt lat="44.8519552" lon="9.0969196"><ele>265.0</ele><time>2026-05-03T14:23:50.644Z</time></trkpt><trkpt lat="44.852097" lon="9.096816"><ele>265.0</ele><time>2026-05-03T14:23:51.652Z</time></trkpt><trkpt lat="44.8522148" lon="9.0967424"><ele>265.0</ele><time>2026-05-03T14:23:52.642Z</time></trkpt><trkpt lat="44.8523372" lon="9.0966386"><ele>265.0</ele><time>2026-05-03T14:23:53.644Z</time></trkpt><trkpt lat="44.852477" lon="9.0965274"><ele>265.0</ele><time>2026-05-03T14:23:54.636Z</time></trkpt><trkpt lat="44.8526037" lon="9.0964294"><ele>265.0</ele><time>2026-05-03T14:23:55.644Z</time></trkpt><trkpt lat="44.8527404" lon="9.0963256"><ele>265.3333333333333</ele><time>2026-05-03T14:23:56.653Z</time></trkpt><trkpt lat="44.8528787" lon="9.0962366"><ele>265.6666666666667</ele><time>2026-05-03T14:23:57.642Z</time></trkpt><trkpt lat="44.8530143" lon="9.0961448"><ele>266.0</ele><time>2026-05-03T14:23:58.643Z</time></trkpt><trkpt lat="44.8531938" lon="9.0960244"><ele>266.0</ele><time>2026-05-03T14:23:59.643Z</time></trkpt><trkpt lat="44.8533578" lon="9.0958801"><ele>266.0</ele><time>2026-05-03T14:24:00.642Z</time></trkpt><trkpt lat="44.8535029" lon="9.0957562"><ele>266.0</ele><time>2026-05-03T14:24:01.654Z</time></trkpt><trkpt lat="44.853635" lon="9.0956344"><ele>265.0</ele><time>2026-05-03T14:24:02.645Z</time></trkpt><trkpt lat="44.8537988" lon="9.0955241"><ele>264.0</ele><time>2026-05-03T14:24:03.643Z</time></trkpt><trkpt lat="44.8539322" lon="9.0954438"><ele>263.0</ele><time>2026-05-03T14:24:04.64Z</time></trkpt><trkpt lat="44.8540811" lon="9.0953302"><ele>263.0</ele><time>2026-05-03T14:24:05.644Z</time></trkpt><trkpt lat="44.854217" lon="9.0952131"><ele>263.0</ele><time>2026-05-03T14:24:06.64Z</time></trkpt><trkpt lat="44.8543619" lon="9.0951628"><ele>263.0</ele><time>2026-05-03T14:24:07.647Z</time></trkpt><trkpt lat="44.8545015" lon="9.0950757"><ele>263.6666666666667</ele><time>2026-05-03T14:24:08.64Z</time></trkpt><trkpt lat="44.8546432" lon="9.0949386"><ele>264.3333333333333</ele><time>2026-05-03T14:24:09.638Z</time></trkpt><trkpt lat="44.8547534" lon="9.0948045"><ele>265.0</ele><time>2026-05-03T14:24:10.64Z</time></trkpt><trkpt lat="44.8548378" lon="9.0946368"><ele>265.0</ele><time>2026-05-03T14:24:11.64Z</time></trkpt><trkpt lat="44.8548847" lon="9.0943609"><ele>265.0</ele><time>2026-05-03T14:24:12.651Z</time></trkpt><trkpt lat="44.8549244" lon="9.0941122"><ele>265.0</ele><time>2026-05-03T14:24:13.639Z</time></trkpt><trkpt lat="44.854962" lon="9.0938557"><ele>265.0</ele><time>2026-05-03T14:24:14.638Z</time></trkpt><trkpt lat="44.854979" lon="9.0935607"><ele>265.0</ele><time>2026-05-03T14:24:15.637Z</time></trkpt><trkpt lat="44.8550092" lon="9.0932646"><ele>265.0</ele><time>2026-05-03T14:24:16.631Z</time></trkpt><trkpt lat="44.8549526" lon="9.0930419"><ele>264.75</ele><time>2026-05-03T14:24:17.652Z</time></trkpt><trkpt lat="44.8549333" lon="9.0928644"><ele>264.5</ele><time>2026-05-03T14:24:18.641Z</time></trkpt><trkpt lat="44.854938" lon="9.0926849"><ele>264.25</ele><time>2026-05-03T14:24:19.642Z</time></trkpt><trkpt lat="44.854956" lon="9.0924326"><ele>264.0</ele><time>2026-05-03T14:24:20.644Z</time></trkpt><trkpt lat="44.854953" lon="9.0921865"><ele>263.3333333333333</ele><time>2026-05-03T14:24:21.646Z</time></trkpt><trkpt lat="44.8549372" lon="9.0919786"><ele>262.66666666666663</ele><time>2026-05-03T14:24:22.645Z</time></trkpt><trkpt lat="44.8549607" lon="9.0917437"><ele>262.0</ele><time>2026-05-03T14:24:23.654Z</time></trkpt><trkpt lat="44.8549913" lon="9.091491"><ele>262.5</ele><time>2026-05-03T14:24:24.643Z</time></trkpt><trkpt lat="44.8550041" lon="9.091282"><ele>263.0</ele><time>2026-05-03T14:24:25.646Z</time></trkpt><trkpt lat="44.8550053" lon="9.091097"><ele>263.5</ele><time>2026-05-03T14:24:26.637Z</time></trkpt><trkpt lat="44.8550524" lon="9.0909251"><ele>264.0</ele><time>2026-05-03T14:24:27.636Z</time></trkpt><trkpt lat="44.8551932" lon="9.0908168"><ele>264.0</ele><time>2026-05-03T14:24:28.659Z</time></trkpt><trkpt lat="44.8552989" lon="9.0906611"><ele>264.0</ele><time>2026-05-03T14:24:29.644Z</time></trkpt><trkpt lat="44.8554381" lon="9.0905333"><ele>264.0</ele><time>2026-05-03T14:24:30.645Z</time></trkpt><trkpt lat="44.8555903" lon="9.0903912"><ele>264.0</ele><time>2026-05-03T14:24:31.65Z</time></trkpt><trkpt lat="44.8557136" lon="9.0902424"><ele>264.0</ele><time>2026-05-03T14:24:32.647Z</time></trkpt><trkpt lat="44.8557989" lon="9.0900825"><ele>264.0</ele><time>2026-05-03T14:24:33.654Z</time></trkpt><trkpt lat="44.8559009" lon="9.0899117"><ele>266.3333333333333</ele><time>2026-05-03T14:24:34.637Z</time></trkpt><trkpt lat="44.8559733" lon="9.0897264"><ele>268.66666666666663</ele><time>2026-05-03T14:24:35.641Z</time></trkpt><trkpt lat="44.8560758" lon="9.0895072"><ele>271.0</ele><time>2026-05-03T14:24:36.639Z</time></trkpt><trkpt lat="44.8561532" lon="9.0893014"><ele>269.3333333333333</ele><time>2026-05-03T14:24:37.642Z</time></trkpt><trkpt lat="44.8561927" lon="9.0890649"><ele>267.6666666666667</ele><time>2026-05-03T14:24:38.656Z</time></trkpt><trkpt lat="44.8562018" lon="9.0888238"><ele>266.0</ele><time>2026-05-03T14:24:39.64Z</time></trkpt><trkpt lat="44.8561926" lon="9.0885976"><ele>266.0</ele><time>2026-05-03T14:24:40.643Z</time></trkpt><trkpt lat="44.8561934" lon="9.0883555"><ele>266.0</ele><time>2026-05-03T14:24:41.645Z</time></trkpt><trkpt lat="44.8561908" lon="9.0881383"><ele>266.0</ele><time>2026-05-03T14:24:42.641Z</time></trkpt><trkpt lat="44.8562321" lon="9.087898"><ele>266.6666666666667</ele><time>2026-05-03T14:24:43.653Z</time></trkpt><trkpt lat="44.8562421" lon="9.0876433"><ele>267.3333333333333</ele><time>2026-05-03T14:24:44.635Z</time></trkpt><trkpt lat="44.8562678" lon="9.0874068"><ele>268.0</ele><time>2026-05-03T14:24:45.639Z</time></trkpt><trkpt lat="44.8562557" lon="9.0871868"><ele>266.66666666666663</ele><time>2026-05-03T14:24:46.639Z</time></trkpt><trkpt lat="44.8563034" lon="9.086936"><ele>265.3333333333333</ele><time>2026-05-03T14:24:47.639Z</time></trkpt><trkpt lat="44.8563466" lon="9.086667"><ele>264.0</ele><time>2026-05-03T14:24:48.652Z</time></trkpt><trkpt lat="44.8563621" lon="9.0863916"><ele>263.0</ele><time>2026-05-03T14:24:49.641Z</time></trkpt><trkpt lat="44.8564054" lon="9.0861222"><ele>262.0</ele><time>2026-05-03T14:24:50.64Z</time></trkpt><trkpt lat="44.8563865" lon="9.0858663"><ele>261.0</ele><time>2026-05-03T14:24:51.636Z</time></trkpt><trkpt lat="44.8564056" lon="9.0856203"><ele>260.0</ele><time>2026-05-03T14:24:52.64Z</time></trkpt><trkpt lat="44.8564145" lon="9.0853847"><ele>259.0</ele><time>2026-05-03T14:24:53.652Z</time></trkpt><trkpt lat="44.8564466" lon="9.0851416"><ele>258.0</ele><time>2026-05-03T14:24:54.636Z</time></trkpt><trkpt lat="44.8564684" lon="9.0849313"><ele>257.0</ele><time>2026-05-03T14:24:55.642Z</time></trkpt><trkpt lat="44.8565106" lon="9.0846354"><ele>256.0</ele><time>2026-05-03T14:24:56.638Z</time></trkpt><trkpt lat="44.8565801" lon="9.0844307"><ele>255.0</ele><time>2026-05-03T14:24:57.639Z</time></trkpt><trkpt lat="44.8566967" lon="9.0842325"><ele>256.3333333333333</ele><time>2026-05-03T14:24:58.647Z</time></trkpt><trkpt lat="44.8568479" lon="9.0840935"><ele>257.66666666666663</ele><time>2026-05-03T14:24:59.641Z</time></trkpt><trkpt lat="44.8570008" lon="9.0839492"><ele>259.0</ele><time>2026-05-03T14:25:00.644Z</time></trkpt><trkpt lat="44.8571086" lon="9.0838422"><ele>259.0</ele><time>2026-05-03T14:25:01.635Z</time></trkpt><trkpt lat="44.8571977" lon="9.0837501"><ele>259.0</ele><time>2026-05-03T14:25:02.636Z</time></trkpt><trkpt lat="44.8573147" lon="9.0836581"><ele>259.0</ele><time>2026-05-03T14:25:03.645Z</time></trkpt><trkpt lat="44.8574089" lon="9.0835438"><ele>259.0</ele><time>2026-05-03T14:25:04.633Z</time></trkpt><trkpt lat="44.8575086" lon="9.0834657"><ele>259.25</ele><time>2026-05-03T14:25:05.632Z</time></trkpt><trkpt lat="44.8576269" lon="9.083367"><ele>259.5</ele><time>2026-05-03T14:25:06.628Z</time></trkpt><trkpt lat="44.8577211" lon="9.0832574"><ele>259.75</ele><time>2026-05-03T14:25:07.629Z</time></trkpt><trkpt lat="44.8578225" lon="9.0831484"><ele>260.0</ele><time>2026-05-03T14:25:08.642Z</time></trkpt><trkpt lat="44.8579282" lon="9.0830158"><ele>258.5</ele><time>2026-05-03T14:25:09.637Z</time></trkpt><trkpt lat="44.8580321" lon="9.0829312"><ele>257.0</ele><time>2026-05-03T14:25:10.637Z</time></trkpt><trkpt lat="44.8581417" lon="9.0828128"><ele>255.5</ele><time>2026-05-03T14:25:11.64Z</time></trkpt><trkpt lat="44.8582929" lon="9.0826672"><ele>254.0</ele><time>2026-05-03T14:25:12.639Z</time></trkpt><trkpt lat="44.8584223" lon="9.0825352"><ele>252.66666666666669</ele><time>2026-05-03T14:25:13.649Z</time></trkpt><trkpt lat="44.8585483" lon="9.0823989"><ele>251.33333333333331</ele><time>2026-05-03T14:25:14.636Z</time></trkpt><trkpt lat="44.8586601" lon="9.0822724"><ele>250.0</ele><time>2026-05-03T14:25:15.638Z</time></trkpt><trkpt lat="44.8587989" lon="9.082144"><ele>250.0</ele><time>2026-05-03T14:25:16.634Z</time></trkpt><trkpt lat="44.8589274" lon="9.0820204"><ele>250.0</ele><time>2026-05-03T14:25:17.634Z</time></trkpt><trkpt lat="44.8590516" lon="9.0819062"><ele>250.0</ele><time>2026-05-03T14:25:18.648Z</time></trkpt><trkpt lat="44.8591442" lon="9.0818019"><ele>250.0</ele><time>2026-05-03T14:25:19.638Z</time></trkpt><trkpt lat="44.8592645" lon="9.0817447"><ele>251.0</ele><time>2026-05-03T14:25:20.639Z</time></trkpt><trkpt lat="44.8593859" lon="9.0816446"><ele>252.0</ele><time>2026-05-03T14:25:21.64Z</time></trkpt><trkpt lat="44.8594822" lon="9.0815752"><ele>253.0</ele><time>2026-05-03T14:25:22.642Z</time></trkpt><trkpt lat="44.8595884" lon="9.0814683"><ele>254.0</ele><time>2026-05-03T14:25:23.654Z</time></trkpt><trkpt lat="44.8596994" lon="9.0813115"><ele>254.0</ele><time>2026-05-03T14:25:24.637Z</time></trkpt><trkpt lat="44.8597644" lon="9.0811027"><ele>254.0</ele><time>2026-05-03T14:25:25.634Z</time></trkpt><trkpt lat="44.8598428" lon="9.0808737"><ele>254.0</ele><time>2026-05-03T14:25:26.631Z</time></trkpt><trkpt lat="44.8598685" lon="9.0806432"><ele>252.33333333333334</ele><time>2026-05-03T14:25:27.631Z</time></trkpt><trkpt lat="44.8599468" lon="9.0804132"><ele>250.66666666666669</ele><time>2026-05-03T14:25:28.632Z</time></trkpt><trkpt lat="44.8599664" lon="9.0802385"><ele>249.0</ele><time>2026-05-03T14:25:29.639Z</time></trkpt><trkpt lat="44.8599823" lon="9.0800197"><ele>248.0</ele><time>2026-05-03T14:25:30.641Z</time></trkpt><trkpt lat="44.8599714" lon="9.0797992"><ele>247.0</ele><time>2026-05-03T14:25:31.639Z</time></trkpt><trkpt lat="44.860089" lon="9.079589"><ele>246.0</ele><time>2026-05-03T14:25:32.644Z</time></trkpt><trkpt lat="44.8602027" lon="9.0793875"><ele>245.0</ele><time>2026-05-03T14:25:33.652Z</time></trkpt><trkpt lat="44.8603376" lon="9.0791811"><ele>244.0</ele><time>2026-05-03T14:25:34.636Z</time></trkpt><trkpt lat="44.8605132" lon="9.0789647"><ele>243.0</ele><time>2026-05-03T14:25:35.644Z</time></trkpt><trkpt lat="44.8607096" lon="9.0787497"><ele>243.0</ele><time>2026-05-03T14:25:36.638Z</time></trkpt><trkpt lat="44.8608346" lon="9.0785264"><ele>243.0</ele><time>2026-05-03T14:25:37.641Z</time></trkpt><trkpt lat="44.8609763" lon="9.0783163"><ele>243.0</ele><time>2026-05-03T14:25:38.636Z</time></trkpt><trkpt lat="44.8611376" lon="9.0781324"><ele>244.0</ele><time>2026-05-03T14:25:39.639Z</time></trkpt><trkpt lat="44.8612842" lon="9.0779363"><ele>245.0</ele><time>2026-05-03T14:25:40.638Z</time></trkpt><trkpt lat="44.8614185" lon="9.0777198"><ele>246.0</ele><time>2026-05-03T14:25:41.64Z</time></trkpt><trkpt lat="44.8615109" lon="9.0774931"><ele>244.66666666666669</ele><time>2026-05-03T14:25:42.636Z</time></trkpt><trkpt lat="44.8616329" lon="9.0772711"><ele>243.33333333333334</ele><time>2026-05-03T14:25:43.643Z</time></trkpt><trkpt lat="44.8617434" lon="9.0770682"><ele>242.0</ele><time>2026-05-03T14:25:44.635Z</time></trkpt><trkpt lat="44.8618064" lon="9.0768297"><ele>248.66666666666669</ele><time>2026-05-03T14:25:45.633Z</time></trkpt><trkpt lat="44.8618882" lon="9.0765884"><ele>255.33333333333331</ele><time>2026-05-03T14:25:46.635Z</time></trkpt><trkpt lat="44.8619421" lon="9.0763088"><ele>262.0</ele><time>2026-05-03T14:25:47.637Z</time></trkpt><trkpt lat="44.8620206" lon="9.0760286"><ele>259.5</ele><time>2026-05-03T14:25:48.64Z</time></trkpt><trkpt lat="44.8620755" lon="9.0757188"><ele>257.0</ele><time>2026-05-03T14:25:49.637Z</time></trkpt><trkpt lat="44.8620995" lon="9.0753553"><ele>257.0</ele><time>2026-05-03T14:25:50.634Z</time></trkpt><trkpt lat="44.8621561" lon="9.0750715"><ele>257.0</ele><time>2026-05-03T14:25:51.641Z</time></trkpt><trkpt lat="44.8622196" lon="9.0747594"><ele>257.0</ele><time>2026-05-03T14:25:52.633Z</time></trkpt><trkpt lat="44.8622888" lon="9.0744888"><ele>255.5</ele><time>2026-05-03T14:25:53.64Z</time></trkpt><trkpt lat="44.8623558" lon="9.0742888"><ele>254.0</ele><time>2026-05-03T14:25:54.627Z</time></trkpt><trkpt lat="44.8623936" lon="9.0741241"><ele>252.5</ele><time>2026-05-03T14:25:55.636Z</time></trkpt><trkpt lat="44.8624149" lon="9.0739271"><ele>251.0</ele><time>2026-05-03T14:25:56.629Z</time></trkpt><trkpt lat="44.8624802" lon="9.0737476"><ele>248.75</ele><time>2026-05-03T14:25:57.635Z</time></trkpt><trkpt lat="44.8625447" lon="9.0735696"><ele>246.5</ele><time>2026-05-03T14:25:58.637Z</time></trkpt><trkpt lat="44.8626086" lon="9.0734053"><ele>244.25</ele><time>2026-05-03T14:25:59.635Z</time></trkpt><trkpt lat="44.8626644" lon="9.0732395"><ele>242.0</ele><time>2026-05-03T14:26:00.644Z</time></trkpt><trkpt lat="44.8627495" lon="9.073029"><ele>240.0</ele><time>2026-05-03T14:26:01.639Z</time></trkpt><trkpt lat="44.8628271" lon="9.0728344"><ele>238.0</ele><time>2026-05-03T14:26:02.636Z</time></trkpt><trkpt lat="44.8629061" lon="9.0726436"><ele>236.0</ele><time>2026-05-03T14:26:03.635Z</time></trkpt><trkpt lat="44.8629749" lon="9.0724615"><ele>234.33333333333334</ele><time>2026-05-03T14:26:04.637Z</time></trkpt><trkpt lat="44.8630795" lon="9.0723097"><ele>232.66666666666669</ele><time>2026-05-03T14:26:05.639Z</time></trkpt><trkpt lat="44.8632285" lon="9.0721505"><ele>231.0</ele><time>2026-05-03T14:26:06.639Z</time></trkpt><trkpt lat="44.86338" lon="9.0720054"><ele>231.0</ele><time>2026-05-03T14:26:07.637Z</time></trkpt><trkpt lat="44.8635655" lon="9.0718886"><ele>231.0</ele><time>2026-05-03T14:26:08.637Z</time></trkpt><trkpt lat="44.8637364" lon="9.0717748"><ele>231.0</ele><time>2026-05-03T14:26:09.64Z</time></trkpt><trkpt lat="44.8639136" lon="9.0717233"><ele>231.0</ele><time>2026-05-03T14:26:10.64Z</time></trkpt><trkpt lat="44.8640871" lon="9.0716987"><ele>231.0</ele><time>2026-05-03T14:26:11.643Z</time></trkpt><trkpt lat="44.8642723" lon="9.0716912"><ele>231.0</ele><time>2026-05-03T14:26:12.637Z</time></trkpt><trkpt lat="44.864477" lon="9.0716143"><ele>231.33333333333331</ele><time>2026-05-03T14:26:13.636Z</time></trkpt><trkpt lat="44.8646574" lon="9.0715792"><ele>231.66666666666666</ele><time>2026-05-03T14:26:14.635Z</time></trkpt><trkpt lat="44.864884" lon="9.0715913"><ele>232.0</ele><time>2026-05-03T14:26:15.644Z</time></trkpt><trkpt lat="44.865126" lon="9.0715402"><ele>232.0</ele><time>2026-05-03T14:26:16.637Z</time></trkpt><trkpt lat="44.8653553" lon="9.0715055"><ele>232.0</ele><time>2026-05-03T14:26:17.636Z</time></trkpt><trkpt lat="44.8655799" lon="9.0714647"><ele>232.0</ele><time>2026-05-03T14:26:18.64Z</time></trkpt><trkpt lat="44.8657988" lon="9.0714429"><ele>232.0</ele><time>2026-05-03T14:26:19.641Z</time></trkpt><trkpt lat="44.865981" lon="9.0714369"><ele>232.0</ele><time>2026-05-03T14:26:20.636Z</time></trkpt><trkpt lat="44.8661435" lon="9.0714194"><ele>232.0</ele><time>2026-05-03T14:26:21.643Z</time></trkpt><trkpt lat="44.8663044" lon="9.0713722"><ele>232.0</ele><time>2026-05-03T14:26:22.638Z</time></trkpt><trkpt lat="44.8664656" lon="9.0713621"><ele>232.0</ele><time>2026-05-03T14:26:23.633Z</time></trkpt><trkpt lat="44.8666347" lon="9.0713099"><ele>231.0</ele><time>2026-05-03T14:26:24.633Z</time></trkpt><trkpt lat="44.8668075" lon="9.0712419"><ele>230.0</ele><time>2026-05-03T14:26:25.638Z</time></trkpt><trkpt lat="44.8669661" lon="9.071208"><ele>229.0</ele><time>2026-05-03T14:26:26.632Z</time></trkpt><trkpt lat="44.8671647" lon="9.0711621"><ele>229.0</ele><time>2026-05-03T14:26:27.634Z</time></trkpt><trkpt lat="44.8674103" lon="9.0711161"><ele>229.0</ele><time>2026-05-03T14:26:28.638Z</time></trkpt><trkpt lat="44.867612" lon="9.07106"><ele>229.66666666666666</ele><time>2026-05-03T14:26:29.635Z</time></trkpt><trkpt lat="44.8678167" lon="9.0710499"><ele>230.33333333333331</ele><time>2026-05-03T14:26:30.641Z</time></trkpt><trkpt lat="44.8680057" lon="9.0710309"><ele>231.0</ele><time>2026-05-03T14:26:31.633Z</time></trkpt><trkpt lat="44.8681797" lon="9.0709863"><ele>231.0</ele><time>2026-05-03T14:26:32.634Z</time></trkpt><trkpt lat="44.8683522" lon="9.0709456"><ele>231.0</ele><time>2026-05-03T14:26:33.634Z</time></trkpt><trkpt lat="44.8684804" lon="9.0709063"><ele>231.0</ele><time>2026-05-03T14:26:34.632Z</time></trkpt><trkpt lat="44.8685687" lon="9.0709149"><ele>231.0</ele><time>2026-05-03T14:26:35.627Z</time></trkpt><trkpt lat="44.8686726" lon="9.0708879"><ele>231.66666666666666</ele><time>2026-05-03T14:26:37.636Z</time></trkpt><trkpt lat="44.8687299" lon="9.0708202"><ele>232.33333333333331</ele><time>2026-05-03T14:26:40.641Z</time></trkpt><trkpt lat="44.8688122" lon="9.0708192"><ele>233.0</ele><time>2026-05-03T14:26:42.635Z</time></trkpt><trkpt lat="44.8689346" lon="9.07081"><ele>233.66666666666666</ele><time>2026-05-03T14:26:44.639Z</time></trkpt><trkpt lat="44.8690051" lon="9.0708249"><ele>234.33333333333331</ele><time>2026-05-03T14:26:45.643Z</time></trkpt><trkpt lat="44.8690675" lon="9.070841"><ele>235.0</ele><time>2026-05-03T14:26:46.634Z</time></trkpt><trkpt lat="44.8692027" lon="9.0708533"><ele>235.4</ele><time>2026-05-03T14:26:48.634Z</time></trkpt><trkpt lat="44.8692846" lon="9.070851"><ele>235.8</ele><time>2026-05-03T14:26:49.634Z</time></trkpt><trkpt lat="44.869365" lon="9.0708416"><ele>236.2</ele><time>2026-05-03T14:26:50.645Z</time></trkpt><trkpt lat="44.869453" lon="9.0708002"><ele>236.6</ele><time>2026-05-03T14:26:51.638Z</time></trkpt><trkpt lat="44.8695621" lon="9.0707307"><ele>237.0</ele><time>2026-05-03T14:26:52.631Z</time></trkpt><trkpt lat="44.8696731" lon="9.0706331"><ele>237.0</ele><time>2026-05-03T14:26:53.634Z</time></trkpt><trkpt lat="44.8697827" lon="9.0705282"><ele>237.0</ele><time>2026-05-03T14:26:54.636Z</time></trkpt><trkpt lat="44.8698724" lon="9.0704075"><ele>237.0</ele><time>2026-05-03T14:26:55.634Z</time></trkpt><trkpt lat="44.8699514" lon="9.0702717"><ele>237.0</ele><time>2026-05-03T14:26:56.633Z</time></trkpt><trkpt lat="44.8700121" lon="9.0701397"><ele>237.0</ele><time>2026-05-03T14:26:57.633Z</time></trkpt><trkpt lat="44.8700697" lon="9.0699621"><ele>237.0</ele><time>2026-05-03T14:26:58.64Z</time></trkpt><trkpt lat="44.8701181" lon="9.0697047"><ele>237.0</ele><time>2026-05-03T14:26:59.642Z</time></trkpt><trkpt lat="44.8701528" lon="9.0693843"><ele>237.0</ele><time>2026-05-03T14:27:00.645Z</time></trkpt><trkpt lat="44.8702014" lon="9.0691906"><ele>237.0</ele><time>2026-05-03T14:27:01.64Z</time></trkpt><trkpt lat="44.8702025" lon="9.0690064"><ele>237.0</ele><time>2026-05-03T14:27:02.642Z</time></trkpt><trkpt lat="44.8702797" lon="9.0688149"><ele>237.0</ele><time>2026-05-03T14:27:03.642Z</time></trkpt><trkpt lat="44.8704057" lon="9.0686802"><ele>237.0</ele><time>2026-05-03T14:27:04.64Z</time></trkpt><trkpt lat="44.8705363" lon="9.0685288"><ele>237.0</ele><time>2026-05-03T14:27:05.646Z</time></trkpt><trkpt lat="44.8706185" lon="9.068396"><ele>237.0</ele><time>2026-05-03T14:27:06.637Z</time></trkpt><trkpt lat="44.8707217" lon="9.0682837"><ele>237.0</ele><time>2026-05-03T14:27:07.635Z</time></trkpt><trkpt lat="44.870817" lon="9.0682111"><ele>235.0</ele><time>2026-05-03T14:27:08.638Z</time></trkpt><trkpt lat="44.8709249" lon="9.0680629"><ele>233.0</ele><time>2026-05-03T14:27:09.636Z</time></trkpt><trkpt lat="44.8710618" lon="9.0679539"><ele>231.0</ele><time>2026-05-03T14:27:10.639Z</time></trkpt><trkpt lat="44.8712127" lon="9.067872"><ele>230.0</ele><time>2026-05-03T14:27:11.636Z</time></trkpt><trkpt lat="44.8713717" lon="9.0677784"><ele>229.0</ele><time>2026-05-03T14:27:12.64Z</time></trkpt><trkpt lat="44.8715351" lon="9.0677576"><ele>228.0</ele><time>2026-05-03T14:27:13.645Z</time></trkpt><trkpt lat="44.8716883" lon="9.0677462"><ele>228.25</ele><time>2026-05-03T14:27:14.639Z</time></trkpt><trkpt lat="44.8718602" lon="9.0677322"><ele>228.5</ele><time>2026-05-03T14:27:15.636Z</time></trkpt><trkpt lat="44.8719778" lon="9.0676559"><ele>228.75</ele><time>2026-05-03T14:27:16.643Z</time></trkpt><trkpt lat="44.8721124" lon="9.0676713"><ele>229.0</ele><time>2026-05-03T14:27:17.642Z</time></trkpt><trkpt lat="44.8722455" lon="9.067635"><ele>229.0</ele><time>2026-05-03T14:27:18.637Z</time></trkpt><trkpt lat="44.8724193" lon="9.0676286"><ele>229.0</ele><time>2026-05-03T14:27:19.639Z</time></trkpt><trkpt lat="44.8726272" lon="9.0675705"><ele>229.0</ele><time>2026-05-03T14:27:20.637Z</time></trkpt><trkpt lat="44.8727633" lon="9.0674979"><ele>228.66666666666666</ele><time>2026-05-03T14:27:21.64Z</time></trkpt><trkpt lat="44.8728939" lon="9.0673842"><ele>228.33333333333331</ele><time>2026-05-03T14:27:22.644Z</time></trkpt><trkpt lat="44.8730257" lon="9.0672192"><ele>228.0</ele><time>2026-05-03T14:27:23.641Z</time></trkpt><trkpt lat="44.8731413" lon="9.0671056"><ele>228.0</ele><time>2026-05-03T14:27:24.642Z</time></trkpt><trkpt lat="44.8732759" lon="9.0669244"><ele>228.0</ele><time>2026-05-03T14:27:25.641Z</time></trkpt><trkpt lat="44.8734193" lon="9.0667258"><ele>228.0</ele><time>2026-05-03T14:27:26.642Z</time></trkpt><trkpt lat="44.8735969" lon="9.0665136"><ele>228.0</ele><time>2026-05-03T14:27:27.638Z</time></trkpt><trkpt lat="44.8737703" lon="9.066306"><ele>228.0</ele><time>2026-05-03T14:27:28.644Z</time></trkpt><trkpt lat="44.8739067" lon="9.0660766"><ele>228.0</ele><time>2026-05-03T14:27:29.639Z</time></trkpt><trkpt lat="44.8740588" lon="9.0658967"><ele>228.0</ele><time>2026-05-03T14:27:30.644Z</time></trkpt><trkpt lat="44.8741945" lon="9.0657904"><ele>228.0</ele><time>2026-05-03T14:27:31.639Z</time></trkpt><trkpt lat="44.8742868" lon="9.0656836"><ele>228.0</ele><time>2026-05-03T14:27:32.638Z</time></trkpt><trkpt lat="44.8743625" lon="9.0655375"><ele>228.0</ele><time>2026-05-03T14:27:33.639Z</time></trkpt><trkpt lat="44.8744512" lon="9.0654177"><ele>226.75</ele><time>2026-05-03T14:27:34.634Z</time></trkpt><trkpt lat="44.8745336" lon="9.0652977"><ele>225.5</ele><time>2026-05-03T14:27:35.635Z</time></trkpt><trkpt lat="44.874638" lon="9.0652064"><ele>224.25</ele><time>2026-05-03T14:27:36.635Z</time></trkpt><trkpt lat="44.8747637" lon="9.0650864"><ele>223.0</ele><time>2026-05-03T14:27:37.633Z</time></trkpt><trkpt lat="44.8749427" lon="9.0650006"><ele>220.33333333333331</ele><time>2026-05-03T14:27:38.634Z</time></trkpt><trkpt lat="44.8751259" lon="9.0649139"><ele>217.66666666666669</ele><time>2026-05-03T14:27:39.634Z</time></trkpt><trkpt lat="44.8753528" lon="9.064818"><ele>215.0</ele><time>2026-05-03T14:27:40.63Z</time></trkpt><trkpt lat="44.8755621" lon="9.0647518"><ele>215.0</ele><time>2026-05-03T14:27:41.631Z</time></trkpt><trkpt lat="44.8757534" lon="9.0646986"><ele>215.0</ele><time>2026-05-03T14:27:42.636Z</time></trkpt><trkpt lat="44.8759137" lon="9.0646327"><ele>215.0</ele><time>2026-05-03T14:27:43.633Z</time></trkpt><trkpt lat="44.8760598" lon="9.0645688"><ele>216.0</ele><time>2026-05-03T14:27:44.628Z</time></trkpt><trkpt lat="44.8762069" lon="9.0645286"><ele>217.0</ele><time>2026-05-03T14:27:45.627Z</time></trkpt><trkpt lat="44.8763812" lon="9.0644844"><ele>218.0</ele><time>2026-05-03T14:27:46.631Z</time></trkpt><trkpt lat="44.8765222" lon="9.0644405"><ele>218.0</ele><time>2026-05-03T14:27:47.628Z</time></trkpt><trkpt lat="44.8766577" lon="9.0644124"><ele>218.0</ele><time>2026-05-03T14:27:48.629Z</time></trkpt><trkpt lat="44.8767906" lon="9.064391"><ele>218.0</ele><time>2026-05-03T14:27:49.627Z</time></trkpt><trkpt lat="44.8769182" lon="9.0643506"><ele>218.0</ele><time>2026-05-03T14:27:50.633Z</time></trkpt><trkpt lat="44.8770449" lon="9.0642786"><ele>219.25</ele><time>2026-05-03T14:27:51.635Z</time></trkpt><trkpt lat="44.8771688" lon="9.0642338"><ele>220.5</ele><time>2026-05-03T14:27:52.631Z</time></trkpt><trkpt lat="44.877299" lon="9.0642191"><ele>221.75</ele><time>2026-05-03T14:27:53.633Z</time></trkpt><trkpt lat="44.877454" lon="9.0641616"><ele>223.0</ele><time>2026-05-03T14:27:54.633Z</time></trkpt><trkpt lat="44.8775862" lon="9.0641351"><ele>220.75</ele><time>2026-05-03T14:27:55.638Z</time></trkpt><trkpt lat="44.8777038" lon="9.0640777"><ele>218.5</ele><time>2026-05-03T14:27:56.632Z</time></trkpt><trkpt lat="44.8778276" lon="9.0639998"><ele>216.25</ele><time>2026-05-03T14:27:57.635Z</time></trkpt><trkpt lat="44.8779416" lon="9.0639653"><ele>214.0</ele><time>2026-05-03T14:27:58.638Z</time></trkpt><trkpt lat="44.8780618" lon="9.0639109"><ele>214.0</ele><time>2026-05-03T14:27:59.641Z</time></trkpt><trkpt lat="44.8781472" lon="9.0638894"><ele>213.99999999999997</ele><time>2026-05-03T14:28:00.639Z</time></trkpt><trkpt lat="44.8782504" lon="9.0638533"><ele>213.99999999999997</ele><time>2026-05-03T14:28:01.63Z</time></trkpt><trkpt lat="44.8783547" lon="9.0638147"><ele>214.0</ele><time>2026-05-03T14:28:02.632Z</time></trkpt><trkpt lat="44.8784805" lon="9.0637407"><ele>214.0</ele><time>2026-05-03T14:28:03.636Z</time></trkpt><trkpt lat="44.8786081" lon="9.0636737"><ele>215.0</ele><time>2026-05-03T14:28:04.642Z</time></trkpt><trkpt lat="44.8787343" lon="9.0636365"><ele>216.0</ele><time>2026-05-03T14:28:05.639Z</time></trkpt><trkpt lat="44.8788567" lon="9.0635966"><ele>217.0</ele><time>2026-05-03T14:28:06.634Z</time></trkpt><trkpt lat="44.8789912" lon="9.06355"><ele>218.0</ele><time>2026-05-03T14:28:07.642Z</time></trkpt><trkpt lat="44.879127" lon="9.063506"><ele>218.0</ele><time>2026-05-03T14:28:08.636Z</time></trkpt><trkpt lat="44.8792585" lon="9.0634658"><ele>218.0</ele><time>2026-05-03T14:28:09.636Z</time></trkpt><trkpt lat="44.8793819" lon="9.0634287"><ele>218.0</ele><time>2026-05-03T14:28:10.636Z</time></trkpt><trkpt lat="44.879494" lon="9.0633749"><ele>218.0</ele><time>2026-05-03T14:28:11.639Z</time></trkpt><trkpt lat="44.8796036" lon="9.0633235"><ele>217.25</ele><time>2026-05-03T14:28:12.636Z</time></trkpt><trkpt lat="44.8797151" lon="9.0632592"><ele>216.5</ele><time>2026-05-03T14:28:13.635Z</time></trkpt><trkpt lat="44.8798244" lon="9.0631586"><ele>215.75</ele><time>2026-05-03T14:28:14.636Z</time></trkpt><trkpt lat="44.8799344" lon="9.063041"><ele>215.0</ele><time>2026-05-03T14:28:15.64Z</time></trkpt><trkpt lat="44.8800265" lon="9.0629139"><ele>215.25</ele><time>2026-05-03T14:28:16.643Z</time></trkpt><trkpt lat="44.8801071" lon="9.062766"><ele>215.5</ele><time>2026-05-03T14:28:17.642Z</time></trkpt><trkpt lat="44.8801788" lon="9.0626305"><ele>215.75</ele><time>2026-05-03T14:28:18.641Z</time></trkpt><trkpt lat="44.8802509" lon="9.0625052"><ele>216.0</ele><time>2026-05-03T14:28:19.644Z</time></trkpt><trkpt lat="44.8803253" lon="9.0623715"><ele>216.0</ele><time>2026-05-03T14:28:20.643Z</time></trkpt><trkpt lat="44.8804043" lon="9.0622267"><ele>216.0</ele><time>2026-05-03T14:28:21.644Z</time></trkpt><trkpt lat="44.8804816" lon="9.0620848"><ele>216.0</ele><time>2026-05-03T14:28:22.636Z</time></trkpt><trkpt lat="44.880574" lon="9.0619523"><ele>216.0</ele><time>2026-05-03T14:28:23.637Z</time></trkpt><trkpt lat="44.880644" lon="9.0618183"><ele>216.0</ele><time>2026-05-03T14:28:24.639Z</time></trkpt><trkpt lat="44.880723" lon="9.0616734"><ele>216.0</ele><time>2026-05-03T14:28:25.64Z</time></trkpt><trkpt lat="44.8808142" lon="9.0615589"><ele>216.0</ele><time>2026-05-03T14:28:26.639Z</time></trkpt><trkpt lat="44.880907" lon="9.0614431"><ele>216.0</ele><time>2026-05-03T14:28:27.642Z</time></trkpt><trkpt lat="44.8809725" lon="9.0613347"><ele>216.60000000000002</ele><time>2026-05-03T14:28:28.641Z</time></trkpt><trkpt lat="44.8810252" lon="9.0611982"><ele>217.20000000000002</ele><time>2026-05-03T14:28:29.638Z</time></trkpt><trkpt lat="44.8810933" lon="9.0610905"><ele>217.79999999999998</ele><time>2026-05-03T14:28:30.639Z</time></trkpt><trkpt lat="44.8811898" lon="9.060984"><ele>218.39999999999998</ele><time>2026-05-03T14:28:31.636Z</time></trkpt><trkpt lat="44.8812508" lon="9.060859"><ele>219.0</ele><time>2026-05-03T14:28:32.638Z</time></trkpt><trkpt lat="44.8813457" lon="9.060725"><ele>217.75</ele><time>2026-05-03T14:28:33.637Z</time></trkpt><trkpt lat="44.8814496" lon="9.0605966"><ele>216.5</ele><time>2026-05-03T14:28:34.632Z</time></trkpt><trkpt lat="44.8815693" lon="9.0604686"><ele>215.25</ele><time>2026-05-03T14:28:35.631Z</time></trkpt><trkpt lat="44.8817025" lon="9.0603604"><ele>214.0</ele><time>2026-05-03T14:28:36.634Z</time></trkpt><trkpt lat="44.8818408" lon="9.0602532"><ele>214.0</ele><time>2026-05-03T14:28:37.64Z</time></trkpt><trkpt lat="44.8819946" lon="9.0601335"><ele>214.0</ele><time>2026-05-03T14:28:38.636Z</time></trkpt><trkpt lat="44.882133" lon="9.0600915"><ele>214.0</ele><time>2026-05-03T14:28:39.638Z</time></trkpt><trkpt lat="44.882274" lon="9.0600615"><ele>214.0</ele><time>2026-05-03T14:28:40.638Z</time></trkpt><trkpt lat="44.8824076" lon="9.0600047"><ele>214.0</ele><time>2026-05-03T14:28:41.638Z</time></trkpt><trkpt lat="44.882547" lon="9.0599235"><ele>214.0</ele><time>2026-05-03T14:28:42.64Z</time></trkpt><trkpt lat="44.8826916" lon="9.0598323"><ele>214.0</ele><time>2026-05-03T14:28:43.64Z</time></trkpt><trkpt lat="44.8828333" lon="9.0597387"><ele>214.0</ele><time>2026-05-03T14:28:44.637Z</time></trkpt><trkpt lat="44.8830154" lon="9.0596055"><ele>214.0</ele><time>2026-05-03T14:28:45.639Z</time></trkpt><trkpt lat="44.8832159" lon="9.0594573"><ele>214.0</ele><time>2026-05-03T14:28:46.638Z</time></trkpt><trkpt lat="44.8834532" lon="9.0593313"><ele>214.0</ele><time>2026-05-03T14:28:47.642Z</time></trkpt><trkpt lat="44.8836513" lon="9.0591633"><ele>214.0</ele><time>2026-05-03T14:28:48.641Z</time></trkpt><trkpt lat="44.8838293" lon="9.05905"><ele>214.0</ele><time>2026-05-03T14:28:49.639Z</time></trkpt><trkpt lat="44.8839766" lon="9.0589538"><ele>213.25</ele><time>2026-05-03T14:28:50.644Z</time></trkpt><trkpt lat="44.8841082" lon="9.0589046"><ele>212.5</ele><time>2026-05-03T14:28:51.635Z</time></trkpt><trkpt lat="44.8842351" lon="9.0588625"><ele>211.75</ele><time>2026-05-03T14:28:52.641Z</time></trkpt><trkpt lat="44.8843664" lon="9.0587985"><ele>211.0</ele><time>2026-05-03T14:28:53.639Z</time></trkpt><trkpt lat="44.8844944" lon="9.0588089"><ele>210.33333333333331</ele><time>2026-05-03T14:28:54.64Z</time></trkpt><trkpt lat="44.8846225" lon="9.058837"><ele>209.66666666666669</ele><time>2026-05-03T14:28:55.645Z</time></trkpt><trkpt lat="44.884774" lon="9.0588809"><ele>209.0</ele><time>2026-05-03T14:28:56.638Z</time></trkpt><trkpt lat="44.8849657" lon="9.0589538"><ele>209.33333333333334</ele><time>2026-05-03T14:28:57.635Z</time></trkpt><trkpt lat="44.8850994" lon="9.0590367"><ele>209.66666666666669</ele><time>2026-05-03T14:28:58.642Z</time></trkpt><trkpt lat="44.8852829" lon="9.0591121"><ele>210.0</ele><time>2026-05-03T14:28:59.645Z</time></trkpt><trkpt lat="44.8854879" lon="9.0591411"><ele>210.0</ele><time>2026-05-03T14:29:00.65Z</time></trkpt><trkpt lat="44.8856734" lon="9.0592282"><ele>210.0</ele><time>2026-05-03T14:29:01.641Z</time></trkpt><trkpt lat="44.8859083" lon="9.0592928"><ele>210.0</ele><time>2026-05-03T14:29:02.645Z</time></trkpt><trkpt lat="44.886138" lon="9.0594283"><ele>208.0</ele><time>2026-05-03T14:29:03.645Z</time></trkpt><trkpt lat="44.8863629" lon="9.0595583"><ele>206.0</ele><time>2026-05-03T14:29:04.642Z</time></trkpt><trkpt lat="44.8865546" lon="9.0596494"><ele>204.0</ele><time>2026-05-03T14:29:05.64Z</time></trkpt><trkpt lat="44.8867185" lon="9.0597283"><ele>202.33333333333331</ele><time>2026-05-03T14:29:06.646Z</time></trkpt><trkpt lat="44.8869032" lon="9.0597735"><ele>200.66666666666666</ele><time>2026-05-03T14:29:07.642Z</time></trkpt><trkpt lat="44.8870897" lon="9.0598364"><ele>199.0</ele><time>2026-05-03T14:29:08.645Z</time></trkpt><trkpt lat="44.8872669" lon="9.0598871"><ele>199.66666666666666</ele><time>2026-05-03T14:29:09.643Z</time></trkpt><trkpt lat="44.8874583" lon="9.0599731"><ele>200.33333333333331</ele><time>2026-05-03T14:29:10.643Z</time></trkpt><trkpt lat="44.8876412" lon="9.0600354"><ele>201.0</ele><time>2026-05-03T14:29:11.643Z</time></trkpt><trkpt lat="44.8878032" lon="9.0601091"><ele>201.0</ele><time>2026-05-03T14:29:12.646Z</time></trkpt><trkpt lat="44.8879628" lon="9.0602011"><ele>201.0</ele><time>2026-05-03T14:29:13.642Z</time></trkpt><trkpt lat="44.8880953" lon="9.0602727"><ele>201.0</ele><time>2026-05-03T14:29:14.641Z</time></trkpt><trkpt lat="44.888234" lon="9.0603149"><ele>201.0</ele><time>2026-05-03T14:29:15.64Z</time></trkpt><trkpt lat="44.8883796" lon="9.0603628"><ele>201.0</ele><time>2026-05-03T14:29:16.643Z</time></trkpt><trkpt lat="44.8885497" lon="9.0603494"><ele>201.0</ele><time>2026-05-03T14:29:17.648Z</time></trkpt><trkpt lat="44.8886686" lon="9.0603884"><ele>201.0</ele><time>2026-05-03T14:29:18.646Z</time></trkpt><trkpt lat="44.8888823" lon="9.0603644"><ele>201.33333333333331</ele><time>2026-05-03T14:29:19.644Z</time></trkpt><trkpt lat="44.8890487" lon="9.060378"><ele>201.66666666666666</ele><time>2026-05-03T14:29:20.641Z</time></trkpt><trkpt lat="44.8892649" lon="9.0603687"><ele>202.0</ele><time>2026-05-03T14:29:21.643Z</time></trkpt><trkpt lat="44.8894501" lon="9.060356"><ele>200.66666666666666</ele><time>2026-05-03T14:29:22.636Z</time></trkpt><trkpt lat="44.8895937" lon="9.0603756"><ele>199.33333333333331</ele><time>2026-05-03T14:29:23.641Z</time></trkpt><trkpt lat="44.8897426" lon="9.0603666"><ele>198.0</ele><time>2026-05-03T14:29:24.635Z</time></trkpt><trkpt lat="44.8899147" lon="9.0604026"><ele>198.0</ele><time>2026-05-03T14:29:25.638Z</time></trkpt><trkpt lat="44.8901083" lon="9.0604212"><ele>198.0</ele><time>2026-05-03T14:29:26.638Z</time></trkpt><trkpt lat="44.8903441" lon="9.0604503"><ele>198.0</ele><time>2026-05-03T14:29:27.639Z</time></trkpt><trkpt lat="44.8905324" lon="9.0604771"><ele>198.0</ele><time>2026-05-03T14:29:28.634Z</time></trkpt><trkpt lat="44.8907113" lon="9.0604865"><ele>198.0</ele><time>2026-05-03T14:29:29.637Z</time></trkpt><trkpt lat="44.8908626" lon="9.0604851"><ele>198.0</ele><time>2026-05-03T14:29:30.64Z</time></trkpt><trkpt lat="44.8909998" lon="9.0605293"><ele>197.0</ele><time>2026-05-03T14:29:31.635Z</time></trkpt><trkpt lat="44.8911665" lon="9.0605355"><ele>196.0</ele><time>2026-05-03T14:29:32.635Z</time></trkpt><trkpt lat="44.8912926" lon="9.0605455"><ele>195.0</ele><time>2026-05-03T14:29:33.632Z</time></trkpt><trkpt lat="44.8914086" lon="9.0605162"><ele>194.0</ele><time>2026-05-03T14:29:34.64Z</time></trkpt><trkpt lat="44.891562" lon="9.060516"><ele>194.0</ele><time>2026-05-03T14:29:35.64Z</time></trkpt><trkpt lat="44.891698" lon="9.0605165"><ele>194.0</ele><time>2026-05-03T14:29:36.633Z</time></trkpt><trkpt lat="44.8917906" lon="9.0604949"><ele>194.0</ele><time>2026-05-03T14:29:37.639Z</time></trkpt><trkpt lat="44.8919074" lon="9.0604781"><ele>194.0</ele><time>2026-05-03T14:29:38.634Z</time></trkpt><trkpt lat="44.8920145" lon="9.0604467"><ele>193.5</ele><time>2026-05-03T14:29:39.634Z</time></trkpt><trkpt lat="44.8921266" lon="9.0604359"><ele>193.0</ele><time>2026-05-03T14:29:40.634Z</time></trkpt><trkpt lat="44.8922526" lon="9.0604173"><ele>192.5</ele><time>2026-05-03T14:29:41.634Z</time></trkpt><trkpt lat="44.8923832" lon="9.060397"><ele>192.0</ele><time>2026-05-03T14:29:42.636Z</time></trkpt><trkpt lat="44.8925022" lon="9.060365"><ele>193.0</ele><time>2026-05-03T14:29:43.635Z</time></trkpt><trkpt lat="44.8926095" lon="9.0603301"><ele>194.0</ele><time>2026-05-03T14:29:44.636Z</time></trkpt><trkpt lat="44.8927088" lon="9.0602975"><ele>195.0</ele><time>2026-05-03T14:29:45.637Z</time></trkpt><trkpt lat="44.8928258" lon="9.0602537"><ele>196.0</ele><time>2026-05-03T14:29:46.634Z</time></trkpt><trkpt lat="44.8929434" lon="9.0602256"><ele>196.0</ele><time>2026-05-03T14:29:47.641Z</time></trkpt><trkpt lat="44.8930611" lon="9.0602062"><ele>196.0</ele><time>2026-05-03T14:29:48.64Z</time></trkpt><trkpt lat="44.8931667" lon="9.0601863"><ele>196.0</ele><time>2026-05-03T14:29:49.635Z</time></trkpt><trkpt lat="44.8932692" lon="9.0601741"><ele>196.0</ele><time>2026-05-03T14:29:50.632Z</time></trkpt><trkpt lat="44.8933662" lon="9.0601547"><ele>196.0</ele><time>2026-05-03T14:29:51.638Z</time></trkpt><trkpt lat="44.8934794" lon="9.0601371"><ele>196.5</ele><time>2026-05-03T14:29:52.636Z</time></trkpt><trkpt lat="44.8935814" lon="9.0601204"><ele>197.0</ele><time>2026-05-03T14:29:53.637Z</time></trkpt><trkpt lat="44.8936952" lon="9.0600995"><ele>197.5</ele><time>2026-05-03T14:29:54.638Z</time></trkpt><trkpt lat="44.8938177" lon="9.0600746"><ele>198.0</ele><time>2026-05-03T14:29:55.639Z</time></trkpt><trkpt lat="44.8939506" lon="9.0600462"><ele>198.0</ele><time>2026-05-03T14:29:56.639Z</time></trkpt><trkpt lat="44.894074" lon="9.0600211"><ele>198.0</ele><time>2026-05-03T14:29:57.642Z</time></trkpt><trkpt lat="44.8941816" lon="9.0599955"><ele>198.0</ele><time>2026-05-03T14:29:58.644Z</time></trkpt><trkpt lat="44.8942807" lon="9.0599729"><ele>198.0</ele><time>2026-05-03T14:29:59.637Z</time></trkpt><trkpt lat="44.8943747" lon="9.0599492"><ele>198.0</ele><time>2026-05-03T14:30:00.642Z</time></trkpt><trkpt lat="44.894472" lon="9.0599235"><ele>198.4</ele><time>2026-05-03T14:30:01.636Z</time></trkpt><trkpt lat="44.8945718" lon="9.0599094"><ele>198.8</ele><time>2026-05-03T14:30:02.635Z</time></trkpt><trkpt lat="44.894663" lon="9.0598639"><ele>199.2</ele><time>2026-05-03T14:30:03.636Z</time></trkpt><trkpt lat="44.8947589" lon="9.0598089"><ele>199.6</ele><time>2026-05-03T14:30:04.635Z</time></trkpt><trkpt lat="44.8948345" lon="9.0597257"><ele>200.0</ele><time>2026-05-03T14:30:05.635Z</time></trkpt><trkpt lat="44.8949017" lon="9.0596171"><ele>200.0</ele><time>2026-05-03T14:30:06.635Z</time></trkpt><trkpt lat="44.8949688" lon="9.0594879"><ele>200.0</ele><time>2026-05-03T14:30:07.634Z</time></trkpt><trkpt lat="44.8950072" lon="9.0593546"><ele>200.0</ele><time>2026-05-03T14:30:08.635Z</time></trkpt><trkpt lat="44.8950419" lon="9.0592344"><ele>200.0</ele><time>2026-05-03T14:30:09.636Z</time></trkpt><trkpt lat="44.8950754" lon="9.059123"><ele>200.0</ele><time>2026-05-03T14:30:10.634Z</time></trkpt><trkpt lat="44.8950856" lon="9.0590151"><ele>200.2857142857143</ele><time>2026-05-03T14:30:11.634Z</time></trkpt><trkpt lat="44.8950946" lon="9.0589196"><ele>200.57142857142858</ele><time>2026-05-03T14:30:12.634Z</time></trkpt><trkpt lat="44.8951152" lon="9.0588255"><ele>200.85714285714286</ele><time>2026-05-03T14:30:13.629Z</time></trkpt><trkpt lat="44.8951358" lon="9.0587316"><ele>201.14285714285717</ele><time>2026-05-03T14:30:14.636Z</time></trkpt><trkpt lat="44.8951687" lon="9.058644"><ele>201.42857142857142</ele><time>2026-05-03T14:30:15.637Z</time></trkpt><trkpt lat="44.8952077" lon="9.0585451"><ele>201.71428571428572</ele><time>2026-05-03T14:30:16.636Z</time></trkpt><trkpt lat="44.8952463" lon="9.0584366"><ele>202.0</ele><time>2026-05-03T14:30:17.637Z</time></trkpt><trkpt lat="44.8952769" lon="9.0583259"><ele>201.6</ele><time>2026-05-03T14:30:18.638Z</time></trkpt><trkpt lat="44.895307" lon="9.0582338"><ele>201.2</ele><time>2026-05-03T14:30:19.636Z</time></trkpt><trkpt lat="44.8953429" lon="9.0581499"><ele>200.8</ele><time>2026-05-03T14:30:20.635Z</time></trkpt><trkpt lat="44.8953912" lon="9.0579993"><ele>200.4</ele><time>2026-05-03T14:30:22.641Z</time></trkpt><trkpt lat="44.8954362" lon="9.0578143"><ele>200.0</ele><time>2026-05-03T14:30:24.636Z</time></trkpt><trkpt lat="44.8954686" lon="9.0577022"><ele>200.0</ele><time>2026-05-03T14:30:25.632Z</time></trkpt><trkpt lat="44.8955204" lon="9.0575935"><ele>200.0</ele><time>2026-05-03T14:30:26.631Z</time></trkpt><trkpt lat="44.895551" lon="9.0574739"><ele>200.0</ele><time>2026-05-03T14:30:27.632Z</time></trkpt><trkpt lat="44.8955901" lon="9.0573484"><ele>200.0</ele><time>2026-05-03T14:30:28.633Z</time></trkpt><trkpt lat="44.895635" lon="9.0572323"><ele>200.0</ele><time>2026-05-03T14:30:29.633Z</time></trkpt><trkpt lat="44.8956673" lon="9.0571091"><ele>199.83333333333334</ele><time>2026-05-03T14:30:30.635Z</time></trkpt><trkpt lat="44.8957039" lon="9.057005"><ele>199.66666666666669</ele><time>2026-05-03T14:30:31.634Z</time></trkpt><trkpt lat="44.8957432" lon="9.0569075"><ele>199.5</ele><time>2026-05-03T14:30:32.63Z</time></trkpt><trkpt lat="44.8957848" lon="9.0568039"><ele>199.33333333333331</ele><time>2026-05-03T14:30:33.632Z</time></trkpt><trkpt lat="44.895814" lon="9.056704"><ele>199.16666666666666</ele><time>2026-05-03T14:30:34.627Z</time></trkpt><trkpt lat="44.8958446" lon="9.0566075"><ele>199.0</ele><time>2026-05-03T14:30:35.628Z</time></trkpt><trkpt lat="44.8958908" lon="9.0565226"><ele>198.83333333333331</ele><time>2026-05-03T14:30:36.63Z</time></trkpt><trkpt lat="44.8959195" lon="9.0564319"><ele>198.66666666666666</ele><time>2026-05-03T14:30:37.632Z</time></trkpt><trkpt lat="44.8959492" lon="9.0563528"><ele>198.5</ele><time>2026-05-03T14:30:38.631Z</time></trkpt><trkpt lat="44.8959872" lon="9.0562803"><ele>198.33333333333331</ele><time>2026-05-03T14:30:39.632Z</time></trkpt><trkpt lat="44.8960268" lon="9.0561963"><ele>198.16666666666666</ele><time>2026-05-03T14:30:40.632Z</time></trkpt><trkpt lat="44.8960848" lon="9.0561221"><ele>198.0</ele><time>2026-05-03T14:30:41.633Z</time></trkpt><trkpt lat="44.8961731" lon="9.0559952"><ele>198.0</ele><time>2026-05-03T14:30:43.632Z</time></trkpt><trkpt lat="44.8962352" lon="9.055907"><ele>198.0</ele><time>2026-05-03T14:30:44.631Z</time></trkpt><trkpt lat="44.8962866" lon="9.0558325"><ele>198.0</ele><time>2026-05-03T14:30:45.631Z</time></trkpt><trkpt lat="44.8963332" lon="9.0557597"><ele>198.0</ele><time>2026-05-03T14:30:46.631Z</time></trkpt><trkpt lat="44.8963896" lon="9.0556859"><ele>198.0</ele><time>2026-05-03T14:30:47.632Z</time></trkpt><trkpt lat="44.8964406" lon="9.0555922"><ele>198.0</ele><time>2026-05-03T14:30:48.634Z</time></trkpt><trkpt lat="44.8965053" lon="9.0555004"><ele>197.66666666666666</ele><time>2026-05-03T14:30:49.638Z</time></trkpt><trkpt lat="44.8965653" lon="9.0554168"><ele>197.33333333333331</ele><time>2026-05-03T14:30:50.636Z</time></trkpt><trkpt lat="44.8966184" lon="9.0553344"><ele>197.0</ele><time>2026-05-03T14:30:51.635Z</time></trkpt><trkpt lat="44.8966619" lon="9.055253"><ele>196.66666666666666</ele><time>2026-05-03T14:30:52.635Z</time></trkpt><trkpt lat="44.8967212" lon="9.0551844"><ele>196.33333333333331</ele><time>2026-05-03T14:30:53.636Z</time></trkpt><trkpt lat="44.8967768" lon="9.0551163"><ele>196.0</ele><time>2026-05-03T14:30:54.635Z</time></trkpt><trkpt lat="44.8968296" lon="9.0550398"><ele>195.99999999999997</ele><time>2026-05-03T14:30:55.636Z</time></trkpt><trkpt lat="44.8968808" lon="9.0549744"><ele>196.0</ele><time>2026-05-03T14:30:56.627Z</time></trkpt><trkpt lat="44.8969408" lon="9.05485"><ele>196.0</ele><time>2026-05-03T14:30:58.638Z</time></trkpt><trkpt lat="44.8968555" lon="9.0547906"><ele>196.0</ele><time>2026-05-03T14:31:01.633Z</time></trkpt><trkpt lat="44.8967995" lon="9.0548452"><ele>195.99999999999997</ele><time>2026-05-03T14:31:02.634Z</time></trkpt><trkpt lat="44.8967505" lon="9.0549266"><ele>196.0</ele><time>2026-05-03T14:31:03.642Z</time></trkpt><trkpt lat="44.8967211" lon="9.0550169"><ele>196.0</ele><time>2026-05-03T14:31:04.639Z</time></trkpt><trkpt lat="44.8966862" lon="9.05511"><ele>196.0</ele><time>2026-05-03T14:31:06.639Z</time></trkpt><trkpt lat="44.8966555" lon="9.055191"><ele>196.0</ele><time>2026-05-03T14:31:08.637Z</time></trkpt><trkpt lat="44.8965901" lon="9.0552551"><ele>196.0</ele><time>2026-05-03T14:31:10.64Z</time></trkpt><trkpt lat="44.896544" lon="9.055329"><ele>196.0</ele><time>2026-05-03T14:31:12.637Z</time></trkpt><trkpt lat="44.8964819" lon="9.0552955"><ele>196.0</ele><time>2026-05-03T14:49:20.693Z</time></trkpt><trkpt lat="44.8964144" lon="9.0553102"><ele>196.0</ele><time>2026-05-03T14:49:23.696Z</time></trkpt><trkpt lat="44.8964683" lon="9.0553672"><ele>196.0</ele><time>2026-05-03T14:49:27.69Z</time></trkpt><trkpt lat="44.8965476" lon="9.055363"><ele>196.0</ele><time>2026-05-03T14:49:29.691Z</time></trkpt><trkpt lat="44.8966549" lon="9.0553272"><ele>196.0</ele><time>2026-05-03T14:49:31.68Z</time></trkpt><trkpt lat="44.8967687" lon="9.0552147"><ele>196.0</ele><time>2026-05-03T14:49:32.671Z</time></trkpt><trkpt lat="44.8968973" lon="9.0550835"><ele>195.33333333333331</ele><time>2026-05-03T14:49:33.666Z</time></trkpt><trkpt lat="44.897039" lon="9.0549597"><ele>194.66666666666669</ele><time>2026-05-03T14:49:34.677Z</time></trkpt><trkpt lat="44.8971676" lon="9.0548543"><ele>194.0</ele><time>2026-05-03T14:49:35.669Z</time></trkpt><trkpt lat="44.897287" lon="9.0547609"><ele>193.75</ele><time>2026-05-03T14:49:36.681Z</time></trkpt><trkpt lat="44.8974161" lon="9.0546761"><ele>193.5</ele><time>2026-05-03T14:49:37.675Z</time></trkpt><trkpt lat="44.8975475" lon="9.0545925"><ele>193.25</ele><time>2026-05-03T14:49:38.676Z</time></trkpt><trkpt lat="44.8976752" lon="9.0545009"><ele>193.0</ele><time>2026-05-03T14:49:39.676Z</time></trkpt><trkpt lat="44.8978523" lon="9.0543349"><ele>193.0</ele><time>2026-05-03T14:49:40.677Z</time></trkpt><trkpt lat="44.8980127" lon="9.0542163"><ele>193.0</ele><time>2026-05-03T14:49:41.694Z</time></trkpt><trkpt lat="44.898175" lon="9.0541"><ele>193.0</ele><time>2026-05-03T14:49:42.68Z</time></trkpt><trkpt lat="44.898315" lon="9.0540399"><ele>191.66666666666666</ele><time>2026-05-03T14:49:43.68Z</time></trkpt><trkpt lat="44.8984575" lon="9.0539882"><ele>190.33333333333331</ele><time>2026-05-03T14:49:44.678Z</time></trkpt><trkpt lat="44.8986013" lon="9.0538989"><ele>189.0</ele><time>2026-05-03T14:49:45.681Z</time></trkpt><trkpt lat="44.8987424" lon="9.0537994"><ele>189.0</ele><time>2026-05-03T14:49:46.678Z</time></trkpt><trkpt lat="44.8988694" lon="9.053722"><ele>189.0</ele><time>2026-05-03T14:49:47.686Z</time></trkpt><trkpt lat="44.8989809" lon="9.0536423"><ele>189.0</ele><time>2026-05-03T14:49:48.677Z</time></trkpt><trkpt lat="44.8990849" lon="9.0535764"><ele>189.0</ele><time>2026-05-03T14:49:49.674Z</time></trkpt><trkpt lat="44.8991979" lon="9.0535"><ele>189.33333333333334</ele><time>2026-05-03T14:49:50.677Z</time></trkpt><trkpt lat="44.8992651" lon="9.0534289"><ele>189.66666666666666</ele><time>2026-05-03T14:49:51.682Z</time></trkpt><trkpt lat="44.899319" lon="9.0533717"><ele>190.0</ele><time>2026-05-03T14:49:52.701Z</time></trkpt><trkpt lat="44.8993841" lon="9.0533258"><ele>190.33333333333331</ele><time>2026-05-03T14:49:53.686Z</time></trkpt><trkpt lat="44.8994452" lon="9.0532971"><ele>190.66666666666666</ele><time>2026-05-03T14:49:54.688Z</time></trkpt><trkpt lat="44.8995442" lon="9.053254"><ele>191.0</ele><time>2026-05-03T14:49:56.692Z</time></trkpt><trkpt lat="44.8996339" lon="9.0532093"><ele>190.20000000000002</ele><time>2026-05-03T14:49:58.686Z</time></trkpt><trkpt lat="44.8997524" lon="9.0531364"><ele>189.4</ele><time>2026-05-03T14:50:00.687Z</time></trkpt><trkpt lat="44.8998198" lon="9.0530917"><ele>188.6</ele><time>2026-05-03T14:50:01.683Z</time></trkpt><trkpt lat="44.8999094" lon="9.053029"><ele>187.8</ele><time>2026-05-03T14:50:02.697Z</time></trkpt><trkpt lat="44.9000112" lon="9.0529567"><ele>187.0</ele><time>2026-05-03T14:50:03.685Z</time></trkpt><trkpt lat="44.9001344" lon="9.0528645"><ele>187.0</ele><time>2026-05-03T14:50:04.689Z</time></trkpt><trkpt lat="44.9002913" lon="9.0527458"><ele>187.0</ele><time>2026-05-03T14:50:05.692Z</time></trkpt><trkpt lat="44.9005194" lon="9.052593"><ele>187.0</ele><time>2026-05-03T14:50:06.681Z</time></trkpt><trkpt lat="44.9007535" lon="9.0524872"><ele>187.33333333333334</ele><time>2026-05-03T14:50:07.7Z</time></trkpt><trkpt lat="44.900966" lon="9.0523578"><ele>187.66666666666666</ele><time>2026-05-03T14:50:08.69Z</time></trkpt><trkpt lat="44.9011663" lon="9.0522418"><ele>188.0</ele><time>2026-05-03T14:50:09.682Z</time></trkpt><trkpt lat="44.9013087" lon="9.0521418"><ele>188.0</ele><time>2026-05-03T14:50:10.687Z</time></trkpt><trkpt lat="44.901487" lon="9.0520401"><ele>188.0</ele><time>2026-05-03T14:50:11.686Z</time></trkpt><trkpt lat="44.9016728" lon="9.0519549"><ele>188.0</ele><time>2026-05-03T14:50:12.705Z</time></trkpt><trkpt lat="44.901872" lon="9.0518412"><ele>187.33333333333331</ele><time>2026-05-03T14:50:13.679Z</time></trkpt><trkpt lat="44.9020683" lon="9.0517147"><ele>186.66666666666666</ele><time>2026-05-03T14:50:14.681Z</time></trkpt><trkpt lat="44.9022785" lon="9.0515948"><ele>186.0</ele><time>2026-05-03T14:50:15.681Z</time></trkpt><trkpt lat="44.9024798" lon="9.0514639"><ele>187.5</ele><time>2026-05-03T14:50:16.681Z</time></trkpt><trkpt lat="44.9026907" lon="9.0513239"><ele>189.0</ele><time>2026-05-03T14:50:17.688Z</time></trkpt><trkpt lat="44.9028925" lon="9.0512023"><ele>189.0</ele><time>2026-05-03T14:50:18.683Z</time></trkpt><trkpt lat="44.9030755" lon="9.0511233"><ele>189.0</ele><time>2026-05-03T14:50:19.686Z</time></trkpt><trkpt lat="44.9032426" lon="9.0510081"><ele>189.0</ele><time>2026-05-03T14:50:20.686Z</time></trkpt><trkpt lat="44.9034228" lon="9.050905"><ele>188.33333333333334</ele><time>2026-05-03T14:50:21.686Z</time></trkpt><trkpt lat="44.9036106" lon="9.0508075"><ele>187.66666666666669</ele><time>2026-05-03T14:50:22.698Z</time></trkpt><trkpt lat="44.9038013" lon="9.0507043"><ele>187.0</ele><time>2026-05-03T14:50:23.69Z</time></trkpt><trkpt lat="44.903959" lon="9.050597"><ele>187.0</ele><time>2026-05-03T14:50:24.698Z</time></trkpt><trkpt lat="44.904103" lon="9.0505248"><ele>187.0</ele><time>2026-05-03T14:50:25.702Z</time></trkpt><trkpt lat="44.9042884" lon="9.0504011"><ele>187.0</ele><time>2026-05-03T14:50:26.707Z</time></trkpt><trkpt lat="44.9044728" lon="9.0503119"><ele>186.66666666666669</ele><time>2026-05-03T14:50:27.703Z</time></trkpt><trkpt lat="44.904668" lon="9.0501955"><ele>186.33333333333334</ele><time>2026-05-03T14:50:28.699Z</time></trkpt><trkpt lat="44.9048842" lon="9.0500633"><ele>186.0</ele><time>2026-05-03T14:50:29.7Z</time></trkpt><trkpt lat="44.9050892" lon="9.0499237"><ele>186.0</ele><time>2026-05-03T14:50:30.695Z</time></trkpt><trkpt lat="44.9052996" lon="9.0497619"><ele>186.0</ele><time>2026-05-03T14:50:31.693Z</time></trkpt><trkpt lat="44.9055075" lon="9.0496458"><ele>186.0</ele><time>2026-05-03T14:50:32.705Z</time></trkpt><trkpt lat="44.9057231" lon="9.0495545"><ele>186.0</ele><time>2026-05-03T14:50:33.696Z</time></trkpt><trkpt lat="44.9059233" lon="9.0494126"><ele>186.0</ele><time>2026-05-03T14:50:34.695Z</time></trkpt><trkpt lat="44.9061082" lon="9.0492545"><ele>186.0</ele><time>2026-05-03T14:50:35.691Z</time></trkpt><trkpt lat="44.9062843" lon="9.0490787"><ele>186.0</ele><time>2026-05-03T14:50:36.69Z</time></trkpt><trkpt lat="44.9064487" lon="9.0488772"><ele>186.0</ele><time>2026-05-03T14:50:37.708Z</time></trkpt><trkpt lat="44.9066334" lon="9.0486711"><ele>187.5</ele><time>2026-05-03T14:50:38.685Z</time></trkpt><trkpt lat="44.9068163" lon="9.0484743"><ele>189.0</ele><time>2026-05-03T14:50:39.689Z</time></trkpt><trkpt lat="44.9069942" lon="9.0482902"><ele>189.0</ele><time>2026-05-03T14:50:40.688Z</time></trkpt><trkpt lat="44.9071968" lon="9.0481307"><ele>189.0</ele><time>2026-05-03T14:50:41.683Z</time></trkpt><trkpt lat="44.9073938" lon="9.0479396"><ele>189.0</ele><time>2026-05-03T14:50:42.679Z</time></trkpt><trkpt lat="44.9075674" lon="9.0477633"><ele>189.0</ele><time>2026-05-03T14:50:43.694Z</time></trkpt><trkpt lat="44.9077437" lon="9.0475859"><ele>189.0</ele><time>2026-05-03T14:50:44.681Z</time></trkpt><trkpt lat="44.9079082" lon="9.0473827"><ele>189.33333333333334</ele><time>2026-05-03T14:50:45.679Z</time></trkpt><trkpt lat="44.9080668" lon="9.0472019"><ele>189.66666666666669</ele><time>2026-05-03T14:50:46.678Z</time></trkpt><trkpt lat="44.9082352" lon="9.0470406"><ele>190.0</ele><time>2026-05-03T14:50:47.684Z</time></trkpt><trkpt lat="44.9084091" lon="9.0468973"><ele>190.0</ele><time>2026-05-03T14:50:48.7Z</time></trkpt><trkpt lat="44.9085636" lon="9.0467325"><ele>190.0</ele><time>2026-05-03T14:50:49.685Z</time></trkpt><trkpt lat="44.9087292" lon="9.0465713"><ele>190.0</ele><time>2026-05-03T14:50:50.686Z</time></trkpt><trkpt lat="44.9088822" lon="9.0464337"><ele>190.0</ele><time>2026-05-03T14:50:51.686Z</time></trkpt><trkpt lat="44.9090512" lon="9.0462458"><ele>190.0</ele><time>2026-05-03T14:50:52.686Z</time></trkpt><trkpt lat="44.9092281" lon="9.0460141"><ele>190.0</ele><time>2026-05-03T14:50:53.697Z</time></trkpt><trkpt lat="44.9094649" lon="9.0458054"><ele>190.0</ele><time>2026-05-03T14:50:54.686Z</time></trkpt><trkpt lat="44.9097368" lon="9.0456122"><ele>189.5</ele><time>2026-05-03T14:50:55.688Z</time></trkpt><trkpt lat="44.9099778" lon="9.0454304"><ele>189.0</ele><time>2026-05-03T14:50:56.683Z</time></trkpt><trkpt lat="44.910202" lon="9.0452632"><ele>190.5</ele><time>2026-05-03T14:50:57.686Z</time></trkpt><trkpt lat="44.9103928" lon="9.0450851"><ele>192.0</ele><time>2026-05-03T14:50:58.692Z</time></trkpt><trkpt lat="44.9105734" lon="9.0449"><ele>192.0</ele><time>2026-05-03T14:50:59.68Z</time></trkpt><trkpt lat="44.9107456" lon="9.0446999"><ele>192.0</ele><time>2026-05-03T14:51:00.674Z</time></trkpt><trkpt lat="44.9109257" lon="9.0444863"><ele>192.0</ele><time>2026-05-03T14:51:01.673Z</time></trkpt><trkpt lat="44.9110895" lon="9.0443187"><ele>192.0</ele><time>2026-05-03T14:51:02.678Z</time></trkpt><trkpt lat="44.9112417" lon="9.0441521"><ele>192.0</ele><time>2026-05-03T14:51:03.678Z</time></trkpt><trkpt lat="44.9113792" lon="9.0439747"><ele>191.0</ele><time>2026-05-03T14:51:04.686Z</time></trkpt><trkpt lat="44.9115332" lon="9.0438057"><ele>190.0</ele><time>2026-05-03T14:51:05.679Z</time></trkpt><trkpt lat="44.9116784" lon="9.0436423"><ele>189.0</ele><time>2026-05-03T14:51:06.679Z</time></trkpt><trkpt lat="44.9118336" lon="9.0435053"><ele>189.0</ele><time>2026-05-03T14:51:07.68Z</time></trkpt><trkpt lat="44.9120057" lon="9.043375"><ele>189.0</ele><time>2026-05-03T14:51:08.675Z</time></trkpt><trkpt lat="44.9121982" lon="9.0432427"><ele>189.0</ele><time>2026-05-03T14:51:09.695Z</time></trkpt><trkpt lat="44.9123897" lon="9.0431148"><ele>188.0</ele><time>2026-05-03T14:51:10.679Z</time></trkpt><trkpt lat="44.9125558" lon="9.0429535"><ele>187.0</ele><time>2026-05-03T14:51:11.687Z</time></trkpt><trkpt lat="44.9127419" lon="9.0427918"><ele>186.0</ele><time>2026-05-03T14:51:12.685Z</time></trkpt><trkpt lat="44.9129136" lon="9.0426364"><ele>186.0</ele><time>2026-05-03T14:51:13.684Z</time></trkpt><trkpt lat="44.9130882" lon="9.0424887"><ele>186.0</ele><time>2026-05-03T14:51:14.685Z</time></trkpt><trkpt lat="44.9132591" lon="9.0423093"><ele>186.0</ele><time>2026-05-03T14:51:15.705Z</time></trkpt><trkpt lat="44.913426" lon="9.042097"><ele>186.33333333333334</ele><time>2026-05-03T14:51:16.681Z</time></trkpt><trkpt lat="44.9136149" lon="9.041912"><ele>186.66666666666669</ele><time>2026-05-03T14:51:17.691Z</time></trkpt><trkpt lat="44.9137916" lon="9.0417438"><ele>187.0</ele><time>2026-05-03T14:51:18.693Z</time></trkpt><trkpt lat="44.9139492" lon="9.041577"><ele>186.33333333333334</ele><time>2026-05-03T14:51:19.704Z</time></trkpt><trkpt lat="44.9141229" lon="9.0414141"><ele>185.66666666666666</ele><time>2026-05-03T14:51:20.703Z</time></trkpt><trkpt lat="44.9143029" lon="9.0412648"><ele>185.0</ele><time>2026-05-03T14:51:21.694Z</time></trkpt><trkpt lat="44.9144776" lon="9.0411109"><ele>184.0</ele><time>2026-05-03T14:51:22.687Z</time></trkpt><trkpt lat="44.9146567" lon="9.0409429"><ele>183.0</ele><time>2026-05-03T14:51:23.695Z</time></trkpt><trkpt lat="44.9148255" lon="9.0407599"><ele>182.0</ele><time>2026-05-03T14:51:24.696Z</time></trkpt><trkpt lat="44.9150008" lon="9.0405881"><ele>182.0</ele><time>2026-05-03T14:51:25.697Z</time></trkpt><trkpt lat="44.9151985" lon="9.0403997"><ele>182.0</ele><time>2026-05-03T14:51:26.688Z</time></trkpt><trkpt lat="44.9153853" lon="9.0401652"><ele>181.5</ele><time>2026-05-03T14:51:27.692Z</time></trkpt><trkpt lat="44.9155532" lon="9.0399625"><ele>181.0</ele><time>2026-05-03T14:51:28.701Z</time></trkpt><trkpt lat="44.9157722" lon="9.0397494"><ele>182.5</ele><time>2026-05-03T14:51:29.7Z</time></trkpt><trkpt lat="44.9160003" lon="9.0395775"><ele>184.0</ele><time>2026-05-03T14:51:30.697Z</time></trkpt><trkpt lat="44.9161891" lon="9.0394215"><ele>184.0</ele><time>2026-05-03T14:51:31.694Z</time></trkpt><trkpt lat="44.9163366" lon="9.039284"><ele>184.0</ele><time>2026-05-03T14:51:32.686Z</time></trkpt><trkpt lat="44.9164842" lon="9.0391342"><ele>184.0</ele><time>2026-05-03T14:51:33.685Z</time></trkpt><trkpt lat="44.9166021" lon="9.0389907"><ele>184.25</ele><time>2026-05-03T14:51:34.684Z</time></trkpt><trkpt lat="44.9167136" lon="9.0388788"><ele>184.5</ele><time>2026-05-03T14:51:35.702Z</time></trkpt><trkpt lat="44.9168264" lon="9.0387418"><ele>184.75</ele><time>2026-05-03T14:51:36.692Z</time></trkpt><trkpt lat="44.9169047" lon="9.0386286"><ele>185.0</ele><time>2026-05-03T14:51:37.699Z</time></trkpt><trkpt lat="44.9169949" lon="9.0385127"><ele>185.0</ele><time>2026-05-03T14:51:38.691Z</time></trkpt><trkpt lat="44.9170992" lon="9.0383944"><ele>185.0</ele><time>2026-05-03T14:51:39.691Z</time></trkpt><trkpt lat="44.9171949" lon="9.0382901"><ele>185.0</ele><time>2026-05-03T14:51:40.709Z</time></trkpt><trkpt lat="44.9173107" lon="9.0381823"><ele>185.0</ele><time>2026-05-03T14:51:41.684Z</time></trkpt><trkpt lat="44.9174328" lon="9.0380578"><ele>184.33333333333331</ele><time>2026-05-03T14:51:42.691Z</time></trkpt><trkpt lat="44.917543" lon="9.03788"><ele>183.66666666666666</ele><time>2026-05-03T14:51:43.692Z</time></trkpt><trkpt lat="44.9176638" lon="9.0377114"><ele>183.0</ele><time>2026-05-03T14:51:44.685Z</time></trkpt><trkpt lat="44.9177576" lon="9.0375438"><ele>183.0</ele><time>2026-05-03T14:51:45.695Z</time></trkpt><trkpt lat="44.9178284" lon="9.0374001"><ele>183.0</ele><time>2026-05-03T14:51:46.689Z</time></trkpt><trkpt lat="44.9179008" lon="9.0372397"><ele>183.0</ele><time>2026-05-03T14:51:47.691Z</time></trkpt><trkpt lat="44.9179872" lon="9.0370362"><ele>183.0</ele><time>2026-05-03T14:51:48.696Z</time></trkpt><trkpt lat="44.9180619" lon="9.0368257"><ele>181.66666666666666</ele><time>2026-05-03T14:51:49.684Z</time></trkpt><trkpt lat="44.9181547" lon="9.0365904"><ele>180.33333333333331</ele><time>2026-05-03T14:51:50.701Z</time></trkpt><trkpt lat="44.9182791" lon="9.0363226"><ele>179.0</ele><time>2026-05-03T14:51:51.684Z</time></trkpt><trkpt lat="44.9184201" lon="9.0360237"><ele>179.0</ele><time>2026-05-03T14:51:52.685Z</time></trkpt><trkpt lat="44.9185333" lon="9.0357754"><ele>179.0</ele><time>2026-05-03T14:51:53.68Z</time></trkpt><trkpt lat="44.9186435" lon="9.0355216"><ele>179.0</ele><time>2026-05-03T14:51:54.675Z</time></trkpt><trkpt lat="44.9187473" lon="9.0352925"><ele>179.0</ele><time>2026-05-03T14:51:55.699Z</time></trkpt><trkpt lat="44.9188762" lon="9.0350591"><ele>179.0</ele><time>2026-05-03T14:51:56.687Z</time></trkpt><trkpt lat="44.9190059" lon="9.0347944"><ele>179.0</ele><time>2026-05-03T14:51:57.697Z</time></trkpt><trkpt lat="44.9191231" lon="9.0345272"><ele>177.0</ele><time>2026-05-03T14:51:58.699Z</time></trkpt><trkpt lat="44.9192209" lon="9.0343099"><ele>175.0</ele><time>2026-05-03T14:51:59.691Z</time></trkpt><trkpt lat="44.9193096" lon="9.0340911"><ele>173.0</ele><time>2026-05-03T14:52:00.711Z</time></trkpt><trkpt lat="44.9194056" lon="9.0338755"><ele>173.0</ele><time>2026-05-03T14:52:01.692Z</time></trkpt><trkpt lat="44.9194968" lon="9.0336802"><ele>173.0</ele><time>2026-05-03T14:52:02.687Z</time></trkpt><trkpt lat="44.9195756" lon="9.0334509"><ele>173.0</ele><time>2026-05-03T14:52:03.702Z</time></trkpt><trkpt lat="44.9196656" lon="9.033216"><ele>172.0</ele><time>2026-05-03T14:52:04.695Z</time></trkpt><trkpt lat="44.9197701" lon="9.0329723"><ele>171.0</ele><time>2026-05-03T14:52:05.708Z</time></trkpt><trkpt lat="44.9198703" lon="9.0327517"><ele>170.0</ele><time>2026-05-03T14:52:06.691Z</time></trkpt><trkpt lat="44.91997" lon="9.0325207"><ele>169.75</ele><time>2026-05-03T14:52:07.682Z</time></trkpt><trkpt lat="44.9200724" lon="9.0323896"><ele>169.5</ele><time>2026-05-03T14:52:08.679Z</time></trkpt><trkpt lat="44.9201669" lon="9.0322676"><ele>169.25</ele><time>2026-05-03T14:52:09.688Z</time></trkpt><trkpt lat="44.9202486" lon="9.0321599"><ele>169.0</ele><time>2026-05-03T14:52:10.702Z</time></trkpt><trkpt lat="44.9203238" lon="9.0320406"><ele>169.0</ele><time>2026-05-03T14:52:11.682Z</time></trkpt><trkpt lat="44.9203669" lon="9.0319465"><ele>169.0</ele><time>2026-05-03T14:52:12.691Z</time></trkpt><trkpt lat="44.9204438" lon="9.0317612"><ele>169.0</ele><time>2026-05-03T14:52:15.707Z</time></trkpt><trkpt lat="44.9205058" lon="9.0317224"><ele>169.0</ele><time>2026-05-03T14:52:17.686Z</time></trkpt><trkpt lat="44.9205517" lon="9.0316123"><ele>169.0</ele><time>2026-05-03T14:52:19.681Z</time></trkpt><trkpt lat="44.9205928" lon="9.0315398"><ele>168.6</ele><time>2026-05-03T14:52:21.689Z</time></trkpt><trkpt lat="44.9206424" lon="9.03147"><ele>168.2</ele><time>2026-05-03T14:52:23.693Z</time></trkpt><trkpt lat="44.9207667" lon="9.0313698"><ele>167.79999999999998</ele><time>2026-05-03T14:52:25.703Z</time></trkpt><trkpt lat="44.9208105" lon="9.0312721"><ele>167.39999999999998</ele><time>2026-05-03T14:52:26.698Z</time></trkpt><trkpt lat="44.9208571" lon="9.0311935"><ele>167.0</ele><time>2026-05-03T14:52:27.698Z</time></trkpt><trkpt lat="44.9209286" lon="9.0310936"><ele>166.75</ele><time>2026-05-03T14:52:28.697Z</time></trkpt><trkpt lat="44.9210188" lon="9.031008"><ele>166.5</ele><time>2026-05-03T14:52:29.698Z</time></trkpt><trkpt lat="44.9211287" lon="9.0309167"><ele>166.25</ele><time>2026-05-03T14:52:30.708Z</time></trkpt><trkpt lat="44.9212303" lon="9.0308097"><ele>166.0</ele><time>2026-05-03T14:52:31.698Z</time></trkpt><trkpt lat="44.9213457" lon="9.0306827"><ele>164.5</ele><time>2026-05-03T14:52:32.687Z</time></trkpt><trkpt lat="44.9215196" lon="9.0305017"><ele>163.0</ele><time>2026-05-03T14:52:33.691Z</time></trkpt><trkpt lat="44.9217233" lon="9.0302934"><ele>163.0</ele><time>2026-05-03T14:52:34.702Z</time></trkpt><trkpt lat="44.9218956" lon="9.0300642"><ele>163.0</ele><time>2026-05-03T14:52:35.709Z</time></trkpt><trkpt lat="44.9220659" lon="9.0298768"><ele>163.0</ele><time>2026-05-03T14:52:36.685Z</time></trkpt><trkpt lat="44.9222099" lon="9.0297103"><ele>163.0</ele><time>2026-05-03T14:52:37.689Z</time></trkpt><trkpt lat="44.9223386" lon="9.0295195"><ele>163.0</ele><time>2026-05-03T14:52:38.686Z</time></trkpt><trkpt lat="44.9224591" lon="9.0293575"><ele>163.0</ele><time>2026-05-03T14:52:39.692Z</time></trkpt><trkpt lat="44.9225954" lon="9.0292164"><ele>163.0</ele><time>2026-05-03T14:52:40.703Z</time></trkpt><trkpt lat="44.9227018" lon="9.0290716"><ele>163.0</ele><time>2026-05-03T14:52:41.686Z</time></trkpt><trkpt lat="44.9228479" lon="9.0288998"><ele>162.66666666666669</ele><time>2026-05-03T14:52:42.691Z</time></trkpt><trkpt lat="44.9229975" lon="9.0287487"><ele>162.33333333333334</ele><time>2026-05-03T14:52:43.685Z</time></trkpt><trkpt lat="44.9231197" lon="9.0286151"><ele>162.0</ele><time>2026-05-03T14:52:44.686Z</time></trkpt><trkpt lat="44.9232277" lon="9.0284692"><ele>162.0</ele><time>2026-05-03T14:52:45.682Z</time></trkpt><trkpt lat="44.9233205" lon="9.0283323"><ele>162.0</ele><time>2026-05-03T14:52:46.697Z</time></trkpt><trkpt lat="44.9234251" lon="9.0282066"><ele>162.0</ele><time>2026-05-03T14:52:47.681Z</time></trkpt><trkpt lat="44.9235462" lon="9.0280889"><ele>162.0</ele><time>2026-05-03T14:52:48.681Z</time></trkpt><trkpt lat="44.9236263" lon="9.02798"><ele>161.25</ele><time>2026-05-03T14:52:49.679Z</time></trkpt><trkpt lat="44.9237263" lon="9.0278437"><ele>160.5</ele><time>2026-05-03T14:52:50.682Z</time></trkpt><trkpt lat="44.9238295" lon="9.0276998"><ele>159.75</ele><time>2026-05-03T14:52:51.691Z</time></trkpt><trkpt lat="44.9239508" lon="9.0275729"><ele>159.0</ele><time>2026-05-03T14:52:52.685Z</time></trkpt><trkpt lat="44.9240723" lon="9.027442"><ele>158.66666666666666</ele><time>2026-05-03T14:52:53.682Z</time></trkpt><trkpt lat="44.9241785" lon="9.0273053"><ele>158.33333333333331</ele><time>2026-05-03T14:52:54.684Z</time></trkpt><trkpt lat="44.9243047" lon="9.0271637"><ele>158.0</ele><time>2026-05-03T14:52:55.683Z</time></trkpt><trkpt lat="44.9244201" lon="9.0270078"><ele>158.0</ele><time>2026-05-03T14:52:56.697Z</time></trkpt><trkpt lat="44.9245446" lon="9.026874"><ele>158.0</ele><time>2026-05-03T14:52:57.688Z</time></trkpt><trkpt lat="44.9246818" lon="9.0267163"><ele>158.0</ele><time>2026-05-03T14:52:58.692Z</time></trkpt><trkpt lat="44.9247905" lon="9.026577"><ele>158.0</ele><time>2026-05-03T14:52:59.687Z</time></trkpt><trkpt lat="44.9248704" lon="9.0264488"><ele>158.0</ele><time>2026-05-03T14:53:00.691Z</time></trkpt><trkpt lat="44.9249573" lon="9.0263065"><ele>158.0</ele><time>2026-05-03T14:53:01.701Z</time></trkpt><trkpt lat="44.9250541" lon="9.0261746"><ele>158.0</ele><time>2026-05-03T14:53:02.685Z</time></trkpt><trkpt lat="44.9251653" lon="9.0260499"><ele>158.0</ele><time>2026-05-03T14:53:03.687Z</time></trkpt><trkpt lat="44.9252857" lon="9.0258847"><ele>158.0</ele><time>2026-05-03T14:53:04.69Z</time></trkpt><trkpt lat="44.9254139" lon="9.0257258"><ele>158.0</ele><time>2026-05-03T14:53:05.693Z</time></trkpt><trkpt lat="44.9255437" lon="9.0255872"><ele>157.75</ele><time>2026-05-03T14:53:06.707Z</time></trkpt><trkpt lat="44.9256375" lon="9.0254732"><ele>157.5</ele><time>2026-05-03T14:53:07.691Z</time></trkpt><trkpt lat="44.9257329" lon="9.0253218"><ele>157.25</ele><time>2026-05-03T14:53:08.691Z</time></trkpt><trkpt lat="44.9258498" lon="9.025178"><ele>157.0</ele><time>2026-05-03T14:53:09.691Z</time></trkpt><trkpt lat="44.9259626" lon="9.025045"><ele>157.0</ele><time>2026-05-03T14:53:10.691Z</time></trkpt><trkpt lat="44.9260686" lon="9.024906"><ele>157.0</ele><time>2026-05-03T14:53:11.707Z</time></trkpt><trkpt lat="44.9261707" lon="9.0247844"><ele>157.0</ele><time>2026-05-03T14:53:12.693Z</time></trkpt><trkpt lat="44.926244" lon="9.0246613"><ele>157.0</ele><time>2026-05-03T14:53:13.696Z</time></trkpt><trkpt lat="44.9263297" lon="9.0245475"><ele>157.0</ele><time>2026-05-03T14:53:14.695Z</time></trkpt><trkpt lat="44.9264201" lon="9.0244148"><ele>157.0</ele><time>2026-05-03T14:53:15.696Z</time></trkpt><trkpt lat="44.9265092" lon="9.024284"><ele>157.0</ele><time>2026-05-03T14:53:16.689Z</time></trkpt><trkpt lat="44.9265968" lon="9.0241438"><ele>157.0</ele><time>2026-05-03T14:53:17.705Z</time></trkpt><trkpt lat="44.9266719" lon="9.024043"><ele>156.75</ele><time>2026-05-03T14:53:18.689Z</time></trkpt><trkpt lat="44.926777" lon="9.0239406"><ele>156.5</ele><time>2026-05-03T14:53:19.695Z</time></trkpt><trkpt lat="44.9268775" lon="9.0238366"><ele>156.25</ele><time>2026-05-03T14:53:20.691Z</time></trkpt><trkpt lat="44.9269863" lon="9.0237225"><ele>156.0</ele><time>2026-05-03T14:53:21.691Z</time></trkpt><trkpt lat="44.9270992" lon="9.0235991"><ele>156.0</ele><time>2026-05-03T14:53:22.706Z</time></trkpt><trkpt lat="44.9272192" lon="9.0234906"><ele>156.0</ele><time>2026-05-03T14:53:23.692Z</time></trkpt><trkpt lat="44.9273223" lon="9.0234115"><ele>156.0</ele><time>2026-05-03T14:53:24.697Z</time></trkpt><trkpt lat="44.9274357" lon="9.0233301"><ele>156.0</ele><time>2026-05-03T14:53:25.692Z</time></trkpt><trkpt lat="44.9275383" lon="9.0232076"><ele>155.8</ele><time>2026-05-03T14:53:26.69Z</time></trkpt><trkpt lat="44.9276187" lon="9.023089"><ele>155.6</ele><time>2026-05-03T14:53:27.706Z</time></trkpt><trkpt lat="44.9276937" lon="9.0229777"><ele>155.4</ele><time>2026-05-03T14:53:28.695Z</time></trkpt><trkpt lat="44.9277726" lon="9.0228745"><ele>155.2</ele><time>2026-05-03T14:53:29.7Z</time></trkpt><trkpt lat="44.9278524" lon="9.0227777"><ele>155.0</ele><time>2026-05-03T14:53:30.7Z</time></trkpt><trkpt lat="44.9279345" lon="9.0226716"><ele>155.0</ele><time>2026-05-03T14:53:31.699Z</time></trkpt><trkpt lat="44.9280198" lon="9.0225612"><ele>155.0</ele><time>2026-05-03T14:53:32.709Z</time></trkpt><trkpt lat="44.9281076" lon="9.0224393"><ele>155.0</ele><time>2026-05-03T14:53:33.701Z</time></trkpt><trkpt lat="44.9281992" lon="9.0223269"><ele>155.0</ele><time>2026-05-03T14:53:34.692Z</time></trkpt><trkpt lat="44.9282841" lon="9.0222099"><ele>155.0</ele><time>2026-05-03T14:53:35.694Z</time></trkpt><trkpt lat="44.9283673" lon="9.0220878"><ele>155.0</ele><time>2026-05-03T14:53:36.696Z</time></trkpt><trkpt lat="44.9284518" lon="9.0219694"><ele>155.0</ele><time>2026-05-03T14:53:37.703Z</time></trkpt><trkpt lat="44.9285401" lon="9.021858"><ele>155.0</ele><time>2026-05-03T14:53:38.69Z</time></trkpt><trkpt lat="44.9286362" lon="9.0217422"><ele>154.75</ele><time>2026-05-03T14:53:39.692Z</time></trkpt><trkpt lat="44.9287302" lon="9.0216127"><ele>154.5</ele><time>2026-05-03T14:53:40.683Z</time></trkpt><trkpt lat="44.9288203" lon="9.0214945"><ele>154.25</ele><time>2026-05-03T14:53:41.693Z</time></trkpt><trkpt lat="44.9289217" lon="9.021365"><ele>154.0</ele><time>2026-05-03T14:53:42.704Z</time></trkpt><trkpt lat="44.9290234" lon="9.0212475"><ele>154.0</ele><time>2026-05-03T14:53:43.695Z</time></trkpt><trkpt lat="44.9291449" lon="9.0211292"><ele>154.0</ele><time>2026-05-03T14:53:44.69Z</time></trkpt><trkpt lat="44.9292338" lon="9.0210004"><ele>154.0</ele><time>2026-05-03T14:53:45.692Z</time></trkpt><trkpt lat="44.9293116" lon="9.0208739"><ele>154.0</ele><time>2026-05-03T14:53:46.694Z</time></trkpt><trkpt lat="44.9294021" lon="9.0207675"><ele>153.6</ele><time>2026-05-03T14:53:47.707Z</time></trkpt><trkpt lat="44.9295048" lon="9.0206859"><ele>153.2</ele><time>2026-05-03T14:53:48.687Z</time></trkpt><trkpt lat="44.9295855" lon="9.0206075"><ele>152.79999999999998</ele><time>2026-05-03T14:53:49.686Z</time></trkpt><trkpt lat="44.9296437" lon="9.0205533"><ele>152.4</ele><time>2026-05-03T14:53:50.689Z</time></trkpt><trkpt lat="44.9297346" lon="9.0204564"><ele>152.0</ele><time>2026-05-03T14:53:52.702Z</time></trkpt><trkpt lat="44.9298024" lon="9.0203842"><ele>152.0</ele><time>2026-05-03T14:53:54.687Z</time></trkpt><trkpt lat="44.9298518" lon="9.0202882"><ele>152.0</ele><time>2026-05-03T14:53:58.693Z</time></trkpt><trkpt lat="44.92994" lon="9.0202328"><ele>152.0</ele><time>2026-05-03T14:54:01.692Z</time></trkpt><trkpt lat="44.9300355" lon="9.0202067"><ele>152.0</ele><time>2026-05-03T14:54:03.699Z</time></trkpt><trkpt lat="44.9301135" lon="9.020088"><ele>152.0</ele><time>2026-05-03T14:54:05.682Z</time></trkpt><trkpt lat="44.9301546" lon="9.019984"><ele>151.0</ele><time>2026-05-03T14:54:06.673Z</time></trkpt><trkpt lat="44.9301466" lon="9.0198545"><ele>150.0</ele><time>2026-05-03T14:54:07.694Z</time></trkpt><trkpt lat="44.9301378" lon="9.0197012"><ele>149.0</ele><time>2026-05-03T14:54:08.679Z</time></trkpt><trkpt lat="44.9301077" lon="9.0195437"><ele>148.0</ele><time>2026-05-03T14:54:09.686Z</time></trkpt><trkpt lat="44.9300748" lon="9.0193866"><ele>147.0</ele><time>2026-05-03T14:54:10.691Z</time></trkpt><trkpt lat="44.9300522" lon="9.0192038"><ele>147.79999999999998</ele><time>2026-05-03T14:54:11.681Z</time></trkpt><trkpt lat="44.9300274" lon="9.0190241"><ele>148.6</ele><time>2026-05-03T14:54:12.698Z</time></trkpt><trkpt lat="44.9300102" lon="9.0188699"><ele>149.39999999999998</ele><time>2026-05-03T14:54:13.688Z</time></trkpt><trkpt lat="44.9300004" lon="9.0187354"><ele>150.2</ele><time>2026-05-03T14:54:14.686Z</time></trkpt><trkpt lat="44.929985" lon="9.018605"><ele>151.0</ele><time>2026-05-03T14:54:15.686Z</time></trkpt><trkpt lat="44.9299701" lon="9.0184939"><ele>151.0</ele><time>2026-05-03T14:54:16.687Z</time></trkpt><trkpt lat="44.9299601" lon="9.0183931"><ele>151.0</ele><time>2026-05-03T14:54:17.705Z</time></trkpt><trkpt lat="44.9299484" lon="9.0182895"><ele>151.0</ele><time>2026-05-03T14:54:18.678Z</time></trkpt><trkpt lat="44.9299366" lon="9.0181487"><ele>151.0</ele><time>2026-05-03T14:54:19.68Z</time></trkpt><trkpt lat="44.9299361" lon="9.0179977"><ele>151.0</ele><time>2026-05-03T14:54:20.688Z</time></trkpt><trkpt lat="44.9299298" lon="9.017852"><ele>151.6</ele><time>2026-05-03T14:54:21.688Z</time></trkpt><trkpt lat="44.9299234" lon="9.0177045"><ele>152.2</ele><time>2026-05-03T14:54:22.702Z</time></trkpt><trkpt lat="44.9299172" lon="9.0175544"><ele>152.8</ele><time>2026-05-03T14:54:23.69Z</time></trkpt><trkpt lat="44.9299086" lon="9.0173958"><ele>153.4</ele><time>2026-05-03T14:54:24.692Z</time></trkpt><trkpt lat="44.9298857" lon="9.0172357"><ele>154.0</ele><time>2026-05-03T14:54:25.69Z</time></trkpt><trkpt lat="44.929862" lon="9.0170727"><ele>154.25</ele><time>2026-05-03T14:54:26.688Z</time></trkpt><trkpt lat="44.929839" lon="9.0169079"><ele>154.5</ele><time>2026-05-03T14:54:27.696Z</time></trkpt><trkpt lat="44.9298188" lon="9.0167403"><ele>154.75</ele><time>2026-05-03T14:54:28.687Z</time></trkpt><trkpt lat="44.929792" lon="9.016586"><ele>155.0</ele><time>2026-05-03T14:54:29.688Z</time></trkpt><trkpt lat="44.9297798" lon="9.0164231"><ele>155.0</ele><time>2026-05-03T14:54:30.695Z</time></trkpt><trkpt lat="44.9297747" lon="9.016285"><ele>155.0</ele><time>2026-05-03T14:54:31.691Z</time></trkpt><trkpt lat="44.9297715" lon="9.0161472"><ele>155.0</ele><time>2026-05-03T14:54:32.69Z</time></trkpt><trkpt lat="44.9297841" lon="9.0160086"><ele>155.0</ele><time>2026-05-03T14:54:33.687Z</time></trkpt><trkpt lat="44.9298238" lon="9.0158727"><ele>155.0</ele><time>2026-05-03T14:54:34.685Z</time></trkpt><trkpt lat="44.9298752" lon="9.0157553"><ele>155.0</ele><time>2026-05-03T14:54:35.685Z</time></trkpt><trkpt lat="44.9299369" lon="9.0156536"><ele>155.0</ele><time>2026-05-03T14:54:36.688Z</time></trkpt><trkpt lat="44.9300192" lon="9.0155738"><ele>155.0</ele><time>2026-05-03T14:54:37.689Z</time></trkpt><trkpt lat="44.9301338" lon="9.0155465"><ele>155.0</ele><time>2026-05-03T14:54:38.678Z</time></trkpt><trkpt lat="44.930273" lon="9.0155367"><ele>154.5</ele><time>2026-05-03T14:54:39.679Z</time></trkpt><trkpt lat="44.930412" lon="9.0155268"><ele>154.0</ele><time>2026-05-03T14:54:40.681Z</time></trkpt><trkpt lat="44.9305521" lon="9.0155087"><ele>153.5</ele><time>2026-05-03T14:54:41.682Z</time></trkpt><trkpt lat="44.9306824" lon="9.0154846"><ele>153.0</ele><time>2026-05-03T14:54:42.687Z</time></trkpt><trkpt lat="44.9308145" lon="9.0154469"><ele>152.75</ele><time>2026-05-03T14:54:43.689Z</time></trkpt><trkpt lat="44.9309406" lon="9.01541"><ele>152.5</ele><time>2026-05-03T14:54:44.684Z</time></trkpt><trkpt lat="44.9310604" lon="9.0153845"><ele>152.25</ele><time>2026-05-03T14:54:45.69Z</time></trkpt><trkpt lat="44.9311909" lon="9.0153662"><ele>152.0</ele><time>2026-05-03T14:54:46.687Z</time></trkpt><trkpt lat="44.9313195" lon="9.0153425"><ele>152.0</ele><time>2026-05-03T14:54:47.678Z</time></trkpt><trkpt lat="44.9314508" lon="9.0153199"><ele>152.0</ele><time>2026-05-03T14:54:48.675Z</time></trkpt><trkpt lat="44.9315746" lon="9.0152981"><ele>152.0</ele><time>2026-05-03T14:54:49.684Z</time></trkpt><trkpt lat="44.931686" lon="9.0152763"><ele>152.0</ele><time>2026-05-03T14:54:50.675Z</time></trkpt><trkpt lat="44.9317709" lon="9.0152523"><ele>151.7142857142857</ele><time>2026-05-03T14:54:51.676Z</time></trkpt><trkpt lat="44.9318523" lon="9.0152228"><ele>151.42857142857144</ele><time>2026-05-03T14:54:52.673Z</time></trkpt><trkpt lat="44.9319176" lon="9.0152022"><ele>151.14285714285714</ele><time>2026-05-03T14:54:53.68Z</time></trkpt><trkpt lat="44.9319897" lon="9.0151932"><ele>150.85714285714283</ele><time>2026-05-03T14:54:54.673Z</time></trkpt><trkpt lat="44.9320646" lon="9.0151736"><ele>150.57142857142856</ele><time>2026-05-03T14:54:55.663Z</time></trkpt><trkpt lat="44.9321077" lon="9.0151062"><ele>150.28571428571428</ele><time>2026-05-03T14:54:56.666Z</time></trkpt><trkpt lat="44.9321179" lon="9.0150181"><ele>150.0</ele><time>2026-05-03T14:54:57.663Z</time></trkpt><trkpt lat="44.9321024" lon="9.0149248"><ele>150.0</ele><time>2026-05-03T14:54:58.662Z</time></trkpt><trkpt lat="44.9320843" lon="9.014825"><ele>150.0</ele><time>2026-05-03T14:54:59.677Z</time></trkpt><trkpt lat="44.9320617" lon="9.0147051"><ele>150.0</ele><time>2026-05-03T14:55:00.678Z</time></trkpt><trkpt lat="44.9320479" lon="9.0145539"><ele>150.0</ele><time>2026-05-03T14:55:01.681Z</time></trkpt><trkpt lat="44.9320328" lon="9.0144079"><ele>150.0</ele><time>2026-05-03T14:55:02.682Z</time></trkpt><trkpt lat="44.9320217" lon="9.0142865"><ele>150.0</ele><time>2026-05-03T14:55:03.681Z</time></trkpt><trkpt lat="44.932009" lon="9.0141819"><ele>150.0</ele><time>2026-05-03T14:55:04.689Z</time></trkpt><trkpt lat="44.9319922" lon="9.014089"><ele>150.0</ele><time>2026-05-03T14:55:05.689Z</time></trkpt><trkpt lat="44.9319589" lon="9.013967"><ele>150.0</ele><time>2026-05-03T14:55:07.669Z</time></trkpt><trkpt lat="44.9319261" lon="9.013861"><ele>150.0</ele><time>2026-05-03T14:55:42.676Z</time></trkpt><trkpt lat="44.9319527" lon="9.0137799"><ele>150.0</ele><time>2026-05-03T14:55:43.675Z</time></trkpt><trkpt lat="44.9320303" lon="9.0136889"><ele>149.8</ele><time>2026-05-03T14:55:44.683Z</time></trkpt><trkpt lat="44.9321254" lon="9.0136153"><ele>149.6</ele><time>2026-05-03T14:55:45.68Z</time></trkpt><trkpt lat="44.9321609" lon="9.0135155"><ele>149.4</ele><time>2026-05-03T14:55:46.682Z</time></trkpt><trkpt lat="44.9322523" lon="9.0134729"><ele>149.2</ele><time>2026-05-03T14:55:47.682Z</time></trkpt><trkpt lat="44.9323892" lon="9.013443"><ele>149.0</ele><time>2026-05-03T14:55:48.687Z</time></trkpt><trkpt lat="44.9325337" lon="9.0134127"><ele>148.66666666666666</ele><time>2026-05-03T14:55:49.694Z</time></trkpt><trkpt lat="44.932676" lon="9.0133921"><ele>148.33333333333334</ele><time>2026-05-03T14:55:50.692Z</time></trkpt><trkpt lat="44.9328135" lon="9.0133682"><ele>148.0</ele><time>2026-05-03T14:55:51.691Z</time></trkpt><trkpt lat="44.9329776" lon="9.0133073"><ele>148.0</ele><time>2026-05-03T14:55:52.691Z</time></trkpt><trkpt lat="44.933147" lon="9.0132557"><ele>148.0</ele><time>2026-05-03T14:55:53.691Z</time></trkpt><trkpt lat="44.9333397" lon="9.0132354"><ele>148.0</ele><time>2026-05-03T14:55:54.693Z</time></trkpt><trkpt lat="44.9335134" lon="9.0132285"><ele>148.0</ele><time>2026-05-03T14:55:55.685Z</time></trkpt><trkpt lat="44.9337132" lon="9.0132088"><ele>148.0</ele><time>2026-05-03T14:55:56.696Z</time></trkpt><trkpt lat="44.9339208" lon="9.0131728"><ele>148.0</ele><time>2026-05-03T14:55:57.695Z</time></trkpt><trkpt lat="44.9341521" lon="9.0131735"><ele>147.0</ele><time>2026-05-03T14:55:58.702Z</time></trkpt><trkpt lat="44.9343694" lon="9.0131429"><ele>146.0</ele><time>2026-05-03T14:55:59.694Z</time></trkpt><trkpt lat="44.9345648" lon="9.0131071"><ele>145.0</ele><time>2026-05-03T14:56:00.703Z</time></trkpt><trkpt lat="44.9347503" lon="9.0130825"><ele>145.0</ele><time>2026-05-03T14:56:01.696Z</time></trkpt><trkpt lat="44.9349415" lon="9.013066"><ele>145.0</ele><time>2026-05-03T14:56:02.698Z</time></trkpt><trkpt lat="44.9351299" lon="9.0130486"><ele>145.0</ele><time>2026-05-03T14:56:03.71Z</time></trkpt><trkpt lat="44.9353274" lon="9.0130215"><ele>144.66666666666669</ele><time>2026-05-03T14:56:04.699Z</time></trkpt><trkpt lat="44.9355116" lon="9.0130019"><ele>144.33333333333334</ele><time>2026-05-03T14:56:05.709Z</time></trkpt><trkpt lat="44.9357077" lon="9.0129707"><ele>144.0</ele><time>2026-05-03T14:56:06.706Z</time></trkpt><trkpt lat="44.9358683" lon="9.0129494"><ele>143.33333333333334</ele><time>2026-05-03T14:56:07.709Z</time></trkpt><trkpt lat="44.9360338" lon="9.0129179"><ele>142.66666666666669</ele><time>2026-05-03T14:56:08.706Z</time></trkpt><trkpt lat="44.9362086" lon="9.0128892"><ele>142.0</ele><time>2026-05-03T14:56:09.697Z</time></trkpt><trkpt lat="44.9363636" lon="9.0128711"><ele>142.0</ele><time>2026-05-03T14:56:10.707Z</time></trkpt><trkpt lat="44.9365117" lon="9.0128611"><ele>142.0</ele><time>2026-05-03T14:56:11.714Z</time></trkpt><trkpt lat="44.9366945" lon="9.0128447"><ele>142.0</ele><time>2026-05-03T14:56:12.716Z</time></trkpt><trkpt lat="44.9368718" lon="9.0128553"><ele>142.33333333333334</ele><time>2026-05-03T14:56:13.711Z</time></trkpt><trkpt lat="44.9370587" lon="9.0128648"><ele>142.66666666666666</ele><time>2026-05-03T14:56:14.71Z</time></trkpt><trkpt lat="44.9372534" lon="9.0128551"><ele>143.0</ele><time>2026-05-03T14:56:15.711Z</time></trkpt><trkpt lat="44.9374655" lon="9.0128179"><ele>142.33333333333331</ele><time>2026-05-03T14:56:16.711Z</time></trkpt><trkpt lat="44.9376588" lon="9.0128007"><ele>141.66666666666666</ele><time>2026-05-03T14:56:17.727Z</time></trkpt><trkpt lat="44.9378606" lon="9.0127914"><ele>141.0</ele><time>2026-05-03T14:56:18.715Z</time></trkpt><trkpt lat="44.9380731" lon="9.0127517"><ele>141.0</ele><time>2026-05-03T14:56:19.721Z</time></trkpt><trkpt lat="44.938291" lon="9.0127013"><ele>141.0</ele><time>2026-05-03T14:56:20.719Z</time></trkpt><trkpt lat="44.9385013" lon="9.0126788"><ele>141.0</ele><time>2026-05-03T14:56:21.716Z</time></trkpt><trkpt lat="44.9387276" lon="9.0126346"><ele>140.5</ele><time>2026-05-03T14:56:22.712Z</time></trkpt><trkpt lat="44.9389604" lon="9.0126128"><ele>140.0</ele><time>2026-05-03T14:56:23.711Z</time></trkpt><trkpt lat="44.9391799" lon="9.0126125"><ele>140.0</ele><time>2026-05-03T14:56:24.729Z</time></trkpt><trkpt lat="44.9393954" lon="9.0126039"><ele>140.0</ele><time>2026-05-03T14:56:25.717Z</time></trkpt><trkpt lat="44.9396006" lon="9.0125987"><ele>140.0</ele><time>2026-05-03T14:56:26.731Z</time></trkpt><trkpt lat="44.939832" lon="9.0125771"><ele>140.0</ele><time>2026-05-03T14:56:27.723Z</time></trkpt><trkpt lat="44.9400701" lon="9.0125597"><ele>140.0</ele><time>2026-05-03T14:56:28.715Z</time></trkpt><trkpt lat="44.9402868" lon="9.0125615"><ele>140.0</ele><time>2026-05-03T14:56:29.721Z</time></trkpt><trkpt lat="44.940511" lon="9.0125133"><ele>140.0</ele><time>2026-05-03T14:56:30.718Z</time></trkpt><trkpt lat="44.9407139" lon="9.0124942"><ele>140.0</ele><time>2026-05-03T14:56:31.72Z</time></trkpt><trkpt lat="44.9409423" lon="9.0124498"><ele>139.66666666666666</ele><time>2026-05-03T14:56:32.717Z</time></trkpt><trkpt lat="44.9411652" lon="9.0124102"><ele>139.33333333333334</ele><time>2026-05-03T14:56:33.714Z</time></trkpt><trkpt lat="44.9413722" lon="9.0123515"><ele>139.0</ele><time>2026-05-03T14:56:34.718Z</time></trkpt><trkpt lat="44.9415668" lon="9.0123074"><ele>139.0</ele><time>2026-05-03T14:56:35.717Z</time></trkpt><trkpt lat="44.9417768" lon="9.0122708"><ele>139.0</ele><time>2026-05-03T14:56:36.712Z</time></trkpt><trkpt lat="44.9419783" lon="9.0122493"><ele>139.0</ele><time>2026-05-03T14:56:37.706Z</time></trkpt><trkpt lat="44.9421814" lon="9.0122363"><ele>139.0</ele><time>2026-05-03T14:56:38.714Z</time></trkpt><trkpt lat="44.942407" lon="9.012203"><ele>139.0</ele><time>2026-05-03T14:56:39.715Z</time></trkpt><trkpt lat="44.942623" lon="9.0121664"><ele>139.0</ele><time>2026-05-03T14:56:40.714Z</time></trkpt><trkpt lat="44.9428476" lon="9.0121258"><ele>138.0</ele><time>2026-05-03T14:56:41.71Z</time></trkpt><trkpt lat="44.9430844" lon="9.0120951"><ele>137.0</ele><time>2026-05-03T14:56:42.717Z</time></trkpt><trkpt lat="44.9433107" lon="9.012069"><ele>137.0</ele><time>2026-05-03T14:56:43.707Z</time></trkpt><trkpt lat="44.9435244" lon="9.0120413"><ele>137.0</ele><time>2026-05-03T14:56:44.706Z</time></trkpt><trkpt lat="44.9437268" lon="9.0120098"><ele>137.0</ele><time>2026-05-03T14:56:45.712Z</time></trkpt><trkpt lat="44.9439555" lon="9.0119899"><ele>137.0</ele><time>2026-05-03T14:56:46.717Z</time></trkpt><trkpt lat="44.9441841" lon="9.0119671"><ele>137.0</ele><time>2026-05-03T14:56:47.719Z</time></trkpt><trkpt lat="44.9444067" lon="9.0119372"><ele>137.5</ele><time>2026-05-03T14:56:48.71Z</time></trkpt><trkpt lat="44.9446339" lon="9.0118916"><ele>138.0</ele><time>2026-05-03T14:56:49.714Z</time></trkpt><trkpt lat="44.9448667" lon="9.0118633"><ele>137.33333333333334</ele><time>2026-05-03T14:56:50.716Z</time></trkpt><trkpt lat="44.945081" lon="9.0118332"><ele>136.66666666666669</ele><time>2026-05-03T14:56:51.709Z</time></trkpt><trkpt lat="44.9453048" lon="9.0118007"><ele>136.0</ele><time>2026-05-03T14:56:52.721Z</time></trkpt><trkpt lat="44.94553" lon="9.0118009"><ele>136.0</ele><time>2026-05-03T14:56:53.708Z</time></trkpt><trkpt lat="44.9457653" lon="9.0117843"><ele>136.0</ele><time>2026-05-03T14:56:54.72Z</time></trkpt><trkpt lat="44.9459918" lon="9.0117415"><ele>135.0</ele><time>2026-05-03T14:56:55.706Z</time></trkpt><trkpt lat="44.9462191" lon="9.0116981"><ele>134.0</ele><time>2026-05-03T14:56:56.718Z</time></trkpt><trkpt lat="44.9464588" lon="9.0116653"><ele>134.0</ele><time>2026-05-03T14:56:57.71Z</time></trkpt><trkpt lat="44.9466901" lon="9.0116223"><ele>134.0</ele><time>2026-05-03T14:56:58.72Z</time></trkpt><trkpt lat="44.9469217" lon="9.0116095"><ele>134.0</ele><time>2026-05-03T14:56:59.713Z</time></trkpt><trkpt lat="44.9471559" lon="9.0116146"><ele>134.0</ele><time>2026-05-03T14:57:00.713Z</time></trkpt><trkpt lat="44.9473945" lon="9.011591"><ele>134.5</ele><time>2026-05-03T14:57:01.704Z</time></trkpt><trkpt lat="44.9476338" lon="9.0115405"><ele>135.0</ele><time>2026-05-03T14:57:02.714Z</time></trkpt><trkpt lat="44.9478587" lon="9.0115067"><ele>135.0</ele><time>2026-05-03T14:57:03.705Z</time></trkpt><trkpt lat="44.9480914" lon="9.0115025"><ele>135.0</ele><time>2026-05-03T14:57:04.699Z</time></trkpt><trkpt lat="44.94832" lon="9.0114958"><ele>133.5</ele><time>2026-05-03T14:57:05.707Z</time></trkpt><trkpt lat="44.9485728" lon="9.0114613"><ele>132.0</ele><time>2026-05-03T14:57:06.704Z</time></trkpt><trkpt lat="44.9488247" lon="9.0114312"><ele>132.0</ele><time>2026-05-03T14:57:07.703Z</time></trkpt><trkpt lat="44.949063" lon="9.0113999"><ele>132.0</ele><time>2026-05-03T14:57:08.698Z</time></trkpt><trkpt lat="44.9492976" lon="9.0113848"><ele>130.5</ele><time>2026-05-03T14:57:09.713Z</time></trkpt><trkpt lat="44.9495242" lon="9.0113552"><ele>129.0</ele><time>2026-05-03T14:57:10.704Z</time></trkpt><trkpt lat="44.9497657" lon="9.0112939"><ele>129.0</ele><time>2026-05-03T14:57:11.71Z</time></trkpt><trkpt lat="44.9499951" lon="9.0112247"><ele>129.0</ele><time>2026-05-03T14:57:12.706Z</time></trkpt><trkpt lat="44.9502093" lon="9.0111682"><ele>129.5</ele><time>2026-05-03T14:57:13.706Z</time></trkpt><trkpt lat="44.9504471" lon="9.0111458"><ele>130.0</ele><time>2026-05-03T14:57:14.705Z</time></trkpt><trkpt lat="44.950674" lon="9.0111374"><ele>129.33333333333334</ele><time>2026-05-03T14:57:15.711Z</time></trkpt><trkpt lat="44.9509026" lon="9.0110996"><ele>128.66666666666666</ele><time>2026-05-03T14:57:16.71Z</time></trkpt><trkpt lat="44.9511124" lon="9.0110818"><ele>128.0</ele><time>2026-05-03T14:57:17.71Z</time></trkpt><trkpt lat="44.9513159" lon="9.0110452"><ele>128.0</ele><time>2026-05-03T14:57:18.702Z</time></trkpt><trkpt lat="44.9515253" lon="9.0110283"><ele>128.0</ele><time>2026-05-03T14:57:19.715Z</time></trkpt><trkpt lat="44.9517223" lon="9.0110067"><ele>128.0</ele><time>2026-05-03T14:57:20.711Z</time></trkpt><trkpt lat="44.9519106" lon="9.0109837"><ele>128.33333333333331</ele><time>2026-05-03T14:57:21.715Z</time></trkpt><trkpt lat="44.952085" lon="9.0109552"><ele>128.66666666666666</ele><time>2026-05-03T14:57:22.706Z</time></trkpt><trkpt lat="44.9522422" lon="9.0109338"><ele>129.0</ele><time>2026-05-03T14:57:23.711Z</time></trkpt><trkpt lat="44.9523777" lon="9.0108871"><ele>129.0</ele><time>2026-05-03T14:57:24.705Z</time></trkpt><trkpt lat="44.9525004" lon="9.0108668"><ele>129.0</ele><time>2026-05-03T14:57:25.703Z</time></trkpt><trkpt lat="44.9526251" lon="9.0108053"><ele>129.0</ele><time>2026-05-03T14:57:26.693Z</time></trkpt><trkpt lat="44.9527612" lon="9.0108578"><ele>129.0</ele><time>2026-05-03T14:57:27.701Z</time></trkpt><trkpt lat="44.952886" lon="9.0108933"><ele>128.25</ele><time>2026-05-03T14:57:28.702Z</time></trkpt><trkpt lat="44.9530179" lon="9.0109395"><ele>127.5</ele><time>2026-05-03T14:57:29.691Z</time></trkpt><trkpt lat="44.9531354" lon="9.0109362"><ele>126.75</ele><time>2026-05-03T14:57:30.693Z</time></trkpt><trkpt lat="44.9532691" lon="9.0108816"><ele>126.0</ele><time>2026-05-03T14:57:31.691Z</time></trkpt><trkpt lat="44.9534212" lon="9.0108401"><ele>126.0</ele><time>2026-05-03T14:57:32.686Z</time></trkpt><trkpt lat="44.9535622" lon="9.0108324"><ele>126.0</ele><time>2026-05-03T14:57:33.698Z</time></trkpt><trkpt lat="44.9537714" lon="9.0107582"><ele>126.0</ele><time>2026-05-03T14:57:34.71Z</time></trkpt><trkpt lat="44.9539853" lon="9.0107205"><ele>125.66666666666666</ele><time>2026-05-03T14:57:35.706Z</time></trkpt><trkpt lat="44.9542005" lon="9.0107116"><ele>125.33333333333333</ele><time>2026-05-03T14:57:36.71Z</time></trkpt><trkpt lat="44.9544091" lon="9.010658"><ele>125.0</ele><time>2026-05-03T14:57:37.708Z</time></trkpt><trkpt lat="44.9546228" lon="9.0106003"><ele>124.0</ele><time>2026-05-03T14:57:38.705Z</time></trkpt><trkpt lat="44.9548226" lon="9.0105671"><ele>123.0</ele><time>2026-05-03T14:57:39.709Z</time></trkpt><trkpt lat="44.9550337" lon="9.0105207"><ele>122.0</ele><time>2026-05-03T14:57:40.708Z</time></trkpt><trkpt lat="44.9552393" lon="9.0104842"><ele>122.0</ele><time>2026-05-03T14:57:41.712Z</time></trkpt><trkpt lat="44.9554435" lon="9.0104731"><ele>122.0</ele><time>2026-05-03T14:57:42.717Z</time></trkpt><trkpt lat="44.9556557" lon="9.0104457"><ele>122.0</ele><time>2026-05-03T14:57:43.72Z</time></trkpt><trkpt lat="44.955866" lon="9.0104229"><ele>122.0</ele><time>2026-05-03T14:57:44.718Z</time></trkpt><trkpt lat="44.956074" lon="9.0103932"><ele>122.0</ele><time>2026-05-03T14:57:45.712Z</time></trkpt><trkpt lat="44.9562837" lon="9.0103655"><ele>122.0</ele><time>2026-05-03T14:57:46.716Z</time></trkpt><trkpt lat="44.9564985" lon="9.0103503"><ele>121.33333333333333</ele><time>2026-05-03T14:57:47.714Z</time></trkpt><trkpt lat="44.956722" lon="9.0103495"><ele>120.66666666666666</ele><time>2026-05-03T14:57:48.712Z</time></trkpt><trkpt lat="44.9569344" lon="9.0102991"><ele>120.0</ele><time>2026-05-03T14:57:49.713Z</time></trkpt><trkpt lat="44.957133" lon="9.0102569"><ele>120.0</ele><time>2026-05-03T14:57:50.721Z</time></trkpt><trkpt lat="44.9573453" lon="9.0102335"><ele>120.0</ele><time>2026-05-03T14:57:51.712Z</time></trkpt><trkpt lat="44.9575606" lon="9.0102196"><ele>120.0</ele><time>2026-05-03T14:57:52.717Z</time></trkpt><trkpt lat="44.9577753" lon="9.0102014"><ele>120.0</ele><time>2026-05-03T14:57:53.722Z</time></trkpt><trkpt lat="44.9579959" lon="9.0101853"><ele>120.0</ele><time>2026-05-03T14:57:54.725Z</time></trkpt><trkpt lat="44.9582182" lon="9.0101638"><ele>120.0</ele><time>2026-05-03T14:57:55.711Z</time></trkpt><trkpt lat="44.958454" lon="9.0101386"><ele>120.0</ele><time>2026-05-03T14:57:56.719Z</time></trkpt><trkpt lat="44.9586925" lon="9.0101213"><ele>120.0</ele><time>2026-05-03T14:57:57.718Z</time></trkpt><trkpt lat="44.9589424" lon="9.0100737"><ele>120.0</ele><time>2026-05-03T14:57:58.723Z</time></trkpt><trkpt lat="44.9591956" lon="9.0100682"><ele>120.0</ele><time>2026-05-03T14:57:59.725Z</time></trkpt><trkpt lat="44.9594548" lon="9.0100385"><ele>120.5</ele><time>2026-05-03T14:58:00.724Z</time></trkpt><trkpt lat="44.9597168" lon="9.0100224"><ele>121.0</ele><time>2026-05-03T14:58:01.723Z</time></trkpt><trkpt lat="44.9599712" lon="9.009973"><ele>120.5</ele><time>2026-05-03T14:58:02.715Z</time></trkpt><trkpt lat="44.9602077" lon="9.0099017"><ele>120.0</ele><time>2026-05-03T14:58:03.714Z</time></trkpt><trkpt lat="44.9604449" lon="9.0098533"><ele>120.0</ele><time>2026-05-03T14:58:04.715Z</time></trkpt><trkpt lat="44.9606726" lon="9.0098159"><ele>120.0</ele><time>2026-05-03T14:58:05.707Z</time></trkpt><trkpt lat="44.9609051" lon="9.0097623"><ele>118.5</ele><time>2026-05-03T14:58:06.707Z</time></trkpt><trkpt lat="44.9611324" lon="9.0097312"><ele>117.0</ele><time>2026-05-03T14:58:07.721Z</time></trkpt><trkpt lat="44.9613537" lon="9.009698"><ele>117.0</ele><time>2026-05-03T14:58:08.708Z</time></trkpt><trkpt lat="44.9615566" lon="9.0096486"><ele>117.0</ele><time>2026-05-03T14:58:09.704Z</time></trkpt><trkpt lat="44.9617531" lon="9.0096218"><ele>117.0</ele><time>2026-05-03T14:58:10.719Z</time></trkpt><trkpt lat="44.9619417" lon="9.009604"><ele>116.66666666666666</ele><time>2026-05-03T14:58:11.717Z</time></trkpt><trkpt lat="44.962138" lon="9.0095887"><ele>116.33333333333333</ele><time>2026-05-03T14:58:12.706Z</time></trkpt><trkpt lat="44.9623244" lon="9.0095674"><ele>116.0</ele><time>2026-05-03T14:58:13.715Z</time></trkpt><trkpt lat="44.9624928" lon="9.0095659"><ele>116.0</ele><time>2026-05-03T14:58:14.714Z</time></trkpt><trkpt lat="44.9626492" lon="9.0095425"><ele>116.0</ele><time>2026-05-03T14:58:15.709Z</time></trkpt><trkpt lat="44.9628247" lon="9.0095089"><ele>116.0</ele><time>2026-05-03T14:58:16.709Z</time></trkpt><trkpt lat="44.9629723" lon="9.0094941"><ele>116.0</ele><time>2026-05-03T14:58:17.711Z</time></trkpt><trkpt lat="44.9631147" lon="9.0094789"><ele>116.0</ele><time>2026-05-03T14:58:18.71Z</time></trkpt><trkpt lat="44.9632408" lon="9.0094833"><ele>116.0</ele><time>2026-05-03T14:58:19.708Z</time></trkpt><trkpt lat="44.9633884" lon="9.009463"><ele>116.0</ele><time>2026-05-03T14:58:20.711Z</time></trkpt><trkpt lat="44.9635505" lon="9.0094542"><ele>115.33333333333333</ele><time>2026-05-03T14:58:21.711Z</time></trkpt><trkpt lat="44.9637181" lon="9.0094064"><ele>114.66666666666666</ele><time>2026-05-03T14:58:22.704Z</time></trkpt><trkpt lat="44.9638749" lon="9.009375"><ele>114.0</ele><time>2026-05-03T14:58:23.71Z</time></trkpt><trkpt lat="44.964057" lon="9.0093515"><ele>114.0</ele><time>2026-05-03T14:58:24.714Z</time></trkpt><trkpt lat="44.9642447" lon="9.0093267"><ele>114.0</ele><time>2026-05-03T14:58:25.704Z</time></trkpt><trkpt lat="44.9644219" lon="9.009309"><ele>114.0</ele><time>2026-05-03T14:58:26.718Z</time></trkpt><trkpt lat="44.9646232" lon="9.0092967"><ele>114.0</ele><time>2026-05-03T14:58:27.713Z</time></trkpt><trkpt lat="44.9648204" lon="9.0092831"><ele>114.0</ele><time>2026-05-03T14:58:28.728Z</time></trkpt><trkpt lat="44.9650207" lon="9.0092456"><ele>114.0</ele><time>2026-05-03T14:58:29.723Z</time></trkpt><trkpt lat="44.9652032" lon="9.0092177"><ele>114.0</ele><time>2026-05-03T14:58:30.714Z</time></trkpt><trkpt lat="44.9653893" lon="9.0091842"><ele>114.0</ele><time>2026-05-03T14:58:31.723Z</time></trkpt><trkpt lat="44.9655625" lon="9.0091485"><ele>114.0</ele><time>2026-05-03T14:58:32.712Z</time></trkpt><trkpt lat="44.9657434" lon="9.0091193"><ele>113.0</ele><time>2026-05-03T14:58:33.716Z</time></trkpt><trkpt lat="44.965927" lon="9.0091245"><ele>112.0</ele><time>2026-05-03T14:58:34.711Z</time></trkpt><trkpt lat="44.9661175" lon="9.0091124"><ele>111.0</ele><time>2026-05-03T14:58:35.707Z</time></trkpt><trkpt lat="44.9663282" lon="9.0091015"><ele>111.0</ele><time>2026-05-03T14:58:36.7Z</time></trkpt><trkpt lat="44.9665402" lon="9.0090979"><ele>111.0</ele><time>2026-05-03T14:58:37.718Z</time></trkpt><trkpt lat="44.9667456" lon="9.009066"><ele>111.0</ele><time>2026-05-03T14:58:38.704Z</time></trkpt><trkpt lat="44.9669504" lon="9.0090425"><ele>111.33333333333334</ele><time>2026-05-03T14:58:39.71Z</time></trkpt><trkpt lat="44.967173" lon="9.0089874"><ele>111.66666666666667</ele><time>2026-05-03T14:58:40.716Z</time></trkpt><trkpt lat="44.9673708" lon="9.0089686"><ele>112.0</ele><time>2026-05-03T14:58:41.715Z</time></trkpt><trkpt lat="44.967565" lon="9.0089628"><ele>111.33333333333334</ele><time>2026-05-03T14:58:42.712Z</time></trkpt><trkpt lat="44.9677387" lon="9.0089486"><ele>110.66666666666666</ele><time>2026-05-03T14:58:43.708Z</time></trkpt><trkpt lat="44.9679116" lon="9.0089164"><ele>110.0</ele><time>2026-05-03T14:58:44.713Z</time></trkpt><trkpt lat="44.9680742" lon="9.0088746"><ele>110.0</ele><time>2026-05-03T14:58:45.71Z</time></trkpt><trkpt lat="44.9682261" lon="9.0088644"><ele>110.0</ele><time>2026-05-03T14:58:46.718Z</time></trkpt><trkpt lat="44.9683913" lon="9.0088522"><ele>110.0</ele><time>2026-05-03T14:58:47.71Z</time></trkpt><trkpt lat="44.9685368" lon="9.0088037"><ele>110.33333333333333</ele><time>2026-05-03T14:58:48.712Z</time></trkpt><trkpt lat="44.9686983" lon="9.0087682"><ele>110.66666666666666</ele><time>2026-05-03T14:58:49.719Z</time></trkpt><trkpt lat="44.9688607" lon="9.0087433"><ele>111.0</ele><time>2026-05-03T14:58:50.713Z</time></trkpt><trkpt lat="44.9690121" lon="9.008737"><ele>111.0</ele><time>2026-05-03T14:58:51.704Z</time></trkpt><trkpt lat="44.9691774" lon="9.0087283"><ele>111.0</ele><time>2026-05-03T14:58:52.715Z</time></trkpt><trkpt lat="44.9693326" lon="9.0087072"><ele>111.0</ele><time>2026-05-03T14:58:53.715Z</time></trkpt><trkpt lat="44.9694691" lon="9.008711"><ele>111.0</ele><time>2026-05-03T14:58:54.714Z</time></trkpt><trkpt lat="44.9696065" lon="9.0086836"><ele>111.0</ele><time>2026-05-03T14:58:55.706Z</time></trkpt><trkpt lat="44.9697614" lon="9.0086424"><ele>111.0</ele><time>2026-05-03T14:58:56.707Z</time></trkpt><trkpt lat="44.9699177" lon="9.0086487"><ele>111.33333333333334</ele><time>2026-05-03T14:58:57.718Z</time></trkpt><trkpt lat="44.970076" lon="9.0086421"><ele>111.66666666666667</ele><time>2026-05-03T14:58:58.706Z</time></trkpt><trkpt lat="44.9702206" lon="9.0086396"><ele>112.0</ele><time>2026-05-03T14:58:59.713Z</time></trkpt><trkpt lat="44.9703692" lon="9.0086499"><ele>112.0</ele><time>2026-05-03T14:59:00.71Z</time></trkpt><trkpt lat="44.9705048" lon="9.008642"><ele>112.0</ele><time>2026-05-03T14:59:01.701Z</time></trkpt><trkpt lat="44.9706467" lon="9.0086382"><ele>112.0</ele><time>2026-05-03T14:59:02.696Z</time></trkpt><trkpt lat="44.9708007" lon="9.008594"><ele>112.0</ele><time>2026-05-03T14:59:03.703Z</time></trkpt><trkpt lat="44.9709603" lon="9.0085775"><ele>111.75</ele><time>2026-05-03T14:59:04.715Z</time></trkpt><trkpt lat="44.9710982" lon="9.008576"><ele>111.5</ele><time>2026-05-03T14:59:05.705Z</time></trkpt><trkpt lat="44.9712522" lon="9.0085312"><ele>111.25</ele><time>2026-05-03T14:59:06.699Z</time></trkpt><trkpt lat="44.9713993" lon="9.0084783"><ele>111.0</ele><time>2026-05-03T14:59:07.699Z</time></trkpt><trkpt lat="44.9715497" lon="9.0084242"><ele>111.0</ele><time>2026-05-03T14:59:08.697Z</time></trkpt><trkpt lat="44.9717119" lon="9.0083935"><ele>111.0</ele><time>2026-05-03T14:59:09.7Z</time></trkpt><trkpt lat="44.971874" lon="9.0083652"><ele>111.0</ele><time>2026-05-03T14:59:10.695Z</time></trkpt><trkpt lat="44.9720422" lon="9.0083367"><ele>111.0</ele><time>2026-05-03T14:59:11.692Z</time></trkpt><trkpt lat="44.9722205" lon="9.0083243"><ele>111.0</ele><time>2026-05-03T14:59:12.696Z</time></trkpt><trkpt lat="44.9723918" lon="9.0083083"><ele>111.0</ele><time>2026-05-03T14:59:13.698Z</time></trkpt><trkpt lat="44.9725301" lon="9.0083063"><ele>110.75</ele><time>2026-05-03T14:59:14.698Z</time></trkpt><trkpt lat="44.9726692" lon="9.0082958"><ele>110.5</ele><time>2026-05-03T14:59:15.7Z</time></trkpt><trkpt lat="44.9728164" lon="9.0082516"><ele>110.25</ele><time>2026-05-03T14:59:16.707Z</time></trkpt><trkpt lat="44.9729661" lon="9.0082175"><ele>110.0</ele><time>2026-05-03T14:59:17.7Z</time></trkpt><trkpt lat="44.9731106" lon="9.0081984"><ele>110.0</ele><time>2026-05-03T14:59:18.703Z</time></trkpt><trkpt lat="44.9732507" lon="9.0081947"><ele>110.0</ele><time>2026-05-03T14:59:19.703Z</time></trkpt><trkpt lat="44.9733986" lon="9.0081545"><ele>110.0</ele><time>2026-05-03T14:59:20.705Z</time></trkpt><trkpt lat="44.9735574" lon="9.0081468"><ele>109.5</ele><time>2026-05-03T14:59:21.696Z</time></trkpt><trkpt lat="44.9737135" lon="9.0081185"><ele>109.0</ele><time>2026-05-03T14:59:22.707Z</time></trkpt><trkpt lat="44.973852" lon="9.0081043"><ele>108.5</ele><time>2026-05-03T14:59:23.688Z</time></trkpt><trkpt lat="44.973993" lon="9.0080868"><ele>108.0</ele><time>2026-05-03T14:59:24.696Z</time></trkpt><trkpt lat="44.9741444" lon="9.0080521"><ele>107.66666666666666</ele><time>2026-05-03T14:59:25.69Z</time></trkpt><trkpt lat="44.9742971" lon="9.0080186"><ele>107.33333333333333</ele><time>2026-05-03T14:59:26.686Z</time></trkpt><trkpt lat="44.9744418" lon="9.007975"><ele>107.0</ele><time>2026-05-03T14:59:27.696Z</time></trkpt><trkpt lat="44.9746012" lon="9.007993"><ele>107.0</ele><time>2026-05-03T14:59:28.707Z</time></trkpt><trkpt lat="44.9747497" lon="9.0079754"><ele>107.0</ele><time>2026-05-03T14:59:29.704Z</time></trkpt><trkpt lat="44.9749136" lon="9.0079665"><ele>107.0</ele><time>2026-05-03T14:59:30.699Z</time></trkpt><trkpt lat="44.9750644" lon="9.0079483"><ele>106.66666666666666</ele><time>2026-05-03T14:59:31.695Z</time></trkpt><trkpt lat="44.9752303" lon="9.0079074"><ele>106.33333333333334</ele><time>2026-05-03T14:59:32.695Z</time></trkpt><trkpt lat="44.975374" lon="9.0079247"><ele>106.0</ele><time>2026-05-03T14:59:33.687Z</time></trkpt><trkpt lat="44.9755221" lon="9.007953"><ele>106.0</ele><time>2026-05-03T14:59:34.687Z</time></trkpt><trkpt lat="44.9756658" lon="9.007973"><ele>106.0</ele><time>2026-05-03T14:59:35.684Z</time></trkpt><trkpt lat="44.9758002" lon="9.0080121"><ele>106.0</ele><time>2026-05-03T14:59:36.691Z</time></trkpt><trkpt lat="44.9759386" lon="9.0080384"><ele>106.0</ele><time>2026-05-03T14:59:37.685Z</time></trkpt><trkpt lat="44.9760822" lon="9.0080257"><ele>106.25</ele><time>2026-05-03T14:59:38.675Z</time></trkpt><trkpt lat="44.9762318" lon="9.0080273"><ele>106.5</ele><time>2026-05-03T14:59:39.679Z</time></trkpt><trkpt lat="44.9763758" lon="9.0080339"><ele>106.75</ele><time>2026-05-03T14:59:40.7Z</time></trkpt><trkpt lat="44.9765288" lon="9.0080423"><ele>107.0</ele><time>2026-05-03T14:59:41.689Z</time></trkpt><trkpt lat="44.9766681" lon="9.0080409"><ele>106.25</ele><time>2026-05-03T14:59:42.683Z</time></trkpt><trkpt lat="44.9767888" lon="9.0080622"><ele>105.5</ele><time>2026-05-03T14:59:43.683Z</time></trkpt><trkpt lat="44.9769433" lon="9.0080782"><ele>104.75</ele><time>2026-05-03T14:59:44.687Z</time></trkpt><trkpt lat="44.9770791" lon="9.0080781"><ele>104.0</ele><time>2026-05-03T14:59:45.674Z</time></trkpt><trkpt lat="44.9772095" lon="9.0080941"><ele>104.0</ele><time>2026-05-03T14:59:46.675Z</time></trkpt><trkpt lat="44.9773617" lon="9.0080905"><ele>104.0</ele><time>2026-05-03T14:59:47.695Z</time></trkpt><trkpt lat="44.9774818" lon="9.0080828"><ele>104.0</ele><time>2026-05-03T14:59:48.683Z</time></trkpt><trkpt lat="44.9775861" lon="9.0080965"><ele>104.0</ele><time>2026-05-03T14:59:49.688Z</time></trkpt><trkpt lat="44.9777124" lon="9.0081034"><ele>104.5</ele><time>2026-05-03T14:59:50.692Z</time></trkpt><trkpt lat="44.977824" lon="9.0081161"><ele>105.0</ele><time>2026-05-03T14:59:51.679Z</time></trkpt><trkpt lat="44.977952" lon="9.0081145"><ele>105.5</ele><time>2026-05-03T14:59:52.684Z</time></trkpt><trkpt lat="44.9780779" lon="9.0081218"><ele>106.0</ele><time>2026-05-03T14:59:53.687Z</time></trkpt><trkpt lat="44.9782054" lon="9.0081206"><ele>106.0</ele><time>2026-05-03T14:59:54.693Z</time></trkpt><trkpt lat="44.9783424" lon="9.0081153"><ele>106.0</ele><time>2026-05-03T14:59:55.686Z</time></trkpt><trkpt lat="44.9784814" lon="9.0081112"><ele>106.0</ele><time>2026-05-03T14:59:56.673Z</time></trkpt><trkpt lat="44.9786164" lon="9.0081115"><ele>106.0</ele><time>2026-05-03T14:59:57.659Z</time></trkpt><trkpt lat="44.9787382" lon="9.0080867"><ele>105.75</ele><time>2026-05-03T14:59:58.682Z</time></trkpt><trkpt lat="44.9788945" lon="9.0080886"><ele>105.5</ele><time>2026-05-03T14:59:59.669Z</time></trkpt><trkpt lat="44.9790407" lon="9.0081025"><ele>105.25</ele><time>2026-05-03T15:00:00.661Z</time></trkpt><trkpt lat="44.9791794" lon="9.0080898"><ele>105.0</ele><time>2026-05-03T15:00:01.649Z</time></trkpt><trkpt lat="44.9792902" lon="9.0080853"><ele>105.0</ele><time>2026-05-03T15:00:02.653Z</time></trkpt><trkpt lat="44.9794167" lon="9.0080592"><ele>105.0</ele><time>2026-05-03T15:00:03.651Z</time></trkpt><trkpt lat="44.9795714" lon="9.0080527"><ele>105.0</ele><time>2026-05-03T15:00:04.648Z</time></trkpt><trkpt lat="44.9797195" lon="9.0080618"><ele>105.0</ele><time>2026-05-03T15:00:05.643Z</time></trkpt><trkpt lat="44.9798758" lon="9.0080978"><ele>104.75</ele><time>2026-05-03T15:00:06.645Z</time></trkpt><trkpt lat="44.9800221" lon="9.0081171"><ele>104.5</ele><time>2026-05-03T15:00:07.641Z</time></trkpt><trkpt lat="44.9801599" lon="9.0081395"><ele>104.25</ele><time>2026-05-03T15:00:08.646Z</time></trkpt><trkpt lat="44.9803198" lon="9.0081685"><ele>104.0</ele><time>2026-05-03T15:00:09.648Z</time></trkpt><trkpt lat="44.9804848" lon="9.0082003"><ele>104.0</ele><time>2026-05-03T15:00:10.65Z</time></trkpt><trkpt lat="44.9806274" lon="9.0082489"><ele>104.0</ele><time>2026-05-03T15:00:11.649Z</time></trkpt><trkpt lat="44.9807687" lon="9.0082718"><ele>104.0</ele><time>2026-05-03T15:00:12.645Z</time></trkpt><trkpt lat="44.9809202" lon="9.0083108"><ele>104.0</ele><time>2026-05-03T15:00:13.632Z</time></trkpt><trkpt lat="44.9810788" lon="9.0083404"><ele>103.75</ele><time>2026-05-03T15:00:14.655Z</time></trkpt><trkpt lat="44.9812193" lon="9.0083686"><ele>103.5</ele><time>2026-05-03T15:00:15.661Z</time></trkpt><trkpt lat="44.9813535" lon="9.008315"><ele>103.25</ele><time>2026-05-03T15:00:16.663Z</time></trkpt><trkpt lat="44.9815029" lon="9.0082702"><ele>103.0</ele><time>2026-05-03T15:00:17.666Z</time></trkpt><trkpt lat="44.9816671" lon="9.0081985"><ele>103.0</ele><time>2026-05-03T15:00:18.651Z</time></trkpt><trkpt lat="44.9817948" lon="9.0081656"><ele>103.0</ele><time>2026-05-03T15:00:19.661Z</time></trkpt><trkpt lat="44.9819379" lon="9.0081641"><ele>103.0</ele><time>2026-05-03T15:00:20.659Z</time></trkpt><trkpt lat="44.9820775" lon="9.0082008"><ele>103.0</ele><time>2026-05-03T15:00:21.662Z</time></trkpt><trkpt lat="44.9821984" lon="9.0081954"><ele>103.00000000000001</ele><time>2026-05-03T15:00:22.663Z</time></trkpt><trkpt lat="44.982277" lon="9.0081335"><ele>103.0</ele><time>2026-05-03T15:00:24.661Z</time></trkpt><trkpt lat="44.9823424" lon="9.0081383"><ele>103.0</ele><time>2026-05-03T15:00:25.659Z</time></trkpt><trkpt lat="44.9824212" lon="9.0081585"><ele>103.0</ele><time>2026-05-03T15:00:26.663Z</time></trkpt><trkpt lat="44.9825028" lon="9.0081742"><ele>103.00000000000001</ele><time>2026-05-03T15:00:28.651Z</time></trkpt><trkpt lat="44.982603" lon="9.0081646"><ele>103.0</ele><time>2026-05-03T15:00:30.649Z</time></trkpt><trkpt lat="44.9826662" lon="9.0081792"><ele>102.83333333333334</ele><time>2026-05-03T15:00:31.658Z</time></trkpt><trkpt lat="44.9827351" lon="9.0081815"><ele>102.66666666666667</ele><time>2026-05-03T15:00:32.65Z</time></trkpt><trkpt lat="44.9828122" lon="9.008212"><ele>102.5</ele><time>2026-05-03T15:00:33.655Z</time></trkpt><trkpt lat="44.9828977" lon="9.0082316"><ele>102.33333333333334</ele><time>2026-05-03T15:00:34.656Z</time></trkpt><trkpt lat="44.9829916" lon="9.0082397"><ele>102.16666666666667</ele><time>2026-05-03T15:00:35.648Z</time></trkpt><trkpt lat="44.9830868" lon="9.0082395"><ele>102.0</ele><time>2026-05-03T15:00:36.649Z</time></trkpt><trkpt lat="44.9831975" lon="9.0082508"><ele>102.0</ele><time>2026-05-03T15:00:37.649Z</time></trkpt><trkpt lat="44.9833178" lon="9.0082617"><ele>102.0</ele><time>2026-05-03T15:00:38.65Z</time></trkpt><trkpt lat="44.9834263" lon="9.0082611"><ele>102.0</ele><time>2026-05-03T15:00:39.655Z</time></trkpt><trkpt lat="44.9835534" lon="9.008273"><ele>102.0</ele><time>2026-05-03T15:00:40.667Z</time></trkpt><trkpt lat="44.9836676" lon="9.0082824"><ele>101.75</ele><time>2026-05-03T15:00:41.653Z</time></trkpt><trkpt lat="44.9837966" lon="9.0082838"><ele>101.5</ele><time>2026-05-03T15:00:42.66Z</time></trkpt><trkpt lat="44.9839149" lon="9.0082839"><ele>101.25</ele><time>2026-05-03T15:00:43.649Z</time></trkpt><trkpt lat="44.9840361" lon="9.0082878"><ele>101.0</ele><time>2026-05-03T15:00:44.66Z</time></trkpt><trkpt lat="44.9841558" lon="9.0082799"><ele>101.0</ele><time>2026-05-03T15:00:45.656Z</time></trkpt><trkpt lat="44.9842742" lon="9.0082747"><ele>101.0</ele><time>2026-05-03T15:00:46.648Z</time></trkpt><trkpt lat="44.9843907" lon="9.0082836"><ele>101.0</ele><time>2026-05-03T15:00:47.647Z</time></trkpt><trkpt lat="44.9845115" lon="9.0082867"><ele>101.0</ele><time>2026-05-03T15:00:48.648Z</time></trkpt><trkpt lat="44.9846211" lon="9.008292"><ele>101.0</ele><time>2026-05-03T15:00:49.647Z</time></trkpt><trkpt lat="44.9847187" lon="9.0083002"><ele>101.0</ele><time>2026-05-03T15:00:50.618Z</time></trkpt><trkpt lat="44.9848136" lon="9.0083013"><ele>101.0</ele><time>2026-05-03T15:00:51.627Z</time></trkpt><trkpt lat="44.984904" lon="9.0083034"><ele>101.0</ele><time>2026-05-03T15:00:52.622Z</time></trkpt><trkpt lat="44.9849931" lon="9.0083145"><ele>101.0</ele><time>2026-05-03T15:00:53.618Z</time></trkpt><trkpt lat="44.9850763" lon="9.0083192"><ele>101.0</ele><time>2026-05-03T15:00:54.634Z</time></trkpt><trkpt lat="44.9851671" lon="9.0083147"><ele>101.0</ele><time>2026-05-03T15:00:55.644Z</time></trkpt><trkpt lat="44.9852583" lon="9.0083164"><ele>101.0</ele><time>2026-05-03T15:00:56.642Z</time></trkpt><trkpt lat="44.9853601" lon="9.0082989"><ele>101.0</ele><time>2026-05-03T15:00:57.638Z</time></trkpt><trkpt lat="44.9854643" lon="9.0082814"><ele>101.0</ele><time>2026-05-03T15:00:58.646Z</time></trkpt><trkpt lat="44.9855696" lon="9.008258"><ele>100.99999999999999</ele><time>2026-05-03T15:00:59.648Z</time></trkpt><trkpt lat="44.9856673" lon="9.0082435"><ele>101.0</ele><time>2026-05-03T15:01:00.639Z</time></trkpt><trkpt lat="44.9857652" lon="9.0082405"><ele>101.0</ele><time>2026-05-03T15:01:01.621Z</time></trkpt><trkpt lat="44.9858552" lon="9.0082457"><ele>101.0</ele><time>2026-05-03T15:01:02.614Z</time></trkpt><trkpt lat="44.9859358" lon="9.008242"><ele>100.99999999999999</ele><time>2026-05-03T15:01:03.61Z</time></trkpt><trkpt lat="44.9860166" lon="9.0082382"><ele>101.0</ele><time>2026-05-03T15:01:04.634Z</time></trkpt><trkpt lat="44.9860798" lon="9.0082573"><ele>100.99999999999999</ele><time>2026-05-03T15:01:05.644Z</time></trkpt><trkpt lat="44.9861932" lon="9.0082848"><ele>101.0</ele><time>2026-05-03T15:01:07.645Z</time></trkpt><trkpt lat="44.9862788" lon="9.0083297"><ele>101.0</ele><time>2026-05-03T15:01:09.645Z</time></trkpt><trkpt lat="44.9863113" lon="9.008426"><ele>101.0</ele><time>2026-05-03T15:01:13.663Z</time></trkpt><trkpt lat="44.9863612" lon="9.0084867"><ele>100.99999999999999</ele><time>2026-05-03T15:01:15.66Z</time></trkpt><trkpt lat="44.9864316" lon="9.0085648"><ele>101.0</ele><time>2026-05-03T15:01:17.655Z</time></trkpt><trkpt lat="44.9865146" lon="9.0086111"><ele>101.0</ele><time>2026-05-03T15:01:19.648Z</time></trkpt><trkpt lat="44.9866013" lon="9.0085984"><ele>101.0</ele><time>2026-05-03T15:01:21.648Z</time></trkpt><trkpt lat="44.9865967" lon="9.0084303"><ele>101.0</ele><time>2026-05-03T15:01:23.649Z</time></trkpt><trkpt lat="44.9865187" lon="9.0082532"><ele>101.0</ele><time>2026-05-03T15:01:24.665Z</time></trkpt><trkpt lat="44.9865162" lon="9.008122"><ele>101.0</ele><time>2026-05-03T15:01:25.657Z</time></trkpt><trkpt lat="44.9865091" lon="9.0079642"><ele>101.0</ele><time>2026-05-03T15:01:26.657Z</time></trkpt><trkpt lat="44.9865269" lon="9.0078106"><ele>101.0</ele><time>2026-05-03T15:01:27.658Z</time></trkpt><trkpt lat="44.9865406" lon="9.0076371"><ele>101.0</ele><time>2026-05-03T15:01:28.658Z</time></trkpt><trkpt lat="44.9865687" lon="9.0074506"><ele>101.0</ele><time>2026-05-03T15:01:29.661Z</time></trkpt><trkpt lat="44.9865925" lon="9.0072191"><ele>100.33333333333333</ele><time>2026-05-03T15:01:30.647Z</time></trkpt><trkpt lat="44.9866185" lon="9.0069228"><ele>99.66666666666666</ele><time>2026-05-03T15:01:31.657Z</time></trkpt><trkpt lat="44.9866273" lon="9.0067211"><ele>99.0</ele><time>2026-05-03T15:01:32.653Z</time></trkpt><trkpt lat="44.9866343" lon="9.006563"><ele>98.5</ele><time>2026-05-03T15:01:33.657Z</time></trkpt><trkpt lat="44.9866485" lon="9.0063882"><ele>98.0</ele><time>2026-05-03T15:01:34.653Z</time></trkpt><trkpt lat="44.9866591" lon="9.0062209"><ele>97.5</ele><time>2026-05-03T15:01:35.653Z</time></trkpt><trkpt lat="44.9866436" lon="9.0060614"><ele>97.0</ele><time>2026-05-03T15:01:36.642Z</time></trkpt><trkpt lat="44.9866435" lon="9.0059204"><ele>97.0</ele><time>2026-05-03T15:01:37.648Z</time></trkpt><trkpt lat="44.9866492" lon="9.0057915"><ele>97.0</ele><time>2026-05-03T15:01:38.647Z</time></trkpt><trkpt lat="44.986685" lon="9.0056143"><ele>97.0</ele><time>2026-05-03T15:01:40.655Z</time></trkpt><trkpt lat="44.9867288" lon="9.0055256"><ele>97.0</ele><time>2026-05-03T15:01:41.651Z</time></trkpt><trkpt lat="44.9867939" lon="9.005384"><ele>97.0</ele><time>2026-05-03T15:01:42.655Z</time></trkpt><trkpt lat="44.9868623" lon="9.0052548"><ele>97.19999999999999</ele><time>2026-05-03T15:01:43.659Z</time></trkpt><trkpt lat="44.9869497" lon="9.005138"><ele>97.4</ele><time>2026-05-03T15:01:44.663Z</time></trkpt><trkpt lat="44.9870136" lon="9.0050642"><ele>97.6</ele><time>2026-05-03T15:01:45.66Z</time></trkpt><trkpt lat="44.9870895" lon="9.0050039"><ele>97.80000000000001</ele><time>2026-05-03T15:01:46.655Z</time></trkpt><trkpt lat="44.9871762" lon="9.0049497"><ele>98.0</ele><time>2026-05-03T15:01:48.659Z</time></trkpt><trkpt lat="44.9872797" lon="9.0048815"><ele>97.99999999999999</ele><time>2026-05-03T15:01:50.663Z</time></trkpt><trkpt lat="44.9873438" lon="9.0048306"><ele>98.0</ele><time>2026-05-03T15:01:51.659Z</time></trkpt><trkpt lat="44.987404" lon="9.0047938"><ele>98.0</ele><time>2026-05-03T15:01:52.662Z</time></trkpt><trkpt lat="44.9874738" lon="9.0047471"><ele>98.0</ele><time>2026-05-03T15:01:53.662Z</time></trkpt><trkpt lat="44.9875475" lon="9.0046922"><ele>97.99999999999999</ele><time>2026-05-03T15:01:54.671Z</time></trkpt><trkpt lat="44.9876244" lon="9.0046345"><ele>98.0</ele><time>2026-05-03T15:01:55.665Z</time></trkpt><trkpt lat="44.9876973" lon="9.0045691"><ele>98.0</ele><time>2026-05-03T15:01:56.652Z</time></trkpt><trkpt lat="44.9877668" lon="9.0044931"><ele>98.0</ele><time>2026-05-03T15:01:57.643Z</time></trkpt><trkpt lat="44.9878398" lon="9.0044071"><ele>98.0</ele><time>2026-05-03T15:01:58.653Z</time></trkpt><trkpt lat="44.9879219" lon="9.0043103"><ele>98.0</ele><time>2026-05-03T15:01:59.65Z</time></trkpt><trkpt lat="44.987997" lon="9.0042202"><ele>98.0</ele><time>2026-05-03T15:02:00.651Z</time></trkpt><trkpt lat="44.9880822" lon="9.004152"><ele>97.60000000000001</ele><time>2026-05-03T15:02:01.657Z</time></trkpt><trkpt lat="44.9881728" lon="9.0040823"><ele>97.2</ele><time>2026-05-03T15:02:02.653Z</time></trkpt><trkpt lat="44.9882562" lon="9.0040186"><ele>96.8</ele><time>2026-05-03T15:02:03.661Z</time></trkpt><trkpt lat="44.9883312" lon="9.0039507"><ele>96.4</ele><time>2026-05-03T15:02:04.662Z</time></trkpt><trkpt lat="44.9884061" lon="9.0038761"><ele>96.0</ele><time>2026-05-03T15:02:05.691Z</time></trkpt><trkpt lat="44.9884898" lon="9.0037981"><ele>96.0</ele><time>2026-05-03T15:02:06.672Z</time></trkpt><trkpt lat="44.9885907" lon="9.0037092"><ele>96.0</ele><time>2026-05-03T15:02:07.664Z</time></trkpt><trkpt lat="44.9886961" lon="9.0036243"><ele>96.0</ele><time>2026-05-03T15:02:08.656Z</time></trkpt><trkpt lat="44.988796" lon="9.0035481"><ele>96.0</ele><time>2026-05-03T15:02:09.653Z</time></trkpt><trkpt lat="44.9888945" lon="9.0034663"><ele>96.0</ele><time>2026-05-03T15:02:10.674Z</time></trkpt><trkpt lat="44.9889827" lon="9.0033984"><ele>96.0</ele><time>2026-05-03T15:02:11.667Z</time></trkpt><trkpt lat="44.9890524" lon="9.0033518"><ele>96.0</ele><time>2026-05-03T15:02:12.66Z</time></trkpt><trkpt lat="44.9891178" lon="9.0033024"><ele>96.0</ele><time>2026-05-03T15:02:13.667Z</time></trkpt><trkpt lat="44.989201" lon="9.0032519"><ele>96.0</ele><time>2026-05-03T15:02:15.66Z</time></trkpt><trkpt lat="44.9892117" lon="9.0031626"><ele>96.0</ele><time>2026-05-03T15:02:20.67Z</time></trkpt><trkpt lat="44.9892637" lon="9.0031064"><ele>96.0</ele><time>2026-05-03T15:02:23.671Z</time></trkpt><trkpt lat="44.9893469" lon="9.0030512"><ele>96.0</ele><time>2026-05-03T15:02:26.669Z</time></trkpt><trkpt lat="44.9894219" lon="9.0030015"><ele>96.0</ele><time>2026-05-03T15:02:29.683Z</time></trkpt><trkpt lat="44.9894787" lon="9.0029362"><ele>96.0</ele><time>2026-05-03T15:02:32.666Z</time></trkpt><trkpt lat="44.9895317" lon="9.0028677"><ele>96.0</ele><time>2026-05-03T15:02:35.671Z</time></trkpt><trkpt lat="44.9896137" lon="9.002833"><ele>96.0</ele><time>2026-05-03T15:02:39.665Z</time></trkpt><trkpt lat="44.9896989" lon="9.0027769"><ele>96.0</ele><time>2026-05-03T15:02:41.664Z</time></trkpt><trkpt lat="44.9898093" lon="9.0026649"><ele>96.0</ele><time>2026-05-03T15:02:43.676Z</time></trkpt><trkpt lat="44.9898547" lon="9.0025866"><ele>96.0</ele><time>2026-05-03T15:02:44.684Z</time></trkpt><trkpt lat="44.9899564" lon="9.002491"><ele>96.0</ele><time>2026-05-03T15:02:46.679Z</time></trkpt><trkpt lat="44.9900227" lon="9.0024414"><ele>96.0</ele><time>2026-05-03T15:02:47.689Z</time></trkpt><trkpt lat="44.9900942" lon="9.0023788"><ele>95.83333333333333</ele><time>2026-05-03T15:02:48.687Z</time></trkpt><trkpt lat="44.9901606" lon="9.0023125"><ele>95.66666666666667</ele><time>2026-05-03T15:02:49.682Z</time></trkpt><trkpt lat="44.9902251" lon="9.0022535"><ele>95.5</ele><time>2026-05-03T15:02:50.676Z</time></trkpt><trkpt lat="44.9902912" lon="9.002181"><ele>95.33333333333334</ele><time>2026-05-03T15:02:51.678Z</time></trkpt><trkpt lat="44.9903487" lon="9.0021193"><ele>95.16666666666667</ele><time>2026-05-03T15:02:52.677Z</time></trkpt><trkpt lat="44.990452" lon="9.0020685"><ele>95.0</ele><time>2026-05-03T15:02:54.658Z</time></trkpt><trkpt lat="44.9905399" lon="9.002043"><ele>95.0</ele><time>2026-05-03T15:02:56.67Z</time></trkpt><trkpt lat="44.9906076" lon="9.0020176"><ele>95.0</ele><time>2026-05-03T15:02:59.673Z</time></trkpt><trkpt lat="44.9907258" lon="9.0019723"><ele>95.0</ele><time>2026-05-03T15:03:35.654Z</time></trkpt><trkpt lat="44.9907934" lon="9.0019049"><ele>95.0</ele><time>2026-05-03T15:03:36.665Z</time></trkpt><trkpt lat="44.9908689" lon="9.0018349"><ele>95.0</ele><time>2026-05-03T15:03:37.648Z</time></trkpt><trkpt lat="44.9909901" lon="9.0017186"><ele>94.75</ele><time>2026-05-03T15:03:38.666Z</time></trkpt><trkpt lat="44.9911166" lon="9.001613"><ele>94.5</ele><time>2026-05-03T15:03:39.664Z</time></trkpt><trkpt lat="44.9912487" lon="9.0015405"><ele>94.25</ele><time>2026-05-03T15:03:40.659Z</time></trkpt><trkpt lat="44.9913884" lon="9.0015006"><ele>94.0</ele><time>2026-05-03T15:03:41.654Z</time></trkpt><trkpt lat="44.9915227" lon="9.0015033"><ele>94.0</ele><time>2026-05-03T15:03:42.658Z</time></trkpt><trkpt lat="44.9916403" lon="9.0015128"><ele>94.0</ele><time>2026-05-03T15:03:43.66Z</time></trkpt><trkpt lat="44.991754" lon="9.0015357"><ele>94.0</ele><time>2026-05-03T15:03:44.654Z</time></trkpt><trkpt lat="44.9918584" lon="9.0015738"><ele>94.0</ele><time>2026-05-03T15:03:45.654Z</time></trkpt><trkpt lat="44.9919507" lon="9.0016231"><ele>94.0</ele><time>2026-05-03T15:03:46.651Z</time></trkpt><trkpt lat="44.9920341" lon="9.0016731"><ele>94.5</ele><time>2026-05-03T15:03:47.652Z</time></trkpt><trkpt lat="44.9921186" lon="9.0017165"><ele>95.0</ele><time>2026-05-03T15:03:48.664Z</time></trkpt><trkpt lat="44.9922014" lon="9.0017549"><ele>95.5</ele><time>2026-05-03T15:03:49.651Z</time></trkpt><trkpt lat="44.9922688" lon="9.0017939"><ele>96.0</ele><time>2026-05-03T15:03:50.651Z</time></trkpt><trkpt lat="44.9923617" lon="9.0018535"><ele>96.50000000000001</ele><time>2026-05-03T15:03:52.64Z</time></trkpt><trkpt lat="44.9923901" lon="9.0017626"><ele>97.0</ele><time>2026-05-03T15:04:08.662Z</time></trkpt><trkpt lat="44.992474" lon="9.0016952"><ele>97.0</ele><time>2026-05-03T15:04:31.656Z</time></trkpt><trkpt lat="44.9925197" lon="9.0015517"><ele>97.0</ele><time>2026-05-03T15:04:33.668Z</time></trkpt><trkpt lat="44.9925554" lon="9.001388"><ele>97.0</ele><time>2026-05-03T15:04:34.65Z</time></trkpt><trkpt lat="44.9925991" lon="9.0011952"><ele>97.0</ele><time>2026-05-03T15:04:35.651Z</time></trkpt><trkpt lat="44.992638" lon="9.0010065"><ele>96.75</ele><time>2026-05-03T15:04:36.659Z</time></trkpt><trkpt lat="44.9926848" lon="9.0008195"><ele>96.5</ele><time>2026-05-03T15:04:37.652Z</time></trkpt><trkpt lat="44.992732" lon="9.0006298"><ele>96.25</ele><time>2026-05-03T15:04:38.653Z</time></trkpt><trkpt lat="44.9927926" lon="9.0004359"><ele>96.0</ele><time>2026-05-03T15:04:39.662Z</time></trkpt><trkpt lat="44.9928537" lon="9.0002465"><ele>96.0</ele><time>2026-05-03T15:04:40.643Z</time></trkpt><trkpt lat="44.9928938" lon="9.0000511"><ele>96.0</ele><time>2026-05-03T15:04:41.655Z</time></trkpt><trkpt lat="44.9929281" lon="8.9998662"><ele>96.0</ele><time>2026-05-03T15:04:42.649Z</time></trkpt><trkpt lat="44.992957" lon="8.9996956"><ele>96.0</ele><time>2026-05-03T15:04:43.653Z</time></trkpt><trkpt lat="44.9929851" lon="8.9995183"><ele>96.0</ele><time>2026-05-03T15:04:44.659Z</time></trkpt><trkpt lat="44.9930158" lon="8.9993434"><ele>96.0</ele><time>2026-05-03T15:04:45.654Z</time></trkpt><trkpt lat="44.9930488" lon="8.9991754"><ele>96.0</ele><time>2026-05-03T15:04:46.649Z</time></trkpt><trkpt lat="44.9930852" lon="8.9990002"><ele>96.0</ele><time>2026-05-03T15:04:47.652Z</time></trkpt><trkpt lat="44.9931035" lon="8.9988352"><ele>95.8</ele><time>2026-05-03T15:04:48.653Z</time></trkpt><trkpt lat="44.9931096" lon="8.9986717"><ele>95.6</ele><time>2026-05-03T15:04:49.664Z</time></trkpt><trkpt lat="44.9931216" lon="8.9985224"><ele>95.4</ele><time>2026-05-03T15:04:50.655Z</time></trkpt><trkpt lat="44.9931274" lon="8.9983722"><ele>95.2</ele><time>2026-05-03T15:04:51.657Z</time></trkpt><trkpt lat="44.9931496" lon="8.9982089"><ele>95.0</ele><time>2026-05-03T15:04:52.653Z</time></trkpt><trkpt lat="44.9931746" lon="8.9980317"><ele>94.66666666666667</ele><time>2026-05-03T15:04:53.655Z</time></trkpt><trkpt lat="44.9931924" lon="8.9978232"><ele>94.33333333333333</ele><time>2026-05-03T15:04:54.665Z</time></trkpt><trkpt lat="44.9932196" lon="8.9975867"><ele>94.0</ele><time>2026-05-03T15:04:55.654Z</time></trkpt><trkpt lat="44.9932345" lon="8.9973803"><ele>93.33333333333333</ele><time>2026-05-03T15:04:56.65Z</time></trkpt><trkpt lat="44.9932434" lon="8.9971166"><ele>92.66666666666667</ele><time>2026-05-03T15:04:57.654Z</time></trkpt><trkpt lat="44.9932701" lon="8.996885"><ele>92.0</ele><time>2026-05-03T15:04:58.653Z</time></trkpt><trkpt lat="44.9932903" lon="8.9966169"><ele>91.66666666666667</ele><time>2026-05-03T15:04:59.671Z</time></trkpt><trkpt lat="44.9933256" lon="8.9963448"><ele>91.33333333333333</ele><time>2026-05-03T15:05:00.663Z</time></trkpt><trkpt lat="44.9933512" lon="8.9960811"><ele>91.0</ele><time>2026-05-03T15:05:01.651Z</time></trkpt><trkpt lat="44.9933965" lon="8.9958121"><ele>91.0</ele><time>2026-05-03T15:05:02.656Z</time></trkpt><trkpt lat="44.9934239" lon="8.9955575"><ele>91.0</ele><time>2026-05-03T15:05:03.656Z</time></trkpt><trkpt lat="44.9934393" lon="8.9952901"><ele>91.0</ele><time>2026-05-03T15:05:04.663Z</time></trkpt><trkpt lat="44.9934442" lon="8.9950377"><ele>91.0</ele><time>2026-05-03T15:05:05.656Z</time></trkpt><trkpt lat="44.993495" lon="8.9948109"><ele>91.0</ele><time>2026-05-03T15:05:06.657Z</time></trkpt><trkpt lat="44.9935533" lon="8.9946163"><ele>91.0</ele><time>2026-05-03T15:05:07.654Z</time></trkpt><trkpt lat="44.9936575" lon="8.9944278"><ele>91.0</ele><time>2026-05-03T15:05:08.659Z</time></trkpt><trkpt lat="44.9936956" lon="8.9942145"><ele>91.0</ele><time>2026-05-03T15:05:09.666Z</time></trkpt><trkpt lat="44.9937331" lon="8.9939767"><ele>91.0</ele><time>2026-05-03T15:05:10.66Z</time></trkpt><trkpt lat="44.9937511" lon="8.9937158"><ele>90.66666666666666</ele><time>2026-05-03T15:05:11.653Z</time></trkpt><trkpt lat="44.9937752" lon="8.9934811"><ele>90.33333333333333</ele><time>2026-05-03T15:05:12.667Z</time></trkpt><trkpt lat="44.993819" lon="8.9932794"><ele>90.0</ele><time>2026-05-03T15:05:13.656Z</time></trkpt><trkpt lat="44.9938818" lon="8.9930897"><ele>89.66666666666667</ele><time>2026-05-03T15:05:14.678Z</time></trkpt><trkpt lat="44.9939319" lon="8.992902"><ele>89.33333333333334</ele><time>2026-05-03T15:05:15.651Z</time></trkpt><trkpt lat="44.9939813" lon="8.9927212"><ele>89.0</ele><time>2026-05-03T15:05:16.644Z</time></trkpt><trkpt lat="44.9940781" lon="8.9924918"><ele>89.0</ele><time>2026-05-03T15:05:17.65Z</time></trkpt><trkpt lat="44.9940604" lon="8.992231"><ele>89.0</ele><time>2026-05-03T15:05:18.652Z</time></trkpt><trkpt lat="44.994075" lon="8.9920298"><ele>89.0</ele><time>2026-05-03T15:05:19.672Z</time></trkpt><trkpt lat="44.9941032" lon="8.9918399"><ele>89.25</ele><time>2026-05-03T15:05:20.653Z</time></trkpt><trkpt lat="44.9941908" lon="8.9916358"><ele>89.5</ele><time>2026-05-03T15:05:21.664Z</time></trkpt><trkpt lat="44.9942611" lon="8.9914571"><ele>89.75</ele><time>2026-05-03T15:05:22.664Z</time></trkpt><trkpt lat="44.994335" lon="8.9913009"><ele>90.0</ele><time>2026-05-03T15:05:23.669Z</time></trkpt><trkpt lat="44.9943599" lon="8.99111"><ele>90.0</ele><time>2026-05-03T15:05:24.68Z</time></trkpt><trkpt lat="44.9943936" lon="8.9909545"><ele>90.0</ele><time>2026-05-03T15:05:25.672Z</time></trkpt><trkpt lat="44.9944253" lon="8.9908139"><ele>90.0</ele><time>2026-05-03T15:05:26.67Z</time></trkpt><trkpt lat="44.9944695" lon="8.9906746"><ele>90.0</ele><time>2026-05-03T15:05:27.671Z</time></trkpt><trkpt lat="44.9944912" lon="8.9905467"><ele>90.0</ele><time>2026-05-03T15:05:28.671Z</time></trkpt><trkpt lat="44.9945064" lon="8.9903973"><ele>89.5</ele><time>2026-05-03T15:05:29.675Z</time></trkpt><trkpt lat="44.9945345" lon="8.9902176"><ele>89.0</ele><time>2026-05-03T15:05:30.654Z</time></trkpt><trkpt lat="44.9945712" lon="8.9900278"><ele>88.5</ele><time>2026-05-03T15:05:31.652Z</time></trkpt><trkpt lat="44.9946057" lon="8.9898339"><ele>88.0</ele><time>2026-05-03T15:05:32.646Z</time></trkpt><trkpt lat="44.9946361" lon="8.9896328"><ele>87.80000000000001</ele><time>2026-05-03T15:05:33.659Z</time></trkpt><trkpt lat="44.9946638" lon="8.9894204"><ele>87.6</ele><time>2026-05-03T15:05:34.668Z</time></trkpt><trkpt lat="44.994715" lon="8.989295"><ele>87.4</ele><time>2026-05-03T15:05:35.653Z</time></trkpt><trkpt lat="44.9947521" lon="8.9891586"><ele>87.19999999999999</ele><time>2026-05-03T15:05:36.652Z</time></trkpt><trkpt lat="44.9947839" lon="8.9890478"><ele>87.0</ele><time>2026-05-03T15:05:37.652Z</time></trkpt><trkpt lat="44.9947875" lon="8.9889358"><ele>87.33333333333333</ele><time>2026-05-03T15:05:38.654Z</time></trkpt><trkpt lat="44.99481" lon="8.9888486"><ele>87.66666666666667</ele><time>2026-05-03T15:05:39.664Z</time></trkpt><trkpt lat="44.994859" lon="8.9887658"><ele>88.0</ele><time>2026-05-03T15:05:41.654Z</time></trkpt><trkpt lat="44.9949371" lon="8.9887971"><ele>88.33333333333334</ele><time>2026-05-03T15:05:45.658Z</time></trkpt><trkpt lat="44.9950074" lon="8.9889318"><ele>88.66666666666667</ele><time>2026-05-03T15:05:47.65Z</time></trkpt><trkpt lat="44.9950582" lon="8.9890424"><ele>89.0</ele><time>2026-05-03T15:05:49.668Z</time></trkpt><trkpt lat="44.9950175" lon="8.9891433"><ele>88.6</ele><time>2026-05-03T15:05:51.643Z</time></trkpt><trkpt lat="44.9949611" lon="8.9892311"><ele>88.2</ele><time>2026-05-03T15:05:53.618Z</time></trkpt><trkpt lat="44.9950254" lon="8.9890341"><ele>87.8</ele><time>2026-05-03T15:08:12.657Z</time></trkpt><trkpt lat="44.9950462" lon="8.9889247"><ele>87.39999999999999</ele><time>2026-05-03T15:08:13.66Z</time></trkpt><trkpt lat="44.9950483" lon="8.9888257"><ele>87.0</ele><time>2026-05-03T15:08:14.655Z</time></trkpt><trkpt lat="44.995049" lon="8.9886918"><ele>87.0</ele><time>2026-05-03T15:08:15.67Z</time></trkpt><trkpt lat="44.9950271" lon="8.9885247"><ele>87.0</ele><time>2026-05-03T15:08:16.662Z</time></trkpt><trkpt lat="44.995057" lon="8.9883591"><ele>87.0</ele><time>2026-05-03T15:08:17.662Z</time></trkpt><trkpt lat="44.9950796" lon="8.9882"><ele>87.0</ele><time>2026-05-03T15:08:18.669Z</time></trkpt><trkpt lat="44.9951005" lon="8.9880084"><ele>87.0</ele><time>2026-05-03T15:08:19.665Z</time></trkpt><trkpt lat="44.9951118" lon="8.987844"><ele>87.0</ele><time>2026-05-03T15:08:20.675Z</time></trkpt><trkpt lat="44.9951342" lon="8.9877033"><ele>87.0</ele><time>2026-05-03T15:08:21.652Z</time></trkpt><trkpt lat="44.9951439" lon="8.9875711"><ele>87.0</ele><time>2026-05-03T15:08:22.658Z</time></trkpt><trkpt lat="44.9951662" lon="8.9874535"><ele>87.0</ele><time>2026-05-03T15:08:23.654Z</time></trkpt><trkpt lat="44.9951972" lon="8.9873617"><ele>86.83333333333333</ele><time>2026-05-03T15:08:24.653Z</time></trkpt><trkpt lat="44.9952308" lon="8.9872845"><ele>86.66666666666667</ele><time>2026-05-03T15:08:25.647Z</time></trkpt><trkpt lat="44.9952585" lon="8.9871875"><ele>86.5</ele><time>2026-05-03T15:08:26.656Z</time></trkpt><trkpt lat="44.9952655" lon="8.9870875"><ele>86.33333333333334</ele><time>2026-05-03T15:08:27.653Z</time></trkpt><trkpt lat="44.9952745" lon="8.9869718"><ele>86.16666666666667</ele><time>2026-05-03T15:08:28.665Z</time></trkpt><trkpt lat="44.99527" lon="8.9868085"><ele>86.0</ele><time>2026-05-03T15:08:29.667Z</time></trkpt><trkpt lat="44.9952773" lon="8.9866094"><ele>87.0</ele><time>2026-05-03T15:08:30.655Z</time></trkpt><trkpt lat="44.9953136" lon="8.9863927"><ele>88.0</ele><time>2026-05-03T15:08:31.657Z</time></trkpt><trkpt lat="44.9953422" lon="8.9861429"><ele>89.0</ele><time>2026-05-03T15:08:32.657Z</time></trkpt><trkpt lat="44.9953618" lon="8.9859329"><ele>89.0</ele><time>2026-05-03T15:08:33.663Z</time></trkpt><trkpt lat="44.995396" lon="8.9857115"><ele>89.0</ele><time>2026-05-03T15:08:34.663Z</time></trkpt><trkpt lat="44.9954404" lon="8.9854766"><ele>89.0</ele><time>2026-05-03T15:08:35.661Z</time></trkpt><trkpt lat="44.9954772" lon="8.9852899"><ele>89.0</ele><time>2026-05-03T15:08:36.657Z</time></trkpt><trkpt lat="44.9955325" lon="8.9850871"><ele>89.0</ele><time>2026-05-03T15:08:37.661Z</time></trkpt><trkpt lat="44.9955711" lon="8.9849207"><ele>89.0</ele><time>2026-05-03T15:08:38.659Z</time></trkpt><trkpt lat="44.9956046" lon="8.9847511"><ele>89.0</ele><time>2026-05-03T15:08:39.657Z</time></trkpt><trkpt lat="44.995621" lon="8.9845782"><ele>89.0</ele><time>2026-05-03T15:08:40.666Z</time></trkpt><trkpt lat="44.9956639" lon="8.9843569"><ele>89.0</ele><time>2026-05-03T15:08:41.666Z</time></trkpt><trkpt lat="44.9957032" lon="8.9841154"><ele>89.0</ele><time>2026-05-03T15:08:42.662Z</time></trkpt><trkpt lat="44.995711" lon="8.9838707"><ele>89.0</ele><time>2026-05-03T15:08:43.67Z</time></trkpt><trkpt lat="44.9957609" lon="8.9836509"><ele>89.0</ele><time>2026-05-03T15:08:44.664Z</time></trkpt><trkpt lat="44.9958224" lon="8.9834496"><ele>89.0</ele><time>2026-05-03T15:08:45.668Z</time></trkpt><trkpt lat="44.9958785" lon="8.9832101"><ele>88.0</ele><time>2026-05-03T15:08:46.673Z</time></trkpt><trkpt lat="44.9959179" lon="8.9829832"><ele>87.0</ele><time>2026-05-03T15:08:47.668Z</time></trkpt><trkpt lat="44.9959375" lon="8.9827715"><ele>86.0</ele><time>2026-05-03T15:08:48.669Z</time></trkpt><trkpt lat="44.9959639" lon="8.9825425"><ele>86.33333333333334</ele><time>2026-05-03T15:08:49.669Z</time></trkpt><trkpt lat="44.9960179" lon="8.982297"><ele>86.66666666666667</ele><time>2026-05-03T15:08:50.661Z</time></trkpt><trkpt lat="44.9960392" lon="8.982089"><ele>87.0</ele><time>2026-05-03T15:08:51.661Z</time></trkpt><trkpt lat="44.9960819" lon="8.9818916"><ele>87.0</ele><time>2026-05-03T15:08:52.652Z</time></trkpt><trkpt lat="44.996154" lon="8.9817521"><ele>87.0</ele><time>2026-05-03T15:08:53.66Z</time></trkpt><trkpt lat="44.9962006" lon="8.9815744"><ele>87.0</ele><time>2026-05-03T15:08:54.659Z</time></trkpt><trkpt lat="44.996234" lon="8.9813603"><ele>87.0</ele><time>2026-05-03T15:08:55.661Z</time></trkpt><trkpt lat="44.9962654" lon="8.9811375"><ele>87.25</ele><time>2026-05-03T15:08:56.655Z</time></trkpt><trkpt lat="44.9962689" lon="8.9809379"><ele>87.5</ele><time>2026-05-03T15:08:57.661Z</time></trkpt><trkpt lat="44.9962812" lon="8.9807521"><ele>87.75</ele><time>2026-05-03T15:08:58.674Z</time></trkpt><trkpt lat="44.9963016" lon="8.9805763"><ele>88.0</ele><time>2026-05-03T15:08:59.662Z</time></trkpt><trkpt lat="44.9963309" lon="8.9804127"><ele>88.0</ele><time>2026-05-03T15:09:00.657Z</time></trkpt><trkpt lat="44.9963682" lon="8.9802498"><ele>88.0</ele><time>2026-05-03T15:09:01.661Z</time></trkpt><trkpt lat="44.9964081" lon="8.9800785"><ele>88.0</ele><time>2026-05-03T15:09:02.662Z</time></trkpt><trkpt lat="44.9964445" lon="8.9798734"><ele>88.0</ele><time>2026-05-03T15:09:03.66Z</time></trkpt><trkpt lat="44.9964738" lon="8.9796671"><ele>88.0</ele><time>2026-05-03T15:09:04.663Z</time></trkpt><trkpt lat="44.9964919" lon="8.9794305"><ele>88.0</ele><time>2026-05-03T15:09:05.662Z</time></trkpt><trkpt lat="44.9965163" lon="8.9792275"><ele>88.0</ele><time>2026-05-03T15:09:06.663Z</time></trkpt><trkpt lat="44.9965343" lon="8.9789846"><ele>88.0</ele><time>2026-05-03T15:09:07.665Z</time></trkpt><trkpt lat="44.996573" lon="8.9787888"><ele>88.0</ele><time>2026-05-03T15:09:08.663Z</time></trkpt><trkpt lat="44.9966422" lon="8.9785721"><ele>88.0</ele><time>2026-05-03T15:09:09.667Z</time></trkpt><trkpt lat="44.9967002" lon="8.9783542"><ele>88.66666666666666</ele><time>2026-05-03T15:09:10.665Z</time></trkpt><trkpt lat="44.9967639" lon="8.9781306"><ele>89.33333333333333</ele><time>2026-05-03T15:09:11.671Z</time></trkpt><trkpt lat="44.9968005" lon="8.9779163"><ele>90.0</ele><time>2026-05-03T15:09:12.668Z</time></trkpt><trkpt lat="44.9968672" lon="8.9776947"><ele>89.0</ele><time>2026-05-03T15:09:13.672Z</time></trkpt><trkpt lat="44.9969069" lon="8.9774695"><ele>88.0</ele><time>2026-05-03T15:09:14.674Z</time></trkpt><trkpt lat="44.9969529" lon="8.9772417"><ele>87.0</ele><time>2026-05-03T15:09:15.667Z</time></trkpt><trkpt lat="44.9969952" lon="8.9770382"><ele>87.0</ele><time>2026-05-03T15:09:16.67Z</time></trkpt><trkpt lat="44.997048" lon="8.9768408"><ele>87.0</ele><time>2026-05-03T15:09:17.67Z</time></trkpt><trkpt lat="44.9970922" lon="8.976654"><ele>87.0</ele><time>2026-05-03T15:09:18.667Z</time></trkpt><trkpt lat="44.9971083" lon="8.9764834"><ele>87.0</ele><time>2026-05-03T15:09:19.668Z</time></trkpt><trkpt lat="44.9971285" lon="8.9763315"><ele>86.5</ele><time>2026-05-03T15:09:20.668Z</time></trkpt><trkpt lat="44.9971632" lon="8.9761648"><ele>86.0</ele><time>2026-05-03T15:09:21.671Z</time></trkpt><trkpt lat="44.9971918" lon="8.9759927"><ele>85.5</ele><time>2026-05-03T15:09:22.673Z</time></trkpt><trkpt lat="44.99722" lon="8.9758258"><ele>85.0</ele><time>2026-05-03T15:09:23.671Z</time></trkpt><trkpt lat="44.9972465" lon="8.9756386"><ele>85.0</ele><time>2026-05-03T15:09:24.678Z</time></trkpt><trkpt lat="44.9972761" lon="8.9755028"><ele>85.0</ele><time>2026-05-03T15:09:25.681Z</time></trkpt><trkpt lat="44.9973323" lon="8.9753702"><ele>85.0</ele><time>2026-05-03T15:09:26.679Z</time></trkpt><trkpt lat="44.9973755" lon="8.9752549"><ele>85.0</ele><time>2026-05-03T15:09:27.681Z</time></trkpt><trkpt lat="44.9974178" lon="8.9751623"><ele>85.0</ele><time>2026-05-03T15:09:28.672Z</time></trkpt><trkpt lat="44.9974544" lon="8.9750816"><ele>85.0</ele><time>2026-05-03T15:09:29.682Z</time></trkpt><trkpt lat="44.9975072" lon="8.9749766"><ele>85.4</ele><time>2026-05-03T15:09:31.677Z</time></trkpt><trkpt lat="44.9975597" lon="8.9749179"><ele>85.8</ele><time>2026-05-03T15:09:37.682Z</time></trkpt><trkpt lat="44.9976667" lon="8.9748017"><ele>86.19999999999999</ele><time>2026-05-03T15:09:39.674Z</time></trkpt><trkpt lat="44.9977472" lon="8.9747112"><ele>86.6</ele><time>2026-05-03T15:09:40.678Z</time></trkpt><trkpt lat="44.9978085" lon="8.9746167"><ele>87.0</ele><time>2026-05-03T15:09:41.67Z</time></trkpt><trkpt lat="44.9978555" lon="8.9745273"><ele>87.0</ele><time>2026-05-03T15:09:42.669Z</time></trkpt><trkpt lat="44.9979075" lon="8.9744012"><ele>87.0</ele><time>2026-05-03T15:09:43.658Z</time></trkpt><trkpt lat="44.9979155" lon="8.9743021"><ele>87.0</ele><time>2026-05-03T15:09:44.671Z</time></trkpt><trkpt lat="44.9979114" lon="8.9741842"><ele>87.0</ele><time>2026-05-03T15:09:45.668Z</time></trkpt><trkpt lat="44.9978954" lon="8.974048"><ele>87.0</ele><time>2026-05-03T15:09:46.669Z</time></trkpt><trkpt lat="44.9978734" lon="8.9738942"><ele>86.75</ele><time>2026-05-03T15:09:47.674Z</time></trkpt><trkpt lat="44.9978371" lon="8.9737508"><ele>86.5</ele><time>2026-05-03T15:09:48.676Z</time></trkpt><trkpt lat="44.9978153" lon="8.9735949"><ele>86.25</ele><time>2026-05-03T15:09:49.667Z</time></trkpt><trkpt lat="44.9978095" lon="8.9734288"><ele>86.0</ele><time>2026-05-03T15:09:50.674Z</time></trkpt><trkpt lat="44.9978159" lon="8.9732332"><ele>85.66666666666667</ele><time>2026-05-03T15:09:51.668Z</time></trkpt><trkpt lat="44.9978276" lon="8.9730064"><ele>85.33333333333333</ele><time>2026-05-03T15:09:52.671Z</time></trkpt><trkpt lat="44.997886" lon="8.9727395"><ele>85.0</ele><time>2026-05-03T15:09:53.669Z</time></trkpt><trkpt lat="44.9980102" lon="8.9723784"><ele>85.0</ele><time>2026-05-03T15:09:54.671Z</time></trkpt><trkpt lat="44.9981178" lon="8.9720465"><ele>85.0</ele><time>2026-05-03T15:09:55.672Z</time></trkpt><trkpt lat="44.9982163" lon="8.9717534"><ele>85.5</ele><time>2026-05-03T15:09:56.676Z</time></trkpt><trkpt lat="44.9983097" lon="8.97146"><ele>86.0</ele><time>2026-05-03T15:09:57.669Z</time></trkpt><trkpt lat="44.9984146" lon="8.9711607"><ele>86.0</ele><time>2026-05-03T15:09:58.676Z</time></trkpt><trkpt lat="44.9984877" lon="8.9708183"><ele>86.0</ele><time>2026-05-03T15:09:59.675Z</time></trkpt><trkpt lat="44.9985438" lon="8.9704453"><ele>86.0</ele><time>2026-05-03T15:10:00.683Z</time></trkpt><trkpt lat="44.9986007" lon="8.9700985"><ele>86.0</ele><time>2026-05-03T15:10:01.679Z</time></trkpt><trkpt lat="44.9986465" lon="8.969775"><ele>86.0</ele><time>2026-05-03T15:10:02.676Z</time></trkpt><trkpt lat="44.9987068" lon="8.9694293"><ele>86.0</ele><time>2026-05-03T15:10:03.677Z</time></trkpt><trkpt lat="44.9987687" lon="8.9691051"><ele>86.5</ele><time>2026-05-03T15:10:04.676Z</time></trkpt><trkpt lat="44.9988195" lon="8.9688035"><ele>87.0</ele><time>2026-05-03T15:10:05.683Z</time></trkpt><trkpt lat="44.9988669" lon="8.9684781"><ele>86.5</ele><time>2026-05-03T15:10:06.676Z</time></trkpt><trkpt lat="44.9989202" lon="8.9681385"><ele>86.0</ele><time>2026-05-03T15:10:07.679Z</time></trkpt><trkpt lat="44.9989498" lon="8.9678297"><ele>85.0</ele><time>2026-05-03T15:10:08.671Z</time></trkpt><trkpt lat="44.9989784" lon="8.9675045"><ele>84.0</ele><time>2026-05-03T15:10:09.675Z</time></trkpt><trkpt lat="44.9990039" lon="8.9671621"><ele>84.0</ele><time>2026-05-03T15:10:10.68Z</time></trkpt><trkpt lat="44.9990218" lon="8.9668106"><ele>84.0</ele><time>2026-05-03T15:10:11.681Z</time></trkpt><trkpt lat="44.9990179" lon="8.9664541"><ele>84.0</ele><time>2026-05-03T15:10:12.681Z</time></trkpt><trkpt lat="44.9990528" lon="8.9661198"><ele>84.0</ele><time>2026-05-03T15:10:13.687Z</time></trkpt><trkpt lat="44.9990821" lon="8.9657901"><ele>84.5</ele><time>2026-05-03T15:10:14.68Z</time></trkpt><trkpt lat="44.9991381" lon="8.9654589"><ele>85.0</ele><time>2026-05-03T15:10:15.674Z</time></trkpt><trkpt lat="44.9991928" lon="8.9651602"><ele>84.33333333333333</ele><time>2026-05-03T15:10:16.678Z</time></trkpt><trkpt lat="44.9992495" lon="8.9648399"><ele>83.66666666666667</ele><time>2026-05-03T15:10:17.681Z</time></trkpt><trkpt lat="44.999294" lon="8.9645601"><ele>83.0</ele><time>2026-05-03T15:10:18.674Z</time></trkpt><trkpt lat="44.9993421" lon="8.9642902"><ele>83.0</ele><time>2026-05-03T15:10:19.668Z</time></trkpt><trkpt lat="44.9993895" lon="8.9640293"><ele>83.0</ele><time>2026-05-03T15:10:20.678Z</time></trkpt><trkpt lat="44.9994451" lon="8.9637778"><ele>83.0</ele><time>2026-05-03T15:10:21.676Z</time></trkpt><trkpt lat="44.9994968" lon="8.9635267"><ele>83.0</ele><time>2026-05-03T15:10:22.683Z</time></trkpt><trkpt lat="44.9995548" lon="8.9632703"><ele>83.0</ele><time>2026-05-03T15:10:23.682Z</time></trkpt><trkpt lat="44.9996094" lon="8.9630256"><ele>83.0</ele><time>2026-05-03T15:10:24.682Z</time></trkpt><trkpt lat="44.9996576" lon="8.9627493"><ele>82.66666666666667</ele><time>2026-05-03T15:10:25.68Z</time></trkpt><trkpt lat="44.9997155" lon="8.9624407"><ele>82.33333333333333</ele><time>2026-05-03T15:10:26.683Z</time></trkpt><trkpt lat="44.9997567" lon="8.9622021"><ele>82.0</ele><time>2026-05-03T15:10:27.681Z</time></trkpt><trkpt lat="44.9997908" lon="8.9619304"><ele>81.66666666666666</ele><time>2026-05-03T15:10:28.684Z</time></trkpt><trkpt lat="44.9998265" lon="8.961661"><ele>81.33333333333333</ele><time>2026-05-03T15:10:29.686Z</time></trkpt><trkpt lat="44.9998648" lon="8.9613925"><ele>81.0</ele><time>2026-05-03T15:10:30.679Z</time></trkpt><trkpt lat="44.9999158" lon="8.9611512"><ele>81.0</ele><time>2026-05-03T15:10:31.686Z</time></trkpt><trkpt lat="44.9999686" lon="8.9608985"><ele>81.0</ele><time>2026-05-03T15:10:32.691Z</time></trkpt><trkpt lat="45.0000364" lon="8.9606405"><ele>81.0</ele><time>2026-05-03T15:10:33.684Z</time></trkpt><trkpt lat="45.000082" lon="8.9604002"><ele>81.33333333333333</ele><time>2026-05-03T15:10:34.688Z</time></trkpt><trkpt lat="45.0001202" lon="8.9601287"><ele>81.66666666666666</ele><time>2026-05-03T15:10:35.688Z</time></trkpt><trkpt lat="45.0001737" lon="8.959857"><ele>82.0</ele><time>2026-05-03T15:10:36.689Z</time></trkpt><trkpt lat="45.0002366" lon="8.9595813"><ele>82.0</ele><time>2026-05-03T15:10:37.691Z</time></trkpt><trkpt lat="45.0002965" lon="8.9593422"><ele>82.0</ele><time>2026-05-03T15:10:38.686Z</time></trkpt><trkpt lat="45.0003396" lon="8.9591242"><ele>82.0</ele><time>2026-05-03T15:10:39.685Z</time></trkpt><trkpt lat="45.0003765" lon="8.9588987"><ele>81.66666666666666</ele><time>2026-05-03T15:10:40.691Z</time></trkpt><trkpt lat="45.0004041" lon="8.9586674"><ele>81.33333333333333</ele><time>2026-05-03T15:10:41.685Z</time></trkpt><trkpt lat="45.0004529" lon="8.9584427"><ele>81.0</ele><time>2026-05-03T15:10:42.684Z</time></trkpt><trkpt lat="45.0005" lon="8.9581956"><ele>81.0</ele><time>2026-05-03T15:10:43.688Z</time></trkpt><trkpt lat="45.0005404" lon="8.9579467"><ele>81.0</ele><time>2026-05-03T15:10:44.686Z</time></trkpt><trkpt lat="45.0005912" lon="8.9577093"><ele>81.0</ele><time>2026-05-03T15:10:45.69Z</time></trkpt><trkpt lat="45.0006301" lon="8.9574816"><ele>80.66666666666667</ele><time>2026-05-03T15:10:46.679Z</time></trkpt><trkpt lat="45.0006713" lon="8.9572341"><ele>80.33333333333334</ele><time>2026-05-03T15:10:47.683Z</time></trkpt><trkpt lat="45.0007116" lon="8.9570158"><ele>80.0</ele><time>2026-05-03T15:10:48.684Z</time></trkpt><trkpt lat="45.0007509" lon="8.9567803"><ele>80.0</ele><time>2026-05-03T15:10:49.68Z</time></trkpt><trkpt lat="45.0007992" lon="8.9565588"><ele>80.0</ele><time>2026-05-03T15:10:50.679Z</time></trkpt><trkpt lat="45.000841" lon="8.9563519"><ele>80.0</ele><time>2026-05-03T15:10:51.684Z</time></trkpt><trkpt lat="45.0008794" lon="8.9561279"><ele>80.0</ele><time>2026-05-03T15:10:52.689Z</time></trkpt><trkpt lat="45.0009152" lon="8.9558829"><ele>80.0</ele><time>2026-05-03T15:10:53.682Z</time></trkpt><trkpt lat="45.0009529" lon="8.9555963"><ele>80.0</ele><time>2026-05-03T15:10:54.68Z</time></trkpt><trkpt lat="45.0010143" lon="8.9552982"><ele>79.66666666666667</ele><time>2026-05-03T15:10:55.683Z</time></trkpt><trkpt lat="45.001051" lon="8.9549985"><ele>79.33333333333333</ele><time>2026-05-03T15:10:56.683Z</time></trkpt><trkpt lat="45.0010866" lon="8.9546937"><ele>79.0</ele><time>2026-05-03T15:10:57.674Z</time></trkpt><trkpt lat="45.0011534" lon="8.9543545"><ele>79.5</ele><time>2026-05-03T15:10:58.683Z</time></trkpt><trkpt lat="45.0012259" lon="8.9540274"><ele>80.0</ele><time>2026-05-03T15:10:59.691Z</time></trkpt><trkpt lat="45.001296" lon="8.9536996"><ele>80.0</ele><time>2026-05-03T15:11:00.673Z</time></trkpt><trkpt lat="45.0013726" lon="8.9533806"><ele>80.0</ele><time>2026-05-03T15:11:01.675Z</time></trkpt><trkpt lat="45.0014294" lon="8.9530629"><ele>79.5</ele><time>2026-05-03T15:11:02.686Z</time></trkpt><trkpt lat="45.0014927" lon="8.9527312"><ele>79.0</ele><time>2026-05-03T15:11:03.678Z</time></trkpt><trkpt lat="45.0015393" lon="8.9524237"><ele>78.0</ele><time>2026-05-03T15:11:04.677Z</time></trkpt><trkpt lat="45.0016002" lon="8.9521088"><ele>77.0</ele><time>2026-05-03T15:11:05.682Z</time></trkpt><trkpt lat="45.0016604" lon="8.951777"><ele>77.5</ele><time>2026-05-03T15:11:06.68Z</time></trkpt><trkpt lat="45.0017117" lon="8.9514519"><ele>78.0</ele><time>2026-05-03T15:11:07.684Z</time></trkpt><trkpt lat="45.0017718" lon="8.9511289"><ele>78.0</ele><time>2026-05-03T15:11:08.675Z</time></trkpt><trkpt lat="45.0018257" lon="8.9508265"><ele>78.0</ele><time>2026-05-03T15:11:09.673Z</time></trkpt><trkpt lat="45.0018896" lon="8.9505106"><ele>78.0</ele><time>2026-05-03T15:11:10.673Z</time></trkpt><trkpt lat="45.0019373" lon="8.950221"><ele>78.0</ele><time>2026-05-03T15:11:11.676Z</time></trkpt><trkpt lat="45.0019958" lon="8.9499179"><ele>78.0</ele><time>2026-05-03T15:11:12.679Z</time></trkpt><trkpt lat="45.0020526" lon="8.9496324"><ele>78.0</ele><time>2026-05-03T15:11:13.667Z</time></trkpt><trkpt lat="45.0020997" lon="8.949354"><ele>78.0</ele><time>2026-05-03T15:11:14.667Z</time></trkpt><trkpt lat="45.0021335" lon="8.9490393"><ele>78.0</ele><time>2026-05-03T15:11:15.67Z</time></trkpt><trkpt lat="45.0021935" lon="8.9487503"><ele>78.0</ele><time>2026-05-03T15:11:16.668Z</time></trkpt><trkpt lat="45.002247" lon="8.9484661"><ele>78.0</ele><time>2026-05-03T15:11:17.677Z</time></trkpt><trkpt lat="45.002311" lon="8.9481724"><ele>78.0</ele><time>2026-05-03T15:11:18.676Z</time></trkpt><trkpt lat="45.0023748" lon="8.9478735"><ele>78.33333333333333</ele><time>2026-05-03T15:11:19.677Z</time></trkpt><trkpt lat="45.0024323" lon="8.9475876"><ele>78.66666666666666</ele><time>2026-05-03T15:11:20.68Z</time></trkpt><trkpt lat="45.0024903" lon="8.9472771"><ele>79.0</ele><time>2026-05-03T15:11:21.678Z</time></trkpt><trkpt lat="45.0025548" lon="8.9469863"><ele>78.5</ele><time>2026-05-03T15:11:22.678Z</time></trkpt><trkpt lat="45.0026058" lon="8.9466691"><ele>78.0</ele><time>2026-05-03T15:11:23.685Z</time></trkpt><trkpt lat="45.0026569" lon="8.9463511"><ele>78.0</ele><time>2026-05-03T15:11:24.684Z</time></trkpt><trkpt lat="45.0027201" lon="8.9460391"><ele>78.0</ele><time>2026-05-03T15:11:25.68Z</time></trkpt><trkpt lat="45.0027631" lon="8.9457423"><ele>78.0</ele><time>2026-05-03T15:11:26.679Z</time></trkpt><trkpt lat="45.0028155" lon="8.9454338"><ele>78.0</ele><time>2026-05-03T15:11:27.679Z</time></trkpt><trkpt lat="45.0028859" lon="8.9451257"><ele>78.0</ele><time>2026-05-03T15:11:28.679Z</time></trkpt><trkpt lat="45.0029261" lon="8.9447994"><ele>78.0</ele><time>2026-05-03T15:11:29.683Z</time></trkpt><trkpt lat="45.0029865" lon="8.9444621"><ele>78.0</ele><time>2026-05-03T15:11:30.681Z</time></trkpt><trkpt lat="45.0030493" lon="8.9441459"><ele>78.66666666666667</ele><time>2026-05-03T15:11:31.676Z</time></trkpt><trkpt lat="45.0031008" lon="8.9438432"><ele>79.33333333333334</ele><time>2026-05-03T15:11:32.679Z</time></trkpt><trkpt lat="45.0031472" lon="8.9435534"><ele>80.0</ele><time>2026-05-03T15:11:33.69Z</time></trkpt><trkpt lat="45.0031997" lon="8.9432507"><ele>80.0</ele><time>2026-05-03T15:11:34.679Z</time></trkpt><trkpt lat="45.0032378" lon="8.9429747"><ele>80.0</ele><time>2026-05-03T15:11:35.677Z</time></trkpt><trkpt lat="45.0032804" lon="8.942709"><ele>80.0</ele><time>2026-05-03T15:11:36.683Z</time></trkpt><trkpt lat="45.0033332" lon="8.9424554"><ele>79.66666666666667</ele><time>2026-05-03T15:11:37.681Z</time></trkpt><trkpt lat="45.0033934" lon="8.9421779"><ele>79.33333333333333</ele><time>2026-05-03T15:11:38.679Z</time></trkpt><trkpt lat="45.0034444" lon="8.9419269"><ele>79.0</ele><time>2026-05-03T15:11:39.684Z</time></trkpt><trkpt lat="45.0035089" lon="8.9416803"><ele>78.66666666666666</ele><time>2026-05-03T15:11:40.683Z</time></trkpt><trkpt lat="45.003583" lon="8.9414563"><ele>78.33333333333333</ele><time>2026-05-03T15:11:41.682Z</time></trkpt><trkpt lat="45.0036432" lon="8.9412462"><ele>78.0</ele><time>2026-05-03T15:11:42.683Z</time></trkpt><trkpt lat="45.0037038" lon="8.9410631"><ele>78.0</ele><time>2026-05-03T15:11:43.676Z</time></trkpt><trkpt lat="45.0037852" lon="8.9408837"><ele>78.0</ele><time>2026-05-03T15:11:44.67Z</time></trkpt><trkpt lat="45.0039233" lon="8.9407203"><ele>78.0</ele><time>2026-05-03T15:11:45.675Z</time></trkpt><trkpt lat="45.0040676" lon="8.9405787"><ele>78.0</ele><time>2026-05-03T15:11:46.666Z</time></trkpt><trkpt lat="45.0042572" lon="8.9404197"><ele>78.0</ele><time>2026-05-03T15:11:47.683Z</time></trkpt><trkpt lat="45.0044816" lon="8.9402515"><ele>78.0</ele><time>2026-05-03T15:11:48.69Z</time></trkpt><trkpt lat="45.0047105" lon="8.9400598"><ele>78.0</ele><time>2026-05-03T15:11:49.686Z</time></trkpt><trkpt lat="45.0049324" lon="8.9398371"><ele>78.5</ele><time>2026-05-03T15:11:50.696Z</time></trkpt><trkpt lat="45.0051607" lon="8.9395897"><ele>79.0</ele><time>2026-05-03T15:11:51.683Z</time></trkpt><trkpt lat="45.0053773" lon="8.9394147"><ele>79.0</ele><time>2026-05-03T15:11:52.686Z</time></trkpt><trkpt lat="45.005612" lon="8.9392298"><ele>79.0</ele><time>2026-05-03T15:11:53.689Z</time></trkpt><trkpt lat="45.0058237" lon="8.9390508"><ele>78.5</ele><time>2026-05-03T15:11:54.694Z</time></trkpt><trkpt lat="45.0060336" lon="8.9388722"><ele>78.0</ele><time>2026-05-03T15:11:55.687Z</time></trkpt><trkpt lat="45.0062298" lon="8.9387089"><ele>78.0</ele><time>2026-05-03T15:11:56.68Z</time></trkpt><trkpt lat="45.0064306" lon="8.9384932"><ele>78.0</ele><time>2026-05-03T15:11:57.681Z</time></trkpt><trkpt lat="45.0066185" lon="8.9382962"><ele>78.0</ele><time>2026-05-03T15:11:58.687Z</time></trkpt><trkpt lat="45.0067982" lon="8.9380622"><ele>78.0</ele><time>2026-05-03T15:11:59.685Z</time></trkpt><trkpt lat="45.006976" lon="8.9377981"><ele>78.0</ele><time>2026-05-03T15:12:00.69Z</time></trkpt><trkpt lat="45.0071527" lon="8.937535"><ele>78.0</ele><time>2026-05-03T15:12:01.676Z</time></trkpt><trkpt lat="45.0073141" lon="8.9372337"><ele>78.0</ele><time>2026-05-03T15:12:02.677Z</time></trkpt><trkpt lat="45.0074737" lon="8.9369451"><ele>78.0</ele><time>2026-05-03T15:12:03.685Z</time></trkpt><trkpt lat="45.0076256" lon="8.9366372"><ele>78.0</ele><time>2026-05-03T15:12:04.694Z</time></trkpt><trkpt lat="45.0077738" lon="8.9363569"><ele>78.0</ele><time>2026-05-03T15:12:05.686Z</time></trkpt><trkpt lat="45.0079203" lon="8.9360967"><ele>77.5</ele><time>2026-05-03T15:12:06.693Z</time></trkpt><trkpt lat="45.0080659" lon="8.9358403"><ele>77.0</ele><time>2026-05-03T15:12:07.686Z</time></trkpt><trkpt lat="45.0081911" lon="8.9355814"><ele>76.66666666666667</ele><time>2026-05-03T15:12:08.678Z</time></trkpt><trkpt lat="45.0083278" lon="8.9353335"><ele>76.33333333333333</ele><time>2026-05-03T15:12:09.687Z</time></trkpt><trkpt lat="45.0084537" lon="8.9350973"><ele>76.0</ele><time>2026-05-03T15:12:10.691Z</time></trkpt><trkpt lat="45.0085762" lon="8.93488"><ele>77.0</ele><time>2026-05-03T15:12:11.683Z</time></trkpt><trkpt lat="45.0086921" lon="8.9346584"><ele>78.0</ele><time>2026-05-03T15:12:12.691Z</time></trkpt><trkpt lat="45.0088255" lon="8.9344522"><ele>79.0</ele><time>2026-05-03T15:12:13.686Z</time></trkpt><trkpt lat="45.0089511" lon="8.934254"><ele>79.0</ele><time>2026-05-03T15:12:14.682Z</time></trkpt><trkpt lat="45.0091029" lon="8.9340425"><ele>79.0</ele><time>2026-05-03T15:12:15.682Z</time></trkpt><trkpt lat="45.0092332" lon="8.9338514"><ele>79.0</ele><time>2026-05-03T15:12:16.68Z</time></trkpt><trkpt lat="45.009379" lon="8.9336677"><ele>78.66666666666666</ele><time>2026-05-03T15:12:17.672Z</time></trkpt><trkpt lat="45.0095119" lon="8.9335153"><ele>78.33333333333333</ele><time>2026-05-03T15:12:18.677Z</time></trkpt><trkpt lat="45.0096359" lon="8.9334192"><ele>78.0</ele><time>2026-05-03T15:12:19.671Z</time></trkpt><trkpt lat="45.0097648" lon="8.9332948"><ele>78.0</ele><time>2026-05-03T15:12:20.666Z</time></trkpt><trkpt lat="45.0098796" lon="8.9332328"><ele>78.0</ele><time>2026-05-03T15:12:21.664Z</time></trkpt><trkpt lat="45.0100114" lon="8.9331904"><ele>78.0</ele><time>2026-05-03T15:12:22.667Z</time></trkpt><trkpt lat="45.0101022" lon="8.9330906"><ele>78.0</ele><time>2026-05-03T15:12:23.658Z</time></trkpt><trkpt lat="45.0101753" lon="8.9330154"><ele>78.0</ele><time>2026-05-03T15:12:24.659Z</time></trkpt><trkpt lat="45.0102422" lon="8.9329255"><ele>78.0</ele><time>2026-05-03T15:12:25.658Z</time></trkpt><trkpt lat="45.0101836" lon="8.9327437"><ele>78.0</ele><time>2026-05-03T15:12:26.657Z</time></trkpt><trkpt lat="45.0101232" lon="8.9325623"><ele>78.0</ele><time>2026-05-03T15:12:27.663Z</time></trkpt><trkpt lat="45.0100435" lon="8.9323726"><ele>78.0</ele><time>2026-05-03T15:12:28.677Z</time></trkpt><trkpt lat="45.0100108" lon="8.9321678"><ele>78.0</ele><time>2026-05-03T15:12:29.672Z</time></trkpt><trkpt lat="45.0099784" lon="8.9319692"><ele>78.0</ele><time>2026-05-03T15:12:30.673Z</time></trkpt><trkpt lat="45.0099534" lon="8.9317504"><ele>78.0</ele><time>2026-05-03T15:12:31.68Z</time></trkpt><trkpt lat="45.0099378" lon="8.9315191"><ele>78.0</ele><time>2026-05-03T15:12:32.685Z</time></trkpt><trkpt lat="45.0099343" lon="8.9312603"><ele>78.0</ele><time>2026-05-03T15:12:33.684Z</time></trkpt><trkpt lat="45.0099054" lon="8.9309892"><ele>78.0</ele><time>2026-05-03T15:12:34.687Z</time></trkpt><trkpt lat="45.0098893" lon="8.9306748"><ele>78.66666666666667</ele><time>2026-05-03T15:12:35.679Z</time></trkpt><trkpt lat="45.0098789" lon="8.9303574"><ele>79.33333333333334</ele><time>2026-05-03T15:12:36.677Z</time></trkpt><trkpt lat="45.0098687" lon="8.9300436"><ele>80.0</ele><time>2026-05-03T15:12:37.681Z</time></trkpt><trkpt lat="45.0098483" lon="8.9297526"><ele>80.0</ele><time>2026-05-03T15:12:38.68Z</time></trkpt><trkpt lat="45.009832" lon="8.9294743"><ele>80.0</ele><time>2026-05-03T15:12:39.675Z</time></trkpt><trkpt lat="45.0097917" lon="8.9291721"><ele>80.0</ele><time>2026-05-03T15:12:40.688Z</time></trkpt><trkpt lat="45.0097757" lon="8.9288635"><ele>80.66666666666667</ele><time>2026-05-03T15:12:41.687Z</time></trkpt><trkpt lat="45.0097738" lon="8.9285624"><ele>81.33333333333333</ele><time>2026-05-03T15:12:42.69Z</time></trkpt><trkpt lat="45.0097554" lon="8.9282615"><ele>82.0</ele><time>2026-05-03T15:12:43.686Z</time></trkpt><trkpt lat="45.0097523" lon="8.9279899"><ele>82.0</ele><time>2026-05-03T15:12:44.694Z</time></trkpt><trkpt lat="45.0097551" lon="8.9277147"><ele>82.0</ele><time>2026-05-03T15:12:45.686Z</time></trkpt><trkpt lat="45.0097538" lon="8.9274754"><ele>82.0</ele><time>2026-05-03T15:12:46.686Z</time></trkpt><trkpt lat="45.009749" lon="8.9272514"><ele>81.33333333333333</ele><time>2026-05-03T15:12:47.681Z</time></trkpt><trkpt lat="45.0097605" lon="8.9270414"><ele>80.66666666666667</ele><time>2026-05-03T15:12:48.683Z</time></trkpt><trkpt lat="45.0097668" lon="8.9268286"><ele>80.0</ele><time>2026-05-03T15:12:49.679Z</time></trkpt><trkpt lat="45.0098062" lon="8.9266188"><ele>79.75</ele><time>2026-05-03T15:12:50.67Z</time></trkpt><trkpt lat="45.009824" lon="8.9264067"><ele>79.5</ele><time>2026-05-03T15:12:51.665Z</time></trkpt><trkpt lat="45.0098905" lon="8.9262421"><ele>79.25</ele><time>2026-05-03T15:12:52.675Z</time></trkpt><trkpt lat="45.009979" lon="8.9261076"><ele>79.0</ele><time>2026-05-03T15:12:53.687Z</time></trkpt><trkpt lat="45.0100616" lon="8.9260007"><ele>78.5</ele><time>2026-05-03T15:12:54.676Z</time></trkpt><trkpt lat="45.0100968" lon="8.9258266"><ele>78.0</ele><time>2026-05-03T15:12:55.676Z</time></trkpt><trkpt lat="45.01015" lon="8.9256433"><ele>77.5</ele><time>2026-05-03T15:12:56.681Z</time></trkpt><trkpt lat="45.0102188" lon="8.9254332"><ele>77.0</ele><time>2026-05-03T15:12:57.672Z</time></trkpt><trkpt lat="45.0102208" lon="8.9251972"><ele>77.0</ele><time>2026-05-03T15:12:58.66Z</time></trkpt><trkpt lat="45.0102646" lon="8.924947"><ele>77.0</ele><time>2026-05-03T15:12:59.66Z</time></trkpt><trkpt lat="45.010428" lon="8.9247133"><ele>77.0</ele><time>2026-05-03T15:13:00.654Z</time></trkpt><trkpt lat="45.0106303" lon="8.9245016"><ele>77.0</ele><time>2026-05-03T15:13:01.659Z</time></trkpt><trkpt lat="45.010792" lon="8.9243109"><ele>77.0</ele><time>2026-05-03T15:13:02.662Z</time></trkpt><trkpt lat="45.0109714" lon="8.9241303"><ele>77.0</ele><time>2026-05-03T15:13:03.666Z</time></trkpt><trkpt lat="45.0111347" lon="8.9239614"><ele>78.0</ele><time>2026-05-03T15:13:04.679Z</time></trkpt><trkpt lat="45.0113196" lon="8.9237878"><ele>79.0</ele><time>2026-05-03T15:13:05.674Z</time></trkpt><trkpt lat="45.0115089" lon="8.9235783"><ele>79.0</ele><time>2026-05-03T15:13:06.679Z</time></trkpt><trkpt lat="45.0116443" lon="8.9233041"><ele>79.0</ele><time>2026-05-03T15:13:07.674Z</time></trkpt><trkpt lat="45.0118146" lon="8.9230502"><ele>79.0</ele><time>2026-05-03T15:13:08.672Z</time></trkpt><trkpt lat="45.0119095" lon="8.922856"><ele>79.0</ele><time>2026-05-03T15:13:09.676Z</time></trkpt><trkpt lat="45.0119718" lon="8.9226478"><ele>79.0</ele><time>2026-05-03T15:13:10.668Z</time></trkpt><trkpt lat="45.0120287" lon="8.9224191"><ele>79.33333333333333</ele><time>2026-05-03T15:13:11.683Z</time></trkpt><trkpt lat="45.0120971" lon="8.9221341"><ele>79.66666666666667</ele><time>2026-05-03T15:13:12.684Z</time></trkpt><trkpt lat="45.012143" lon="8.9218589"><ele>80.0</ele><time>2026-05-03T15:13:13.672Z</time></trkpt><trkpt lat="45.0122167" lon="8.9216385"><ele>80.0</ele><time>2026-05-03T15:13:14.687Z</time></trkpt><trkpt lat="45.0123168" lon="8.9214168"><ele>80.0</ele><time>2026-05-03T15:13:15.687Z</time></trkpt><trkpt lat="45.0124694" lon="8.9212023"><ele>80.0</ele><time>2026-05-03T15:13:16.686Z</time></trkpt><trkpt lat="45.0126317" lon="8.9210359"><ele>79.0</ele><time>2026-05-03T15:13:17.686Z</time></trkpt><trkpt lat="45.0128339" lon="8.9208742"><ele>78.0</ele><time>2026-05-03T15:13:18.678Z</time></trkpt><trkpt lat="45.0130341" lon="8.9207465"><ele>78.0</ele><time>2026-05-03T15:13:19.681Z</time></trkpt><trkpt lat="45.0132498" lon="8.9205938"><ele>78.0</ele><time>2026-05-03T15:13:20.675Z</time></trkpt><trkpt lat="45.0134866" lon="8.9204168"><ele>77.5</ele><time>2026-05-03T15:13:21.666Z</time></trkpt><trkpt lat="45.0137615" lon="8.9202767"><ele>77.0</ele><time>2026-05-03T15:13:22.674Z</time></trkpt><trkpt lat="45.0140159" lon="8.9201145"><ele>77.5</ele><time>2026-05-03T15:13:23.678Z</time></trkpt><trkpt lat="45.0142745" lon="8.9199481"><ele>78.0</ele><time>2026-05-03T15:13:24.678Z</time></trkpt><trkpt lat="45.0145569" lon="8.9198048"><ele>78.0</ele><time>2026-05-03T15:13:25.683Z</time></trkpt><trkpt lat="45.0148556" lon="8.9196767"><ele>78.0</ele><time>2026-05-03T15:13:26.683Z</time></trkpt><trkpt lat="45.0151378" lon="8.9195487"><ele>78.0</ele><time>2026-05-03T15:13:27.676Z</time></trkpt><trkpt lat="45.0153855" lon="8.919446"><ele>78.0</ele><time>2026-05-03T15:13:28.68Z</time></trkpt><trkpt lat="45.0156289" lon="8.9193246"><ele>79.0</ele><time>2026-05-03T15:13:29.672Z</time></trkpt><trkpt lat="45.0158574" lon="8.9192099"><ele>80.0</ele><time>2026-05-03T15:13:30.678Z</time></trkpt><trkpt lat="45.016083" lon="8.9190711"><ele>80.0</ele><time>2026-05-03T15:13:31.669Z</time></trkpt><trkpt lat="45.0163117" lon="8.9189481"><ele>80.0</ele><time>2026-05-03T15:13:32.665Z</time></trkpt><trkpt lat="45.0165269" lon="8.9188114"><ele>80.0</ele><time>2026-05-03T15:13:33.663Z</time></trkpt><trkpt lat="45.0167564" lon="8.9186896"><ele>80.0</ele><time>2026-05-03T15:13:34.669Z</time></trkpt><trkpt lat="45.016989" lon="8.9185471"><ele>80.0</ele><time>2026-05-03T15:13:35.665Z</time></trkpt><trkpt lat="45.0172302" lon="8.9183908"><ele>80.0</ele><time>2026-05-03T15:13:36.666Z</time></trkpt><trkpt lat="45.0174679" lon="8.9182218"><ele>78.0</ele><time>2026-05-03T15:13:37.675Z</time></trkpt><trkpt lat="45.0176976" lon="8.9180812"><ele>76.0</ele><time>2026-05-03T15:13:38.67Z</time></trkpt><trkpt lat="45.0179505" lon="8.9179276"><ele>76.0</ele><time>2026-05-03T15:13:39.68Z</time></trkpt><trkpt lat="45.0182028" lon="8.9178215"><ele>76.0</ele><time>2026-05-03T15:13:40.682Z</time></trkpt><trkpt lat="45.018462" lon="8.9176828"><ele>76.0</ele><time>2026-05-03T15:13:41.682Z</time></trkpt><trkpt lat="45.0187232" lon="8.9175742"><ele>76.0</ele><time>2026-05-03T15:13:42.676Z</time></trkpt><trkpt lat="45.0189588" lon="8.917445"><ele>75.5</ele><time>2026-05-03T15:13:43.682Z</time></trkpt><trkpt lat="45.0192015" lon="8.9173036"><ele>75.0</ele><time>2026-05-03T15:13:44.688Z</time></trkpt><trkpt lat="45.0194562" lon="8.9171823"><ele>75.0</ele><time>2026-05-03T15:13:45.692Z</time></trkpt><trkpt lat="45.0197069" lon="8.9170488"><ele>75.0</ele><time>2026-05-03T15:13:46.693Z</time></trkpt><trkpt lat="45.0199577" lon="8.916898"><ele>75.0</ele><time>2026-05-03T15:13:47.688Z</time></trkpt><trkpt lat="45.0202025" lon="8.9167674"><ele>75.0</ele><time>2026-05-03T15:13:48.69Z</time></trkpt><trkpt lat="45.0204458" lon="8.9166326"><ele>75.0</ele><time>2026-05-03T15:13:49.688Z</time></trkpt><trkpt lat="45.0206893" lon="8.916505"><ele>75.0</ele><time>2026-05-03T15:13:50.687Z</time></trkpt><trkpt lat="45.0209399" lon="8.9163736"><ele>74.5</ele><time>2026-05-03T15:13:51.687Z</time></trkpt><trkpt lat="45.0211842" lon="8.9162603"><ele>74.0</ele><time>2026-05-03T15:13:52.692Z</time></trkpt><trkpt lat="45.0214243" lon="8.9161322"><ele>74.5</ele><time>2026-05-03T15:13:53.686Z</time></trkpt><trkpt lat="45.0216588" lon="8.9160001"><ele>75.0</ele><time>2026-05-03T15:13:54.692Z</time></trkpt><trkpt lat="45.021877" lon="8.9158594"><ele>75.0</ele><time>2026-05-03T15:13:55.683Z</time></trkpt><trkpt lat="45.0220955" lon="8.9157408"><ele>75.0</ele><time>2026-05-03T15:13:56.684Z</time></trkpt><trkpt lat="45.022314" lon="8.9156218"><ele>74.5</ele><time>2026-05-03T15:13:57.688Z</time></trkpt><trkpt lat="45.0225325" lon="8.9155136"><ele>74.0</ele><time>2026-05-03T15:13:58.679Z</time></trkpt><trkpt lat="45.022748" lon="8.9154093"><ele>74.0</ele><time>2026-05-03T15:13:59.687Z</time></trkpt><trkpt lat="45.0229618" lon="8.9152923"><ele>74.0</ele><time>2026-05-03T15:14:00.689Z</time></trkpt><trkpt lat="45.0231881" lon="8.9151894"><ele>74.0</ele><time>2026-05-03T15:14:01.691Z</time></trkpt><trkpt lat="45.0234121" lon="8.9150754"><ele>74.0</ele><time>2026-05-03T15:14:02.685Z</time></trkpt><trkpt lat="45.0236202" lon="8.9149629"><ele>74.0</ele><time>2026-05-03T15:14:03.681Z</time></trkpt><trkpt lat="45.0238234" lon="8.9148642"><ele>74.0</ele><time>2026-05-03T15:14:04.684Z</time></trkpt><trkpt lat="45.0240253" lon="8.9147598"><ele>74.0</ele><time>2026-05-03T15:14:05.681Z</time></trkpt><trkpt lat="45.024232" lon="8.9146401"><ele>73.66666666666667</ele><time>2026-05-03T15:14:06.686Z</time></trkpt><trkpt lat="45.0244386" lon="8.9145222"><ele>73.33333333333333</ele><time>2026-05-03T15:14:07.687Z</time></trkpt><trkpt lat="45.0246453" lon="8.9144063"><ele>73.0</ele><time>2026-05-03T15:14:08.687Z</time></trkpt><trkpt lat="45.0248542" lon="8.9142818"><ele>73.33333333333333</ele><time>2026-05-03T15:14:09.692Z</time></trkpt><trkpt lat="45.0250581" lon="8.9141638"><ele>73.66666666666667</ele><time>2026-05-03T15:14:10.686Z</time></trkpt><trkpt lat="45.0252524" lon="8.914049"><ele>74.0</ele><time>2026-05-03T15:14:11.689Z</time></trkpt><trkpt lat="45.0254487" lon="8.9139306"><ele>74.0</ele><time>2026-05-03T15:14:12.695Z</time></trkpt><trkpt lat="45.0256363" lon="8.9138381"><ele>74.0</ele><time>2026-05-03T15:14:13.682Z</time></trkpt><trkpt lat="45.0258223" lon="8.9137494"><ele>74.0</ele><time>2026-05-03T15:14:14.695Z</time></trkpt><trkpt lat="45.026002" lon="8.9136336"><ele>73.66666666666667</ele><time>2026-05-03T15:14:15.693Z</time></trkpt><trkpt lat="45.0261603" lon="8.9135346"><ele>73.33333333333333</ele><time>2026-05-03T15:14:16.696Z</time></trkpt><trkpt lat="45.0263032" lon="8.9134334"><ele>73.0</ele><time>2026-05-03T15:14:17.693Z</time></trkpt><trkpt lat="45.0264501" lon="8.913371"><ele>73.0</ele><time>2026-05-03T15:14:18.7Z</time></trkpt><trkpt lat="45.0265906" lon="8.9133155"><ele>73.0</ele><time>2026-05-03T15:14:19.688Z</time></trkpt><trkpt lat="45.0267246" lon="8.9132366"><ele>73.0</ele><time>2026-05-03T15:14:20.688Z</time></trkpt><trkpt lat="45.0268225" lon="8.9131428"><ele>73.0</ele><time>2026-05-03T15:14:21.687Z</time></trkpt><trkpt lat="45.0269156" lon="8.9130627"><ele>73.0</ele><time>2026-05-03T15:14:22.684Z</time></trkpt><trkpt lat="45.0270108" lon="8.9130096"><ele>73.0</ele><time>2026-05-03T15:14:23.686Z</time></trkpt><trkpt lat="45.0270892" lon="8.9129484"><ele>73.0</ele><time>2026-05-03T15:14:24.682Z</time></trkpt><trkpt lat="45.0272269" lon="8.9128018"><ele>73.0</ele><time>2026-05-03T15:14:26.686Z</time></trkpt><trkpt lat="45.0273052" lon="8.9127132"><ele>73.0</ele><time>2026-05-03T15:14:27.679Z</time></trkpt><trkpt lat="45.0273345" lon="8.9125931"><ele>73.0</ele><time>2026-05-03T15:14:28.681Z</time></trkpt><trkpt lat="45.0273002" lon="8.9123809"><ele>73.0</ele><time>2026-05-03T15:14:29.676Z</time></trkpt><trkpt lat="45.0272919" lon="8.9121679"><ele>73.0</ele><time>2026-05-03T15:14:30.678Z</time></trkpt><trkpt lat="45.0272852" lon="8.911917"><ele>73.0</ele><time>2026-05-03T15:14:31.656Z</time></trkpt><trkpt lat="45.027347" lon="8.9115957"><ele>73.0</ele><time>2026-05-03T15:14:32.664Z</time></trkpt><trkpt lat="45.0274141" lon="8.9113145"><ele>73.0</ele><time>2026-05-03T15:14:33.675Z</time></trkpt><trkpt lat="45.0274629" lon="8.9110235"><ele>73.0</ele><time>2026-05-03T15:14:34.675Z</time></trkpt><trkpt lat="45.0274946" lon="8.910767"><ele>73.0</ele><time>2026-05-03T15:14:35.675Z</time></trkpt><trkpt lat="45.0274708" lon="8.9105246"><ele>73.0</ele><time>2026-05-03T15:14:36.673Z</time></trkpt><trkpt lat="45.02743" lon="8.9102558"><ele>72.5</ele><time>2026-05-03T15:14:37.667Z</time></trkpt><trkpt lat="45.027332" lon="8.9099428"><ele>72.0</ele><time>2026-05-03T15:14:38.67Z</time></trkpt><trkpt lat="45.0272463" lon="8.9095987"><ele>72.0</ele><time>2026-05-03T15:14:39.678Z</time></trkpt><trkpt lat="45.0271628" lon="8.9092878"><ele>72.0</ele><time>2026-05-03T15:14:40.679Z</time></trkpt><trkpt lat="45.0270804" lon="8.9089655"><ele>72.0</ele><time>2026-05-03T15:14:41.678Z</time></trkpt><trkpt lat="45.0269767" lon="8.9086291"><ele>72.0</ele><time>2026-05-03T15:14:42.675Z</time></trkpt><trkpt lat="45.0269047" lon="8.9083313"><ele>72.0</ele><time>2026-05-03T15:14:43.671Z</time></trkpt><trkpt lat="45.026844" lon="8.9079961"><ele>72.0</ele><time>2026-05-03T15:14:44.685Z</time></trkpt><trkpt lat="45.0267683" lon="8.9076677"><ele>73.0</ele><time>2026-05-03T15:14:45.672Z</time></trkpt><trkpt lat="45.0267351" lon="8.907342"><ele>74.0</ele><time>2026-05-03T15:14:46.682Z</time></trkpt><trkpt lat="45.0266986" lon="8.9070299"><ele>74.0</ele><time>2026-05-03T15:14:47.676Z</time></trkpt><trkpt lat="45.0267039" lon="8.9067059"><ele>74.0</ele><time>2026-05-03T15:14:48.672Z</time></trkpt><trkpt lat="45.0267263" lon="8.9063632"><ele>74.0</ele><time>2026-05-03T15:14:49.665Z</time></trkpt><trkpt lat="45.0267369" lon="8.9060176"><ele>74.0</ele><time>2026-05-03T15:14:50.668Z</time></trkpt><trkpt lat="45.0267693" lon="8.9056873"><ele>74.33333333333334</ele><time>2026-05-03T15:14:51.669Z</time></trkpt><trkpt lat="45.0268352" lon="8.9053784"><ele>74.66666666666667</ele><time>2026-05-03T15:14:52.671Z</time></trkpt><trkpt lat="45.0268586" lon="8.9050695"><ele>75.0</ele><time>2026-05-03T15:14:53.678Z</time></trkpt><trkpt lat="45.026882" lon="8.9047427"><ele>75.0</ele><time>2026-05-03T15:14:54.682Z</time></trkpt><trkpt lat="45.0268956" lon="8.9044628"><ele>75.0</ele><time>2026-05-03T15:14:55.676Z</time></trkpt><trkpt lat="45.0268841" lon="8.9041587"><ele>75.0</ele><time>2026-05-03T15:14:56.678Z</time></trkpt><trkpt lat="45.0268644" lon="8.9038585"><ele>75.0</ele><time>2026-05-03T15:14:57.683Z</time></trkpt><trkpt lat="45.026833" lon="8.9035743"><ele>75.0</ele><time>2026-05-03T15:14:58.682Z</time></trkpt><trkpt lat="45.0268238" lon="8.9032827"><ele>75.0</ele><time>2026-05-03T15:14:59.684Z</time></trkpt><trkpt lat="45.026829" lon="8.9029956"><ele>74.66666666666667</ele><time>2026-05-03T15:15:00.69Z</time></trkpt><trkpt lat="45.0268222" lon="8.90273"><ele>74.33333333333334</ele><time>2026-05-03T15:15:01.671Z</time></trkpt><trkpt lat="45.0268324" lon="8.9024701"><ele>74.0</ele><time>2026-05-03T15:15:02.67Z</time></trkpt><trkpt lat="45.0268463" lon="8.9021862"><ele>73.66666666666667</ele><time>2026-05-03T15:15:03.68Z</time></trkpt><trkpt lat="45.0268439" lon="8.9019072"><ele>73.33333333333333</ele><time>2026-05-03T15:15:04.671Z</time></trkpt><trkpt lat="45.0268376" lon="8.9016147"><ele>73.0</ele><time>2026-05-03T15:15:05.671Z</time></trkpt><trkpt lat="45.0268252" lon="8.9013269"><ele>73.0</ele><time>2026-05-03T15:15:06.676Z</time></trkpt><trkpt lat="45.0268314" lon="8.9010647"><ele>73.0</ele><time>2026-05-03T15:15:07.678Z</time></trkpt><trkpt lat="45.0268488" lon="8.9008142"><ele>73.0</ele><time>2026-05-03T15:15:08.673Z</time></trkpt><trkpt lat="45.0268666" lon="8.9005494"><ele>72.75</ele><time>2026-05-03T15:15:09.685Z</time></trkpt><trkpt lat="45.0268615" lon="8.9003173"><ele>72.5</ele><time>2026-05-03T15:15:10.677Z</time></trkpt><trkpt lat="45.026858" lon="8.9000924"><ele>72.25</ele><time>2026-05-03T15:15:11.669Z</time></trkpt><trkpt lat="45.0268442" lon="8.8999176"><ele>72.0</ele><time>2026-05-03T15:15:12.654Z</time></trkpt><trkpt lat="45.026849" lon="8.8997847"><ele>72.6</ele><time>2026-05-03T15:15:13.66Z</time></trkpt><trkpt lat="45.0268424" lon="8.8996786"><ele>73.2</ele><time>2026-05-03T15:15:14.662Z</time></trkpt><trkpt lat="45.0268437" lon="8.8995729"><ele>73.8</ele><time>2026-05-03T15:15:15.662Z</time></trkpt><trkpt lat="45.0268699" lon="8.8993804"><ele>74.4</ele><time>2026-05-03T15:15:17.666Z</time></trkpt><trkpt lat="45.0268664" lon="8.8992447"><ele>75.0</ele><time>2026-05-03T15:15:18.677Z</time></trkpt><trkpt lat="45.0268596" lon="8.8991264"><ele>75.0</ele><time>2026-05-03T15:15:19.666Z</time></trkpt><trkpt lat="45.0268587" lon="8.8989977"><ele>75.0</ele><time>2026-05-03T15:15:20.667Z</time></trkpt><trkpt lat="45.0268504" lon="8.8988666"><ele>75.0</ele><time>2026-05-03T15:15:21.664Z</time></trkpt><trkpt lat="45.0268327" lon="8.898748"><ele>75.0</ele><time>2026-05-03T15:15:22.67Z</time></trkpt><trkpt lat="45.0268153" lon="8.898626"><ele>75.0</ele><time>2026-05-03T15:15:23.667Z</time></trkpt><trkpt lat="45.0267892" lon="8.8985046"><ele>75.0</ele><time>2026-05-03T15:15:24.669Z</time></trkpt><trkpt lat="45.0267558" lon="8.8983882"><ele>75.0</ele><time>2026-05-03T15:15:25.673Z</time></trkpt><trkpt lat="45.0267188" lon="8.8982742"><ele>75.0</ele><time>2026-05-03T15:15:26.665Z</time></trkpt><trkpt lat="45.0266848" lon="8.8981531"><ele>75.0</ele><time>2026-05-03T15:15:27.668Z</time></trkpt><trkpt lat="45.0266645" lon="8.8980219"><ele>75.0</ele><time>2026-05-03T15:15:28.677Z</time></trkpt><trkpt lat="45.0266396" lon="8.8978921"><ele>75.0</ele><time>2026-05-03T15:15:29.688Z</time></trkpt><trkpt lat="45.0266121" lon="8.8977638"><ele>75.0</ele><time>2026-05-03T15:15:30.68Z</time></trkpt><trkpt lat="45.0265868" lon="8.8976368"><ele>75.0</ele><time>2026-05-03T15:15:31.681Z</time></trkpt><trkpt lat="45.0265639" lon="8.8975161"><ele>75.0</ele><time>2026-05-03T15:15:32.679Z</time></trkpt><trkpt lat="45.0265403" lon="8.8974058"><ele>75.0</ele><time>2026-05-03T15:15:33.677Z</time></trkpt><trkpt lat="45.0265186" lon="8.8973162"><ele>75.0</ele><time>2026-05-03T15:15:34.681Z</time></trkpt><trkpt lat="45.0264788" lon="8.8971426"><ele>75.0</ele><time>2026-05-03T15:15:36.674Z</time></trkpt><trkpt lat="45.0264534" lon="8.8970421"><ele>75.0</ele><time>2026-05-03T15:15:37.688Z</time></trkpt><trkpt lat="45.0264319" lon="8.896945"><ele>75.0</ele><time>2026-05-03T15:15:38.682Z</time></trkpt><trkpt lat="45.0264138" lon="8.8968473"><ele>75.0</ele><time>2026-05-03T15:15:39.686Z</time></trkpt><trkpt lat="45.0263911" lon="8.896748"><ele>75.0</ele><time>2026-05-03T15:15:40.687Z</time></trkpt><trkpt lat="45.0263555" lon="8.8966438"><ele>75.0</ele><time>2026-05-03T15:15:41.681Z</time></trkpt><trkpt lat="45.0263307" lon="8.8965307"><ele>75.0</ele><time>2026-05-03T15:15:42.681Z</time></trkpt><trkpt lat="45.0263122" lon="8.8964165"><ele>75.0</ele><time>2026-05-03T15:15:43.679Z</time></trkpt><trkpt lat="45.0262879" lon="8.8963127"><ele>75.0</ele><time>2026-05-03T15:15:44.679Z</time></trkpt><trkpt lat="45.0262648" lon="8.8962075"><ele>75.0</ele><time>2026-05-03T15:15:45.664Z</time></trkpt><trkpt lat="45.0262463" lon="8.8961091"><ele>75.0</ele><time>2026-05-03T15:15:46.681Z</time></trkpt><trkpt lat="45.0262315" lon="8.8960054"><ele>75.0</ele><time>2026-05-03T15:15:47.672Z</time></trkpt><trkpt lat="45.0261995" lon="8.8958966"><ele>75.0</ele><time>2026-05-03T15:15:48.674Z</time></trkpt><trkpt lat="45.0261698" lon="8.8957843"><ele>75.0</ele><time>2026-05-03T15:15:49.676Z</time></trkpt><trkpt lat="45.0261539" lon="8.8956694"><ele>75.0</ele><time>2026-05-03T15:15:50.667Z</time></trkpt><trkpt lat="45.0261401" lon="8.8955542"><ele>75.0</ele><time>2026-05-03T15:15:51.67Z</time></trkpt><trkpt lat="45.0261191" lon="8.8954409"><ele>75.0</ele><time>2026-05-03T15:15:52.68Z</time></trkpt><trkpt lat="45.026093" lon="8.8953306"><ele>75.0</ele><time>2026-05-03T15:15:53.682Z</time></trkpt><trkpt lat="45.0260603" lon="8.8952179"><ele>75.0</ele><time>2026-05-03T15:15:54.669Z</time></trkpt><trkpt lat="45.026029" lon="8.8951025"><ele>75.0</ele><time>2026-05-03T15:15:55.684Z</time></trkpt><trkpt lat="45.0259936" lon="8.8949827"><ele>75.0</ele><time>2026-05-03T15:15:56.68Z</time></trkpt><trkpt lat="45.0259606" lon="8.8948639"><ele>75.0</ele><time>2026-05-03T15:15:57.674Z</time></trkpt><trkpt lat="45.0259212" lon="8.894748"><ele>75.0</ele><time>2026-05-03T15:15:58.679Z</time></trkpt><trkpt lat="45.0258922" lon="8.8946275"><ele>75.0</ele><time>2026-05-03T15:15:59.678Z</time></trkpt><trkpt lat="45.0258694" lon="8.8945154"><ele>75.0</ele><time>2026-05-03T15:16:00.68Z</time></trkpt><trkpt lat="45.0258442" lon="8.8943907"><ele>75.0</ele><time>2026-05-03T15:16:01.669Z</time></trkpt><trkpt lat="45.0258259" lon="8.8942591"><ele>75.0</ele><time>2026-05-03T15:16:02.678Z</time></trkpt><trkpt lat="45.0257992" lon="8.8941171"><ele>75.0</ele><time>2026-05-03T15:16:03.679Z</time></trkpt><trkpt lat="45.0257702" lon="8.893979"><ele>75.0</ele><time>2026-05-03T15:16:04.682Z</time></trkpt><trkpt lat="45.0257407" lon="8.8938621"><ele>75.0</ele><time>2026-05-03T15:16:05.672Z</time></trkpt><trkpt lat="45.0257126" lon="8.893742"><ele>75.0</ele><time>2026-05-03T15:16:06.667Z</time></trkpt><trkpt lat="45.0256835" lon="8.8936308"><ele>75.0</ele><time>2026-05-03T15:16:07.672Z</time></trkpt><trkpt lat="45.0256584" lon="8.8935066"><ele>75.0</ele><time>2026-05-03T15:16:08.664Z</time></trkpt><trkpt lat="45.0256334" lon="8.8933872"><ele>75.0</ele><time>2026-05-03T15:16:09.663Z</time></trkpt><trkpt lat="45.0256056" lon="8.8932694"><ele>75.2</ele><time>2026-05-03T15:16:10.668Z</time></trkpt><trkpt lat="45.025574" lon="8.8931519"><ele>75.4</ele><time>2026-05-03T15:16:11.667Z</time></trkpt><trkpt lat="45.0255507" lon="8.8930357"><ele>75.6</ele><time>2026-05-03T15:16:12.658Z</time></trkpt><trkpt lat="45.025532" lon="8.8929427"><ele>75.8</ele><time>2026-05-03T15:16:13.66Z</time></trkpt><trkpt lat="45.0254985" lon="8.8927909"><ele>76.0</ele><time>2026-05-03T15:16:15.652Z</time></trkpt><trkpt lat="45.0254405" lon="8.8926632"><ele>76.2</ele><time>2026-05-03T15:16:17.647Z</time></trkpt><trkpt lat="45.0253438" lon="8.8925439"><ele>76.39999999999999</ele><time>2026-05-03T15:16:19.656Z</time></trkpt><trkpt lat="45.0253356" lon="8.8924373"><ele>76.6</ele><time>2026-05-03T15:16:20.67Z</time></trkpt><trkpt lat="45.0253296" lon="8.8923155"><ele>76.8</ele><time>2026-05-03T15:16:21.669Z</time></trkpt><trkpt lat="45.0253431" lon="8.8921781"><ele>77.0</ele><time>2026-05-03T15:16:22.678Z</time></trkpt><trkpt lat="45.0253536" lon="8.8920357"><ele>77.0</ele><time>2026-05-03T15:16:23.671Z</time></trkpt><trkpt lat="45.0253714" lon="8.8918941"><ele>77.0</ele><time>2026-05-03T15:16:24.678Z</time></trkpt><trkpt lat="45.0253908" lon="8.8917588"><ele>77.0</ele><time>2026-05-03T15:16:25.674Z</time></trkpt><trkpt lat="45.0254126" lon="8.8916218"><ele>77.0</ele><time>2026-05-03T15:16:26.676Z</time></trkpt><trkpt lat="45.0254275" lon="8.8914687"><ele>77.0</ele><time>2026-05-03T15:16:27.675Z</time></trkpt><trkpt lat="45.0254458" lon="8.8913156"><ele>77.0</ele><time>2026-05-03T15:16:28.671Z</time></trkpt><trkpt lat="45.0254649" lon="8.89117"><ele>77.0</ele><time>2026-05-03T15:16:29.674Z</time></trkpt><trkpt lat="45.0254783" lon="8.8910527"><ele>77.0</ele><time>2026-05-03T15:16:30.668Z</time></trkpt><trkpt lat="45.0254963" lon="8.890938"><ele>77.0</ele><time>2026-05-03T15:16:31.669Z</time></trkpt><trkpt lat="45.0255214" lon="8.8908264"><ele>77.0</ele><time>2026-05-03T15:16:32.669Z</time></trkpt><trkpt lat="45.0255503" lon="8.8907033"><ele>77.0</ele><time>2026-05-03T15:16:33.665Z</time></trkpt><trkpt lat="45.0255738" lon="8.8905674"><ele>77.0</ele><time>2026-05-03T15:16:34.684Z</time></trkpt><trkpt lat="45.0255938" lon="8.8904299"><ele>77.0</ele><time>2026-05-03T15:16:35.683Z</time></trkpt><trkpt lat="45.0256121" lon="8.8902752"><ele>77.0</ele><time>2026-05-03T15:16:36.68Z</time></trkpt><trkpt lat="45.025624" lon="8.8901037"><ele>77.0</ele><time>2026-05-03T15:16:37.677Z</time></trkpt><trkpt lat="45.0256368" lon="8.8899307"><ele>76.66666666666667</ele><time>2026-05-03T15:16:38.676Z</time></trkpt><trkpt lat="45.0256642" lon="8.8897447"><ele>76.33333333333333</ele><time>2026-05-03T15:16:39.683Z</time></trkpt><trkpt lat="45.0256895" lon="8.8895467"><ele>76.0</ele><time>2026-05-03T15:16:40.679Z</time></trkpt><trkpt lat="45.0257359" lon="8.8893074"><ele>74.66666666666666</ele><time>2026-05-03T15:16:41.675Z</time></trkpt><trkpt lat="45.0257627" lon="8.8890217"><ele>73.33333333333333</ele><time>2026-05-03T15:16:42.667Z</time></trkpt><trkpt lat="45.0257976" lon="8.8887005"><ele>72.0</ele><time>2026-05-03T15:16:43.676Z</time></trkpt><trkpt lat="45.0258419" lon="8.8883547"><ele>71.5</ele><time>2026-05-03T15:16:44.679Z</time></trkpt><trkpt lat="45.0258745" lon="8.8879845"><ele>71.0</ele><time>2026-05-03T15:16:45.678Z</time></trkpt><trkpt lat="45.0259166" lon="8.8876086"><ele>71.0</ele><time>2026-05-03T15:16:46.679Z</time></trkpt><trkpt lat="45.0259587" lon="8.8872114"><ele>71.0</ele><time>2026-05-03T15:16:47.682Z</time></trkpt><trkpt lat="45.0259922" lon="8.8868378"><ele>71.0</ele><time>2026-05-03T15:16:48.684Z</time></trkpt><trkpt lat="45.0260395" lon="8.886467"><ele>71.0</ele><time>2026-05-03T15:16:49.677Z</time></trkpt><trkpt lat="45.0260813" lon="8.8861162"><ele>71.5</ele><time>2026-05-03T15:16:50.679Z</time></trkpt><trkpt lat="45.0261181" lon="8.8857704"><ele>72.0</ele><time>2026-05-03T15:16:51.677Z</time></trkpt><trkpt lat="45.0261444" lon="8.8854168"><ele>72.0</ele><time>2026-05-03T15:16:52.681Z</time></trkpt><trkpt lat="45.026182" lon="8.8850812"><ele>72.0</ele><time>2026-05-03T15:16:53.68Z</time></trkpt><trkpt lat="45.0262125" lon="8.8847381"><ele>72.0</ele><time>2026-05-03T15:16:54.687Z</time></trkpt><trkpt lat="45.0262492" lon="8.8844123"><ele>72.0</ele><time>2026-05-03T15:16:55.684Z</time></trkpt><trkpt lat="45.0262925" lon="8.8840603"><ele>72.0</ele><time>2026-05-03T15:16:56.68Z</time></trkpt><trkpt lat="45.0263194" lon="8.883745"><ele>72.0</ele><time>2026-05-03T15:16:57.684Z</time></trkpt><trkpt lat="45.0263347" lon="8.8833802"><ele>72.0</ele><time>2026-05-03T15:16:58.687Z</time></trkpt><trkpt lat="45.0263473" lon="8.883037"><ele>72.0</ele><time>2026-05-03T15:16:59.696Z</time></trkpt><trkpt lat="45.0263637" lon="8.8826883"><ele>71.5</ele><time>2026-05-03T15:17:00.688Z</time></trkpt><trkpt lat="45.0263633" lon="8.8823183"><ele>71.0</ele><time>2026-05-03T15:17:01.69Z</time></trkpt><trkpt lat="45.0263562" lon="8.8819647"><ele>71.5</ele><time>2026-05-03T15:17:02.687Z</time></trkpt><trkpt lat="45.026329" lon="8.8815925"><ele>72.0</ele><time>2026-05-03T15:17:03.679Z</time></trkpt><trkpt lat="45.0263048" lon="8.8812294"><ele>72.0</ele><time>2026-05-03T15:17:04.706Z</time></trkpt><trkpt lat="45.0262699" lon="8.8808521"><ele>72.0</ele><time>2026-05-03T15:17:05.694Z</time></trkpt><trkpt lat="45.0262589" lon="8.8804769"><ele>72.5</ele><time>2026-05-03T15:17:06.691Z</time></trkpt><trkpt lat="45.0262495" lon="8.8800868"><ele>73.0</ele><time>2026-05-03T15:17:07.691Z</time></trkpt><trkpt lat="45.0262393" lon="8.8797067"><ele>73.0</ele><time>2026-05-03T15:17:08.694Z</time></trkpt><trkpt lat="45.0262477" lon="8.8793506"><ele>73.0</ele><time>2026-05-03T15:17:09.698Z</time></trkpt><trkpt lat="45.0262453" lon="8.8789886"><ele>72.0</ele><time>2026-05-03T15:17:10.705Z</time></trkpt><trkpt lat="45.0262272" lon="8.8786036"><ele>71.0</ele><time>2026-05-03T15:17:11.699Z</time></trkpt><trkpt lat="45.0262" lon="8.8782349"><ele>71.0</ele><time>2026-05-03T15:17:12.695Z</time></trkpt><trkpt lat="45.0261839" lon="8.8778773"><ele>71.0</ele><time>2026-05-03T15:17:13.697Z</time></trkpt><trkpt lat="45.0261836" lon="8.8775225"><ele>72.0</ele><time>2026-05-03T15:17:14.708Z</time></trkpt><trkpt lat="45.02618" lon="8.8771486"><ele>73.0</ele><time>2026-05-03T15:17:15.701Z</time></trkpt><trkpt lat="45.0261723" lon="8.8767765"><ele>73.0</ele><time>2026-05-03T15:17:16.697Z</time></trkpt><trkpt lat="45.0261629" lon="8.8764199"><ele>73.0</ele><time>2026-05-03T15:17:17.704Z</time></trkpt><trkpt lat="45.0261482" lon="8.8760603"><ele>73.0</ele><time>2026-05-03T15:17:18.712Z</time></trkpt><trkpt lat="45.0261286" lon="8.8757021"><ele>73.0</ele><time>2026-05-03T15:17:19.791Z</time></trkpt><trkpt lat="45.0261148" lon="8.8753402"><ele>73.5</ele><time>2026-05-03T15:17:20.789Z</time></trkpt><trkpt lat="45.0260997" lon="8.8749823"><ele>74.0</ele><time>2026-05-03T15:17:21.788Z</time></trkpt><trkpt lat="45.0260852" lon="8.8746249"><ele>74.5</ele><time>2026-05-03T15:17:22.795Z</time></trkpt><trkpt lat="45.0260718" lon="8.8742689"><ele>75.0</ele><time>2026-05-03T15:17:23.802Z</time></trkpt><trkpt lat="45.0260601" lon="8.8739113"><ele>75.0</ele><time>2026-05-03T15:17:24.805Z</time></trkpt><trkpt lat="45.0260471" lon="8.8735592"><ele>75.0</ele><time>2026-05-03T15:17:25.795Z</time></trkpt><trkpt lat="45.0260248" lon="8.8732102"><ele>74.5</ele><time>2026-05-03T15:17:26.787Z</time></trkpt><trkpt lat="45.0259966" lon="8.8728594"><ele>74.0</ele><time>2026-05-03T15:17:27.793Z</time></trkpt><trkpt lat="45.0259609" lon="8.8725052"><ele>74.0</ele><time>2026-05-03T15:17:28.79Z</time></trkpt><trkpt lat="45.0259149" lon="8.8721133"><ele>74.0</ele><time>2026-05-03T15:17:29.803Z</time></trkpt><trkpt lat="45.0258553" lon="8.8717424"><ele>73.5</ele><time>2026-05-03T15:17:30.793Z</time></trkpt><trkpt lat="45.0257861" lon="8.8713786"><ele>73.0</ele><time>2026-05-03T15:17:31.796Z</time></trkpt><trkpt lat="45.025702" lon="8.8710115"><ele>72.5</ele><time>2026-05-03T15:17:32.794Z</time></trkpt><trkpt lat="45.0256092" lon="8.8706589"><ele>72.0</ele><time>2026-05-03T15:17:33.785Z</time></trkpt><trkpt lat="45.0255259" lon="8.8703021"><ele>72.0</ele><time>2026-05-03T15:17:34.791Z</time></trkpt><trkpt lat="45.0254409" lon="8.8699391"><ele>72.0</ele><time>2026-05-03T15:17:35.791Z</time></trkpt><trkpt lat="45.0253529" lon="8.8695776"><ele>72.0</ele><time>2026-05-03T15:17:36.786Z</time></trkpt><trkpt lat="45.0252661" lon="8.8692181"><ele>72.0</ele><time>2026-05-03T15:17:37.789Z</time></trkpt><trkpt lat="45.0251783" lon="8.8688553"><ele>72.0</ele><time>2026-05-03T15:17:38.794Z</time></trkpt><trkpt lat="45.0250891" lon="8.8685006"><ele>72.0</ele><time>2026-05-03T15:17:39.8Z</time></trkpt><trkpt lat="45.0250015" lon="8.8681486"><ele>72.0</ele><time>2026-05-03T15:17:40.791Z</time></trkpt><trkpt lat="45.0249188" lon="8.8677931"><ele>72.0</ele><time>2026-05-03T15:17:41.796Z</time></trkpt><trkpt lat="45.0248369" lon="8.86744"><ele>72.0</ele><time>2026-05-03T15:17:42.782Z</time></trkpt><trkpt lat="45.0247541" lon="8.8670922"><ele>72.0</ele><time>2026-05-03T15:17:43.794Z</time></trkpt><trkpt lat="45.0246677" lon="8.8667499"><ele>72.0</ele><time>2026-05-03T15:17:44.79Z</time></trkpt><trkpt lat="45.0245872" lon="8.8664134"><ele>72.0</ele><time>2026-05-03T15:17:45.793Z</time></trkpt><trkpt lat="45.0245083" lon="8.8660766"><ele>71.5</ele><time>2026-05-03T15:17:46.788Z</time></trkpt><trkpt lat="45.0244276" lon="8.8657459"><ele>71.0</ele><time>2026-05-03T15:17:47.79Z</time></trkpt><trkpt lat="45.0243314" lon="8.8654145"><ele>71.5</ele><time>2026-05-03T15:17:48.79Z</time></trkpt><trkpt lat="45.0242491" lon="8.8650904"><ele>72.0</ele><time>2026-05-03T15:17:49.796Z</time></trkpt><trkpt lat="45.0241702" lon="8.8647635"><ele>72.0</ele><time>2026-05-03T15:17:50.791Z</time></trkpt><trkpt lat="45.0241103" lon="8.8644282"><ele>72.0</ele><time>2026-05-03T15:17:51.79Z</time></trkpt><trkpt lat="45.0240443" lon="8.8640986"><ele>72.0</ele><time>2026-05-03T15:17:52.785Z</time></trkpt><trkpt lat="45.0239741" lon="8.8637687"><ele>72.0</ele><time>2026-05-03T15:17:53.789Z</time></trkpt><trkpt lat="45.0238958" lon="8.8634287"><ele>72.0</ele><time>2026-05-03T15:17:54.799Z</time></trkpt><trkpt lat="45.0238189" lon="8.8630966"><ele>72.0</ele><time>2026-05-03T15:17:55.786Z</time></trkpt><trkpt lat="45.0237464" lon="8.8627585"><ele>72.0</ele><time>2026-05-03T15:17:56.789Z</time></trkpt><trkpt lat="45.0236731" lon="8.8624233"><ele>72.0</ele><time>2026-05-03T15:17:57.801Z</time></trkpt><trkpt lat="45.0236062" lon="8.8620923"><ele>72.0</ele><time>2026-05-03T15:17:58.799Z</time></trkpt><trkpt lat="45.0235297" lon="8.8617522"><ele>72.0</ele><time>2026-05-03T15:17:59.805Z</time></trkpt><trkpt lat="45.0234563" lon="8.8614271"><ele>72.0</ele><time>2026-05-03T15:18:00.793Z</time></trkpt><trkpt lat="45.0233803" lon="8.8611005"><ele>72.0</ele><time>2026-05-03T15:18:01.799Z</time></trkpt><trkpt lat="45.0232907" lon="8.8607723"><ele>72.5</ele><time>2026-05-03T15:18:02.796Z</time></trkpt><trkpt lat="45.0232127" lon="8.8604407"><ele>73.0</ele><time>2026-05-03T15:18:03.797Z</time></trkpt><trkpt lat="45.0231429" lon="8.8601005"><ele>73.0</ele><time>2026-05-03T15:18:04.796Z</time></trkpt><trkpt lat="45.0230779" lon="8.8597631"><ele>73.0</ele><time>2026-05-03T15:18:05.797Z</time></trkpt><trkpt lat="45.0230163" lon="8.859424"><ele>73.5</ele><time>2026-05-03T15:18:06.788Z</time></trkpt><trkpt lat="45.0229527" lon="8.8590885"><ele>74.0</ele><time>2026-05-03T15:18:07.794Z</time></trkpt><trkpt lat="45.0229016" lon="8.8587453"><ele>74.0</ele><time>2026-05-03T15:18:08.802Z</time></trkpt><trkpt lat="45.022856" lon="8.8584066"><ele>74.0</ele><time>2026-05-03T15:18:09.797Z</time></trkpt><trkpt lat="45.0228213" lon="8.8580646"><ele>74.0</ele><time>2026-05-03T15:18:10.798Z</time></trkpt><trkpt lat="45.0227928" lon="8.8577221"><ele>74.0</ele><time>2026-05-03T15:18:11.796Z</time></trkpt><trkpt lat="45.0227738" lon="8.8573817"><ele>73.5</ele><time>2026-05-03T15:18:12.795Z</time></trkpt><trkpt lat="45.0227596" lon="8.8570357"><ele>73.0</ele><time>2026-05-03T15:18:13.813Z</time></trkpt><trkpt lat="45.0227515" lon="8.8566896"><ele>73.0</ele><time>2026-05-03T15:18:14.8Z</time></trkpt><trkpt lat="45.0227501" lon="8.8563369"><ele>73.0</ele><time>2026-05-03T15:18:15.796Z</time></trkpt><trkpt lat="45.0227523" lon="8.8559788"><ele>73.0</ele><time>2026-05-03T15:18:16.792Z</time></trkpt><trkpt lat="45.0227563" lon="8.8556293"><ele>73.0</ele><time>2026-05-03T15:18:17.803Z</time></trkpt><trkpt lat="45.0227624" lon="8.8552752"><ele>73.5</ele><time>2026-05-03T15:18:18.811Z</time></trkpt><trkpt lat="45.0227802" lon="8.854934"><ele>74.0</ele><time>2026-05-03T15:18:19.792Z</time></trkpt><trkpt lat="45.0227953" lon="8.8545874"><ele>74.0</ele><time>2026-05-03T15:18:20.797Z</time></trkpt><trkpt lat="45.0228018" lon="8.8542404"><ele>74.0</ele><time>2026-05-03T15:18:21.79Z</time></trkpt><trkpt lat="45.0228067" lon="8.85389"><ele>74.0</ele><time>2026-05-03T15:18:22.798Z</time></trkpt><trkpt lat="45.0228102" lon="8.8535342"><ele>74.0</ele><time>2026-05-03T15:18:23.804Z</time></trkpt><trkpt lat="45.022813" lon="8.8531889"><ele>74.0</ele><time>2026-05-03T15:18:24.798Z</time></trkpt><trkpt lat="45.022819" lon="8.8528376"><ele>74.0</ele><time>2026-05-03T15:18:25.79Z</time></trkpt><trkpt lat="45.0228232" lon="8.8524861"><ele>75.0</ele><time>2026-05-03T15:18:26.793Z</time></trkpt><trkpt lat="45.0228284" lon="8.8521308"><ele>76.0</ele><time>2026-05-03T15:18:27.787Z</time></trkpt><trkpt lat="45.0228285" lon="8.8517775"><ele>76.0</ele><time>2026-05-03T15:18:28.811Z</time></trkpt><trkpt lat="45.0228267" lon="8.8514363"><ele>76.0</ele><time>2026-05-03T15:18:29.791Z</time></trkpt><trkpt lat="45.0228305" lon="8.8510996"><ele>74.5</ele><time>2026-05-03T15:18:30.797Z</time></trkpt><trkpt lat="45.0228299" lon="8.8507634"><ele>73.0</ele><time>2026-05-03T15:18:31.794Z</time></trkpt><trkpt lat="45.022829" lon="8.850451"><ele>73.0</ele><time>2026-05-03T15:18:32.787Z</time></trkpt><trkpt lat="45.0228334" lon="8.8501534"><ele>73.0</ele><time>2026-05-03T15:18:33.8Z</time></trkpt><trkpt lat="45.0228364" lon="8.8498761"><ele>73.0</ele><time>2026-05-03T15:18:34.791Z</time></trkpt><trkpt lat="45.0228365" lon="8.8496162"><ele>73.33333333333333</ele><time>2026-05-03T15:18:35.787Z</time></trkpt><trkpt lat="45.0228349" lon="8.8493701"><ele>73.66666666666667</ele><time>2026-05-03T15:18:36.797Z</time></trkpt><trkpt lat="45.0228288" lon="8.8491386"><ele>74.0</ele><time>2026-05-03T15:18:37.789Z</time></trkpt><trkpt lat="45.0228219" lon="8.8489207"><ele>74.0</ele><time>2026-05-03T15:18:38.799Z</time></trkpt><trkpt lat="45.0228155" lon="8.8487259"><ele>74.0</ele><time>2026-05-03T15:18:39.79Z</time></trkpt><trkpt lat="45.0228153" lon="8.8485593"><ele>74.0</ele><time>2026-05-03T15:18:40.783Z</time></trkpt><trkpt lat="45.0228482" lon="8.8484105"><ele>74.0</ele><time>2026-05-03T15:18:41.771Z</time></trkpt><trkpt lat="45.0228946" lon="8.8482748"><ele>74.0</ele><time>2026-05-03T15:18:42.775Z</time></trkpt><trkpt lat="45.0229248" lon="8.8481359"><ele>74.0</ele><time>2026-05-03T15:18:43.779Z</time></trkpt><trkpt lat="45.0229183" lon="8.8479938"><ele>74.0</ele><time>2026-05-03T15:18:44.758Z</time></trkpt><trkpt lat="45.0228708" lon="8.8478607"><ele>74.0</ele><time>2026-05-03T15:18:45.751Z</time></trkpt><trkpt lat="45.0229451" lon="8.8477639"><ele>74.0</ele><time>2026-05-03T15:18:46.652Z</time></trkpt><trkpt lat="45.0228997" lon="8.847603"><ele>73.66666666666667</ele><time>2026-05-03T15:18:47.669Z</time></trkpt><trkpt lat="45.022866" lon="8.8473907"><ele>73.33333333333333</ele><time>2026-05-03T15:18:48.68Z</time></trkpt><trkpt lat="45.0228481" lon="8.8471536"><ele>73.0</ele><time>2026-05-03T15:18:49.674Z</time></trkpt><trkpt lat="45.0228217" lon="8.8468595"><ele>73.33333333333333</ele><time>2026-05-03T15:18:50.679Z</time></trkpt><trkpt lat="45.0228049" lon="8.84654"><ele>73.66666666666667</ele><time>2026-05-03T15:18:51.683Z</time></trkpt><trkpt lat="45.0227587" lon="8.8462441"><ele>74.0</ele><time>2026-05-03T15:18:52.683Z</time></trkpt><trkpt lat="45.022712" lon="8.8458908"><ele>74.5</ele><time>2026-05-03T15:18:53.684Z</time></trkpt><trkpt lat="45.0226706" lon="8.8455489"><ele>75.0</ele><time>2026-05-03T15:18:54.687Z</time></trkpt><trkpt lat="45.0226336" lon="8.8452469"><ele>75.0</ele><time>2026-05-03T15:18:55.685Z</time></trkpt><trkpt lat="45.0225549" lon="8.8449101"><ele>75.0</ele><time>2026-05-03T15:18:56.695Z</time></trkpt><trkpt lat="45.0224862" lon="8.8445964"><ele>74.0</ele><time>2026-05-03T15:18:57.692Z</time></trkpt><trkpt lat="45.0224207" lon="8.8443026"><ele>73.0</ele><time>2026-05-03T15:18:58.693Z</time></trkpt><trkpt lat="45.0223336" lon="8.8440093"><ele>72.0</ele><time>2026-05-03T15:18:59.689Z</time></trkpt><trkpt lat="45.022224" lon="8.8437295"><ele>72.0</ele><time>2026-05-03T15:19:00.695Z</time></trkpt><trkpt lat="45.0221007" lon="8.84345"><ele>72.0</ele><time>2026-05-03T15:19:01.687Z</time></trkpt><trkpt lat="45.021964" lon="8.8431615"><ele>72.0</ele><time>2026-05-03T15:19:02.695Z</time></trkpt><trkpt lat="45.021826" lon="8.8429026"><ele>72.0</ele><time>2026-05-03T15:19:03.682Z</time></trkpt><trkpt lat="45.02172" lon="8.8426511"><ele>72.0</ele><time>2026-05-03T15:19:04.69Z</time></trkpt><trkpt lat="45.0215955" lon="8.8423946"><ele>72.0</ele><time>2026-05-03T15:19:05.694Z</time></trkpt><trkpt lat="45.0214732" lon="8.8421459"><ele>72.0</ele><time>2026-05-03T15:19:06.689Z</time></trkpt><trkpt lat="45.0213602" lon="8.8419133"><ele>72.0</ele><time>2026-05-03T15:19:07.702Z</time></trkpt><trkpt lat="45.0212225" lon="8.8416341"><ele>72.33333333333333</ele><time>2026-05-03T15:19:08.69Z</time></trkpt><trkpt lat="45.0210931" lon="8.841388"><ele>72.66666666666666</ele><time>2026-05-03T15:19:09.683Z</time></trkpt><trkpt lat="45.0209738" lon="8.8411576"><ele>73.0</ele><time>2026-05-03T15:19:10.674Z</time></trkpt><trkpt lat="45.0208573" lon="8.8409495"><ele>73.0</ele><time>2026-05-03T15:19:11.675Z</time></trkpt><trkpt lat="45.0207545" lon="8.8407541"><ele>73.0</ele><time>2026-05-03T15:19:12.68Z</time></trkpt><trkpt lat="45.020646" lon="8.8405672"><ele>73.0</ele><time>2026-05-03T15:19:13.688Z</time></trkpt><trkpt lat="45.0205435" lon="8.8404077"><ele>73.0</ele><time>2026-05-03T15:19:14.687Z</time></trkpt><trkpt lat="45.0204531" lon="8.8402434"><ele>73.0</ele><time>2026-05-03T15:19:15.685Z</time></trkpt><trkpt lat="45.0203723" lon="8.8400956"><ele>73.0</ele><time>2026-05-03T15:19:16.678Z</time></trkpt><trkpt lat="45.0203085" lon="8.8399583"><ele>73.0</ele><time>2026-05-03T15:19:17.682Z</time></trkpt><trkpt lat="45.0202618" lon="8.8398263"><ele>73.25</ele><time>2026-05-03T15:19:18.686Z</time></trkpt><trkpt lat="45.0202175" lon="8.8396837"><ele>73.5</ele><time>2026-05-03T15:19:19.678Z</time></trkpt><trkpt lat="45.0202377" lon="8.8395098"><ele>73.75</ele><time>2026-05-03T15:19:20.681Z</time></trkpt><trkpt lat="45.0203042" lon="8.8393753"><ele>74.0</ele><time>2026-05-03T15:19:21.67Z</time></trkpt><trkpt lat="45.0204135" lon="8.8392537"><ele>74.33333333333334</ele><time>2026-05-03T15:19:22.68Z</time></trkpt><trkpt lat="45.0205545" lon="8.8391601"><ele>74.66666666666667</ele><time>2026-05-03T15:19:23.667Z</time></trkpt><trkpt lat="45.0207343" lon="8.8390792"><ele>75.0</ele><time>2026-05-03T15:19:24.675Z</time></trkpt><trkpt lat="45.0209787" lon="8.8389944"><ele>75.5</ele><time>2026-05-03T15:19:25.676Z</time></trkpt><trkpt lat="45.021202" lon="8.8388769"><ele>76.0</ele><time>2026-05-03T15:19:26.669Z</time></trkpt><trkpt lat="45.0214424" lon="8.83877"><ele>75.5</ele><time>2026-05-03T15:19:27.668Z</time></trkpt><trkpt lat="45.0216587" lon="8.8386204"><ele>75.0</ele><time>2026-05-03T15:19:28.678Z</time></trkpt><trkpt lat="45.0218533" lon="8.8384351"><ele>75.0</ele><time>2026-05-03T15:19:29.688Z</time></trkpt><trkpt lat="45.022046" lon="8.8382327"><ele>75.0</ele><time>2026-05-03T15:19:30.691Z</time></trkpt><trkpt lat="45.0222284" lon="8.8380377"><ele>75.0</ele><time>2026-05-03T15:19:31.685Z</time></trkpt><trkpt lat="45.0224273" lon="8.8378617"><ele>75.0</ele><time>2026-05-03T15:19:32.691Z</time></trkpt><trkpt lat="45.0226257" lon="8.8376802"><ele>74.5</ele><time>2026-05-03T15:19:33.683Z</time></trkpt><trkpt lat="45.0228294" lon="8.8374996"><ele>74.0</ele><time>2026-05-03T15:19:34.695Z</time></trkpt><trkpt lat="45.0230211" lon="8.8373272"><ele>74.0</ele><time>2026-05-03T15:19:35.694Z</time></trkpt><trkpt lat="45.0232225" lon="8.8371515"><ele>74.0</ele><time>2026-05-03T15:19:36.694Z</time></trkpt><trkpt lat="45.0234132" lon="8.8369695"><ele>74.0</ele><time>2026-05-03T15:19:37.688Z</time></trkpt><trkpt lat="45.0236098" lon="8.8367798"><ele>74.0</ele><time>2026-05-03T15:19:38.691Z</time></trkpt><trkpt lat="45.023793" lon="8.8366005"><ele>74.0</ele><time>2026-05-03T15:19:39.688Z</time></trkpt><trkpt lat="45.0239796" lon="8.8364246"><ele>74.0</ele><time>2026-05-03T15:19:40.691Z</time></trkpt><trkpt lat="45.0241689" lon="8.8362432"><ele>74.0</ele><time>2026-05-03T15:19:41.684Z</time></trkpt><trkpt lat="45.0243655" lon="8.836059"><ele>74.0</ele><time>2026-05-03T15:19:42.688Z</time></trkpt><trkpt lat="45.0245554" lon="8.8358726"><ele>74.0</ele><time>2026-05-03T15:19:43.691Z</time></trkpt><trkpt lat="45.0247447" lon="8.8356855"><ele>74.0</ele><time>2026-05-03T15:19:44.687Z</time></trkpt><trkpt lat="45.0249291" lon="8.8354747"><ele>74.0</ele><time>2026-05-03T15:19:45.694Z</time></trkpt><trkpt lat="45.0251285" lon="8.8352907"><ele>74.0</ele><time>2026-05-03T15:19:46.687Z</time></trkpt><trkpt lat="45.0253162" lon="8.8351249"><ele>74.0</ele><time>2026-05-03T15:19:47.691Z</time></trkpt><trkpt lat="45.0255015" lon="8.8349666"><ele>74.0</ele><time>2026-05-03T15:19:48.687Z</time></trkpt><trkpt lat="45.0256581" lon="8.8348637"><ele>74.0</ele><time>2026-05-03T15:19:49.691Z</time></trkpt><trkpt lat="45.0258364" lon="8.8347502"><ele>74.0</ele><time>2026-05-03T15:19:50.683Z</time></trkpt><trkpt lat="45.0259695" lon="8.8346595"><ele>74.0</ele><time>2026-05-03T15:19:51.69Z</time></trkpt><trkpt lat="45.0261051" lon="8.8345598"><ele>74.0</ele><time>2026-05-03T15:19:52.694Z</time></trkpt><trkpt lat="45.0262519" lon="8.8344856"><ele>74.0</ele><time>2026-05-03T15:19:53.688Z</time></trkpt><trkpt lat="45.0264017" lon="8.8343843"><ele>74.0</ele><time>2026-05-03T15:19:54.688Z</time></trkpt><trkpt lat="45.0266145" lon="8.8343021"><ele>74.0</ele><time>2026-05-03T15:19:55.687Z</time></trkpt><trkpt lat="45.0268295" lon="8.8342453"><ele>74.5</ele><time>2026-05-03T15:19:56.705Z</time></trkpt><trkpt lat="45.0270692" lon="8.8341808"><ele>75.0</ele><time>2026-05-03T15:19:57.692Z</time></trkpt><trkpt lat="45.0272954" lon="8.8340818"><ele>75.0</ele><time>2026-05-03T15:19:58.693Z</time></trkpt><trkpt lat="45.0275263" lon="8.8339776"><ele>75.0</ele><time>2026-05-03T15:19:59.691Z</time></trkpt><trkpt lat="45.0277645" lon="8.8338571"><ele>75.0</ele><time>2026-05-03T15:20:00.693Z</time></trkpt><trkpt lat="45.0279772" lon="8.8337006"><ele>75.0</ele><time>2026-05-03T15:20:01.699Z</time></trkpt><trkpt lat="45.0281633" lon="8.8335152"><ele>75.5</ele><time>2026-05-03T15:20:02.697Z</time></trkpt><trkpt lat="45.0283433" lon="8.8333186"><ele>76.0</ele><time>2026-05-03T15:20:03.684Z</time></trkpt><trkpt lat="45.0285259" lon="8.8331047"><ele>76.0</ele><time>2026-05-03T15:20:04.687Z</time></trkpt><trkpt lat="45.0287095" lon="8.832906"><ele>76.0</ele><time>2026-05-03T15:20:05.679Z</time></trkpt><trkpt lat="45.0289071" lon="8.8327043"><ele>76.0</ele><time>2026-05-03T15:20:06.678Z</time></trkpt><trkpt lat="45.0291144" lon="8.8324813"><ele>76.0</ele><time>2026-05-03T15:20:07.685Z</time></trkpt><trkpt lat="45.0293067" lon="8.8322665"><ele>75.33333333333333</ele><time>2026-05-03T15:20:08.682Z</time></trkpt><trkpt lat="45.0294829" lon="8.8320787"><ele>74.66666666666667</ele><time>2026-05-03T15:20:09.687Z</time></trkpt><trkpt lat="45.0296578" lon="8.8318701"><ele>74.0</ele><time>2026-05-03T15:20:10.682Z</time></trkpt><trkpt lat="45.0298412" lon="8.8316658"><ele>74.0</ele><time>2026-05-03T15:20:11.689Z</time></trkpt><trkpt lat="45.0300266" lon="8.8314721"><ele>74.0</ele><time>2026-05-03T15:20:12.701Z</time></trkpt><trkpt lat="45.0302126" lon="8.8312553"><ele>74.0</ele><time>2026-05-03T15:20:13.693Z</time></trkpt><trkpt lat="45.0303974" lon="8.8310157"><ele>74.0</ele><time>2026-05-03T15:20:14.692Z</time></trkpt><trkpt lat="45.0305769" lon="8.8307811"><ele>74.0</ele><time>2026-05-03T15:20:15.696Z</time></trkpt><trkpt lat="45.0307608" lon="8.8305491"><ele>74.0</ele><time>2026-05-03T15:20:16.69Z</time></trkpt><trkpt lat="45.0309315" lon="8.830332"><ele>74.0</ele><time>2026-05-03T15:20:17.692Z</time></trkpt><trkpt lat="45.0310945" lon="8.8301425"><ele>74.0</ele><time>2026-05-03T15:20:18.69Z</time></trkpt><trkpt lat="45.0312623" lon="8.8299111"><ele>74.0</ele><time>2026-05-03T15:20:19.698Z</time></trkpt><trkpt lat="45.0314422" lon="8.82969"><ele>73.5</ele><time>2026-05-03T15:20:20.693Z</time></trkpt><trkpt lat="45.031643" lon="8.829473"><ele>73.0</ele><time>2026-05-03T15:20:21.689Z</time></trkpt><trkpt lat="45.0318508" lon="8.8292039"><ele>72.5</ele><time>2026-05-03T15:20:22.702Z</time></trkpt><trkpt lat="45.0320669" lon="8.8289462"><ele>72.0</ele><time>2026-05-03T15:20:23.694Z</time></trkpt><trkpt lat="45.0322949" lon="8.8287097"><ele>72.5</ele><time>2026-05-03T15:20:24.695Z</time></trkpt><trkpt lat="45.0325145" lon="8.8285096"><ele>73.0</ele><time>2026-05-03T15:20:25.682Z</time></trkpt><trkpt lat="45.0327334" lon="8.8283189"><ele>73.0</ele><time>2026-05-03T15:20:26.683Z</time></trkpt><trkpt lat="45.0329422" lon="8.8280934"><ele>73.0</ele><time>2026-05-03T15:20:27.681Z</time></trkpt><trkpt lat="45.0331477" lon="8.8278544"><ele>74.0</ele><time>2026-05-03T15:20:28.699Z</time></trkpt><trkpt lat="45.0333332" lon="8.8276144"><ele>75.0</ele><time>2026-05-03T15:20:29.69Z</time></trkpt><trkpt lat="45.0335165" lon="8.8273878"><ele>75.0</ele><time>2026-05-03T15:20:30.689Z</time></trkpt><trkpt lat="45.0337014" lon="8.8271302"><ele>75.0</ele><time>2026-05-03T15:20:31.699Z</time></trkpt><trkpt lat="45.0338972" lon="8.8268689"><ele>74.5</ele><time>2026-05-03T15:20:32.686Z</time></trkpt><trkpt lat="45.0340612" lon="8.8266181"><ele>74.0</ele><time>2026-05-03T15:20:33.689Z</time></trkpt><trkpt lat="45.0342213" lon="8.8263625"><ele>76.0</ele><time>2026-05-03T15:20:34.69Z</time></trkpt><trkpt lat="45.0343699" lon="8.8261233"><ele>78.0</ele><time>2026-05-03T15:20:35.698Z</time></trkpt><trkpt lat="45.0345173" lon="8.8258546"><ele>78.0</ele><time>2026-05-03T15:20:36.699Z</time></trkpt><trkpt lat="45.0346554" lon="8.8255645"><ele>78.0</ele><time>2026-05-03T15:20:37.69Z</time></trkpt><trkpt lat="45.0348018" lon="8.825295"><ele>78.0</ele><time>2026-05-03T15:20:38.698Z</time></trkpt><trkpt lat="45.0349502" lon="8.8250022"><ele>78.0</ele><time>2026-05-03T15:20:39.693Z</time></trkpt><trkpt lat="45.0350718" lon="8.8247078"><ele>78.0</ele><time>2026-05-03T15:20:40.697Z</time></trkpt><trkpt lat="45.0351859" lon="8.8244377"><ele>78.0</ele><time>2026-05-03T15:20:41.699Z</time></trkpt><trkpt lat="45.0353035" lon="8.8241317"><ele>77.0</ele><time>2026-05-03T15:20:42.692Z</time></trkpt><trkpt lat="45.0354209" lon="8.82382"><ele>76.0</ele><time>2026-05-03T15:20:43.692Z</time></trkpt><trkpt lat="45.0355567" lon="8.8235032"><ele>74.0</ele><time>2026-05-03T15:20:44.686Z</time></trkpt><trkpt lat="45.0356574" lon="8.8232018"><ele>72.0</ele><time>2026-05-03T15:20:45.686Z</time></trkpt><trkpt lat="45.0357916" lon="8.8228876"><ele>72.0</ele><time>2026-05-03T15:20:46.69Z</time></trkpt><trkpt lat="45.0359244" lon="8.822579"><ele>72.0</ele><time>2026-05-03T15:20:47.694Z</time></trkpt><trkpt lat="45.0360474" lon="8.8222831"><ele>72.0</ele><time>2026-05-03T15:20:48.69Z</time></trkpt><trkpt lat="45.0361545" lon="8.8220117"><ele>72.0</ele><time>2026-05-03T15:20:49.691Z</time></trkpt><trkpt lat="45.0362649" lon="8.821726"><ele>71.5</ele><time>2026-05-03T15:20:50.69Z</time></trkpt><trkpt lat="45.0363766" lon="8.8213937"><ele>71.0</ele><time>2026-05-03T15:20:51.689Z</time></trkpt><trkpt lat="45.0364856" lon="8.8210747"><ele>71.0</ele><time>2026-05-03T15:20:52.7Z</time></trkpt><trkpt lat="45.0366083" lon="8.8207576"><ele>71.0</ele><time>2026-05-03T15:20:53.705Z</time></trkpt><trkpt lat="45.0367329" lon="8.8204311"><ele>71.5</ele><time>2026-05-03T15:20:54.694Z</time></trkpt><trkpt lat="45.0368681" lon="8.8200845"><ele>72.0</ele><time>2026-05-03T15:20:55.698Z</time></trkpt><trkpt lat="45.0370056" lon="8.8197698"><ele>72.0</ele><time>2026-05-03T15:20:56.706Z</time></trkpt><trkpt lat="45.0371444" lon="8.8194427"><ele>72.0</ele><time>2026-05-03T15:20:57.693Z</time></trkpt><trkpt lat="45.0372667" lon="8.8191215"><ele>72.0</ele><time>2026-05-03T15:20:58.701Z</time></trkpt><trkpt lat="45.037381" lon="8.8187878"><ele>72.0</ele><time>2026-05-03T15:20:59.695Z</time></trkpt><trkpt lat="45.0374812" lon="8.8184512"><ele>74.0</ele><time>2026-05-03T15:21:00.694Z</time></trkpt><trkpt lat="45.0376209" lon="8.8181422"><ele>76.0</ele><time>2026-05-03T15:21:01.688Z</time></trkpt><trkpt lat="45.0377543" lon="8.8178418"><ele>75.0</ele><time>2026-05-03T15:21:02.691Z</time></trkpt><trkpt lat="45.0378771" lon="8.8174897"><ele>74.0</ele><time>2026-05-03T15:21:03.699Z</time></trkpt><trkpt lat="45.0380015" lon="8.817142"><ele>74.0</ele><time>2026-05-03T15:21:04.693Z</time></trkpt><trkpt lat="45.0381286" lon="8.8168088"><ele>74.0</ele><time>2026-05-03T15:21:05.694Z</time></trkpt><trkpt lat="45.0382505" lon="8.8164856"><ele>75.0</ele><time>2026-05-03T15:21:06.686Z</time></trkpt><trkpt lat="45.0383769" lon="8.816175"><ele>76.0</ele><time>2026-05-03T15:21:07.7Z</time></trkpt><trkpt lat="45.0385131" lon="8.8158474"><ele>76.0</ele><time>2026-05-03T15:21:08.694Z</time></trkpt><trkpt lat="45.0386413" lon="8.8155308"><ele>76.0</ele><time>2026-05-03T15:21:09.692Z</time></trkpt><trkpt lat="45.0387562" lon="8.8152105"><ele>75.5</ele><time>2026-05-03T15:21:10.701Z</time></trkpt><trkpt lat="45.0388833" lon="8.8148994"><ele>75.0</ele><time>2026-05-03T15:21:11.683Z</time></trkpt><trkpt lat="45.0390006" lon="8.8145915"><ele>76.0</ele><time>2026-05-03T15:21:12.691Z</time></trkpt><trkpt lat="45.039167" lon="8.8142781"><ele>77.0</ele><time>2026-05-03T15:21:13.685Z</time></trkpt><trkpt lat="45.0393349" lon="8.8139784"><ele>77.0</ele><time>2026-05-03T15:21:14.688Z</time></trkpt><trkpt lat="45.0395009" lon="8.8136921"><ele>77.0</ele><time>2026-05-03T15:21:15.697Z</time></trkpt><trkpt lat="45.0396992" lon="8.8134349"><ele>77.0</ele><time>2026-05-03T15:21:16.695Z</time></trkpt><trkpt lat="45.0399124" lon="8.8131694"><ele>77.0</ele><time>2026-05-03T15:21:17.687Z</time></trkpt><trkpt lat="45.0401365" lon="8.8129409"><ele>77.0</ele><time>2026-05-03T15:21:18.686Z</time></trkpt><trkpt lat="45.0403803" lon="8.8127475"><ele>77.0</ele><time>2026-05-03T15:21:19.684Z</time></trkpt><trkpt lat="45.0406308" lon="8.8125707"><ele>76.0</ele><time>2026-05-03T15:21:20.689Z</time></trkpt><trkpt lat="45.0408692" lon="8.812405"><ele>75.0</ele><time>2026-05-03T15:21:21.677Z</time></trkpt><trkpt lat="45.0411031" lon="8.812245"><ele>75.0</ele><time>2026-05-03T15:21:22.678Z</time></trkpt><trkpt lat="45.0413395" lon="8.8120915"><ele>75.0</ele><time>2026-05-03T15:21:23.705Z</time></trkpt><trkpt lat="45.0415546" lon="8.8119869"><ele>74.5</ele><time>2026-05-03T15:21:24.697Z</time></trkpt><trkpt lat="45.0417842" lon="8.8118982"><ele>74.0</ele><time>2026-05-03T15:21:25.704Z</time></trkpt><trkpt lat="45.0420047" lon="8.8118047"><ele>74.0</ele><time>2026-05-03T15:21:26.717Z</time></trkpt><trkpt lat="45.0422405" lon="8.8117501"><ele>74.0</ele><time>2026-05-03T15:21:27.706Z</time></trkpt><trkpt lat="45.0424472" lon="8.8117236"><ele>74.0</ele><time>2026-05-03T15:21:28.708Z</time></trkpt><trkpt lat="45.0426545" lon="8.8116844"><ele>74.0</ele><time>2026-05-03T15:21:29.712Z</time></trkpt><trkpt lat="45.0428542" lon="8.8116182"><ele>74.0</ele><time>2026-05-03T15:21:30.709Z</time></trkpt><trkpt lat="45.0430437" lon="8.8115691"><ele>74.0</ele><time>2026-05-03T15:21:31.712Z</time></trkpt><trkpt lat="45.0432403" lon="8.8115083"><ele>74.33333333333334</ele><time>2026-05-03T15:21:32.71Z</time></trkpt><trkpt lat="45.0434301" lon="8.8114525"><ele>74.66666666666667</ele><time>2026-05-03T15:21:33.72Z</time></trkpt><trkpt lat="45.0436165" lon="8.8113839"><ele>75.0</ele><time>2026-05-03T15:21:34.71Z</time></trkpt><trkpt lat="45.0438219" lon="8.8113305"><ele>75.0</ele><time>2026-05-03T15:21:35.703Z</time></trkpt><trkpt lat="45.044024" lon="8.8112742"><ele>75.0</ele><time>2026-05-03T15:21:36.696Z</time></trkpt><trkpt lat="45.0442362" lon="8.8112232"><ele>75.0</ele><time>2026-05-03T15:21:37.705Z</time></trkpt><trkpt lat="45.0444852" lon="8.8111849"><ele>75.5</ele><time>2026-05-03T15:21:38.696Z</time></trkpt><trkpt lat="45.044737" lon="8.8111183"><ele>76.0</ele><time>2026-05-03T15:21:39.707Z</time></trkpt><trkpt lat="45.0449921" lon="8.8110441"><ele>75.0</ele><time>2026-05-03T15:21:40.707Z</time></trkpt><trkpt lat="45.0452429" lon="8.8109767"><ele>74.0</ele><time>2026-05-03T15:21:41.706Z</time></trkpt><trkpt lat="45.0454871" lon="8.8109107"><ele>74.0</ele><time>2026-05-03T15:21:42.702Z</time></trkpt><trkpt lat="45.0457113" lon="8.8108345"><ele>74.0</ele><time>2026-05-03T15:21:43.704Z</time></trkpt><trkpt lat="45.0459452" lon="8.8107562"><ele>74.0</ele><time>2026-05-03T15:21:44.703Z</time></trkpt><trkpt lat="45.0461688" lon="8.8106949"><ele>74.0</ele><time>2026-05-03T15:21:45.696Z</time></trkpt><trkpt lat="45.0463976" lon="8.8106083"><ele>74.0</ele><time>2026-05-03T15:21:46.706Z</time></trkpt><trkpt lat="45.0466236" lon="8.8105508"><ele>74.0</ele><time>2026-05-03T15:21:47.694Z</time></trkpt><trkpt lat="45.0468617" lon="8.8104941"><ele>73.66666666666667</ele><time>2026-05-03T15:21:48.7Z</time></trkpt><trkpt lat="45.0470799" lon="8.8104337"><ele>73.33333333333333</ele><time>2026-05-03T15:21:49.697Z</time></trkpt><trkpt lat="45.0472945" lon="8.8103941"><ele>73.0</ele><time>2026-05-03T15:21:50.698Z</time></trkpt><trkpt lat="45.0475425" lon="8.8103382"><ele>74.0</ele><time>2026-05-03T15:21:51.704Z</time></trkpt><trkpt lat="45.0477725" lon="8.8102851"><ele>75.0</ele><time>2026-05-03T15:21:52.716Z</time></trkpt><trkpt lat="45.0479973" lon="8.8102442"><ele>75.0</ele><time>2026-05-03T15:21:53.713Z</time></trkpt><trkpt lat="45.0482254" lon="8.8102082"><ele>75.0</ele><time>2026-05-03T15:21:54.717Z</time></trkpt><trkpt lat="45.0484439" lon="8.8101762"><ele>75.0</ele><time>2026-05-03T15:21:55.716Z</time></trkpt><trkpt lat="45.0486504" lon="8.8101338"><ele>76.0</ele><time>2026-05-03T15:21:56.715Z</time></trkpt><trkpt lat="45.0488725" lon="8.8100884"><ele>77.0</ele><time>2026-05-03T15:21:57.709Z</time></trkpt><trkpt lat="45.0491057" lon="8.8100273"><ele>77.33333333333334</ele><time>2026-05-03T15:21:58.704Z</time></trkpt><trkpt lat="45.0493234" lon="8.8099728"><ele>77.66666666666667</ele><time>2026-05-03T15:21:59.718Z</time></trkpt><trkpt lat="45.0495341" lon="8.8099224"><ele>78.0</ele><time>2026-05-03T15:22:00.706Z</time></trkpt><trkpt lat="45.0497453" lon="8.8098654"><ele>78.0</ele><time>2026-05-03T15:22:01.704Z</time></trkpt><trkpt lat="45.0499647" lon="8.8098193"><ele>78.0</ele><time>2026-05-03T15:22:02.703Z</time></trkpt><trkpt lat="45.0501992" lon="8.8097958"><ele>78.0</ele><time>2026-05-03T15:22:03.735Z</time></trkpt><trkpt lat="45.0504104" lon="8.8097469"><ele>78.0</ele><time>2026-05-03T15:22:04.709Z</time></trkpt><trkpt lat="45.0506196" lon="8.8096896"><ele>78.0</ele><time>2026-05-03T15:22:05.7Z</time></trkpt><trkpt lat="45.0508121" lon="8.8096341"><ele>77.66666666666667</ele><time>2026-05-03T15:22:06.708Z</time></trkpt><trkpt lat="45.0510065" lon="8.8095696"><ele>77.33333333333334</ele><time>2026-05-03T15:22:07.703Z</time></trkpt><trkpt lat="45.0511927" lon="8.8095154"><ele>77.0</ele><time>2026-05-03T15:22:08.708Z</time></trkpt><trkpt lat="45.0513748" lon="8.8094678"><ele>77.0</ele><time>2026-05-03T15:22:09.699Z</time></trkpt><trkpt lat="45.0515555" lon="8.8094194"><ele>77.0</ele><time>2026-05-03T15:22:10.801Z</time></trkpt><trkpt lat="45.051734" lon="8.8093773"><ele>77.0</ele><time>2026-05-03T15:22:11.791Z</time></trkpt><trkpt lat="45.0519158" lon="8.8093297"><ele>77.33333333333334</ele><time>2026-05-03T15:22:12.797Z</time></trkpt><trkpt lat="45.0520896" lon="8.8092766"><ele>77.66666666666667</ele><time>2026-05-03T15:22:13.799Z</time></trkpt><trkpt lat="45.0522668" lon="8.80922"><ele>78.0</ele><time>2026-05-03T15:22:14.795Z</time></trkpt><trkpt lat="45.0524464" lon="8.8091667"><ele>77.66666666666667</ele><time>2026-05-03T15:22:15.792Z</time></trkpt><trkpt lat="45.0526242" lon="8.8091153"><ele>77.33333333333334</ele><time>2026-05-03T15:22:16.8Z</time></trkpt><trkpt lat="45.0527986" lon="8.8090652"><ele>77.0</ele><time>2026-05-03T15:22:17.794Z</time></trkpt><trkpt lat="45.0529769" lon="8.8090171"><ele>77.0</ele><time>2026-05-03T15:22:18.79Z</time></trkpt><trkpt lat="45.0531563" lon="8.8089693"><ele>77.0</ele><time>2026-05-03T15:22:19.79Z</time></trkpt><trkpt lat="45.0533377" lon="8.8089217"><ele>77.0</ele><time>2026-05-03T15:22:20.798Z</time></trkpt><trkpt lat="45.0535155" lon="8.8088752"><ele>77.33333333333334</ele><time>2026-05-03T15:22:21.792Z</time></trkpt><trkpt lat="45.0536933" lon="8.8088283"><ele>77.66666666666667</ele><time>2026-05-03T15:22:22.797Z</time></trkpt><trkpt lat="45.0538688" lon="8.8087706"><ele>78.0</ele><time>2026-05-03T15:22:23.794Z</time></trkpt><trkpt lat="45.0540422" lon="8.8087346"><ele>78.33333333333333</ele><time>2026-05-03T15:22:24.799Z</time></trkpt><trkpt lat="45.0542107" lon="8.8086955"><ele>78.66666666666666</ele><time>2026-05-03T15:22:25.78Z</time></trkpt><trkpt lat="45.0543698" lon="8.8086518"><ele>79.0</ele><time>2026-05-03T15:22:26.792Z</time></trkpt><trkpt lat="45.0545202" lon="8.8086157"><ele>79.0</ele><time>2026-05-03T15:22:27.774Z</time></trkpt><trkpt lat="45.054659" lon="8.808611"><ele>79.0</ele><time>2026-05-03T15:22:28.794Z</time></trkpt><trkpt lat="45.0547839" lon="8.8086534"><ele>79.0</ele><time>2026-05-03T15:22:29.787Z</time></trkpt><trkpt lat="45.0548893" lon="8.8087433"><ele>79.0</ele><time>2026-05-03T15:22:30.747Z</time></trkpt><trkpt lat="45.0549868" lon="8.8088547"><ele>78.8</ele><time>2026-05-03T15:22:31.766Z</time></trkpt><trkpt lat="45.055075" lon="8.8089678"><ele>78.60000000000001</ele><time>2026-05-03T15:22:32.778Z</time></trkpt><trkpt lat="45.0551598" lon="8.8090735"><ele>78.4</ele><time>2026-05-03T15:22:33.779Z</time></trkpt><trkpt lat="45.0552487" lon="8.8091514"><ele>78.2</ele><time>2026-05-03T15:22:34.79Z</time></trkpt><trkpt lat="45.0553415" lon="8.8091802"><ele>78.0</ele><time>2026-05-03T15:22:35.783Z</time></trkpt><trkpt lat="45.0554346" lon="8.8091606"><ele>78.0</ele><time>2026-05-03T15:22:36.767Z</time></trkpt><trkpt lat="45.0555053" lon="8.8090884"><ele>78.0</ele><time>2026-05-03T15:22:37.767Z</time></trkpt><trkpt lat="45.0556643" lon="8.8090049"><ele>78.0</ele><time>2026-05-03T15:22:39.667Z</time></trkpt><trkpt lat="45.0557025" lon="8.8088649"><ele>78.0</ele><time>2026-05-03T15:22:40.685Z</time></trkpt><trkpt lat="45.0557584" lon="8.808685"><ele>77.75</ele><time>2026-05-03T15:22:41.677Z</time></trkpt><trkpt lat="45.0558374" lon="8.8085376"><ele>77.5</ele><time>2026-05-03T15:22:42.668Z</time></trkpt><trkpt lat="45.0559453" lon="8.8084249"><ele>77.25</ele><time>2026-05-03T15:22:43.679Z</time></trkpt><trkpt lat="45.0560729" lon="8.8083637"><ele>77.0</ele><time>2026-05-03T15:22:44.674Z</time></trkpt><trkpt lat="45.0562218" lon="8.8083253"><ele>77.66666666666667</ele><time>2026-05-03T15:22:45.674Z</time></trkpt><trkpt lat="45.056376" lon="8.808304"><ele>78.33333333333333</ele><time>2026-05-03T15:22:46.684Z</time></trkpt><trkpt lat="45.0565947" lon="8.8082848"><ele>79.0</ele><time>2026-05-03T15:22:47.681Z</time></trkpt><trkpt lat="45.0568373" lon="8.8082887"><ele>79.5</ele><time>2026-05-03T15:22:48.686Z</time></trkpt><trkpt lat="45.0570893" lon="8.8082815"><ele>80.0</ele><time>2026-05-03T15:22:49.682Z</time></trkpt><trkpt lat="45.057311" lon="8.8081931"><ele>80.33333333333334</ele><time>2026-05-03T15:22:50.691Z</time></trkpt><trkpt lat="45.0575222" lon="8.8080966"><ele>80.66666666666667</ele><time>2026-05-03T15:22:51.694Z</time></trkpt><trkpt lat="45.0577287" lon="8.8080307"><ele>81.0</ele><time>2026-05-03T15:22:52.71Z</time></trkpt><trkpt lat="45.0579383" lon="8.8079364"><ele>81.0</ele><time>2026-05-03T15:22:53.694Z</time></trkpt><trkpt lat="45.058155" lon="8.807847"><ele>81.0</ele><time>2026-05-03T15:22:54.703Z</time></trkpt><trkpt lat="45.0583612" lon="8.8077669"><ele>81.0</ele><time>2026-05-03T15:22:55.695Z</time></trkpt><trkpt lat="45.0585686" lon="8.8076768"><ele>81.33333333333333</ele><time>2026-05-03T15:22:56.699Z</time></trkpt><trkpt lat="45.0587787" lon="8.8075889"><ele>81.66666666666666</ele><time>2026-05-03T15:22:57.691Z</time></trkpt><trkpt lat="45.0589873" lon="8.8074974"><ele>82.0</ele><time>2026-05-03T15:22:58.695Z</time></trkpt><trkpt lat="45.0592004" lon="8.8073846"><ele>82.33333333333333</ele><time>2026-05-03T15:22:59.699Z</time></trkpt><trkpt lat="45.0594243" lon="8.8072996"><ele>82.66666666666667</ele><time>2026-05-03T15:23:00.697Z</time></trkpt><trkpt lat="45.0596367" lon="8.8072393"><ele>83.0</ele><time>2026-05-03T15:23:01.698Z</time></trkpt><trkpt lat="45.0598381" lon="8.8071726"><ele>83.5</ele><time>2026-05-03T15:23:02.705Z</time></trkpt><trkpt lat="45.0600601" lon="8.8070974"><ele>84.0</ele><time>2026-05-03T15:23:03.708Z</time></trkpt><trkpt lat="45.0602751" lon="8.8070161"><ele>84.0</ele><time>2026-05-03T15:23:04.708Z</time></trkpt><trkpt lat="45.0604956" lon="8.8069508"><ele>84.0</ele><time>2026-05-03T15:23:05.711Z</time></trkpt><trkpt lat="45.0607233" lon="8.8068845"><ele>83.5</ele><time>2026-05-03T15:23:06.704Z</time></trkpt><trkpt lat="45.060953" lon="8.8068351"><ele>83.0</ele><time>2026-05-03T15:23:07.713Z</time></trkpt><trkpt lat="45.0611851" lon="8.8067786"><ele>83.0</ele><time>2026-05-03T15:23:08.704Z</time></trkpt><trkpt lat="45.0614276" lon="8.8067286"><ele>83.0</ele><time>2026-05-03T15:23:09.697Z</time></trkpt><trkpt lat="45.0616639" lon="8.806663"><ele>82.0</ele><time>2026-05-03T15:23:10.7Z</time></trkpt><trkpt lat="45.0619094" lon="8.8066055"><ele>81.0</ele><time>2026-05-03T15:23:11.707Z</time></trkpt><trkpt lat="45.0621536" lon="8.8065638"><ele>81.0</ele><time>2026-05-03T15:23:12.7Z</time></trkpt><trkpt lat="45.0623922" lon="8.8064819"><ele>81.0</ele><time>2026-05-03T15:23:13.704Z</time></trkpt><trkpt lat="45.0626297" lon="8.8063988"><ele>81.5</ele><time>2026-05-03T15:23:14.701Z</time></trkpt><trkpt lat="45.0628522" lon="8.8062962"><ele>82.0</ele><time>2026-05-03T15:23:15.703Z</time></trkpt><trkpt lat="45.0630802" lon="8.8062163"><ele>82.0</ele><time>2026-05-03T15:23:16.713Z</time></trkpt><trkpt lat="45.0633009" lon="8.806148"><ele>82.0</ele><time>2026-05-03T15:23:17.711Z</time></trkpt><trkpt lat="45.0635252" lon="8.8060813"><ele>82.0</ele><time>2026-05-03T15:23:18.702Z</time></trkpt><trkpt lat="45.0637564" lon="8.8060129"><ele>82.0</ele><time>2026-05-03T15:23:19.702Z</time></trkpt><trkpt lat="45.0639804" lon="8.8059585"><ele>81.5</ele><time>2026-05-03T15:23:20.717Z</time></trkpt><trkpt lat="45.0642173" lon="8.8059184"><ele>81.0</ele><time>2026-05-03T15:23:21.715Z</time></trkpt><trkpt lat="45.064472" lon="8.8058832"><ele>81.0</ele><time>2026-05-03T15:23:22.699Z</time></trkpt><trkpt lat="45.0647296" lon="8.8058355"><ele>81.0</ele><time>2026-05-03T15:23:23.698Z</time></trkpt><trkpt lat="45.064974" lon="8.8057791"><ele>81.5</ele><time>2026-05-03T15:23:24.702Z</time></trkpt><trkpt lat="45.0652108" lon="8.8057243"><ele>82.0</ele><time>2026-05-03T15:23:25.708Z</time></trkpt><trkpt lat="45.0654621" lon="8.8056898"><ele>82.0</ele><time>2026-05-03T15:23:26.71Z</time></trkpt><trkpt lat="45.0656928" lon="8.8056365"><ele>82.0</ele><time>2026-05-03T15:23:27.703Z</time></trkpt><trkpt lat="45.0659407" lon="8.8055907"><ele>82.0</ele><time>2026-05-03T15:23:28.704Z</time></trkpt><trkpt lat="45.0661836" lon="8.8055538"><ele>82.0</ele><time>2026-05-03T15:23:29.718Z</time></trkpt><trkpt lat="45.0664423" lon="8.8055283"><ele>82.0</ele><time>2026-05-03T15:23:30.715Z</time></trkpt><trkpt lat="45.0666964" lon="8.8054865"><ele>82.0</ele><time>2026-05-03T15:23:31.707Z</time></trkpt><trkpt lat="45.0669523" lon="8.805454"><ele>82.0</ele><time>2026-05-03T15:23:32.708Z</time></trkpt><trkpt lat="45.067207" lon="8.805429"><ele>82.0</ele><time>2026-05-03T15:23:33.709Z</time></trkpt><trkpt lat="45.0674606" lon="8.8054017"><ele>82.5</ele><time>2026-05-03T15:23:34.714Z</time></trkpt><trkpt lat="45.0676938" lon="8.8053576"><ele>83.0</ele><time>2026-05-03T15:23:35.702Z</time></trkpt><trkpt lat="45.0679386" lon="8.8053136"><ele>83.0</ele><time>2026-05-03T15:23:36.711Z</time></trkpt><trkpt lat="45.0681774" lon="8.8052812"><ele>83.0</ele><time>2026-05-03T15:23:37.711Z</time></trkpt><trkpt lat="45.068421" lon="8.8052281"><ele>82.5</ele><time>2026-05-03T15:23:38.714Z</time></trkpt><trkpt lat="45.0686694" lon="8.8051947"><ele>82.0</ele><time>2026-05-03T15:23:39.705Z</time></trkpt><trkpt lat="45.068923" lon="8.8051656"><ele>82.5</ele><time>2026-05-03T15:23:40.715Z</time></trkpt><trkpt lat="45.0691701" lon="8.8051252"><ele>83.0</ele><time>2026-05-03T15:23:41.705Z</time></trkpt><trkpt lat="45.0694203" lon="8.805057"><ele>83.0</ele><time>2026-05-03T15:23:42.709Z</time></trkpt><trkpt lat="45.0696574" lon="8.8049845"><ele>83.0</ele><time>2026-05-03T15:23:43.715Z</time></trkpt><trkpt lat="45.0699062" lon="8.8048947"><ele>83.0</ele><time>2026-05-03T15:23:44.705Z</time></trkpt><trkpt lat="45.0701383" lon="8.8048278"><ele>83.0</ele><time>2026-05-03T15:23:45.693Z</time></trkpt><trkpt lat="45.0703802" lon="8.8047713"><ele>83.0</ele><time>2026-05-03T15:23:46.696Z</time></trkpt><trkpt lat="45.0706205" lon="8.8047209"><ele>83.0</ele><time>2026-05-03T15:23:47.695Z</time></trkpt><trkpt lat="45.0708559" lon="8.8046767"><ele>83.5</ele><time>2026-05-03T15:23:48.693Z</time></trkpt><trkpt lat="45.0710991" lon="8.8046071"><ele>84.0</ele><time>2026-05-03T15:23:49.701Z</time></trkpt><trkpt lat="45.0713447" lon="8.8045167"><ele>84.0</ele><time>2026-05-03T15:23:50.688Z</time></trkpt><trkpt lat="45.0715875" lon="8.8044212"><ele>84.0</ele><time>2026-05-03T15:23:51.703Z</time></trkpt><trkpt lat="45.0718215" lon="8.8043281"><ele>84.0</ele><time>2026-05-03T15:23:52.707Z</time></trkpt><trkpt lat="45.0720501" lon="8.8042225"><ele>84.0</ele><time>2026-05-03T15:23:53.704Z</time></trkpt><trkpt lat="45.0722759" lon="8.8041244"><ele>83.0</ele><time>2026-05-03T15:23:54.701Z</time></trkpt><trkpt lat="45.0724953" lon="8.8040277"><ele>82.0</ele><time>2026-05-03T15:23:55.703Z</time></trkpt><trkpt lat="45.0727334" lon="8.8039446"><ele>82.0</ele><time>2026-05-03T15:23:56.719Z</time></trkpt><trkpt lat="45.0729804" lon="8.8038861"><ele>82.0</ele><time>2026-05-03T15:23:57.705Z</time></trkpt><trkpt lat="45.0732188" lon="8.8038567"><ele>82.0</ele><time>2026-05-03T15:23:58.704Z</time></trkpt><trkpt lat="45.0734659" lon="8.8038745"><ele>82.0</ele><time>2026-05-03T15:23:59.704Z</time></trkpt><trkpt lat="45.0737377" lon="8.8039253"><ele>82.0</ele><time>2026-05-03T15:24:00.704Z</time></trkpt><trkpt lat="45.0739835" lon="8.8039534"><ele>82.0</ele><time>2026-05-03T15:24:01.704Z</time></trkpt><trkpt lat="45.0742733" lon="8.8039761"><ele>82.0</ele><time>2026-05-03T15:24:02.687Z</time></trkpt><trkpt lat="45.0745385" lon="8.8039759"><ele>82.0</ele><time>2026-05-03T15:24:03.7Z</time></trkpt><trkpt lat="45.0748021" lon="8.8039655"><ele>82.5</ele><time>2026-05-03T15:24:04.696Z</time></trkpt><trkpt lat="45.0750651" lon="8.8039523"><ele>83.0</ele><time>2026-05-03T15:24:05.698Z</time></trkpt><trkpt lat="45.0753026" lon="8.8039598"><ele>83.0</ele><time>2026-05-03T15:24:06.694Z</time></trkpt><trkpt lat="45.0755459" lon="8.8039618"><ele>83.0</ele><time>2026-05-03T15:24:07.7Z</time></trkpt><trkpt lat="45.0757936" lon="8.8039704"><ele>83.5</ele><time>2026-05-03T15:24:08.705Z</time></trkpt><trkpt lat="45.0760506" lon="8.8039739"><ele>84.0</ele><time>2026-05-03T15:24:09.697Z</time></trkpt><trkpt lat="45.0762881" lon="8.8039256"><ele>84.0</ele><time>2026-05-03T15:24:10.703Z</time></trkpt><trkpt lat="45.0765163" lon="8.8038719"><ele>84.0</ele><time>2026-05-03T15:24:11.713Z</time></trkpt><trkpt lat="45.076769" lon="8.8037683"><ele>83.5</ele><time>2026-05-03T15:24:12.707Z</time></trkpt><trkpt lat="45.0770171" lon="8.803651"><ele>83.0</ele><time>2026-05-03T15:24:13.706Z</time></trkpt><trkpt lat="45.0772672" lon="8.8035323"><ele>83.0</ele><time>2026-05-03T15:24:14.702Z</time></trkpt><trkpt lat="45.0775474" lon="8.8034427"><ele>83.0</ele><time>2026-05-03T15:24:15.723Z</time></trkpt><trkpt lat="45.0778286" lon="8.8033285"><ele>83.0</ele><time>2026-05-03T15:24:16.707Z</time></trkpt><trkpt lat="45.0780809" lon="8.8032466"><ele>83.0</ele><time>2026-05-03T15:24:17.709Z</time></trkpt><trkpt lat="45.0783408" lon="8.8031577"><ele>83.0</ele><time>2026-05-03T15:24:18.714Z</time></trkpt><trkpt lat="45.0786086" lon="8.8031203"><ele>83.0</ele><time>2026-05-03T15:24:19.712Z</time></trkpt><trkpt lat="45.0788563" lon="8.8030422"><ele>83.5</ele><time>2026-05-03T15:24:20.706Z</time></trkpt><trkpt lat="45.0791194" lon="8.8029906"><ele>84.0</ele><time>2026-05-03T15:24:21.705Z</time></trkpt><trkpt lat="45.0793795" lon="8.8029178"><ele>84.0</ele><time>2026-05-03T15:24:22.712Z</time></trkpt><trkpt lat="45.079638" lon="8.8028801"><ele>84.0</ele><time>2026-05-03T15:24:23.705Z</time></trkpt><trkpt lat="45.0799132" lon="8.8028271"><ele>84.0</ele><time>2026-05-03T15:24:24.701Z</time></trkpt><trkpt lat="45.0801823" lon="8.802785"><ele>84.0</ele><time>2026-05-03T15:24:25.714Z</time></trkpt><trkpt lat="45.0804684" lon="8.8026824"><ele>84.0</ele><time>2026-05-03T15:24:26.709Z</time></trkpt><trkpt lat="45.0807427" lon="8.8026127"><ele>84.0</ele><time>2026-05-03T15:24:27.701Z</time></trkpt><trkpt lat="45.0810525" lon="8.8025419"><ele>84.5</ele><time>2026-05-03T15:24:28.707Z</time></trkpt><trkpt lat="45.0813658" lon="8.8024382"><ele>85.0</ele><time>2026-05-03T15:24:29.711Z</time></trkpt><trkpt lat="45.0816777" lon="8.8023615"><ele>85.5</ele><time>2026-05-03T15:24:30.697Z</time></trkpt><trkpt lat="45.0819577" lon="8.8023329"><ele>86.0</ele><time>2026-05-03T15:24:31.712Z</time></trkpt><trkpt lat="45.0822708" lon="8.8023223"><ele>87.0</ele><time>2026-05-03T15:24:32.704Z</time></trkpt><trkpt lat="45.0825743" lon="8.802273"><ele>88.0</ele><time>2026-05-03T15:24:33.709Z</time></trkpt><trkpt lat="45.0828934" lon="8.8022068"><ele>88.0</ele><time>2026-05-03T15:24:34.711Z</time></trkpt><trkpt lat="45.083203" lon="8.8021695"><ele>88.0</ele><time>2026-05-03T15:24:35.703Z</time></trkpt><trkpt lat="45.0835293" lon="8.8021041"><ele>88.5</ele><time>2026-05-03T15:24:36.723Z</time></trkpt><trkpt lat="45.0838604" lon="8.8020278"><ele>89.0</ele><time>2026-05-03T15:24:37.719Z</time></trkpt><trkpt lat="45.0841732" lon="8.8019382"><ele>88.0</ele><time>2026-05-03T15:24:38.724Z</time></trkpt><trkpt lat="45.0844665" lon="8.8018534"><ele>87.0</ele><time>2026-05-03T15:24:39.717Z</time></trkpt><trkpt lat="45.0847691" lon="8.8017831"><ele>86.5</ele><time>2026-05-03T15:24:40.717Z</time></trkpt><trkpt lat="45.0850746" lon="8.8017051"><ele>86.0</ele><time>2026-05-03T15:24:41.718Z</time></trkpt><trkpt lat="45.085364" lon="8.8016163"><ele>86.0</ele><time>2026-05-03T15:24:42.718Z</time></trkpt><trkpt lat="45.0856808" lon="8.8016308"><ele>86.0</ele><time>2026-05-03T15:24:43.716Z</time></trkpt><trkpt lat="45.0860009" lon="8.8015919"><ele>86.5</ele><time>2026-05-03T15:24:44.738Z</time></trkpt><trkpt lat="45.0863214" lon="8.8016119"><ele>87.0</ele><time>2026-05-03T15:24:45.715Z</time></trkpt><trkpt lat="45.0866483" lon="8.8016329"><ele>87.0</ele><time>2026-05-03T15:24:46.729Z</time></trkpt><trkpt lat="45.0869686" lon="8.8015956"><ele>87.0</ele><time>2026-05-03T15:24:47.72Z</time></trkpt><trkpt lat="45.0872836" lon="8.8015785"><ele>88.0</ele><time>2026-05-03T15:24:48.725Z</time></trkpt><trkpt lat="45.0876124" lon="8.8015521"><ele>89.0</ele><time>2026-05-03T15:24:49.733Z</time></trkpt><trkpt lat="45.0879353" lon="8.8015439"><ele>89.0</ele><time>2026-05-03T15:24:50.725Z</time></trkpt><trkpt lat="45.0882491" lon="8.8015489"><ele>89.0</ele><time>2026-05-03T15:24:51.713Z</time></trkpt><trkpt lat="45.0885593" lon="8.8015434"><ele>88.5</ele><time>2026-05-03T15:24:52.727Z</time></trkpt><trkpt lat="45.088887" lon="8.801539"><ele>88.0</ele><time>2026-05-03T15:24:53.725Z</time></trkpt><trkpt lat="45.0892098" lon="8.8015163"><ele>88.0</ele><time>2026-05-03T15:24:54.731Z</time></trkpt><trkpt lat="45.0895267" lon="8.8015034"><ele>88.0</ele><time>2026-05-03T15:24:55.722Z</time></trkpt><trkpt lat="45.0898429" lon="8.8015038"><ele>88.0</ele><time>2026-05-03T15:24:56.717Z</time></trkpt><trkpt lat="45.0901522" lon="8.8014957"><ele>88.0</ele><time>2026-05-03T15:24:57.722Z</time></trkpt><trkpt lat="45.0904598" lon="8.8014752"><ele>87.5</ele><time>2026-05-03T15:24:58.723Z</time></trkpt><trkpt lat="45.0907671" lon="8.8014828"><ele>87.0</ele><time>2026-05-03T15:24:59.724Z</time></trkpt><trkpt lat="45.091076" lon="8.801482"><ele>87.0</ele><time>2026-05-03T15:25:00.723Z</time></trkpt><trkpt lat="45.0913996" lon="8.8014996"><ele>87.0</ele><time>2026-05-03T15:25:01.719Z</time></trkpt><trkpt lat="45.0917053" lon="8.8014838"><ele>86.5</ele><time>2026-05-03T15:25:02.719Z</time></trkpt><trkpt lat="45.0920187" lon="8.8014603"><ele>86.0</ele><time>2026-05-03T15:25:03.725Z</time></trkpt><trkpt lat="45.0923391" lon="8.801454"><ele>85.5</ele><time>2026-05-03T15:25:04.715Z</time></trkpt><trkpt lat="45.0926299" lon="8.8014405"><ele>85.0</ele><time>2026-05-03T15:25:05.709Z</time></trkpt><trkpt lat="45.0929297" lon="8.8013852"><ele>85.0</ele><time>2026-05-03T15:25:06.716Z</time></trkpt><trkpt lat="45.0932329" lon="8.8013517"><ele>85.0</ele><time>2026-05-03T15:25:07.727Z</time></trkpt><trkpt lat="45.0935329" lon="8.801281"><ele>85.5</ele><time>2026-05-03T15:25:08.723Z</time></trkpt><trkpt lat="45.0938481" lon="8.8011951"><ele>86.0</ele><time>2026-05-03T15:25:09.714Z</time></trkpt><trkpt lat="45.0941649" lon="8.8011174"><ele>86.0</ele><time>2026-05-03T15:25:10.73Z</time></trkpt><trkpt lat="45.0944703" lon="8.8010341"><ele>86.0</ele><time>2026-05-03T15:25:11.724Z</time></trkpt><trkpt lat="45.0947622" lon="8.800964"><ele>85.5</ele><time>2026-05-03T15:25:12.819Z</time></trkpt><trkpt lat="45.0950605" lon="8.8008982"><ele>85.0</ele><time>2026-05-03T15:25:13.819Z</time></trkpt><trkpt lat="45.0953506" lon="8.8008292"><ele>85.0</ele><time>2026-05-03T15:25:14.826Z</time></trkpt><trkpt lat="45.0956388" lon="8.8007599"><ele>85.0</ele><time>2026-05-03T15:25:15.818Z</time></trkpt><trkpt lat="45.0959255" lon="8.8006852"><ele>85.5</ele><time>2026-05-03T15:25:16.811Z</time></trkpt><trkpt lat="45.0962173" lon="8.8006128"><ele>86.0</ele><time>2026-05-03T15:25:17.818Z</time></trkpt><trkpt lat="45.0965136" lon="8.8005538"><ele>86.0</ele><time>2026-05-03T15:25:18.809Z</time></trkpt><trkpt lat="45.0968162" lon="8.8005224"><ele>86.0</ele><time>2026-05-03T15:25:19.801Z</time></trkpt><trkpt lat="45.0971204" lon="8.8005111"><ele>86.5</ele><time>2026-05-03T15:25:20.815Z</time></trkpt><trkpt lat="45.0974264" lon="8.8004985"><ele>87.0</ele><time>2026-05-03T15:25:21.814Z</time></trkpt><trkpt lat="45.0977354" lon="8.80048"><ele>87.0</ele><time>2026-05-03T15:25:22.826Z</time></trkpt><trkpt lat="45.0980573" lon="8.8004325"><ele>87.0</ele><time>2026-05-03T15:25:23.815Z</time></trkpt><trkpt lat="45.0983578" lon="8.8004137"><ele>86.5</ele><time>2026-05-03T15:25:24.815Z</time></trkpt><trkpt lat="45.0986537" lon="8.8003926"><ele>86.0</ele><time>2026-05-03T15:25:25.815Z</time></trkpt><trkpt lat="45.0989534" lon="8.8003652"><ele>87.0</ele><time>2026-05-03T15:25:26.822Z</time></trkpt><trkpt lat="45.0992497" lon="8.8003406"><ele>88.0</ele><time>2026-05-03T15:25:27.809Z</time></trkpt><trkpt lat="45.0995394" lon="8.8003241"><ele>88.0</ele><time>2026-05-03T15:25:28.809Z</time></trkpt><trkpt lat="45.0998329" lon="8.8003195"><ele>88.0</ele><time>2026-05-03T15:25:29.823Z</time></trkpt><trkpt lat="45.1001295" lon="8.8003309"><ele>87.0</ele><time>2026-05-03T15:25:30.813Z</time></trkpt><trkpt lat="45.1004296" lon="8.8003429"><ele>86.0</ele><time>2026-05-03T15:25:31.812Z</time></trkpt><trkpt lat="45.1007288" lon="8.800358"><ele>87.0</ele><time>2026-05-03T15:25:32.827Z</time></trkpt><trkpt lat="45.1010291" lon="8.8003665"><ele>88.0</ele><time>2026-05-03T15:25:33.824Z</time></trkpt><trkpt lat="45.1013288" lon="8.8003608"><ele>87.5</ele><time>2026-05-03T15:25:34.82Z</time></trkpt><trkpt lat="45.1016309" lon="8.8003398"><ele>87.0</ele><time>2026-05-03T15:25:35.811Z</time></trkpt><trkpt lat="45.1019543" lon="8.800312"><ele>87.0</ele><time>2026-05-03T15:25:36.82Z</time></trkpt><trkpt lat="45.1022725" lon="8.8002829"><ele>87.0</ele><time>2026-05-03T15:25:37.81Z</time></trkpt><trkpt lat="45.1025837" lon="8.8002596"><ele>87.0</ele><time>2026-05-03T15:25:38.821Z</time></trkpt><trkpt lat="45.1028917" lon="8.8002457"><ele>87.0</ele><time>2026-05-03T15:25:39.81Z</time></trkpt><trkpt lat="45.1032052" lon="8.8002365"><ele>86.5</ele><time>2026-05-03T15:25:40.812Z</time></trkpt><trkpt lat="45.1035227" lon="8.8002215"><ele>86.0</ele><time>2026-05-03T15:25:41.821Z</time></trkpt><trkpt lat="45.1038309" lon="8.8001965"><ele>86.0</ele><time>2026-05-03T15:25:42.805Z</time></trkpt><trkpt lat="45.1041254" lon="8.8001576"><ele>86.0</ele><time>2026-05-03T15:25:43.807Z</time></trkpt><trkpt lat="45.1044167" lon="8.8001048"><ele>86.0</ele><time>2026-05-03T15:25:44.804Z</time></trkpt><trkpt lat="45.1047127" lon="8.8000523"><ele>86.0</ele><time>2026-05-03T15:25:45.817Z</time></trkpt><trkpt lat="45.1050044" lon="8.7999813"><ele>86.0</ele><time>2026-05-03T15:25:46.811Z</time></trkpt><trkpt lat="45.1052946" lon="8.7999091"><ele>86.0</ele><time>2026-05-03T15:25:47.819Z</time></trkpt><trkpt lat="45.1055874" lon="8.7998407"><ele>86.5</ele><time>2026-05-03T15:25:48.817Z</time></trkpt><trkpt lat="45.1058869" lon="8.799778"><ele>87.0</ele><time>2026-05-03T15:25:49.806Z</time></trkpt><trkpt lat="45.1061837" lon="8.7997115"><ele>87.0</ele><time>2026-05-03T15:25:50.813Z</time></trkpt><trkpt lat="45.1064788" lon="8.7996511"><ele>87.0</ele><time>2026-05-03T15:25:51.81Z</time></trkpt><trkpt lat="45.1067737" lon="8.7996022"><ele>86.5</ele><time>2026-05-03T15:25:52.812Z</time></trkpt><trkpt lat="45.1070722" lon="8.7995678"><ele>86.0</ele><time>2026-05-03T15:25:53.807Z</time></trkpt><trkpt lat="45.1073656" lon="8.7995357"><ele>87.5</ele><time>2026-05-03T15:25:54.816Z</time></trkpt><trkpt lat="45.1076578" lon="8.7995023"><ele>89.0</ele><time>2026-05-03T15:25:55.801Z</time></trkpt><trkpt lat="45.1079453" lon="8.7994648"><ele>89.0</ele><time>2026-05-03T15:25:56.799Z</time></trkpt><trkpt lat="45.1082293" lon="8.7994193"><ele>89.0</ele><time>2026-05-03T15:25:57.796Z</time></trkpt><trkpt lat="45.1085061" lon="8.7993563"><ele>88.5</ele><time>2026-05-03T15:25:58.802Z</time></trkpt><trkpt lat="45.1087778" lon="8.7992676"><ele>88.0</ele><time>2026-05-03T15:25:59.8Z</time></trkpt><trkpt lat="45.1090457" lon="8.7991641"><ele>88.0</ele><time>2026-05-03T15:26:00.802Z</time></trkpt><trkpt lat="45.1093149" lon="8.7990626"><ele>88.0</ele><time>2026-05-03T15:26:01.796Z</time></trkpt><trkpt lat="45.109577" lon="8.7989538"><ele>88.0</ele><time>2026-05-03T15:26:02.795Z</time></trkpt><trkpt lat="45.1098484" lon="8.798852"><ele>88.0</ele><time>2026-05-03T15:26:03.797Z</time></trkpt><trkpt lat="45.110109" lon="8.7987578"><ele>88.5</ele><time>2026-05-03T15:26:04.807Z</time></trkpt><trkpt lat="45.1103709" lon="8.7986788"><ele>89.0</ele><time>2026-05-03T15:26:05.806Z</time></trkpt><trkpt lat="45.1106182" lon="8.7986059"><ele>88.5</ele><time>2026-05-03T15:26:06.806Z</time></trkpt><trkpt lat="45.1108657" lon="8.7985543"><ele>88.0</ele><time>2026-05-03T15:26:07.799Z</time></trkpt><trkpt lat="45.1111201" lon="8.7985338"><ele>88.0</ele><time>2026-05-03T15:26:08.801Z</time></trkpt><trkpt lat="45.1113694" lon="8.7985252"><ele>88.0</ele><time>2026-05-03T15:26:09.805Z</time></trkpt><trkpt lat="45.1116262" lon="8.7985162"><ele>87.0</ele><time>2026-05-03T15:26:10.808Z</time></trkpt><trkpt lat="45.1118844" lon="8.7984913"><ele>86.0</ele><time>2026-05-03T15:26:11.795Z</time></trkpt><trkpt lat="45.1121413" lon="8.7984345"><ele>86.0</ele><time>2026-05-03T15:26:12.791Z</time></trkpt><trkpt lat="45.1123973" lon="8.7983573"><ele>86.0</ele><time>2026-05-03T15:26:13.784Z</time></trkpt><trkpt lat="45.1126625" lon="8.7982739"><ele>87.5</ele><time>2026-05-03T15:26:14.793Z</time></trkpt><trkpt lat="45.1129293" lon="8.7981792"><ele>89.0</ele><time>2026-05-03T15:26:15.791Z</time></trkpt><trkpt lat="45.1132042" lon="8.7980849"><ele>89.0</ele><time>2026-05-03T15:26:16.787Z</time></trkpt><trkpt lat="45.1134722" lon="8.7979831"><ele>89.0</ele><time>2026-05-03T15:26:17.82Z</time></trkpt><trkpt lat="45.1137342" lon="8.7978905"><ele>89.0</ele><time>2026-05-03T15:26:18.813Z</time></trkpt><trkpt lat="45.1139872" lon="8.7978023"><ele>89.0</ele><time>2026-05-03T15:26:19.812Z</time></trkpt><trkpt lat="45.114227" lon="8.7977133"><ele>89.0</ele><time>2026-05-03T15:26:20.824Z</time></trkpt><trkpt lat="45.1144536" lon="8.7976292"><ele>89.0</ele><time>2026-05-03T15:26:21.81Z</time></trkpt><trkpt lat="45.1146738" lon="8.7975511"><ele>89.0</ele><time>2026-05-03T15:26:22.827Z</time></trkpt><trkpt lat="45.1148801" lon="8.7974765"><ele>89.0</ele><time>2026-05-03T15:26:23.813Z</time></trkpt><trkpt lat="45.1150822" lon="8.7974064"><ele>89.0</ele><time>2026-05-03T15:26:24.824Z</time></trkpt><trkpt lat="45.1152796" lon="8.7973384"><ele>89.0</ele><time>2026-05-03T15:26:25.817Z</time></trkpt><trkpt lat="45.1154775" lon="8.7972712"><ele>89.0</ele><time>2026-05-03T15:26:26.81Z</time></trkpt><trkpt lat="45.1156739" lon="8.7972038"><ele>89.0</ele><time>2026-05-03T15:26:27.81Z</time></trkpt><trkpt lat="45.1158627" lon="8.7971386"><ele>89.0</ele><time>2026-05-03T15:26:28.813Z</time></trkpt><trkpt lat="45.1160396" lon="8.7970734"><ele>89.0</ele><time>2026-05-03T15:26:29.822Z</time></trkpt><trkpt lat="45.1162011" lon="8.7970124"><ele>89.0</ele><time>2026-05-03T15:26:30.808Z</time></trkpt><trkpt lat="45.1163591" lon="8.7969525"><ele>89.0</ele><time>2026-05-03T15:26:31.816Z</time></trkpt><trkpt lat="45.116515" lon="8.7968939"><ele>89.0</ele><time>2026-05-03T15:26:32.82Z</time></trkpt><trkpt lat="45.116658" lon="8.7968379"><ele>89.0</ele><time>2026-05-03T15:26:33.803Z</time></trkpt><trkpt lat="45.1167942" lon="8.7967866"><ele>89.25</ele><time>2026-05-03T15:26:34.814Z</time></trkpt><trkpt lat="45.1169221" lon="8.7967414"><ele>89.5</ele><time>2026-05-03T15:26:35.805Z</time></trkpt><trkpt lat="45.1170402" lon="8.7966997"><ele>89.75</ele><time>2026-05-03T15:26:36.81Z</time></trkpt><trkpt lat="45.1171489" lon="8.7966537"><ele>90.0</ele><time>2026-05-03T15:26:37.816Z</time></trkpt><trkpt lat="45.1172586" lon="8.7965908"><ele>90.0</ele><time>2026-05-03T15:26:38.803Z</time></trkpt><trkpt lat="45.1173616" lon="8.7965146"><ele>90.0</ele><time>2026-05-03T15:26:39.788Z</time></trkpt><trkpt lat="45.117439" lon="8.7964059"><ele>90.0</ele><time>2026-05-03T15:26:40.791Z</time></trkpt><trkpt lat="45.1174967" lon="8.7962815"><ele>90.0</ele><time>2026-05-03T15:26:41.773Z</time></trkpt><trkpt lat="45.1175361" lon="8.7961368"><ele>90.0</ele><time>2026-05-03T15:26:42.775Z</time></trkpt><trkpt lat="45.117588" lon="8.7959973"><ele>90.5</ele><time>2026-05-03T15:26:43.686Z</time></trkpt><trkpt lat="45.1176064" lon="8.7958063"><ele>91.0</ele><time>2026-05-03T15:26:44.683Z</time></trkpt><trkpt lat="45.1176428" lon="8.7956252"><ele>91.5</ele><time>2026-05-03T15:26:45.704Z</time></trkpt><trkpt lat="45.1176948" lon="8.7954519"><ele>92.0</ele><time>2026-05-03T15:26:46.698Z</time></trkpt><trkpt lat="45.1177462" lon="8.7952878"><ele>92.0</ele><time>2026-05-03T15:26:47.707Z</time></trkpt><trkpt lat="45.1177947" lon="8.7951123"><ele>92.0</ele><time>2026-05-03T15:26:48.707Z</time></trkpt><trkpt lat="45.1178269" lon="8.7949445"><ele>92.0</ele><time>2026-05-03T15:26:49.697Z</time></trkpt><trkpt lat="45.1178505" lon="8.7947821"><ele>92.0</ele><time>2026-05-03T15:26:50.688Z</time></trkpt><trkpt lat="45.1178724" lon="8.794624"><ele>92.0</ele><time>2026-05-03T15:26:51.683Z</time></trkpt><trkpt lat="45.1178702" lon="8.7944498"><ele>92.0</ele><time>2026-05-03T15:26:52.679Z</time></trkpt><trkpt lat="45.1178537" lon="8.7942737"><ele>92.0</ele><time>2026-05-03T15:26:53.685Z</time></trkpt><trkpt lat="45.1178372" lon="8.7941017"><ele>92.0</ele><time>2026-05-03T15:26:54.683Z</time></trkpt><trkpt lat="45.1178386" lon="8.7939397"><ele>91.6</ele><time>2026-05-03T15:26:55.678Z</time></trkpt><trkpt lat="45.1178554" lon="8.793798"><ele>91.19999999999999</ele><time>2026-05-03T15:26:56.675Z</time></trkpt><trkpt lat="45.1179022" lon="8.7937108"><ele>90.8</ele><time>2026-05-03T15:26:57.67Z</time></trkpt><trkpt lat="45.1179892" lon="8.7936313"><ele>90.4</ele><time>2026-05-03T15:26:59.67Z</time></trkpt><trkpt lat="45.1181125" lon="8.7936817"><ele>90.0</ele><time>2026-05-03T15:27:01.666Z</time></trkpt><trkpt lat="45.1182323" lon="8.7937546"><ele>90.5</ele><time>2026-05-03T15:27:02.672Z</time></trkpt><trkpt lat="45.1183566" lon="8.7938476"><ele>91.0</ele><time>2026-05-03T15:27:03.683Z</time></trkpt><trkpt lat="45.1184655" lon="8.7939178"><ele>91.5</ele><time>2026-05-03T15:27:04.684Z</time></trkpt><trkpt lat="45.1185634" lon="8.7939623"><ele>92.0</ele><time>2026-05-03T15:27:05.68Z</time></trkpt><trkpt lat="45.1186766" lon="8.7940245"><ele>92.0</ele><time>2026-05-03T15:27:06.684Z</time></trkpt><trkpt lat="45.1187696" lon="8.79407"><ele>92.0</ele><time>2026-05-03T15:27:07.693Z</time></trkpt><trkpt lat="45.1188589" lon="8.794115"><ele>92.0</ele><time>2026-05-03T15:27:08.688Z</time></trkpt><trkpt lat="45.1189334" lon="8.79415"><ele>92.0</ele><time>2026-05-03T15:27:09.697Z</time></trkpt><trkpt lat="45.1190092" lon="8.794187"><ele>92.0</ele><time>2026-05-03T15:27:10.699Z</time></trkpt><trkpt lat="45.1190747" lon="8.7942014"><ele>92.0</ele><time>2026-05-03T15:27:11.673Z</time></trkpt><trkpt lat="45.1191434" lon="8.794057"><ele>91.75</ele><time>2026-05-03T15:27:13.664Z</time></trkpt><trkpt lat="45.1191753" lon="8.7939176"><ele>91.5</ele><time>2026-05-03T15:27:14.666Z</time></trkpt><trkpt lat="45.1191864" lon="8.7937387"><ele>91.25</ele><time>2026-05-03T15:27:15.656Z</time></trkpt><trkpt lat="45.119187" lon="8.7935514"><ele>91.0</ele><time>2026-05-03T15:27:16.653Z</time></trkpt><trkpt lat="45.1191718" lon="8.7933382"><ele>91.25</ele><time>2026-05-03T15:27:17.668Z</time></trkpt><trkpt lat="45.1191753" lon="8.7931334"><ele>91.5</ele><time>2026-05-03T15:27:18.665Z</time></trkpt><trkpt lat="45.1191876" lon="8.7929378"><ele>91.75</ele><time>2026-05-03T15:27:19.663Z</time></trkpt><trkpt lat="45.1191987" lon="8.7927429"><ele>92.0</ele><time>2026-05-03T15:27:20.667Z</time></trkpt><trkpt lat="45.1192209" lon="8.7925551"><ele>92.0</ele><time>2026-05-03T15:27:21.66Z</time></trkpt><trkpt lat="45.1192731" lon="8.7923837"><ele>92.0</ele><time>2026-05-03T15:27:22.668Z</time></trkpt><trkpt lat="45.1193468" lon="8.7922449"><ele>92.0</ele><time>2026-05-03T15:27:23.667Z</time></trkpt><trkpt lat="45.1194032" lon="8.7921216"><ele>92.0</ele><time>2026-05-03T15:27:24.664Z</time></trkpt><trkpt lat="45.119452" lon="8.7920344"><ele>92.0</ele><time>2026-05-03T15:27:25.666Z</time></trkpt><trkpt lat="45.1195058" lon="8.7919615"><ele>92.0</ele><time>2026-05-03T15:27:26.656Z</time></trkpt><trkpt lat="45.1195838" lon="8.7919224"><ele>92.0</ele><time>2026-05-03T15:27:28.671Z</time></trkpt><trkpt lat="45.1195935" lon="8.7917496"><ele>92.0</ele><time>2026-05-03T15:27:33.663Z</time></trkpt><trkpt lat="45.1195576" lon="8.7916162"><ele>92.0</ele><time>2026-05-03T15:27:34.665Z</time></trkpt><trkpt lat="45.1194884" lon="8.7914099"><ele>92.0</ele><time>2026-05-03T15:27:35.656Z</time></trkpt><trkpt lat="45.1194124" lon="8.7911848"><ele>92.0</ele><time>2026-05-03T15:27:36.666Z</time></trkpt><trkpt lat="45.1193136" lon="8.7909269"><ele>92.0</ele><time>2026-05-03T15:27:37.663Z</time></trkpt><trkpt lat="45.1191716" lon="8.790609"><ele>91.0</ele><time>2026-05-03T15:27:38.677Z</time></trkpt><trkpt lat="45.1190335" lon="8.7903185"><ele>90.0</ele><time>2026-05-03T15:27:39.693Z</time></trkpt><trkpt lat="45.1189398" lon="8.7900712"><ele>89.0</ele><time>2026-05-03T15:27:40.688Z</time></trkpt><trkpt lat="45.1188453" lon="8.7898249"><ele>88.66666666666667</ele><time>2026-05-03T15:27:41.688Z</time></trkpt><trkpt lat="45.1187787" lon="8.789613"><ele>88.33333333333333</ele><time>2026-05-03T15:27:42.689Z</time></trkpt><trkpt lat="45.1186767" lon="8.7893915"><ele>88.0</ele><time>2026-05-03T15:27:43.691Z</time></trkpt><trkpt lat="45.1185898" lon="8.7891966"><ele>88.66666666666666</ele><time>2026-05-03T15:27:44.686Z</time></trkpt><trkpt lat="45.1185055" lon="8.7890102"><ele>89.33333333333333</ele><time>2026-05-03T15:27:45.69Z</time></trkpt><trkpt lat="45.1184314" lon="8.7887991"><ele>90.0</ele><time>2026-05-03T15:27:46.688Z</time></trkpt><trkpt lat="45.1183523" lon="8.7886356"><ele>90.0</ele><time>2026-05-03T15:27:47.69Z</time></trkpt><trkpt lat="45.1183044" lon="8.7884485"><ele>90.0</ele><time>2026-05-03T15:27:48.691Z</time></trkpt><trkpt lat="45.1182596" lon="8.7882746"><ele>90.0</ele><time>2026-05-03T15:27:49.685Z</time></trkpt><trkpt lat="45.1182471" lon="8.7880619"><ele>90.0</ele><time>2026-05-03T15:27:50.683Z</time></trkpt><trkpt lat="45.1182438" lon="8.7878685"><ele>89.75</ele><time>2026-05-03T15:27:51.682Z</time></trkpt><trkpt lat="45.1182293" lon="8.7877406"><ele>89.5</ele><time>2026-05-03T15:27:52.681Z</time></trkpt><trkpt lat="45.1181746" lon="8.7876226"><ele>89.25</ele><time>2026-05-03T15:27:53.675Z</time></trkpt><trkpt lat="45.1180655" lon="8.7875117"><ele>89.0</ele><time>2026-05-03T15:27:54.667Z</time></trkpt><trkpt lat="45.1179433" lon="8.7873902"><ele>89.0</ele><time>2026-05-03T15:27:55.656Z</time></trkpt><trkpt lat="45.1177891" lon="8.7872705"><ele>89.0</ele><time>2026-05-03T15:27:56.67Z</time></trkpt><trkpt lat="45.1176516" lon="8.7870524"><ele>89.0</ele><time>2026-05-03T15:27:57.677Z</time></trkpt><trkpt lat="45.117578" lon="8.786804"><ele>89.33333333333334</ele><time>2026-05-03T15:27:58.684Z</time></trkpt><trkpt lat="45.1175052" lon="8.786587"><ele>89.66666666666667</ele><time>2026-05-03T15:27:59.689Z</time></trkpt><trkpt lat="45.1174367" lon="8.7863701"><ele>90.0</ele><time>2026-05-03T15:28:00.68Z</time></trkpt><trkpt lat="45.1173597" lon="8.7861526"><ele>90.5</ele><time>2026-05-03T15:28:01.679Z</time></trkpt><trkpt lat="45.1172801" lon="8.7859064"><ele>91.0</ele><time>2026-05-03T15:28:02.671Z</time></trkpt><trkpt lat="45.1171363" lon="8.7855841"><ele>91.0</ele><time>2026-05-03T15:28:03.69Z</time></trkpt><trkpt lat="45.1170247" lon="8.7852718"><ele>91.0</ele><time>2026-05-03T15:28:04.683Z</time></trkpt><trkpt lat="45.1168961" lon="8.7849126"><ele>91.5</ele><time>2026-05-03T15:28:05.692Z</time></trkpt><trkpt lat="45.1167947" lon="8.7845906"><ele>92.0</ele><time>2026-05-03T15:28:06.697Z</time></trkpt><trkpt lat="45.1166645" lon="8.7842666"><ele>93.0</ele><time>2026-05-03T15:28:07.693Z</time></trkpt><trkpt lat="45.1165414" lon="8.7839678"><ele>94.0</ele><time>2026-05-03T15:28:08.695Z</time></trkpt><trkpt lat="45.1163653" lon="8.7836343"><ele>94.0</ele><time>2026-05-03T15:28:09.696Z</time></trkpt><trkpt lat="45.1162583" lon="8.7833279"><ele>94.0</ele><time>2026-05-03T15:28:10.692Z</time></trkpt><trkpt lat="45.116117" lon="8.7829863"><ele>94.0</ele><time>2026-05-03T15:28:11.696Z</time></trkpt><trkpt lat="45.1160123" lon="8.7827093"><ele>94.0</ele><time>2026-05-03T15:28:12.69Z</time></trkpt><trkpt lat="45.115864" lon="8.7823563"><ele>92.5</ele><time>2026-05-03T15:28:13.699Z</time></trkpt><trkpt lat="45.1157386" lon="8.7820152"><ele>91.0</ele><time>2026-05-03T15:28:14.7Z</time></trkpt><trkpt lat="45.1156118" lon="8.7816878"><ele>90.5</ele><time>2026-05-03T15:28:15.705Z</time></trkpt><trkpt lat="45.1154819" lon="8.7813862"><ele>90.0</ele><time>2026-05-03T15:28:16.704Z</time></trkpt><trkpt lat="45.1153681" lon="8.7810592"><ele>90.0</ele><time>2026-05-03T15:28:17.702Z</time></trkpt><trkpt lat="45.1152313" lon="8.7807097"><ele>90.0</ele><time>2026-05-03T15:28:18.704Z</time></trkpt><trkpt lat="45.1151067" lon="8.780379"><ele>90.0</ele><time>2026-05-03T15:28:19.695Z</time></trkpt><trkpt lat="45.114986" lon="8.7800443"><ele>90.0</ele><time>2026-05-03T15:28:20.698Z</time></trkpt><trkpt lat="45.1148425" lon="8.7796971"><ele>90.0</ele><time>2026-05-03T15:28:21.706Z</time></trkpt><trkpt lat="45.1147151" lon="8.7793526"><ele>90.0</ele><time>2026-05-03T15:28:22.697Z</time></trkpt><trkpt lat="45.1145806" lon="8.7790066"><ele>90.0</ele><time>2026-05-03T15:28:23.713Z</time></trkpt><trkpt lat="45.1144589" lon="8.7786982"><ele>90.0</ele><time>2026-05-03T15:28:24.701Z</time></trkpt><trkpt lat="45.114323" lon="8.7783754"><ele>90.0</ele><time>2026-05-03T15:28:25.719Z</time></trkpt><trkpt lat="45.1141868" lon="8.7780347"><ele>90.0</ele><time>2026-05-03T15:28:26.711Z</time></trkpt><trkpt lat="45.1140592" lon="8.7776845"><ele>89.0</ele><time>2026-05-03T15:28:27.712Z</time></trkpt><trkpt lat="45.1139268" lon="8.7773607"><ele>88.0</ele><time>2026-05-03T15:28:28.716Z</time></trkpt><trkpt lat="45.1137939" lon="8.7770404"><ele>88.5</ele><time>2026-05-03T15:28:29.725Z</time></trkpt><trkpt lat="45.1136657" lon="8.7767164"><ele>89.0</ele><time>2026-05-03T15:28:30.711Z</time></trkpt><trkpt lat="45.1135459" lon="8.7763821"><ele>89.0</ele><time>2026-05-03T15:28:31.727Z</time></trkpt><trkpt lat="45.1134101" lon="8.7760577"><ele>89.0</ele><time>2026-05-03T15:28:32.718Z</time></trkpt><trkpt lat="45.1132962" lon="8.7757363"><ele>88.5</ele><time>2026-05-03T15:28:33.719Z</time></trkpt><trkpt lat="45.1131564" lon="8.7754204"><ele>88.0</ele><time>2026-05-03T15:28:34.726Z</time></trkpt><trkpt lat="45.113031" lon="8.7751096"><ele>88.0</ele><time>2026-05-03T15:28:35.712Z</time></trkpt><trkpt lat="45.1129158" lon="8.7748165"><ele>88.0</ele><time>2026-05-03T15:28:36.743Z</time></trkpt><trkpt lat="45.1127839" lon="8.7745058"><ele>88.0</ele><time>2026-05-03T15:28:37.73Z</time></trkpt><trkpt lat="45.112683" lon="8.7741824"><ele>88.0</ele><time>2026-05-03T15:28:38.718Z</time></trkpt><trkpt lat="45.1125505" lon="8.7738115"><ele>88.5</ele><time>2026-05-03T15:28:39.73Z</time></trkpt><trkpt lat="45.1124266" lon="8.7734545"><ele>89.0</ele><time>2026-05-03T15:28:40.727Z</time></trkpt><trkpt lat="45.1123103" lon="8.7731006"><ele>89.0</ele><time>2026-05-03T15:28:41.73Z</time></trkpt><trkpt lat="45.1121699" lon="8.7727259"><ele>89.0</ele><time>2026-05-03T15:28:42.734Z</time></trkpt><trkpt lat="45.1120412" lon="8.7723777"><ele>89.0</ele><time>2026-05-03T15:28:43.812Z</time></trkpt><trkpt lat="45.1119111" lon="8.7720482"><ele>89.0</ele><time>2026-05-03T15:28:44.815Z</time></trkpt><trkpt lat="45.1117792" lon="8.7717317"><ele>89.0</ele><time>2026-05-03T15:28:45.816Z</time></trkpt><trkpt lat="45.1116454" lon="8.7714147"><ele>89.0</ele><time>2026-05-03T15:28:46.828Z</time></trkpt><trkpt lat="45.1115118" lon="8.771086"><ele>88.0</ele><time>2026-05-03T15:28:47.821Z</time></trkpt><trkpt lat="45.111385" lon="8.7707501"><ele>87.0</ele><time>2026-05-03T15:28:48.819Z</time></trkpt><trkpt lat="45.1112576" lon="8.7704065"><ele>87.5</ele><time>2026-05-03T15:28:49.819Z</time></trkpt><trkpt lat="45.1111293" lon="8.7700616"><ele>88.0</ele><time>2026-05-03T15:28:50.818Z</time></trkpt><trkpt lat="45.1109994" lon="8.769721"><ele>88.0</ele><time>2026-05-03T15:28:51.813Z</time></trkpt><trkpt lat="45.1108661" lon="8.7693787"><ele>88.0</ele><time>2026-05-03T15:28:52.814Z</time></trkpt><trkpt lat="45.110732" lon="8.7690329"><ele>87.5</ele><time>2026-05-03T15:28:53.823Z</time></trkpt><trkpt lat="45.1106024" lon="8.7686943"><ele>87.0</ele><time>2026-05-03T15:28:54.814Z</time></trkpt><trkpt lat="45.1104684" lon="8.7683582"><ele>87.0</ele><time>2026-05-03T15:28:55.837Z</time></trkpt><trkpt lat="45.110331" lon="8.7680143"><ele>87.0</ele><time>2026-05-03T15:28:56.826Z</time></trkpt><trkpt lat="45.110194" lon="8.7676772"><ele>87.5</ele><time>2026-05-03T15:28:57.822Z</time></trkpt><trkpt lat="45.1100563" lon="8.7673467"><ele>88.0</ele><time>2026-05-03T15:28:58.823Z</time></trkpt><trkpt lat="45.1099283" lon="8.7670244"><ele>87.5</ele><time>2026-05-03T15:28:59.826Z</time></trkpt><trkpt lat="45.1097976" lon="8.7667018"><ele>87.0</ele><time>2026-05-03T15:29:00.816Z</time></trkpt><trkpt lat="45.1096671" lon="8.7663769"><ele>87.0</ele><time>2026-05-03T15:29:01.815Z</time></trkpt><trkpt lat="45.1095361" lon="8.7660482"><ele>87.0</ele><time>2026-05-03T15:29:02.812Z</time></trkpt><trkpt lat="45.1094038" lon="8.7657161"><ele>87.5</ele><time>2026-05-03T15:29:03.818Z</time></trkpt><trkpt lat="45.1092715" lon="8.7653826"><ele>88.0</ele><time>2026-05-03T15:29:04.809Z</time></trkpt><trkpt lat="45.1091416" lon="8.7650466"><ele>89.5</ele><time>2026-05-03T15:29:05.815Z</time></trkpt><trkpt lat="45.1090147" lon="8.764714"><ele>91.0</ele><time>2026-05-03T15:29:06.805Z</time></trkpt><trkpt lat="45.1088924" lon="8.7643866"><ele>90.5</ele><time>2026-05-03T15:29:07.815Z</time></trkpt><trkpt lat="45.1087684" lon="8.7640605"><ele>90.0</ele><time>2026-05-03T15:29:08.813Z</time></trkpt><trkpt lat="45.1086443" lon="8.7637365"><ele>91.0</ele><time>2026-05-03T15:29:09.805Z</time></trkpt><trkpt lat="45.1085195" lon="8.7634172"><ele>92.0</ele><time>2026-05-03T15:29:10.811Z</time></trkpt><trkpt lat="45.1083936" lon="8.7630952"><ele>92.0</ele><time>2026-05-03T15:29:11.811Z</time></trkpt><trkpt lat="45.1082742" lon="8.7627779"><ele>92.0</ele><time>2026-05-03T15:29:12.818Z</time></trkpt><trkpt lat="45.1081571" lon="8.7624663"><ele>92.0</ele><time>2026-05-03T15:29:13.801Z</time></trkpt><trkpt lat="45.1080394" lon="8.762155"><ele>92.0</ele><time>2026-05-03T15:29:14.805Z</time></trkpt><trkpt lat="45.1079237" lon="8.7618523"><ele>92.0</ele><time>2026-05-03T15:29:15.809Z</time></trkpt><trkpt lat="45.1078132" lon="8.7615655"><ele>92.0</ele><time>2026-05-03T15:29:16.81Z</time></trkpt><trkpt lat="45.1077003" lon="8.7612799"><ele>92.0</ele><time>2026-05-03T15:29:17.815Z</time></trkpt><trkpt lat="45.1075879" lon="8.7609865"><ele>92.0</ele><time>2026-05-03T15:29:18.812Z</time></trkpt><trkpt lat="45.107475" lon="8.7606869"><ele>91.5</ele><time>2026-05-03T15:29:19.806Z</time></trkpt><trkpt lat="45.1073652" lon="8.7603834"><ele>91.0</ele><time>2026-05-03T15:29:20.805Z</time></trkpt><trkpt lat="45.107255" lon="8.7600816"><ele>92.0</ele><time>2026-05-03T15:29:21.811Z</time></trkpt><trkpt lat="45.1071425" lon="8.759782"><ele>93.0</ele><time>2026-05-03T15:29:22.808Z</time></trkpt><trkpt lat="45.1070344" lon="8.759494"><ele>93.5</ele><time>2026-05-03T15:29:23.814Z</time></trkpt><trkpt lat="45.1069299" lon="8.7592101"><ele>94.0</ele><time>2026-05-03T15:29:24.8Z</time></trkpt><trkpt lat="45.1068264" lon="8.7589209"><ele>94.0</ele><time>2026-05-03T15:29:25.806Z</time></trkpt><trkpt lat="45.1067208" lon="8.758631"><ele>94.0</ele><time>2026-05-03T15:29:26.8Z</time></trkpt><trkpt lat="45.1066063" lon="8.7583339"><ele>94.0</ele><time>2026-05-03T15:29:27.802Z</time></trkpt><trkpt lat="45.1064969" lon="8.7580503"><ele>94.0</ele><time>2026-05-03T15:29:28.806Z</time></trkpt><trkpt lat="45.106399" lon="8.7577974"><ele>94.0</ele><time>2026-05-03T15:29:29.795Z</time></trkpt><trkpt lat="45.106307" lon="8.7575569"><ele>94.0</ele><time>2026-05-03T15:29:30.807Z</time></trkpt><trkpt lat="45.1062123" lon="8.7573196"><ele>94.0</ele><time>2026-05-03T15:29:31.804Z</time></trkpt><trkpt lat="45.1061131" lon="8.7570824"><ele>94.0</ele><time>2026-05-03T15:29:32.801Z</time></trkpt><trkpt lat="45.1060067" lon="8.7568357"><ele>94.0</ele><time>2026-05-03T15:29:33.813Z</time></trkpt><trkpt lat="45.1059043" lon="8.7565811"><ele>94.0</ele><time>2026-05-03T15:29:34.81Z</time></trkpt><trkpt lat="45.1058033" lon="8.7563178"><ele>94.0</ele><time>2026-05-03T15:29:35.811Z</time></trkpt><trkpt lat="45.1057034" lon="8.7560618"><ele>93.33333333333333</ele><time>2026-05-03T15:29:36.806Z</time></trkpt><trkpt lat="45.1056057" lon="8.7558106"><ele>92.66666666666667</ele><time>2026-05-03T15:29:37.814Z</time></trkpt><trkpt lat="45.1055181" lon="8.7555769"><ele>92.0</ele><time>2026-05-03T15:29:38.812Z</time></trkpt><trkpt lat="45.1054353" lon="8.7553589"><ele>92.0</ele><time>2026-05-03T15:29:39.802Z</time></trkpt><trkpt lat="45.1053579" lon="8.7551521"><ele>92.0</ele><time>2026-05-03T15:29:40.797Z</time></trkpt><trkpt lat="45.1052795" lon="8.7549528"><ele>92.0</ele><time>2026-05-03T15:29:41.791Z</time></trkpt><trkpt lat="45.1052045" lon="8.7547607"><ele>92.0</ele><time>2026-05-03T15:29:42.802Z</time></trkpt><trkpt lat="45.1051297" lon="8.7545669"><ele>92.0</ele><time>2026-05-03T15:29:43.807Z</time></trkpt><trkpt lat="45.1050602" lon="8.7543736"><ele>92.0</ele><time>2026-05-03T15:29:44.798Z</time></trkpt><trkpt lat="45.1050142" lon="8.754178"><ele>91.5</ele><time>2026-05-03T15:29:45.792Z</time></trkpt><trkpt lat="45.1049871" lon="8.7539826"><ele>91.0</ele><time>2026-05-03T15:29:46.79Z</time></trkpt><trkpt lat="45.104974" lon="8.7537921"><ele>90.5</ele><time>2026-05-03T15:29:47.777Z</time></trkpt><trkpt lat="45.1049527" lon="8.7536036"><ele>90.0</ele><time>2026-05-03T15:29:48.767Z</time></trkpt><trkpt lat="45.1049122" lon="8.7534234"><ele>90.0</ele><time>2026-05-03T15:29:49.771Z</time></trkpt><trkpt lat="45.1048604" lon="8.7532479"><ele>90.0</ele><time>2026-05-03T15:29:50.785Z</time></trkpt><trkpt lat="45.1048387" lon="8.7529696"><ele>90.0</ele><time>2026-05-03T15:29:52.677Z</time></trkpt><trkpt lat="45.1048596" lon="8.7527857"><ele>90.66666666666667</ele><time>2026-05-03T15:29:53.681Z</time></trkpt><trkpt lat="45.1049202" lon="8.7526146"><ele>91.33333333333334</ele><time>2026-05-03T15:29:54.657Z</time></trkpt><trkpt lat="45.1049855" lon="8.7524077"><ele>92.0</ele><time>2026-05-03T15:29:55.657Z</time></trkpt><trkpt lat="45.1050498" lon="8.7521751"><ele>92.5</ele><time>2026-05-03T15:29:56.666Z</time></trkpt><trkpt lat="45.1050442" lon="8.7518437"><ele>93.0</ele><time>2026-05-03T15:29:57.663Z</time></trkpt><trkpt lat="45.1049982" lon="8.7514815"><ele>93.0</ele><time>2026-05-03T15:29:58.659Z</time></trkpt><trkpt lat="45.1050052" lon="8.7511121"><ele>93.0</ele><time>2026-05-03T15:29:59.677Z</time></trkpt><trkpt lat="45.1050265" lon="8.7507211"><ele>94.0</ele><time>2026-05-03T15:30:00.68Z</time></trkpt><trkpt lat="45.1050271" lon="8.7503218"><ele>95.0</ele><time>2026-05-03T15:30:01.7Z</time></trkpt><trkpt lat="45.105" lon="8.7499193"><ele>95.5</ele><time>2026-05-03T15:30:02.693Z</time></trkpt><trkpt lat="45.105007" lon="8.7494776"><ele>96.0</ele><time>2026-05-03T15:30:03.692Z</time></trkpt><trkpt lat="45.1050067" lon="8.7490437"><ele>95.0</ele><time>2026-05-03T15:30:04.688Z</time></trkpt><trkpt lat="45.1049965" lon="8.748603"><ele>94.0</ele><time>2026-05-03T15:30:05.677Z</time></trkpt><trkpt lat="45.1049811" lon="8.7481566"><ele>93.5</ele><time>2026-05-03T15:30:06.686Z</time></trkpt><trkpt lat="45.1049753" lon="8.7477082"><ele>93.0</ele><time>2026-05-03T15:30:07.687Z</time></trkpt><trkpt lat="45.1049852" lon="8.7472703"><ele>92.5</ele><time>2026-05-03T15:30:08.681Z</time></trkpt><trkpt lat="45.1049877" lon="8.7468363"><ele>92.0</ele><time>2026-05-03T15:30:09.695Z</time></trkpt><trkpt lat="45.1049769" lon="8.7464156"><ele>92.0</ele><time>2026-05-03T15:30:10.694Z</time></trkpt><trkpt lat="45.1049727" lon="8.7460112"><ele>92.0</ele><time>2026-05-03T15:30:11.701Z</time></trkpt><trkpt lat="45.104964" lon="8.7456227"><ele>92.0</ele><time>2026-05-03T15:30:12.705Z</time></trkpt><trkpt lat="45.1049585" lon="8.7451863"><ele>92.0</ele><time>2026-05-03T15:30:13.707Z</time></trkpt><trkpt lat="45.1049709" lon="8.7447861"><ele>92.5</ele><time>2026-05-03T15:30:14.707Z</time></trkpt><trkpt lat="45.1049799" lon="8.7443706"><ele>93.0</ele><time>2026-05-03T15:30:15.698Z</time></trkpt><trkpt lat="45.1049817" lon="8.7439581"><ele>93.5</ele><time>2026-05-03T15:30:16.704Z</time></trkpt><trkpt lat="45.1049875" lon="8.743538"><ele>94.0</ele><time>2026-05-03T15:30:17.701Z</time></trkpt><trkpt lat="45.1049925" lon="8.743102"><ele>93.5</ele><time>2026-05-03T15:30:18.706Z</time></trkpt><trkpt lat="45.1049821" lon="8.7426633"><ele>93.0</ele><time>2026-05-03T15:30:19.705Z</time></trkpt><trkpt lat="45.1049726" lon="8.7422191"><ele>93.0</ele><time>2026-05-03T15:30:20.707Z</time></trkpt><trkpt lat="45.1049625" lon="8.741795"><ele>93.0</ele><time>2026-05-03T15:30:21.706Z</time></trkpt><trkpt lat="45.104956" lon="8.741398"><ele>93.5</ele><time>2026-05-03T15:30:22.707Z</time></trkpt><trkpt lat="45.1049519" lon="8.7409764"><ele>94.0</ele><time>2026-05-03T15:30:23.707Z</time></trkpt><trkpt lat="45.1049569" lon="8.7405701"><ele>93.5</ele><time>2026-05-03T15:30:24.699Z</time></trkpt><trkpt lat="45.1049547" lon="8.7401549"><ele>93.0</ele><time>2026-05-03T15:30:25.708Z</time></trkpt><trkpt lat="45.1049543" lon="8.7397394"><ele>92.5</ele><time>2026-05-03T15:30:26.705Z</time></trkpt><trkpt lat="45.1049611" lon="8.7393322"><ele>92.0</ele><time>2026-05-03T15:30:27.692Z</time></trkpt><trkpt lat="45.1049577" lon="8.7389237"><ele>92.0</ele><time>2026-05-03T15:30:28.697Z</time></trkpt><trkpt lat="45.1049727" lon="8.7385264"><ele>92.0</ele><time>2026-05-03T15:30:29.712Z</time></trkpt><trkpt lat="45.1049687" lon="8.7381237"><ele>92.0</ele><time>2026-05-03T15:30:30.699Z</time></trkpt><trkpt lat="45.1049507" lon="8.7377231"><ele>92.0</ele><time>2026-05-03T15:30:31.703Z</time></trkpt><trkpt lat="45.1049499" lon="8.7373225"><ele>92.5</ele><time>2026-05-03T15:30:32.688Z</time></trkpt><trkpt lat="45.1049551" lon="8.7369101"><ele>93.0</ele><time>2026-05-03T15:30:33.701Z</time></trkpt><trkpt lat="45.1049679" lon="8.7365172"><ele>92.5</ele><time>2026-05-03T15:30:34.693Z</time></trkpt><trkpt lat="45.1049713" lon="8.736102"><ele>92.0</ele><time>2026-05-03T15:30:35.697Z</time></trkpt><trkpt lat="45.1049487" lon="8.7356809"><ele>92.0</ele><time>2026-05-03T15:30:36.689Z</time></trkpt><trkpt lat="45.1049545" lon="8.7352703"><ele>92.0</ele><time>2026-05-03T15:30:37.696Z</time></trkpt><trkpt lat="45.1049518" lon="8.7348608"><ele>92.5</ele><time>2026-05-03T15:30:38.696Z</time></trkpt><trkpt lat="45.1049599" lon="8.7344656"><ele>93.0</ele><time>2026-05-03T15:30:39.698Z</time></trkpt><trkpt lat="45.1049547" lon="8.7340581"><ele>93.0</ele><time>2026-05-03T15:30:40.706Z</time></trkpt><trkpt lat="45.104958" lon="8.7336598"><ele>93.0</ele><time>2026-05-03T15:30:41.695Z</time></trkpt><trkpt lat="45.1049615" lon="8.7332639"><ele>93.0</ele><time>2026-05-03T15:30:42.705Z</time></trkpt><trkpt lat="45.1049691" lon="8.7328617"><ele>93.0</ele><time>2026-05-03T15:30:43.694Z</time></trkpt><trkpt lat="45.1049584" lon="8.7324613"><ele>92.5</ele><time>2026-05-03T15:30:44.709Z</time></trkpt><trkpt lat="45.1049767" lon="8.7320491"><ele>92.0</ele><time>2026-05-03T15:30:45.698Z</time></trkpt><trkpt lat="45.1049639" lon="8.7316373"><ele>92.0</ele><time>2026-05-03T15:30:46.699Z</time></trkpt><trkpt lat="45.1049614" lon="8.7312522"><ele>92.0</ele><time>2026-05-03T15:30:47.699Z</time></trkpt><trkpt lat="45.1049566" lon="8.7308484"><ele>92.0</ele><time>2026-05-03T15:30:48.706Z</time></trkpt><trkpt lat="45.104952" lon="8.7304529"><ele>92.0</ele><time>2026-05-03T15:30:49.701Z</time></trkpt><trkpt lat="45.1049516" lon="8.7300597"><ele>92.0</ele><time>2026-05-03T15:30:50.696Z</time></trkpt><trkpt lat="45.1049524" lon="8.7296608"><ele>92.0</ele><time>2026-05-03T15:30:51.7Z</time></trkpt><trkpt lat="45.1049281" lon="8.7292593"><ele>92.5</ele><time>2026-05-03T15:30:52.695Z</time></trkpt><trkpt lat="45.1049084" lon="8.7288726"><ele>93.0</ele><time>2026-05-03T15:30:53.71Z</time></trkpt><trkpt lat="45.1048919" lon="8.7284799"><ele>94.0</ele><time>2026-05-03T15:30:54.699Z</time></trkpt><trkpt lat="45.1048523" lon="8.7280705"><ele>95.0</ele><time>2026-05-03T15:30:55.701Z</time></trkpt><trkpt lat="45.1048108" lon="8.727672"><ele>95.0</ele><time>2026-05-03T15:30:56.702Z</time></trkpt><trkpt lat="45.1047398" lon="8.7272523"><ele>95.0</ele><time>2026-05-03T15:30:57.705Z</time></trkpt><trkpt lat="45.1046678" lon="8.7268438"><ele>93.5</ele><time>2026-05-03T15:30:58.71Z</time></trkpt><trkpt lat="45.1045991" lon="8.7264302"><ele>92.0</ele><time>2026-05-03T15:30:59.713Z</time></trkpt><trkpt lat="45.1045257" lon="8.7259866"><ele>92.0</ele><time>2026-05-03T15:31:00.698Z</time></trkpt><trkpt lat="45.1044333" lon="8.7255627"><ele>92.0</ele><time>2026-05-03T15:31:01.713Z</time></trkpt><trkpt lat="45.1043454" lon="8.7251211"><ele>92.0</ele><time>2026-05-03T15:31:02.701Z</time></trkpt><trkpt lat="45.1042604" lon="8.7246998"><ele>92.0</ele><time>2026-05-03T15:31:03.706Z</time></trkpt><trkpt lat="45.1041761" lon="8.7242887"><ele>94.0</ele><time>2026-05-03T15:31:04.709Z</time></trkpt><trkpt lat="45.1040762" lon="8.7238474"><ele>96.0</ele><time>2026-05-03T15:31:05.707Z</time></trkpt><trkpt lat="45.1039913" lon="8.7234561"><ele>96.0</ele><time>2026-05-03T15:31:06.704Z</time></trkpt><trkpt lat="45.1038842" lon="8.7230264"><ele>96.0</ele><time>2026-05-03T15:31:07.712Z</time></trkpt><trkpt lat="45.1037965" lon="8.7226532"><ele>96.0</ele><time>2026-05-03T15:31:08.706Z</time></trkpt><trkpt lat="45.1036912" lon="8.7222725"><ele>96.0</ele><time>2026-05-03T15:31:09.71Z</time></trkpt><trkpt lat="45.1036015" lon="8.7218326"><ele>95.5</ele><time>2026-05-03T15:31:10.704Z</time></trkpt><trkpt lat="45.1035279" lon="8.7214485"><ele>95.0</ele><time>2026-05-03T15:31:11.71Z</time></trkpt><trkpt lat="45.1034355" lon="8.7210613"><ele>94.5</ele><time>2026-05-03T15:31:12.704Z</time></trkpt><trkpt lat="45.1033284" lon="8.7206725"><ele>94.0</ele><time>2026-05-03T15:31:13.695Z</time></trkpt><trkpt lat="45.1032641" lon="8.7202943"><ele>93.5</ele><time>2026-05-03T15:31:14.711Z</time></trkpt><trkpt lat="45.1031896" lon="8.7199053"><ele>93.0</ele><time>2026-05-03T15:31:15.724Z</time></trkpt><trkpt lat="45.1031401" lon="8.7195321"><ele>93.5</ele><time>2026-05-03T15:31:16.71Z</time></trkpt><trkpt lat="45.1031106" lon="8.7191768"><ele>94.0</ele><time>2026-05-03T15:31:17.7Z</time></trkpt><trkpt lat="45.1030837" lon="8.7188188"><ele>94.0</ele><time>2026-05-03T15:31:18.694Z</time></trkpt><trkpt lat="45.1030879" lon="8.7184273"><ele>94.0</ele><time>2026-05-03T15:31:19.69Z</time></trkpt><trkpt lat="45.1030766" lon="8.7180295"><ele>93.0</ele><time>2026-05-03T15:31:20.687Z</time></trkpt><trkpt lat="45.1031078" lon="8.7176256"><ele>92.0</ele><time>2026-05-03T15:31:21.688Z</time></trkpt><trkpt lat="45.1031569" lon="8.717226"><ele>92.5</ele><time>2026-05-03T15:31:22.683Z</time></trkpt><trkpt lat="45.1032378" lon="8.7168199"><ele>93.0</ele><time>2026-05-03T15:31:23.696Z</time></trkpt><trkpt lat="45.1033299" lon="8.7164047"><ele>94.0</ele><time>2026-05-03T15:31:24.692Z</time></trkpt><trkpt lat="45.1034241" lon="8.7159756"><ele>95.0</ele><time>2026-05-03T15:31:25.688Z</time></trkpt><trkpt lat="45.1035197" lon="8.7155443"><ele>94.5</ele><time>2026-05-03T15:31:26.694Z</time></trkpt><trkpt lat="45.1036226" lon="8.7151095"><ele>94.0</ele><time>2026-05-03T15:31:27.699Z</time></trkpt><trkpt lat="45.1037175" lon="8.7146999"><ele>94.0</ele><time>2026-05-03T15:31:28.699Z</time></trkpt><trkpt lat="45.1037957" lon="8.7142781"><ele>94.0</ele><time>2026-05-03T15:31:29.697Z</time></trkpt><trkpt lat="45.1038835" lon="8.7138566"><ele>93.5</ele><time>2026-05-03T15:31:30.695Z</time></trkpt><trkpt lat="45.1039728" lon="8.7134557"><ele>93.0</ele><time>2026-05-03T15:31:31.703Z</time></trkpt><trkpt lat="45.1040411" lon="8.7130314"><ele>94.0</ele><time>2026-05-03T15:31:32.696Z</time></trkpt><trkpt lat="45.1041402" lon="8.7126323"><ele>95.0</ele><time>2026-05-03T15:31:33.7Z</time></trkpt><trkpt lat="45.1042187" lon="8.712218"><ele>95.0</ele><time>2026-05-03T15:31:34.702Z</time></trkpt><trkpt lat="45.1043051" lon="8.7118189"><ele>95.0</ele><time>2026-05-03T15:31:35.709Z</time></trkpt><trkpt lat="45.1043964" lon="8.7114097"><ele>94.5</ele><time>2026-05-03T15:31:36.703Z</time></trkpt><trkpt lat="45.1045041" lon="8.7109812"><ele>94.0</ele><time>2026-05-03T15:31:37.703Z</time></trkpt><trkpt lat="45.1045796" lon="8.7105553"><ele>94.0</ele><time>2026-05-03T15:31:38.699Z</time></trkpt><trkpt lat="45.1046758" lon="8.7101258"><ele>94.0</ele><time>2026-05-03T15:31:39.7Z</time></trkpt><trkpt lat="45.1047531" lon="8.7096972"><ele>94.0</ele><time>2026-05-03T15:31:40.704Z</time></trkpt><trkpt lat="45.1048354" lon="8.7092738"><ele>94.0</ele><time>2026-05-03T15:31:41.698Z</time></trkpt><trkpt lat="45.1049353" lon="8.7088407"><ele>94.0</ele><time>2026-05-03T15:31:42.706Z</time></trkpt><trkpt lat="45.1050191" lon="8.7084097"><ele>94.0</ele><time>2026-05-03T15:31:43.7Z</time></trkpt><trkpt lat="45.1051136" lon="8.7080018"><ele>93.5</ele><time>2026-05-03T15:31:44.702Z</time></trkpt><trkpt lat="45.1052106" lon="8.7075741"><ele>93.0</ele><time>2026-05-03T15:31:45.712Z</time></trkpt><trkpt lat="45.1053018" lon="8.7071291"><ele>93.0</ele><time>2026-05-03T15:31:46.706Z</time></trkpt><trkpt lat="45.1053943" lon="8.7066818"><ele>93.0</ele><time>2026-05-03T15:31:47.704Z</time></trkpt><trkpt lat="45.1054755" lon="8.706246"><ele>93.0</ele><time>2026-05-03T15:31:48.707Z</time></trkpt><trkpt lat="45.105562" lon="8.7058231"><ele>93.0</ele><time>2026-05-03T15:31:49.708Z</time></trkpt><trkpt lat="45.1056518" lon="8.7054015"><ele>93.5</ele><time>2026-05-03T15:31:50.705Z</time></trkpt><trkpt lat="45.1057472" lon="8.7049694"><ele>94.0</ele><time>2026-05-03T15:31:51.701Z</time></trkpt><trkpt lat="45.1058095" lon="8.7045421"><ele>93.5</ele><time>2026-05-03T15:31:52.708Z</time></trkpt><trkpt lat="45.1059113" lon="8.7041393"><ele>93.0</ele><time>2026-05-03T15:31:53.708Z</time></trkpt><trkpt lat="45.105991" lon="8.7037427"><ele>93.5</ele><time>2026-05-03T15:31:54.708Z</time></trkpt><trkpt lat="45.1060833" lon="8.7033234"><ele>94.0</ele><time>2026-05-03T15:31:55.701Z</time></trkpt><trkpt lat="45.10615" lon="8.7028814"><ele>93.5</ele><time>2026-05-03T15:31:56.704Z</time></trkpt><trkpt lat="45.1062313" lon="8.7024624"><ele>93.0</ele><time>2026-05-03T15:31:57.709Z</time></trkpt><trkpt lat="45.1063213" lon="8.702046"><ele>94.0</ele><time>2026-05-03T15:31:58.707Z</time></trkpt><trkpt lat="45.1064306" lon="8.701645"><ele>95.0</ele><time>2026-05-03T15:31:59.707Z</time></trkpt><trkpt lat="45.1065303" lon="8.7012427"><ele>94.5</ele><time>2026-05-03T15:32:00.696Z</time></trkpt><trkpt lat="45.1066283" lon="8.7008162"><ele>94.0</ele><time>2026-05-03T15:32:01.705Z</time></trkpt><trkpt lat="45.1066984" lon="8.7003898"><ele>94.5</ele><time>2026-05-03T15:32:02.703Z</time></trkpt><trkpt lat="45.1067805" lon="8.6999927"><ele>95.0</ele><time>2026-05-03T15:32:03.71Z</time></trkpt><trkpt lat="45.1068728" lon="8.6995982"><ele>95.0</ele><time>2026-05-03T15:32:04.7Z</time></trkpt><trkpt lat="45.106971" lon="8.6991948"><ele>95.0</ele><time>2026-05-03T15:32:05.708Z</time></trkpt><trkpt lat="45.1070565" lon="8.6987752"><ele>94.5</ele><time>2026-05-03T15:32:06.707Z</time></trkpt><trkpt lat="45.1071392" lon="8.6983658"><ele>94.0</ele><time>2026-05-03T15:32:07.7Z</time></trkpt><trkpt lat="45.1072305" lon="8.6979433"><ele>94.0</ele><time>2026-05-03T15:32:08.701Z</time></trkpt><trkpt lat="45.1073214" lon="8.6975288"><ele>94.0</ele><time>2026-05-03T15:32:09.702Z</time></trkpt><trkpt lat="45.1074118" lon="8.6971246"><ele>95.0</ele><time>2026-05-03T15:32:10.704Z</time></trkpt><trkpt lat="45.1075033" lon="8.6967145"><ele>96.0</ele><time>2026-05-03T15:32:11.707Z</time></trkpt><trkpt lat="45.1075929" lon="8.6962957"><ele>96.0</ele><time>2026-05-03T15:32:12.703Z</time></trkpt><trkpt lat="45.1076634" lon="8.6958791"><ele>96.0</ele><time>2026-05-03T15:32:13.706Z</time></trkpt><trkpt lat="45.1077573" lon="8.6954937"><ele>95.0</ele><time>2026-05-03T15:32:14.705Z</time></trkpt><trkpt lat="45.1078333" lon="8.6950997"><ele>94.0</ele><time>2026-05-03T15:32:15.699Z</time></trkpt><trkpt lat="45.1079171" lon="8.694693"><ele>93.5</ele><time>2026-05-03T15:32:16.698Z</time></trkpt><trkpt lat="45.1080104" lon="8.6942926"><ele>93.0</ele><time>2026-05-03T15:32:17.709Z</time></trkpt><trkpt lat="45.1080973" lon="8.6939168"><ele>94.0</ele><time>2026-05-03T15:32:18.703Z</time></trkpt><trkpt lat="45.1081674" lon="8.6935113"><ele>95.0</ele><time>2026-05-03T15:32:19.704Z</time></trkpt><trkpt lat="45.1082399" lon="8.6931183"><ele>94.5</ele><time>2026-05-03T15:32:20.7Z</time></trkpt><trkpt lat="45.1083295" lon="8.692749"><ele>94.0</ele><time>2026-05-03T15:32:21.698Z</time></trkpt><trkpt lat="45.1084031" lon="8.6923667"><ele>94.0</ele><time>2026-05-03T15:32:22.704Z</time></trkpt><trkpt lat="45.1084722" lon="8.6919558"><ele>94.0</ele><time>2026-05-03T15:32:23.704Z</time></trkpt><trkpt lat="45.1085695" lon="8.6915697"><ele>94.0</ele><time>2026-05-03T15:32:24.699Z</time></trkpt><trkpt lat="45.1086494" lon="8.6911476"><ele>94.0</ele><time>2026-05-03T15:32:25.714Z</time></trkpt><trkpt lat="45.1087212" lon="8.6907571"><ele>95.0</ele><time>2026-05-03T15:32:26.703Z</time></trkpt><trkpt lat="45.1088063" lon="8.6903584"><ele>96.0</ele><time>2026-05-03T15:32:27.708Z</time></trkpt><trkpt lat="45.1088885" lon="8.6899789"><ele>96.5</ele><time>2026-05-03T15:32:28.712Z</time></trkpt><trkpt lat="45.1089644" lon="8.689611"><ele>97.0</ele><time>2026-05-03T15:32:29.706Z</time></trkpt><trkpt lat="45.109041" lon="8.6892056"><ele>96.0</ele><time>2026-05-03T15:32:30.706Z</time></trkpt><trkpt lat="45.1091288" lon="8.6888269"><ele>95.0</ele><time>2026-05-03T15:32:31.717Z</time></trkpt><trkpt lat="45.1092126" lon="8.6884266"><ele>95.0</ele><time>2026-05-03T15:32:32.701Z</time></trkpt><trkpt lat="45.1092895" lon="8.6880328"><ele>95.0</ele><time>2026-05-03T15:32:33.699Z</time></trkpt><trkpt lat="45.1093819" lon="8.6876289"><ele>95.5</ele><time>2026-05-03T15:32:34.707Z</time></trkpt><trkpt lat="45.1094557" lon="8.6872291"><ele>96.0</ele><time>2026-05-03T15:32:35.705Z</time></trkpt><trkpt lat="45.1095342" lon="8.6868303"><ele>96.0</ele><time>2026-05-03T15:32:36.715Z</time></trkpt><trkpt lat="45.1096337" lon="8.68643"><ele>96.0</ele><time>2026-05-03T15:32:37.707Z</time></trkpt><trkpt lat="45.109726" lon="8.686055"><ele>95.5</ele><time>2026-05-03T15:32:38.714Z</time></trkpt><trkpt lat="45.10979" lon="8.685676"><ele>95.0</ele><time>2026-05-03T15:32:39.709Z</time></trkpt><trkpt lat="45.1098679" lon="8.6852784"><ele>95.5</ele><time>2026-05-03T15:32:40.705Z</time></trkpt><trkpt lat="45.1099565" lon="8.684891"><ele>96.0</ele><time>2026-05-03T15:32:41.704Z</time></trkpt><trkpt lat="45.1100399" lon="8.6845126"><ele>95.5</ele><time>2026-05-03T15:32:42.715Z</time></trkpt><trkpt lat="45.1101132" lon="8.6841407"><ele>95.0</ele><time>2026-05-03T15:32:43.699Z</time></trkpt><trkpt lat="45.1101885" lon="8.683769"><ele>95.0</ele><time>2026-05-03T15:32:44.711Z</time></trkpt><trkpt lat="45.1102745" lon="8.6834021"><ele>95.0</ele><time>2026-05-03T15:32:45.7Z</time></trkpt><trkpt lat="45.1103682" lon="8.6830567"><ele>96.0</ele><time>2026-05-03T15:32:46.707Z</time></trkpt><trkpt lat="45.1104694" lon="8.6827094"><ele>97.0</ele><time>2026-05-03T15:32:47.708Z</time></trkpt><trkpt lat="45.1105591" lon="8.6823405"><ele>97.0</ele><time>2026-05-03T15:32:48.72Z</time></trkpt><trkpt lat="45.1106839" lon="8.6820092"><ele>97.0</ele><time>2026-05-03T15:32:49.704Z</time></trkpt><trkpt lat="45.1108086" lon="8.6816571"><ele>96.5</ele><time>2026-05-03T15:32:50.713Z</time></trkpt><trkpt lat="45.1109355" lon="8.681338"><ele>96.0</ele><time>2026-05-03T15:32:51.717Z</time></trkpt><trkpt lat="45.1110519" lon="8.6810781"><ele>96.66666666666666</ele><time>2026-05-03T15:32:52.712Z</time></trkpt><trkpt lat="45.111146" lon="8.6808113"><ele>97.33333333333333</ele><time>2026-05-03T15:32:53.714Z</time></trkpt><trkpt lat="45.1112175" lon="8.6805902"><ele>98.0</ele><time>2026-05-03T15:32:54.699Z</time></trkpt><trkpt lat="45.1112875" lon="8.6803505"><ele>98.0</ele><time>2026-05-03T15:32:55.709Z</time></trkpt><trkpt lat="45.1113657" lon="8.6801617"><ele>98.0</ele><time>2026-05-03T15:32:56.698Z</time></trkpt><trkpt lat="45.1114422" lon="8.6800025"><ele>98.0</ele><time>2026-05-03T15:32:57.696Z</time></trkpt><trkpt lat="45.1115022" lon="8.679819"><ele>98.0</ele><time>2026-05-03T15:32:58.698Z</time></trkpt><trkpt lat="45.1115983" lon="8.6796781"><ele>97.75</ele><time>2026-05-03T15:32:59.715Z</time></trkpt><trkpt lat="45.1117015" lon="8.6795919"><ele>97.5</ele><time>2026-05-03T15:33:00.711Z</time></trkpt><trkpt lat="45.1118292" lon="8.6795019"><ele>97.25</ele><time>2026-05-03T15:33:01.703Z</time></trkpt><trkpt lat="45.1119624" lon="8.6793964"><ele>97.0</ele><time>2026-05-03T15:33:02.704Z</time></trkpt><trkpt lat="45.1121241" lon="8.6792645"><ele>97.0</ele><time>2026-05-03T15:33:03.706Z</time></trkpt><trkpt lat="45.1123518" lon="8.6791439"><ele>97.0</ele><time>2026-05-03T15:33:04.699Z</time></trkpt><trkpt lat="45.1125507" lon="8.6790647"><ele>97.33333333333334</ele><time>2026-05-03T15:33:05.697Z</time></trkpt><trkpt lat="45.1127539" lon="8.6789929"><ele>97.66666666666666</ele><time>2026-05-03T15:33:06.7Z</time></trkpt><trkpt lat="45.1129519" lon="8.6789185"><ele>98.0</ele><time>2026-05-03T15:33:07.703Z</time></trkpt><trkpt lat="45.1131567" lon="8.67884"><ele>97.66666666666666</ele><time>2026-05-03T15:33:08.694Z</time></trkpt><trkpt lat="45.1133603" lon="8.6787597"><ele>97.33333333333334</ele><time>2026-05-03T15:33:09.699Z</time></trkpt><trkpt lat="45.1135631" lon="8.6786833"><ele>97.0</ele><time>2026-05-03T15:33:10.713Z</time></trkpt><trkpt lat="45.1137572" lon="8.6785858"><ele>97.0</ele><time>2026-05-03T15:33:11.701Z</time></trkpt><trkpt lat="45.113946" lon="8.6785058"><ele>97.0</ele><time>2026-05-03T15:33:12.712Z</time></trkpt><trkpt lat="45.1141228" lon="8.6783991"><ele>97.0</ele><time>2026-05-03T15:33:13.712Z</time></trkpt><trkpt lat="45.1143092" lon="8.6783199"><ele>97.0</ele><time>2026-05-03T15:33:14.707Z</time></trkpt><trkpt lat="45.1145073" lon="8.6782243"><ele>97.0</ele><time>2026-05-03T15:33:15.716Z</time></trkpt><trkpt lat="45.1146919" lon="8.6781427"><ele>97.0</ele><time>2026-05-03T15:33:16.718Z</time></trkpt><trkpt lat="45.1148869" lon="8.6780533"><ele>96.66666666666667</ele><time>2026-05-03T15:33:17.718Z</time></trkpt><trkpt lat="45.1150679" lon="8.6779639"><ele>96.33333333333334</ele><time>2026-05-03T15:33:18.718Z</time></trkpt><trkpt lat="45.1152455" lon="8.6778606"><ele>96.0</ele><time>2026-05-03T15:33:19.721Z</time></trkpt><trkpt lat="45.115407" lon="8.6777388"><ele>96.0</ele><time>2026-05-03T15:33:20.711Z</time></trkpt><trkpt lat="45.1155892" lon="8.6776187"><ele>96.0</ele><time>2026-05-03T15:33:21.712Z</time></trkpt><trkpt lat="45.1157442" lon="8.6774547"><ele>96.0</ele><time>2026-05-03T15:33:22.715Z</time></trkpt><trkpt lat="45.1158872" lon="8.6772559"><ele>96.66666666666666</ele><time>2026-05-03T15:33:23.707Z</time></trkpt><trkpt lat="45.1160308" lon="8.6770932"><ele>97.33333333333333</ele><time>2026-05-03T15:33:24.695Z</time></trkpt><trkpt lat="45.1161645" lon="8.6769174"><ele>98.0</ele><time>2026-05-03T15:33:25.704Z</time></trkpt><trkpt lat="45.1162759" lon="8.6767149"><ele>98.0</ele><time>2026-05-03T15:33:26.705Z</time></trkpt><trkpt lat="45.1163771" lon="8.67654"><ele>98.0</ele><time>2026-05-03T15:33:27.724Z</time></trkpt><trkpt lat="45.1164591" lon="8.6763722"><ele>98.0</ele><time>2026-05-03T15:33:28.713Z</time></trkpt><trkpt lat="45.116557" lon="8.6762152"><ele>97.0</ele><time>2026-05-03T15:33:29.723Z</time></trkpt><trkpt lat="45.1166281" lon="8.6760072"><ele>96.0</ele><time>2026-05-03T15:33:30.704Z</time></trkpt><trkpt lat="45.1166987" lon="8.6758029"><ele>95.0</ele><time>2026-05-03T15:33:31.693Z</time></trkpt><trkpt lat="45.1167798" lon="8.6755566"><ele>95.0</ele><time>2026-05-03T15:33:32.696Z</time></trkpt><trkpt lat="45.1168615" lon="8.6752814"><ele>95.0</ele><time>2026-05-03T15:33:33.697Z</time></trkpt><trkpt lat="45.1169133" lon="8.6749577"><ele>95.0</ele><time>2026-05-03T15:33:34.685Z</time></trkpt><trkpt lat="45.116991" lon="8.6746548"><ele>96.0</ele><time>2026-05-03T15:33:35.678Z</time></trkpt><trkpt lat="45.1170724" lon="8.6743512"><ele>97.0</ele><time>2026-05-03T15:33:36.677Z</time></trkpt><trkpt lat="45.1171385" lon="8.6740292"><ele>97.0</ele><time>2026-05-03T15:33:37.69Z</time></trkpt><trkpt lat="45.1172066" lon="8.6736853"><ele>97.0</ele><time>2026-05-03T15:33:38.692Z</time></trkpt><trkpt lat="45.1172877" lon="8.6733421"><ele>97.0</ele><time>2026-05-03T15:33:39.693Z</time></trkpt><trkpt lat="45.1173665" lon="8.672981"><ele>97.0</ele><time>2026-05-03T15:33:40.695Z</time></trkpt><trkpt lat="45.117425" lon="8.6726483"><ele>98.5</ele><time>2026-05-03T15:33:41.694Z</time></trkpt><trkpt lat="45.1175025" lon="8.6723174"><ele>100.0</ele><time>2026-05-03T15:33:42.707Z</time></trkpt><trkpt lat="45.1175635" lon="8.6719723"><ele>100.0</ele><time>2026-05-03T15:33:43.702Z</time></trkpt><trkpt lat="45.1176513" lon="8.671671"><ele>100.0</ele><time>2026-05-03T15:33:44.719Z</time></trkpt><trkpt lat="45.1177197" lon="8.6713411"><ele>99.5</ele><time>2026-05-03T15:33:45.711Z</time></trkpt><trkpt lat="45.1177766" lon="8.671013"><ele>99.0</ele><time>2026-05-03T15:33:46.71Z</time></trkpt><trkpt lat="45.1178426" lon="8.6706749"><ele>99.0</ele><time>2026-05-03T15:33:47.708Z</time></trkpt><trkpt lat="45.1179063" lon="8.6703581"><ele>99.0</ele><time>2026-05-03T15:33:48.716Z</time></trkpt><trkpt lat="45.1179645" lon="8.6700366"><ele>98.66666666666666</ele><time>2026-05-03T15:33:49.699Z</time></trkpt><trkpt lat="45.1180367" lon="8.6697659"><ele>98.33333333333333</ele><time>2026-05-03T15:33:50.715Z</time></trkpt><trkpt lat="45.1180975" lon="8.6694944"><ele>98.0</ele><time>2026-05-03T15:33:51.705Z</time></trkpt><trkpt lat="45.1181447" lon="8.6692623"><ele>98.0</ele><time>2026-05-03T15:33:52.695Z</time></trkpt><trkpt lat="45.1181999" lon="8.6690736"><ele>98.0</ele><time>2026-05-03T15:33:53.697Z</time></trkpt><trkpt lat="45.1182444" lon="8.6688697"><ele>98.0</ele><time>2026-05-03T15:33:54.687Z</time></trkpt><trkpt lat="45.1182932" lon="8.6686736"><ele>98.0</ele><time>2026-05-03T15:33:55.69Z</time></trkpt><trkpt lat="45.118323" lon="8.6684992"><ele>98.0</ele><time>2026-05-03T15:33:56.696Z</time></trkpt><trkpt lat="45.118376" lon="8.668341"><ele>98.0</ele><time>2026-05-03T15:33:57.705Z</time></trkpt><trkpt lat="45.11843" lon="8.6681937"><ele>98.0</ele><time>2026-05-03T15:33:58.703Z</time></trkpt><trkpt lat="45.1184499" lon="8.6680529"><ele>98.0</ele><time>2026-05-03T15:33:59.715Z</time></trkpt><trkpt lat="45.1184778" lon="8.6679147"><ele>98.0</ele><time>2026-05-03T15:34:00.7Z</time></trkpt><trkpt lat="45.118517" lon="8.6678113"><ele>98.0</ele><time>2026-05-03T15:34:01.701Z</time></trkpt><trkpt lat="45.1185352" lon="8.6677175"><ele>98.0</ele><time>2026-05-03T15:34:02.703Z</time></trkpt><trkpt lat="45.11854" lon="8.6675888"><ele>98.0</ele><time>2026-05-03T15:34:04.708Z</time></trkpt><trkpt lat="45.1185625" lon="8.6674053"><ele>98.0</ele><time>2026-05-03T15:34:17.69Z</time></trkpt><trkpt lat="45.1185842" lon="8.6672694"><ele>98.0</ele><time>2026-05-03T15:34:18.676Z</time></trkpt><trkpt lat="45.1186225" lon="8.6670439"><ele>98.0</ele><time>2026-05-03T15:34:19.667Z</time></trkpt><trkpt lat="45.1186743" lon="8.6667874"><ele>98.0</ele><time>2026-05-03T15:34:20.67Z</time></trkpt><trkpt lat="45.1187428" lon="8.6664932"><ele>98.0</ele><time>2026-05-03T15:34:21.693Z</time></trkpt><trkpt lat="45.1188488" lon="8.6661374"><ele>97.66666666666666</ele><time>2026-05-03T15:34:22.702Z</time></trkpt><trkpt lat="45.1189355" lon="8.6658354"><ele>97.33333333333334</ele><time>2026-05-03T15:34:23.696Z</time></trkpt><trkpt lat="45.1190013" lon="8.665599"><ele>97.0</ele><time>2026-05-03T15:34:24.695Z</time></trkpt><trkpt lat="45.1190484" lon="8.6653967"><ele>97.25</ele><time>2026-05-03T15:34:25.698Z</time></trkpt><trkpt lat="45.1191091" lon="8.665203"><ele>97.5</ele><time>2026-05-03T15:34:26.693Z</time></trkpt><trkpt lat="45.1192001" lon="8.6650396"><ele>97.75</ele><time>2026-05-03T15:34:27.681Z</time></trkpt><trkpt lat="45.1193022" lon="8.6648873"><ele>98.0</ele><time>2026-05-03T15:34:28.691Z</time></trkpt><trkpt lat="45.119368" lon="8.6647149"><ele>98.0</ele><time>2026-05-03T15:34:29.686Z</time></trkpt><trkpt lat="45.1194385" lon="8.6644978"><ele>98.0</ele><time>2026-05-03T15:34:30.672Z</time></trkpt><trkpt lat="45.1194781" lon="8.6642467"><ele>98.0</ele><time>2026-05-03T15:34:31.681Z</time></trkpt><trkpt lat="45.119579" lon="8.6639693"><ele>98.0</ele><time>2026-05-03T15:34:32.674Z</time></trkpt><trkpt lat="45.1196684" lon="8.6636755"><ele>98.0</ele><time>2026-05-03T15:34:33.685Z</time></trkpt><trkpt lat="45.1198083" lon="8.6633941"><ele>98.0</ele><time>2026-05-03T15:34:34.687Z</time></trkpt><trkpt lat="45.1199324" lon="8.6630575"><ele>98.0</ele><time>2026-05-03T15:34:35.694Z</time></trkpt><trkpt lat="45.1200823" lon="8.6627251"><ele>99.0</ele><time>2026-05-03T15:34:36.705Z</time></trkpt><trkpt lat="45.1202196" lon="8.6624006"><ele>100.0</ele><time>2026-05-03T15:34:37.688Z</time></trkpt><trkpt lat="45.1203798" lon="8.6620379"><ele>99.5</ele><time>2026-05-03T15:34:38.697Z</time></trkpt><trkpt lat="45.1205483" lon="8.6616594"><ele>99.0</ele><time>2026-05-03T15:34:39.706Z</time></trkpt><trkpt lat="45.1207174" lon="8.6612696"><ele>98.0</ele><time>2026-05-03T15:34:40.699Z</time></trkpt><trkpt lat="45.1208852" lon="8.6609112"><ele>97.0</ele><time>2026-05-03T15:34:41.697Z</time></trkpt><trkpt lat="45.121064" lon="8.6605263"><ele>97.0</ele><time>2026-05-03T15:34:42.7Z</time></trkpt><trkpt lat="45.1212216" lon="8.6601342"><ele>97.0</ele><time>2026-05-03T15:34:43.699Z</time></trkpt><trkpt lat="45.1214044" lon="8.6597542"><ele>97.5</ele><time>2026-05-03T15:34:44.711Z</time></trkpt><trkpt lat="45.1215649" lon="8.6593673"><ele>98.0</ele><time>2026-05-03T15:34:45.712Z</time></trkpt><trkpt lat="45.1217273" lon="8.6589785"><ele>98.0</ele><time>2026-05-03T15:34:46.705Z</time></trkpt><trkpt lat="45.1219056" lon="8.6586078"><ele>98.0</ele><time>2026-05-03T15:34:47.706Z</time></trkpt><trkpt lat="45.1220465" lon="8.6582248"><ele>98.0</ele><time>2026-05-03T15:34:48.727Z</time></trkpt><trkpt lat="45.1222257" lon="8.6578618"><ele>98.0</ele><time>2026-05-03T15:34:49.709Z</time></trkpt><trkpt lat="45.1223861" lon="8.657471"><ele>98.0</ele><time>2026-05-03T15:34:50.709Z</time></trkpt><trkpt lat="45.12254" lon="8.6570788"><ele>98.0</ele><time>2026-05-03T15:34:51.719Z</time></trkpt><trkpt lat="45.1227025" lon="8.6566634"><ele>98.0</ele><time>2026-05-03T15:34:52.718Z</time></trkpt><trkpt lat="45.1228842" lon="8.6562915"><ele>98.0</ele><time>2026-05-03T15:34:53.71Z</time></trkpt><trkpt lat="45.1230527" lon="8.6559272"><ele>98.0</ele><time>2026-05-03T15:34:54.712Z</time></trkpt><trkpt lat="45.1232333" lon="8.6555684"><ele>98.0</ele><time>2026-05-03T15:34:55.71Z</time></trkpt><trkpt lat="45.1234092" lon="8.6551659"><ele>98.0</ele><time>2026-05-03T15:34:56.708Z</time></trkpt><trkpt lat="45.1235783" lon="8.6547728"><ele>98.0</ele><time>2026-05-03T15:34:57.703Z</time></trkpt><trkpt lat="45.123757" lon="8.6543771"><ele>97.0</ele><time>2026-05-03T15:34:58.711Z</time></trkpt><trkpt lat="45.1239393" lon="8.6539673"><ele>96.0</ele><time>2026-05-03T15:34:59.711Z</time></trkpt><trkpt lat="45.1241091" lon="8.653556"><ele>96.0</ele><time>2026-05-03T15:35:00.715Z</time></trkpt><trkpt lat="45.1242777" lon="8.6531628"><ele>96.0</ele><time>2026-05-03T15:35:01.718Z</time></trkpt><trkpt lat="45.1244392" lon="8.6527545"><ele>97.0</ele><time>2026-05-03T15:35:02.7Z</time></trkpt><trkpt lat="45.1246238" lon="8.6523909"><ele>98.0</ele><time>2026-05-03T15:35:03.71Z</time></trkpt><trkpt lat="45.124785" lon="8.6520121"><ele>98.0</ele><time>2026-05-03T15:35:04.712Z</time></trkpt><trkpt lat="45.1249406" lon="8.6516271"><ele>98.0</ele><time>2026-05-03T15:35:05.705Z</time></trkpt><trkpt lat="45.1250759" lon="8.6512236"><ele>97.5</ele><time>2026-05-03T15:35:06.714Z</time></trkpt><trkpt lat="45.1252371" lon="8.6508031"><ele>97.0</ele><time>2026-05-03T15:35:07.716Z</time></trkpt><trkpt lat="45.1253893" lon="8.6503991"><ele>97.5</ele><time>2026-05-03T15:35:08.709Z</time></trkpt><trkpt lat="45.1255299" lon="8.650005"><ele>98.0</ele><time>2026-05-03T15:35:09.707Z</time></trkpt><trkpt lat="45.1256574" lon="8.649595"><ele>97.5</ele><time>2026-05-03T15:35:10.708Z</time></trkpt><trkpt lat="45.125797" lon="8.6491672"><ele>97.0</ele><time>2026-05-03T15:35:11.703Z</time></trkpt><trkpt lat="45.1259443" lon="8.6487716"><ele>97.5</ele><time>2026-05-03T15:35:12.711Z</time></trkpt><trkpt lat="45.1260661" lon="8.6483857"><ele>98.0</ele><time>2026-05-03T15:35:13.705Z</time></trkpt><trkpt lat="45.1261912" lon="8.6479689"><ele>98.5</ele><time>2026-05-03T15:35:14.715Z</time></trkpt><trkpt lat="45.1263093" lon="8.6475533"><ele>99.0</ele><time>2026-05-03T15:35:15.712Z</time></trkpt><trkpt lat="45.1264493" lon="8.6471394"><ele>98.0</ele><time>2026-05-03T15:35:16.708Z</time></trkpt><trkpt lat="45.1265914" lon="8.6467273"><ele>97.0</ele><time>2026-05-03T15:35:17.714Z</time></trkpt><trkpt lat="45.1267295" lon="8.6463345"><ele>97.0</ele><time>2026-05-03T15:35:18.708Z</time></trkpt><trkpt lat="45.1268589" lon="8.6459221"><ele>97.0</ele><time>2026-05-03T15:35:19.702Z</time></trkpt><trkpt lat="45.1269925" lon="8.645508"><ele>97.0</ele><time>2026-05-03T15:35:20.713Z</time></trkpt><trkpt lat="45.1271466" lon="8.6451334"><ele>97.0</ele><time>2026-05-03T15:35:21.711Z</time></trkpt><trkpt lat="45.1272682" lon="8.6447443"><ele>97.5</ele><time>2026-05-03T15:35:22.703Z</time></trkpt><trkpt lat="45.127404" lon="8.6443654"><ele>98.0</ele><time>2026-05-03T15:35:23.724Z</time></trkpt><trkpt lat="45.1275152" lon="8.6439843"><ele>98.5</ele><time>2026-05-03T15:35:24.704Z</time></trkpt><trkpt lat="45.1276424" lon="8.6435814"><ele>99.0</ele><time>2026-05-03T15:35:25.704Z</time></trkpt><trkpt lat="45.127744" lon="8.6431814"><ele>99.0</ele><time>2026-05-03T15:35:26.713Z</time></trkpt><trkpt lat="45.1278745" lon="8.6427997"><ele>99.0</ele><time>2026-05-03T15:35:27.796Z</time></trkpt><trkpt lat="45.1280062" lon="8.6424157"><ele>98.5</ele><time>2026-05-03T15:35:28.796Z</time></trkpt><trkpt lat="45.1281367" lon="8.6420303"><ele>98.0</ele><time>2026-05-03T15:35:29.81Z</time></trkpt><trkpt lat="45.1282618" lon="8.6416383"><ele>98.0</ele><time>2026-05-03T15:35:30.804Z</time></trkpt><trkpt lat="45.1283863" lon="8.6412459"><ele>98.0</ele><time>2026-05-03T15:35:31.811Z</time></trkpt><trkpt lat="45.1285101" lon="8.6408369"><ele>98.5</ele><time>2026-05-03T15:35:32.8Z</time></trkpt><trkpt lat="45.1286393" lon="8.6404423"><ele>99.0</ele><time>2026-05-03T15:35:33.813Z</time></trkpt><trkpt lat="45.1287721" lon="8.6400448"><ele>99.5</ele><time>2026-05-03T15:35:34.811Z</time></trkpt><trkpt lat="45.1289039" lon="8.63965"><ele>100.0</ele><time>2026-05-03T15:35:35.802Z</time></trkpt><trkpt lat="45.1290335" lon="8.6392546"><ele>99.0</ele><time>2026-05-03T15:35:36.802Z</time></trkpt><trkpt lat="45.1291609" lon="8.6388608"><ele>98.0</ele><time>2026-05-03T15:35:37.798Z</time></trkpt><trkpt lat="45.1292895" lon="8.6384794"><ele>98.0</ele><time>2026-05-03T15:35:38.807Z</time></trkpt><trkpt lat="45.1294074" lon="8.638097"><ele>98.0</ele><time>2026-05-03T15:35:39.81Z</time></trkpt><trkpt lat="45.1295279" lon="8.6377276"><ele>98.5</ele><time>2026-05-03T15:35:40.801Z</time></trkpt><trkpt lat="45.1296448" lon="8.6373673"><ele>99.0</ele><time>2026-05-03T15:35:41.795Z</time></trkpt><trkpt lat="45.1297598" lon="8.6370069"><ele>99.5</ele><time>2026-05-03T15:35:42.802Z</time></trkpt><trkpt lat="45.1298763" lon="8.6366547"><ele>100.0</ele><time>2026-05-03T15:35:43.802Z</time></trkpt><trkpt lat="45.1299877" lon="8.6363037"><ele>99.5</ele><time>2026-05-03T15:35:44.803Z</time></trkpt><trkpt lat="45.1300982" lon="8.6359539"><ele>99.0</ele><time>2026-05-03T15:35:45.787Z</time></trkpt><trkpt lat="45.1302145" lon="8.635604"><ele>99.0</ele><time>2026-05-03T15:35:46.792Z</time></trkpt><trkpt lat="45.1303283" lon="8.6352536"><ele>99.0</ele><time>2026-05-03T15:35:47.803Z</time></trkpt><trkpt lat="45.1304385" lon="8.6349087"><ele>99.0</ele><time>2026-05-03T15:35:48.804Z</time></trkpt><trkpt lat="45.1305492" lon="8.6345694"><ele>99.0</ele><time>2026-05-03T15:35:49.811Z</time></trkpt><trkpt lat="45.1306574" lon="8.6342384"><ele>99.5</ele><time>2026-05-03T15:35:50.803Z</time></trkpt><trkpt lat="45.1307574" lon="8.6339267"><ele>100.0</ele><time>2026-05-03T15:35:51.811Z</time></trkpt><trkpt lat="45.1308495" lon="8.633628"><ele>100.0</ele><time>2026-05-03T15:35:52.803Z</time></trkpt><trkpt lat="45.130936" lon="8.6333523"><ele>100.0</ele><time>2026-05-03T15:35:53.79Z</time></trkpt><trkpt lat="45.131017" lon="8.6330922"><ele>100.0</ele><time>2026-05-03T15:35:54.804Z</time></trkpt><trkpt lat="45.1310934" lon="8.6328516"><ele>100.25</ele><time>2026-05-03T15:35:55.796Z</time></trkpt><trkpt lat="45.1311626" lon="8.6326306"><ele>100.5</ele><time>2026-05-03T15:35:56.786Z</time></trkpt><trkpt lat="45.131226" lon="8.6324387"><ele>100.75</ele><time>2026-05-03T15:35:57.789Z</time></trkpt><trkpt lat="45.1313092" lon="8.6323129"><ele>101.0</ele><time>2026-05-03T15:35:58.691Z</time></trkpt><trkpt lat="45.1314024" lon="8.6322094"><ele>101.0</ele><time>2026-05-03T15:35:59.686Z</time></trkpt><trkpt lat="45.1314733" lon="8.6320902"><ele>101.0</ele><time>2026-05-03T15:36:00.696Z</time></trkpt><trkpt lat="45.1315548" lon="8.6319432"><ele>101.0</ele><time>2026-05-03T15:36:01.677Z</time></trkpt><trkpt lat="45.1315925" lon="8.6317829"><ele>101.0</ele><time>2026-05-03T15:36:02.67Z</time></trkpt><trkpt lat="45.13164" lon="8.6315956"><ele>101.0</ele><time>2026-05-03T15:36:03.662Z</time></trkpt><trkpt lat="45.1316736" lon="8.6313763"><ele>101.0</ele><time>2026-05-03T15:36:04.668Z</time></trkpt><trkpt lat="45.1317086" lon="8.6310417"><ele>101.0</ele><time>2026-05-03T15:36:05.678Z</time></trkpt><trkpt lat="45.1317926" lon="8.6307377"><ele>101.0</ele><time>2026-05-03T15:36:06.666Z</time></trkpt><trkpt lat="45.131929" lon="8.6304"><ele>101.0</ele><time>2026-05-03T15:36:07.674Z</time></trkpt><trkpt lat="45.1320588" lon="8.6300717"><ele>101.0</ele><time>2026-05-03T15:36:08.687Z</time></trkpt><trkpt lat="45.1322114" lon="8.6297542"><ele>101.0</ele><time>2026-05-03T15:36:09.692Z</time></trkpt><trkpt lat="45.1323331" lon="8.629432"><ele>99.5</ele><time>2026-05-03T15:36:10.686Z</time></trkpt><trkpt lat="45.1325002" lon="8.6291029"><ele>98.0</ele><time>2026-05-03T15:36:11.697Z</time></trkpt><trkpt lat="45.1326641" lon="8.6287849"><ele>98.0</ele><time>2026-05-03T15:36:12.687Z</time></trkpt><trkpt lat="45.1328452" lon="8.6284474"><ele>98.0</ele><time>2026-05-03T15:36:13.694Z</time></trkpt><trkpt lat="45.1330292" lon="8.6281309"><ele>99.5</ele><time>2026-05-03T15:36:14.698Z</time></trkpt><trkpt lat="45.1332129" lon="8.6278068"><ele>101.0</ele><time>2026-05-03T15:36:15.693Z</time></trkpt><trkpt lat="45.1334103" lon="8.6274868"><ele>101.0</ele><time>2026-05-03T15:36:16.691Z</time></trkpt><trkpt lat="45.1335947" lon="8.6271603"><ele>101.0</ele><time>2026-05-03T15:36:17.693Z</time></trkpt><trkpt lat="45.1337865" lon="8.62682"><ele>100.5</ele><time>2026-05-03T15:36:18.686Z</time></trkpt><trkpt lat="45.1339922" lon="8.6264798"><ele>100.0</ele><time>2026-05-03T15:36:19.686Z</time></trkpt><trkpt lat="45.1341807" lon="8.6261564"><ele>99.5</ele><time>2026-05-03T15:36:20.689Z</time></trkpt><trkpt lat="45.1343766" lon="8.6258419"><ele>99.0</ele><time>2026-05-03T15:36:21.688Z</time></trkpt><trkpt lat="45.1345669" lon="8.6255282"><ele>99.0</ele><time>2026-05-03T15:36:22.699Z</time></trkpt><trkpt lat="45.1347552" lon="8.6251781"><ele>99.0</ele><time>2026-05-03T15:36:23.691Z</time></trkpt><trkpt lat="45.1349572" lon="8.6248523"><ele>99.0</ele><time>2026-05-03T15:36:24.701Z</time></trkpt><trkpt lat="45.1351388" lon="8.6245134"><ele>99.0</ele><time>2026-05-03T15:36:25.705Z</time></trkpt><trkpt lat="45.1353439" lon="8.6241926"><ele>99.0</ele><time>2026-05-03T15:36:26.7Z</time></trkpt><trkpt lat="45.1355227" lon="8.6238678"><ele>99.0</ele><time>2026-05-03T15:36:27.697Z</time></trkpt><trkpt lat="45.1356982" lon="8.6235467"><ele>98.5</ele><time>2026-05-03T15:36:28.688Z</time></trkpt><trkpt lat="45.1358611" lon="8.6232739"><ele>98.0</ele><time>2026-05-03T15:36:29.695Z</time></trkpt><trkpt lat="45.1360153" lon="8.6230457"><ele>97.0</ele><time>2026-05-03T15:36:30.697Z</time></trkpt><trkpt lat="45.1361529" lon="8.6227835"><ele>96.0</ele><time>2026-05-03T15:36:31.687Z</time></trkpt><trkpt lat="45.1363116" lon="8.6225353"><ele>96.0</ele><time>2026-05-03T15:36:32.689Z</time></trkpt><trkpt lat="45.1364877" lon="8.6223222"><ele>96.0</ele><time>2026-05-03T15:36:33.682Z</time></trkpt><trkpt lat="45.1366852" lon="8.6221448"><ele>96.0</ele><time>2026-05-03T15:36:34.687Z</time></trkpt><trkpt lat="45.1369045" lon="8.6219953"><ele>96.0</ele><time>2026-05-03T15:36:35.671Z</time></trkpt><trkpt lat="45.1371393" lon="8.6218823"><ele>96.5</ele><time>2026-05-03T15:36:36.672Z</time></trkpt><trkpt lat="45.1374389" lon="8.621826"><ele>97.0</ele><time>2026-05-03T15:36:37.665Z</time></trkpt><trkpt lat="45.1377105" lon="8.6217583"><ele>97.0</ele><time>2026-05-03T15:36:38.673Z</time></trkpt><trkpt lat="45.138043" lon="8.6217677"><ele>97.0</ele><time>2026-05-03T15:36:39.677Z</time></trkpt><trkpt lat="45.1383637" lon="8.6217426"><ele>97.0</ele><time>2026-05-03T15:36:40.685Z</time></trkpt><trkpt lat="45.1386852" lon="8.6216919"><ele>97.0</ele><time>2026-05-03T15:36:41.697Z</time></trkpt><trkpt lat="45.1389892" lon="8.6215986"><ele>97.0</ele><time>2026-05-03T15:36:42.68Z</time></trkpt><trkpt lat="45.1393094" lon="8.6215566"><ele>97.0</ele><time>2026-05-03T15:36:43.689Z</time></trkpt><trkpt lat="45.1396418" lon="8.6215012"><ele>98.0</ele><time>2026-05-03T15:36:44.697Z</time></trkpt><trkpt lat="45.1399316" lon="8.6214507"><ele>99.0</ele><time>2026-05-03T15:36:45.697Z</time></trkpt><trkpt lat="45.1401988" lon="8.6213505"><ele>99.0</ele><time>2026-05-03T15:36:46.69Z</time></trkpt><trkpt lat="45.1404399" lon="8.6212043"><ele>99.0</ele><time>2026-05-03T15:36:47.692Z</time></trkpt><trkpt lat="45.1406852" lon="8.6210176"><ele>98.5</ele><time>2026-05-03T15:36:48.671Z</time></trkpt><trkpt lat="45.1409014" lon="8.6207913"><ele>98.0</ele><time>2026-05-03T15:36:49.652Z</time></trkpt><trkpt lat="45.1410819" lon="8.6205405"><ele>97.5</ele><time>2026-05-03T15:36:50.65Z</time></trkpt><trkpt lat="45.141272" lon="8.6202224"><ele>97.0</ele><time>2026-05-03T15:36:51.66Z</time></trkpt><trkpt lat="45.1413979" lon="8.6198757"><ele>97.0</ele><time>2026-05-03T15:36:52.666Z</time></trkpt><trkpt lat="45.1415163" lon="8.6195857"><ele>97.0</ele><time>2026-05-03T15:36:53.676Z</time></trkpt><trkpt lat="45.1416743" lon="8.6193076"><ele>96.5</ele><time>2026-05-03T15:36:54.66Z</time></trkpt><trkpt lat="45.141861" lon="8.6190972"><ele>96.0</ele><time>2026-05-03T15:36:55.668Z</time></trkpt><trkpt lat="45.1420589" lon="8.6188741"><ele>96.0</ele><time>2026-05-03T15:36:56.674Z</time></trkpt><trkpt lat="45.1423226" lon="8.6187748"><ele>96.0</ele><time>2026-05-03T15:36:57.665Z</time></trkpt><trkpt lat="45.1425344" lon="8.6185948"><ele>97.0</ele><time>2026-05-03T15:36:58.659Z</time></trkpt><trkpt lat="45.1428444" lon="8.6184712"><ele>98.0</ele><time>2026-05-03T15:36:59.687Z</time></trkpt><trkpt lat="45.1431246" lon="8.6183701"><ele>98.0</ele><time>2026-05-03T15:37:00.674Z</time></trkpt><trkpt lat="45.1434358" lon="8.6182835"><ele>98.0</ele><time>2026-05-03T15:37:01.691Z</time></trkpt><trkpt lat="45.1437708" lon="8.6181372"><ele>98.0</ele><time>2026-05-03T15:37:02.676Z</time></trkpt><trkpt lat="45.1440686" lon="8.6180037"><ele>98.0</ele><time>2026-05-03T15:37:03.682Z</time></trkpt><trkpt lat="45.1443982" lon="8.6178662"><ele>98.0</ele><time>2026-05-03T15:37:04.679Z</time></trkpt><trkpt lat="45.1447116" lon="8.6177228"><ele>98.0</ele><time>2026-05-03T15:37:05.689Z</time></trkpt><trkpt lat="45.1450127" lon="8.6176081"><ele>98.5</ele><time>2026-05-03T15:37:06.679Z</time></trkpt><trkpt lat="45.145319" lon="8.6174715"><ele>99.0</ele><time>2026-05-03T15:37:07.691Z</time></trkpt><trkpt lat="45.1456214" lon="8.6173509"><ele>99.0</ele><time>2026-05-03T15:37:08.68Z</time></trkpt><trkpt lat="45.1459446" lon="8.6172283"><ele>99.0</ele><time>2026-05-03T15:37:09.698Z</time></trkpt><trkpt lat="45.1462414" lon="8.6170872"><ele>99.0</ele><time>2026-05-03T15:37:10.688Z</time></trkpt><trkpt lat="45.1465529" lon="8.6169655"><ele>99.0</ele><time>2026-05-03T15:37:11.694Z</time></trkpt><trkpt lat="45.1468715" lon="8.616829"><ele>99.0</ele><time>2026-05-03T15:37:12.685Z</time></trkpt><trkpt lat="45.147168" lon="8.6167272"><ele>99.0</ele><time>2026-05-03T15:37:13.686Z</time></trkpt><trkpt lat="45.1474802" lon="8.6166021"><ele>99.5</ele><time>2026-05-03T15:37:14.681Z</time></trkpt><trkpt lat="45.1477711" lon="8.6164795"><ele>100.0</ele><time>2026-05-03T15:37:15.684Z</time></trkpt><trkpt lat="45.1480523" lon="8.6163443"><ele>100.0</ele><time>2026-05-03T15:37:16.695Z</time></trkpt><trkpt lat="45.1483435" lon="8.6162112"><ele>100.0</ele><time>2026-05-03T15:37:17.68Z</time></trkpt><trkpt lat="45.148627" lon="8.6160851"><ele>100.0</ele><time>2026-05-03T15:37:18.692Z</time></trkpt><trkpt lat="45.1489489" lon="8.6159504"><ele>100.0</ele><time>2026-05-03T15:37:19.699Z</time></trkpt><trkpt lat="45.1492619" lon="8.6158543"><ele>99.5</ele><time>2026-05-03T15:37:20.688Z</time></trkpt><trkpt lat="45.1495624" lon="8.6157251"><ele>99.0</ele><time>2026-05-03T15:37:21.707Z</time></trkpt><trkpt lat="45.1498756" lon="8.6156361"><ele>100.0</ele><time>2026-05-03T15:37:22.697Z</time></trkpt><trkpt lat="45.1501841" lon="8.615565"><ele>101.0</ele><time>2026-05-03T15:37:23.697Z</time></trkpt><trkpt lat="45.1504841" lon="8.6154652"><ele>100.0</ele><time>2026-05-03T15:37:24.687Z</time></trkpt><trkpt lat="45.1507361" lon="8.6153917"><ele>99.0</ele><time>2026-05-03T15:37:25.682Z</time></trkpt><trkpt lat="45.1510019" lon="8.6153558"><ele>100.0</ele><time>2026-05-03T15:37:26.691Z</time></trkpt><trkpt lat="45.1512372" lon="8.6152562"><ele>101.0</ele><time>2026-05-03T15:37:27.7Z</time></trkpt><trkpt lat="45.1514839" lon="8.6151997"><ele>100.5</ele><time>2026-05-03T15:37:28.708Z</time></trkpt><trkpt lat="45.1517385" lon="8.6151645"><ele>100.0</ele><time>2026-05-03T15:37:29.722Z</time></trkpt><trkpt lat="45.1519954" lon="8.6151201"><ele>100.0</ele><time>2026-05-03T15:37:30.697Z</time></trkpt><trkpt lat="45.1522203" lon="8.6150306"><ele>100.0</ele><time>2026-05-03T15:37:31.708Z</time></trkpt><trkpt lat="45.1524566" lon="8.6149646"><ele>100.5</ele><time>2026-05-03T15:37:32.701Z</time></trkpt><trkpt lat="45.1526919" lon="8.6148631"><ele>101.0</ele><time>2026-05-03T15:37:33.696Z</time></trkpt><trkpt lat="45.1529292" lon="8.6147415"><ele>101.0</ele><time>2026-05-03T15:37:34.697Z</time></trkpt><trkpt lat="45.1531329" lon="8.6146382"><ele>101.0</ele><time>2026-05-03T15:37:35.69Z</time></trkpt><trkpt lat="45.1533393" lon="8.6145193"><ele>101.0</ele><time>2026-05-03T15:37:36.689Z</time></trkpt><trkpt lat="45.1535282" lon="8.614402"><ele>101.33333333333333</ele><time>2026-05-03T15:37:37.704Z</time></trkpt><trkpt lat="45.1537279" lon="8.6143018"><ele>101.66666666666666</ele><time>2026-05-03T15:37:38.702Z</time></trkpt><trkpt lat="45.1539476" lon="8.6142024"><ele>102.0</ele><time>2026-05-03T15:37:39.704Z</time></trkpt><trkpt lat="45.154139" lon="8.6140901"><ele>102.0</ele><time>2026-05-03T15:37:40.706Z</time></trkpt><trkpt lat="45.1543216" lon="8.6139799"><ele>102.0</ele><time>2026-05-03T15:37:41.697Z</time></trkpt><trkpt lat="45.154497" lon="8.6138516"><ele>102.0</ele><time>2026-05-03T15:37:42.695Z</time></trkpt><trkpt lat="45.1546814" lon="8.6136882"><ele>101.0</ele><time>2026-05-03T15:37:43.689Z</time></trkpt><trkpt lat="45.154888" lon="8.6135436"><ele>100.0</ele><time>2026-05-03T15:37:44.683Z</time></trkpt><trkpt lat="45.1550774" lon="8.6133435"><ele>100.0</ele><time>2026-05-03T15:37:45.698Z</time></trkpt><trkpt lat="45.1553382" lon="8.6132373"><ele>100.0</ele><time>2026-05-03T15:37:46.695Z</time></trkpt><trkpt lat="45.1555743" lon="8.6130624"><ele>100.0</ele><time>2026-05-03T15:37:47.692Z</time></trkpt><trkpt lat="45.1557984" lon="8.6129064"><ele>100.0</ele><time>2026-05-03T15:37:48.697Z</time></trkpt><trkpt lat="45.155987" lon="8.6127097"><ele>100.0</ele><time>2026-05-03T15:37:49.686Z</time></trkpt><trkpt lat="45.1561648" lon="8.612423"><ele>100.0</ele><time>2026-05-03T15:37:50.687Z</time></trkpt><trkpt lat="45.1563302" lon="8.6121272"><ele>100.0</ele><time>2026-05-03T15:37:51.697Z</time></trkpt><trkpt lat="45.1565116" lon="8.6117804"><ele>100.0</ele><time>2026-05-03T15:37:52.694Z</time></trkpt><trkpt lat="45.1567079" lon="8.6114416"><ele>100.0</ele><time>2026-05-03T15:37:53.709Z</time></trkpt><trkpt lat="45.1569055" lon="8.6111076"><ele>100.0</ele><time>2026-05-03T15:37:54.691Z</time></trkpt><trkpt lat="45.1571215" lon="8.6107259"><ele>100.0</ele><time>2026-05-03T15:37:55.707Z</time></trkpt><trkpt lat="45.1573248" lon="8.6103662"><ele>100.0</ele><time>2026-05-03T15:37:56.705Z</time></trkpt><trkpt lat="45.1575337" lon="8.6099962"><ele>99.5</ele><time>2026-05-03T15:37:57.71Z</time></trkpt><trkpt lat="45.1577323" lon="8.6096661"><ele>99.0</ele><time>2026-05-03T15:37:58.714Z</time></trkpt><trkpt lat="45.1579362" lon="8.609325"><ele>99.5</ele><time>2026-05-03T15:37:59.72Z</time></trkpt><trkpt lat="45.1581172" lon="8.6090158"><ele>100.0</ele><time>2026-05-03T15:38:00.707Z</time></trkpt><trkpt lat="45.1582895" lon="8.608708"><ele>100.5</ele><time>2026-05-03T15:38:01.708Z</time></trkpt><trkpt lat="45.1584742" lon="8.6083734"><ele>101.0</ele><time>2026-05-03T15:38:02.704Z</time></trkpt><trkpt lat="45.1586679" lon="8.6080916"><ele>101.0</ele><time>2026-05-03T15:38:03.714Z</time></trkpt><trkpt lat="45.1588705" lon="8.6078151"><ele>101.0</ele><time>2026-05-03T15:38:04.706Z</time></trkpt><trkpt lat="45.1590828" lon="8.6075521"><ele>101.0</ele><time>2026-05-03T15:38:05.696Z</time></trkpt><trkpt lat="45.1593091" lon="8.6073379"><ele>101.0</ele><time>2026-05-03T15:38:06.703Z</time></trkpt><trkpt lat="45.1595682" lon="8.6071458"><ele>101.0</ele><time>2026-05-03T15:38:07.691Z</time></trkpt><trkpt lat="45.1598467" lon="8.6070128"><ele>101.0</ele><time>2026-05-03T15:38:08.694Z</time></trkpt><trkpt lat="45.1601138" lon="8.6068705"><ele>100.5</ele><time>2026-05-03T15:38:09.692Z</time></trkpt><trkpt lat="45.1603943" lon="8.6067978"><ele>100.0</ele><time>2026-05-03T15:38:10.694Z</time></trkpt><trkpt lat="45.160684" lon="8.6067517"><ele>100.0</ele><time>2026-05-03T15:38:11.679Z</time></trkpt><trkpt lat="45.16098" lon="8.6067495"><ele>100.0</ele><time>2026-05-03T15:38:12.678Z</time></trkpt><trkpt lat="45.1612863" lon="8.6067229"><ele>101.0</ele><time>2026-05-03T15:38:13.695Z</time></trkpt><trkpt lat="45.161629" lon="8.6067501"><ele>102.0</ele><time>2026-05-03T15:38:14.703Z</time></trkpt><trkpt lat="45.1619459" lon="8.6068099"><ele>102.0</ele><time>2026-05-03T15:38:15.7Z</time></trkpt><trkpt lat="45.162255" lon="8.6068476"><ele>102.0</ele><time>2026-05-03T15:38:16.709Z</time></trkpt><trkpt lat="45.1625602" lon="8.6069136"><ele>102.0</ele><time>2026-05-03T15:38:17.705Z</time></trkpt><trkpt lat="45.1628782" lon="8.6069495"><ele>102.0</ele><time>2026-05-03T15:38:18.709Z</time></trkpt><trkpt lat="45.1631328" lon="8.6069593"><ele>101.0</ele><time>2026-05-03T15:38:19.691Z</time></trkpt><trkpt lat="45.1634329" lon="8.6069709"><ele>100.0</ele><time>2026-05-03T15:38:20.691Z</time></trkpt><trkpt lat="45.1636888" lon="8.6069413"><ele>100.0</ele><time>2026-05-03T15:38:21.688Z</time></trkpt><trkpt lat="45.1639066" lon="8.6067722"><ele>100.0</ele><time>2026-05-03T15:38:22.675Z</time></trkpt><trkpt lat="45.1641636" lon="8.6065276"><ele>100.5</ele><time>2026-05-03T15:38:23.675Z</time></trkpt><trkpt lat="45.1644619" lon="8.6063324"><ele>101.0</ele><time>2026-05-03T15:38:24.691Z</time></trkpt><trkpt lat="45.1648123" lon="8.6061872"><ele>100.5</ele><time>2026-05-03T15:38:25.703Z</time></trkpt><trkpt lat="45.1650917" lon="8.6060797"><ele>100.0</ele><time>2026-05-03T15:38:26.7Z</time></trkpt><trkpt lat="45.1653732" lon="8.6060174"><ele>100.0</ele><time>2026-05-03T15:38:27.699Z</time></trkpt><trkpt lat="45.1656299" lon="8.6059048"><ele>100.0</ele><time>2026-05-03T15:38:28.699Z</time></trkpt><trkpt lat="45.1658984" lon="8.6058562"><ele>100.5</ele><time>2026-05-03T15:38:29.711Z</time></trkpt><trkpt lat="45.1661319" lon="8.6058255"><ele>101.0</ele><time>2026-05-03T15:38:30.703Z</time></trkpt><trkpt lat="45.166354" lon="8.6057468"><ele>101.0</ele><time>2026-05-03T15:38:31.712Z</time></trkpt><trkpt lat="45.1665705" lon="8.605668"><ele>101.0</ele><time>2026-05-03T15:38:32.715Z</time></trkpt><trkpt lat="45.1667806" lon="8.6056204"><ele>101.0</ele><time>2026-05-03T15:38:33.705Z</time></trkpt><trkpt lat="45.1669358" lon="8.6055299"><ele>101.0</ele><time>2026-05-03T15:38:34.696Z</time></trkpt><trkpt lat="45.1671176" lon="8.6055145"><ele>101.0</ele><time>2026-05-03T15:38:35.692Z</time></trkpt><trkpt lat="45.1672542" lon="8.6055019"><ele>101.0</ele><time>2026-05-03T15:38:36.694Z</time></trkpt><trkpt lat="45.1674119" lon="8.6055384"><ele>101.33333333333333</ele><time>2026-05-03T15:38:37.685Z</time></trkpt><trkpt lat="45.1675935" lon="8.6055717"><ele>101.66666666666666</ele><time>2026-05-03T15:38:38.689Z</time></trkpt><trkpt lat="45.1677687" lon="8.6056283"><ele>102.0</ele><time>2026-05-03T15:38:39.691Z</time></trkpt><trkpt lat="45.1679701" lon="8.6057054"><ele>102.5</ele><time>2026-05-03T15:38:40.678Z</time></trkpt><trkpt lat="45.1682038" lon="8.605787"><ele>103.0</ele><time>2026-05-03T15:38:41.679Z</time></trkpt><trkpt lat="45.1684348" lon="8.6057607"><ele>103.0</ele><time>2026-05-03T15:38:42.681Z</time></trkpt><trkpt lat="45.1686409" lon="8.605686"><ele>103.0</ele><time>2026-05-03T15:38:43.69Z</time></trkpt><trkpt lat="45.168877" lon="8.6056012"><ele>102.33333333333334</ele><time>2026-05-03T15:38:44.685Z</time></trkpt><trkpt lat="45.1690903" lon="8.6055412"><ele>101.66666666666666</ele><time>2026-05-03T15:38:45.686Z</time></trkpt><trkpt lat="45.1692848" lon="8.6054776"><ele>101.0</ele><time>2026-05-03T15:38:46.681Z</time></trkpt><trkpt lat="45.1695167" lon="8.605524"><ele>101.0</ele><time>2026-05-03T15:38:47.683Z</time></trkpt><trkpt lat="45.1697604" lon="8.6055115"><ele>101.0</ele><time>2026-05-03T15:38:48.694Z</time></trkpt><trkpt lat="45.1700602" lon="8.6056047"><ele>100.5</ele><time>2026-05-03T15:38:49.699Z</time></trkpt><trkpt lat="45.1703767" lon="8.6056632"><ele>100.0</ele><time>2026-05-03T15:38:50.693Z</time></trkpt><trkpt lat="45.170674" lon="8.6057382"><ele>100.0</ele><time>2026-05-03T15:38:51.698Z</time></trkpt><trkpt lat="45.1709902" lon="8.6058056"><ele>100.0</ele><time>2026-05-03T15:38:52.703Z</time></trkpt><trkpt lat="45.1712876" lon="8.6058628"><ele>100.0</ele><time>2026-05-03T15:38:53.7Z</time></trkpt><trkpt lat="45.1716146" lon="8.6059099"><ele>100.0</ele><time>2026-05-03T15:38:54.702Z</time></trkpt><trkpt lat="45.1719366" lon="8.6059397"><ele>100.0</ele><time>2026-05-03T15:38:55.708Z</time></trkpt><trkpt lat="45.1722785" lon="8.6059924"><ele>100.0</ele><time>2026-05-03T15:38:56.706Z</time></trkpt><trkpt lat="45.172618" lon="8.6060541"><ele>100.0</ele><time>2026-05-03T15:38:57.708Z</time></trkpt><trkpt lat="45.1729403" lon="8.6061244"><ele>100.0</ele><time>2026-05-03T15:38:58.72Z</time></trkpt><trkpt lat="45.1732744" lon="8.6061951"><ele>100.5</ele><time>2026-05-03T15:38:59.708Z</time></trkpt><trkpt lat="45.1736461" lon="8.6062793"><ele>101.0</ele><time>2026-05-03T15:39:00.707Z</time></trkpt><trkpt lat="45.1739924" lon="8.6063084"><ele>101.5</ele><time>2026-05-03T15:39:01.705Z</time></trkpt><trkpt lat="45.1743544" lon="8.6063705"><ele>102.0</ele><time>2026-05-03T15:39:02.708Z</time></trkpt><trkpt lat="45.1746845" lon="8.606406"><ele>103.0</ele><time>2026-05-03T15:39:03.706Z</time></trkpt><trkpt lat="45.1750211" lon="8.6064653"><ele>104.0</ele><time>2026-05-03T15:39:04.701Z</time></trkpt><trkpt lat="45.1753476" lon="8.6065151"><ele>104.0</ele><time>2026-05-03T15:39:05.708Z</time></trkpt><trkpt lat="45.1757" lon="8.6065714"><ele>104.0</ele><time>2026-05-03T15:39:06.709Z</time></trkpt><trkpt lat="45.176005" lon="8.6066138"><ele>104.0</ele><time>2026-05-03T15:39:07.702Z</time></trkpt><trkpt lat="45.1763185" lon="8.6066855"><ele>104.0</ele><time>2026-05-03T15:39:08.712Z</time></trkpt><trkpt lat="45.1766437" lon="8.6067627"><ele>102.5</ele><time>2026-05-03T15:39:09.71Z</time></trkpt><trkpt lat="45.1769755" lon="8.6068173"><ele>101.0</ele><time>2026-05-03T15:39:10.705Z</time></trkpt><trkpt lat="45.1772809" lon="8.6068626"><ele>101.0</ele><time>2026-05-03T15:39:11.704Z</time></trkpt><trkpt lat="45.1775924" lon="8.6069425"><ele>101.0</ele><time>2026-05-03T15:39:12.707Z</time></trkpt><trkpt lat="45.1779049" lon="8.6070075"><ele>102.0</ele><time>2026-05-03T15:39:13.706Z</time></trkpt><trkpt lat="45.1782345" lon="8.6070525"><ele>103.0</ele><time>2026-05-03T15:39:14.705Z</time></trkpt><trkpt lat="45.1785668" lon="8.6071041"><ele>103.0</ele><time>2026-05-03T15:39:15.715Z</time></trkpt><trkpt lat="45.1789072" lon="8.6071493"><ele>103.0</ele><time>2026-05-03T15:39:16.709Z</time></trkpt><trkpt lat="45.1792302" lon="8.6072044"><ele>102.5</ele><time>2026-05-03T15:39:17.71Z</time></trkpt><trkpt lat="45.1795356" lon="8.6072627"><ele>102.0</ele><time>2026-05-03T15:39:18.71Z</time></trkpt><trkpt lat="45.1798557" lon="8.6073282"><ele>101.5</ele><time>2026-05-03T15:39:19.713Z</time></trkpt><trkpt lat="45.1801606" lon="8.6073756"><ele>101.0</ele><time>2026-05-03T15:39:20.707Z</time></trkpt><trkpt lat="45.1805001" lon="8.6074422"><ele>101.0</ele><time>2026-05-03T15:39:21.714Z</time></trkpt><trkpt lat="45.180826" lon="8.6074708"><ele>101.0</ele><time>2026-05-03T15:39:22.708Z</time></trkpt><trkpt lat="45.1811197" lon="8.6074953"><ele>101.0</ele><time>2026-05-03T15:39:23.705Z</time></trkpt><trkpt lat="45.181395" lon="8.6075367"><ele>101.0</ele><time>2026-05-03T15:39:24.714Z</time></trkpt><trkpt lat="45.18167" lon="8.6076014"><ele>101.0</ele><time>2026-05-03T15:39:25.705Z</time></trkpt><trkpt lat="45.1819128" lon="8.6076389"><ele>101.0</ele><time>2026-05-03T15:39:26.715Z</time></trkpt><trkpt lat="45.1821503" lon="8.6077232"><ele>100.66666666666666</ele><time>2026-05-03T15:39:27.699Z</time></trkpt><trkpt lat="45.1823531" lon="8.6077594"><ele>100.33333333333334</ele><time>2026-05-03T15:39:28.704Z</time></trkpt><trkpt lat="45.1825614" lon="8.6077697"><ele>100.0</ele><time>2026-05-03T15:39:29.713Z</time></trkpt><trkpt lat="45.1827764" lon="8.607779"><ele>100.0</ele><time>2026-05-03T15:39:30.69Z</time></trkpt><trkpt lat="45.1829454" lon="8.6077114"><ele>100.0</ele><time>2026-05-03T15:39:31.695Z</time></trkpt><trkpt lat="45.1831266" lon="8.6076515"><ele>100.0</ele><time>2026-05-03T15:39:32.685Z</time></trkpt><trkpt lat="45.1832792" lon="8.607605"><ele>100.33333333333334</ele><time>2026-05-03T15:39:33.711Z</time></trkpt><trkpt lat="45.1834308" lon="8.607538"><ele>100.66666666666666</ele><time>2026-05-03T15:39:34.699Z</time></trkpt><trkpt lat="45.1835655" lon="8.6074267"><ele>101.0</ele><time>2026-05-03T15:39:35.701Z</time></trkpt><trkpt lat="45.1837135" lon="8.6073231"><ele>101.0</ele><time>2026-05-03T15:39:36.698Z</time></trkpt><trkpt lat="45.1838616" lon="8.6071857"><ele>101.0</ele><time>2026-05-03T15:39:37.713Z</time></trkpt><trkpt lat="45.1840067" lon="8.6070526"><ele>101.0</ele><time>2026-05-03T15:39:38.704Z</time></trkpt><trkpt lat="45.1841093" lon="8.6068915"><ele>101.66666666666666</ele><time>2026-05-03T15:39:39.705Z</time></trkpt><trkpt lat="45.1842218" lon="8.606734"><ele>102.33333333333334</ele><time>2026-05-03T15:39:40.706Z</time></trkpt><trkpt lat="45.1843581" lon="8.6066057"><ele>103.0</ele><time>2026-05-03T15:39:41.715Z</time></trkpt><trkpt lat="45.1844727" lon="8.6064762"><ele>103.0</ele><time>2026-05-03T15:39:42.706Z</time></trkpt><trkpt lat="45.1846024" lon="8.6063281"><ele>103.0</ele><time>2026-05-03T15:39:43.716Z</time></trkpt><trkpt lat="45.1847203" lon="8.6061942"><ele>103.0</ele><time>2026-05-03T15:39:44.71Z</time></trkpt><trkpt lat="45.1848539" lon="8.6060133"><ele>103.0</ele><time>2026-05-03T15:39:45.71Z</time></trkpt><trkpt lat="45.1849994" lon="8.6058234"><ele>103.0</ele><time>2026-05-03T15:39:46.703Z</time></trkpt><trkpt lat="45.1851413" lon="8.6056158"><ele>103.0</ele><time>2026-05-03T15:39:47.715Z</time></trkpt><trkpt lat="45.1852949" lon="8.605448"><ele>102.0</ele><time>2026-05-03T15:39:48.718Z</time></trkpt><trkpt lat="45.185482" lon="8.6052082"><ele>101.0</ele><time>2026-05-03T15:39:49.713Z</time></trkpt><trkpt lat="45.1856491" lon="8.6050122"><ele>101.33333333333333</ele><time>2026-05-03T15:39:50.699Z</time></trkpt><trkpt lat="45.185808" lon="8.6048177"><ele>101.66666666666666</ele><time>2026-05-03T15:39:51.712Z</time></trkpt><trkpt lat="45.1859741" lon="8.6046333"><ele>102.0</ele><time>2026-05-03T15:39:52.708Z</time></trkpt><trkpt lat="45.1861208" lon="8.604505"><ele>102.0</ele><time>2026-05-03T15:39:53.707Z</time></trkpt><trkpt lat="45.1862504" lon="8.6043533"><ele>102.0</ele><time>2026-05-03T15:39:54.708Z</time></trkpt><trkpt lat="45.1863885" lon="8.6041959"><ele>102.0</ele><time>2026-05-03T15:39:55.705Z</time></trkpt><trkpt lat="45.1865044" lon="8.6040794"><ele>101.5</ele><time>2026-05-03T15:39:56.695Z</time></trkpt><trkpt lat="45.1866366" lon="8.6040025"><ele>101.0</ele><time>2026-05-03T15:39:57.708Z</time></trkpt><trkpt lat="45.186784" lon="8.6039654"><ele>100.5</ele><time>2026-05-03T15:39:58.7Z</time></trkpt><trkpt lat="45.1869275" lon="8.6039154"><ele>100.0</ele><time>2026-05-03T15:39:59.71Z</time></trkpt><trkpt lat="45.1870805" lon="8.6038811"><ele>100.0</ele><time>2026-05-03T15:40:00.69Z</time></trkpt><trkpt lat="45.187147" lon="8.6037658"><ele>100.0</ele><time>2026-05-03T15:40:01.692Z</time></trkpt><trkpt lat="45.1871963" lon="8.6035966"><ele>100.0</ele><time>2026-05-03T15:40:02.677Z</time></trkpt><trkpt lat="45.1872396" lon="8.6033825"><ele>100.0</ele><time>2026-05-03T15:40:03.682Z</time></trkpt><trkpt lat="45.1872926" lon="8.6031028"><ele>100.5</ele><time>2026-05-03T15:40:04.675Z</time></trkpt><trkpt lat="45.1873926" lon="8.6027886"><ele>101.0</ele><time>2026-05-03T15:40:05.681Z</time></trkpt><trkpt lat="45.1875562" lon="8.6025113"><ele>101.0</ele><time>2026-05-03T15:40:06.692Z</time></trkpt><trkpt lat="45.1877476" lon="8.6021697"><ele>101.0</ele><time>2026-05-03T15:40:07.696Z</time></trkpt><trkpt lat="45.1879217" lon="8.6019229"><ele>101.5</ele><time>2026-05-03T15:40:08.686Z</time></trkpt><trkpt lat="45.1881291" lon="8.6016132"><ele>102.0</ele><time>2026-05-03T15:40:09.679Z</time></trkpt><trkpt lat="45.1883529" lon="8.6012497"><ele>102.0</ele><time>2026-05-03T15:40:10.692Z</time></trkpt><trkpt lat="45.1885848" lon="8.6008958"><ele>102.0</ele><time>2026-05-03T15:40:11.69Z</time></trkpt><trkpt lat="45.1888036" lon="8.6005229"><ele>101.5</ele><time>2026-05-03T15:40:12.7Z</time></trkpt><trkpt lat="45.1890286" lon="8.600163"><ele>101.0</ele><time>2026-05-03T15:40:13.703Z</time></trkpt><trkpt lat="45.1892479" lon="8.5997748"><ele>101.5</ele><time>2026-05-03T15:40:14.705Z</time></trkpt><trkpt lat="45.1894807" lon="8.5994044"><ele>102.0</ele><time>2026-05-03T15:40:15.702Z</time></trkpt><trkpt lat="45.189701" lon="8.5990351"><ele>103.0</ele><time>2026-05-03T15:40:16.711Z</time></trkpt><trkpt lat="45.1899042" lon="8.5987369"><ele>104.0</ele><time>2026-05-03T15:40:17.701Z</time></trkpt><trkpt lat="45.1901189" lon="8.5983915"><ele>104.0</ele><time>2026-05-03T15:40:18.791Z</time></trkpt><trkpt lat="45.1903283" lon="8.5980593"><ele>104.0</ele><time>2026-05-03T15:40:19.798Z</time></trkpt><trkpt lat="45.190539" lon="8.5977324"><ele>103.5</ele><time>2026-05-03T15:40:20.798Z</time></trkpt><trkpt lat="45.1907464" lon="8.5974079"><ele>103.0</ele><time>2026-05-03T15:40:21.793Z</time></trkpt><trkpt lat="45.1909565" lon="8.5970751"><ele>103.0</ele><time>2026-05-03T15:40:22.795Z</time></trkpt><trkpt lat="45.1911657" lon="8.5967468"><ele>103.0</ele><time>2026-05-03T15:40:23.802Z</time></trkpt><trkpt lat="45.1913763" lon="8.5964159"><ele>103.5</ele><time>2026-05-03T15:40:24.803Z</time></trkpt><trkpt lat="45.1915846" lon="8.5960864"><ele>104.0</ele><time>2026-05-03T15:40:25.8Z</time></trkpt><trkpt lat="45.1917901" lon="8.5957561"><ele>104.0</ele><time>2026-05-03T15:40:26.804Z</time></trkpt><trkpt lat="45.1919939" lon="8.5954299"><ele>104.0</ele><time>2026-05-03T15:40:27.798Z</time></trkpt><trkpt lat="45.1921953" lon="8.5951077"><ele>103.5</ele><time>2026-05-03T15:40:28.807Z</time></trkpt><trkpt lat="45.1923955" lon="8.5947589"><ele>103.0</ele><time>2026-05-03T15:40:29.802Z</time></trkpt><trkpt lat="45.1926037" lon="8.5944273"><ele>103.0</ele><time>2026-05-03T15:40:30.799Z</time></trkpt><trkpt lat="45.1928071" lon="8.5940942"><ele>103.0</ele><time>2026-05-03T15:40:31.81Z</time></trkpt><trkpt lat="45.1930125" lon="8.5937645"><ele>103.5</ele><time>2026-05-03T15:40:32.797Z</time></trkpt><trkpt lat="45.1932173" lon="8.5934313"><ele>104.0</ele><time>2026-05-03T15:40:33.816Z</time></trkpt><trkpt lat="45.193425" lon="8.5930976"><ele>103.0</ele><time>2026-05-03T15:40:34.802Z</time></trkpt><trkpt lat="45.1936328" lon="8.5927645"><ele>102.0</ele><time>2026-05-03T15:40:35.804Z</time></trkpt><trkpt lat="45.1938412" lon="8.5924326"><ele>102.0</ele><time>2026-05-03T15:40:36.81Z</time></trkpt><trkpt lat="45.1940495" lon="8.5920967"><ele>102.0</ele><time>2026-05-03T15:40:37.815Z</time></trkpt><trkpt lat="45.1942585" lon="8.5917615"><ele>102.0</ele><time>2026-05-03T15:40:38.8Z</time></trkpt><trkpt lat="45.1944672" lon="8.5914214"><ele>102.0</ele><time>2026-05-03T15:40:39.823Z</time></trkpt><trkpt lat="45.1946746" lon="8.5910789"><ele>102.5</ele><time>2026-05-03T15:40:40.805Z</time></trkpt><trkpt lat="45.1948803" lon="8.5907415"><ele>103.0</ele><time>2026-05-03T15:40:41.81Z</time></trkpt><trkpt lat="45.1950871" lon="8.5904057"><ele>102.5</ele><time>2026-05-03T15:40:42.804Z</time></trkpt><trkpt lat="45.1952963" lon="8.5900732"><ele>102.0</ele><time>2026-05-03T15:40:43.802Z</time></trkpt><trkpt lat="45.1955057" lon="8.5897381"><ele>102.0</ele><time>2026-05-03T15:40:44.805Z</time></trkpt><trkpt lat="45.1957141" lon="8.5894057"><ele>102.0</ele><time>2026-05-03T15:40:45.799Z</time></trkpt><trkpt lat="45.1959176" lon="8.5890629"><ele>102.0</ele><time>2026-05-03T15:40:46.804Z</time></trkpt><trkpt lat="45.1961223" lon="8.5887185"><ele>102.0</ele><time>2026-05-03T15:40:47.809Z</time></trkpt><trkpt lat="45.1963302" lon="8.5883723"><ele>102.0</ele><time>2026-05-03T15:40:48.809Z</time></trkpt><trkpt lat="45.1965393" lon="8.5880204"><ele>102.0</ele><time>2026-05-03T15:40:49.809Z</time></trkpt><trkpt lat="45.1967475" lon="8.5876687"><ele>102.5</ele><time>2026-05-03T15:40:50.803Z</time></trkpt><trkpt lat="45.1969614" lon="8.5873187"><ele>103.0</ele><time>2026-05-03T15:40:51.8Z</time></trkpt><trkpt lat="45.1971779" lon="8.5869732"><ele>103.5</ele><time>2026-05-03T15:40:52.804Z</time></trkpt><trkpt lat="45.1973956" lon="8.5866259"><ele>104.0</ele><time>2026-05-03T15:40:53.805Z</time></trkpt><trkpt lat="45.1976128" lon="8.586275"><ele>104.0</ele><time>2026-05-03T15:40:54.804Z</time></trkpt><trkpt lat="45.1978303" lon="8.5859185"><ele>104.0</ele><time>2026-05-03T15:40:55.801Z</time></trkpt><trkpt lat="45.1980462" lon="8.5855628"><ele>103.5</ele><time>2026-05-03T15:40:56.811Z</time></trkpt><trkpt lat="45.1982612" lon="8.5852127"><ele>103.0</ele><time>2026-05-03T15:40:57.805Z</time></trkpt><trkpt lat="45.1984793" lon="8.5848597"><ele>103.5</ele><time>2026-05-03T15:40:58.803Z</time></trkpt><trkpt lat="45.1986955" lon="8.5845044"><ele>104.0</ele><time>2026-05-03T15:40:59.82Z</time></trkpt><trkpt lat="45.1989091" lon="8.5841545"><ele>104.0</ele><time>2026-05-03T15:41:00.796Z</time></trkpt><trkpt lat="45.1991248" lon="8.5838146"><ele>104.0</ele><time>2026-05-03T15:41:01.811Z</time></trkpt><trkpt lat="45.1993415" lon="8.5834814"><ele>104.5</ele><time>2026-05-03T15:41:02.801Z</time></trkpt><trkpt lat="45.199551" lon="8.5831543"><ele>105.0</ele><time>2026-05-03T15:41:03.806Z</time></trkpt><trkpt lat="45.1997497" lon="8.5828274"><ele>104.0</ele><time>2026-05-03T15:41:04.814Z</time></trkpt><trkpt lat="45.199945" lon="8.5825046"><ele>103.0</ele><time>2026-05-03T15:41:05.803Z</time></trkpt><trkpt lat="45.2001349" lon="8.5821849"><ele>103.0</ele><time>2026-05-03T15:41:06.81Z</time></trkpt><trkpt lat="45.2003255" lon="8.5818583"><ele>103.0</ele><time>2026-05-03T15:41:07.804Z</time></trkpt><trkpt lat="45.2005194" lon="8.5815316"><ele>103.0</ele><time>2026-05-03T15:41:08.794Z</time></trkpt><trkpt lat="45.2007199" lon="8.581214"><ele>103.0</ele><time>2026-05-03T15:41:09.792Z</time></trkpt><trkpt lat="45.2009277" lon="8.5808942"><ele>102.5</ele><time>2026-05-03T15:41:10.803Z</time></trkpt><trkpt lat="45.2011383" lon="8.5805861"><ele>102.0</ele><time>2026-05-03T15:41:11.809Z</time></trkpt><trkpt lat="45.2013565" lon="8.5802903"><ele>102.5</ele><time>2026-05-03T15:41:12.803Z</time></trkpt><trkpt lat="45.2015879" lon="8.5799999"><ele>103.0</ele><time>2026-05-03T15:41:13.797Z</time></trkpt><trkpt lat="45.2018313" lon="8.5797286"><ele>103.0</ele><time>2026-05-03T15:41:14.791Z</time></trkpt><trkpt lat="45.2020853" lon="8.5794711"><ele>103.0</ele><time>2026-05-03T15:41:15.797Z</time></trkpt><trkpt lat="45.2023381" lon="8.5792253"><ele>103.0</ele><time>2026-05-03T15:41:16.804Z</time></trkpt><trkpt lat="45.2025963" lon="8.5789808"><ele>103.0</ele><time>2026-05-03T15:41:17.806Z</time></trkpt><trkpt lat="45.2028545" lon="8.5787402"><ele>103.0</ele><time>2026-05-03T15:41:18.802Z</time></trkpt><trkpt lat="45.2031168" lon="8.5785002"><ele>103.0</ele><time>2026-05-03T15:41:19.8Z</time></trkpt><trkpt lat="45.2033739" lon="8.5782706"><ele>103.0</ele><time>2026-05-03T15:41:20.798Z</time></trkpt><trkpt lat="45.2036185" lon="8.5780592"><ele>103.0</ele><time>2026-05-03T15:41:21.784Z</time></trkpt><trkpt lat="45.2038409" lon="8.5778568"><ele>102.5</ele><time>2026-05-03T15:41:22.791Z</time></trkpt><trkpt lat="45.2040479" lon="8.5776733"><ele>102.0</ele><time>2026-05-03T15:41:23.8Z</time></trkpt><trkpt lat="45.2042471" lon="8.5774965"><ele>102.0</ele><time>2026-05-03T15:41:24.811Z</time></trkpt><trkpt lat="45.2044391" lon="8.5773242"><ele>102.0</ele><time>2026-05-03T15:41:25.798Z</time></trkpt><trkpt lat="45.204629" lon="8.5771517"><ele>102.0</ele><time>2026-05-03T15:41:26.804Z</time></trkpt><trkpt lat="45.204817" lon="8.5769779"><ele>102.0</ele><time>2026-05-03T15:41:27.796Z</time></trkpt><trkpt lat="45.205007" lon="8.5768062"><ele>102.0</ele><time>2026-05-03T15:41:28.808Z</time></trkpt><trkpt lat="45.2051989" lon="8.5766329"><ele>102.0</ele><time>2026-05-03T15:41:29.808Z</time></trkpt><trkpt lat="45.2053909" lon="8.5764596"><ele>102.0</ele><time>2026-05-03T15:41:30.804Z</time></trkpt><trkpt lat="45.2055826" lon="8.576283"><ele>102.0</ele><time>2026-05-03T15:41:31.811Z</time></trkpt><trkpt lat="45.2057767" lon="8.5761014"><ele>102.5</ele><time>2026-05-03T15:41:32.809Z</time></trkpt><trkpt lat="45.2059729" lon="8.5759156"><ele>103.0</ele><time>2026-05-03T15:41:33.811Z</time></trkpt><trkpt lat="45.2061713" lon="8.5757269"><ele>103.0</ele><time>2026-05-03T15:41:34.805Z</time></trkpt><trkpt lat="45.2063718" lon="8.5755356"><ele>103.0</ele><time>2026-05-03T15:41:35.812Z</time></trkpt><trkpt lat="45.2065707" lon="8.5753444"><ele>102.0</ele><time>2026-05-03T15:41:36.807Z</time></trkpt><trkpt lat="45.2067693" lon="8.5751537"><ele>101.0</ele><time>2026-05-03T15:41:37.806Z</time></trkpt><trkpt lat="45.2069675" lon="8.5749641"><ele>101.0</ele><time>2026-05-03T15:41:38.803Z</time></trkpt><trkpt lat="45.2071678" lon="8.5747719"><ele>101.0</ele><time>2026-05-03T15:41:39.817Z</time></trkpt><trkpt lat="45.20737" lon="8.5745792"><ele>102.0</ele><time>2026-05-03T15:41:40.803Z</time></trkpt><trkpt lat="45.2075722" lon="8.5743897"><ele>103.0</ele><time>2026-05-03T15:41:41.809Z</time></trkpt><trkpt lat="45.2077756" lon="8.574202"><ele>103.0</ele><time>2026-05-03T15:41:42.81Z</time></trkpt><trkpt lat="45.2079723" lon="8.5740189"><ele>103.0</ele><time>2026-05-03T15:41:43.812Z</time></trkpt><trkpt lat="45.2081787" lon="8.5738194"><ele>102.5</ele><time>2026-05-03T15:41:44.805Z</time></trkpt><trkpt lat="45.2083873" lon="8.5736159"><ele>102.0</ele><time>2026-05-03T15:41:45.811Z</time></trkpt><trkpt lat="45.208592" lon="8.5734231"><ele>102.0</ele><time>2026-05-03T15:41:46.797Z</time></trkpt><trkpt lat="45.2087983" lon="8.5732387"><ele>102.0</ele><time>2026-05-03T15:41:47.815Z</time></trkpt><trkpt lat="45.2090055" lon="8.5730551"><ele>103.0</ele><time>2026-05-03T15:41:48.806Z</time></trkpt><trkpt lat="45.2092083" lon="8.5728632"><ele>104.0</ele><time>2026-05-03T15:41:49.809Z</time></trkpt><trkpt lat="45.2094026" lon="8.5726594"><ele>104.5</ele><time>2026-05-03T15:41:50.798Z</time></trkpt><trkpt lat="45.2095869" lon="8.572436"><ele>105.0</ele><time>2026-05-03T15:41:51.803Z</time></trkpt><trkpt lat="45.2097567" lon="8.5722155"><ele>106.0</ele><time>2026-05-03T15:41:52.795Z</time></trkpt><trkpt lat="45.2099153" lon="8.571977"><ele>107.0</ele><time>2026-05-03T15:41:53.785Z</time></trkpt><trkpt lat="45.2100634" lon="8.5717215"><ele>107.0</ele><time>2026-05-03T15:41:54.771Z</time></trkpt><trkpt lat="45.2101971" lon="8.5714528"><ele>107.0</ele><time>2026-05-03T15:41:55.787Z</time></trkpt><trkpt lat="45.2103189" lon="8.5711668"><ele>106.5</ele><time>2026-05-03T15:41:56.779Z</time></trkpt><trkpt lat="45.2104273" lon="8.5708646"><ele>106.0</ele><time>2026-05-03T15:41:57.79Z</time></trkpt><trkpt lat="45.2105223" lon="8.5705493"><ele>105.5</ele><time>2026-05-03T15:41:58.799Z</time></trkpt><trkpt lat="45.2106059" lon="8.5702245"><ele>105.0</ele><time>2026-05-03T15:41:59.8Z</time></trkpt><trkpt lat="45.2106756" lon="8.5699069"><ele>106.0</ele><time>2026-05-03T15:42:00.787Z</time></trkpt><trkpt lat="45.2107329" lon="8.5695679"><ele>107.0</ele><time>2026-05-03T15:42:01.78Z</time></trkpt><trkpt lat="45.2107812" lon="8.5692221"><ele>107.0</ele><time>2026-05-03T15:42:02.784Z</time></trkpt><trkpt lat="45.210833" lon="8.5688642"><ele>107.0</ele><time>2026-05-03T15:42:03.789Z</time></trkpt><trkpt lat="45.2108875" lon="8.568494"><ele>107.0</ele><time>2026-05-03T15:42:04.78Z</time></trkpt><trkpt lat="45.210948" lon="8.5681195"><ele>107.0</ele><time>2026-05-03T15:42:05.812Z</time></trkpt><trkpt lat="45.211008" lon="8.5677402"><ele>107.0</ele><time>2026-05-03T15:42:06.806Z</time></trkpt><trkpt lat="45.2110698" lon="8.5673685"><ele>107.0</ele><time>2026-05-03T15:42:07.803Z</time></trkpt><trkpt lat="45.2111297" lon="8.5669901"><ele>106.5</ele><time>2026-05-03T15:42:08.801Z</time></trkpt><trkpt lat="45.2111927" lon="8.5666058"><ele>106.0</ele><time>2026-05-03T15:42:09.808Z</time></trkpt><trkpt lat="45.2112555" lon="8.5662202"><ele>106.5</ele><time>2026-05-03T15:42:10.799Z</time></trkpt><trkpt lat="45.2113195" lon="8.5658328"><ele>107.0</ele><time>2026-05-03T15:42:11.796Z</time></trkpt><trkpt lat="45.211382" lon="8.5654379"><ele>107.0</ele><time>2026-05-03T15:42:12.792Z</time></trkpt><trkpt lat="45.211445" lon="8.5650379"><ele>107.0</ele><time>2026-05-03T15:42:13.8Z</time></trkpt><trkpt lat="45.2115111" lon="8.5646436"><ele>106.0</ele><time>2026-05-03T15:42:14.81Z</time></trkpt><trkpt lat="45.211575" lon="8.5642424"><ele>105.0</ele><time>2026-05-03T15:42:15.8Z</time></trkpt><trkpt lat="45.2116408" lon="8.5638478"><ele>105.5</ele><time>2026-05-03T15:42:16.808Z</time></trkpt><trkpt lat="45.21171" lon="8.5634483"><ele>106.0</ele><time>2026-05-03T15:42:17.801Z</time></trkpt><trkpt lat="45.2117768" lon="8.5630457"><ele>105.5</ele><time>2026-05-03T15:42:18.803Z</time></trkpt><trkpt lat="45.2118396" lon="8.5626402"><ele>105.0</ele><time>2026-05-03T15:42:19.804Z</time></trkpt><trkpt lat="45.2119018" lon="8.5622283"><ele>105.0</ele><time>2026-05-03T15:42:20.802Z</time></trkpt><trkpt lat="45.2119667" lon="8.5618177"><ele>105.0</ele><time>2026-05-03T15:42:21.81Z</time></trkpt><trkpt lat="45.2120293" lon="8.5614166"><ele>105.0</ele><time>2026-05-03T15:42:22.803Z</time></trkpt><trkpt lat="45.2120938" lon="8.5610248"><ele>105.0</ele><time>2026-05-03T15:42:23.811Z</time></trkpt><trkpt lat="45.2121548" lon="8.5606257"><ele>106.0</ele><time>2026-05-03T15:42:24.806Z</time></trkpt><trkpt lat="45.2122101" lon="8.5602421"><ele>107.0</ele><time>2026-05-03T15:42:25.811Z</time></trkpt><trkpt lat="45.2122597" lon="8.559855"><ele>106.5</ele><time>2026-05-03T15:42:26.803Z</time></trkpt><trkpt lat="45.2122987" lon="8.5594644"><ele>106.0</ele><time>2026-05-03T15:42:27.803Z</time></trkpt><trkpt lat="45.2123252" lon="8.5590744"><ele>106.5</ele><time>2026-05-03T15:42:28.799Z</time></trkpt><trkpt lat="45.2123417" lon="8.5586805"><ele>107.0</ele><time>2026-05-03T15:42:29.801Z</time></trkpt><trkpt lat="45.2123446" lon="8.5582804"><ele>107.0</ele><time>2026-05-03T15:42:30.806Z</time></trkpt><trkpt lat="45.2123353" lon="8.5578816"><ele>107.0</ele><time>2026-05-03T15:42:31.809Z</time></trkpt><trkpt lat="45.2123137" lon="8.5574769"><ele>105.5</ele><time>2026-05-03T15:42:32.807Z</time></trkpt><trkpt lat="45.2122817" lon="8.5570717"><ele>104.0</ele><time>2026-05-03T15:42:33.8Z</time></trkpt><trkpt lat="45.2122392" lon="8.55666"><ele>104.0</ele><time>2026-05-03T15:42:34.799Z</time></trkpt><trkpt lat="45.2121812" lon="8.5562514"><ele>104.0</ele><time>2026-05-03T15:42:35.8Z</time></trkpt><trkpt lat="45.2121124" lon="8.5558534"><ele>104.5</ele><time>2026-05-03T15:42:36.795Z</time></trkpt><trkpt lat="45.2120321" lon="8.5554638"><ele>105.0</ele><time>2026-05-03T15:42:37.793Z</time></trkpt><trkpt lat="45.2119319" lon="8.555077"><ele>105.0</ele><time>2026-05-03T15:42:38.77Z</time></trkpt><trkpt lat="45.2118137" lon="8.5546937"><ele>105.0</ele><time>2026-05-03T15:42:39.785Z</time></trkpt><trkpt lat="45.2116937" lon="8.5543209"><ele>105.0</ele><time>2026-05-03T15:42:40.777Z</time></trkpt><trkpt lat="45.2115621" lon="8.5539519"><ele>105.0</ele><time>2026-05-03T15:42:41.782Z</time></trkpt><trkpt lat="45.2114161" lon="8.5535861"><ele>104.5</ele><time>2026-05-03T15:42:42.792Z</time></trkpt><trkpt lat="45.2112636" lon="8.5532357"><ele>104.0</ele><time>2026-05-03T15:42:43.798Z</time></trkpt><trkpt lat="45.211101" lon="8.5528969"><ele>104.0</ele><time>2026-05-03T15:42:44.8Z</time></trkpt><trkpt lat="45.2109297" lon="8.552563"><ele>104.0</ele><time>2026-05-03T15:42:45.796Z</time></trkpt><trkpt lat="45.2107504" lon="8.5522342"><ele>104.5</ele><time>2026-05-03T15:42:46.798Z</time></trkpt><trkpt lat="45.2105721" lon="8.5519021"><ele>105.0</ele><time>2026-05-03T15:42:47.797Z</time></trkpt><trkpt lat="45.2103883" lon="8.5515638"><ele>105.0</ele><time>2026-05-03T15:42:48.804Z</time></trkpt><trkpt lat="45.2102098" lon="8.5512274"><ele>105.0</ele><time>2026-05-03T15:42:49.807Z</time></trkpt><trkpt lat="45.2100398" lon="8.5509134"><ele>105.0</ele><time>2026-05-03T15:42:50.801Z</time></trkpt><trkpt lat="45.2098759" lon="8.5505971"><ele>105.0</ele><time>2026-05-03T15:42:51.792Z</time></trkpt><trkpt lat="45.2097136" lon="8.5502746"><ele>105.0</ele><time>2026-05-03T15:42:52.8Z</time></trkpt><trkpt lat="45.209552" lon="8.5499597"><ele>105.0</ele><time>2026-05-03T15:42:53.807Z</time></trkpt><trkpt lat="45.2093927" lon="8.5496396"><ele>105.5</ele><time>2026-05-03T15:42:54.792Z</time></trkpt><trkpt lat="45.2092352" lon="8.5493182"><ele>106.0</ele><time>2026-05-03T15:42:55.802Z</time></trkpt><trkpt lat="45.2090682" lon="8.5490052"><ele>105.5</ele><time>2026-05-03T15:42:56.795Z</time></trkpt><trkpt lat="45.2089007" lon="8.5486892"><ele>105.0</ele><time>2026-05-03T15:42:57.796Z</time></trkpt><trkpt lat="45.2087298" lon="8.5483661"><ele>105.0</ele><time>2026-05-03T15:42:58.798Z</time></trkpt><trkpt lat="45.2085608" lon="8.5480405"><ele>105.0</ele><time>2026-05-03T15:42:59.814Z</time></trkpt><trkpt lat="45.2084108" lon="8.5476746"><ele>105.0</ele><time>2026-05-03T15:43:00.787Z</time></trkpt><trkpt lat="45.2082443" lon="8.547324"><ele>105.0</ele><time>2026-05-03T15:43:01.806Z</time></trkpt><trkpt lat="45.2080783" lon="8.5469746"><ele>103.5</ele><time>2026-05-03T15:43:02.79Z</time></trkpt><trkpt lat="45.207908" lon="8.546635"><ele>102.0</ele><time>2026-05-03T15:43:03.811Z</time></trkpt><trkpt lat="45.2077317" lon="8.5462955"><ele>101.0</ele><time>2026-05-03T15:43:04.8Z</time></trkpt><trkpt lat="45.2075549" lon="8.5459632"><ele>100.0</ele><time>2026-05-03T15:43:05.804Z</time></trkpt><trkpt lat="45.2073788" lon="8.5456326"><ele>103.0</ele><time>2026-05-03T15:43:06.803Z</time></trkpt><trkpt lat="45.2072054" lon="8.5453053"><ele>106.0</ele><time>2026-05-03T15:43:07.8Z</time></trkpt><trkpt lat="45.2070361" lon="8.5449784"><ele>106.0</ele><time>2026-05-03T15:43:08.814Z</time></trkpt><trkpt lat="45.2068635" lon="8.5446505"><ele>106.0</ele><time>2026-05-03T15:43:09.806Z</time></trkpt><trkpt lat="45.2066913" lon="8.5443243"><ele>105.5</ele><time>2026-05-03T15:43:10.799Z</time></trkpt><trkpt lat="45.2065219" lon="8.5439976"><ele>105.0</ele><time>2026-05-03T15:43:11.798Z</time></trkpt><trkpt lat="45.20635" lon="8.5436716"><ele>104.0</ele><time>2026-05-03T15:43:12.807Z</time></trkpt><trkpt lat="45.2061827" lon="8.5433582"><ele>103.0</ele><time>2026-05-03T15:43:13.794Z</time></trkpt><trkpt lat="45.206022" lon="8.5430629"><ele>103.0</ele><time>2026-05-03T15:43:14.791Z</time></trkpt><trkpt lat="45.2058705" lon="8.5427711"><ele>103.0</ele><time>2026-05-03T15:43:15.81Z</time></trkpt><trkpt lat="45.2057158" lon="8.5424716"><ele>103.0</ele><time>2026-05-03T15:43:16.802Z</time></trkpt><trkpt lat="45.2055666" lon="8.5421644"><ele>103.0</ele><time>2026-05-03T15:43:17.8Z</time></trkpt><trkpt lat="45.2054293" lon="8.5418445"><ele>103.5</ele><time>2026-05-03T15:43:18.793Z</time></trkpt><trkpt lat="45.2053127" lon="8.5415025"><ele>104.0</ele><time>2026-05-03T15:43:19.802Z</time></trkpt><trkpt lat="45.2052099" lon="8.5411445"><ele>104.5</ele><time>2026-05-03T15:43:20.798Z</time></trkpt><trkpt lat="45.205133" lon="8.5407693"><ele>105.0</ele><time>2026-05-03T15:43:21.765Z</time></trkpt><trkpt lat="45.2050722" lon="8.5403838"><ele>105.5</ele><time>2026-05-03T15:43:22.776Z</time></trkpt><trkpt lat="45.2050375" lon="8.539993"><ele>106.0</ele><time>2026-05-03T15:43:23.772Z</time></trkpt><trkpt lat="45.2050278" lon="8.5395992"><ele>106.0</ele><time>2026-05-03T15:43:24.773Z</time></trkpt><trkpt lat="45.20504" lon="8.5392016"><ele>106.0</ele><time>2026-05-03T15:43:25.785Z</time></trkpt><trkpt lat="45.2050651" lon="8.5387977"><ele>104.5</ele><time>2026-05-03T15:43:26.791Z</time></trkpt><trkpt lat="45.2051113" lon="8.5383913"><ele>103.0</ele><time>2026-05-03T15:43:27.781Z</time></trkpt><trkpt lat="45.205173" lon="8.5379716"><ele>103.0</ele><time>2026-05-03T15:43:28.781Z</time></trkpt><trkpt lat="45.2052651" lon="8.5375685"><ele>103.0</ele><time>2026-05-03T15:43:29.783Z</time></trkpt><trkpt lat="45.2054155" lon="8.5371685"><ele>103.5</ele><time>2026-05-03T15:43:30.777Z</time></trkpt><trkpt lat="45.2055765" lon="8.5367742"><ele>104.0</ele><time>2026-05-03T15:43:31.801Z</time></trkpt><trkpt lat="45.2057234" lon="8.536375"><ele>104.5</ele><time>2026-05-03T15:43:32.8Z</time></trkpt><trkpt lat="45.2058547" lon="8.5359774"><ele>105.0</ele><time>2026-05-03T15:43:33.806Z</time></trkpt><trkpt lat="45.2059907" lon="8.5356001"><ele>104.5</ele><time>2026-05-03T15:43:34.807Z</time></trkpt><trkpt lat="45.2061224" lon="8.5352246"><ele>104.0</ele><time>2026-05-03T15:43:35.8Z</time></trkpt><trkpt lat="45.2062519" lon="8.5348458"><ele>103.0</ele><time>2026-05-03T15:43:36.804Z</time></trkpt><trkpt lat="45.2063745" lon="8.5344629"><ele>102.0</ele><time>2026-05-03T15:43:37.806Z</time></trkpt><trkpt lat="45.2064923" lon="8.534093"><ele>103.0</ele><time>2026-05-03T15:43:38.802Z</time></trkpt><trkpt lat="45.2066097" lon="8.5337445"><ele>104.0</ele><time>2026-05-03T15:43:39.803Z</time></trkpt><trkpt lat="45.2067199" lon="8.5334029"><ele>104.0</ele><time>2026-05-03T15:43:40.8Z</time></trkpt><trkpt lat="45.206832" lon="8.5330594"><ele>104.0</ele><time>2026-05-03T15:43:41.8Z</time></trkpt><trkpt lat="45.2069453" lon="8.5327172"><ele>103.5</ele><time>2026-05-03T15:43:42.804Z</time></trkpt><trkpt lat="45.2070572" lon="8.5323865"><ele>103.0</ele><time>2026-05-03T15:43:43.811Z</time></trkpt><trkpt lat="45.2071688" lon="8.5320613"><ele>103.5</ele><time>2026-05-03T15:43:44.797Z</time></trkpt><trkpt lat="45.207279" lon="8.531737"><ele>104.0</ele><time>2026-05-03T15:43:45.808Z</time></trkpt><trkpt lat="45.2073882" lon="8.5314052"><ele>103.5</ele><time>2026-05-03T15:43:46.812Z</time></trkpt><trkpt lat="45.2074998" lon="8.5310546"><ele>103.0</ele><time>2026-05-03T15:43:47.802Z</time></trkpt><trkpt lat="45.2076219" lon="8.5306911"><ele>103.0</ele><time>2026-05-03T15:43:48.805Z</time></trkpt><trkpt lat="45.2077552" lon="8.5303187"><ele>103.0</ele><time>2026-05-03T15:43:49.809Z</time></trkpt><trkpt lat="45.2078878" lon="8.5299429"><ele>103.5</ele><time>2026-05-03T15:43:50.808Z</time></trkpt><trkpt lat="45.2080185" lon="8.5295587"><ele>104.0</ele><time>2026-05-03T15:43:51.809Z</time></trkpt><trkpt lat="45.2081451" lon="8.5291712"><ele>104.0</ele><time>2026-05-03T15:43:52.797Z</time></trkpt><trkpt lat="45.2082734" lon="8.5287876"><ele>104.0</ele><time>2026-05-03T15:43:53.817Z</time></trkpt><trkpt lat="45.2084001" lon="8.5284044"><ele>104.0</ele><time>2026-05-03T15:43:54.804Z</time></trkpt><trkpt lat="45.2085289" lon="8.5280252"><ele>104.0</ele><time>2026-05-03T15:43:55.803Z</time></trkpt><trkpt lat="45.2086524" lon="8.5276499"><ele>104.0</ele><time>2026-05-03T15:43:56.81Z</time></trkpt><trkpt lat="45.2087756" lon="8.5272712"><ele>104.0</ele><time>2026-05-03T15:43:57.806Z</time></trkpt><trkpt lat="45.2089008" lon="8.5268988"><ele>104.5</ele><time>2026-05-03T15:43:58.814Z</time></trkpt><trkpt lat="45.2090279" lon="8.526523"><ele>105.0</ele><time>2026-05-03T15:43:59.814Z</time></trkpt><trkpt lat="45.2091522" lon="8.5261463"><ele>105.0</ele><time>2026-05-03T15:44:00.8Z</time></trkpt><trkpt lat="45.209276" lon="8.5257676"><ele>105.0</ele><time>2026-05-03T15:44:01.814Z</time></trkpt><trkpt lat="45.2093983" lon="8.5253865"><ele>104.5</ele><time>2026-05-03T15:44:02.81Z</time></trkpt><trkpt lat="45.2095202" lon="8.5250011"><ele>104.0</ele><time>2026-05-03T15:44:03.809Z</time></trkpt><trkpt lat="45.2096423" lon="8.5246265"><ele>104.0</ele><time>2026-05-03T15:44:04.811Z</time></trkpt><trkpt lat="45.2097684" lon="8.5242594"><ele>104.0</ele><time>2026-05-03T15:44:05.814Z</time></trkpt><trkpt lat="45.2098907" lon="8.5238915"><ele>103.5</ele><time>2026-05-03T15:44:06.81Z</time></trkpt><trkpt lat="45.2100122" lon="8.523524"><ele>103.0</ele><time>2026-05-03T15:44:07.806Z</time></trkpt><trkpt lat="45.2101318" lon="8.5231605"><ele>103.5</ele><time>2026-05-03T15:44:08.807Z</time></trkpt><trkpt lat="45.2102527" lon="8.5227971"><ele>104.0</ele><time>2026-05-03T15:44:09.805Z</time></trkpt><trkpt lat="45.2103696" lon="8.5224332"><ele>104.0</ele><time>2026-05-03T15:44:10.812Z</time></trkpt><trkpt lat="45.2104868" lon="8.5220739"><ele>104.0</ele><time>2026-05-03T15:44:11.811Z</time></trkpt><trkpt lat="45.2105998" lon="8.5217088"><ele>104.0</ele><time>2026-05-03T15:44:12.808Z</time></trkpt><trkpt lat="45.210709" lon="8.52135"><ele>104.0</ele><time>2026-05-03T15:44:13.802Z</time></trkpt><trkpt lat="45.2108113" lon="8.5209897"><ele>104.0</ele><time>2026-05-03T15:44:14.81Z</time></trkpt><trkpt lat="45.2109218" lon="8.5206257"><ele>104.0</ele><time>2026-05-03T15:44:15.813Z</time></trkpt><trkpt lat="45.211041" lon="8.5202696"><ele>104.0</ele><time>2026-05-03T15:44:16.81Z</time></trkpt><trkpt lat="45.2111665" lon="8.5199175"><ele>104.0</ele><time>2026-05-03T15:44:17.807Z</time></trkpt><trkpt lat="45.2112924" lon="8.5195635"><ele>104.5</ele><time>2026-05-03T15:44:18.806Z</time></trkpt><trkpt lat="45.2114177" lon="8.5192059"><ele>105.0</ele><time>2026-05-03T15:44:19.806Z</time></trkpt><trkpt lat="45.2115467" lon="8.5188393"><ele>105.5</ele><time>2026-05-03T15:44:20.822Z</time></trkpt><trkpt lat="45.2116742" lon="8.5184785"><ele>106.0</ele><time>2026-05-03T15:44:21.808Z</time></trkpt><trkpt lat="45.2117999" lon="8.5181023"><ele>105.5</ele><time>2026-05-03T15:44:22.816Z</time></trkpt><trkpt lat="45.2119257" lon="8.5177267"><ele>105.0</ele><time>2026-05-03T15:44:23.814Z</time></trkpt><trkpt lat="45.2120502" lon="8.5173525"><ele>105.5</ele><time>2026-05-03T15:44:24.816Z</time></trkpt><trkpt lat="45.2121763" lon="8.5169689"><ele>106.0</ele><time>2026-05-03T15:44:25.829Z</time></trkpt><trkpt lat="45.2123029" lon="8.5165988"><ele>106.5</ele><time>2026-05-03T15:44:26.811Z</time></trkpt><trkpt lat="45.2124287" lon="8.5162239"><ele>107.0</ele><time>2026-05-03T15:44:27.814Z</time></trkpt><trkpt lat="45.2125498" lon="8.5158489"><ele>107.0</ele><time>2026-05-03T15:44:28.812Z</time></trkpt><trkpt lat="45.2126679" lon="8.5154729"><ele>107.0</ele><time>2026-05-03T15:44:29.817Z</time></trkpt><trkpt lat="45.2127869" lon="8.515097"><ele>107.0</ele><time>2026-05-03T15:44:30.825Z</time></trkpt><trkpt lat="45.2129073" lon="8.514731"><ele>107.0</ele><time>2026-05-03T15:44:31.814Z</time></trkpt><trkpt lat="45.2130287" lon="8.5143624"><ele>107.0</ele><time>2026-05-03T15:44:32.81Z</time></trkpt><trkpt lat="45.2131506" lon="8.5139908"><ele>107.0</ele><time>2026-05-03T15:44:33.81Z</time></trkpt><trkpt lat="45.2132715" lon="8.5136206"><ele>106.5</ele><time>2026-05-03T15:44:34.811Z</time></trkpt><trkpt lat="45.2133933" lon="8.5132459"><ele>106.0</ele><time>2026-05-03T15:44:35.829Z</time></trkpt><trkpt lat="45.2135183" lon="8.512869"><ele>107.0</ele><time>2026-05-03T15:44:36.812Z</time></trkpt><trkpt lat="45.2136432" lon="8.5124938"><ele>108.0</ele><time>2026-05-03T15:44:37.82Z</time></trkpt><trkpt lat="45.2137639" lon="8.512125"><ele>107.5</ele><time>2026-05-03T15:44:38.813Z</time></trkpt><trkpt lat="45.2138805" lon="8.5117569"><ele>107.0</ele><time>2026-05-03T15:44:39.815Z</time></trkpt><trkpt lat="45.2139977" lon="8.5113861"><ele>106.5</ele><time>2026-05-03T15:44:40.822Z</time></trkpt><trkpt lat="45.2141208" lon="8.5110045"><ele>106.0</ele><time>2026-05-03T15:44:41.814Z</time></trkpt><trkpt lat="45.2142345" lon="8.510636"><ele>106.0</ele><time>2026-05-03T15:44:42.809Z</time></trkpt><trkpt lat="45.2143424" lon="8.5102939"><ele>106.0</ele><time>2026-05-03T15:44:43.8Z</time></trkpt><trkpt lat="45.2144461" lon="8.5099777"><ele>106.0</ele><time>2026-05-03T15:44:44.803Z</time></trkpt><trkpt lat="45.2145463" lon="8.5096676"><ele>106.0</ele><time>2026-05-03T15:44:45.818Z</time></trkpt><trkpt lat="45.2146467" lon="8.5093628"><ele>105.5</ele><time>2026-05-03T15:44:46.818Z</time></trkpt><trkpt lat="45.2147468" lon="8.5090635"><ele>105.0</ele><time>2026-05-03T15:44:47.81Z</time></trkpt><trkpt lat="45.2148462" lon="8.5087736"><ele>105.33333333333334</ele><time>2026-05-03T15:44:48.813Z</time></trkpt><trkpt lat="45.2149378" lon="8.5084975"><ele>105.66666666666667</ele><time>2026-05-03T15:44:49.811Z</time></trkpt><trkpt lat="45.2150246" lon="8.5082316"><ele>106.0</ele><time>2026-05-03T15:44:50.825Z</time></trkpt><trkpt lat="45.2151085" lon="8.5079773"><ele>106.33333333333334</ele><time>2026-05-03T15:44:51.809Z</time></trkpt><trkpt lat="45.2151864" lon="8.5077368"><ele>106.66666666666666</ele><time>2026-05-03T15:44:52.806Z</time></trkpt><trkpt lat="45.2152567" lon="8.5075082"><ele>107.0</ele><time>2026-05-03T15:44:53.815Z</time></trkpt><trkpt lat="45.2153234" lon="8.5072936"><ele>107.0</ele><time>2026-05-03T15:44:54.81Z</time></trkpt><trkpt lat="45.2153886" lon="8.5070928"><ele>107.0</ele><time>2026-05-03T15:44:55.813Z</time></trkpt><trkpt lat="45.2154485" lon="8.5069137"><ele>107.0</ele><time>2026-05-03T15:44:56.818Z</time></trkpt><trkpt lat="45.2155023" lon="8.5067597"><ele>107.0</ele><time>2026-05-03T15:44:57.8Z</time></trkpt><trkpt lat="45.2155484" lon="8.506626"><ele>107.33333333333333</ele><time>2026-05-03T15:44:58.787Z</time></trkpt><trkpt lat="45.2155855" lon="8.5065161"><ele>107.66666666666666</ele><time>2026-05-03T15:44:59.806Z</time></trkpt><trkpt lat="45.2156243" lon="8.5064231"><ele>108.0</ele><time>2026-05-03T15:45:00.804Z</time></trkpt><trkpt lat="45.2156649" lon="8.5063458"><ele>108.33333333333334</ele><time>2026-05-03T15:45:01.796Z</time></trkpt><trkpt lat="45.2157246" lon="8.5062202"><ele>108.66666666666667</ele><time>2026-05-03T15:45:03.77Z</time></trkpt><trkpt lat="45.2157692" lon="8.5061038"><ele>109.0</ele><time>2026-05-03T15:45:17.792Z</time></trkpt><trkpt lat="45.2158259" lon="8.5059754"><ele>109.5</ele><time>2026-05-03T15:45:19.795Z</time></trkpt><trkpt lat="45.2158658" lon="8.5058925"><ele>110.0</ele><time>2026-05-03T15:45:20.796Z</time></trkpt><trkpt lat="45.215929" lon="8.5057651"><ele>110.5</ele><time>2026-05-03T15:45:21.795Z</time></trkpt><trkpt lat="45.2160007" lon="8.505624"><ele>111.0</ele><time>2026-05-03T15:45:22.784Z</time></trkpt><trkpt lat="45.2161363" lon="8.5053646"><ele>111.0</ele><time>2026-05-03T15:45:23.791Z</time></trkpt><trkpt lat="45.216267" lon="8.5051741"><ele>111.0</ele><time>2026-05-03T15:45:24.779Z</time></trkpt><trkpt lat="45.2164967" lon="8.5049082"><ele>111.0</ele><time>2026-05-03T15:45:25.791Z</time></trkpt><trkpt lat="45.2166486" lon="8.5047312"><ele>111.0</ele><time>2026-05-03T15:45:26.809Z</time></trkpt><trkpt lat="45.2168035" lon="8.5045449"><ele>111.0</ele><time>2026-05-03T15:45:27.79Z</time></trkpt><trkpt lat="45.2169684" lon="8.5043425"><ele>111.0</ele><time>2026-05-03T15:45:28.799Z</time></trkpt><trkpt lat="45.2171404" lon="8.5041333"><ele>111.0</ele><time>2026-05-03T15:45:29.807Z</time></trkpt><trkpt lat="45.2173233" lon="8.503912"><ele>111.0</ele><time>2026-05-03T15:45:30.805Z</time></trkpt><trkpt lat="45.2175095" lon="8.5036864"><ele>111.0</ele><time>2026-05-03T15:45:31.802Z</time></trkpt><trkpt lat="45.2176979" lon="8.5034477"><ele>111.0</ele><time>2026-05-03T15:45:32.794Z</time></trkpt><trkpt lat="45.2178955" lon="8.5031967"><ele>111.0</ele><time>2026-05-03T15:45:33.783Z</time></trkpt><trkpt lat="45.218092" lon="8.5029442"><ele>110.5</ele><time>2026-05-03T15:45:34.799Z</time></trkpt><trkpt lat="45.2182935" lon="8.502684"><ele>110.0</ele><time>2026-05-03T15:45:35.799Z</time></trkpt><trkpt lat="45.2185072" lon="8.5024205"><ele>110.0</ele><time>2026-05-03T15:45:36.81Z</time></trkpt><trkpt lat="45.2187544" lon="8.5021451"><ele>110.0</ele><time>2026-05-03T15:45:37.799Z</time></trkpt><trkpt lat="45.2189667" lon="8.5018836"><ele>111.0</ele><time>2026-05-03T15:45:38.795Z</time></trkpt><trkpt lat="45.2191773" lon="8.5016136"><ele>112.0</ele><time>2026-05-03T15:45:39.79Z</time></trkpt><trkpt lat="45.2193866" lon="8.5013427"><ele>111.5</ele><time>2026-05-03T15:45:40.789Z</time></trkpt><trkpt lat="45.2195935" lon="8.5010763"><ele>111.0</ele><time>2026-05-03T15:45:41.804Z</time></trkpt><trkpt lat="45.2198041" lon="8.5008092"><ele>111.0</ele><time>2026-05-03T15:45:42.803Z</time></trkpt><trkpt lat="45.2200193" lon="8.5005411"><ele>111.0</ele><time>2026-05-03T15:45:43.807Z</time></trkpt><trkpt lat="45.2202371" lon="8.5002743"><ele>111.0</ele><time>2026-05-03T15:45:44.805Z</time></trkpt><trkpt lat="45.2204554" lon="8.5000012"><ele>111.0</ele><time>2026-05-03T15:45:45.806Z</time></trkpt><trkpt lat="45.2206706" lon="8.4997273"><ele>110.5</ele><time>2026-05-03T15:45:46.81Z</time></trkpt><trkpt lat="45.2208846" lon="8.4994563"><ele>110.0</ele><time>2026-05-03T15:45:47.808Z</time></trkpt><trkpt lat="45.2211028" lon="8.499192"><ele>110.0</ele><time>2026-05-03T15:45:48.805Z</time></trkpt><trkpt lat="45.2213195" lon="8.4989262"><ele>110.0</ele><time>2026-05-03T15:45:49.807Z</time></trkpt><trkpt lat="45.2215358" lon="8.4986586"><ele>109.5</ele><time>2026-05-03T15:45:50.803Z</time></trkpt><trkpt lat="45.2217527" lon="8.4983956"><ele>109.0</ele><time>2026-05-03T15:45:51.815Z</time></trkpt><trkpt lat="45.2219673" lon="8.4981303"><ele>109.5</ele><time>2026-05-03T15:45:52.802Z</time></trkpt><trkpt lat="45.2221824" lon="8.4978671"><ele>110.0</ele><time>2026-05-03T15:45:53.806Z</time></trkpt><trkpt lat="45.2223945" lon="8.4976057"><ele>110.0</ele><time>2026-05-03T15:45:54.798Z</time></trkpt><trkpt lat="45.2226048" lon="8.4973425"><ele>110.0</ele><time>2026-05-03T15:45:55.804Z</time></trkpt><trkpt lat="45.2228155" lon="8.497073"><ele>110.0</ele><time>2026-05-03T15:45:56.806Z</time></trkpt><trkpt lat="45.2230321" lon="8.4968061"><ele>110.0</ele><time>2026-05-03T15:45:57.819Z</time></trkpt><trkpt lat="45.2232513" lon="8.4965332"><ele>110.0</ele><time>2026-05-03T15:45:58.809Z</time></trkpt><trkpt lat="45.2234624" lon="8.4962547"><ele>110.0</ele><time>2026-05-03T15:45:59.804Z</time></trkpt><trkpt lat="45.2236657" lon="8.4959674"><ele>110.0</ele><time>2026-05-03T15:46:00.796Z</time></trkpt><trkpt lat="45.2238529" lon="8.4956557"><ele>110.0</ele><time>2026-05-03T15:46:01.793Z</time></trkpt><trkpt lat="45.2240278" lon="8.4953279"><ele>110.0</ele><time>2026-05-03T15:46:02.805Z</time></trkpt><trkpt lat="45.2241941" lon="8.494986"><ele>110.0</ele><time>2026-05-03T15:46:03.785Z</time></trkpt><trkpt lat="45.2243448" lon="8.4946324"><ele>110.5</ele><time>2026-05-03T15:46:04.787Z</time></trkpt><trkpt lat="45.2244662" lon="8.4942687"><ele>111.0</ele><time>2026-05-03T15:46:05.795Z</time></trkpt><trkpt lat="45.2245765" lon="8.4938714"><ele>110.0</ele><time>2026-05-03T15:46:06.805Z</time></trkpt><trkpt lat="45.2247962" lon="8.4931493"><ele>110.0</ele><time>2026-05-03T15:46:08.672Z</time></trkpt><trkpt lat="45.2248992" lon="8.4928274"><ele>110.0</ele><time>2026-05-03T15:46:09.679Z</time></trkpt><trkpt lat="45.2249916" lon="8.4925096"><ele>110.0</ele><time>2026-05-03T15:46:10.679Z</time></trkpt><trkpt lat="45.2250841" lon="8.4922076"><ele>110.0</ele><time>2026-05-03T15:46:11.697Z</time></trkpt><trkpt lat="45.2251604" lon="8.4918368"><ele>110.0</ele><time>2026-05-03T15:46:12.687Z</time></trkpt><trkpt lat="45.2252204" lon="8.4914327"><ele>110.0</ele><time>2026-05-03T15:46:13.703Z</time></trkpt><trkpt lat="45.22526" lon="8.4910169"><ele>110.0</ele><time>2026-05-03T15:46:14.694Z</time></trkpt><trkpt lat="45.2253311" lon="8.4906165"><ele>110.0</ele><time>2026-05-03T15:46:15.701Z</time></trkpt><trkpt lat="45.2254112" lon="8.4901968"><ele>109.5</ele><time>2026-05-03T15:46:16.689Z</time></trkpt><trkpt lat="45.2254565" lon="8.4897978"><ele>109.0</ele><time>2026-05-03T15:46:17.693Z</time></trkpt><trkpt lat="45.2254896" lon="8.4893833"><ele>110.0</ele><time>2026-05-03T15:46:18.687Z</time></trkpt><trkpt lat="45.2255215" lon="8.4889779"><ele>111.0</ele><time>2026-05-03T15:46:19.69Z</time></trkpt><trkpt lat="45.2255115" lon="8.4885289"><ele>112.0</ele><time>2026-05-03T15:46:20.689Z</time></trkpt><trkpt lat="45.2255389" lon="8.4881286"><ele>113.0</ele><time>2026-05-03T15:46:21.701Z</time></trkpt><trkpt lat="45.2255625" lon="8.4877143"><ele>113.5</ele><time>2026-05-03T15:46:22.693Z</time></trkpt><trkpt lat="45.2255866" lon="8.4872993"><ele>114.0</ele><time>2026-05-03T15:46:23.697Z</time></trkpt><trkpt lat="45.225585" lon="8.4868637"><ele>114.0</ele><time>2026-05-03T15:46:24.696Z</time></trkpt><trkpt lat="45.2256324" lon="8.4864712"><ele>114.0</ele><time>2026-05-03T15:46:25.69Z</time></trkpt><trkpt lat="45.2256507" lon="8.4860333"><ele>114.0</ele><time>2026-05-03T15:46:26.702Z</time></trkpt><trkpt lat="45.2256589" lon="8.4856119"><ele>114.0</ele><time>2026-05-03T15:46:27.699Z</time></trkpt><trkpt lat="45.2256661" lon="8.4851859"><ele>114.5</ele><time>2026-05-03T15:46:28.699Z</time></trkpt><trkpt lat="45.2256946" lon="8.484786"><ele>115.0</ele><time>2026-05-03T15:46:29.71Z</time></trkpt><trkpt lat="45.2257082" lon="8.4843698"><ele>115.0</ele><time>2026-05-03T15:46:30.695Z</time></trkpt><trkpt lat="45.225755" lon="8.4839587"><ele>115.0</ele><time>2026-05-03T15:46:31.704Z</time></trkpt><trkpt lat="45.2257615" lon="8.4835214"><ele>114.5</ele><time>2026-05-03T15:46:32.696Z</time></trkpt><trkpt lat="45.2257814" lon="8.4830897"><ele>114.0</ele><time>2026-05-03T15:46:33.696Z</time></trkpt><trkpt lat="45.2258007" lon="8.4826498"><ele>114.0</ele><time>2026-05-03T15:46:34.697Z</time></trkpt><trkpt lat="45.2258143" lon="8.4822502"><ele>114.0</ele><time>2026-05-03T15:46:35.707Z</time></trkpt><trkpt lat="45.2258255" lon="8.4818562"><ele>114.5</ele><time>2026-05-03T15:46:36.699Z</time></trkpt><trkpt lat="45.2258637" lon="8.4814526"><ele>115.0</ele><time>2026-05-03T15:46:37.703Z</time></trkpt><trkpt lat="45.2258666" lon="8.4810244"><ele>114.5</ele><time>2026-05-03T15:46:38.697Z</time></trkpt><trkpt lat="45.225894" lon="8.4806075"><ele>114.0</ele><time>2026-05-03T15:46:39.698Z</time></trkpt><trkpt lat="45.2259207" lon="8.4802105"><ele>114.0</ele><time>2026-05-03T15:46:40.7Z</time></trkpt><trkpt lat="45.2259332" lon="8.479824"><ele>114.0</ele><time>2026-05-03T15:46:41.706Z</time></trkpt><trkpt lat="45.225961" lon="8.4794113"><ele>114.5</ele><time>2026-05-03T15:46:42.696Z</time></trkpt><trkpt lat="45.2259792" lon="8.4789957"><ele>115.0</ele><time>2026-05-03T15:46:43.703Z</time></trkpt><trkpt lat="45.2259958" lon="8.4785815"><ele>115.5</ele><time>2026-05-03T15:46:44.715Z</time></trkpt><trkpt lat="45.226009" lon="8.4781728"><ele>116.0</ele><time>2026-05-03T15:46:45.705Z</time></trkpt><trkpt lat="45.2260248" lon="8.477758"><ele>116.5</ele><time>2026-05-03T15:46:46.708Z</time></trkpt><trkpt lat="45.226064" lon="8.4773516"><ele>117.0</ele><time>2026-05-03T15:46:47.697Z</time></trkpt><trkpt lat="45.2260945" lon="8.4769336"><ele>116.5</ele><time>2026-05-03T15:46:48.707Z</time></trkpt><trkpt lat="45.2261583" lon="8.4765227"><ele>116.0</ele><time>2026-05-03T15:46:49.694Z</time></trkpt><trkpt lat="45.2262031" lon="8.4760853"><ele>116.0</ele><time>2026-05-03T15:46:50.694Z</time></trkpt><trkpt lat="45.2262654" lon="8.4756658"><ele>116.0</ele><time>2026-05-03T15:46:51.702Z</time></trkpt><trkpt lat="45.2263225" lon="8.4752402"><ele>116.0</ele><time>2026-05-03T15:46:52.696Z</time></trkpt><trkpt lat="45.2263767" lon="8.4748386"><ele>116.0</ele><time>2026-05-03T15:46:53.702Z</time></trkpt><trkpt lat="45.2264249" lon="8.4744168"><ele>116.0</ele><time>2026-05-03T15:46:54.699Z</time></trkpt><trkpt lat="45.2264872" lon="8.4740071"><ele>116.0</ele><time>2026-05-03T15:46:55.71Z</time></trkpt><trkpt lat="45.2265344" lon="8.4735896"><ele>116.0</ele><time>2026-05-03T15:46:56.7Z</time></trkpt><trkpt lat="45.2265876" lon="8.4731936"><ele>116.0</ele><time>2026-05-03T15:46:57.701Z</time></trkpt><trkpt lat="45.226621" lon="8.4727649"><ele>115.5</ele><time>2026-05-03T15:46:58.707Z</time></trkpt><trkpt lat="45.2266623" lon="8.4723588"><ele>115.0</ele><time>2026-05-03T15:46:59.71Z</time></trkpt><trkpt lat="45.2266935" lon="8.4719561"><ele>115.0</ele><time>2026-05-03T15:47:00.698Z</time></trkpt><trkpt lat="45.2267302" lon="8.4715322"><ele>115.0</ele><time>2026-05-03T15:47:01.711Z</time></trkpt><trkpt lat="45.2267699" lon="8.4711212"><ele>115.0</ele><time>2026-05-03T15:47:02.711Z</time></trkpt><trkpt lat="45.2268141" lon="8.470701"><ele>115.0</ele><time>2026-05-03T15:47:03.706Z</time></trkpt><trkpt lat="45.2268815" lon="8.4702861"><ele>114.5</ele><time>2026-05-03T15:47:04.709Z</time></trkpt><trkpt lat="45.226939" lon="8.4699036"><ele>114.0</ele><time>2026-05-03T15:47:05.703Z</time></trkpt><trkpt lat="45.2269679" lon="8.4694773"><ele>114.0</ele><time>2026-05-03T15:47:06.704Z</time></trkpt><trkpt lat="45.227014" lon="8.4690979"><ele>114.0</ele><time>2026-05-03T15:47:07.706Z</time></trkpt><trkpt lat="45.2270666" lon="8.4687083"><ele>114.0</ele><time>2026-05-03T15:47:08.702Z</time></trkpt><trkpt lat="45.2271116" lon="8.468306"><ele>114.0</ele><time>2026-05-03T15:47:09.699Z</time></trkpt><trkpt lat="45.2271522" lon="8.4678827"><ele>114.5</ele><time>2026-05-03T15:47:10.703Z</time></trkpt><trkpt lat="45.227191" lon="8.4675023"><ele>115.0</ele><time>2026-05-03T15:47:11.696Z</time></trkpt><trkpt lat="45.2272409" lon="8.4671347"><ele>115.5</ele><time>2026-05-03T15:47:12.697Z</time></trkpt><trkpt lat="45.2272739" lon="8.4667452"><ele>116.0</ele><time>2026-05-03T15:47:13.703Z</time></trkpt><trkpt lat="45.2273201" lon="8.4663888"><ele>115.5</ele><time>2026-05-03T15:47:14.697Z</time></trkpt><trkpt lat="45.2273659" lon="8.4660644"><ele>115.0</ele><time>2026-05-03T15:47:15.703Z</time></trkpt><trkpt lat="45.2273963" lon="8.4657193"><ele>115.33333333333334</ele><time>2026-05-03T15:47:16.706Z</time></trkpt><trkpt lat="45.2274492" lon="8.4654272"><ele>115.66666666666666</ele><time>2026-05-03T15:47:17.7Z</time></trkpt><trkpt lat="45.2274762" lon="8.4651287"><ele>116.0</ele><time>2026-05-03T15:47:18.691Z</time></trkpt><trkpt lat="45.2275239" lon="8.464878"><ele>116.0</ele><time>2026-05-03T15:47:19.699Z</time></trkpt><trkpt lat="45.2275556" lon="8.4646107"><ele>116.0</ele><time>2026-05-03T15:47:20.703Z</time></trkpt><trkpt lat="45.2275881" lon="8.4643598"><ele>116.0</ele><time>2026-05-03T15:47:21.691Z</time></trkpt><trkpt lat="45.2276112" lon="8.464118"><ele>116.0</ele><time>2026-05-03T15:47:22.691Z</time></trkpt><trkpt lat="45.2276386" lon="8.4638894"><ele>116.0</ele><time>2026-05-03T15:47:23.692Z</time></trkpt><trkpt lat="45.2276721" lon="8.4636825"><ele>116.0</ele><time>2026-05-03T15:47:24.689Z</time></trkpt><trkpt lat="45.2277377" lon="8.4634563"><ele>116.25</ele><time>2026-05-03T15:47:25.685Z</time></trkpt><trkpt lat="45.2278077" lon="8.4632858"><ele>116.5</ele><time>2026-05-03T15:47:26.686Z</time></trkpt><trkpt lat="45.2279445" lon="8.4631621"><ele>116.75</ele><time>2026-05-03T15:47:27.689Z</time></trkpt><trkpt lat="45.2280375" lon="8.463007"><ele>117.0</ele><time>2026-05-03T15:47:28.681Z</time></trkpt><trkpt lat="45.2281249" lon="8.4629136"><ele>117.0</ele><time>2026-05-03T15:47:29.687Z</time></trkpt><trkpt lat="45.2282289" lon="8.4628665"><ele>116.99999999999999</ele><time>2026-05-03T15:47:30.687Z</time></trkpt><trkpt lat="45.2283096" lon="8.4628505"><ele>116.99999999999999</ele><time>2026-05-03T15:47:31.688Z</time></trkpt><trkpt lat="45.2283879" lon="8.4628191"><ele>117.0</ele><time>2026-05-03T15:47:32.675Z</time></trkpt><trkpt lat="45.228477" lon="8.4628023"><ele>117.0</ele><time>2026-05-03T15:47:33.681Z</time></trkpt><trkpt lat="45.2286266" lon="8.4628078"><ele>117.0</ele><time>2026-05-03T15:47:35.686Z</time></trkpt><trkpt lat="45.2287438" lon="8.4628504"><ele>117.0</ele><time>2026-05-03T15:47:36.681Z</time></trkpt><trkpt lat="45.2288877" lon="8.4629227"><ele>117.0</ele><time>2026-05-03T15:47:37.678Z</time></trkpt><trkpt lat="45.2290499" lon="8.4630145"><ele>117.0</ele><time>2026-05-03T15:47:38.688Z</time></trkpt><trkpt lat="45.2292581" lon="8.4631399"><ele>116.5</ele><time>2026-05-03T15:47:39.678Z</time></trkpt><trkpt lat="45.2294631" lon="8.4632713"><ele>116.0</ele><time>2026-05-03T15:47:40.676Z</time></trkpt><trkpt lat="45.2296793" lon="8.4633695"><ele>116.0</ele><time>2026-05-03T15:47:41.675Z</time></trkpt><trkpt lat="45.2299363" lon="8.4634811"><ele>116.0</ele><time>2026-05-03T15:47:42.679Z</time></trkpt><trkpt lat="45.2301656" lon="8.4635739"><ele>116.0</ele><time>2026-05-03T15:47:43.685Z</time></trkpt><trkpt lat="45.2303998" lon="8.4636478"><ele>116.0</ele><time>2026-05-03T15:47:44.681Z</time></trkpt><trkpt lat="45.230681" lon="8.4637334"><ele>116.5</ele><time>2026-05-03T15:47:45.688Z</time></trkpt><trkpt lat="45.2309776" lon="8.4637201"><ele>117.0</ele><time>2026-05-03T15:47:46.685Z</time></trkpt><trkpt lat="45.2312753" lon="8.4637129"><ele>117.0</ele><time>2026-05-03T15:47:47.689Z</time></trkpt><trkpt lat="45.2315551" lon="8.4636761"><ele>117.0</ele><time>2026-05-03T15:47:48.667Z</time></trkpt><trkpt lat="45.2318444" lon="8.4635496"><ele>117.0</ele><time>2026-05-03T15:47:49.685Z</time></trkpt><trkpt lat="45.2321444" lon="8.463473"><ele>117.0</ele><time>2026-05-03T15:47:50.669Z</time></trkpt><trkpt lat="45.2324079" lon="8.4633355"><ele>117.5</ele><time>2026-05-03T15:47:51.662Z</time></trkpt><trkpt lat="45.2326821" lon="8.4632014"><ele>118.0</ele><time>2026-05-03T15:47:52.673Z</time></trkpt><trkpt lat="45.2329782" lon="8.4629646"><ele>117.5</ele><time>2026-05-03T15:47:53.682Z</time></trkpt><trkpt lat="45.2332305" lon="8.4627173"><ele>117.0</ele><time>2026-05-03T15:47:54.676Z</time></trkpt><trkpt lat="45.2334911" lon="8.4624823"><ele>117.0</ele><time>2026-05-03T15:47:55.681Z</time></trkpt><trkpt lat="45.2337402" lon="8.4622118"><ele>117.0</ele><time>2026-05-03T15:47:56.683Z</time></trkpt><trkpt lat="45.233979" lon="8.461846"><ele>117.5</ele><time>2026-05-03T15:47:57.7Z</time></trkpt><trkpt lat="45.2342132" lon="8.4615631"><ele>118.0</ele><time>2026-05-03T15:47:58.696Z</time></trkpt><trkpt lat="45.2344727" lon="8.4612878"><ele>118.0</ele><time>2026-05-03T15:47:59.691Z</time></trkpt><trkpt lat="45.2347158" lon="8.460985"><ele>118.0</ele><time>2026-05-03T15:48:00.686Z</time></trkpt><trkpt lat="45.2349423" lon="8.4607102"><ele>119.0</ele><time>2026-05-03T15:48:01.7Z</time></trkpt><trkpt lat="45.2351783" lon="8.4604274"><ele>120.0</ele><time>2026-05-03T15:48:02.694Z</time></trkpt><trkpt lat="45.2353829" lon="8.4601966"><ele>120.0</ele><time>2026-05-03T15:48:03.693Z</time></trkpt><trkpt lat="45.2356183" lon="8.4599355"><ele>120.0</ele><time>2026-05-03T15:48:04.698Z</time></trkpt><trkpt lat="45.2358257" lon="8.4597133"><ele>117.0</ele><time>2026-05-03T15:48:05.697Z</time></trkpt><trkpt lat="45.2360231" lon="8.4594887"><ele>114.0</ele><time>2026-05-03T15:48:06.7Z</time></trkpt><trkpt lat="45.2362023" lon="8.4593031"><ele>114.0</ele><time>2026-05-03T15:48:07.707Z</time></trkpt><trkpt lat="45.2363795" lon="8.459094"><ele>114.0</ele><time>2026-05-03T15:48:08.7Z</time></trkpt><trkpt lat="45.2365664" lon="8.4588853"><ele>114.66666666666666</ele><time>2026-05-03T15:48:09.712Z</time></trkpt><trkpt lat="45.2367311" lon="8.4586968"><ele>115.33333333333333</ele><time>2026-05-03T15:48:10.7Z</time></trkpt><trkpt lat="45.2369008" lon="8.4585132"><ele>116.0</ele><time>2026-05-03T15:48:11.788Z</time></trkpt><trkpt lat="45.23707" lon="8.4583246"><ele>116.0</ele><time>2026-05-03T15:48:12.794Z</time></trkpt><trkpt lat="45.2372545" lon="8.4581365"><ele>116.0</ele><time>2026-05-03T15:48:13.785Z</time></trkpt><trkpt lat="45.2374577" lon="8.4579595"><ele>116.0</ele><time>2026-05-03T15:48:14.786Z</time></trkpt><trkpt lat="45.2376719" lon="8.4577971"><ele>116.0</ele><time>2026-05-03T15:48:15.792Z</time></trkpt><trkpt lat="45.2378874" lon="8.4576561"><ele>116.0</ele><time>2026-05-03T15:48:16.795Z</time></trkpt><trkpt lat="45.2381001" lon="8.4575326"><ele>116.0</ele><time>2026-05-03T15:48:17.799Z</time></trkpt><trkpt lat="45.2383174" lon="8.4574328"><ele>116.0</ele><time>2026-05-03T15:48:18.806Z</time></trkpt><trkpt lat="45.238542" lon="8.4573555"><ele>116.0</ele><time>2026-05-03T15:48:19.792Z</time></trkpt><trkpt lat="45.2387716" lon="8.4572952"><ele>116.5</ele><time>2026-05-03T15:48:20.79Z</time></trkpt><trkpt lat="45.2390075" lon="8.4572536"><ele>117.0</ele><time>2026-05-03T15:48:21.802Z</time></trkpt><trkpt lat="45.2392415" lon="8.4572447"><ele>117.0</ele><time>2026-05-03T15:48:22.781Z</time></trkpt><trkpt lat="45.2394948" lon="8.457252"><ele>117.0</ele><time>2026-05-03T15:48:23.795Z</time></trkpt><trkpt lat="45.2397643" lon="8.45729"><ele>117.0</ele><time>2026-05-03T15:48:24.782Z</time></trkpt><trkpt lat="45.2400377" lon="8.4573429"><ele>117.0</ele><time>2026-05-03T15:48:25.801Z</time></trkpt><trkpt lat="45.2403221" lon="8.4574224"><ele>117.0</ele><time>2026-05-03T15:48:26.784Z</time></trkpt><trkpt lat="45.2406077" lon="8.4574945"><ele>117.0</ele><time>2026-05-03T15:48:27.776Z</time></trkpt><trkpt lat="45.2409055" lon="8.4575694"><ele>117.0</ele><time>2026-05-03T15:48:28.784Z</time></trkpt><trkpt lat="45.2412044" lon="8.4576401"><ele>117.0</ele><time>2026-05-03T15:48:29.79Z</time></trkpt><trkpt lat="45.2415107" lon="8.4577605"><ele>117.0</ele><time>2026-05-03T15:48:30.773Z</time></trkpt><trkpt lat="45.241822" lon="8.4578698"><ele>117.0</ele><time>2026-05-03T15:48:31.803Z</time></trkpt><trkpt lat="45.2421293" lon="8.4579734"><ele>117.0</ele><time>2026-05-03T15:48:32.794Z</time></trkpt><trkpt lat="45.2424438" lon="8.4580738"><ele>117.0</ele><time>2026-05-03T15:48:33.8Z</time></trkpt><trkpt lat="45.2427594" lon="8.4581667"><ele>117.0</ele><time>2026-05-03T15:48:34.8Z</time></trkpt><trkpt lat="45.2430829" lon="8.4582693"><ele>117.0</ele><time>2026-05-03T15:48:35.803Z</time></trkpt><trkpt lat="45.2434082" lon="8.4583724"><ele>117.0</ele><time>2026-05-03T15:48:36.798Z</time></trkpt><trkpt lat="45.243734" lon="8.4584678"><ele>117.0</ele><time>2026-05-03T15:48:37.809Z</time></trkpt><trkpt lat="45.2440593" lon="8.4585583"><ele>118.0</ele><time>2026-05-03T15:48:38.805Z</time></trkpt><trkpt lat="45.2443845" lon="8.4586543"><ele>119.0</ele><time>2026-05-03T15:48:39.809Z</time></trkpt><trkpt lat="45.2447066" lon="8.4587488"><ele>119.0</ele><time>2026-05-03T15:48:40.803Z</time></trkpt><trkpt lat="45.24503" lon="8.4588421"><ele>119.0</ele><time>2026-05-03T15:48:41.804Z</time></trkpt><trkpt lat="45.2453532" lon="8.4589374"><ele>119.0</ele><time>2026-05-03T15:48:42.809Z</time></trkpt><trkpt lat="45.2456772" lon="8.4590317"><ele>119.0</ele><time>2026-05-03T15:48:43.804Z</time></trkpt><trkpt lat="45.2460021" lon="8.4591257"><ele>119.0</ele><time>2026-05-03T15:48:44.807Z</time></trkpt><trkpt lat="45.2463232" lon="8.4592136"><ele>119.0</ele><time>2026-05-03T15:48:45.803Z</time></trkpt><trkpt lat="45.2466475" lon="8.4593026"><ele>119.5</ele><time>2026-05-03T15:48:46.811Z</time></trkpt><trkpt lat="45.246972" lon="8.4593913"><ele>120.0</ele><time>2026-05-03T15:48:47.807Z</time></trkpt><trkpt lat="45.2472964" lon="8.4594836"><ele>120.0</ele><time>2026-05-03T15:48:48.813Z</time></trkpt><trkpt lat="45.247621" lon="8.459575"><ele>120.0</ele><time>2026-05-03T15:48:49.794Z</time></trkpt><trkpt lat="45.2479425" lon="8.4596652"><ele>122.0</ele><time>2026-05-03T15:48:50.795Z</time></trkpt><trkpt lat="45.2482708" lon="8.4597581"><ele>124.0</ele><time>2026-05-03T15:48:51.801Z</time></trkpt><trkpt lat="45.2485987" lon="8.4598535"><ele>124.0</ele><time>2026-05-03T15:48:52.804Z</time></trkpt><trkpt lat="45.2489307" lon="8.4599486"><ele>124.0</ele><time>2026-05-03T15:48:53.811Z</time></trkpt><trkpt lat="45.2492612" lon="8.4600442"><ele>123.5</ele><time>2026-05-03T15:48:54.802Z</time></trkpt><trkpt lat="45.2495907" lon="8.4601397"><ele>123.0</ele><time>2026-05-03T15:48:55.805Z</time></trkpt><trkpt lat="45.2499252" lon="8.4602335"><ele>122.5</ele><time>2026-05-03T15:48:56.808Z</time></trkpt><trkpt lat="45.2502572" lon="8.4603262"><ele>122.0</ele><time>2026-05-03T15:48:57.801Z</time></trkpt><trkpt lat="45.2505858" lon="8.4604207"><ele>121.0</ele><time>2026-05-03T15:48:58.808Z</time></trkpt><trkpt lat="45.2509156" lon="8.4605148"><ele>120.0</ele><time>2026-05-03T15:48:59.807Z</time></trkpt><trkpt lat="45.2512468" lon="8.4606098"><ele>120.0</ele><time>2026-05-03T15:49:00.809Z</time></trkpt><trkpt lat="45.2515799" lon="8.4607109"><ele>120.0</ele><time>2026-05-03T15:49:01.809Z</time></trkpt><trkpt lat="45.2519139" lon="8.46081"><ele>120.0</ele><time>2026-05-03T15:49:02.802Z</time></trkpt><trkpt lat="45.2522474" lon="8.4609067"><ele>120.0</ele><time>2026-05-03T15:49:03.8Z</time></trkpt><trkpt lat="45.2525793" lon="8.4610038"><ele>119.0</ele><time>2026-05-03T15:49:04.811Z</time></trkpt><trkpt lat="45.2529002" lon="8.4610922"><ele>118.0</ele><time>2026-05-03T15:49:05.794Z</time></trkpt><trkpt lat="45.2532077" lon="8.4611701"><ele>118.0</ele><time>2026-05-03T15:49:06.811Z</time></trkpt><trkpt lat="45.2535122" lon="8.4612475"><ele>118.0</ele><time>2026-05-03T15:49:07.797Z</time></trkpt><trkpt lat="45.2538084" lon="8.4613309"><ele>117.5</ele><time>2026-05-03T15:49:08.797Z</time></trkpt><trkpt lat="45.2540895" lon="8.4614154"><ele>117.0</ele><time>2026-05-03T15:49:09.791Z</time></trkpt><trkpt lat="45.2543565" lon="8.4614978"><ele>117.0</ele><time>2026-05-03T15:49:10.79Z</time></trkpt><trkpt lat="45.2546083" lon="8.4615804"><ele>117.0</ele><time>2026-05-03T15:49:11.799Z</time></trkpt><trkpt lat="45.2548401" lon="8.4616787"><ele>118.5</ele><time>2026-05-03T15:49:12.788Z</time></trkpt><trkpt lat="45.2550848" lon="8.461808"><ele>120.0</ele><time>2026-05-03T15:49:13.788Z</time></trkpt><trkpt lat="45.2553193" lon="8.4619579"><ele>119.5</ele><time>2026-05-03T15:49:14.773Z</time></trkpt><trkpt lat="45.2555371" lon="8.4621376"><ele>119.0</ele><time>2026-05-03T15:49:15.76Z</time></trkpt><trkpt lat="45.2557436" lon="8.4623245"><ele>118.5</ele><time>2026-05-03T15:49:16.759Z</time></trkpt><trkpt lat="45.2559514" lon="8.4625126"><ele>118.0</ele><time>2026-05-03T15:49:17.765Z</time></trkpt><trkpt lat="45.2561562" lon="8.4626874"><ele>118.0</ele><time>2026-05-03T15:49:18.776Z</time></trkpt><trkpt lat="45.2563485" lon="8.4628703"><ele>118.0</ele><time>2026-05-03T15:49:19.78Z</time></trkpt><trkpt lat="45.2565306" lon="8.4630476"><ele>117.0</ele><time>2026-05-03T15:49:20.779Z</time></trkpt><trkpt lat="45.2567027" lon="8.4632149"><ele>116.0</ele><time>2026-05-03T15:49:21.785Z</time></trkpt><trkpt lat="45.2568742" lon="8.4633737"><ele>115.0</ele><time>2026-05-03T15:49:22.791Z</time></trkpt><trkpt lat="45.2570449" lon="8.4635107"><ele>115.0</ele><time>2026-05-03T15:49:23.787Z</time></trkpt><trkpt lat="45.2572098" lon="8.4636236"><ele>115.0</ele><time>2026-05-03T15:49:24.783Z</time></trkpt><trkpt lat="45.2573721" lon="8.4637165"><ele>115.0</ele><time>2026-05-03T15:49:25.782Z</time></trkpt><trkpt lat="45.2575288" lon="8.4637955"><ele>115.25</ele><time>2026-05-03T15:49:26.79Z</time></trkpt><trkpt lat="45.2576678" lon="8.4638522"><ele>115.5</ele><time>2026-05-03T15:49:27.791Z</time></trkpt><trkpt lat="45.2577887" lon="8.4639001"><ele>115.75</ele><time>2026-05-03T15:49:28.795Z</time></trkpt><trkpt lat="45.2578828" lon="8.4639927"><ele>116.0</ele><time>2026-05-03T15:49:29.795Z</time></trkpt><trkpt lat="45.2579588" lon="8.464097"><ele>116.0</ele><time>2026-05-03T15:49:30.78Z</time></trkpt><trkpt lat="45.2580472" lon="8.4641619"><ele>116.0</ele><time>2026-05-03T15:49:31.756Z</time></trkpt><trkpt lat="45.2581298" lon="8.4641482"><ele>116.0</ele><time>2026-05-03T15:49:32.767Z</time></trkpt><trkpt lat="45.2582718" lon="8.4642215"><ele>116.0</ele><time>2026-05-03T15:49:34.654Z</time></trkpt><trkpt lat="45.2584306" lon="8.464163"><ele>117.0</ele><time>2026-05-03T15:49:35.655Z</time></trkpt><trkpt lat="45.2586042" lon="8.4641147"><ele>118.0</ele><time>2026-05-03T15:49:36.667Z</time></trkpt><trkpt lat="45.2588084" lon="8.4640985"><ele>119.0</ele><time>2026-05-03T15:49:37.667Z</time></trkpt><trkpt lat="45.258957" lon="8.4640621"><ele>119.33333333333333</ele><time>2026-05-03T15:49:38.669Z</time></trkpt><trkpt lat="45.2591126" lon="8.4640559"><ele>119.66666666666666</ele><time>2026-05-03T15:49:39.675Z</time></trkpt><trkpt lat="45.2592682" lon="8.4640159"><ele>120.0</ele><time>2026-05-03T15:49:40.685Z</time></trkpt><trkpt lat="45.2594187" lon="8.4640001"><ele>120.0</ele><time>2026-05-03T15:49:41.681Z</time></trkpt><trkpt lat="45.2595711" lon="8.4639934"><ele>120.0</ele><time>2026-05-03T15:49:42.679Z</time></trkpt><trkpt lat="45.2597206" lon="8.4639799"><ele>120.0</ele><time>2026-05-03T15:49:43.678Z</time></trkpt><trkpt lat="45.2598784" lon="8.4639947"><ele>120.33333333333334</ele><time>2026-05-03T15:49:44.682Z</time></trkpt><trkpt lat="45.260046" lon="8.4639865"><ele>120.66666666666667</ele><time>2026-05-03T15:49:45.674Z</time></trkpt><trkpt lat="45.2602146" lon="8.463991"><ele>121.0</ele><time>2026-05-03T15:49:46.677Z</time></trkpt><trkpt lat="45.2603917" lon="8.4639751"><ele>121.0</ele><time>2026-05-03T15:49:47.68Z</time></trkpt><trkpt lat="45.2605783" lon="8.4639783"><ele>121.0</ele><time>2026-05-03T15:49:48.682Z</time></trkpt><trkpt lat="45.2608121" lon="8.4639872"><ele>121.0</ele><time>2026-05-03T15:49:49.689Z</time></trkpt><trkpt lat="45.2610024" lon="8.4639786"><ele>120.33333333333334</ele><time>2026-05-03T15:49:50.688Z</time></trkpt><trkpt lat="45.2612047" lon="8.4639843"><ele>119.66666666666666</ele><time>2026-05-03T15:49:51.688Z</time></trkpt><trkpt lat="45.2613842" lon="8.4640049"><ele>119.0</ele><time>2026-05-03T15:49:52.696Z</time></trkpt><trkpt lat="45.2615333" lon="8.4639901"><ele>119.0</ele><time>2026-05-03T15:49:53.699Z</time></trkpt><trkpt lat="45.2616891" lon="8.4640065"><ele>119.0</ele><time>2026-05-03T15:49:54.7Z</time></trkpt><trkpt lat="45.2618511" lon="8.4640064"><ele>119.0</ele><time>2026-05-03T15:49:55.693Z</time></trkpt><trkpt lat="45.2620204" lon="8.4639932"><ele>119.0</ele><time>2026-05-03T15:49:56.704Z</time></trkpt><trkpt lat="45.2621786" lon="8.4639763"><ele>119.0</ele><time>2026-05-03T15:49:57.703Z</time></trkpt><trkpt lat="45.2623466" lon="8.4639734"><ele>119.0</ele><time>2026-05-03T15:49:58.699Z</time></trkpt><trkpt lat="45.2625074" lon="8.4639709"><ele>118.66666666666666</ele><time>2026-05-03T15:49:59.708Z</time></trkpt><trkpt lat="45.2626473" lon="8.4639695"><ele>118.33333333333334</ele><time>2026-05-03T15:50:00.7Z</time></trkpt><trkpt lat="45.2628184" lon="8.4639513"><ele>118.0</ele><time>2026-05-03T15:50:01.698Z</time></trkpt><trkpt lat="45.262998" lon="8.4639414"><ele>118.66666666666667</ele><time>2026-05-03T15:50:02.7Z</time></trkpt><trkpt lat="45.2631755" lon="8.4639406"><ele>119.33333333333334</ele><time>2026-05-03T15:50:03.694Z</time></trkpt><trkpt lat="45.2633687" lon="8.4639372"><ele>120.0</ele><time>2026-05-03T15:50:04.703Z</time></trkpt><trkpt lat="45.263545" lon="8.46392"><ele>120.0</ele><time>2026-05-03T15:50:05.691Z</time></trkpt><trkpt lat="45.2637069" lon="8.4639105"><ele>120.0</ele><time>2026-05-03T15:50:06.703Z</time></trkpt><trkpt lat="45.2639023" lon="8.4639169"><ele>120.0</ele><time>2026-05-03T15:50:07.701Z</time></trkpt><trkpt lat="45.2640752" lon="8.463896"><ele>119.0</ele><time>2026-05-03T15:50:08.697Z</time></trkpt><trkpt lat="45.2642464" lon="8.4638786"><ele>118.0</ele><time>2026-05-03T15:50:09.697Z</time></trkpt><trkpt lat="45.2644225" lon="8.46388"><ele>117.0</ele><time>2026-05-03T15:50:10.714Z</time></trkpt><trkpt lat="45.2646061" lon="8.4638809"><ele>117.0</ele><time>2026-05-03T15:50:11.698Z</time></trkpt><trkpt lat="45.2647965" lon="8.4638931"><ele>117.0</ele><time>2026-05-03T15:50:12.699Z</time></trkpt><trkpt lat="45.2649848" lon="8.4638912"><ele>117.0</ele><time>2026-05-03T15:50:13.701Z</time></trkpt><trkpt lat="45.2651692" lon="8.4638895"><ele>117.0</ele><time>2026-05-03T15:50:14.7Z</time></trkpt><trkpt lat="45.2653529" lon="8.4638776"><ele>117.0</ele><time>2026-05-03T15:50:15.706Z</time></trkpt><trkpt lat="45.2655452" lon="8.4638677"><ele>117.0</ele><time>2026-05-03T15:50:16.702Z</time></trkpt><trkpt lat="45.2657395" lon="8.4638685"><ele>117.33333333333334</ele><time>2026-05-03T15:50:17.712Z</time></trkpt><trkpt lat="45.2659208" lon="8.4638811"><ele>117.66666666666667</ele><time>2026-05-03T15:50:18.698Z</time></trkpt><trkpt lat="45.2660993" lon="8.463887"><ele>118.0</ele><time>2026-05-03T15:50:19.704Z</time></trkpt><trkpt lat="45.2662541" lon="8.4638707"><ele>118.0</ele><time>2026-05-03T15:50:20.703Z</time></trkpt><trkpt lat="45.2664304" lon="8.4638646"><ele>118.0</ele><time>2026-05-03T15:50:21.71Z</time></trkpt><trkpt lat="45.266601" lon="8.4638457"><ele>118.0</ele><time>2026-05-03T15:50:22.7Z</time></trkpt><trkpt lat="45.2667728" lon="8.4638379"><ele>118.0</ele><time>2026-05-03T15:50:23.703Z</time></trkpt><trkpt lat="45.2669563" lon="8.4638361"><ele>118.0</ele><time>2026-05-03T15:50:24.701Z</time></trkpt><trkpt lat="45.2671358" lon="8.4638159"><ele>118.0</ele><time>2026-05-03T15:50:25.703Z</time></trkpt><trkpt lat="45.2673096" lon="8.463808"><ele>117.66666666666667</ele><time>2026-05-03T15:50:26.704Z</time></trkpt><trkpt lat="45.2674986" lon="8.4637986"><ele>117.33333333333334</ele><time>2026-05-03T15:50:27.697Z</time></trkpt><trkpt lat="45.2676832" lon="8.4637958"><ele>117.0</ele><time>2026-05-03T15:50:28.706Z</time></trkpt><trkpt lat="45.2678757" lon="8.4637817"><ele>117.33333333333334</ele><time>2026-05-03T15:50:29.707Z</time></trkpt><trkpt lat="45.2680663" lon="8.4637701"><ele>117.66666666666667</ele><time>2026-05-03T15:50:30.697Z</time></trkpt><trkpt lat="45.2682622" lon="8.4637526"><ele>118.0</ele><time>2026-05-03T15:50:31.72Z</time></trkpt><trkpt lat="45.2684435" lon="8.4637732"><ele>117.66666666666667</ele><time>2026-05-03T15:50:32.695Z</time></trkpt><trkpt lat="45.2686229" lon="8.4637816"><ele>117.33333333333334</ele><time>2026-05-03T15:50:33.697Z</time></trkpt><trkpt lat="45.2687764" lon="8.4637869"><ele>117.0</ele><time>2026-05-03T15:50:34.689Z</time></trkpt><trkpt lat="45.2689463" lon="8.4637711"><ele>117.0</ele><time>2026-05-03T15:50:35.688Z</time></trkpt><trkpt lat="45.2691153" lon="8.4637578"><ele>117.0</ele><time>2026-05-03T15:50:36.695Z</time></trkpt><trkpt lat="45.2692827" lon="8.4637665"><ele>117.0</ele><time>2026-05-03T15:50:37.689Z</time></trkpt><trkpt lat="45.2694501" lon="8.4637754"><ele>117.33333333333334</ele><time>2026-05-03T15:50:38.693Z</time></trkpt><trkpt lat="45.2696192" lon="8.4637824"><ele>117.66666666666667</ele><time>2026-05-03T15:50:39.703Z</time></trkpt><trkpt lat="45.269801" lon="8.4637773"><ele>118.0</ele><time>2026-05-03T15:50:40.698Z</time></trkpt><trkpt lat="45.2699742" lon="8.4637698"><ele>118.33333333333334</ele><time>2026-05-03T15:50:41.697Z</time></trkpt><trkpt lat="45.2701398" lon="8.4637686"><ele>118.66666666666666</ele><time>2026-05-03T15:50:42.694Z</time></trkpt><trkpt lat="45.2703089" lon="8.4637592"><ele>119.0</ele><time>2026-05-03T15:50:43.698Z</time></trkpt><trkpt lat="45.2704819" lon="8.463746"><ele>118.66666666666666</ele><time>2026-05-03T15:50:44.69Z</time></trkpt><trkpt lat="45.2706641" lon="8.4637421"><ele>118.33333333333334</ele><time>2026-05-03T15:50:45.698Z</time></trkpt><trkpt lat="45.2708516" lon="8.4637423"><ele>118.0</ele><time>2026-05-03T15:50:46.693Z</time></trkpt><trkpt lat="45.2710186" lon="8.4637465"><ele>118.0</ele><time>2026-05-03T15:50:47.691Z</time></trkpt><trkpt lat="45.2711947" lon="8.4637413"><ele>118.0</ele><time>2026-05-03T15:50:48.695Z</time></trkpt><trkpt lat="45.2713635" lon="8.4637298"><ele>118.0</ele><time>2026-05-03T15:50:49.683Z</time></trkpt><trkpt lat="45.2715242" lon="8.4637296"><ele>118.33333333333334</ele><time>2026-05-03T15:50:50.693Z</time></trkpt><trkpt lat="45.2716823" lon="8.4637205"><ele>118.66666666666666</ele><time>2026-05-03T15:50:51.697Z</time></trkpt><trkpt lat="45.2718669" lon="8.463733"><ele>119.0</ele><time>2026-05-03T15:50:52.702Z</time></trkpt><trkpt lat="45.2720383" lon="8.4637309"><ele>119.0</ele><time>2026-05-03T15:50:53.697Z</time></trkpt><trkpt lat="45.2722013" lon="8.4637143"><ele>119.0</ele><time>2026-05-03T15:50:54.689Z</time></trkpt><trkpt lat="45.2723624" lon="8.4637079"><ele>119.0</ele><time>2026-05-03T15:50:55.692Z</time></trkpt><trkpt lat="45.2725375" lon="8.4637042"><ele>118.33333333333333</ele><time>2026-05-03T15:50:56.697Z</time></trkpt><trkpt lat="45.2727072" lon="8.463705"><ele>117.66666666666666</ele><time>2026-05-03T15:50:57.693Z</time></trkpt><trkpt lat="45.2728625" lon="8.4636866"><ele>117.0</ele><time>2026-05-03T15:50:58.696Z</time></trkpt><trkpt lat="45.2730473" lon="8.4636668"><ele>116.66666666666666</ele><time>2026-05-03T15:50:59.696Z</time></trkpt><trkpt lat="45.2732218" lon="8.4636492"><ele>116.33333333333333</ele><time>2026-05-03T15:51:00.697Z</time></trkpt><trkpt lat="45.2734102" lon="8.4636362"><ele>116.0</ele><time>2026-05-03T15:51:01.695Z</time></trkpt><trkpt lat="45.2736019" lon="8.4636274"><ele>116.0</ele><time>2026-05-03T15:51:02.69Z</time></trkpt><trkpt lat="45.2737899" lon="8.4636181"><ele>116.0</ele><time>2026-05-03T15:51:03.691Z</time></trkpt><trkpt lat="45.2739901" lon="8.4635989"><ele>116.0</ele><time>2026-05-03T15:51:04.688Z</time></trkpt><trkpt lat="45.2741963" lon="8.4636039"><ele>117.0</ele><time>2026-05-03T15:51:05.692Z</time></trkpt><trkpt lat="45.2744223" lon="8.463602"><ele>118.0</ele><time>2026-05-03T15:51:06.692Z</time></trkpt><trkpt lat="45.2746508" lon="8.4636061"><ele>118.0</ele><time>2026-05-03T15:51:07.691Z</time></trkpt><trkpt lat="45.2748991" lon="8.463608"><ele>118.0</ele><time>2026-05-03T15:51:08.691Z</time></trkpt><trkpt lat="45.2751498" lon="8.4635907"><ele>118.0</ele><time>2026-05-03T15:51:09.692Z</time></trkpt><trkpt lat="45.2754077" lon="8.4635822"><ele>118.0</ele><time>2026-05-03T15:51:10.686Z</time></trkpt><trkpt lat="45.2756589" lon="8.4635673"><ele>118.5</ele><time>2026-05-03T15:51:11.695Z</time></trkpt><trkpt lat="45.2759315" lon="8.4635651"><ele>119.0</ele><time>2026-05-03T15:51:12.695Z</time></trkpt><trkpt lat="45.2762031" lon="8.4635537"><ele>119.0</ele><time>2026-05-03T15:51:13.696Z</time></trkpt><trkpt lat="45.2764791" lon="8.4635524"><ele>119.0</ele><time>2026-05-03T15:51:14.701Z</time></trkpt><trkpt lat="45.2767364" lon="8.4635284"><ele>119.0</ele><time>2026-05-03T15:51:15.69Z</time></trkpt><trkpt lat="45.2770159" lon="8.4635099"><ele>119.0</ele><time>2026-05-03T15:51:16.694Z</time></trkpt><trkpt lat="45.2772928" lon="8.4635139"><ele>118.0</ele><time>2026-05-03T15:51:17.692Z</time></trkpt><trkpt lat="45.2775496" lon="8.4634983"><ele>117.0</ele><time>2026-05-03T15:51:18.694Z</time></trkpt><trkpt lat="45.2778044" lon="8.4635011"><ele>117.0</ele><time>2026-05-03T15:51:19.695Z</time></trkpt><trkpt lat="45.2780442" lon="8.4634871"><ele>117.0</ele><time>2026-05-03T15:51:20.687Z</time></trkpt><trkpt lat="45.2782883" lon="8.4634653"><ele>117.5</ele><time>2026-05-03T15:51:21.689Z</time></trkpt><trkpt lat="45.2785398" lon="8.4634565"><ele>118.0</ele><time>2026-05-03T15:51:22.689Z</time></trkpt><trkpt lat="45.278791" lon="8.4634597"><ele>119.0</ele><time>2026-05-03T15:51:23.694Z</time></trkpt><trkpt lat="45.2790293" lon="8.4634758"><ele>120.0</ele><time>2026-05-03T15:51:24.688Z</time></trkpt><trkpt lat="45.2792655" lon="8.4634687"><ele>120.0</ele><time>2026-05-03T15:51:25.694Z</time></trkpt><trkpt lat="45.279516" lon="8.4634474"><ele>120.0</ele><time>2026-05-03T15:51:26.689Z</time></trkpt><trkpt lat="45.2797656" lon="8.4634485"><ele>118.5</ele><time>2026-05-03T15:51:27.684Z</time></trkpt><trkpt lat="45.2800149" lon="8.463396"><ele>117.0</ele><time>2026-05-03T15:51:28.681Z</time></trkpt><trkpt lat="45.280262" lon="8.463304"><ele>117.0</ele><time>2026-05-03T15:51:29.691Z</time></trkpt><trkpt lat="45.2805" lon="8.4631629"><ele>117.0</ele><time>2026-05-03T15:51:30.693Z</time></trkpt><trkpt lat="45.2807409" lon="8.463011"><ele>117.0</ele><time>2026-05-03T15:51:31.689Z</time></trkpt><trkpt lat="45.2809866" lon="8.4628484"><ele>117.0</ele><time>2026-05-03T15:51:32.695Z</time></trkpt><trkpt lat="45.2812297" lon="8.4626645"><ele>118.5</ele><time>2026-05-03T15:51:33.698Z</time></trkpt><trkpt lat="45.2814634" lon="8.4624692"><ele>120.0</ele><time>2026-05-03T15:51:34.689Z</time></trkpt><trkpt lat="45.2816991" lon="8.4623677"><ele>120.0</ele><time>2026-05-03T15:51:35.683Z</time></trkpt><trkpt lat="45.281948" lon="8.462179"><ele>120.0</ele><time>2026-05-03T15:51:36.687Z</time></trkpt><trkpt lat="45.2821908" lon="8.4620085"><ele>120.0</ele><time>2026-05-03T15:51:37.697Z</time></trkpt><trkpt lat="45.2824191" lon="8.4618273"><ele>120.0</ele><time>2026-05-03T15:51:38.689Z</time></trkpt><trkpt lat="45.2826761" lon="8.4616217"><ele>120.0</ele><time>2026-05-03T15:51:39.696Z</time></trkpt><trkpt lat="45.2829083" lon="8.461444"><ele>120.0</ele><time>2026-05-03T15:51:40.693Z</time></trkpt><trkpt lat="45.28312" lon="8.4612689"><ele>120.5</ele><time>2026-05-03T15:51:41.688Z</time></trkpt><trkpt lat="45.2833752" lon="8.4610578"><ele>121.0</ele><time>2026-05-03T15:51:42.699Z</time></trkpt><trkpt lat="45.2836034" lon="8.4608425"><ele>121.0</ele><time>2026-05-03T15:51:43.697Z</time></trkpt><trkpt lat="45.2838296" lon="8.4606234"><ele>121.0</ele><time>2026-05-03T15:51:44.689Z</time></trkpt><trkpt lat="45.2840379" lon="8.460416"><ele>121.33333333333334</ele><time>2026-05-03T15:51:45.712Z</time></trkpt><trkpt lat="45.284237" lon="8.4602465"><ele>121.66666666666666</ele><time>2026-05-03T15:51:46.703Z</time></trkpt><trkpt lat="45.2844214" lon="8.4600953"><ele>122.0</ele><time>2026-05-03T15:51:47.7Z</time></trkpt><trkpt lat="45.2845832" lon="8.4599353"><ele>122.0</ele><time>2026-05-03T15:51:48.699Z</time></trkpt><trkpt lat="45.2847493" lon="8.4597728"><ele>122.0</ele><time>2026-05-03T15:51:49.701Z</time></trkpt><trkpt lat="45.2849169" lon="8.4596359"><ele>122.0</ele><time>2026-05-03T15:51:50.696Z</time></trkpt><trkpt lat="45.2850754" lon="8.4594908"><ele>122.0</ele><time>2026-05-03T15:51:51.697Z</time></trkpt><trkpt lat="45.2852407" lon="8.4593395"><ele>122.0</ele><time>2026-05-03T15:51:52.699Z</time></trkpt><trkpt lat="45.2853897" lon="8.459183"><ele>122.0</ele><time>2026-05-03T15:51:53.71Z</time></trkpt><trkpt lat="45.2855503" lon="8.4590239"><ele>121.66666666666666</ele><time>2026-05-03T15:51:54.709Z</time></trkpt><trkpt lat="45.2857143" lon="8.4588516"><ele>121.33333333333334</ele><time>2026-05-03T15:51:55.801Z</time></trkpt><trkpt lat="45.2858873" lon="8.4586907"><ele>121.0</ele><time>2026-05-03T15:51:56.793Z</time></trkpt><trkpt lat="45.2860501" lon="8.4585441"><ele>121.0</ele><time>2026-05-03T15:51:57.794Z</time></trkpt><trkpt lat="45.2862084" lon="8.4583971"><ele>121.0</ele><time>2026-05-03T15:51:58.796Z</time></trkpt><trkpt lat="45.2863639" lon="8.4582525"><ele>121.0</ele><time>2026-05-03T15:51:59.803Z</time></trkpt><trkpt lat="45.2865113" lon="8.4581064"><ele>121.33333333333334</ele><time>2026-05-03T15:52:00.802Z</time></trkpt><trkpt lat="45.2866587" lon="8.4579499"><ele>121.66666666666666</ele><time>2026-05-03T15:52:01.801Z</time></trkpt><trkpt lat="45.2868049" lon="8.4577881"><ele>122.0</ele><time>2026-05-03T15:52:02.794Z</time></trkpt><trkpt lat="45.286948" lon="8.4576199"><ele>122.0</ele><time>2026-05-03T15:52:03.795Z</time></trkpt><trkpt lat="45.2870894" lon="8.4574414"><ele>122.0</ele><time>2026-05-03T15:52:04.786Z</time></trkpt><trkpt lat="45.2872384" lon="8.4572444"><ele>122.0</ele><time>2026-05-03T15:52:05.781Z</time></trkpt><trkpt lat="45.2874133" lon="8.4569996"><ele>122.5</ele><time>2026-05-03T15:52:06.783Z</time></trkpt><trkpt lat="45.2875773" lon="8.4567785"><ele>123.0</ele><time>2026-05-03T15:52:07.79Z</time></trkpt><trkpt lat="45.2877411" lon="8.4565561"><ele>123.0</ele><time>2026-05-03T15:52:08.789Z</time></trkpt><trkpt lat="45.2878904" lon="8.4563506"><ele>123.0</ele><time>2026-05-03T15:52:09.781Z</time></trkpt><trkpt lat="45.288033" lon="8.4561582"><ele>123.0</ele><time>2026-05-03T15:52:10.788Z</time></trkpt><trkpt lat="45.2881677" lon="8.4559758"><ele>122.33333333333334</ele><time>2026-05-03T15:52:11.788Z</time></trkpt><trkpt lat="45.2882919" lon="8.4558124"><ele>121.66666666666667</ele><time>2026-05-03T15:52:12.785Z</time></trkpt><trkpt lat="45.2884087" lon="8.4556549"><ele>121.0</ele><time>2026-05-03T15:52:13.779Z</time></trkpt><trkpt lat="45.2885196" lon="8.4554991"><ele>120.75</ele><time>2026-05-03T15:52:14.78Z</time></trkpt><trkpt lat="45.2886241" lon="8.4553552"><ele>120.5</ele><time>2026-05-03T15:52:15.77Z</time></trkpt><trkpt lat="45.2887216" lon="8.4552261"><ele>120.25</ele><time>2026-05-03T15:52:16.779Z</time></trkpt><trkpt lat="45.2888189" lon="8.4550989"><ele>120.0</ele><time>2026-05-03T15:52:17.772Z</time></trkpt><trkpt lat="45.2889052" lon="8.4549798"><ele>120.0</ele><time>2026-05-03T15:52:18.763Z</time></trkpt><trkpt lat="45.2889812" lon="8.4548725"><ele>120.0</ele><time>2026-05-03T15:52:19.786Z</time></trkpt><trkpt lat="45.2890441" lon="8.4547776"><ele>120.0</ele><time>2026-05-03T15:52:20.773Z</time></trkpt><trkpt lat="45.289109" lon="8.4546878"><ele>120.0</ele><time>2026-05-03T15:52:21.784Z</time></trkpt><trkpt lat="45.2891725" lon="8.4545983"><ele>120.0</ele><time>2026-05-03T15:52:22.773Z</time></trkpt><trkpt lat="45.2892305" lon="8.454518"><ele>120.0</ele><time>2026-05-03T15:52:23.779Z</time></trkpt><trkpt lat="45.2892919" lon="8.4544409"><ele>120.0</ele><time>2026-05-03T15:52:24.784Z</time></trkpt><trkpt lat="45.2893525" lon="8.4543698"><ele>120.0</ele><time>2026-05-03T15:52:25.772Z</time></trkpt><trkpt lat="45.2894193" lon="8.4543058"><ele>120.0</ele><time>2026-05-03T15:52:26.777Z</time></trkpt><trkpt lat="45.2894902" lon="8.4542401"><ele>120.0</ele><time>2026-05-03T15:52:27.782Z</time></trkpt><trkpt lat="45.2895723" lon="8.4541852"><ele>120.0</ele><time>2026-05-03T15:52:28.763Z</time></trkpt><trkpt lat="45.2896658" lon="8.454118"><ele>120.25</ele><time>2026-05-03T15:52:29.774Z</time></trkpt><trkpt lat="45.2897635" lon="8.4540063"><ele>120.5</ele><time>2026-05-03T15:52:30.752Z</time></trkpt><trkpt lat="45.2898324" lon="8.4538544"><ele>120.75</ele><time>2026-05-03T15:52:31.758Z</time></trkpt><trkpt lat="45.2899104" lon="8.4538989"><ele>121.0</ele><time>2026-05-03T15:52:32.678Z</time></trkpt><trkpt lat="45.2899738" lon="8.4537056"><ele>121.0</ele><time>2026-05-03T15:52:33.664Z</time></trkpt><trkpt lat="45.2900544" lon="8.4535144"><ele>121.0</ele><time>2026-05-03T15:52:34.668Z</time></trkpt><trkpt lat="45.2901741" lon="8.4532939"><ele>121.0</ele><time>2026-05-03T15:52:35.666Z</time></trkpt><trkpt lat="45.2903542" lon="8.4529872"><ele>121.0</ele><time>2026-05-03T15:52:36.672Z</time></trkpt><trkpt lat="45.2905317" lon="8.4527106"><ele>121.0</ele><time>2026-05-03T15:52:37.678Z</time></trkpt><trkpt lat="45.290732" lon="8.4524214"><ele>121.0</ele><time>2026-05-03T15:52:38.684Z</time></trkpt><trkpt lat="45.2909367" lon="8.4521608"><ele>121.0</ele><time>2026-05-03T15:52:39.683Z</time></trkpt><trkpt lat="45.2911369" lon="8.4519077"><ele>121.0</ele><time>2026-05-03T15:52:40.682Z</time></trkpt><trkpt lat="45.2913421" lon="8.4516588"><ele>121.0</ele><time>2026-05-03T15:52:41.684Z</time></trkpt><trkpt lat="45.2915363" lon="8.451395"><ele>120.5</ele><time>2026-05-03T15:52:42.687Z</time></trkpt><trkpt lat="45.2917289" lon="8.4510954"><ele>120.0</ele><time>2026-05-03T15:52:43.683Z</time></trkpt><trkpt lat="45.2919449" lon="8.4508085"><ele>120.0</ele><time>2026-05-03T15:52:44.684Z</time></trkpt><trkpt lat="45.2921531" lon="8.4505027"><ele>120.0</ele><time>2026-05-03T15:52:45.685Z</time></trkpt><trkpt lat="45.2923833" lon="8.4502168"><ele>119.0</ele><time>2026-05-03T15:52:46.686Z</time></trkpt><trkpt lat="45.2926256" lon="8.4499196"><ele>118.0</ele><time>2026-05-03T15:52:47.69Z</time></trkpt><trkpt lat="45.292859" lon="8.4496294"><ele>119.5</ele><time>2026-05-03T15:52:48.687Z</time></trkpt><trkpt lat="45.2931035" lon="8.4493194"><ele>121.0</ele><time>2026-05-03T15:52:49.682Z</time></trkpt><trkpt lat="45.2932958" lon="8.4490041"><ele>120.5</ele><time>2026-05-03T15:52:50.682Z</time></trkpt><trkpt lat="45.2935201" lon="8.4487056"><ele>120.0</ele><time>2026-05-03T15:52:51.681Z</time></trkpt><trkpt lat="45.2937325" lon="8.4483978"><ele>120.0</ele><time>2026-05-03T15:52:52.695Z</time></trkpt><trkpt lat="45.2939568" lon="8.4481081"><ele>120.0</ele><time>2026-05-03T15:52:53.684Z</time></trkpt><trkpt lat="45.2941855" lon="8.4478194"><ele>120.5</ele><time>2026-05-03T15:52:54.695Z</time></trkpt><trkpt lat="45.2944033" lon="8.4474844"><ele>121.0</ele><time>2026-05-03T15:52:55.702Z</time></trkpt><trkpt lat="45.2946022" lon="8.4471515"><ele>121.0</ele><time>2026-05-03T15:52:56.691Z</time></trkpt><trkpt lat="45.2947748" lon="8.4467945"><ele>121.0</ele><time>2026-05-03T15:52:57.681Z</time></trkpt><trkpt lat="45.2949559" lon="8.4464413"><ele>121.0</ele><time>2026-05-03T15:52:58.694Z</time></trkpt><trkpt lat="45.2951356" lon="8.4460842"><ele>121.0</ele><time>2026-05-03T15:52:59.692Z</time></trkpt><trkpt lat="45.2952987" lon="8.4457184"><ele>120.5</ele><time>2026-05-03T15:53:00.686Z</time></trkpt><trkpt lat="45.2954547" lon="8.4453242"><ele>120.0</ele><time>2026-05-03T15:53:01.693Z</time></trkpt><trkpt lat="45.2955963" lon="8.4448958"><ele>121.0</ele><time>2026-05-03T15:53:02.668Z</time></trkpt><trkpt lat="45.295743" lon="8.4444563"><ele>122.0</ele><time>2026-05-03T15:53:03.677Z</time></trkpt><trkpt lat="45.2958544" lon="8.4440198"><ele>122.0</ele><time>2026-05-03T15:53:04.684Z</time></trkpt><trkpt lat="45.295966" lon="8.4436202"><ele>122.0</ele><time>2026-05-03T15:53:05.687Z</time></trkpt><trkpt lat="45.2960891" lon="8.4432158"><ele>121.5</ele><time>2026-05-03T15:53:06.69Z</time></trkpt><trkpt lat="45.2962105" lon="8.4428305"><ele>121.0</ele><time>2026-05-03T15:53:07.682Z</time></trkpt><trkpt lat="45.2963282" lon="8.4424371"><ele>120.5</ele><time>2026-05-03T15:53:08.688Z</time></trkpt><trkpt lat="45.296433" lon="8.4420495"><ele>120.0</ele><time>2026-05-03T15:53:09.687Z</time></trkpt><trkpt lat="45.2965448" lon="8.4416591"><ele>120.5</ele><time>2026-05-03T15:53:10.689Z</time></trkpt><trkpt lat="45.296646" lon="8.44127"><ele>121.0</ele><time>2026-05-03T15:53:11.684Z</time></trkpt><trkpt lat="45.2967327" lon="8.4409073"><ele>121.0</ele><time>2026-05-03T15:53:12.688Z</time></trkpt><trkpt lat="45.2968276" lon="8.4405525"><ele>121.0</ele><time>2026-05-03T15:53:13.688Z</time></trkpt><trkpt lat="45.296922" lon="8.4402101"><ele>121.0</ele><time>2026-05-03T15:53:14.687Z</time></trkpt><trkpt lat="45.2970106" lon="8.4398792"><ele>121.0</ele><time>2026-05-03T15:53:15.687Z</time></trkpt><trkpt lat="45.2970895" lon="8.439548"><ele>121.5</ele><time>2026-05-03T15:53:16.688Z</time></trkpt><trkpt lat="45.2971689" lon="8.4392097"><ele>122.0</ele><time>2026-05-03T15:53:17.676Z</time></trkpt><trkpt lat="45.297268" lon="8.4388726"><ele>122.0</ele><time>2026-05-03T15:53:18.684Z</time></trkpt><trkpt lat="45.2973593" lon="8.4385305"><ele>122.0</ele><time>2026-05-03T15:53:19.69Z</time></trkpt><trkpt lat="45.2974361" lon="8.4381963"><ele>122.0</ele><time>2026-05-03T15:53:20.685Z</time></trkpt><trkpt lat="45.2975294" lon="8.4378543"><ele>122.0</ele><time>2026-05-03T15:53:21.68Z</time></trkpt><trkpt lat="45.2976111" lon="8.4374912"><ele>122.0</ele><time>2026-05-03T15:53:22.693Z</time></trkpt><trkpt lat="45.2977013" lon="8.4371428"><ele>122.0</ele><time>2026-05-03T15:53:23.684Z</time></trkpt><trkpt lat="45.297796" lon="8.4367948"><ele>122.0</ele><time>2026-05-03T15:53:24.687Z</time></trkpt><trkpt lat="45.2979055" lon="8.4364387"><ele>122.0</ele><time>2026-05-03T15:53:25.686Z</time></trkpt><trkpt lat="45.2980071" lon="8.4360666"><ele>121.5</ele><time>2026-05-03T15:53:26.687Z</time></trkpt><trkpt lat="45.2980969" lon="8.4356949"><ele>121.0</ele><time>2026-05-03T15:53:27.683Z</time></trkpt><trkpt lat="45.2981905" lon="8.4352998"><ele>121.5</ele><time>2026-05-03T15:53:28.68Z</time></trkpt><trkpt lat="45.2983018" lon="8.4349526"><ele>122.0</ele><time>2026-05-03T15:53:29.705Z</time></trkpt><trkpt lat="45.298391" lon="8.4345576"><ele>122.0</ele><time>2026-05-03T15:53:30.69Z</time></trkpt><trkpt lat="45.2984869" lon="8.4341845"><ele>122.0</ele><time>2026-05-03T15:53:31.694Z</time></trkpt><trkpt lat="45.2985802" lon="8.4338182"><ele>121.5</ele><time>2026-05-03T15:53:32.69Z</time></trkpt><trkpt lat="45.2986734" lon="8.4334699"><ele>121.0</ele><time>2026-05-03T15:53:33.689Z</time></trkpt><trkpt lat="45.298771" lon="8.4330979"><ele>121.0</ele><time>2026-05-03T15:53:34.694Z</time></trkpt><trkpt lat="45.2988694" lon="8.4327457"><ele>121.0</ele><time>2026-05-03T15:53:35.687Z</time></trkpt><trkpt lat="45.2989535" lon="8.4323928"><ele>120.5</ele><time>2026-05-03T15:53:36.682Z</time></trkpt><trkpt lat="45.2990452" lon="8.432093"><ele>120.0</ele><time>2026-05-03T15:53:37.691Z</time></trkpt><trkpt lat="45.2991406" lon="8.4317813"><ele>120.0</ele><time>2026-05-03T15:53:38.684Z</time></trkpt><trkpt lat="45.2992203" lon="8.4314539"><ele>120.0</ele><time>2026-05-03T15:53:39.686Z</time></trkpt><trkpt lat="45.2992895" lon="8.4311401"><ele>121.0</ele><time>2026-05-03T15:53:40.698Z</time></trkpt><trkpt lat="45.2993821" lon="8.4308092"><ele>122.0</ele><time>2026-05-03T15:53:41.689Z</time></trkpt><trkpt lat="45.2994496" lon="8.4304926"><ele>122.0</ele><time>2026-05-03T15:53:42.688Z</time></trkpt><trkpt lat="45.2995451" lon="8.4302182"><ele>122.0</ele><time>2026-05-03T15:53:43.693Z</time></trkpt><trkpt lat="45.2996324" lon="8.4299328"><ele>122.0</ele><time>2026-05-03T15:53:44.694Z</time></trkpt><trkpt lat="45.2997007" lon="8.4296533"><ele>121.33333333333333</ele><time>2026-05-03T15:53:45.697Z</time></trkpt><trkpt lat="45.299766" lon="8.4294047"><ele>120.66666666666666</ele><time>2026-05-03T15:53:46.7Z</time></trkpt><trkpt lat="45.2998273" lon="8.429166"><ele>120.0</ele><time>2026-05-03T15:53:47.695Z</time></trkpt><trkpt lat="45.2999058" lon="8.428902"><ele>121.0</ele><time>2026-05-03T15:53:48.7Z</time></trkpt><trkpt lat="45.2999686" lon="8.4286743"><ele>122.0</ele><time>2026-05-03T15:53:49.69Z</time></trkpt><trkpt lat="45.3000358" lon="8.4284328"><ele>123.0</ele><time>2026-05-03T15:53:50.692Z</time></trkpt><trkpt lat="45.3001077" lon="8.4281938"><ele>123.33333333333334</ele><time>2026-05-03T15:53:51.691Z</time></trkpt><trkpt lat="45.300178" lon="8.4279293"><ele>123.66666666666667</ele><time>2026-05-03T15:53:52.686Z</time></trkpt><trkpt lat="45.3002465" lon="8.4276864"><ele>124.0</ele><time>2026-05-03T15:53:53.688Z</time></trkpt><trkpt lat="45.300284" lon="8.4273646"><ele>124.0</ele><time>2026-05-03T15:53:54.676Z</time></trkpt><trkpt lat="45.3003484" lon="8.4270452"><ele>124.0</ele><time>2026-05-03T15:53:55.678Z</time></trkpt><trkpt lat="45.3004062" lon="8.4267038"><ele>124.0</ele><time>2026-05-03T15:53:56.684Z</time></trkpt><trkpt lat="45.3004789" lon="8.4263697"><ele>124.0</ele><time>2026-05-03T15:53:57.674Z</time></trkpt><trkpt lat="45.3005577" lon="8.4260563"><ele>124.0</ele><time>2026-05-03T15:53:58.699Z</time></trkpt><trkpt lat="45.3006228" lon="8.4257461"><ele>124.0</ele><time>2026-05-03T15:53:59.701Z</time></trkpt><trkpt lat="45.3006798" lon="8.4254558"><ele>124.0</ele><time>2026-05-03T15:54:00.683Z</time></trkpt><trkpt lat="45.3007328" lon="8.4252131"><ele>123.66666666666667</ele><time>2026-05-03T15:54:01.69Z</time></trkpt><trkpt lat="45.3008071" lon="8.4249493"><ele>123.33333333333334</ele><time>2026-05-03T15:54:02.684Z</time></trkpt><trkpt lat="45.3008612" lon="8.4247405"><ele>123.0</ele><time>2026-05-03T15:54:03.683Z</time></trkpt><trkpt lat="45.3009201" lon="8.4245428"><ele>123.0</ele><time>2026-05-03T15:54:04.683Z</time></trkpt><trkpt lat="45.300962" lon="8.4243845"><ele>123.00000000000001</ele><time>2026-05-03T15:54:05.685Z</time></trkpt><trkpt lat="45.3010044" lon="8.4242354"><ele>123.00000000000001</ele><time>2026-05-03T15:54:06.674Z</time></trkpt><trkpt lat="45.3010859" lon="8.4241158"><ele>123.0</ele><time>2026-05-03T15:54:07.69Z</time></trkpt><trkpt lat="45.3011412" lon="8.4240122"><ele>123.0</ele><time>2026-05-03T15:54:08.672Z</time></trkpt><trkpt lat="45.3011622" lon="8.4238906"><ele>123.5</ele><time>2026-05-03T15:54:09.669Z</time></trkpt><trkpt lat="45.3011612" lon="8.4236869"><ele>124.0</ele><time>2026-05-03T15:54:10.67Z</time></trkpt><trkpt lat="45.3011525" lon="8.4235033"><ele>124.5</ele><time>2026-05-03T15:54:11.689Z</time></trkpt><trkpt lat="45.3011377" lon="8.4232671"><ele>125.0</ele><time>2026-05-03T15:54:12.676Z</time></trkpt><trkpt lat="45.3012383" lon="8.4230176"><ele>125.0</ele><time>2026-05-03T15:54:13.685Z</time></trkpt><trkpt lat="45.3013026" lon="8.422645"><ele>125.0</ele><time>2026-05-03T15:54:14.669Z</time></trkpt><trkpt lat="45.3014181" lon="8.4223098"><ele>124.5</ele><time>2026-05-03T15:54:15.673Z</time></trkpt><trkpt lat="45.3014753" lon="8.4219427"><ele>124.0</ele><time>2026-05-03T15:54:16.675Z</time></trkpt><trkpt lat="45.3015554" lon="8.4215783"><ele>125.0</ele><time>2026-05-03T15:54:17.678Z</time></trkpt><trkpt lat="45.3016336" lon="8.4211816"><ele>126.0</ele><time>2026-05-03T15:54:18.681Z</time></trkpt><trkpt lat="45.3017262" lon="8.4207883"><ele>125.5</ele><time>2026-05-03T15:54:19.681Z</time></trkpt><trkpt lat="45.3018121" lon="8.4203887"><ele>125.0</ele><time>2026-05-03T15:54:20.677Z</time></trkpt><trkpt lat="45.3018813" lon="8.4199878"><ele>125.0</ele><time>2026-05-03T15:54:21.694Z</time></trkpt><trkpt lat="45.3019729" lon="8.4195799"><ele>125.0</ele><time>2026-05-03T15:54:22.695Z</time></trkpt><trkpt lat="45.3020554" lon="8.4191761"><ele>124.5</ele><time>2026-05-03T15:54:23.694Z</time></trkpt><trkpt lat="45.3021534" lon="8.4187579"><ele>124.0</ele><time>2026-05-03T15:54:24.694Z</time></trkpt><trkpt lat="45.3022498" lon="8.418355"><ele>124.0</ele><time>2026-05-03T15:54:25.7Z</time></trkpt><trkpt lat="45.3023469" lon="8.4179586"><ele>124.0</ele><time>2026-05-03T15:54:26.697Z</time></trkpt><trkpt lat="45.3024584" lon="8.4175404"><ele>124.0</ele><time>2026-05-03T15:54:27.701Z</time></trkpt><trkpt lat="45.3025718" lon="8.4171599"><ele>124.0</ele><time>2026-05-03T15:54:28.697Z</time></trkpt><trkpt lat="45.3026764" lon="8.4167689"><ele>124.0</ele><time>2026-05-03T15:54:29.712Z</time></trkpt><trkpt lat="45.3027934" lon="8.4163747"><ele>124.0</ele><time>2026-05-03T15:54:30.694Z</time></trkpt><trkpt lat="45.3029057" lon="8.4159786"><ele>124.0</ele><time>2026-05-03T15:54:31.699Z</time></trkpt><trkpt lat="45.3030069" lon="8.415587"><ele>124.0</ele><time>2026-05-03T15:54:32.686Z</time></trkpt><trkpt lat="45.3031077" lon="8.4152086"><ele>124.0</ele><time>2026-05-03T15:54:33.691Z</time></trkpt><trkpt lat="45.3031985" lon="8.4148189"><ele>124.0</ele><time>2026-05-03T15:54:34.691Z</time></trkpt><trkpt lat="45.3033052" lon="8.414428"><ele>125.0</ele><time>2026-05-03T15:54:35.695Z</time></trkpt><trkpt lat="45.303436" lon="8.4140667"><ele>126.0</ele><time>2026-05-03T15:54:36.696Z</time></trkpt><trkpt lat="45.3035446" lon="8.4136966"><ele>126.0</ele><time>2026-05-03T15:54:37.688Z</time></trkpt><trkpt lat="45.3036455" lon="8.4133389"><ele>126.0</ele><time>2026-05-03T15:54:38.68Z</time></trkpt><trkpt lat="45.3037163" lon="8.4130276"><ele>126.5</ele><time>2026-05-03T15:54:39.692Z</time></trkpt><trkpt lat="45.3037981" lon="8.4127156"><ele>127.0</ele><time>2026-05-03T15:54:40.689Z</time></trkpt><trkpt lat="45.3038591" lon="8.4124094"><ele>127.0</ele><time>2026-05-03T15:54:41.689Z</time></trkpt><trkpt lat="45.3039266" lon="8.4121106"><ele>127.0</ele><time>2026-05-03T15:54:42.694Z</time></trkpt><trkpt lat="45.3039741" lon="8.4117993"><ele>127.0</ele><time>2026-05-03T15:54:43.7Z</time></trkpt><trkpt lat="45.3040584" lon="8.4114925"><ele>126.5</ele><time>2026-05-03T15:54:44.701Z</time></trkpt><trkpt lat="45.3041444" lon="8.4111728"><ele>126.0</ele><time>2026-05-03T15:54:45.688Z</time></trkpt><trkpt lat="45.3042531" lon="8.4108707"><ele>126.0</ele><time>2026-05-03T15:54:46.694Z</time></trkpt><trkpt lat="45.3043352" lon="8.4105384"><ele>126.0</ele><time>2026-05-03T15:54:47.695Z</time></trkpt><trkpt lat="45.3044227" lon="8.4102262"><ele>126.33333333333334</ele><time>2026-05-03T15:54:48.692Z</time></trkpt><trkpt lat="45.3045141" lon="8.4099174"><ele>126.66666666666667</ele><time>2026-05-03T15:54:49.698Z</time></trkpt><trkpt lat="45.304582" lon="8.4096562"><ele>127.0</ele><time>2026-05-03T15:54:50.691Z</time></trkpt><trkpt lat="45.3046497" lon="8.4094292"><ele>127.0</ele><time>2026-05-03T15:54:51.698Z</time></trkpt><trkpt lat="45.3047157" lon="8.4092309"><ele>127.0</ele><time>2026-05-03T15:54:52.701Z</time></trkpt><trkpt lat="45.3047644" lon="8.4090325"><ele>127.0</ele><time>2026-05-03T15:54:53.701Z</time></trkpt><trkpt lat="45.3047937" lon="8.4088438"><ele>127.0</ele><time>2026-05-03T15:54:54.691Z</time></trkpt><trkpt lat="45.3049099" lon="8.408678"><ele>127.25</ele><time>2026-05-03T15:54:55.688Z</time></trkpt><trkpt lat="45.305019" lon="8.4085811"><ele>127.5</ele><time>2026-05-03T15:54:56.698Z</time></trkpt><trkpt lat="45.3050912" lon="8.4085102"><ele>127.75</ele><time>2026-05-03T15:54:57.694Z</time></trkpt><trkpt lat="45.3051803" lon="8.4084583"><ele>128.0</ele><time>2026-05-03T15:54:58.682Z</time></trkpt><trkpt lat="45.305154" lon="8.4082499"><ele>128.0</ele><time>2026-05-03T15:54:59.697Z</time></trkpt><trkpt lat="45.3051317" lon="8.408058"><ele>128.0</ele><time>2026-05-03T15:55:00.681Z</time></trkpt><trkpt lat="45.3051503" lon="8.4078766"><ele>128.0</ele><time>2026-05-03T15:55:01.689Z</time></trkpt><trkpt lat="45.3051922" lon="8.4076833"><ele>128.0</ele><time>2026-05-03T15:55:02.672Z</time></trkpt><trkpt lat="45.3052416" lon="8.4074529"><ele>127.5</ele><time>2026-05-03T15:55:03.679Z</time></trkpt><trkpt lat="45.3053176" lon="8.4071914"><ele>127.0</ele><time>2026-05-03T15:55:04.682Z</time></trkpt><trkpt lat="45.3054231" lon="8.4067667"><ele>127.0</ele><time>2026-05-03T15:55:05.684Z</time></trkpt><trkpt lat="45.3055566" lon="8.406263"><ele>127.0</ele><time>2026-05-03T15:55:06.671Z</time></trkpt><trkpt lat="45.305706" lon="8.4058081"><ele>127.0</ele><time>2026-05-03T15:55:07.68Z</time></trkpt><trkpt lat="45.3058551" lon="8.4053966"><ele>127.0</ele><time>2026-05-03T15:55:08.686Z</time></trkpt><trkpt lat="45.3060158" lon="8.4049892"><ele>127.5</ele><time>2026-05-03T15:55:09.685Z</time></trkpt><trkpt lat="45.3061769" lon="8.4045954"><ele>128.0</ele><time>2026-05-03T15:55:10.689Z</time></trkpt><trkpt lat="45.3063446" lon="8.4042406"><ele>128.0</ele><time>2026-05-03T15:55:11.697Z</time></trkpt><trkpt lat="45.3065225" lon="8.4039559"><ele>128.0</ele><time>2026-05-03T15:55:12.691Z</time></trkpt><trkpt lat="45.3066862" lon="8.4037036"><ele>127.66666666666666</ele><time>2026-05-03T15:55:13.69Z</time></trkpt><trkpt lat="45.3068248" lon="8.4034625"><ele>127.33333333333334</ele><time>2026-05-03T15:55:14.686Z</time></trkpt><trkpt lat="45.3069585" lon="8.4032237"><ele>127.0</ele><time>2026-05-03T15:55:15.691Z</time></trkpt><trkpt lat="45.3070671" lon="8.4029977"><ele>127.5</ele><time>2026-05-03T15:55:16.687Z</time></trkpt><trkpt lat="45.3072276" lon="8.4027604"><ele>128.0</ele><time>2026-05-03T15:55:17.68Z</time></trkpt><trkpt lat="45.3074366" lon="8.4025426"><ele>128.0</ele><time>2026-05-03T15:55:18.686Z</time></trkpt><trkpt lat="45.3076398" lon="8.4023353"><ele>128.0</ele><time>2026-05-03T15:55:19.694Z</time></trkpt><trkpt lat="45.3078344" lon="8.402125"><ele>128.5</ele><time>2026-05-03T15:55:20.695Z</time></trkpt><trkpt lat="45.3080568" lon="8.4019369"><ele>129.0</ele><time>2026-05-03T15:55:21.701Z</time></trkpt><trkpt lat="45.3082849" lon="8.4017343"><ele>129.5</ele><time>2026-05-03T15:55:22.701Z</time></trkpt><trkpt lat="45.3085215" lon="8.4015293"><ele>130.0</ele><time>2026-05-03T15:55:23.701Z</time></trkpt><trkpt lat="45.3087409" lon="8.4013252"><ele>130.0</ele><time>2026-05-03T15:55:24.69Z</time></trkpt><trkpt lat="45.3089897" lon="8.4011152"><ele>130.0</ele><time>2026-05-03T15:55:25.676Z</time></trkpt><trkpt lat="45.3092355" lon="8.400895"><ele>130.0</ele><time>2026-05-03T15:55:26.691Z</time></trkpt><trkpt lat="45.3094876" lon="8.4006981"><ele>130.0</ele><time>2026-05-03T15:55:27.686Z</time></trkpt><trkpt lat="45.309727" lon="8.4004576"><ele>128.5</ele><time>2026-05-03T15:55:28.692Z</time></trkpt><trkpt lat="45.3099708" lon="8.4002368"><ele>127.0</ele><time>2026-05-03T15:55:29.69Z</time></trkpt><trkpt lat="45.3101993" lon="8.4000303"><ele>127.0</ele><time>2026-05-03T15:55:30.682Z</time></trkpt><trkpt lat="45.3104288" lon="8.3998581"><ele>127.0</ele><time>2026-05-03T15:55:31.69Z</time></trkpt><trkpt lat="45.3106557" lon="8.3996752"><ele>127.0</ele><time>2026-05-03T15:55:32.678Z</time></trkpt><trkpt lat="45.3108794" lon="8.3994786"><ele>127.0</ele><time>2026-05-03T15:55:33.694Z</time></trkpt><trkpt lat="45.3111178" lon="8.3992601"><ele>127.0</ele><time>2026-05-03T15:55:34.695Z</time></trkpt><trkpt lat="45.311338" lon="8.3990769"><ele>127.0</ele><time>2026-05-03T15:55:35.7Z</time></trkpt><trkpt lat="45.3115693" lon="8.3988808"><ele>127.0</ele><time>2026-05-03T15:55:36.702Z</time></trkpt><trkpt lat="45.3118041" lon="8.3986892"><ele>127.0</ele><time>2026-05-03T15:55:37.699Z</time></trkpt><trkpt lat="45.3120312" lon="8.398486"><ele>127.0</ele><time>2026-05-03T15:55:38.7Z</time></trkpt><trkpt lat="45.3122468" lon="8.398298"><ele>127.0</ele><time>2026-05-03T15:55:39.697Z</time></trkpt><trkpt lat="45.3124698" lon="8.398094"><ele>126.5</ele><time>2026-05-03T15:55:40.697Z</time></trkpt><trkpt lat="45.3126911" lon="8.3978945"><ele>126.0</ele><time>2026-05-03T15:55:41.704Z</time></trkpt><trkpt lat="45.3129296" lon="8.3977023"><ele>126.5</ele><time>2026-05-03T15:55:42.7Z</time></trkpt><trkpt lat="45.3131679" lon="8.3975129"><ele>127.0</ele><time>2026-05-03T15:55:43.703Z</time></trkpt><trkpt lat="45.3134022" lon="8.3973121"><ele>126.5</ele><time>2026-05-03T15:55:44.706Z</time></trkpt><trkpt lat="45.3136441" lon="8.3971024"><ele>126.0</ele><time>2026-05-03T15:55:45.705Z</time></trkpt><trkpt lat="45.3138619" lon="8.3968799"><ele>126.0</ele><time>2026-05-03T15:55:46.705Z</time></trkpt><trkpt lat="45.3140874" lon="8.3966857"><ele>126.0</ele><time>2026-05-03T15:55:47.702Z</time></trkpt><trkpt lat="45.3143345" lon="8.3964815"><ele>126.0</ele><time>2026-05-03T15:55:48.715Z</time></trkpt><trkpt lat="45.3145544" lon="8.3963015"><ele>126.0</ele><time>2026-05-03T15:55:49.706Z</time></trkpt><trkpt lat="45.3147595" lon="8.3961353"><ele>126.5</ele><time>2026-05-03T15:55:50.699Z</time></trkpt><trkpt lat="45.3149679" lon="8.3959616"><ele>127.0</ele><time>2026-05-03T15:55:51.702Z</time></trkpt><trkpt lat="45.3151693" lon="8.3957769"><ele>127.0</ele><time>2026-05-03T15:55:52.694Z</time></trkpt><trkpt lat="45.3153705" lon="8.3955877"><ele>127.0</ele><time>2026-05-03T15:55:53.694Z</time></trkpt><trkpt lat="45.3155666" lon="8.395414"><ele>128.0</ele><time>2026-05-03T15:55:54.699Z</time></trkpt><trkpt lat="45.3157438" lon="8.3952353"><ele>129.0</ele><time>2026-05-03T15:55:55.701Z</time></trkpt><trkpt lat="45.3159075" lon="8.3950815"><ele>130.0</ele><time>2026-05-03T15:55:56.688Z</time></trkpt><trkpt lat="45.316067" lon="8.3949217"><ele>130.0</ele><time>2026-05-03T15:55:57.693Z</time></trkpt><trkpt lat="45.3162112" lon="8.3948016"><ele>130.0</ele><time>2026-05-03T15:55:58.705Z</time></trkpt><trkpt lat="45.3163241" lon="8.3947254"><ele>130.0</ele><time>2026-05-03T15:55:59.699Z</time></trkpt><trkpt lat="45.3164405" lon="8.3946515"><ele>130.0</ele><time>2026-05-03T15:56:00.688Z</time></trkpt><trkpt lat="45.3165615" lon="8.3946129"><ele>129.8</ele><time>2026-05-03T15:56:01.681Z</time></trkpt><trkpt lat="45.3166838" lon="8.3946202"><ele>129.6</ele><time>2026-05-03T15:56:02.673Z</time></trkpt><trkpt lat="45.3168104" lon="8.394574"><ele>129.4</ele><time>2026-05-03T15:56:03.679Z</time></trkpt><trkpt lat="45.3169143" lon="8.3945364"><ele>129.2</ele><time>2026-05-03T15:56:04.67Z</time></trkpt><trkpt lat="45.3169791" lon="8.3944995"><ele>129.0</ele><time>2026-05-03T15:56:05.664Z</time></trkpt><trkpt lat="45.3170497" lon="8.3944736"><ele>129.0</ele><time>2026-05-03T15:56:06.669Z</time></trkpt><trkpt lat="45.3171671" lon="8.3943114"><ele>129.0</ele><time>2026-05-03T15:56:07.653Z</time></trkpt><trkpt lat="45.3173182" lon="8.3941411"><ele>129.0</ele><time>2026-05-03T15:56:08.664Z</time></trkpt><trkpt lat="45.3174822" lon="8.3939031"><ele>128.5</ele><time>2026-05-03T15:56:09.668Z</time></trkpt><trkpt lat="45.3177004" lon="8.3936868"><ele>128.0</ele><time>2026-05-03T15:56:10.671Z</time></trkpt><trkpt lat="45.317921" lon="8.3934937"><ele>129.5</ele><time>2026-05-03T15:56:11.678Z</time></trkpt><trkpt lat="45.3181377" lon="8.393287"><ele>131.0</ele><time>2026-05-03T15:56:12.689Z</time></trkpt><trkpt lat="45.3183618" lon="8.3930834"><ele>130.0</ele><time>2026-05-03T15:56:13.688Z</time></trkpt><trkpt lat="45.3185804" lon="8.3928984"><ele>129.0</ele><time>2026-05-03T15:56:14.685Z</time></trkpt><trkpt lat="45.3187726" lon="8.3927486"><ele>130.0</ele><time>2026-05-03T15:56:15.684Z</time></trkpt><trkpt lat="45.3189807" lon="8.3925599"><ele>131.0</ele><time>2026-05-03T15:56:16.685Z</time></trkpt><trkpt lat="45.3191797" lon="8.3923994"><ele>131.0</ele><time>2026-05-03T15:56:17.691Z</time></trkpt><trkpt lat="45.3193655" lon="8.3922208"><ele>131.0</ele><time>2026-05-03T15:56:18.686Z</time></trkpt><trkpt lat="45.3195679" lon="8.3920443"><ele>130.5</ele><time>2026-05-03T15:56:19.695Z</time></trkpt><trkpt lat="45.3197404" lon="8.3919117"><ele>130.0</ele><time>2026-05-03T15:56:20.686Z</time></trkpt><trkpt lat="45.3199579" lon="8.3917046"><ele>130.0</ele><time>2026-05-03T15:56:21.691Z</time></trkpt><trkpt lat="45.3202105" lon="8.3914673"><ele>130.0</ele><time>2026-05-03T15:56:22.682Z</time></trkpt><trkpt lat="45.3204796" lon="8.3912124"><ele>131.0</ele><time>2026-05-03T15:56:23.69Z</time></trkpt><trkpt lat="45.3207253" lon="8.390986"><ele>132.0</ele><time>2026-05-03T15:56:24.693Z</time></trkpt><trkpt lat="45.3209577" lon="8.390809"><ele>132.0</ele><time>2026-05-03T15:56:25.695Z</time></trkpt><trkpt lat="45.3211852" lon="8.3906319"><ele>132.0</ele><time>2026-05-03T15:56:26.695Z</time></trkpt><trkpt lat="45.3214158" lon="8.3904306"><ele>132.5</ele><time>2026-05-03T15:56:27.688Z</time></trkpt><trkpt lat="45.3216349" lon="8.3902312"><ele>133.0</ele><time>2026-05-03T15:56:28.699Z</time></trkpt><trkpt lat="45.3218684" lon="8.3900398"><ele>133.0</ele><time>2026-05-03T15:56:29.702Z</time></trkpt><trkpt lat="45.3220814" lon="8.3898923"><ele>133.0</ele><time>2026-05-03T15:56:30.693Z</time></trkpt><trkpt lat="45.3222967" lon="8.3896893"><ele>132.5</ele><time>2026-05-03T15:56:31.691Z</time></trkpt><trkpt lat="45.3225134" lon="8.3895186"><ele>132.0</ele><time>2026-05-03T15:56:32.687Z</time></trkpt><trkpt lat="45.3227122" lon="8.3893381"><ele>132.0</ele><time>2026-05-03T15:56:33.691Z</time></trkpt><trkpt lat="45.3229128" lon="8.3891298"><ele>132.0</ele><time>2026-05-03T15:56:34.692Z</time></trkpt><trkpt lat="45.3231004" lon="8.3888898"><ele>132.0</ele><time>2026-05-03T15:56:35.693Z</time></trkpt><trkpt lat="45.3232728" lon="8.3886951"><ele>132.0</ele><time>2026-05-03T15:56:36.698Z</time></trkpt><trkpt lat="45.3234084" lon="8.3885189"><ele>132.0</ele><time>2026-05-03T15:56:37.696Z</time></trkpt><trkpt lat="45.3235115" lon="8.3883644"><ele>132.0</ele><time>2026-05-03T15:56:38.688Z</time></trkpt><trkpt lat="45.323612" lon="8.3882452"><ele>132.0</ele><time>2026-05-03T15:56:39.683Z</time></trkpt><trkpt lat="45.3237108" lon="8.3881294"><ele>132.0</ele><time>2026-05-03T15:56:40.669Z</time></trkpt><trkpt lat="45.3238004" lon="8.3880815"><ele>132.0</ele><time>2026-05-03T15:56:41.676Z</time></trkpt><trkpt lat="45.3238725" lon="8.3881145"><ele>132.0</ele><time>2026-05-03T15:56:42.673Z</time></trkpt><trkpt lat="45.3239647" lon="8.388267"><ele>132.25</ele><time>2026-05-03T15:56:43.681Z</time></trkpt><trkpt lat="45.3240558" lon="8.3883633"><ele>132.5</ele><time>2026-05-03T15:56:44.679Z</time></trkpt><trkpt lat="45.3241524" lon="8.3883861"><ele>132.75</ele><time>2026-05-03T15:56:45.664Z</time></trkpt><trkpt lat="45.3242455" lon="8.3883902"><ele>133.0</ele><time>2026-05-03T15:56:46.666Z</time></trkpt><trkpt lat="45.3243455" lon="8.3882354"><ele>133.0</ele><time>2026-05-03T15:56:48.664Z</time></trkpt><trkpt lat="45.3244154" lon="8.3881434"><ele>133.0</ele><time>2026-05-03T15:56:49.678Z</time></trkpt><trkpt lat="45.3244794" lon="8.3880366"><ele>133.0</ele><time>2026-05-03T15:56:50.669Z</time></trkpt><trkpt lat="45.3245" lon="8.3878942"><ele>133.0</ele><time>2026-05-03T15:56:51.677Z</time></trkpt><trkpt lat="45.3244756" lon="8.3877453"><ele>133.0</ele><time>2026-05-03T15:56:52.668Z</time></trkpt><trkpt lat="45.3244091" lon="8.3875899"><ele>132.25</ele><time>2026-05-03T15:56:53.671Z</time></trkpt><trkpt lat="45.3243346" lon="8.3874413"><ele>131.5</ele><time>2026-05-03T15:56:54.665Z</time></trkpt><trkpt lat="45.3242353" lon="8.3872994"><ele>130.75</ele><time>2026-05-03T15:56:55.664Z</time></trkpt><trkpt lat="45.3241635" lon="8.3871494"><ele>130.0</ele><time>2026-05-03T15:56:56.66Z</time></trkpt><trkpt lat="45.3240768" lon="8.3869852"><ele>129.66666666666669</ele><time>2026-05-03T15:56:57.661Z</time></trkpt><trkpt lat="45.3240526" lon="8.3867455"><ele>129.33333333333334</ele><time>2026-05-03T15:56:58.675Z</time></trkpt><trkpt lat="45.3240937" lon="8.3864383"><ele>129.0</ele><time>2026-05-03T15:56:59.68Z</time></trkpt><trkpt lat="45.324206" lon="8.3859546"><ele>130.0</ele><time>2026-05-03T15:57:00.67Z</time></trkpt><trkpt lat="45.3243486" lon="8.3854832"><ele>131.0</ele><time>2026-05-03T15:57:01.679Z</time></trkpt><trkpt lat="45.3243992" lon="8.385068"><ele>131.0</ele><time>2026-05-03T15:57:02.685Z</time></trkpt><trkpt lat="45.3244306" lon="8.3847271"><ele>131.0</ele><time>2026-05-03T15:57:03.678Z</time></trkpt><trkpt lat="45.3244452" lon="8.3844085"><ele>131.33333333333331</ele><time>2026-05-03T15:57:04.698Z</time></trkpt><trkpt lat="45.3244224" lon="8.3841645"><ele>131.66666666666666</ele><time>2026-05-03T15:57:05.684Z</time></trkpt><trkpt lat="45.3244248" lon="8.3839197"><ele>132.0</ele><time>2026-05-03T15:57:06.681Z</time></trkpt><trkpt lat="45.3244115" lon="8.383658"><ele>132.0</ele><time>2026-05-03T15:57:07.697Z</time></trkpt><trkpt lat="45.3244105" lon="8.3833921"><ele>132.0</ele><time>2026-05-03T15:57:08.691Z</time></trkpt><trkpt lat="45.3244189" lon="8.3831541"><ele>132.0</ele><time>2026-05-03T15:57:09.696Z</time></trkpt><trkpt lat="45.3244361" lon="8.3829436"><ele>132.0</ele><time>2026-05-03T15:57:10.697Z</time></trkpt><trkpt lat="45.324456" lon="8.3827095"><ele>132.0</ele><time>2026-05-03T15:57:11.705Z</time></trkpt><trkpt lat="45.3244419" lon="8.3824533"><ele>132.0</ele><time>2026-05-03T15:57:12.696Z</time></trkpt><trkpt lat="45.3244447" lon="8.3822335"><ele>131.5</ele><time>2026-05-03T15:57:13.7Z</time></trkpt><trkpt lat="45.3243947" lon="8.3819207"><ele>131.0</ele><time>2026-05-03T15:57:14.694Z</time></trkpt><trkpt lat="45.3244086" lon="8.3815583"><ele>132.0</ele><time>2026-05-03T15:57:15.695Z</time></trkpt><trkpt lat="45.3244373" lon="8.3811323"><ele>133.0</ele><time>2026-05-03T15:57:16.693Z</time></trkpt><trkpt lat="45.3244431" lon="8.3806814"><ele>132.5</ele><time>2026-05-03T15:57:17.683Z</time></trkpt><trkpt lat="45.324445" lon="8.380249"><ele>132.0</ele><time>2026-05-03T15:57:18.696Z</time></trkpt><trkpt lat="45.3244445" lon="8.3797902"><ele>132.5</ele><time>2026-05-03T15:57:19.697Z</time></trkpt><trkpt lat="45.3244586" lon="8.3793052"><ele>133.0</ele><time>2026-05-03T15:57:20.703Z</time></trkpt><trkpt lat="45.3244797" lon="8.3788405"><ele>133.0</ele><time>2026-05-03T15:57:21.701Z</time></trkpt><trkpt lat="45.3245168" lon="8.378398"><ele>133.0</ele><time>2026-05-03T15:57:22.706Z</time></trkpt><trkpt lat="45.324525" lon="8.3779431"><ele>132.5</ele><time>2026-05-03T15:57:23.705Z</time></trkpt><trkpt lat="45.3245072" lon="8.3774978"><ele>132.0</ele><time>2026-05-03T15:57:24.703Z</time></trkpt><trkpt lat="45.324471" lon="8.3770089"><ele>132.0</ele><time>2026-05-03T15:57:25.711Z</time></trkpt><trkpt lat="45.3244868" lon="8.3765351"><ele>132.0</ele><time>2026-05-03T15:57:26.708Z</time></trkpt><trkpt lat="45.3245051" lon="8.3760809"><ele>132.0</ele><time>2026-05-03T15:57:27.703Z</time></trkpt><trkpt lat="45.3245226" lon="8.37561"><ele>132.0</ele><time>2026-05-03T15:57:28.704Z</time></trkpt><trkpt lat="45.3245386" lon="8.3751512"><ele>133.0</ele><time>2026-05-03T15:57:29.707Z</time></trkpt><trkpt lat="45.3245312" lon="8.3746698"><ele>134.0</ele><time>2026-05-03T15:57:30.71Z</time></trkpt><trkpt lat="45.3245468" lon="8.3741674"><ele>133.0</ele><time>2026-05-03T15:57:31.724Z</time></trkpt><trkpt lat="45.3245687" lon="8.3736986"><ele>132.0</ele><time>2026-05-03T15:57:32.706Z</time></trkpt><trkpt lat="45.3245862" lon="8.3732743"><ele>133.0</ele><time>2026-05-03T15:57:33.707Z</time></trkpt><trkpt lat="45.3246166" lon="8.3728268"><ele>134.0</ele><time>2026-05-03T15:57:34.708Z</time></trkpt><trkpt lat="45.3246195" lon="8.3724283"><ele>134.0</ele><time>2026-05-03T15:57:35.709Z</time></trkpt><trkpt lat="45.3246173" lon="8.3720128"><ele>134.0</ele><time>2026-05-03T15:57:36.706Z</time></trkpt><trkpt lat="45.3246285" lon="8.3715942"><ele>134.0</ele><time>2026-05-03T15:57:37.704Z</time></trkpt><trkpt lat="45.3246316" lon="8.3712101"><ele>134.0</ele><time>2026-05-03T15:57:38.703Z</time></trkpt><trkpt lat="45.3246589" lon="8.3707942"><ele>133.5</ele><time>2026-05-03T15:57:39.701Z</time></trkpt><trkpt lat="45.3246772" lon="8.3703966"><ele>133.0</ele><time>2026-05-03T15:57:40.7Z</time></trkpt><trkpt lat="45.3246805" lon="8.3700145"><ele>133.0</ele><time>2026-05-03T15:57:41.711Z</time></trkpt><trkpt lat="45.3246958" lon="8.3696156"><ele>133.0</ele><time>2026-05-03T15:57:42.705Z</time></trkpt><trkpt lat="45.3246877" lon="8.3691949"><ele>133.5</ele><time>2026-05-03T15:57:43.7Z</time></trkpt><trkpt lat="45.3247003" lon="8.3687609"><ele>134.0</ele><time>2026-05-03T15:57:44.712Z</time></trkpt><trkpt lat="45.3246986" lon="8.3683333"><ele>134.0</ele><time>2026-05-03T15:57:45.71Z</time></trkpt><trkpt lat="45.3247" lon="8.3678996"><ele>134.0</ele><time>2026-05-03T15:57:46.703Z</time></trkpt><trkpt lat="45.324714" lon="8.3674589"><ele>133.5</ele><time>2026-05-03T15:57:47.713Z</time></trkpt><trkpt lat="45.3247186" lon="8.3670101"><ele>133.0</ele><time>2026-05-03T15:57:48.708Z</time></trkpt><trkpt lat="45.324713" lon="8.3665601"><ele>133.0</ele><time>2026-05-03T15:57:49.711Z</time></trkpt><trkpt lat="45.3247136" lon="8.3661233"><ele>133.0</ele><time>2026-05-03T15:57:50.704Z</time></trkpt><trkpt lat="45.3247124" lon="8.3656439"><ele>133.0</ele><time>2026-05-03T15:57:51.707Z</time></trkpt><trkpt lat="45.324694" lon="8.3651903"><ele>133.0</ele><time>2026-05-03T15:57:52.711Z</time></trkpt><trkpt lat="45.3247075" lon="8.3647222"><ele>133.5</ele><time>2026-05-03T15:57:53.702Z</time></trkpt><trkpt lat="45.3247291" lon="8.3642635"><ele>134.0</ele><time>2026-05-03T15:57:54.707Z</time></trkpt><trkpt lat="45.3247373" lon="8.3638189"><ele>134.5</ele><time>2026-05-03T15:57:55.702Z</time></trkpt><trkpt lat="45.3247762" lon="8.3633835"><ele>135.0</ele><time>2026-05-03T15:57:56.71Z</time></trkpt><trkpt lat="45.3247987" lon="8.362924"><ele>135.0</ele><time>2026-05-03T15:57:57.7Z</time></trkpt><trkpt lat="45.3248029" lon="8.3624725"><ele>135.0</ele><time>2026-05-03T15:57:58.707Z</time></trkpt><trkpt lat="45.3248002" lon="8.36202"><ele>135.0</ele><time>2026-05-03T15:57:59.704Z</time></trkpt><trkpt lat="45.3248127" lon="8.3615794"><ele>135.0</ele><time>2026-05-03T15:58:00.703Z</time></trkpt><trkpt lat="45.3248223" lon="8.3611461"><ele>135.0</ele><time>2026-05-03T15:58:01.707Z</time></trkpt><trkpt lat="45.3248209" lon="8.3606868"><ele>135.0</ele><time>2026-05-03T15:58:02.705Z</time></trkpt><trkpt lat="45.3248162" lon="8.3602632"><ele>134.5</ele><time>2026-05-03T15:58:03.713Z</time></trkpt><trkpt lat="45.3248155" lon="8.35982"><ele>134.0</ele><time>2026-05-03T15:58:04.707Z</time></trkpt><trkpt lat="45.3248381" lon="8.3593595"><ele>134.0</ele><time>2026-05-03T15:58:05.704Z</time></trkpt><trkpt lat="45.3248367" lon="8.3589242"><ele>134.0</ele><time>2026-05-03T15:58:06.705Z</time></trkpt><trkpt lat="45.3248546" lon="8.3584783"><ele>135.0</ele><time>2026-05-03T15:58:07.712Z</time></trkpt><trkpt lat="45.3248743" lon="8.3580247"><ele>136.0</ele><time>2026-05-03T15:58:08.705Z</time></trkpt><trkpt lat="45.3248841" lon="8.3575763"><ele>136.0</ele><time>2026-05-03T15:58:09.714Z</time></trkpt><trkpt lat="45.3248781" lon="8.3571219"><ele>136.0</ele><time>2026-05-03T15:58:10.718Z</time></trkpt><trkpt lat="45.3248868" lon="8.3566778"><ele>135.5</ele><time>2026-05-03T15:58:11.71Z</time></trkpt><trkpt lat="45.3248908" lon="8.3562344"><ele>135.0</ele><time>2026-05-03T15:58:12.71Z</time></trkpt><trkpt lat="45.3249063" lon="8.3557932"><ele>135.0</ele><time>2026-05-03T15:58:13.715Z</time></trkpt><trkpt lat="45.3249311" lon="8.3553621"><ele>135.0</ele><time>2026-05-03T15:58:14.71Z</time></trkpt><trkpt lat="45.3249368" lon="8.354934"><ele>134.5</ele><time>2026-05-03T15:58:15.713Z</time></trkpt><trkpt lat="45.3249411" lon="8.3544948"><ele>134.0</ele><time>2026-05-03T15:58:16.71Z</time></trkpt><trkpt lat="45.3249394" lon="8.3540684"><ele>134.0</ele><time>2026-05-03T15:58:17.712Z</time></trkpt><trkpt lat="45.3249317" lon="8.3536556"><ele>134.0</ele><time>2026-05-03T15:58:18.707Z</time></trkpt><trkpt lat="45.3249283" lon="8.3532499"><ele>135.0</ele><time>2026-05-03T15:58:19.716Z</time></trkpt><trkpt lat="45.3249367" lon="8.3528479"><ele>136.0</ele><time>2026-05-03T15:58:20.708Z</time></trkpt><trkpt lat="45.3249231" lon="8.3524385"><ele>137.0</ele><time>2026-05-03T15:58:21.706Z</time></trkpt><trkpt lat="45.3249042" lon="8.3520326"><ele>138.0</ele><time>2026-05-03T15:58:22.708Z</time></trkpt><trkpt lat="45.324898" lon="8.3516619"><ele>137.5</ele><time>2026-05-03T15:58:23.714Z</time></trkpt><trkpt lat="45.3248955" lon="8.3513195"><ele>137.0</ele><time>2026-05-03T15:58:24.707Z</time></trkpt><trkpt lat="45.3248951" lon="8.350991"><ele>137.0</ele><time>2026-05-03T15:58:25.71Z</time></trkpt><trkpt lat="45.3248985" lon="8.3506645"><ele>137.0</ele><time>2026-05-03T15:58:26.712Z</time></trkpt><trkpt lat="45.3249042" lon="8.3503965"><ele>137.0</ele><time>2026-05-03T15:58:27.703Z</time></trkpt><trkpt lat="45.3249211" lon="8.3501302"><ele>137.0</ele><time>2026-05-03T15:58:28.722Z</time></trkpt><trkpt lat="45.3249398" lon="8.3498693"><ele>137.0</ele><time>2026-05-03T15:58:29.706Z</time></trkpt><trkpt lat="45.3249821" lon="8.3496295"><ele>137.0</ele><time>2026-05-03T15:58:30.707Z</time></trkpt><trkpt lat="45.3249845" lon="8.3493646"><ele>137.0</ele><time>2026-05-03T15:58:31.704Z</time></trkpt><trkpt lat="45.3249865" lon="8.3491044"><ele>137.0</ele><time>2026-05-03T15:58:32.699Z</time></trkpt><trkpt lat="45.3249887" lon="8.3488059"><ele>137.0</ele><time>2026-05-03T15:58:33.703Z</time></trkpt><trkpt lat="45.3249723" lon="8.3484924"><ele>137.0</ele><time>2026-05-03T15:58:34.706Z</time></trkpt><trkpt lat="45.3249886" lon="8.3481995"><ele>137.0</ele><time>2026-05-03T15:58:35.708Z</time></trkpt><trkpt lat="45.3249972" lon="8.3479031"><ele>137.0</ele><time>2026-05-03T15:58:36.702Z</time></trkpt><trkpt lat="45.3249937" lon="8.3476433"><ele>137.0</ele><time>2026-05-03T15:58:37.711Z</time></trkpt><trkpt lat="45.3250078" lon="8.3473897"><ele>137.0</ele><time>2026-05-03T15:58:38.71Z</time></trkpt><trkpt lat="45.3250119" lon="8.3471354"><ele>137.0</ele><time>2026-05-03T15:58:39.707Z</time></trkpt><trkpt lat="45.3250248" lon="8.3468894"><ele>136.66666666666666</ele><time>2026-05-03T15:58:40.708Z</time></trkpt><trkpt lat="45.3250317" lon="8.3466491"><ele>136.33333333333334</ele><time>2026-05-03T15:58:41.703Z</time></trkpt><trkpt lat="45.325006" lon="8.3463702"><ele>136.0</ele><time>2026-05-03T15:58:42.71Z</time></trkpt><trkpt lat="45.3250256" lon="8.3460964"><ele>136.66666666666669</ele><time>2026-05-03T15:58:43.707Z</time></trkpt><trkpt lat="45.3249985" lon="8.3458026"><ele>137.33333333333334</ele><time>2026-05-03T15:58:44.706Z</time></trkpt><trkpt lat="45.3249916" lon="8.3455274"><ele>138.0</ele><time>2026-05-03T15:58:45.71Z</time></trkpt><trkpt lat="45.3250081" lon="8.3452683"><ele>138.0</ele><time>2026-05-03T15:58:46.714Z</time></trkpt><trkpt lat="45.3249938" lon="8.3450004"><ele>138.0</ele><time>2026-05-03T15:58:47.705Z</time></trkpt><trkpt lat="45.3250031" lon="8.3447412"><ele>138.0</ele><time>2026-05-03T15:58:48.698Z</time></trkpt><trkpt lat="45.324999" lon="8.3444563"><ele>137.66666666666666</ele><time>2026-05-03T15:58:49.704Z</time></trkpt><trkpt lat="45.3249944" lon="8.3441865"><ele>137.33333333333331</ele><time>2026-05-03T15:58:50.707Z</time></trkpt><trkpt lat="45.3249936" lon="8.3439317"><ele>137.0</ele><time>2026-05-03T15:58:51.708Z</time></trkpt><trkpt lat="45.325006" lon="8.3437039"><ele>137.0</ele><time>2026-05-03T15:58:52.697Z</time></trkpt><trkpt lat="45.3250176" lon="8.3435088"><ele>137.0</ele><time>2026-05-03T15:58:53.709Z</time></trkpt><trkpt lat="45.3250284" lon="8.3433077"><ele>137.0</ele><time>2026-05-03T15:58:54.702Z</time></trkpt><trkpt lat="45.3250405" lon="8.3430483"><ele>137.33333333333331</ele><time>2026-05-03T15:58:55.702Z</time></trkpt><trkpt lat="45.3250436" lon="8.3428081"><ele>137.66666666666666</ele><time>2026-05-03T15:58:56.699Z</time></trkpt><trkpt lat="45.3250497" lon="8.342564"><ele>138.0</ele><time>2026-05-03T15:58:57.7Z</time></trkpt><trkpt lat="45.3250498" lon="8.3423"><ele>138.33333333333334</ele><time>2026-05-03T15:58:58.703Z</time></trkpt><trkpt lat="45.3250447" lon="8.3420578"><ele>138.66666666666669</ele><time>2026-05-03T15:58:59.712Z</time></trkpt><trkpt lat="45.3250494" lon="8.3417906"><ele>139.0</ele><time>2026-05-03T15:59:00.698Z</time></trkpt><trkpt lat="45.3250583" lon="8.3415439"><ele>139.0</ele><time>2026-05-03T15:59:01.709Z</time></trkpt><trkpt lat="45.3250657" lon="8.341293"><ele>139.0</ele><time>2026-05-03T15:59:02.704Z</time></trkpt><trkpt lat="45.3250654" lon="8.3410325"><ele>139.0</ele><time>2026-05-03T15:59:03.799Z</time></trkpt><trkpt lat="45.3250731" lon="8.3407808"><ele>139.33333333333334</ele><time>2026-05-03T15:59:04.799Z</time></trkpt><trkpt lat="45.3250762" lon="8.3405252"><ele>139.66666666666666</ele><time>2026-05-03T15:59:05.799Z</time></trkpt><trkpt lat="45.325075" lon="8.3402582"><ele>140.0</ele><time>2026-05-03T15:59:06.787Z</time></trkpt><trkpt lat="45.3250764" lon="8.3399836"><ele>140.33333333333331</ele><time>2026-05-03T15:59:07.793Z</time></trkpt><trkpt lat="45.3250785" lon="8.3397113"><ele>140.66666666666666</ele><time>2026-05-03T15:59:08.798Z</time></trkpt><trkpt lat="45.3250806" lon="8.3394394"><ele>141.0</ele><time>2026-05-03T15:59:09.798Z</time></trkpt><trkpt lat="45.3250858" lon="8.3391746"><ele>141.0</ele><time>2026-05-03T15:59:10.802Z</time></trkpt><trkpt lat="45.3250943" lon="8.338917"><ele>141.0</ele><time>2026-05-03T15:59:11.789Z</time></trkpt><trkpt lat="45.3251008" lon="8.3386528"><ele>141.0</ele><time>2026-05-03T15:59:12.799Z</time></trkpt><trkpt lat="45.3251065" lon="8.3383812"><ele>141.33333333333334</ele><time>2026-05-03T15:59:13.805Z</time></trkpt><trkpt lat="45.325131" lon="8.3381223"><ele>141.66666666666669</ele><time>2026-05-03T15:59:14.788Z</time></trkpt><trkpt lat="45.3251501" lon="8.3378526"><ele>142.0</ele><time>2026-05-03T15:59:15.792Z</time></trkpt><trkpt lat="45.3251779" lon="8.3375732"><ele>142.0</ele><time>2026-05-03T15:59:16.798Z</time></trkpt><trkpt lat="45.325209" lon="8.3372945"><ele>142.0</ele><time>2026-05-03T15:59:17.791Z</time></trkpt><trkpt lat="45.3252496" lon="8.3370226"><ele>142.0</ele><time>2026-05-03T15:59:18.8Z</time></trkpt><trkpt lat="45.3252996" lon="8.3367512"><ele>142.33333333333334</ele><time>2026-05-03T15:59:19.792Z</time></trkpt><trkpt lat="45.3253555" lon="8.3364893"><ele>142.66666666666666</ele><time>2026-05-03T15:59:20.79Z</time></trkpt><trkpt lat="45.3254199" lon="8.336226"><ele>143.0</ele><time>2026-05-03T15:59:21.793Z</time></trkpt><trkpt lat="45.3254912" lon="8.3359607"><ele>142.33333333333331</ele><time>2026-05-03T15:59:22.795Z</time></trkpt><trkpt lat="45.3255706" lon="8.3356888"><ele>141.66666666666666</ele><time>2026-05-03T15:59:23.794Z</time></trkpt><trkpt lat="45.3256593" lon="8.3353997"><ele>141.0</ele><time>2026-05-03T15:59:24.782Z</time></trkpt><trkpt lat="45.3257531" lon="8.3350851"><ele>141.0</ele><time>2026-05-03T15:59:25.779Z</time></trkpt><trkpt lat="45.3258449" lon="8.3347675"><ele>141.0</ele><time>2026-05-03T15:59:26.793Z</time></trkpt><trkpt lat="45.3259433" lon="8.3344449"><ele>140.5</ele><time>2026-05-03T15:59:27.793Z</time></trkpt><trkpt lat="45.3260512" lon="8.3341086"><ele>140.0</ele><time>2026-05-03T15:59:28.794Z</time></trkpt><trkpt lat="45.3261677" lon="8.33377"><ele>140.0</ele><time>2026-05-03T15:59:29.803Z</time></trkpt><trkpt lat="45.3262853" lon="8.3334166"><ele>140.0</ele><time>2026-05-03T15:59:30.8Z</time></trkpt><trkpt lat="45.3264065" lon="8.3330367"><ele>140.0</ele><time>2026-05-03T15:59:31.795Z</time></trkpt><trkpt lat="45.326531" lon="8.3326534"><ele>140.0</ele><time>2026-05-03T15:59:32.794Z</time></trkpt><trkpt lat="45.3266514" lon="8.3322835"><ele>140.5</ele><time>2026-05-03T15:59:33.804Z</time></trkpt><trkpt lat="45.3267762" lon="8.331906"><ele>141.0</ele><time>2026-05-03T15:59:34.805Z</time></trkpt><trkpt lat="45.3268971" lon="8.331538"><ele>141.0</ele><time>2026-05-03T15:59:35.796Z</time></trkpt><trkpt lat="45.3270253" lon="8.331163"><ele>141.0</ele><time>2026-05-03T15:59:36.794Z</time></trkpt><trkpt lat="45.3271523" lon="8.3307908"><ele>141.5</ele><time>2026-05-03T15:59:37.803Z</time></trkpt><trkpt lat="45.3272724" lon="8.330424"><ele>142.0</ele><time>2026-05-03T15:59:38.804Z</time></trkpt><trkpt lat="45.3273879" lon="8.3300445"><ele>142.0</ele><time>2026-05-03T15:59:39.803Z</time></trkpt><trkpt lat="45.3275056" lon="8.3296715"><ele>142.0</ele><time>2026-05-03T15:59:40.802Z</time></trkpt><trkpt lat="45.3276251" lon="8.329303"><ele>142.0</ele><time>2026-05-03T15:59:41.796Z</time></trkpt><trkpt lat="45.3277474" lon="8.3289327"><ele>142.0</ele><time>2026-05-03T15:59:42.805Z</time></trkpt><trkpt lat="45.3278565" lon="8.3285623"><ele>141.5</ele><time>2026-05-03T15:59:43.797Z</time></trkpt><trkpt lat="45.327966" lon="8.3281955"><ele>141.0</ele><time>2026-05-03T15:59:44.796Z</time></trkpt><trkpt lat="45.3280816" lon="8.3278322"><ele>141.0</ele><time>2026-05-03T15:59:45.806Z</time></trkpt><trkpt lat="45.3281948" lon="8.3274662"><ele>141.0</ele><time>2026-05-03T15:59:46.799Z</time></trkpt><trkpt lat="45.3283066" lon="8.3271014"><ele>141.0</ele><time>2026-05-03T15:59:47.793Z</time></trkpt><trkpt lat="45.3284215" lon="8.3267309"><ele>141.0</ele><time>2026-05-03T15:59:48.798Z</time></trkpt><trkpt lat="45.3285289" lon="8.3263698"><ele>140.5</ele><time>2026-05-03T15:59:49.804Z</time></trkpt><trkpt lat="45.3286381" lon="8.3260043"><ele>140.0</ele><time>2026-05-03T15:59:50.795Z</time></trkpt><trkpt lat="45.3287441" lon="8.3256332"><ele>140.0</ele><time>2026-05-03T15:59:51.801Z</time></trkpt><trkpt lat="45.3288547" lon="8.3252437"><ele>140.0</ele><time>2026-05-03T15:59:52.792Z</time></trkpt><trkpt lat="45.3289715" lon="8.324852"><ele>141.0</ele><time>2026-05-03T15:59:53.796Z</time></trkpt><trkpt lat="45.3290953" lon="8.3244617"><ele>142.0</ele><time>2026-05-03T15:59:54.806Z</time></trkpt><trkpt lat="45.3292323" lon="8.324075"><ele>142.5</ele><time>2026-05-03T15:59:55.797Z</time></trkpt><trkpt lat="45.3293733" lon="8.3236838"><ele>143.0</ele><time>2026-05-03T15:59:56.807Z</time></trkpt><trkpt lat="45.3295112" lon="8.323288"><ele>143.5</ele><time>2026-05-03T15:59:57.782Z</time></trkpt><trkpt lat="45.3296466" lon="8.32289"><ele>144.0</ele><time>2026-05-03T15:59:58.788Z</time></trkpt><trkpt lat="45.3297731" lon="8.3224929"><ele>143.0</ele><time>2026-05-03T15:59:59.791Z</time></trkpt><trkpt lat="45.3298915" lon="8.3221062"><ele>142.0</ele><time>2026-05-03T16:00:00.779Z</time></trkpt><trkpt lat="45.3300142" lon="8.3217209"><ele>142.5</ele><time>2026-05-03T16:00:01.795Z</time></trkpt><trkpt lat="45.3301373" lon="8.3213374"><ele>143.0</ele><time>2026-05-03T16:00:02.786Z</time></trkpt><trkpt lat="45.330261" lon="8.3209526"><ele>143.0</ele><time>2026-05-03T16:00:03.777Z</time></trkpt><trkpt lat="45.330389" lon="8.3205665"><ele>143.0</ele><time>2026-05-03T16:00:04.779Z</time></trkpt><trkpt lat="45.3305178" lon="8.3201683"><ele>143.5</ele><time>2026-05-03T16:00:05.788Z</time></trkpt><trkpt lat="45.3306458" lon="8.3197683"><ele>144.0</ele><time>2026-05-03T16:00:06.78Z</time></trkpt><trkpt lat="45.3307756" lon="8.3193694"><ele>143.5</ele><time>2026-05-03T16:00:07.788Z</time></trkpt><trkpt lat="45.3309079" lon="8.3189691"><ele>143.0</ele><time>2026-05-03T16:00:08.788Z</time></trkpt><trkpt lat="45.3310385" lon="8.3185697"><ele>143.0</ele><time>2026-05-03T16:00:09.79Z</time></trkpt><trkpt lat="45.3311704" lon="8.3181652"><ele>143.0</ele><time>2026-05-03T16:00:10.784Z</time></trkpt><trkpt lat="45.3312981" lon="8.3177531"><ele>143.5</ele><time>2026-05-03T16:00:11.78Z</time></trkpt><trkpt lat="45.3314305" lon="8.3173424"><ele>144.0</ele><time>2026-05-03T16:00:12.788Z</time></trkpt><trkpt lat="45.3315697" lon="8.316925"><ele>144.0</ele><time>2026-05-03T16:00:13.779Z</time></trkpt><trkpt lat="45.3317017" lon="8.3165031"><ele>144.0</ele><time>2026-05-03T16:00:14.779Z</time></trkpt><trkpt lat="45.3318346" lon="8.3160813"><ele>144.0</ele><time>2026-05-03T16:00:15.788Z</time></trkpt><trkpt lat="45.3319688" lon="8.3156635"><ele>144.0</ele><time>2026-05-03T16:00:16.786Z</time></trkpt><trkpt lat="45.3321" lon="8.3152471"><ele>144.0</ele><time>2026-05-03T16:00:17.783Z</time></trkpt><trkpt lat="45.3322277" lon="8.3148375"><ele>144.0</ele><time>2026-05-03T16:00:18.786Z</time></trkpt><trkpt lat="45.3323559" lon="8.3144318"><ele>144.0</ele><time>2026-05-03T16:00:19.791Z</time></trkpt><trkpt lat="45.3324883" lon="8.3140197"><ele>144.0</ele><time>2026-05-03T16:00:20.781Z</time></trkpt><trkpt lat="45.332617" lon="8.3136066"><ele>144.0</ele><time>2026-05-03T16:00:21.787Z</time></trkpt><trkpt lat="45.3327442" lon="8.3131924"><ele>144.0</ele><time>2026-05-03T16:00:22.775Z</time></trkpt><trkpt lat="45.3328769" lon="8.3127814"><ele>144.0</ele><time>2026-05-03T16:00:23.783Z</time></trkpt><trkpt lat="45.3330035" lon="8.3123875"><ele>144.0</ele><time>2026-05-03T16:00:24.786Z</time></trkpt><trkpt lat="45.333124" lon="8.312002"><ele>144.0</ele><time>2026-05-03T16:00:25.784Z</time></trkpt><trkpt lat="45.3332417" lon="8.3116271"><ele>144.0</ele><time>2026-05-03T16:00:26.795Z</time></trkpt><trkpt lat="45.3333607" lon="8.3112608"><ele>144.0</ele><time>2026-05-03T16:00:27.778Z</time></trkpt><trkpt lat="45.3334776" lon="8.3108957"><ele>144.0</ele><time>2026-05-03T16:00:28.78Z</time></trkpt><trkpt lat="45.3335928" lon="8.310521"><ele>144.0</ele><time>2026-05-03T16:00:29.784Z</time></trkpt><trkpt lat="45.3337132" lon="8.3101361"><ele>144.0</ele><time>2026-05-03T16:00:30.784Z</time></trkpt><trkpt lat="45.3338339" lon="8.3097499"><ele>144.5</ele><time>2026-05-03T16:00:31.793Z</time></trkpt><trkpt lat="45.333958" lon="8.3093467"><ele>145.0</ele><time>2026-05-03T16:00:32.782Z</time></trkpt><trkpt lat="45.3340783" lon="8.3089403"><ele>145.0</ele><time>2026-05-03T16:00:33.788Z</time></trkpt><trkpt lat="45.3341975" lon="8.3085376"><ele>145.0</ele><time>2026-05-03T16:00:34.777Z</time></trkpt><trkpt lat="45.3343194" lon="8.3081335"><ele>145.0</ele><time>2026-05-03T16:00:35.775Z</time></trkpt><trkpt lat="45.3344521" lon="8.3077265"><ele>145.0</ele><time>2026-05-03T16:00:36.778Z</time></trkpt><trkpt lat="45.3345858" lon="8.3073178"><ele>145.0</ele><time>2026-05-03T16:00:37.773Z</time></trkpt><trkpt lat="45.3347165" lon="8.3069069"><ele>145.0</ele><time>2026-05-03T16:00:38.774Z</time></trkpt><trkpt lat="45.3348544" lon="8.3064953"><ele>145.5</ele><time>2026-05-03T16:00:39.777Z</time></trkpt><trkpt lat="45.3349922" lon="8.306074"><ele>146.0</ele><time>2026-05-03T16:00:40.771Z</time></trkpt><trkpt lat="45.3351345" lon="8.3056553"><ele>146.5</ele><time>2026-05-03T16:00:41.784Z</time></trkpt><trkpt lat="45.3352726" lon="8.3052403"><ele>147.0</ele><time>2026-05-03T16:00:42.777Z</time></trkpt><trkpt lat="45.3354082" lon="8.3048347"><ele>146.5</ele><time>2026-05-03T16:00:43.774Z</time></trkpt><trkpt lat="45.3355477" lon="8.304428"><ele>146.0</ele><time>2026-05-03T16:00:44.779Z</time></trkpt><trkpt lat="45.3356769" lon="8.3040235"><ele>146.0</ele><time>2026-05-03T16:00:45.774Z</time></trkpt><trkpt lat="45.3358049" lon="8.3036189"><ele>146.0</ele><time>2026-05-03T16:00:46.779Z</time></trkpt><trkpt lat="45.335932" lon="8.3032137"><ele>146.5</ele><time>2026-05-03T16:00:47.775Z</time></trkpt><trkpt lat="45.3360576" lon="8.3028203"><ele>147.0</ele><time>2026-05-03T16:00:48.772Z</time></trkpt><trkpt lat="45.3361784" lon="8.3024192"><ele>147.0</ele><time>2026-05-03T16:00:49.77Z</time></trkpt><trkpt lat="45.3362906" lon="8.3020214"><ele>147.0</ele><time>2026-05-03T16:00:50.779Z</time></trkpt><trkpt lat="45.336401" lon="8.3016142"><ele>147.5</ele><time>2026-05-03T16:00:51.78Z</time></trkpt><trkpt lat="45.336519" lon="8.3012043"><ele>148.0</ele><time>2026-05-03T16:00:52.773Z</time></trkpt><trkpt lat="45.3366482" lon="8.3008091"><ele>148.0</ele><time>2026-05-03T16:00:53.774Z</time></trkpt><trkpt lat="45.33679" lon="8.3004105"><ele>148.0</ele><time>2026-05-03T16:00:54.779Z</time></trkpt><trkpt lat="45.3369231" lon="8.3000143"><ele>148.0</ele><time>2026-05-03T16:00:55.778Z</time></trkpt><trkpt lat="45.3370505" lon="8.2996196"><ele>148.0</ele><time>2026-05-03T16:00:56.785Z</time></trkpt><trkpt lat="45.3371736" lon="8.2992194"><ele>147.5</ele><time>2026-05-03T16:00:57.775Z</time></trkpt><trkpt lat="45.3372965" lon="8.2988121"><ele>147.0</ele><time>2026-05-03T16:00:58.775Z</time></trkpt><trkpt lat="45.3374247" lon="8.2983977"><ele>147.5</ele><time>2026-05-03T16:00:59.791Z</time></trkpt><trkpt lat="45.3375548" lon="8.297966"><ele>148.0</ele><time>2026-05-03T16:01:00.782Z</time></trkpt><trkpt lat="45.3376825" lon="8.2975331"><ele>148.0</ele><time>2026-05-03T16:01:01.784Z</time></trkpt><trkpt lat="45.3378263" lon="8.2970969"><ele>148.0</ele><time>2026-05-03T16:01:02.775Z</time></trkpt><trkpt lat="45.3379741" lon="8.2966703"><ele>148.0</ele><time>2026-05-03T16:01:03.775Z</time></trkpt><trkpt lat="45.3381064" lon="8.2962523"><ele>148.0</ele><time>2026-05-03T16:01:04.767Z</time></trkpt><trkpt lat="45.33823" lon="8.2958506"><ele>148.5</ele><time>2026-05-03T16:01:05.775Z</time></trkpt><trkpt lat="45.3383527" lon="8.2954545"><ele>149.0</ele><time>2026-05-03T16:01:06.784Z</time></trkpt><trkpt lat="45.3384811" lon="8.2950572"><ele>148.5</ele><time>2026-05-03T16:01:07.784Z</time></trkpt><trkpt lat="45.3386122" lon="8.2946556"><ele>148.0</ele><time>2026-05-03T16:01:08.776Z</time></trkpt><trkpt lat="45.3387456" lon="8.2942523"><ele>148.5</ele><time>2026-05-03T16:01:09.786Z</time></trkpt><trkpt lat="45.3388759" lon="8.2938546"><ele>149.0</ele><time>2026-05-03T16:01:10.784Z</time></trkpt><trkpt lat="45.3389984" lon="8.2934859"><ele>149.0</ele><time>2026-05-03T16:01:11.775Z</time></trkpt><trkpt lat="45.3391119" lon="8.2931114"><ele>149.0</ele><time>2026-05-03T16:01:12.775Z</time></trkpt><trkpt lat="45.3392272" lon="8.2927314"><ele>149.0</ele><time>2026-05-03T16:01:13.783Z</time></trkpt><trkpt lat="45.3393446" lon="8.2923565"><ele>149.0</ele><time>2026-05-03T16:01:14.783Z</time></trkpt><trkpt lat="45.3394588" lon="8.2919851"><ele>149.5</ele><time>2026-05-03T16:01:15.769Z</time></trkpt><trkpt lat="45.3395716" lon="8.2916255"><ele>150.0</ele><time>2026-05-03T16:01:16.77Z</time></trkpt><trkpt lat="45.3396813" lon="8.2912776"><ele>150.0</ele><time>2026-05-03T16:01:17.776Z</time></trkpt><trkpt lat="45.339789" lon="8.290934"><ele>150.0</ele><time>2026-05-03T16:01:18.777Z</time></trkpt><trkpt lat="45.3398911" lon="8.2905941"><ele>150.0</ele><time>2026-05-03T16:01:19.78Z</time></trkpt><trkpt lat="45.3399954" lon="8.2902608"><ele>150.0</ele><time>2026-05-03T16:01:20.791Z</time></trkpt><trkpt lat="45.3401029" lon="8.2899448"><ele>152.0</ele><time>2026-05-03T16:01:21.775Z</time></trkpt><trkpt lat="45.3402112" lon="8.2896455"><ele>154.0</ele><time>2026-05-03T16:01:22.772Z</time></trkpt><trkpt lat="45.3403143" lon="8.2893659"><ele>154.0</ele><time>2026-05-03T16:01:23.781Z</time></trkpt><trkpt lat="45.3404112" lon="8.2891053"><ele>154.0</ele><time>2026-05-03T16:01:24.774Z</time></trkpt><trkpt lat="45.3405063" lon="8.2888613"><ele>154.0</ele><time>2026-05-03T16:01:25.788Z</time></trkpt><trkpt lat="45.340596" lon="8.288624"><ele>154.0</ele><time>2026-05-03T16:01:26.778Z</time></trkpt><trkpt lat="45.3406814" lon="8.2883827"><ele>154.0</ele><time>2026-05-03T16:01:27.769Z</time></trkpt><trkpt lat="45.3407672" lon="8.2881265"><ele>154.0</ele><time>2026-05-03T16:01:28.786Z</time></trkpt><trkpt lat="45.3408567" lon="8.2878383"><ele>154.0</ele><time>2026-05-03T16:01:29.778Z</time></trkpt><trkpt lat="45.3409233" lon="8.2875207"><ele>154.0</ele><time>2026-05-03T16:01:30.774Z</time></trkpt><trkpt lat="45.3409776" lon="8.287182"><ele>152.0</ele><time>2026-05-03T16:01:31.763Z</time></trkpt><trkpt lat="45.3411643" lon="8.2863971"><ele>152.0</ele><time>2026-05-03T16:01:33.646Z</time></trkpt><trkpt lat="45.3412427" lon="8.2859555"><ele>152.0</ele><time>2026-05-03T16:01:34.648Z</time></trkpt><trkpt lat="45.3413462" lon="8.2855653"><ele>152.0</ele><time>2026-05-03T16:01:35.648Z</time></trkpt><trkpt lat="45.341453" lon="8.2851262"><ele>152.0</ele><time>2026-05-03T16:01:36.668Z</time></trkpt><trkpt lat="45.3415513" lon="8.2846836"><ele>152.0</ele><time>2026-05-03T16:01:37.66Z</time></trkpt><trkpt lat="45.3416564" lon="8.2842511"><ele>152.0</ele><time>2026-05-03T16:01:38.667Z</time></trkpt><trkpt lat="45.3417584" lon="8.2838358"><ele>152.0</ele><time>2026-05-03T16:01:39.671Z</time></trkpt><trkpt lat="45.3418827" lon="8.283381"><ele>152.0</ele><time>2026-05-03T16:01:40.668Z</time></trkpt><trkpt lat="45.3419779" lon="8.2829431"><ele>152.0</ele><time>2026-05-03T16:01:41.673Z</time></trkpt><trkpt lat="45.3420709" lon="8.2825179"><ele>152.0</ele><time>2026-05-03T16:01:42.673Z</time></trkpt><trkpt lat="45.3421622" lon="8.2820711"><ele>152.5</ele><time>2026-05-03T16:01:43.674Z</time></trkpt><trkpt lat="45.3422571" lon="8.2816552"><ele>153.0</ele><time>2026-05-03T16:01:44.67Z</time></trkpt><trkpt lat="45.3423749" lon="8.2811901"><ele>153.0</ele><time>2026-05-03T16:01:45.675Z</time></trkpt><trkpt lat="45.3424668" lon="8.2807698"><ele>153.0</ele><time>2026-05-03T16:01:46.679Z</time></trkpt><trkpt lat="45.3425471" lon="8.2803439"><ele>153.0</ele><time>2026-05-03T16:01:47.669Z</time></trkpt><trkpt lat="45.3426289" lon="8.2799386"><ele>153.0</ele><time>2026-05-03T16:01:48.674Z</time></trkpt><trkpt lat="45.3427191" lon="8.2795034"><ele>153.5</ele><time>2026-05-03T16:01:49.677Z</time></trkpt><trkpt lat="45.3428143" lon="8.279081"><ele>154.0</ele><time>2026-05-03T16:01:50.672Z</time></trkpt><trkpt lat="45.3429063" lon="8.2786775"><ele>154.0</ele><time>2026-05-03T16:01:51.673Z</time></trkpt><trkpt lat="45.3429862" lon="8.2782685"><ele>154.0</ele><time>2026-05-03T16:01:52.67Z</time></trkpt><trkpt lat="45.3430695" lon="8.2778772"><ele>154.0</ele><time>2026-05-03T16:01:53.667Z</time></trkpt><trkpt lat="45.3431468" lon="8.2774501"><ele>154.0</ele><time>2026-05-03T16:01:54.674Z</time></trkpt><trkpt lat="45.3432633" lon="8.2770212"><ele>154.0</ele><time>2026-05-03T16:01:55.671Z</time></trkpt><trkpt lat="45.3433486" lon="8.2766204"><ele>154.0</ele><time>2026-05-03T16:01:56.668Z</time></trkpt><trkpt lat="45.343426" lon="8.2762259"><ele>154.0</ele><time>2026-05-03T16:01:57.669Z</time></trkpt><trkpt lat="45.3435064" lon="8.2758239"><ele>154.0</ele><time>2026-05-03T16:01:58.671Z</time></trkpt><trkpt lat="45.3435963" lon="8.2754181"><ele>154.0</ele><time>2026-05-03T16:01:59.682Z</time></trkpt><trkpt lat="45.3436854" lon="8.2749898"><ele>154.0</ele><time>2026-05-03T16:02:00.669Z</time></trkpt><trkpt lat="45.3437725" lon="8.2745939"><ele>154.0</ele><time>2026-05-03T16:02:01.681Z</time></trkpt><trkpt lat="45.3438626" lon="8.2741902"><ele>154.0</ele><time>2026-05-03T16:02:02.672Z</time></trkpt><trkpt lat="45.3439617" lon="8.2737927"><ele>154.5</ele><time>2026-05-03T16:02:03.675Z</time></trkpt><trkpt lat="45.3440636" lon="8.2734066"><ele>155.0</ele><time>2026-05-03T16:02:04.676Z</time></trkpt><trkpt lat="45.3441407" lon="8.273028"><ele>155.0</ele><time>2026-05-03T16:02:05.674Z</time></trkpt><trkpt lat="45.3442195" lon="8.2726332"><ele>155.0</ele><time>2026-05-03T16:02:06.676Z</time></trkpt><trkpt lat="45.3443008" lon="8.2722307"><ele>155.5</ele><time>2026-05-03T16:02:07.671Z</time></trkpt><trkpt lat="45.3443853" lon="8.2718289"><ele>156.0</ele><time>2026-05-03T16:02:08.67Z</time></trkpt><trkpt lat="45.3444648" lon="8.271456"><ele>156.0</ele><time>2026-05-03T16:02:09.68Z</time></trkpt><trkpt lat="45.3445501" lon="8.2710716"><ele>156.0</ele><time>2026-05-03T16:02:10.671Z</time></trkpt><trkpt lat="45.3446395" lon="8.2706911"><ele>155.0</ele><time>2026-05-03T16:02:11.67Z</time></trkpt><trkpt lat="45.344739" lon="8.2702932"><ele>154.0</ele><time>2026-05-03T16:02:12.675Z</time></trkpt><trkpt lat="45.3448102" lon="8.2698906"><ele>155.0</ele><time>2026-05-03T16:02:13.674Z</time></trkpt><trkpt lat="45.3449043" lon="8.2695218"><ele>156.0</ele><time>2026-05-03T16:02:14.675Z</time></trkpt><trkpt lat="45.3449762" lon="8.2691201"><ele>155.5</ele><time>2026-05-03T16:02:15.676Z</time></trkpt><trkpt lat="45.3450832" lon="8.26874"><ele>155.0</ele><time>2026-05-03T16:02:16.681Z</time></trkpt><trkpt lat="45.3451772" lon="8.2683781"><ele>155.5</ele><time>2026-05-03T16:02:17.675Z</time></trkpt><trkpt lat="45.3452597" lon="8.2680296"><ele>156.0</ele><time>2026-05-03T16:02:18.67Z</time></trkpt><trkpt lat="45.3453358" lon="8.267649"><ele>156.0</ele><time>2026-05-03T16:02:19.677Z</time></trkpt><trkpt lat="45.3454285" lon="8.2672962"><ele>156.0</ele><time>2026-05-03T16:02:20.675Z</time></trkpt><trkpt lat="45.3455092" lon="8.2669522"><ele>156.0</ele><time>2026-05-03T16:02:21.683Z</time></trkpt><trkpt lat="45.3455846" lon="8.2666081"><ele>156.0</ele><time>2026-05-03T16:02:22.678Z</time></trkpt><trkpt lat="45.3456721" lon="8.2662413"><ele>156.0</ele><time>2026-05-03T16:02:23.681Z</time></trkpt><trkpt lat="45.3457515" lon="8.2658669"><ele>156.0</ele><time>2026-05-03T16:02:24.673Z</time></trkpt><trkpt lat="45.3458195" lon="8.2655315"><ele>156.5</ele><time>2026-05-03T16:02:25.683Z</time></trkpt><trkpt lat="45.3458822" lon="8.2651747"><ele>157.0</ele><time>2026-05-03T16:02:26.675Z</time></trkpt><trkpt lat="45.3459453" lon="8.2647964"><ele>157.0</ele><time>2026-05-03T16:02:27.675Z</time></trkpt><trkpt lat="45.346029" lon="8.2644338"><ele>157.0</ele><time>2026-05-03T16:02:28.68Z</time></trkpt><trkpt lat="45.3461209" lon="8.264089"><ele>157.0</ele><time>2026-05-03T16:02:29.686Z</time></trkpt><trkpt lat="45.3462079" lon="8.2637654"><ele>157.0</ele><time>2026-05-03T16:02:30.677Z</time></trkpt><trkpt lat="45.3462809" lon="8.2634591"><ele>157.0</ele><time>2026-05-03T16:02:31.687Z</time></trkpt><trkpt lat="45.3463552" lon="8.2631507"><ele>157.0</ele><time>2026-05-03T16:02:32.677Z</time></trkpt><trkpt lat="45.3464212" lon="8.2628249"><ele>157.0</ele><time>2026-05-03T16:02:33.682Z</time></trkpt><trkpt lat="45.3464738" lon="8.262504"><ele>157.0</ele><time>2026-05-03T16:02:34.675Z</time></trkpt><trkpt lat="45.3465403" lon="8.2621754"><ele>157.0</ele><time>2026-05-03T16:02:35.685Z</time></trkpt><trkpt lat="45.3466201" lon="8.2618552"><ele>157.0</ele><time>2026-05-03T16:02:36.677Z</time></trkpt><trkpt lat="45.3467095" lon="8.2614968"><ele>157.0</ele><time>2026-05-03T16:02:37.683Z</time></trkpt><trkpt lat="45.3467787" lon="8.2611655"><ele>157.0</ele><time>2026-05-03T16:02:38.68Z</time></trkpt><trkpt lat="45.346861" lon="8.2608318"><ele>157.0</ele><time>2026-05-03T16:02:39.681Z</time></trkpt><trkpt lat="45.3469395" lon="8.260486"><ele>157.0</ele><time>2026-05-03T16:02:40.685Z</time></trkpt><trkpt lat="45.3470281" lon="8.2601437"><ele>157.0</ele><time>2026-05-03T16:02:41.679Z</time></trkpt><trkpt lat="45.3470996" lon="8.2597868"><ele>157.0</ele><time>2026-05-03T16:02:42.685Z</time></trkpt><trkpt lat="45.347187" lon="8.2594154"><ele>157.5</ele><time>2026-05-03T16:02:43.682Z</time></trkpt><trkpt lat="45.3472734" lon="8.2590622"><ele>158.0</ele><time>2026-05-03T16:02:44.68Z</time></trkpt><trkpt lat="45.3473519" lon="8.2587051"><ele>159.0</ele><time>2026-05-03T16:02:45.681Z</time></trkpt><trkpt lat="45.3474465" lon="8.2583517"><ele>160.0</ele><time>2026-05-03T16:02:46.687Z</time></trkpt><trkpt lat="45.34753" lon="8.2580235"><ele>160.5</ele><time>2026-05-03T16:02:47.679Z</time></trkpt><trkpt lat="45.3475958" lon="8.2576711"><ele>161.0</ele><time>2026-05-03T16:02:48.678Z</time></trkpt><trkpt lat="45.3476753" lon="8.2573356"><ele>160.0</ele><time>2026-05-03T16:02:49.671Z</time></trkpt><trkpt lat="45.3477299" lon="8.2570112"><ele>159.0</ele><time>2026-05-03T16:02:50.668Z</time></trkpt><trkpt lat="45.3478065" lon="8.2567056"><ele>159.0</ele><time>2026-05-03T16:02:51.679Z</time></trkpt><trkpt lat="45.3478803" lon="8.2563806"><ele>159.0</ele><time>2026-05-03T16:02:52.679Z</time></trkpt><trkpt lat="45.3479341" lon="8.256033"><ele>159.0</ele><time>2026-05-03T16:02:53.682Z</time></trkpt><trkpt lat="45.348003" lon="8.2557221"><ele>159.0</ele><time>2026-05-03T16:02:54.683Z</time></trkpt><trkpt lat="45.3480769" lon="8.2554272"><ele>159.0</ele><time>2026-05-03T16:02:55.673Z</time></trkpt><trkpt lat="45.3481521" lon="8.25514"><ele>159.0</ele><time>2026-05-03T16:02:56.683Z</time></trkpt><trkpt lat="45.3482244" lon="8.2548533"><ele>159.0</ele><time>2026-05-03T16:02:57.674Z</time></trkpt><trkpt lat="45.3482752" lon="8.2545916"><ele>159.0</ele><time>2026-05-03T16:02:58.686Z</time></trkpt><trkpt lat="45.3483164" lon="8.2543609"><ele>159.33333333333334</ele><time>2026-05-03T16:02:59.686Z</time></trkpt><trkpt lat="45.3483838" lon="8.2541251"><ele>159.66666666666669</ele><time>2026-05-03T16:03:00.678Z</time></trkpt><trkpt lat="45.3484191" lon="8.2539038"><ele>160.0</ele><time>2026-05-03T16:03:01.673Z</time></trkpt><trkpt lat="45.3484759" lon="8.2536863"><ele>160.0</ele><time>2026-05-03T16:03:02.672Z</time></trkpt><trkpt lat="45.3485189" lon="8.2534649"><ele>160.0</ele><time>2026-05-03T16:03:03.682Z</time></trkpt><trkpt lat="45.3485589" lon="8.253248"><ele>160.0</ele><time>2026-05-03T16:03:04.679Z</time></trkpt><trkpt lat="45.348612" lon="8.2530369"><ele>160.0</ele><time>2026-05-03T16:03:05.679Z</time></trkpt><trkpt lat="45.3486403" lon="8.2528228"><ele>160.0</ele><time>2026-05-03T16:03:06.683Z</time></trkpt><trkpt lat="45.348688" lon="8.2526023"><ele>160.0</ele><time>2026-05-03T16:03:07.676Z</time></trkpt><trkpt lat="45.3487329" lon="8.2524037"><ele>160.5</ele><time>2026-05-03T16:03:08.686Z</time></trkpt><trkpt lat="45.3487754" lon="8.2522105"><ele>161.0</ele><time>2026-05-03T16:03:09.675Z</time></trkpt><trkpt lat="45.3488246" lon="8.252002"><ele>161.5</ele><time>2026-05-03T16:03:10.676Z</time></trkpt><trkpt lat="45.3488743" lon="8.2518054"><ele>162.0</ele><time>2026-05-03T16:03:11.678Z</time></trkpt><trkpt lat="45.3489232" lon="8.2516689"><ele>162.5</ele><time>2026-05-03T16:03:12.667Z</time></trkpt><trkpt lat="45.3489579" lon="8.2515074"><ele>163.0</ele><time>2026-05-03T16:03:13.662Z</time></trkpt><trkpt lat="45.3490247" lon="8.2513257"><ele>163.5</ele><time>2026-05-03T16:03:14.668Z</time></trkpt><trkpt lat="45.34909" lon="8.2511467"><ele>164.0</ele><time>2026-05-03T16:03:15.674Z</time></trkpt><trkpt lat="45.3491605" lon="8.2510421"><ele>164.0</ele><time>2026-05-03T16:03:16.668Z</time></trkpt><trkpt lat="45.3492289" lon="8.2509498"><ele>164.0</ele><time>2026-05-03T16:03:17.68Z</time></trkpt><trkpt lat="45.3492727" lon="8.2508773"><ele>164.0</ele><time>2026-05-03T16:03:18.652Z</time></trkpt><trkpt lat="45.3493197" lon="8.2507727"><ele>164.0</ele><time>2026-05-03T16:03:20.649Z</time></trkpt><trkpt lat="45.3493221" lon="8.2506715"><ele>164.0</ele><time>2026-05-03T16:03:24.664Z</time></trkpt><trkpt lat="45.3493311" lon="8.2505612"><ele>164.0</ele><time>2026-05-03T16:03:28.664Z</time></trkpt><trkpt lat="45.3493851" lon="8.2504008"><ele>163.75</ele><time>2026-05-03T16:03:30.66Z</time></trkpt><trkpt lat="45.3494289" lon="8.2502654"><ele>163.5</ele><time>2026-05-03T16:03:31.665Z</time></trkpt><trkpt lat="45.3494803" lon="8.2501096"><ele>163.25</ele><time>2026-05-03T16:03:32.648Z</time></trkpt><trkpt lat="45.3495252" lon="8.2499029"><ele>163.0</ele><time>2026-05-03T16:03:33.64Z</time></trkpt><trkpt lat="45.3495714" lon="8.2496808"><ele>163.5</ele><time>2026-05-03T16:03:34.657Z</time></trkpt><trkpt lat="45.3496125" lon="8.2494802"><ele>164.0</ele><time>2026-05-03T16:03:35.662Z</time></trkpt><trkpt lat="45.3496478" lon="8.2493142"><ele>164.5</ele><time>2026-05-03T16:03:36.651Z</time></trkpt><trkpt lat="45.3496891" lon="8.2491604"><ele>165.0</ele><time>2026-05-03T16:03:37.654Z</time></trkpt><trkpt lat="45.3497324" lon="8.2490017"><ele>165.25</ele><time>2026-05-03T16:03:38.646Z</time></trkpt><trkpt lat="45.3497756" lon="8.2488356"><ele>165.5</ele><time>2026-05-03T16:03:39.657Z</time></trkpt><trkpt lat="45.3498091" lon="8.2486705"><ele>165.75</ele><time>2026-05-03T16:03:40.644Z</time></trkpt><trkpt lat="45.3498397" lon="8.248503"><ele>166.0</ele><time>2026-05-03T16:03:41.657Z</time></trkpt><trkpt lat="45.3498621" lon="8.2483389"><ele>166.0</ele><time>2026-05-03T16:03:42.652Z</time></trkpt><trkpt lat="45.349889" lon="8.2481733"><ele>166.0</ele><time>2026-05-03T16:03:43.652Z</time></trkpt><trkpt lat="45.3499184" lon="8.2479979"><ele>166.0</ele><time>2026-05-03T16:03:44.661Z</time></trkpt><trkpt lat="45.3499492" lon="8.2478246"><ele>166.0</ele><time>2026-05-03T16:03:45.652Z</time></trkpt><trkpt lat="45.3499791" lon="8.2476562"><ele>165.75</ele><time>2026-05-03T16:03:46.656Z</time></trkpt><trkpt lat="45.3500149" lon="8.2474861"><ele>165.5</ele><time>2026-05-03T16:03:47.666Z</time></trkpt><trkpt lat="45.3500371" lon="8.2473034"><ele>165.25</ele><time>2026-05-03T16:03:48.666Z</time></trkpt><trkpt lat="45.350058" lon="8.24714"><ele>165.0</ele><time>2026-05-03T16:03:49.664Z</time></trkpt><trkpt lat="45.3500762" lon="8.2469674"><ele>165.0</ele><time>2026-05-03T16:03:50.656Z</time></trkpt><trkpt lat="45.3500895" lon="8.246793"><ele>165.0</ele><time>2026-05-03T16:03:51.661Z</time></trkpt><trkpt lat="45.3500931" lon="8.246621"><ele>165.0</ele><time>2026-05-03T16:03:52.659Z</time></trkpt><trkpt lat="45.3500969" lon="8.2464244"><ele>165.0</ele><time>2026-05-03T16:03:53.66Z</time></trkpt><trkpt lat="45.350088" lon="8.2462312"><ele>164.75</ele><time>2026-05-03T16:03:54.662Z</time></trkpt><trkpt lat="45.3500924" lon="8.2460286"><ele>164.5</ele><time>2026-05-03T16:03:55.662Z</time></trkpt><trkpt lat="45.3500979" lon="8.2458327"><ele>164.25</ele><time>2026-05-03T16:03:56.666Z</time></trkpt><trkpt lat="45.3501257" lon="8.2456376"><ele>164.0</ele><time>2026-05-03T16:03:57.656Z</time></trkpt><trkpt lat="45.3501548" lon="8.2454344"><ele>163.66666666666666</ele><time>2026-05-03T16:03:58.662Z</time></trkpt><trkpt lat="45.3501455" lon="8.2452178"><ele>163.33333333333334</ele><time>2026-05-03T16:03:59.667Z</time></trkpt><trkpt lat="45.3501344" lon="8.2449819"><ele>163.0</ele><time>2026-05-03T16:04:00.66Z</time></trkpt><trkpt lat="45.3501213" lon="8.2447374"><ele>163.0</ele><time>2026-05-03T16:04:01.667Z</time></trkpt><trkpt lat="45.3501394" lon="8.2445183"><ele>163.0</ele><time>2026-05-03T16:04:02.668Z</time></trkpt><trkpt lat="45.3501319" lon="8.2442745"><ele>163.0</ele><time>2026-05-03T16:04:03.666Z</time></trkpt><trkpt lat="45.3501364" lon="8.2440369"><ele>163.0</ele><time>2026-05-03T16:04:04.68Z</time></trkpt><trkpt lat="45.350109" lon="8.243774"><ele>163.0</ele><time>2026-05-03T16:04:05.666Z</time></trkpt><trkpt lat="45.3500978" lon="8.2435485"><ele>163.0</ele><time>2026-05-03T16:04:06.68Z</time></trkpt><trkpt lat="45.3500971" lon="8.2432742"><ele>163.0</ele><time>2026-05-03T16:04:07.675Z</time></trkpt><trkpt lat="45.3501071" lon="8.2430387"><ele>163.0</ele><time>2026-05-03T16:04:08.678Z</time></trkpt><trkpt lat="45.3501385" lon="8.242795"><ele>163.0</ele><time>2026-05-03T16:04:09.677Z</time></trkpt><trkpt lat="45.3501728" lon="8.2425356"><ele>163.0</ele><time>2026-05-03T16:04:10.674Z</time></trkpt><trkpt lat="45.3501999" lon="8.2422446"><ele>163.0</ele><time>2026-05-03T16:04:11.675Z</time></trkpt><trkpt lat="45.350223" lon="8.2419864"><ele>163.0</ele><time>2026-05-03T16:04:12.679Z</time></trkpt><trkpt lat="45.3502415" lon="8.2417374"><ele>163.0</ele><time>2026-05-03T16:04:13.692Z</time></trkpt><trkpt lat="45.3502526" lon="8.2414787"><ele>163.0</ele><time>2026-05-03T16:04:14.68Z</time></trkpt><trkpt lat="45.3502798" lon="8.2412617"><ele>163.0</ele><time>2026-05-03T16:04:15.681Z</time></trkpt><trkpt lat="45.3503046" lon="8.2410231"><ele>163.25</ele><time>2026-05-03T16:04:16.67Z</time></trkpt><trkpt lat="45.3503118" lon="8.2408171"><ele>163.5</ele><time>2026-05-03T16:04:17.666Z</time></trkpt><trkpt lat="45.350346" lon="8.2406418"><ele>163.75</ele><time>2026-05-03T16:04:18.664Z</time></trkpt><trkpt lat="45.3503823" lon="8.2405068"><ele>164.0</ele><time>2026-05-03T16:04:19.662Z</time></trkpt><trkpt lat="45.3503877" lon="8.2403824"><ele>164.0</ele><time>2026-05-03T16:04:20.659Z</time></trkpt><trkpt lat="45.3505008" lon="8.2401544"><ele>164.0</ele><time>2026-05-03T16:04:22.671Z</time></trkpt><trkpt lat="45.3505688" lon="8.2400527"><ele>164.0</ele><time>2026-05-03T16:04:23.663Z</time></trkpt><trkpt lat="45.3506359" lon="8.2399977"><ele>164.0</ele><time>2026-05-03T16:04:24.67Z</time></trkpt><trkpt lat="45.3506635" lon="8.2398643"><ele>164.0</ele><time>2026-05-03T16:04:25.669Z</time></trkpt><trkpt lat="45.3506962" lon="8.2397621"><ele>164.0</ele><time>2026-05-03T16:04:26.666Z</time></trkpt><trkpt lat="45.3506802" lon="8.239631"><ele>164.0</ele><time>2026-05-03T16:04:27.662Z</time></trkpt><trkpt lat="45.3506592" lon="8.2394749"><ele>164.0</ele><time>2026-05-03T16:04:28.657Z</time></trkpt><trkpt lat="45.3506425" lon="8.2392791"><ele>164.0</ele><time>2026-05-03T16:04:29.665Z</time></trkpt><trkpt lat="45.3506296" lon="8.2390562"><ele>163.66666666666666</ele><time>2026-05-03T16:04:30.659Z</time></trkpt><trkpt lat="45.3506502" lon="8.2387871"><ele>163.33333333333334</ele><time>2026-05-03T16:04:31.661Z</time></trkpt><trkpt lat="45.3507099" lon="8.2384313"><ele>163.0</ele><time>2026-05-03T16:04:32.666Z</time></trkpt><trkpt lat="45.3507857" lon="8.2380344"><ele>162.5</ele><time>2026-05-03T16:04:33.67Z</time></trkpt><trkpt lat="45.3508829" lon="8.2376325"><ele>162.0</ele><time>2026-05-03T16:04:34.671Z</time></trkpt><trkpt lat="45.3509992" lon="8.2372287"><ele>162.0</ele><time>2026-05-03T16:04:35.665Z</time></trkpt><trkpt lat="45.3511388" lon="8.2368116"><ele>162.0</ele><time>2026-05-03T16:04:36.68Z</time></trkpt><trkpt lat="45.3512604" lon="8.2364186"><ele>162.0</ele><time>2026-05-03T16:04:37.69Z</time></trkpt><trkpt lat="45.351381" lon="8.2360148"><ele>162.0</ele><time>2026-05-03T16:04:38.682Z</time></trkpt><trkpt lat="45.3514886" lon="8.2356253"><ele>162.5</ele><time>2026-05-03T16:04:39.684Z</time></trkpt><trkpt lat="45.3515864" lon="8.2352289"><ele>163.0</ele><time>2026-05-03T16:04:40.687Z</time></trkpt><trkpt lat="45.3516945" lon="8.234817"><ele>163.5</ele><time>2026-05-03T16:04:41.682Z</time></trkpt><trkpt lat="45.3517806" lon="8.2344376"><ele>164.0</ele><time>2026-05-03T16:04:42.687Z</time></trkpt><trkpt lat="45.3518544" lon="8.2340198"><ele>164.0</ele><time>2026-05-03T16:04:43.689Z</time></trkpt><trkpt lat="45.3519452" lon="8.2336064"><ele>164.0</ele><time>2026-05-03T16:04:44.683Z</time></trkpt><trkpt lat="45.3520649" lon="8.2332005"><ele>164.0</ele><time>2026-05-03T16:04:45.681Z</time></trkpt><trkpt lat="45.3521716" lon="8.2327831"><ele>164.0</ele><time>2026-05-03T16:04:46.689Z</time></trkpt><trkpt lat="45.3522865" lon="8.2323803"><ele>164.0</ele><time>2026-05-03T16:04:47.681Z</time></trkpt><trkpt lat="45.3523882" lon="8.2319715"><ele>164.0</ele><time>2026-05-03T16:04:48.681Z</time></trkpt><trkpt lat="45.3524853" lon="8.2315511"><ele>164.0</ele><time>2026-05-03T16:04:49.678Z</time></trkpt><trkpt lat="45.352606" lon="8.2311434"><ele>164.0</ele><time>2026-05-03T16:04:50.689Z</time></trkpt><trkpt lat="45.3527139" lon="8.2307071"><ele>164.0</ele><time>2026-05-03T16:04:51.694Z</time></trkpt><trkpt lat="45.3528236" lon="8.2303081"><ele>164.0</ele><time>2026-05-03T16:04:52.689Z</time></trkpt><trkpt lat="45.3529136" lon="8.229867"><ele>165.0</ele><time>2026-05-03T16:04:53.69Z</time></trkpt><trkpt lat="45.3530066" lon="8.2294707"><ele>166.0</ele><time>2026-05-03T16:04:54.68Z</time></trkpt><trkpt lat="45.3531078" lon="8.2290658"><ele>166.0</ele><time>2026-05-03T16:04:55.681Z</time></trkpt><trkpt lat="45.3532078" lon="8.2286448"><ele>166.0</ele><time>2026-05-03T16:04:56.679Z</time></trkpt><trkpt lat="45.3533022" lon="8.2282364"><ele>166.0</ele><time>2026-05-03T16:04:57.688Z</time></trkpt><trkpt lat="45.3533929" lon="8.227795"><ele>166.0</ele><time>2026-05-03T16:04:58.674Z</time></trkpt><trkpt lat="45.3535041" lon="8.2273823"><ele>166.5</ele><time>2026-05-03T16:04:59.678Z</time></trkpt><trkpt lat="45.3536107" lon="8.2269832"><ele>167.0</ele><time>2026-05-03T16:05:00.679Z</time></trkpt><trkpt lat="45.3537198" lon="8.2265772"><ele>166.0</ele><time>2026-05-03T16:05:01.693Z</time></trkpt><trkpt lat="45.353787" lon="8.2261875"><ele>165.0</ele><time>2026-05-03T16:05:02.681Z</time></trkpt><trkpt lat="45.3538651" lon="8.2257684"><ele>165.5</ele><time>2026-05-03T16:05:03.69Z</time></trkpt><trkpt lat="45.3539524" lon="8.2253194"><ele>166.0</ele><time>2026-05-03T16:05:04.688Z</time></trkpt><trkpt lat="45.3540356" lon="8.224914"><ele>166.5</ele><time>2026-05-03T16:05:05.692Z</time></trkpt><trkpt lat="45.3541329" lon="8.2245258"><ele>167.0</ele><time>2026-05-03T16:05:06.684Z</time></trkpt><trkpt lat="45.3542273" lon="8.224126"><ele>167.0</ele><time>2026-05-03T16:05:07.682Z</time></trkpt><trkpt lat="45.3543446" lon="8.2236922"><ele>167.0</ele><time>2026-05-03T16:05:08.69Z</time></trkpt><trkpt lat="45.3544597" lon="8.2233014"><ele>167.0</ele><time>2026-05-03T16:05:09.681Z</time></trkpt><trkpt lat="45.3545479" lon="8.2228987"><ele>167.0</ele><time>2026-05-03T16:05:10.688Z</time></trkpt><trkpt lat="45.35469" lon="8.2225003"><ele>167.5</ele><time>2026-05-03T16:05:11.686Z</time></trkpt><trkpt lat="45.3548015" lon="8.2221091"><ele>168.0</ele><time>2026-05-03T16:05:12.685Z</time></trkpt><trkpt lat="45.3549078" lon="8.2217199"><ele>167.5</ele><time>2026-05-03T16:05:13.681Z</time></trkpt><trkpt lat="45.3550169" lon="8.2212884"><ele>167.0</ele><time>2026-05-03T16:05:14.682Z</time></trkpt><trkpt lat="45.3551106" lon="8.2208347"><ele>167.5</ele><time>2026-05-03T16:05:15.692Z</time></trkpt><trkpt lat="45.3552071" lon="8.2204385"><ele>168.0</ele><time>2026-05-03T16:05:16.682Z</time></trkpt><trkpt lat="45.355304" lon="8.2200346"><ele>168.5</ele><time>2026-05-03T16:05:17.685Z</time></trkpt><trkpt lat="45.3554015" lon="8.2196224"><ele>169.0</ele><time>2026-05-03T16:05:18.677Z</time></trkpt><trkpt lat="45.3554956" lon="8.2191848"><ele>169.0</ele><time>2026-05-03T16:05:19.679Z</time></trkpt><trkpt lat="45.3555928" lon="8.21875"><ele>169.0</ele><time>2026-05-03T16:05:20.687Z</time></trkpt><trkpt lat="45.3556885" lon="8.2183483"><ele>169.0</ele><time>2026-05-03T16:05:21.679Z</time></trkpt><trkpt lat="45.3557846" lon="8.2179166"><ele>169.0</ele><time>2026-05-03T16:05:22.685Z</time></trkpt><trkpt lat="45.3558916" lon="8.2175239"><ele>169.0</ele><time>2026-05-03T16:05:23.692Z</time></trkpt><trkpt lat="45.3559797" lon="8.2171136"><ele>169.0</ele><time>2026-05-03T16:05:24.686Z</time></trkpt><trkpt lat="45.3560767" lon="8.2166863"><ele>169.5</ele><time>2026-05-03T16:05:25.682Z</time></trkpt><trkpt lat="45.3561962" lon="8.2162645"><ele>170.0</ele><time>2026-05-03T16:05:26.683Z</time></trkpt><trkpt lat="45.3562971" lon="8.2158516"><ele>168.5</ele><time>2026-05-03T16:05:27.69Z</time></trkpt><trkpt lat="45.3564034" lon="8.2154402"><ele>167.0</ele><time>2026-05-03T16:05:28.683Z</time></trkpt><trkpt lat="45.3565057" lon="8.2150514"><ele>168.0</ele><time>2026-05-03T16:05:29.692Z</time></trkpt><trkpt lat="45.3566072" lon="8.2146413"><ele>169.0</ele><time>2026-05-03T16:05:30.69Z</time></trkpt><trkpt lat="45.3566958" lon="8.2142329"><ele>169.5</ele><time>2026-05-03T16:05:31.695Z</time></trkpt><trkpt lat="45.3567881" lon="8.2138389"><ele>170.0</ele><time>2026-05-03T16:05:32.688Z</time></trkpt><trkpt lat="45.3568658" lon="8.2134468"><ele>170.5</ele><time>2026-05-03T16:05:33.687Z</time></trkpt><trkpt lat="45.3569505" lon="8.2130241"><ele>171.0</ele><time>2026-05-03T16:05:34.681Z</time></trkpt><trkpt lat="45.3570492" lon="8.2126242"><ele>171.0</ele><time>2026-05-03T16:05:35.689Z</time></trkpt><trkpt lat="45.3571433" lon="8.212212"><ele>171.0</ele><time>2026-05-03T16:05:36.684Z</time></trkpt><trkpt lat="45.3572414" lon="8.2117881"><ele>170.5</ele><time>2026-05-03T16:05:37.68Z</time></trkpt><trkpt lat="45.3573386" lon="8.2113482"><ele>170.0</ele><time>2026-05-03T16:05:38.675Z</time></trkpt><trkpt lat="45.3574361" lon="8.2109624"><ele>170.5</ele><time>2026-05-03T16:05:39.686Z</time></trkpt><trkpt lat="45.3575357" lon="8.2105273"><ele>171.0</ele><time>2026-05-03T16:05:40.682Z</time></trkpt><trkpt lat="45.3576181" lon="8.2101311"><ele>171.5</ele><time>2026-05-03T16:05:41.681Z</time></trkpt><trkpt lat="45.3577107" lon="8.2097181"><ele>172.0</ele><time>2026-05-03T16:05:42.689Z</time></trkpt><trkpt lat="45.3578128" lon="8.2093015"><ele>171.5</ele><time>2026-05-03T16:05:43.68Z</time></trkpt><trkpt lat="45.3579297" lon="8.2088868"><ele>171.0</ele><time>2026-05-03T16:05:44.692Z</time></trkpt><trkpt lat="45.3580621" lon="8.2084831"><ele>171.0</ele><time>2026-05-03T16:05:45.678Z</time></trkpt><trkpt lat="45.3581561" lon="8.2080855"><ele>171.0</ele><time>2026-05-03T16:05:46.685Z</time></trkpt><trkpt lat="45.3582574" lon="8.207686"><ele>172.0</ele><time>2026-05-03T16:05:47.671Z</time></trkpt><trkpt lat="45.3583665" lon="8.207263"><ele>173.0</ele><time>2026-05-03T16:05:48.678Z</time></trkpt><trkpt lat="45.3584534" lon="8.2068457"><ele>173.0</ele><time>2026-05-03T16:05:49.692Z</time></trkpt><trkpt lat="45.3585507" lon="8.2064244"><ele>173.0</ele><time>2026-05-03T16:05:50.676Z</time></trkpt><trkpt lat="45.3586487" lon="8.2059649"><ele>173.0</ele><time>2026-05-03T16:05:51.685Z</time></trkpt><trkpt lat="45.3587514" lon="8.2055562"><ele>173.0</ele><time>2026-05-03T16:05:52.675Z</time></trkpt><trkpt lat="45.3588576" lon="8.2051536"><ele>172.0</ele><time>2026-05-03T16:05:53.676Z</time></trkpt><trkpt lat="45.3589612" lon="8.2047141"><ele>171.0</ele><time>2026-05-03T16:05:54.678Z</time></trkpt><trkpt lat="45.359074" lon="8.2042927"><ele>171.0</ele><time>2026-05-03T16:05:55.685Z</time></trkpt><trkpt lat="45.3591795" lon="8.2038852"><ele>171.0</ele><time>2026-05-03T16:05:56.682Z</time></trkpt><trkpt lat="45.3592739" lon="8.2034741"><ele>171.5</ele><time>2026-05-03T16:05:57.684Z</time></trkpt><trkpt lat="45.3593666" lon="8.2030564"><ele>172.0</ele><time>2026-05-03T16:05:58.681Z</time></trkpt><trkpt lat="45.3594696" lon="8.2026127"><ele>173.0</ele><time>2026-05-03T16:05:59.675Z</time></trkpt><trkpt lat="45.3595677" lon="8.2021694"><ele>174.0</ele><time>2026-05-03T16:06:00.691Z</time></trkpt><trkpt lat="45.3596805" lon="8.2017606"><ele>173.5</ele><time>2026-05-03T16:06:01.694Z</time></trkpt><trkpt lat="45.359793" lon="8.20135"><ele>173.0</ele><time>2026-05-03T16:06:02.687Z</time></trkpt><trkpt lat="45.3598977" lon="8.2009255"><ele>173.0</ele><time>2026-05-03T16:06:03.683Z</time></trkpt><trkpt lat="45.3599867" lon="8.2004923"><ele>173.0</ele><time>2026-05-03T16:06:04.691Z</time></trkpt><trkpt lat="45.3600995" lon="8.2000758"><ele>173.5</ele><time>2026-05-03T16:06:05.688Z</time></trkpt><trkpt lat="45.3601644" lon="8.199666"><ele>174.0</ele><time>2026-05-03T16:06:06.692Z</time></trkpt><trkpt lat="45.3602465" lon="8.1992528"><ele>174.0</ele><time>2026-05-03T16:06:07.684Z</time></trkpt><trkpt lat="45.3603474" lon="8.1988369"><ele>174.0</ele><time>2026-05-03T16:06:08.684Z</time></trkpt><trkpt lat="45.3604595" lon="8.198414"><ele>174.0</ele><time>2026-05-03T16:06:09.691Z</time></trkpt><trkpt lat="45.3605642" lon="8.1980103"><ele>174.0</ele><time>2026-05-03T16:06:10.684Z</time></trkpt><trkpt lat="45.3606591" lon="8.1976075"><ele>174.0</ele><time>2026-05-03T16:06:11.693Z</time></trkpt><trkpt lat="45.3607719" lon="8.1972121"><ele>174.0</ele><time>2026-05-03T16:06:12.684Z</time></trkpt><trkpt lat="45.3608794" lon="8.1968238"><ele>174.5</ele><time>2026-05-03T16:06:13.688Z</time></trkpt><trkpt lat="45.3609663" lon="8.1964594"><ele>175.0</ele><time>2026-05-03T16:06:14.685Z</time></trkpt><trkpt lat="45.3610705" lon="8.1960498"><ele>176.0</ele><time>2026-05-03T16:06:15.689Z</time></trkpt><trkpt lat="45.3611579" lon="8.19567"><ele>177.0</ele><time>2026-05-03T16:06:16.689Z</time></trkpt><trkpt lat="45.3612464" lon="8.1952621"><ele>177.0</ele><time>2026-05-03T16:06:17.689Z</time></trkpt><trkpt lat="45.3613309" lon="8.1948625"><ele>177.0</ele><time>2026-05-03T16:06:18.692Z</time></trkpt><trkpt lat="45.3614316" lon="8.1944879"><ele>176.5</ele><time>2026-05-03T16:06:19.699Z</time></trkpt><trkpt lat="45.36151" lon="8.1941135"><ele>176.0</ele><time>2026-05-03T16:06:20.685Z</time></trkpt><trkpt lat="45.361594" lon="8.1937072"><ele>176.0</ele><time>2026-05-03T16:06:21.678Z</time></trkpt><trkpt lat="45.361672" lon="8.193321"><ele>176.0</ele><time>2026-05-03T16:06:22.681Z</time></trkpt><trkpt lat="45.3617703" lon="8.1929611"><ele>176.0</ele><time>2026-05-03T16:06:23.683Z</time></trkpt><trkpt lat="45.3618665" lon="8.1925722"><ele>176.0</ele><time>2026-05-03T16:06:24.685Z</time></trkpt><trkpt lat="45.3619557" lon="8.1921868"><ele>177.0</ele><time>2026-05-03T16:06:25.682Z</time></trkpt><trkpt lat="45.3620273" lon="8.1918809"><ele>178.0</ele><time>2026-05-03T16:06:26.68Z</time></trkpt><trkpt lat="45.3621114" lon="8.1915296"><ele>177.5</ele><time>2026-05-03T16:06:27.678Z</time></trkpt><trkpt lat="45.3621935" lon="8.1911924"><ele>177.0</ele><time>2026-05-03T16:06:28.673Z</time></trkpt><trkpt lat="45.3622939" lon="8.190842"><ele>177.0</ele><time>2026-05-03T16:06:29.682Z</time></trkpt><trkpt lat="45.3623694" lon="8.1904859"><ele>177.0</ele><time>2026-05-03T16:06:30.672Z</time></trkpt><trkpt lat="45.3624669" lon="8.190158"><ele>177.5</ele><time>2026-05-03T16:06:31.675Z</time></trkpt><trkpt lat="45.362571" lon="8.1898095"><ele>178.0</ele><time>2026-05-03T16:06:32.667Z</time></trkpt><trkpt lat="45.3626996" lon="8.1894685"><ele>178.0</ele><time>2026-05-03T16:06:33.682Z</time></trkpt><trkpt lat="45.3628427" lon="8.1891242"><ele>178.0</ele><time>2026-05-03T16:06:34.674Z</time></trkpt><trkpt lat="45.3630043" lon="8.1887746"><ele>178.0</ele><time>2026-05-03T16:06:35.668Z</time></trkpt><trkpt lat="45.3631701" lon="8.188462"><ele>178.0</ele><time>2026-05-03T16:06:36.668Z</time></trkpt><trkpt lat="45.3633625" lon="8.1881794"><ele>178.5</ele><time>2026-05-03T16:06:37.672Z</time></trkpt><trkpt lat="45.3636035" lon="8.1878679"><ele>179.0</ele><time>2026-05-03T16:06:38.664Z</time></trkpt><trkpt lat="45.3638448" lon="8.1876171"><ele>178.5</ele><time>2026-05-03T16:06:39.671Z</time></trkpt><trkpt lat="45.3640975" lon="8.1873743"><ele>178.0</ele><time>2026-05-03T16:06:40.682Z</time></trkpt><trkpt lat="45.3643385" lon="8.1871535"><ele>178.0</ele><time>2026-05-03T16:06:41.674Z</time></trkpt><trkpt lat="45.3645792" lon="8.1869512"><ele>178.0</ele><time>2026-05-03T16:06:42.674Z</time></trkpt><trkpt lat="45.3648355" lon="8.1867654"><ele>179.5</ele><time>2026-05-03T16:06:43.678Z</time></trkpt><trkpt lat="45.3650796" lon="8.1865865"><ele>181.0</ele><time>2026-05-03T16:06:44.673Z</time></trkpt><trkpt lat="45.3653499" lon="8.1863877"><ele>181.5</ele><time>2026-05-03T16:06:45.679Z</time></trkpt><trkpt lat="45.3656339" lon="8.1861444"><ele>182.0</ele><time>2026-05-03T16:06:46.678Z</time></trkpt><trkpt lat="45.3658982" lon="8.1859625"><ele>182.0</ele><time>2026-05-03T16:06:47.67Z</time></trkpt><trkpt lat="45.3661659" lon="8.1857415"><ele>182.0</ele><time>2026-05-03T16:06:48.684Z</time></trkpt><trkpt lat="45.3664195" lon="8.1855639"><ele>182.0</ele><time>2026-05-03T16:06:49.68Z</time></trkpt><trkpt lat="45.3666158" lon="8.1854074"><ele>182.0</ele><time>2026-05-03T16:06:50.668Z</time></trkpt><trkpt lat="45.3668265" lon="8.1852243"><ele>182.0</ele><time>2026-05-03T16:06:51.666Z</time></trkpt><trkpt lat="45.3670146" lon="8.1850858"><ele>182.0</ele><time>2026-05-03T16:06:52.667Z</time></trkpt><trkpt lat="45.3672081" lon="8.1849156"><ele>182.0</ele><time>2026-05-03T16:06:53.667Z</time></trkpt><trkpt lat="45.3674134" lon="8.1847205"><ele>181.5</ele><time>2026-05-03T16:06:54.67Z</time></trkpt><trkpt lat="45.3675961" lon="8.1845004"><ele>181.0</ele><time>2026-05-03T16:06:55.668Z</time></trkpt><trkpt lat="45.3677731" lon="8.1842283"><ele>181.0</ele><time>2026-05-03T16:06:56.676Z</time></trkpt><trkpt lat="45.3679355" lon="8.1839378"><ele>181.0</ele><time>2026-05-03T16:06:57.671Z</time></trkpt><trkpt lat="45.3680844" lon="8.1836285"><ele>180.5</ele><time>2026-05-03T16:06:58.667Z</time></trkpt><trkpt lat="45.3681959" lon="8.1833331"><ele>180.0</ele><time>2026-05-03T16:06:59.673Z</time></trkpt><trkpt lat="45.3682986" lon="8.1829967"><ele>180.0</ele><time>2026-05-03T16:07:00.685Z</time></trkpt><trkpt lat="45.3683775" lon="8.182729"><ele>180.0</ele><time>2026-05-03T16:07:01.687Z</time></trkpt><trkpt lat="45.3684724" lon="8.182453"><ele>180.0</ele><time>2026-05-03T16:07:02.682Z</time></trkpt><trkpt lat="45.368565" lon="8.1821929"><ele>180.33333333333334</ele><time>2026-05-03T16:07:03.669Z</time></trkpt><trkpt lat="45.3686424" lon="8.1819624"><ele>180.66666666666669</ele><time>2026-05-03T16:07:04.665Z</time></trkpt><trkpt lat="45.3687235" lon="8.1817437"><ele>181.0</ele><time>2026-05-03T16:07:05.665Z</time></trkpt><trkpt lat="45.368774" lon="8.1815923"><ele>181.0</ele><time>2026-05-03T16:07:06.666Z</time></trkpt><trkpt lat="45.3688094" lon="8.1814782"><ele>181.0</ele><time>2026-05-03T16:07:07.661Z</time></trkpt><trkpt lat="45.3688506" lon="8.1813205"><ele>181.0</ele><time>2026-05-03T16:07:08.661Z</time></trkpt><trkpt lat="45.3689265" lon="8.1811959"><ele>181.0</ele><time>2026-05-03T16:07:09.648Z</time></trkpt><trkpt lat="45.3690071" lon="8.1811219"><ele>181.0</ele><time>2026-05-03T16:07:10.652Z</time></trkpt><trkpt lat="45.3691272" lon="8.1810138"><ele>181.0</ele><time>2026-05-03T16:07:11.64Z</time></trkpt><trkpt lat="45.3692489" lon="8.1808735"><ele>181.0</ele><time>2026-05-03T16:07:12.647Z</time></trkpt><trkpt lat="45.3693091" lon="8.1808347"><ele>181.0</ele><time>2026-05-03T16:07:13.647Z</time></trkpt><trkpt lat="45.3693552" lon="8.1806659"><ele>181.0</ele><time>2026-05-03T16:07:15.648Z</time></trkpt><trkpt lat="45.3693572" lon="8.1805013"><ele>181.33333333333334</ele><time>2026-05-03T16:07:16.649Z</time></trkpt><trkpt lat="45.3693785" lon="8.1802916"><ele>181.66666666666666</ele><time>2026-05-03T16:07:17.652Z</time></trkpt><trkpt lat="45.3694381" lon="8.1800916"><ele>182.0</ele><time>2026-05-03T16:07:18.662Z</time></trkpt><trkpt lat="45.3695149" lon="8.1798944"><ele>182.66666666666666</ele><time>2026-05-03T16:07:19.659Z</time></trkpt><trkpt lat="45.3696071" lon="8.1796362"><ele>183.33333333333334</ele><time>2026-05-03T16:07:20.659Z</time></trkpt><trkpt lat="45.3696923" lon="8.1793665"><ele>184.0</ele><time>2026-05-03T16:07:21.654Z</time></trkpt><trkpt lat="45.3697885" lon="8.1790697"><ele>182.0</ele><time>2026-05-03T16:07:22.661Z</time></trkpt><trkpt lat="45.3698945" lon="8.1787833"><ele>180.0</ele><time>2026-05-03T16:07:23.667Z</time></trkpt><trkpt lat="45.3700069" lon="8.178498"><ele>180.0</ele><time>2026-05-03T16:07:24.658Z</time></trkpt><trkpt lat="45.3701083" lon="8.1782451"><ele>180.0</ele><time>2026-05-03T16:07:25.674Z</time></trkpt><trkpt lat="45.3702074" lon="8.1779798"><ele>180.0</ele><time>2026-05-03T16:07:26.672Z</time></trkpt><trkpt lat="45.3702964" lon="8.1777844"><ele>180.0</ele><time>2026-05-03T16:07:27.675Z</time></trkpt><trkpt lat="45.3703903" lon="8.1775443"><ele>180.0</ele><time>2026-05-03T16:07:28.667Z</time></trkpt><trkpt lat="45.3704749" lon="8.1773532"><ele>180.0</ele><time>2026-05-03T16:07:29.673Z</time></trkpt><trkpt lat="45.3705261" lon="8.1771665"><ele>180.5</ele><time>2026-05-03T16:07:30.67Z</time></trkpt><trkpt lat="45.3705819" lon="8.1769956"><ele>181.0</ele><time>2026-05-03T16:07:31.674Z</time></trkpt><trkpt lat="45.370648" lon="8.1768303"><ele>181.5</ele><time>2026-05-03T16:07:32.667Z</time></trkpt><trkpt lat="45.3707228" lon="8.1766617"><ele>182.0</ele><time>2026-05-03T16:07:33.668Z</time></trkpt><trkpt lat="45.3707749" lon="8.1765595"><ele>182.39999999999998</ele><time>2026-05-03T16:07:34.671Z</time></trkpt><trkpt lat="45.370844" lon="8.1764178"><ele>182.79999999999998</ele><time>2026-05-03T16:07:35.669Z</time></trkpt><trkpt lat="45.370908" lon="8.1762968"><ele>183.2</ele><time>2026-05-03T16:07:36.668Z</time></trkpt><trkpt lat="45.3709528" lon="8.1761834"><ele>183.6</ele><time>2026-05-03T16:07:37.674Z</time></trkpt><trkpt lat="45.3709922" lon="8.1760762"><ele>184.0</ele><time>2026-05-03T16:07:38.676Z</time></trkpt><trkpt lat="45.3710293" lon="8.1759606"><ele>184.0</ele><time>2026-05-03T16:07:39.681Z</time></trkpt><trkpt lat="45.371064" lon="8.1758585"><ele>184.0</ele><time>2026-05-03T16:07:40.671Z</time></trkpt><trkpt lat="45.3710927" lon="8.1757612"><ele>184.0</ele><time>2026-05-03T16:07:41.672Z</time></trkpt><trkpt lat="45.3711133" lon="8.175674"><ele>184.0</ele><time>2026-05-03T16:07:42.682Z</time></trkpt><trkpt lat="45.3711324" lon="8.1755836"><ele>184.0</ele><time>2026-05-03T16:07:43.675Z</time></trkpt><trkpt lat="45.37116" lon="8.1754498"><ele>184.0</ele><time>2026-05-03T16:07:45.675Z</time></trkpt><trkpt lat="45.3711928" lon="8.1753733"><ele>184.0</ele><time>2026-05-03T16:07:58.669Z</time></trkpt><trkpt lat="45.3712508" lon="8.1752149"><ele>184.0</ele><time>2026-05-03T16:08:00.671Z</time></trkpt><trkpt lat="45.3713116" lon="8.1750486"><ele>184.0</ele><time>2026-05-03T16:08:01.67Z</time></trkpt><trkpt lat="45.3713832" lon="8.1748496"><ele>184.0</ele><time>2026-05-03T16:08:02.663Z</time></trkpt><trkpt lat="45.371453" lon="8.174629"><ele>184.33333333333334</ele><time>2026-05-03T16:08:03.672Z</time></trkpt><trkpt lat="45.3715139" lon="8.1744139"><ele>184.66666666666666</ele><time>2026-05-03T16:08:04.664Z</time></trkpt><trkpt lat="45.3715929" lon="8.1741584"><ele>185.0</ele><time>2026-05-03T16:08:05.659Z</time></trkpt><trkpt lat="45.3716548" lon="8.1739584"><ele>185.0</ele><time>2026-05-03T16:08:06.662Z</time></trkpt><trkpt lat="45.371695" lon="8.1737335"><ele>185.0</ele><time>2026-05-03T16:08:07.668Z</time></trkpt><trkpt lat="45.3717548" lon="8.1735383"><ele>185.0</ele><time>2026-05-03T16:08:08.669Z</time></trkpt><trkpt lat="45.3718042" lon="8.1733415"><ele>185.0</ele><time>2026-05-03T16:08:09.67Z</time></trkpt><trkpt lat="45.3718426" lon="8.1731561"><ele>185.0</ele><time>2026-05-03T16:08:10.667Z</time></trkpt><trkpt lat="45.3718803" lon="8.1729799"><ele>185.0</ele><time>2026-05-03T16:08:11.671Z</time></trkpt><trkpt lat="45.3719194" lon="8.1728544"><ele>185.0</ele><time>2026-05-03T16:08:12.664Z</time></trkpt><trkpt lat="45.3719891" lon="8.172724"><ele>185.0</ele><time>2026-05-03T16:08:13.67Z</time></trkpt><trkpt lat="45.3720645" lon="8.1726726"><ele>185.0</ele><time>2026-05-03T16:08:14.661Z</time></trkpt><trkpt lat="45.3720916" lon="8.1725899"><ele>185.0</ele><time>2026-05-03T16:08:21.671Z</time></trkpt><trkpt lat="45.3721464" lon="8.1724989"><ele>185.0</ele><time>2026-05-03T16:08:23.663Z</time></trkpt><trkpt lat="45.3721812" lon="8.172406"><ele>185.0</ele><time>2026-05-03T16:08:24.655Z</time></trkpt><trkpt lat="45.3721967" lon="8.1722726"><ele>185.0</ele><time>2026-05-03T16:08:25.649Z</time></trkpt><trkpt lat="45.3721981" lon="8.1721003"><ele>185.66666666666666</ele><time>2026-05-03T16:08:26.655Z</time></trkpt><trkpt lat="45.3722006" lon="8.1719111"><ele>186.33333333333334</ele><time>2026-05-03T16:08:27.655Z</time></trkpt><trkpt lat="45.3722193" lon="8.171669"><ele>187.0</ele><time>2026-05-03T16:08:28.663Z</time></trkpt><trkpt lat="45.3722548" lon="8.1713763"><ele>187.5</ele><time>2026-05-03T16:08:29.666Z</time></trkpt><trkpt lat="45.3723118" lon="8.1710849"><ele>188.0</ele><time>2026-05-03T16:08:30.661Z</time></trkpt><trkpt lat="45.3723829" lon="8.170747"><ele>188.0</ele><time>2026-05-03T16:08:31.671Z</time></trkpt><trkpt lat="45.3724242" lon="8.1703892"><ele>188.0</ele><time>2026-05-03T16:08:32.67Z</time></trkpt><trkpt lat="45.3724935" lon="8.1700138"><ele>187.0</ele><time>2026-05-03T16:08:33.665Z</time></trkpt><trkpt lat="45.3725453" lon="8.1696575"><ele>186.0</ele><time>2026-05-03T16:08:34.67Z</time></trkpt><trkpt lat="45.3726068" lon="8.1692893"><ele>186.0</ele><time>2026-05-03T16:08:35.669Z</time></trkpt><trkpt lat="45.372696" lon="8.1689634"><ele>186.0</ele><time>2026-05-03T16:08:36.675Z</time></trkpt><trkpt lat="45.3727993" lon="8.1686077"><ele>186.0</ele><time>2026-05-03T16:08:37.675Z</time></trkpt><trkpt lat="45.372877" lon="8.1682378"><ele>186.0</ele><time>2026-05-03T16:08:38.678Z</time></trkpt><trkpt lat="45.3729497" lon="8.167902"><ele>186.0</ele><time>2026-05-03T16:08:39.68Z</time></trkpt><trkpt lat="45.3730194" lon="8.1675396"><ele>186.0</ele><time>2026-05-03T16:08:40.679Z</time></trkpt><trkpt lat="45.3730925" lon="8.1671968"><ele>186.5</ele><time>2026-05-03T16:08:41.679Z</time></trkpt><trkpt lat="45.3731754" lon="8.1668265"><ele>187.0</ele><time>2026-05-03T16:08:42.681Z</time></trkpt><trkpt lat="45.3732393" lon="8.1664384"><ele>187.0</ele><time>2026-05-03T16:08:43.672Z</time></trkpt><trkpt lat="45.3733148" lon="8.166044"><ele>187.0</ele><time>2026-05-03T16:08:44.674Z</time></trkpt><trkpt lat="45.3733879" lon="8.1656841"><ele>187.0</ele><time>2026-05-03T16:08:45.671Z</time></trkpt><trkpt lat="45.3734916" lon="8.1652863"><ele>187.0</ele><time>2026-05-03T16:08:46.677Z</time></trkpt><trkpt lat="45.373597" lon="8.1649053"><ele>188.0</ele><time>2026-05-03T16:08:47.674Z</time></trkpt><trkpt lat="45.3736815" lon="8.1645454"><ele>189.0</ele><time>2026-05-03T16:08:48.671Z</time></trkpt><trkpt lat="45.3737523" lon="8.1641482"><ele>189.5</ele><time>2026-05-03T16:08:49.676Z</time></trkpt><trkpt lat="45.373833" lon="8.1637729"><ele>190.0</ele><time>2026-05-03T16:08:50.673Z</time></trkpt><trkpt lat="45.3739062" lon="8.1634164"><ele>191.0</ele><time>2026-05-03T16:08:51.669Z</time></trkpt><trkpt lat="45.37399" lon="8.1630793"><ele>192.0</ele><time>2026-05-03T16:08:52.674Z</time></trkpt><trkpt lat="45.3740766" lon="8.1627215"><ele>190.5</ele><time>2026-05-03T16:08:53.681Z</time></trkpt><trkpt lat="45.3741645" lon="8.162344"><ele>189.0</ele><time>2026-05-03T16:08:54.682Z</time></trkpt><trkpt lat="45.3742514" lon="8.1619645"><ele>189.0</ele><time>2026-05-03T16:08:55.676Z</time></trkpt><trkpt lat="45.3743365" lon="8.1615857"><ele>189.0</ele><time>2026-05-03T16:08:56.677Z</time></trkpt><trkpt lat="45.3744147" lon="8.1612202"><ele>189.0</ele><time>2026-05-03T16:08:57.676Z</time></trkpt><trkpt lat="45.3744884" lon="8.1608126"><ele>189.0</ele><time>2026-05-03T16:08:58.68Z</time></trkpt><trkpt lat="45.3745605" lon="8.1604349"><ele>188.5</ele><time>2026-05-03T16:08:59.677Z</time></trkpt><trkpt lat="45.3746386" lon="8.16005"><ele>188.0</ele><time>2026-05-03T16:09:00.672Z</time></trkpt><trkpt lat="45.3747186" lon="8.1596779"><ele>188.0</ele><time>2026-05-03T16:09:01.679Z</time></trkpt><trkpt lat="45.3748174" lon="8.1592944"><ele>188.0</ele><time>2026-05-03T16:09:02.679Z</time></trkpt><trkpt lat="45.3749071" lon="8.1589121"><ele>188.0</ele><time>2026-05-03T16:09:03.68Z</time></trkpt><trkpt lat="45.3750071" lon="8.1585215"><ele>188.0</ele><time>2026-05-03T16:09:04.682Z</time></trkpt><trkpt lat="45.3751064" lon="8.158146"><ele>190.0</ele><time>2026-05-03T16:09:05.682Z</time></trkpt><trkpt lat="45.3751891" lon="8.1577806"><ele>192.0</ele><time>2026-05-03T16:09:06.678Z</time></trkpt><trkpt lat="45.375271" lon="8.157377"><ele>192.5</ele><time>2026-05-03T16:09:07.685Z</time></trkpt><trkpt lat="45.3753383" lon="8.1569794"><ele>193.0</ele><time>2026-05-03T16:09:08.679Z</time></trkpt><trkpt lat="45.3754039" lon="8.156568"><ele>193.0</ele><time>2026-05-03T16:09:09.681Z</time></trkpt><trkpt lat="45.3754754" lon="8.1561868"><ele>193.0</ele><time>2026-05-03T16:09:10.679Z</time></trkpt><trkpt lat="45.3755187" lon="8.1558019"><ele>195.0</ele><time>2026-05-03T16:09:11.681Z</time></trkpt><trkpt lat="45.3755885" lon="8.1553938"><ele>197.0</ele><time>2026-05-03T16:09:12.672Z</time></trkpt><trkpt lat="45.3756551" lon="8.1550202"><ele>198.0</ele><time>2026-05-03T16:09:13.669Z</time></trkpt><trkpt lat="45.3757034" lon="8.1546419"><ele>199.0</ele><time>2026-05-03T16:09:14.675Z</time></trkpt><trkpt lat="45.3757654" lon="8.1542939"><ele>198.0</ele><time>2026-05-03T16:09:15.668Z</time></trkpt><trkpt lat="45.375834" lon="8.1539323"><ele>197.0</ele><time>2026-05-03T16:09:16.669Z</time></trkpt><trkpt lat="45.3758895" lon="8.1536369"><ele>197.0</ele><time>2026-05-03T16:09:17.673Z</time></trkpt><trkpt lat="45.3759485" lon="8.153333"><ele>197.0</ele><time>2026-05-03T16:09:18.669Z</time></trkpt><trkpt lat="45.3759891" lon="8.153064"><ele>197.0</ele><time>2026-05-03T16:09:19.661Z</time></trkpt><trkpt lat="45.3760395" lon="8.1528057"><ele>196.66666666666669</ele><time>2026-05-03T16:09:20.662Z</time></trkpt><trkpt lat="45.3760685" lon="8.1525377"><ele>196.33333333333331</ele><time>2026-05-03T16:09:21.673Z</time></trkpt><trkpt lat="45.3760882" lon="8.1522842"><ele>196.0</ele><time>2026-05-03T16:09:22.671Z</time></trkpt><trkpt lat="45.3761129" lon="8.1520796"><ele>195.99999999999997</ele><time>2026-05-03T16:09:23.673Z</time></trkpt><trkpt lat="45.3761436" lon="8.1519206"><ele>196.0</ele><time>2026-05-03T16:09:24.664Z</time></trkpt><trkpt lat="45.3761525" lon="8.1518029"><ele>196.0</ele><time>2026-05-03T16:09:25.664Z</time></trkpt><trkpt lat="45.3761493" lon="8.1517031"><ele>196.0</ele><time>2026-05-03T16:09:27.643Z</time></trkpt><trkpt lat="45.3761925" lon="8.1515862"><ele>195.99999999999997</ele><time>2026-05-03T16:09:29.655Z</time></trkpt><trkpt lat="45.3762245" lon="8.1515083"><ele>196.0</ele><time>2026-05-03T16:09:30.657Z</time></trkpt><trkpt lat="45.3762692" lon="8.1514123"><ele>196.20000000000002</ele><time>2026-05-03T16:09:31.663Z</time></trkpt><trkpt lat="45.3763328" lon="8.1512981"><ele>196.4</ele><time>2026-05-03T16:09:32.659Z</time></trkpt><trkpt lat="45.3763517" lon="8.1511648"><ele>196.6</ele><time>2026-05-03T16:09:33.667Z</time></trkpt><trkpt lat="45.3763872" lon="8.151011"><ele>196.8</ele><time>2026-05-03T16:09:34.669Z</time></trkpt><trkpt lat="45.3764319" lon="8.1508534"><ele>197.0</ele><time>2026-05-03T16:09:35.67Z</time></trkpt><trkpt lat="45.3764953" lon="8.1507018"><ele>197.25</ele><time>2026-05-03T16:09:36.669Z</time></trkpt><trkpt lat="45.3765683" lon="8.1505561"><ele>197.5</ele><time>2026-05-03T16:09:37.672Z</time></trkpt><trkpt lat="45.3766518" lon="8.1503998"><ele>197.75</ele><time>2026-05-03T16:09:38.667Z</time></trkpt><trkpt lat="45.3767579" lon="8.1502298"><ele>198.0</ele><time>2026-05-03T16:09:39.667Z</time></trkpt><trkpt lat="45.3768893" lon="8.1500077"><ele>197.5</ele><time>2026-05-03T16:09:40.671Z</time></trkpt><trkpt lat="45.3770343" lon="8.1497702"><ele>197.0</ele><time>2026-05-03T16:09:41.671Z</time></trkpt><trkpt lat="45.3771888" lon="8.1495261"><ele>197.0</ele><time>2026-05-03T16:09:42.671Z</time></trkpt><trkpt lat="45.3773431" lon="8.1493009"><ele>197.0</ele><time>2026-05-03T16:09:43.668Z</time></trkpt><trkpt lat="45.3774814" lon="8.1490681"><ele>197.0</ele><time>2026-05-03T16:09:44.669Z</time></trkpt><trkpt lat="45.3776388" lon="8.1488215"><ele>197.0</ele><time>2026-05-03T16:09:45.68Z</time></trkpt><trkpt lat="45.3777822" lon="8.1485989"><ele>197.0</ele><time>2026-05-03T16:09:46.675Z</time></trkpt><trkpt lat="45.3779336" lon="8.1483695"><ele>197.0</ele><time>2026-05-03T16:09:47.675Z</time></trkpt><trkpt lat="45.3780872" lon="8.1481188"><ele>197.66666666666669</ele><time>2026-05-03T16:09:48.675Z</time></trkpt><trkpt lat="45.3782145" lon="8.1478951"><ele>198.33333333333331</ele><time>2026-05-03T16:09:49.684Z</time></trkpt><trkpt lat="45.3783304" lon="8.1476789"><ele>199.0</ele><time>2026-05-03T16:09:50.677Z</time></trkpt><trkpt lat="45.3784769" lon="8.1474781"><ele>200.0</ele><time>2026-05-03T16:09:51.679Z</time></trkpt><trkpt lat="45.3786127" lon="8.1472489"><ele>201.0</ele><time>2026-05-03T16:09:52.676Z</time></trkpt><trkpt lat="45.3787163" lon="8.1470483"><ele>202.0</ele><time>2026-05-03T16:09:53.684Z</time></trkpt><trkpt lat="45.3788149" lon="8.1468834"><ele>201.75</ele><time>2026-05-03T16:09:54.669Z</time></trkpt><trkpt lat="45.3789075" lon="8.146744"><ele>201.5</ele><time>2026-05-03T16:09:55.681Z</time></trkpt><trkpt lat="45.3789844" lon="8.146576"><ele>201.25</ele><time>2026-05-03T16:09:56.674Z</time></trkpt><trkpt lat="45.3790785" lon="8.1464557"><ele>201.0</ele><time>2026-05-03T16:09:57.668Z</time></trkpt><trkpt lat="45.3791475" lon="8.1463499"><ele>200.75</ele><time>2026-05-03T16:09:58.665Z</time></trkpt><trkpt lat="45.379205" lon="8.146243"><ele>200.5</ele><time>2026-05-03T16:09:59.667Z</time></trkpt><trkpt lat="45.3793181" lon="8.1461966"><ele>200.25</ele><time>2026-05-03T16:10:00.671Z</time></trkpt><trkpt lat="45.3794711" lon="8.1461307"><ele>200.0</ele><time>2026-05-03T16:10:01.66Z</time></trkpt><trkpt lat="45.3796023" lon="8.1460948"><ele>200.6</ele><time>2026-05-03T16:10:02.648Z</time></trkpt><trkpt lat="45.379737" lon="8.1460802"><ele>201.2</ele><time>2026-05-03T16:10:03.647Z</time></trkpt><trkpt lat="45.379851" lon="8.1460203"><ele>201.8</ele><time>2026-05-03T16:10:04.652Z</time></trkpt><trkpt lat="45.3799175" lon="8.1459242"><ele>202.4</ele><time>2026-05-03T16:10:05.672Z</time></trkpt><trkpt lat="45.3799479" lon="8.145812"><ele>203.0</ele><time>2026-05-03T16:10:06.666Z</time></trkpt><trkpt lat="45.3799835" lon="8.1456595"><ele>203.0</ele><time>2026-05-03T16:10:07.654Z</time></trkpt><trkpt lat="45.3800324" lon="8.1454597"><ele>203.0</ele><time>2026-05-03T16:10:08.659Z</time></trkpt><trkpt lat="45.3800481" lon="8.1451726"><ele>203.0</ele><time>2026-05-03T16:10:09.658Z</time></trkpt><trkpt lat="45.3801153" lon="8.1449289"><ele>203.5</ele><time>2026-05-03T16:10:10.665Z</time></trkpt><trkpt lat="45.3802249" lon="8.1446325"><ele>204.0</ele><time>2026-05-03T16:10:11.669Z</time></trkpt><trkpt lat="45.3803915" lon="8.1442534"><ele>205.0</ele><time>2026-05-03T16:10:12.667Z</time></trkpt><trkpt lat="45.3805579" lon="8.1439789"><ele>206.0</ele><time>2026-05-03T16:10:13.669Z</time></trkpt><trkpt lat="45.3807079" lon="8.1437118"><ele>206.0</ele><time>2026-05-03T16:10:14.67Z</time></trkpt><trkpt lat="45.3808775" lon="8.1434384"><ele>206.0</ele><time>2026-05-03T16:10:15.682Z</time></trkpt><trkpt lat="45.3810602" lon="8.1431617"><ele>206.0</ele><time>2026-05-03T16:10:16.666Z</time></trkpt><trkpt lat="45.3812065" lon="8.142897"><ele>206.0</ele><time>2026-05-03T16:10:17.671Z</time></trkpt><trkpt lat="45.3813662" lon="8.1426345"><ele>206.5</ele><time>2026-05-03T16:10:18.669Z</time></trkpt><trkpt lat="45.3815039" lon="8.1423625"><ele>207.0</ele><time>2026-05-03T16:10:19.67Z</time></trkpt><trkpt lat="45.3816521" lon="8.1420521"><ele>207.0</ele><time>2026-05-03T16:10:20.688Z</time></trkpt><trkpt lat="45.3818078" lon="8.1417936"><ele>207.0</ele><time>2026-05-03T16:10:21.669Z</time></trkpt><trkpt lat="45.3819554" lon="8.1415517"><ele>207.5</ele><time>2026-05-03T16:10:22.676Z</time></trkpt><trkpt lat="45.3821197" lon="8.1412738"><ele>208.0</ele><time>2026-05-03T16:10:23.687Z</time></trkpt><trkpt lat="45.3822918" lon="8.141048"><ele>208.0</ele><time>2026-05-03T16:10:24.677Z</time></trkpt><trkpt lat="45.3824493" lon="8.1408026"><ele>208.0</ele><time>2026-05-03T16:10:25.695Z</time></trkpt><trkpt lat="45.3826027" lon="8.1405144"><ele>208.0</ele><time>2026-05-03T16:10:26.683Z</time></trkpt><trkpt lat="45.3827388" lon="8.14028"><ele>208.0</ele><time>2026-05-03T16:10:27.682Z</time></trkpt><trkpt lat="45.382876" lon="8.1400477"><ele>208.0</ele><time>2026-05-03T16:10:28.664Z</time></trkpt><trkpt lat="45.3830212" lon="8.1398251"><ele>208.0</ele><time>2026-05-03T16:10:29.684Z</time></trkpt><trkpt lat="45.3831625" lon="8.1396095"><ele>208.0</ele><time>2026-05-03T16:10:30.681Z</time></trkpt><trkpt lat="45.3833156" lon="8.1393331"><ele>209.0</ele><time>2026-05-03T16:10:31.67Z</time></trkpt><trkpt lat="45.3834642" lon="8.139039"><ele>210.0</ele><time>2026-05-03T16:10:32.677Z</time></trkpt><trkpt lat="45.3836445" lon="8.13876"><ele>210.0</ele><time>2026-05-03T16:10:33.668Z</time></trkpt><trkpt lat="45.3838266" lon="8.1385002"><ele>210.0</ele><time>2026-05-03T16:10:34.67Z</time></trkpt><trkpt lat="45.3839807" lon="8.1382426"><ele>210.0</ele><time>2026-05-03T16:10:35.674Z</time></trkpt><trkpt lat="45.3841342" lon="8.1379894"><ele>210.0</ele><time>2026-05-03T16:10:36.686Z</time></trkpt><trkpt lat="45.3842779" lon="8.1377546"><ele>210.0</ele><time>2026-05-03T16:10:37.672Z</time></trkpt><trkpt lat="45.3844283" lon="8.1374944"><ele>210.0</ele><time>2026-05-03T16:10:38.675Z</time></trkpt><trkpt lat="45.3845722" lon="8.1372477"><ele>210.33333333333331</ele><time>2026-05-03T16:10:39.671Z</time></trkpt><trkpt lat="45.3847206" lon="8.137005"><ele>210.66666666666666</ele><time>2026-05-03T16:10:40.676Z</time></trkpt><trkpt lat="45.384848" lon="8.136789"><ele>211.0</ele><time>2026-05-03T16:10:41.679Z</time></trkpt><trkpt lat="45.3849686" lon="8.1365872"><ele>211.0</ele><time>2026-05-03T16:10:42.669Z</time></trkpt><trkpt lat="45.3850816" lon="8.1363894"><ele>211.0</ele><time>2026-05-03T16:10:43.671Z</time></trkpt><trkpt lat="45.3852294" lon="8.1361959"><ele>211.0</ele><time>2026-05-03T16:10:44.673Z</time></trkpt><trkpt lat="45.3853336" lon="8.135998"><ele>211.0</ele><time>2026-05-03T16:10:45.67Z</time></trkpt><trkpt lat="45.3854346" lon="8.1358016"><ele>211.0</ele><time>2026-05-03T16:10:46.682Z</time></trkpt><trkpt lat="45.3855293" lon="8.1356803"><ele>211.0</ele><time>2026-05-03T16:10:47.665Z</time></trkpt><trkpt lat="45.3856098" lon="8.1355677"><ele>211.0</ele><time>2026-05-03T16:10:48.66Z</time></trkpt><trkpt lat="45.3856883" lon="8.1354415"><ele>211.20000000000002</ele><time>2026-05-03T16:10:49.666Z</time></trkpt><trkpt lat="45.3857446" lon="8.135363"><ele>211.4</ele><time>2026-05-03T16:10:50.664Z</time></trkpt><trkpt lat="45.3858512" lon="8.1352589"><ele>211.6</ele><time>2026-05-03T16:10:52.669Z</time></trkpt><trkpt lat="45.3859356" lon="8.1352235"><ele>211.8</ele><time>2026-05-03T16:10:53.668Z</time></trkpt><trkpt lat="45.3860201" lon="8.135189"><ele>212.0</ele><time>2026-05-03T16:10:54.672Z</time></trkpt><trkpt lat="45.3860858" lon="8.135156"><ele>212.00000000000003</ele><time>2026-05-03T16:10:55.671Z</time></trkpt><trkpt lat="45.3861475" lon="8.1351004"><ele>212.0</ele><time>2026-05-03T16:10:56.681Z</time></trkpt><trkpt lat="45.386193" lon="8.135002"><ele>212.0</ele><time>2026-05-03T16:10:57.667Z</time></trkpt><trkpt lat="45.3862204" lon="8.1348988"><ele>212.0</ele><time>2026-05-03T16:10:58.662Z</time></trkpt><trkpt lat="45.386227" lon="8.1347957"><ele>212.00000000000003</ele><time>2026-05-03T16:10:59.673Z</time></trkpt><trkpt lat="45.3862508" lon="8.1346699"><ele>212.0</ele><time>2026-05-03T16:11:00.663Z</time></trkpt><trkpt lat="45.3862795" lon="8.1345369"><ele>212.0</ele><time>2026-05-03T16:11:01.687Z</time></trkpt><trkpt lat="45.3863381" lon="8.1343856"><ele>212.0</ele><time>2026-05-03T16:11:02.67Z</time></trkpt><trkpt lat="45.386439" lon="8.134202"><ele>212.0</ele><time>2026-05-03T16:11:03.666Z</time></trkpt><trkpt lat="45.3865524" lon="8.1339996"><ele>213.5</ele><time>2026-05-03T16:11:04.667Z</time></trkpt><trkpt lat="45.3866986" lon="8.1337299"><ele>215.0</ele><time>2026-05-03T16:11:05.665Z</time></trkpt><trkpt lat="45.3868467" lon="8.133492"><ele>215.0</ele><time>2026-05-03T16:11:06.68Z</time></trkpt><trkpt lat="45.3869779" lon="8.1332513"><ele>215.0</ele><time>2026-05-03T16:11:07.675Z</time></trkpt><trkpt lat="45.387108" lon="8.1330453"><ele>215.0</ele><time>2026-05-03T16:11:08.668Z</time></trkpt><trkpt lat="45.3872464" lon="8.1327998"><ele>215.5</ele><time>2026-05-03T16:11:09.668Z</time></trkpt><trkpt lat="45.3873999" lon="8.1325593"><ele>216.0</ele><time>2026-05-03T16:11:10.668Z</time></trkpt><trkpt lat="45.3875463" lon="8.1322587"><ele>217.0</ele><time>2026-05-03T16:11:11.675Z</time></trkpt><trkpt lat="45.3877153" lon="8.1319722"><ele>218.0</ele><time>2026-05-03T16:11:12.686Z</time></trkpt><trkpt lat="45.3878878" lon="8.1316983"><ele>219.0</ele><time>2026-05-03T16:11:13.665Z</time></trkpt><trkpt lat="45.3880559" lon="8.1314457"><ele>220.0</ele><time>2026-05-03T16:11:14.671Z</time></trkpt><trkpt lat="45.3882285" lon="8.1311816"><ele>220.0</ele><time>2026-05-03T16:11:15.67Z</time></trkpt><trkpt lat="45.3883665" lon="8.1309558"><ele>220.0</ele><time>2026-05-03T16:11:16.67Z</time></trkpt><trkpt lat="45.388528" lon="8.1307077"><ele>220.0</ele><time>2026-05-03T16:11:17.687Z</time></trkpt><trkpt lat="45.3886885" lon="8.1304864"><ele>220.0</ele><time>2026-05-03T16:11:18.665Z</time></trkpt><trkpt lat="45.3888091" lon="8.1302687"><ele>220.0</ele><time>2026-05-03T16:11:19.672Z</time></trkpt><trkpt lat="45.3889517" lon="8.1300478"><ele>220.0</ele><time>2026-05-03T16:11:20.666Z</time></trkpt><trkpt lat="45.3890955" lon="8.1298166"><ele>220.33333333333331</ele><time>2026-05-03T16:11:21.663Z</time></trkpt><trkpt lat="45.3892238" lon="8.129581"><ele>220.66666666666669</ele><time>2026-05-03T16:11:22.688Z</time></trkpt><trkpt lat="45.3893579" lon="8.1293577"><ele>221.0</ele><time>2026-05-03T16:11:23.669Z</time></trkpt><trkpt lat="45.3895113" lon="8.1291018"><ele>221.5</ele><time>2026-05-03T16:11:24.669Z</time></trkpt><trkpt lat="45.3896713" lon="8.1288564"><ele>222.0</ele><time>2026-05-03T16:11:25.675Z</time></trkpt><trkpt lat="45.3898521" lon="8.1285971"><ele>222.0</ele><time>2026-05-03T16:11:26.674Z</time></trkpt><trkpt lat="45.3900248" lon="8.1283226"><ele>222.0</ele><time>2026-05-03T16:11:27.686Z</time></trkpt><trkpt lat="45.3901629" lon="8.1280747"><ele>223.0</ele><time>2026-05-03T16:11:28.68Z</time></trkpt><trkpt lat="45.3903033" lon="8.1278161"><ele>224.0</ele><time>2026-05-03T16:11:29.686Z</time></trkpt><trkpt lat="45.3904668" lon="8.1275619"><ele>224.0</ele><time>2026-05-03T16:11:30.687Z</time></trkpt><trkpt lat="45.3906057" lon="8.1272942"><ele>224.0</ele><time>2026-05-03T16:11:31.68Z</time></trkpt><trkpt lat="45.390768" lon="8.1270367"><ele>224.0</ele><time>2026-05-03T16:11:32.685Z</time></trkpt><trkpt lat="45.3909195" lon="8.1267807"><ele>224.0</ele><time>2026-05-03T16:11:33.678Z</time></trkpt><trkpt lat="45.3910594" lon="8.1264932"><ele>224.33333333333334</ele><time>2026-05-03T16:11:34.67Z</time></trkpt><trkpt lat="45.3912033" lon="8.126268"><ele>224.66666666666669</ele><time>2026-05-03T16:11:35.665Z</time></trkpt><trkpt lat="45.3913513" lon="8.1260362"><ele>225.0</ele><time>2026-05-03T16:11:36.665Z</time></trkpt><trkpt lat="45.3914921" lon="8.125808"><ele>225.0</ele><time>2026-05-03T16:11:37.671Z</time></trkpt><trkpt lat="45.3916282" lon="8.1255679"><ele>225.0</ele><time>2026-05-03T16:11:38.677Z</time></trkpt><trkpt lat="45.3917505" lon="8.1253839"><ele>225.0</ele><time>2026-05-03T16:11:39.668Z</time></trkpt><trkpt lat="45.3918728" lon="8.1251929"><ele>225.0</ele><time>2026-05-03T16:11:40.665Z</time></trkpt><trkpt lat="45.3919787" lon="8.1249989"><ele>225.0</ele><time>2026-05-03T16:11:41.666Z</time></trkpt><trkpt lat="45.392078" lon="8.1248358"><ele>225.0</ele><time>2026-05-03T16:11:42.667Z</time></trkpt><trkpt lat="45.3921472" lon="8.1246561"><ele>225.2</ele><time>2026-05-03T16:11:43.677Z</time></trkpt><trkpt lat="45.3922164" lon="8.1245391"><ele>225.4</ele><time>2026-05-03T16:11:44.667Z</time></trkpt><trkpt lat="45.3922789" lon="8.1244332"><ele>225.60000000000002</ele><time>2026-05-03T16:11:45.677Z</time></trkpt><trkpt lat="45.3923522" lon="8.1243029"><ele>225.8</ele><time>2026-05-03T16:11:46.675Z</time></trkpt><trkpt lat="45.392389" lon="8.1241799"><ele>226.0</ele><time>2026-05-03T16:11:47.67Z</time></trkpt><trkpt lat="45.3924228" lon="8.1240931"><ele>226.4</ele><time>2026-05-03T16:11:48.684Z</time></trkpt><trkpt lat="45.3924938" lon="8.1239697"><ele>226.8</ele><time>2026-05-03T16:11:49.675Z</time></trkpt><trkpt lat="45.3925722" lon="8.123868"><ele>227.20000000000002</ele><time>2026-05-03T16:11:50.666Z</time></trkpt><trkpt lat="45.3926568" lon="8.1237895"><ele>227.60000000000002</ele><time>2026-05-03T16:11:51.674Z</time></trkpt><trkpt lat="45.3927438" lon="8.1237008"><ele>228.0</ele><time>2026-05-03T16:11:52.667Z</time></trkpt><trkpt lat="45.392819" lon="8.1235797"><ele>228.0</ele><time>2026-05-03T16:11:53.68Z</time></trkpt><trkpt lat="45.3929081" lon="8.1234507"><ele>228.0</ele><time>2026-05-03T16:11:54.666Z</time></trkpt><trkpt lat="45.3929993" lon="8.1233099"><ele>228.0</ele><time>2026-05-03T16:11:55.671Z</time></trkpt><trkpt lat="45.3930803" lon="8.1231801"><ele>228.0</ele><time>2026-05-03T16:11:56.667Z</time></trkpt><trkpt lat="45.393166" lon="8.1230554"><ele>228.0</ele><time>2026-05-03T16:11:57.664Z</time></trkpt><trkpt lat="45.3932558" lon="8.122922"><ele>228.0</ele><time>2026-05-03T16:11:58.68Z</time></trkpt><trkpt lat="45.3933434" lon="8.1227749"><ele>228.0</ele><time>2026-05-03T16:11:59.678Z</time></trkpt><trkpt lat="45.3934368" lon="8.122598"><ele>228.0</ele><time>2026-05-03T16:12:00.668Z</time></trkpt><trkpt lat="45.3935639" lon="8.1223663"><ele>229.5</ele><time>2026-05-03T16:12:01.679Z</time></trkpt><trkpt lat="45.3936969" lon="8.1221066"><ele>231.0</ele><time>2026-05-03T16:12:02.669Z</time></trkpt><trkpt lat="45.3938622" lon="8.1218454"><ele>231.0</ele><time>2026-05-03T16:12:03.674Z</time></trkpt><trkpt lat="45.3940263" lon="8.1215911"><ele>231.0</ele><time>2026-05-03T16:12:04.686Z</time></trkpt><trkpt lat="45.3941842" lon="8.1213084"><ele>231.0</ele><time>2026-05-03T16:12:05.673Z</time></trkpt><trkpt lat="45.3943496" lon="8.1210393"><ele>231.0</ele><time>2026-05-03T16:12:06.669Z</time></trkpt><trkpt lat="45.3945206" lon="8.1207514"><ele>230.5</ele><time>2026-05-03T16:12:07.674Z</time></trkpt><trkpt lat="45.3946871" lon="8.120474"><ele>230.0</ele><time>2026-05-03T16:12:08.674Z</time></trkpt><trkpt lat="45.3948554" lon="8.1201999"><ele>230.0</ele><time>2026-05-03T16:12:09.685Z</time></trkpt><trkpt lat="45.3950256" lon="8.1199467"><ele>230.0</ele><time>2026-05-03T16:12:10.672Z</time></trkpt><trkpt lat="45.3951968" lon="8.1196888"><ele>230.5</ele><time>2026-05-03T16:12:11.665Z</time></trkpt><trkpt lat="45.3953662" lon="8.1194165"><ele>231.0</ele><time>2026-05-03T16:12:12.667Z</time></trkpt><trkpt lat="45.3955107" lon="8.1191485"><ele>231.0</ele><time>2026-05-03T16:12:13.676Z</time></trkpt><trkpt lat="45.3956659" lon="8.1188634"><ele>231.0</ele><time>2026-05-03T16:12:14.683Z</time></trkpt><trkpt lat="45.3958144" lon="8.1185877"><ele>231.0</ele><time>2026-05-03T16:12:15.676Z</time></trkpt><trkpt lat="45.3959812" lon="8.1183162"><ele>231.0</ele><time>2026-05-03T16:12:16.678Z</time></trkpt><trkpt lat="45.3961535" lon="8.1180576"><ele>232.5</ele><time>2026-05-03T16:12:17.682Z</time></trkpt><trkpt lat="45.3963395" lon="8.1177714"><ele>234.0</ele><time>2026-05-03T16:12:18.681Z</time></trkpt><trkpt lat="45.396518" lon="8.1174682"><ele>234.0</ele><time>2026-05-03T16:12:19.696Z</time></trkpt><trkpt lat="45.3966893" lon="8.1171862"><ele>234.0</ele><time>2026-05-03T16:12:20.68Z</time></trkpt><trkpt lat="45.3968661" lon="8.1169008"><ele>234.0</ele><time>2026-05-03T16:12:21.679Z</time></trkpt><trkpt lat="45.3970394" lon="8.1166385"><ele>234.0</ele><time>2026-05-03T16:12:22.678Z</time></trkpt><trkpt lat="45.3972183" lon="8.1163489"><ele>235.0</ele><time>2026-05-03T16:12:23.678Z</time></trkpt><trkpt lat="45.3973925" lon="8.1160764"><ele>236.0</ele><time>2026-05-03T16:12:24.688Z</time></trkpt><trkpt lat="45.3975563" lon="8.1158146"><ele>236.5</ele><time>2026-05-03T16:12:25.676Z</time></trkpt><trkpt lat="45.3977163" lon="8.1155399"><ele>237.0</ele><time>2026-05-03T16:12:26.683Z</time></trkpt><trkpt lat="45.3978903" lon="8.115271"><ele>238.5</ele><time>2026-05-03T16:12:27.673Z</time></trkpt><trkpt lat="45.3980566" lon="8.1149874"><ele>240.0</ele><time>2026-05-03T16:12:28.674Z</time></trkpt><trkpt lat="45.3982264" lon="8.1147188"><ele>240.0</ele><time>2026-05-03T16:12:29.691Z</time></trkpt><trkpt lat="45.3983782" lon="8.1144652"><ele>240.0</ele><time>2026-05-03T16:12:30.676Z</time></trkpt><trkpt lat="45.3985411" lon="8.1141834"><ele>240.0</ele><time>2026-05-03T16:12:31.676Z</time></trkpt><trkpt lat="45.3986952" lon="8.1139151"><ele>240.0</ele><time>2026-05-03T16:12:32.667Z</time></trkpt><trkpt lat="45.3988626" lon="8.1136544"><ele>240.0</ele><time>2026-05-03T16:12:33.667Z</time></trkpt><trkpt lat="45.3990541" lon="8.1133767"><ele>240.0</ele><time>2026-05-03T16:12:34.684Z</time></trkpt><trkpt lat="45.3992214" lon="8.113129"><ele>240.0</ele><time>2026-05-03T16:12:35.673Z</time></trkpt><trkpt lat="45.3994024" lon="8.1128815"><ele>240.0</ele><time>2026-05-03T16:12:36.681Z</time></trkpt><trkpt lat="45.3995791" lon="8.1126511"><ele>240.5</ele><time>2026-05-03T16:12:37.675Z</time></trkpt><trkpt lat="45.3997514" lon="8.1124256"><ele>241.0</ele><time>2026-05-03T16:12:38.676Z</time></trkpt><trkpt lat="45.3999252" lon="8.1121929"><ele>241.5</ele><time>2026-05-03T16:12:39.69Z</time></trkpt><trkpt lat="45.4000932" lon="8.1119489"><ele>242.0</ele><time>2026-05-03T16:12:40.68Z</time></trkpt><trkpt lat="45.4002771" lon="8.1116962"><ele>242.5</ele><time>2026-05-03T16:12:41.675Z</time></trkpt><trkpt lat="45.4004693" lon="8.1114403"><ele>243.0</ele><time>2026-05-03T16:12:42.683Z</time></trkpt><trkpt lat="45.4006662" lon="8.111173"><ele>243.0</ele><time>2026-05-03T16:12:43.679Z</time></trkpt><trkpt lat="45.4008379" lon="8.1109064"><ele>243.0</ele><time>2026-05-03T16:12:44.688Z</time></trkpt><trkpt lat="45.4010116" lon="8.1106482"><ele>243.0</ele><time>2026-05-03T16:12:45.679Z</time></trkpt><trkpt lat="45.4011814" lon="8.1104025"><ele>243.0</ele><time>2026-05-03T16:12:46.672Z</time></trkpt><trkpt lat="45.4013562" lon="8.1101723"><ele>244.0</ele><time>2026-05-03T16:12:47.678Z</time></trkpt><trkpt lat="45.4015352" lon="8.1099541"><ele>245.0</ele><time>2026-05-03T16:12:48.678Z</time></trkpt><trkpt lat="45.4017168" lon="8.1097168"><ele>245.5</ele><time>2026-05-03T16:12:49.686Z</time></trkpt><trkpt lat="45.4018898" lon="8.1094966"><ele>246.0</ele><time>2026-05-03T16:12:50.674Z</time></trkpt><trkpt lat="45.4020473" lon="8.1092445"><ele>247.66666666666669</ele><time>2026-05-03T16:12:51.683Z</time></trkpt><trkpt lat="45.4021737" lon="8.1090004"><ele>249.33333333333334</ele><time>2026-05-03T16:12:52.675Z</time></trkpt><trkpt lat="45.4022862" lon="8.1087293"><ele>251.0</ele><time>2026-05-03T16:12:53.673Z</time></trkpt><trkpt lat="45.4023964" lon="8.108443"><ele>250.66666666666669</ele><time>2026-05-03T16:12:54.679Z</time></trkpt><trkpt lat="45.402484" lon="8.1081747"><ele>250.33333333333331</ele><time>2026-05-03T16:12:55.677Z</time></trkpt><trkpt lat="45.4025591" lon="8.107911"><ele>250.0</ele><time>2026-05-03T16:12:56.68Z</time></trkpt><trkpt lat="45.4026241" lon="8.1076894"><ele>250.0</ele><time>2026-05-03T16:12:57.668Z</time></trkpt><trkpt lat="45.402694" lon="8.1074619"><ele>250.0</ele><time>2026-05-03T16:12:58.665Z</time></trkpt><trkpt lat="45.4027699" lon="8.107264"><ele>250.0</ele><time>2026-05-03T16:12:59.686Z</time></trkpt><trkpt lat="45.4028616" lon="8.1070396"><ele>250.0</ele><time>2026-05-03T16:13:00.672Z</time></trkpt><trkpt lat="45.4029379" lon="8.1068304"><ele>250.0</ele><time>2026-05-03T16:13:01.682Z</time></trkpt><trkpt lat="45.4030107" lon="8.1066043"><ele>250.0</ele><time>2026-05-03T16:13:02.671Z</time></trkpt><trkpt lat="45.4030948" lon="8.1063763"><ele>250.33333333333331</ele><time>2026-05-03T16:13:03.678Z</time></trkpt><trkpt lat="45.4031964" lon="8.1061031"><ele>250.66666666666669</ele><time>2026-05-03T16:13:04.688Z</time></trkpt><trkpt lat="45.4032755" lon="8.1058674"><ele>251.0</ele><time>2026-05-03T16:13:05.676Z</time></trkpt><trkpt lat="45.4033448" lon="8.1056442"><ele>251.0</ele><time>2026-05-03T16:13:06.672Z</time></trkpt><trkpt lat="45.4034372" lon="8.1054054"><ele>251.0</ele><time>2026-05-03T16:13:07.671Z</time></trkpt><trkpt lat="45.4035221" lon="8.1050708"><ele>251.0</ele><time>2026-05-03T16:13:08.665Z</time></trkpt><trkpt lat="45.4036161" lon="8.10474"><ele>251.0</ele><time>2026-05-03T16:13:09.681Z</time></trkpt><trkpt lat="45.4037186" lon="8.1044188"><ele>251.0</ele><time>2026-05-03T16:13:10.667Z</time></trkpt><trkpt lat="45.4038206" lon="8.1040916"><ele>251.5</ele><time>2026-05-03T16:13:11.677Z</time></trkpt><trkpt lat="45.4039572" lon="8.1037494"><ele>252.0</ele><time>2026-05-03T16:13:12.668Z</time></trkpt><trkpt lat="45.4040956" lon="8.1034142"><ele>253.0</ele><time>2026-05-03T16:13:13.675Z</time></trkpt><trkpt lat="45.4041973" lon="8.1030825"><ele>254.0</ele><time>2026-05-03T16:13:14.68Z</time></trkpt><trkpt lat="45.4043013" lon="8.1027407"><ele>255.5</ele><time>2026-05-03T16:13:15.669Z</time></trkpt><trkpt lat="45.4044115" lon="8.1024145"><ele>257.0</ele><time>2026-05-03T16:13:16.672Z</time></trkpt><trkpt lat="45.4045278" lon="8.1021054"><ele>257.0</ele><time>2026-05-03T16:13:17.672Z</time></trkpt><trkpt lat="45.404649" lon="8.1017945"><ele>257.0</ele><time>2026-05-03T16:13:18.669Z</time></trkpt><trkpt lat="45.4047483" lon="8.1014822"><ele>256.5</ele><time>2026-05-03T16:13:19.686Z</time></trkpt><trkpt lat="45.4048396" lon="8.1012007"><ele>256.0</ele><time>2026-05-03T16:13:20.666Z</time></trkpt><trkpt lat="45.4049346" lon="8.1008851"><ele>256.5</ele><time>2026-05-03T16:13:21.674Z</time></trkpt><trkpt lat="45.4050255" lon="8.1005906"><ele>257.0</ele><time>2026-05-03T16:13:22.674Z</time></trkpt><trkpt lat="45.4051348" lon="8.1002808"><ele>257.0</ele><time>2026-05-03T16:13:23.674Z</time></trkpt><trkpt lat="45.4052358" lon="8.0999744"><ele>257.0</ele><time>2026-05-03T16:13:24.684Z</time></trkpt><trkpt lat="45.4053292" lon="8.0996522"><ele>257.5</ele><time>2026-05-03T16:13:25.672Z</time></trkpt><trkpt lat="45.4054345" lon="8.0993461"><ele>258.0</ele><time>2026-05-03T16:13:26.669Z</time></trkpt><trkpt lat="45.4055455" lon="8.0990629"><ele>258.6666666666667</ele><time>2026-05-03T16:13:27.665Z</time></trkpt><trkpt lat="45.4056461" lon="8.0987999"><ele>259.33333333333337</ele><time>2026-05-03T16:13:28.671Z</time></trkpt><trkpt lat="45.405737" lon="8.0985634"><ele>260.0</ele><time>2026-05-03T16:13:29.675Z</time></trkpt><trkpt lat="45.4058385" lon="8.0983306"><ele>261.33333333333337</ele><time>2026-05-03T16:13:30.67Z</time></trkpt><trkpt lat="45.4058825" lon="8.0981183"><ele>262.6666666666667</ele><time>2026-05-03T16:13:31.686Z</time></trkpt><trkpt lat="45.4059301" lon="8.0978827"><ele>264.0</ele><time>2026-05-03T16:13:32.677Z</time></trkpt><trkpt lat="45.4059815" lon="8.097683"><ele>264.0</ele><time>2026-05-03T16:13:33.682Z</time></trkpt><trkpt lat="45.4060253" lon="8.097466"><ele>264.0</ele><time>2026-05-03T16:13:34.685Z</time></trkpt><trkpt lat="45.4060704" lon="8.0972603"><ele>264.0</ele><time>2026-05-03T16:13:35.671Z</time></trkpt><trkpt lat="45.406062" lon="8.0969736"><ele>265.0</ele><time>2026-05-03T16:13:36.678Z</time></trkpt><trkpt lat="45.4060657" lon="8.0967214"><ele>266.0</ele><time>2026-05-03T16:13:37.665Z</time></trkpt><trkpt lat="45.40605" lon="8.0964372"><ele>267.0</ele><time>2026-05-03T16:13:38.676Z</time></trkpt><trkpt lat="45.4060447" lon="8.0961838"><ele>267.3333333333333</ele><time>2026-05-03T16:13:39.671Z</time></trkpt><trkpt lat="45.4060339" lon="8.095923"><ele>267.66666666666663</ele><time>2026-05-03T16:13:40.663Z</time></trkpt><trkpt lat="45.4060073" lon="8.0956698"><ele>268.0</ele><time>2026-05-03T16:13:41.67Z</time></trkpt><trkpt lat="45.4060016" lon="8.0954539"><ele>268.2</ele><time>2026-05-03T16:13:42.657Z</time></trkpt><trkpt lat="45.4060197" lon="8.0952995"><ele>268.4</ele><time>2026-05-03T16:13:43.663Z</time></trkpt><trkpt lat="45.4060585" lon="8.0951214"><ele>268.59999999999997</ele><time>2026-05-03T16:13:44.675Z</time></trkpt><trkpt lat="45.4060616" lon="8.0949748"><ele>268.8</ele><time>2026-05-03T16:13:45.658Z</time></trkpt><trkpt lat="45.4060645" lon="8.0948652"><ele>269.0</ele><time>2026-05-03T16:13:46.646Z</time></trkpt><trkpt lat="45.4060514" lon="8.0947667"><ele>269.59999999999997</ele><time>2026-05-03T16:13:47.645Z</time></trkpt><trkpt lat="45.4060731" lon="8.0946631"><ele>270.2</ele><time>2026-05-03T16:13:48.656Z</time></trkpt><trkpt lat="45.4061075" lon="8.0945721"><ele>270.79999999999995</ele><time>2026-05-03T16:13:49.673Z</time></trkpt><trkpt lat="45.4061355" lon="8.0944304"><ele>271.4</ele><time>2026-05-03T16:13:50.654Z</time></trkpt><trkpt lat="45.4060869" lon="8.0942997"><ele>272.0</ele><time>2026-05-03T16:13:51.659Z</time></trkpt><trkpt lat="45.4060091" lon="8.094197"><ele>272.0</ele><time>2026-05-03T16:13:52.644Z</time></trkpt><trkpt lat="45.4059577" lon="8.0941348"><ele>272.0</ele><time>2026-05-03T16:13:53.644Z</time></trkpt><trkpt lat="45.4058893" lon="8.0940966"><ele>272.0</ele><time>2026-05-03T16:13:54.658Z</time></trkpt><trkpt lat="45.4058349" lon="8.0940472"><ele>272.0</ele><time>2026-05-03T16:13:55.648Z</time></trkpt><trkpt lat="45.4057504" lon="8.0940073"><ele>272.0</ele><time>2026-05-03T16:13:56.646Z</time></trkpt><trkpt lat="45.4056397" lon="8.0939773"><ele>272.0</ele><time>2026-05-03T16:13:57.638Z</time></trkpt><trkpt lat="45.4055236" lon="8.0939268"><ele>272.0</ele><time>2026-05-03T16:13:58.639Z</time></trkpt><trkpt lat="45.4054051" lon="8.0938893"><ele>272.0</ele><time>2026-05-03T16:13:59.651Z</time></trkpt><trkpt lat="45.4052905" lon="8.0938513"><ele>272.0</ele><time>2026-05-03T16:14:00.643Z</time></trkpt><trkpt lat="45.4051715" lon="8.0938417"><ele>272.0</ele><time>2026-05-03T16:14:01.646Z</time></trkpt><trkpt lat="45.4050567" lon="8.0938214"><ele>272.0</ele><time>2026-05-03T16:14:02.661Z</time></trkpt><trkpt lat="45.4049303" lon="8.0938043"><ele>272.0</ele><time>2026-05-03T16:14:03.651Z</time></trkpt><trkpt lat="45.4048158" lon="8.0937912"><ele>272.0</ele><time>2026-05-03T16:14:04.668Z</time></trkpt><trkpt lat="45.4046819" lon="8.0937597"><ele>272.0</ele><time>2026-05-03T16:14:05.656Z</time></trkpt><trkpt lat="45.40456" lon="8.0937116"><ele>272.0</ele><time>2026-05-03T16:14:06.659Z</time></trkpt><trkpt lat="45.4044318" lon="8.0936901"><ele>272.0</ele><time>2026-05-03T16:14:07.652Z</time></trkpt><trkpt lat="45.4043047" lon="8.0936584"><ele>272.0</ele><time>2026-05-03T16:14:08.653Z</time></trkpt><trkpt lat="45.4041847" lon="8.0936339"><ele>272.0</ele><time>2026-05-03T16:14:09.663Z</time></trkpt><trkpt lat="45.4040707" lon="8.0935826"><ele>272.0</ele><time>2026-05-03T16:14:10.649Z</time></trkpt><trkpt lat="45.4039417" lon="8.0935272"><ele>272.0</ele><time>2026-05-03T16:14:11.634Z</time></trkpt><trkpt lat="45.4038058" lon="8.093456"><ele>272.0</ele><time>2026-05-03T16:14:12.65Z</time></trkpt><trkpt lat="45.4036717" lon="8.0933825"><ele>272.0</ele><time>2026-05-03T16:14:13.646Z</time></trkpt><trkpt lat="45.4035465" lon="8.0933035"><ele>271.5</ele><time>2026-05-03T16:14:14.656Z</time></trkpt><trkpt lat="45.4034217" lon="8.093241"><ele>271.0</ele><time>2026-05-03T16:14:15.654Z</time></trkpt><trkpt lat="45.4032965" lon="8.0931717"><ele>270.5</ele><time>2026-05-03T16:14:16.644Z</time></trkpt><trkpt lat="45.4031923" lon="8.0930837"><ele>270.0</ele><time>2026-05-03T16:14:17.642Z</time></trkpt><trkpt lat="45.4030784" lon="8.0929847"><ele>269.3333333333333</ele><time>2026-05-03T16:14:18.637Z</time></trkpt><trkpt lat="45.4029159" lon="8.0928355"><ele>268.66666666666663</ele><time>2026-05-03T16:14:19.661Z</time></trkpt><trkpt lat="45.4027822" lon="8.0927782"><ele>268.0</ele><time>2026-05-03T16:14:20.647Z</time></trkpt><trkpt lat="45.402655" lon="8.0927238"><ele>268.0</ele><time>2026-05-03T16:14:21.652Z</time></trkpt><trkpt lat="45.4025463" lon="8.0926873"><ele>268.0</ele><time>2026-05-03T16:14:22.655Z</time></trkpt><trkpt lat="45.4024545" lon="8.0926517"><ele>268.0</ele><time>2026-05-03T16:14:23.653Z</time></trkpt><trkpt lat="45.4023751" lon="8.0926312"><ele>268.0</ele><time>2026-05-03T16:14:24.663Z</time></trkpt><trkpt lat="45.4022732" lon="8.0925908"><ele>268.0</ele><time>2026-05-03T16:14:25.653Z</time></trkpt><trkpt lat="45.4022026" lon="8.0925546"><ele>268.0</ele><time>2026-05-03T16:14:26.651Z</time></trkpt><trkpt lat="45.4021472" lon="8.0925043"><ele>268.0</ele><time>2026-05-03T16:14:27.645Z</time></trkpt><trkpt lat="45.4021123" lon="8.0924145"><ele>268.0</ele><time>2026-05-03T16:14:28.652Z</time></trkpt><trkpt lat="45.4020799" lon="8.092303"><ele>268.0</ele><time>2026-05-03T16:14:29.679Z</time></trkpt><trkpt lat="45.4021285" lon="8.0921221"><ele>268.0</ele><time>2026-05-03T16:14:30.66Z</time></trkpt><trkpt lat="45.402207" lon="8.0918923"><ele>267.66666666666663</ele><time>2026-05-03T16:14:31.663Z</time></trkpt><trkpt lat="45.4023033" lon="8.0916403"><ele>267.3333333333333</ele><time>2026-05-03T16:14:32.665Z</time></trkpt><trkpt lat="45.4023932" lon="8.0913851"><ele>267.0</ele><time>2026-05-03T16:14:33.657Z</time></trkpt><trkpt lat="45.4024749" lon="8.091124"><ele>267.0</ele><time>2026-05-03T16:14:34.684Z</time></trkpt><trkpt lat="45.4025435" lon="8.090781"><ele>267.0</ele><time>2026-05-03T16:14:35.673Z</time></trkpt><trkpt lat="45.4025863" lon="8.0905012"><ele>267.3333333333333</ele><time>2026-05-03T16:14:36.673Z</time></trkpt><trkpt lat="45.4026408" lon="8.0902463"><ele>267.66666666666663</ele><time>2026-05-03T16:14:37.668Z</time></trkpt><trkpt lat="45.4027058" lon="8.0900594"><ele>268.0</ele><time>2026-05-03T16:14:38.677Z</time></trkpt><trkpt lat="45.4028129" lon="8.0898773"><ele>268.3333333333333</ele><time>2026-05-03T16:14:39.677Z</time></trkpt><trkpt lat="45.4029443" lon="8.0897415"><ele>268.6666666666667</ele><time>2026-05-03T16:14:40.657Z</time></trkpt><trkpt lat="45.4030695" lon="8.0896018"><ele>269.0</ele><time>2026-05-03T16:14:41.665Z</time></trkpt><trkpt lat="45.4032697" lon="8.0895421"><ele>269.0</ele><time>2026-05-03T16:14:42.662Z</time></trkpt><trkpt lat="45.4034389" lon="8.0894164"><ele>269.0</ele><time>2026-05-03T16:14:43.655Z</time></trkpt><trkpt lat="45.403667" lon="8.0893603"><ele>269.0</ele><time>2026-05-03T16:14:44.676Z</time></trkpt><trkpt lat="45.4038989" lon="8.0892639"><ele>269.6666666666667</ele><time>2026-05-03T16:14:45.667Z</time></trkpt><trkpt lat="45.40413" lon="8.08923"><ele>270.3333333333333</ele><time>2026-05-03T16:14:46.663Z</time></trkpt><trkpt lat="45.4043233" lon="8.0892144"><ele>271.0</ele><time>2026-05-03T16:14:47.666Z</time></trkpt><trkpt lat="45.404544" lon="8.0891838"><ele>273.0</ele><time>2026-05-03T16:14:48.656Z</time></trkpt><trkpt lat="45.4047415" lon="8.0891606"><ele>275.0</ele><time>2026-05-03T16:14:49.649Z</time></trkpt><trkpt lat="45.4049267" lon="8.0891216"><ele>277.0</ele><time>2026-05-03T16:14:50.649Z</time></trkpt><trkpt lat="45.4050868" lon="8.0890508"><ele>278.66666666666663</ele><time>2026-05-03T16:14:51.644Z</time></trkpt><trkpt lat="45.4052448" lon="8.0890304"><ele>280.3333333333333</ele><time>2026-05-03T16:14:52.656Z</time></trkpt><trkpt lat="45.4054095" lon="8.0889956"><ele>282.0</ele><time>2026-05-03T16:14:53.653Z</time></trkpt><trkpt lat="45.4055535" lon="8.08896"><ele>282.25</ele><time>2026-05-03T16:14:54.655Z</time></trkpt><trkpt lat="45.4057008" lon="8.0889308"><ele>282.5</ele><time>2026-05-03T16:14:55.643Z</time></trkpt><trkpt lat="45.4058389" lon="8.088887"><ele>282.75</ele><time>2026-05-03T16:14:56.645Z</time></trkpt><trkpt lat="45.4059815" lon="8.0888371"><ele>283.0</ele><time>2026-05-03T16:14:57.65Z</time></trkpt><trkpt lat="45.4061183" lon="8.0887518"><ele>283.0</ele><time>2026-05-03T16:14:58.64Z</time></trkpt><trkpt lat="45.4061891" lon="8.0886948"><ele>283.0</ele><time>2026-05-03T16:14:59.647Z</time></trkpt><trkpt lat="45.4062223" lon="8.0885595"><ele>283.0</ele><time>2026-05-03T16:15:00.63Z</time></trkpt><trkpt lat="45.4062419" lon="8.0883804"><ele>283.0</ele><time>2026-05-03T16:15:01.652Z</time></trkpt><trkpt lat="45.4062553" lon="8.0881627"><ele>282.0</ele><time>2026-05-03T16:15:02.636Z</time></trkpt><trkpt lat="45.4062674" lon="8.0879223"><ele>281.0</ele><time>2026-05-03T16:15:03.641Z</time></trkpt><trkpt lat="45.4062667" lon="8.0876755"><ele>280.0</ele><time>2026-05-03T16:15:04.654Z</time></trkpt><trkpt lat="45.4062879" lon="8.087433"><ele>280.0</ele><time>2026-05-03T16:15:05.646Z</time></trkpt><trkpt lat="45.4063168" lon="8.0871978"><ele>280.0</ele><time>2026-05-03T16:15:06.657Z</time></trkpt><trkpt lat="45.4063737" lon="8.0869409"><ele>280.0</ele><time>2026-05-03T16:15:07.66Z</time></trkpt><trkpt lat="45.4064195" lon="8.0866829"><ele>281.3333333333333</ele><time>2026-05-03T16:15:08.656Z</time></trkpt><trkpt lat="45.4064495" lon="8.0864398"><ele>282.6666666666667</ele><time>2026-05-03T16:15:09.65Z</time></trkpt><trkpt lat="45.4064887" lon="8.086201"><ele>284.0</ele><time>2026-05-03T16:15:10.658Z</time></trkpt><trkpt lat="45.406504" lon="8.0859625"><ele>284.33333333333337</ele><time>2026-05-03T16:15:11.66Z</time></trkpt><trkpt lat="45.4065205" lon="8.0857057"><ele>284.6666666666667</ele><time>2026-05-03T16:15:12.65Z</time></trkpt><trkpt lat="45.4065365" lon="8.0854154"><ele>285.0</ele><time>2026-05-03T16:15:13.651Z</time></trkpt><trkpt lat="45.4065586" lon="8.0851384"><ele>285.3333333333333</ele><time>2026-05-03T16:15:14.658Z</time></trkpt><trkpt lat="45.4065794" lon="8.0848344"><ele>285.66666666666663</ele><time>2026-05-03T16:15:15.657Z</time></trkpt><trkpt lat="45.4066156" lon="8.0845591"><ele>286.0</ele><time>2026-05-03T16:15:16.656Z</time></trkpt><trkpt lat="45.4066499" lon="8.0843182"><ele>286.3333333333333</ele><time>2026-05-03T16:15:17.656Z</time></trkpt><trkpt lat="45.4066495" lon="8.0840561"><ele>286.6666666666667</ele><time>2026-05-03T16:15:18.659Z</time></trkpt><trkpt lat="45.4066885" lon="8.0838022"><ele>287.0</ele><time>2026-05-03T16:15:19.657Z</time></trkpt><trkpt lat="45.4067224" lon="8.0835373"><ele>287.33333333333337</ele><time>2026-05-03T16:15:20.657Z</time></trkpt><trkpt lat="45.4067741" lon="8.0832575"><ele>287.6666666666667</ele><time>2026-05-03T16:15:21.657Z</time></trkpt><trkpt lat="45.4068443" lon="8.0829945"><ele>288.0</ele><time>2026-05-03T16:15:22.65Z</time></trkpt><trkpt lat="45.4069127" lon="8.0827258"><ele>288.0</ele><time>2026-05-03T16:15:23.654Z</time></trkpt><trkpt lat="45.4070061" lon="8.0824561"><ele>288.0</ele><time>2026-05-03T16:15:24.652Z</time></trkpt><trkpt lat="45.4071075" lon="8.0821498"><ele>288.0</ele><time>2026-05-03T16:15:25.645Z</time></trkpt><trkpt lat="45.4072395" lon="8.0818821"><ele>288.6666666666667</ele><time>2026-05-03T16:15:26.658Z</time></trkpt><trkpt lat="45.407389" lon="8.0816575"><ele>289.33333333333337</ele><time>2026-05-03T16:15:27.66Z</time></trkpt><trkpt lat="45.407518" lon="8.081425"><ele>290.0</ele><time>2026-05-03T16:15:28.656Z</time></trkpt><trkpt lat="45.4076651" lon="8.0812106"><ele>290.33333333333337</ele><time>2026-05-03T16:15:29.667Z</time></trkpt><trkpt lat="45.4077904" lon="8.0809583"><ele>290.6666666666667</ele><time>2026-05-03T16:15:30.658Z</time></trkpt><trkpt lat="45.4079322" lon="8.0807232"><ele>291.0</ele><time>2026-05-03T16:15:31.655Z</time></trkpt><trkpt lat="45.4080577" lon="8.0805048"><ele>294.3333333333333</ele><time>2026-05-03T16:15:32.652Z</time></trkpt><trkpt lat="45.4081744" lon="8.0802816"><ele>297.66666666666663</ele><time>2026-05-03T16:15:33.651Z</time></trkpt><trkpt lat="45.408288" lon="8.0800417"><ele>301.0</ele><time>2026-05-03T16:15:34.65Z</time></trkpt><trkpt lat="45.4084152" lon="8.0797668"><ele>303.0</ele><time>2026-05-03T16:15:35.656Z</time></trkpt><trkpt lat="45.4085408" lon="8.0795116"><ele>305.0</ele><time>2026-05-03T16:15:36.645Z</time></trkpt><trkpt lat="45.4086729" lon="8.0792599"><ele>307.0</ele><time>2026-05-03T16:15:37.647Z</time></trkpt><trkpt lat="45.4088189" lon="8.0789938"><ele>306.3333333333333</ele><time>2026-05-03T16:15:38.64Z</time></trkpt><trkpt lat="45.4089474" lon="8.0787428"><ele>305.6666666666667</ele><time>2026-05-03T16:15:39.646Z</time></trkpt><trkpt lat="45.4090663" lon="8.0784711"><ele>305.0</ele><time>2026-05-03T16:15:40.641Z</time></trkpt><trkpt lat="45.4091913" lon="8.0782283"><ele>305.0</ele><time>2026-05-03T16:15:41.64Z</time></trkpt><trkpt lat="45.409337" lon="8.0779878"><ele>305.0</ele><time>2026-05-03T16:15:42.639Z</time></trkpt><trkpt lat="45.4094928" lon="8.0777817"><ele>305.0</ele><time>2026-05-03T16:15:43.65Z</time></trkpt><trkpt lat="45.4096764" lon="8.0775472"><ele>300.0</ele><time>2026-05-03T16:15:44.647Z</time></trkpt><trkpt lat="45.4098608" lon="8.077307"><ele>295.0</ele><time>2026-05-03T16:15:45.643Z</time></trkpt><trkpt lat="45.4100381" lon="8.0770905"><ele>295.0</ele><time>2026-05-03T16:15:46.647Z</time></trkpt><trkpt lat="45.4102268" lon="8.0768624"><ele>295.0</ele><time>2026-05-03T16:15:47.65Z</time></trkpt><trkpt lat="45.4103951" lon="8.0766966"><ele>294.0</ele><time>2026-05-03T16:15:48.663Z</time></trkpt><trkpt lat="45.4105691" lon="8.0764844"><ele>293.0</ele><time>2026-05-03T16:15:49.66Z</time></trkpt><trkpt lat="45.4107499" lon="8.0762902"><ele>293.0</ele><time>2026-05-03T16:15:50.659Z</time></trkpt><trkpt lat="45.4109143" lon="8.0761011"><ele>293.0</ele><time>2026-05-03T16:15:51.662Z</time></trkpt><trkpt lat="45.4110871" lon="8.075927"><ele>293.0</ele><time>2026-05-03T16:15:52.658Z</time></trkpt><trkpt lat="45.4112385" lon="8.0757636"><ele>294.6666666666667</ele><time>2026-05-03T16:15:53.663Z</time></trkpt><trkpt lat="45.4113764" lon="8.0755871"><ele>296.3333333333333</ele><time>2026-05-03T16:15:54.664Z</time></trkpt><trkpt lat="45.4115034" lon="8.075422"><ele>298.0</ele><time>2026-05-03T16:15:55.663Z</time></trkpt><trkpt lat="45.4116258" lon="8.0752342"><ele>298.0</ele><time>2026-05-03T16:15:56.661Z</time></trkpt><trkpt lat="45.4117216" lon="8.0750798"><ele>298.0</ele><time>2026-05-03T16:15:57.664Z</time></trkpt><trkpt lat="45.4118085" lon="8.0749515"><ele>298.0</ele><time>2026-05-03T16:15:58.657Z</time></trkpt><trkpt lat="45.4119042" lon="8.0748195"><ele>298.0</ele><time>2026-05-03T16:15:59.667Z</time></trkpt><trkpt lat="45.4119703" lon="8.0747077"><ele>297.8333333333333</ele><time>2026-05-03T16:16:00.653Z</time></trkpt><trkpt lat="45.4120425" lon="8.0746252"><ele>297.66666666666663</ele><time>2026-05-03T16:16:01.656Z</time></trkpt><trkpt lat="45.4121069" lon="8.0745405"><ele>297.5</ele><time>2026-05-03T16:16:02.645Z</time></trkpt><trkpt lat="45.4121701" lon="8.0745106"><ele>297.3333333333333</ele><time>2026-05-03T16:16:03.642Z</time></trkpt><trkpt lat="45.4121671" lon="8.0743998"><ele>297.1666666666667</ele><time>2026-05-03T16:16:04.635Z</time></trkpt><trkpt lat="45.4121947" lon="8.0742836"><ele>297.0</ele><time>2026-05-03T16:16:05.636Z</time></trkpt><trkpt lat="45.4122036" lon="8.0741783"><ele>295.75</ele><time>2026-05-03T16:16:06.636Z</time></trkpt><trkpt lat="45.4121726" lon="8.0740694"><ele>294.5</ele><time>2026-05-03T16:16:07.627Z</time></trkpt><trkpt lat="45.4121262" lon="8.0739219"><ele>293.25</ele><time>2026-05-03T16:16:08.63Z</time></trkpt><trkpt lat="45.4121015" lon="8.0737398"><ele>292.0</ele><time>2026-05-03T16:16:09.639Z</time></trkpt><trkpt lat="45.4121287" lon="8.0735542"><ele>292.0</ele><time>2026-05-03T16:16:10.643Z</time></trkpt><trkpt lat="45.4121578" lon="8.0733782"><ele>292.0</ele><time>2026-05-03T16:16:11.651Z</time></trkpt><trkpt lat="45.4121808" lon="8.0732184"><ele>292.0</ele><time>2026-05-03T16:16:12.651Z</time></trkpt><trkpt lat="45.4122227" lon="8.0730437"><ele>292.0</ele><time>2026-05-03T16:16:13.648Z</time></trkpt><trkpt lat="45.4122849" lon="8.072834"><ele>291.66666666666663</ele><time>2026-05-03T16:16:14.649Z</time></trkpt><trkpt lat="45.4123864" lon="8.0725617"><ele>291.3333333333333</ele><time>2026-05-03T16:16:15.645Z</time></trkpt><trkpt lat="45.4124756" lon="8.0723404"><ele>291.0</ele><time>2026-05-03T16:16:16.654Z</time></trkpt><trkpt lat="45.4125566" lon="8.0721108"><ele>289.0</ele><time>2026-05-03T16:16:17.651Z</time></trkpt><trkpt lat="45.4126416" lon="8.0718657"><ele>287.0</ele><time>2026-05-03T16:16:18.65Z</time></trkpt><trkpt lat="45.4127481" lon="8.071676"><ele>285.0</ele><time>2026-05-03T16:16:19.654Z</time></trkpt><trkpt lat="45.4128679" lon="8.0714915"><ele>287.0</ele><time>2026-05-03T16:16:20.654Z</time></trkpt><trkpt lat="45.4129952" lon="8.0713168"><ele>289.0</ele><time>2026-05-03T16:16:21.651Z</time></trkpt><trkpt lat="45.4131068" lon="8.0711549"><ele>291.0</ele><time>2026-05-03T16:16:22.651Z</time></trkpt><trkpt lat="45.4132181" lon="8.0709636"><ele>288.0</ele><time>2026-05-03T16:16:23.649Z</time></trkpt><trkpt lat="45.4133106" lon="8.0707543"><ele>285.0</ele><time>2026-05-03T16:16:24.651Z</time></trkpt><trkpt lat="45.413421" lon="8.070556"><ele>282.0</ele><time>2026-05-03T16:16:25.646Z</time></trkpt><trkpt lat="45.4135502" lon="8.0703814"><ele>282.0</ele><time>2026-05-03T16:16:26.653Z</time></trkpt><trkpt lat="45.4136693" lon="8.0701989"><ele>282.0</ele><time>2026-05-03T16:16:27.647Z</time></trkpt><trkpt lat="45.4137868" lon="8.0699939"><ele>282.0</ele><time>2026-05-03T16:16:28.646Z</time></trkpt><trkpt lat="45.4138864" lon="8.0698093"><ele>284.0</ele><time>2026-05-03T16:16:29.656Z</time></trkpt><trkpt lat="45.4139893" lon="8.0696627"><ele>286.0</ele><time>2026-05-03T16:16:30.646Z</time></trkpt><trkpt lat="45.4140798" lon="8.0694812"><ele>288.0</ele><time>2026-05-03T16:16:31.651Z</time></trkpt><trkpt lat="45.4141812" lon="8.0692987"><ele>288.0</ele><time>2026-05-03T16:16:32.648Z</time></trkpt><trkpt lat="45.4142845" lon="8.0691184"><ele>288.0</ele><time>2026-05-03T16:16:33.642Z</time></trkpt><trkpt lat="45.414378" lon="8.0689463"><ele>288.0</ele><time>2026-05-03T16:16:34.646Z</time></trkpt><trkpt lat="45.4144873" lon="8.06877"><ele>289.3333333333333</ele><time>2026-05-03T16:16:35.642Z</time></trkpt><trkpt lat="45.4146134" lon="8.0686055"><ele>290.66666666666663</ele><time>2026-05-03T16:16:36.648Z</time></trkpt><trkpt lat="45.4147439" lon="8.0684384"><ele>292.0</ele><time>2026-05-03T16:16:37.644Z</time></trkpt><trkpt lat="45.4148675" lon="8.0682682"><ele>288.3333333333333</ele><time>2026-05-03T16:16:38.645Z</time></trkpt><trkpt lat="45.4150026" lon="8.0680877"><ele>284.6666666666667</ele><time>2026-05-03T16:16:39.657Z</time></trkpt><trkpt lat="45.4151293" lon="8.0678869"><ele>281.0</ele><time>2026-05-03T16:16:40.648Z</time></trkpt><trkpt lat="45.4152407" lon="8.067736"><ele>281.0</ele><time>2026-05-03T16:16:41.648Z</time></trkpt><trkpt lat="45.4153505" lon="8.0675808"><ele>281.0</ele><time>2026-05-03T16:16:42.652Z</time></trkpt><trkpt lat="45.4154466" lon="8.06744"><ele>281.0</ele><time>2026-05-03T16:16:43.65Z</time></trkpt><trkpt lat="45.4155429" lon="8.0672707"><ele>281.0</ele><time>2026-05-03T16:16:44.67Z</time></trkpt><trkpt lat="45.4156594" lon="8.0671265"><ele>282.33333333333337</ele><time>2026-05-03T16:16:45.658Z</time></trkpt><trkpt lat="45.4157775" lon="8.0669755"><ele>283.6666666666667</ele><time>2026-05-03T16:16:46.663Z</time></trkpt><trkpt lat="45.4159145" lon="8.0668049"><ele>285.0</ele><time>2026-05-03T16:16:47.657Z</time></trkpt><trkpt lat="45.4160341" lon="8.066651"><ele>285.25</ele><time>2026-05-03T16:16:48.658Z</time></trkpt><trkpt lat="45.4161433" lon="8.0665301"><ele>285.5</ele><time>2026-05-03T16:16:49.658Z</time></trkpt><trkpt lat="45.4162592" lon="8.0664054"><ele>285.75</ele><time>2026-05-03T16:16:50.661Z</time></trkpt><trkpt lat="45.4163765" lon="8.0662828"><ele>286.0</ele><time>2026-05-03T16:16:51.66Z</time></trkpt><trkpt lat="45.4165132" lon="8.0661168"><ele>286.0</ele><time>2026-05-03T16:16:52.667Z</time></trkpt><trkpt lat="45.4166458" lon="8.0660142"><ele>286.0</ele><time>2026-05-03T16:16:53.661Z</time></trkpt><trkpt lat="45.4167684" lon="8.0658732"><ele>286.0</ele><time>2026-05-03T16:16:54.668Z</time></trkpt><trkpt lat="45.4168708" lon="8.0657846"><ele>286.0</ele><time>2026-05-03T16:16:55.664Z</time></trkpt><trkpt lat="45.416968" lon="8.0656961"><ele>286.5</ele><time>2026-05-03T16:16:56.664Z</time></trkpt><trkpt lat="45.4170793" lon="8.0655964"><ele>287.0</ele><time>2026-05-03T16:16:57.666Z</time></trkpt><trkpt lat="45.4171856" lon="8.0654988"><ele>287.5</ele><time>2026-05-03T16:16:58.672Z</time></trkpt><trkpt lat="45.4172959" lon="8.065365"><ele>288.0</ele><time>2026-05-03T16:16:59.671Z</time></trkpt><trkpt lat="45.4174162" lon="8.0652687"><ele>288.0</ele><time>2026-05-03T16:17:00.665Z</time></trkpt><trkpt lat="45.4175109" lon="8.0651108"><ele>288.0</ele><time>2026-05-03T16:17:01.688Z</time></trkpt><trkpt lat="45.4176347" lon="8.0649934"><ele>288.0</ele><time>2026-05-03T16:17:02.667Z</time></trkpt><trkpt lat="45.4177529" lon="8.0648672"><ele>288.0</ele><time>2026-05-03T16:17:03.669Z</time></trkpt><trkpt lat="45.4178548" lon="8.0647315"><ele>287.75</ele><time>2026-05-03T16:17:04.669Z</time></trkpt><trkpt lat="45.4179658" lon="8.064612"><ele>287.5</ele><time>2026-05-03T16:17:05.663Z</time></trkpt><trkpt lat="45.4180549" lon="8.0644624"><ele>287.25</ele><time>2026-05-03T16:17:06.663Z</time></trkpt><trkpt lat="45.4181296" lon="8.0643156"><ele>287.0</ele><time>2026-05-03T16:17:07.667Z</time></trkpt><trkpt lat="45.4182269" lon="8.0641539"><ele>286.25</ele><time>2026-05-03T16:17:08.665Z</time></trkpt><trkpt lat="45.4183043" lon="8.0639765"><ele>285.5</ele><time>2026-05-03T16:17:09.666Z</time></trkpt><trkpt lat="45.4183929" lon="8.0638034"><ele>284.75</ele><time>2026-05-03T16:17:10.665Z</time></trkpt><trkpt lat="45.4184745" lon="8.0636247"><ele>284.0</ele><time>2026-05-03T16:17:11.667Z</time></trkpt><trkpt lat="45.4185457" lon="8.0634417"><ele>284.0</ele><time>2026-05-03T16:17:12.665Z</time></trkpt><trkpt lat="45.4186449" lon="8.063307"><ele>284.0</ele><time>2026-05-03T16:17:13.664Z</time></trkpt><trkpt lat="45.4187179" lon="8.0631643"><ele>284.0</ele><time>2026-05-03T16:17:14.665Z</time></trkpt><trkpt lat="45.4187924" lon="8.0630028"><ele>284.0</ele><time>2026-05-03T16:17:15.664Z</time></trkpt><trkpt lat="45.4188582" lon="8.0628482"><ele>283.6666666666667</ele><time>2026-05-03T16:17:16.671Z</time></trkpt><trkpt lat="45.4189393" lon="8.0626492"><ele>283.3333333333333</ele><time>2026-05-03T16:17:17.666Z</time></trkpt><trkpt lat="45.419052" lon="8.0624798"><ele>283.0</ele><time>2026-05-03T16:17:18.671Z</time></trkpt><trkpt lat="45.419128" lon="8.0623023"><ele>281.66666666666663</ele><time>2026-05-03T16:17:19.668Z</time></trkpt><trkpt lat="45.4192086" lon="8.0621049"><ele>280.3333333333333</ele><time>2026-05-03T16:17:20.666Z</time></trkpt><trkpt lat="45.4193004" lon="8.0618993"><ele>279.0</ele><time>2026-05-03T16:17:21.67Z</time></trkpt><trkpt lat="45.4194016" lon="8.0616982"><ele>278.6666666666667</ele><time>2026-05-03T16:17:22.662Z</time></trkpt><trkpt lat="45.4194756" lon="8.0614939"><ele>278.33333333333337</ele><time>2026-05-03T16:17:23.662Z</time></trkpt><trkpt lat="45.4195604" lon="8.0613064"><ele>278.0</ele><time>2026-05-03T16:17:24.662Z</time></trkpt><trkpt lat="45.4196616" lon="8.0611547"><ele>278.75</ele><time>2026-05-03T16:17:25.662Z</time></trkpt><trkpt lat="45.4197493" lon="8.0609504"><ele>279.5</ele><time>2026-05-03T16:17:26.663Z</time></trkpt><trkpt lat="45.4198132" lon="8.0607958"><ele>280.25</ele><time>2026-05-03T16:17:27.657Z</time></trkpt><trkpt lat="45.4198814" lon="8.060651"><ele>281.0</ele><time>2026-05-03T16:17:28.662Z</time></trkpt><trkpt lat="45.4199363" lon="8.0605138"><ele>281.0</ele><time>2026-05-03T16:17:29.665Z</time></trkpt><trkpt lat="45.4200096" lon="8.0603812"><ele>281.0</ele><time>2026-05-03T16:17:30.667Z</time></trkpt><trkpt lat="45.4200506" lon="8.0602206"><ele>281.0</ele><time>2026-05-03T16:17:31.676Z</time></trkpt><trkpt lat="45.4201395" lon="8.0600643"><ele>281.0</ele><time>2026-05-03T16:17:32.675Z</time></trkpt><trkpt lat="45.4202344" lon="8.0598936"><ele>281.0</ele><time>2026-05-03T16:17:33.669Z</time></trkpt><trkpt lat="45.4203031" lon="8.0597355"><ele>281.0</ele><time>2026-05-03T16:17:34.671Z</time></trkpt><trkpt lat="45.420385" lon="8.0596207"><ele>281.0</ele><time>2026-05-03T16:17:35.669Z</time></trkpt><trkpt lat="45.4204548" lon="8.0594947"><ele>281.0</ele><time>2026-05-03T16:17:36.67Z</time></trkpt><trkpt lat="45.4205379" lon="8.0593631"><ele>281.5</ele><time>2026-05-03T16:17:37.662Z</time></trkpt><trkpt lat="45.4206153" lon="8.0592018"><ele>282.0</ele><time>2026-05-03T16:17:38.674Z</time></trkpt><trkpt lat="45.4206714" lon="8.059054"><ele>282.5</ele><time>2026-05-03T16:17:39.673Z</time></trkpt><trkpt lat="45.4207594" lon="8.0589229"><ele>283.0</ele><time>2026-05-03T16:17:40.667Z</time></trkpt><trkpt lat="45.4208016" lon="8.0588234"><ele>282.16666666666663</ele><time>2026-05-03T16:17:41.67Z</time></trkpt><trkpt lat="45.420845" lon="8.0587133"><ele>281.3333333333333</ele><time>2026-05-03T16:17:42.662Z</time></trkpt><trkpt lat="45.4208866" lon="8.0586049"><ele>280.5</ele><time>2026-05-03T16:17:43.667Z</time></trkpt><trkpt lat="45.4209264" lon="8.0584979"><ele>279.6666666666667</ele><time>2026-05-03T16:17:44.67Z</time></trkpt><trkpt lat="45.42096" lon="8.0584015"><ele>278.83333333333337</ele><time>2026-05-03T16:17:45.665Z</time></trkpt><trkpt lat="45.4209894" lon="8.0583025"><ele>278.0</ele><time>2026-05-03T16:17:46.665Z</time></trkpt><trkpt lat="45.4210138" lon="8.0582132"><ele>277.4</ele><time>2026-05-03T16:17:47.672Z</time></trkpt><trkpt lat="45.4210386" lon="8.0580922"><ele>276.8</ele><time>2026-05-03T16:17:49.668Z</time></trkpt><trkpt lat="45.4210768" lon="8.0579933"><ele>276.2</ele><time>2026-05-03T16:17:56.656Z</time></trkpt><trkpt lat="45.4211089" lon="8.0578712"><ele>275.6</ele><time>2026-05-03T16:17:58.666Z</time></trkpt><trkpt lat="45.4211657" lon="8.0577292"><ele>275.0</ele><time>2026-05-03T16:18:00.66Z</time></trkpt><trkpt lat="45.421211" lon="8.0576315"><ele>275.0</ele><time>2026-05-03T16:18:01.669Z</time></trkpt><trkpt lat="45.4212477" lon="8.0575222"><ele>275.0</ele><time>2026-05-03T16:18:02.665Z</time></trkpt><trkpt lat="45.4212751" lon="8.0574097"><ele>275.0</ele><time>2026-05-03T16:18:03.661Z</time></trkpt><trkpt lat="45.4212907" lon="8.0573046"><ele>275.0</ele><time>2026-05-03T16:18:04.664Z</time></trkpt><trkpt lat="45.4212924" lon="8.057183"><ele>275.0</ele><time>2026-05-03T16:18:05.663Z</time></trkpt><trkpt lat="45.4212939" lon="8.0570428"><ele>275.0</ele><time>2026-05-03T16:18:06.665Z</time></trkpt><trkpt lat="45.4213072" lon="8.0569035"><ele>276.75</ele><time>2026-05-03T16:18:07.663Z</time></trkpt><trkpt lat="45.4213307" lon="8.0567483"><ele>278.5</ele><time>2026-05-03T16:18:08.666Z</time></trkpt><trkpt lat="45.4213502" lon="8.0565865"><ele>280.25</ele><time>2026-05-03T16:18:09.673Z</time></trkpt><trkpt lat="45.4213826" lon="8.0564131"><ele>282.0</ele><time>2026-05-03T16:18:10.674Z</time></trkpt><trkpt lat="45.4214241" lon="8.0562582"><ele>282.0</ele><time>2026-05-03T16:18:11.674Z</time></trkpt><trkpt lat="45.4214626" lon="8.0560974"><ele>282.0</ele><time>2026-05-03T16:18:12.67Z</time></trkpt><trkpt lat="45.4215031" lon="8.0559466"><ele>282.0</ele><time>2026-05-03T16:18:13.669Z</time></trkpt><trkpt lat="45.4215349" lon="8.0557882"><ele>282.0</ele><time>2026-05-03T16:18:14.678Z</time></trkpt><trkpt lat="45.4215722" lon="8.0556234"><ele>281.25</ele><time>2026-05-03T16:18:15.672Z</time></trkpt><trkpt lat="45.4216142" lon="8.0554549"><ele>280.5</ele><time>2026-05-03T16:18:16.665Z</time></trkpt><trkpt lat="45.4216542" lon="8.0552875"><ele>279.75</ele><time>2026-05-03T16:18:17.671Z</time></trkpt><trkpt lat="45.4216872" lon="8.0551218"><ele>279.0</ele><time>2026-05-03T16:18:18.674Z</time></trkpt><trkpt lat="45.4217217" lon="8.0549564"><ele>278.5</ele><time>2026-05-03T16:18:19.671Z</time></trkpt><trkpt lat="45.4217533" lon="8.0547908"><ele>278.0</ele><time>2026-05-03T16:18:20.669Z</time></trkpt><trkpt lat="45.4217811" lon="8.0546232"><ele>277.5</ele><time>2026-05-03T16:18:21.671Z</time></trkpt><trkpt lat="45.421809" lon="8.0544715"><ele>277.0</ele><time>2026-05-03T16:18:22.668Z</time></trkpt><trkpt lat="45.4218399" lon="8.0543012"><ele>277.0</ele><time>2026-05-03T16:18:23.676Z</time></trkpt><trkpt lat="45.4218766" lon="8.0541233"><ele>277.0</ele><time>2026-05-03T16:18:24.668Z</time></trkpt><trkpt lat="45.4219058" lon="8.053943"><ele>277.0</ele><time>2026-05-03T16:18:25.668Z</time></trkpt><trkpt lat="45.4219399" lon="8.0537608"><ele>277.0</ele><time>2026-05-03T16:18:26.663Z</time></trkpt><trkpt lat="45.4219693" lon="8.0535811"><ele>276.0</ele><time>2026-05-03T16:18:27.669Z</time></trkpt><trkpt lat="45.4220008" lon="8.0534026"><ele>275.0</ele><time>2026-05-03T16:18:28.662Z</time></trkpt><trkpt lat="45.4220417" lon="8.0532269"><ele>274.0</ele><time>2026-05-03T16:18:29.668Z</time></trkpt><trkpt lat="45.4220771" lon="8.0530571"><ele>273.0</ele><time>2026-05-03T16:18:30.665Z</time></trkpt><trkpt lat="45.4221081" lon="8.0529018"><ele>273.0</ele><time>2026-05-03T16:18:31.664Z</time></trkpt><trkpt lat="45.4221426" lon="8.0527475"><ele>273.0</ele><time>2026-05-03T16:18:32.668Z</time></trkpt><trkpt lat="45.4221694" lon="8.0525952"><ele>273.0</ele><time>2026-05-03T16:18:33.662Z</time></trkpt><trkpt lat="45.4221984" lon="8.0524487"><ele>273.0</ele><time>2026-05-03T16:18:34.656Z</time></trkpt><trkpt lat="45.4222338" lon="8.0523124"><ele>273.0</ele><time>2026-05-03T16:18:35.66Z</time></trkpt><trkpt lat="45.4222699" lon="8.0522352"><ele>273.0</ele><time>2026-05-03T16:18:37.664Z</time></trkpt><trkpt lat="45.4223209" lon="8.0521079"><ele>273.0</ele><time>2026-05-03T16:18:42.658Z</time></trkpt><trkpt lat="45.4223734" lon="8.0519868"><ele>273.0</ele><time>2026-05-03T16:18:43.657Z</time></trkpt><trkpt lat="45.422449" lon="8.0518603"><ele>273.0</ele><time>2026-05-03T16:18:44.659Z</time></trkpt><trkpt lat="45.4225338" lon="8.0517356"><ele>273.0</ele><time>2026-05-03T16:18:45.65Z</time></trkpt><trkpt lat="45.422642" lon="8.0516154"><ele>271.0</ele><time>2026-05-03T16:18:46.653Z</time></trkpt><trkpt lat="45.4227734" lon="8.0515212"><ele>269.0</ele><time>2026-05-03T16:18:47.661Z</time></trkpt><trkpt lat="45.4229145" lon="8.0514201"><ele>267.0</ele><time>2026-05-03T16:18:48.654Z</time></trkpt><trkpt lat="45.4230751" lon="8.0512932"><ele>267.0</ele><time>2026-05-03T16:18:49.651Z</time></trkpt><trkpt lat="45.4232206" lon="8.0511965"><ele>267.0</ele><time>2026-05-03T16:18:50.657Z</time></trkpt><trkpt lat="45.4233714" lon="8.0510845"><ele>267.0</ele><time>2026-05-03T16:18:51.654Z</time></trkpt><trkpt lat="45.4235211" lon="8.0510114"><ele>267.0</ele><time>2026-05-03T16:18:52.657Z</time></trkpt><trkpt lat="45.4236784" lon="8.0508925"><ele>267.0</ele><time>2026-05-03T16:18:53.659Z</time></trkpt><trkpt lat="45.4238311" lon="8.0507677"><ele>267.0</ele><time>2026-05-03T16:18:54.666Z</time></trkpt><trkpt lat="45.4239908" lon="8.0506807"><ele>266.0</ele><time>2026-05-03T16:18:55.652Z</time></trkpt><trkpt lat="45.4241124" lon="8.0505674"><ele>265.0</ele><time>2026-05-03T16:18:56.664Z</time></trkpt><trkpt lat="45.4242611" lon="8.0504611"><ele>264.0</ele><time>2026-05-03T16:18:57.659Z</time></trkpt><trkpt lat="45.4244014" lon="8.0503321"><ele>264.0</ele><time>2026-05-03T16:18:58.665Z</time></trkpt><trkpt lat="45.4245358" lon="8.0501917"><ele>264.0</ele><time>2026-05-03T16:18:59.667Z</time></trkpt><trkpt lat="45.4246688" lon="8.0500729"><ele>264.0</ele><time>2026-05-03T16:19:00.661Z</time></trkpt><trkpt lat="45.4248024" lon="8.0499358"><ele>263.0</ele><time>2026-05-03T16:19:01.672Z</time></trkpt><trkpt lat="45.4249356" lon="8.0498028"><ele>262.0</ele><time>2026-05-03T16:19:02.669Z</time></trkpt><trkpt lat="45.4250578" lon="8.0496658"><ele>261.0</ele><time>2026-05-03T16:19:03.665Z</time></trkpt><trkpt lat="45.4251962" lon="8.0495346"><ele>261.0</ele><time>2026-05-03T16:19:04.668Z</time></trkpt><trkpt lat="45.4253179" lon="8.0493894"><ele>261.0</ele><time>2026-05-03T16:19:05.672Z</time></trkpt><trkpt lat="45.4254449" lon="8.0492477"><ele>261.0</ele><time>2026-05-03T16:19:06.668Z</time></trkpt><trkpt lat="45.4255547" lon="8.0491273"><ele>261.5</ele><time>2026-05-03T16:19:07.67Z</time></trkpt><trkpt lat="45.4256616" lon="8.0490176"><ele>262.0</ele><time>2026-05-03T16:19:08.671Z</time></trkpt><trkpt lat="45.4257726" lon="8.0488848"><ele>262.5</ele><time>2026-05-03T16:19:09.653Z</time></trkpt><trkpt lat="45.4258775" lon="8.0487561"><ele>263.0</ele><time>2026-05-03T16:19:10.655Z</time></trkpt><trkpt lat="45.425976" lon="8.0486192"><ele>263.0</ele><time>2026-05-03T16:19:11.658Z</time></trkpt><trkpt lat="45.4260623" lon="8.0484492"><ele>263.0</ele><time>2026-05-03T16:19:12.656Z</time></trkpt><trkpt lat="45.4261304" lon="8.0482461"><ele>263.0</ele><time>2026-05-03T16:19:13.652Z</time></trkpt><trkpt lat="45.426217" lon="8.0480011"><ele>263.5</ele><time>2026-05-03T16:19:14.656Z</time></trkpt><trkpt lat="45.4263325" lon="8.0477473"><ele>264.0</ele><time>2026-05-03T16:19:15.653Z</time></trkpt><trkpt lat="45.4264878" lon="8.04748"><ele>260.0</ele><time>2026-05-03T16:19:16.651Z</time></trkpt><trkpt lat="45.4266597" lon="8.0472152"><ele>256.0</ele><time>2026-05-03T16:19:17.659Z</time></trkpt><trkpt lat="45.4268005" lon="8.0469395"><ele>256.0</ele><time>2026-05-03T16:19:18.653Z</time></trkpt><trkpt lat="45.4269292" lon="8.0466707"><ele>256.0</ele><time>2026-05-03T16:19:19.653Z</time></trkpt><trkpt lat="45.4270747" lon="8.0464257"><ele>256.3333333333333</ele><time>2026-05-03T16:19:20.655Z</time></trkpt><trkpt lat="45.4272031" lon="8.0462067"><ele>256.6666666666667</ele><time>2026-05-03T16:19:21.661Z</time></trkpt><trkpt lat="45.427364" lon="8.0459704"><ele>257.0</ele><time>2026-05-03T16:19:22.664Z</time></trkpt><trkpt lat="45.4275155" lon="8.0457593"><ele>257.0</ele><time>2026-05-03T16:19:23.661Z</time></trkpt><trkpt lat="45.4276865" lon="8.0455387"><ele>257.0</ele><time>2026-05-03T16:19:24.66Z</time></trkpt><trkpt lat="45.4278446" lon="8.0453317"><ele>257.0</ele><time>2026-05-03T16:19:25.656Z</time></trkpt><trkpt lat="45.4280071" lon="8.0451358"><ele>253.33333333333334</ele><time>2026-05-03T16:19:26.671Z</time></trkpt><trkpt lat="45.4281977" lon="8.0449423"><ele>249.66666666666669</ele><time>2026-05-03T16:19:27.662Z</time></trkpt><trkpt lat="45.4283535" lon="8.0447595"><ele>246.0</ele><time>2026-05-03T16:19:28.67Z</time></trkpt><trkpt lat="45.4285114" lon="8.0445613"><ele>246.0</ele><time>2026-05-03T16:19:29.665Z</time></trkpt><trkpt lat="45.4286605" lon="8.0443595"><ele>246.0</ele><time>2026-05-03T16:19:30.671Z</time></trkpt><trkpt lat="45.4287927" lon="8.0441924"><ele>246.0</ele><time>2026-05-03T16:19:31.673Z</time></trkpt><trkpt lat="45.4289228" lon="8.0440163"><ele>247.0</ele><time>2026-05-03T16:19:32.663Z</time></trkpt><trkpt lat="45.4290341" lon="8.0438642"><ele>248.0</ele><time>2026-05-03T16:19:33.67Z</time></trkpt><trkpt lat="45.4291529" lon="8.0437017"><ele>249.0</ele><time>2026-05-03T16:19:34.659Z</time></trkpt><trkpt lat="45.4292805" lon="8.0435401"><ele>249.0</ele><time>2026-05-03T16:19:35.666Z</time></trkpt><trkpt lat="45.4294074" lon="8.0433436"><ele>249.0</ele><time>2026-05-03T16:19:36.667Z</time></trkpt><trkpt lat="45.4295088" lon="8.0431706"><ele>249.0</ele><time>2026-05-03T16:19:37.663Z</time></trkpt><trkpt lat="45.4296003" lon="8.0430065"><ele>249.0</ele><time>2026-05-03T16:19:38.669Z</time></trkpt><trkpt lat="45.4296758" lon="8.0428389"><ele>249.0</ele><time>2026-05-03T16:19:39.664Z</time></trkpt><trkpt lat="45.4297524" lon="8.042695"><ele>249.0</ele><time>2026-05-03T16:19:40.662Z</time></trkpt><trkpt lat="45.4298217" lon="8.0425403"><ele>249.0</ele><time>2026-05-03T16:19:41.668Z</time></trkpt><trkpt lat="45.4299299" lon="8.0423626"><ele>247.66666666666669</ele><time>2026-05-03T16:19:42.656Z</time></trkpt><trkpt lat="45.4299961" lon="8.0421397"><ele>246.33333333333334</ele><time>2026-05-03T16:19:43.668Z</time></trkpt><trkpt lat="45.4301035" lon="8.0418984"><ele>245.0</ele><time>2026-05-03T16:19:44.655Z</time></trkpt><trkpt lat="45.4302054" lon="8.0416995"><ele>243.0</ele><time>2026-05-03T16:19:45.667Z</time></trkpt><trkpt lat="45.4302849" lon="8.0414626"><ele>241.0</ele><time>2026-05-03T16:19:46.659Z</time></trkpt><trkpt lat="45.430378" lon="8.0412094"><ele>239.0</ele><time>2026-05-03T16:19:47.66Z</time></trkpt><trkpt lat="45.4304572" lon="8.0409401"><ele>240.66666666666669</ele><time>2026-05-03T16:19:48.653Z</time></trkpt><trkpt lat="45.4305565" lon="8.0406443"><ele>242.33333333333331</ele><time>2026-05-03T16:19:49.66Z</time></trkpt><trkpt lat="45.4306387" lon="8.0403606"><ele>244.0</ele><time>2026-05-03T16:19:50.661Z</time></trkpt><trkpt lat="45.4307203" lon="8.0400908"><ele>243.33333333333331</ele><time>2026-05-03T16:19:51.656Z</time></trkpt><trkpt lat="45.430795" lon="8.0398007"><ele>242.66666666666669</ele><time>2026-05-03T16:19:52.659Z</time></trkpt><trkpt lat="45.4308753" lon="8.0395224"><ele>242.0</ele><time>2026-05-03T16:19:53.669Z</time></trkpt><trkpt lat="45.4309597" lon="8.0392384"><ele>241.66666666666669</ele><time>2026-05-03T16:19:54.672Z</time></trkpt><trkpt lat="45.4310214" lon="8.0389048"><ele>241.33333333333331</ele><time>2026-05-03T16:19:55.669Z</time></trkpt><trkpt lat="45.4311207" lon="8.0386609"><ele>241.0</ele><time>2026-05-03T16:19:56.662Z</time></trkpt><trkpt lat="45.4312306" lon="8.038382"><ele>242.33333333333331</ele><time>2026-05-03T16:19:57.667Z</time></trkpt><trkpt lat="45.4313427" lon="8.0381092"><ele>243.66666666666669</ele><time>2026-05-03T16:19:58.662Z</time></trkpt><trkpt lat="45.4314654" lon="8.0378606"><ele>245.0</ele><time>2026-05-03T16:19:59.663Z</time></trkpt><trkpt lat="45.4315902" lon="8.0376042"><ele>243.66666666666669</ele><time>2026-05-03T16:20:00.655Z</time></trkpt><trkpt lat="45.4317478" lon="8.0373466"><ele>242.33333333333331</ele><time>2026-05-03T16:20:01.666Z</time></trkpt><trkpt lat="45.4318813" lon="8.0371228"><ele>241.0</ele><time>2026-05-03T16:20:02.655Z</time></trkpt><trkpt lat="45.4319863" lon="8.0369273"><ele>241.0</ele><time>2026-05-03T16:20:03.656Z</time></trkpt><trkpt lat="45.4320974" lon="8.0367159"><ele>241.0</ele><time>2026-05-03T16:20:04.655Z</time></trkpt><trkpt lat="45.4321977" lon="8.0365079"><ele>241.0</ele><time>2026-05-03T16:20:05.657Z</time></trkpt><trkpt lat="45.4323065" lon="8.0363142"><ele>241.66666666666666</ele><time>2026-05-03T16:20:06.658Z</time></trkpt><trkpt lat="45.4324136" lon="8.0361056"><ele>242.33333333333331</ele><time>2026-05-03T16:20:07.657Z</time></trkpt><trkpt lat="45.4325006" lon="8.0359143"><ele>243.0</ele><time>2026-05-03T16:20:08.658Z</time></trkpt><trkpt lat="45.4325498" lon="8.0356645"><ele>243.0</ele><time>2026-05-03T16:20:09.651Z</time></trkpt><trkpt lat="45.4325881" lon="8.0354008"><ele>243.0</ele><time>2026-05-03T16:20:10.662Z</time></trkpt><trkpt lat="45.4326481" lon="8.0351589"><ele>243.0</ele><time>2026-05-03T16:20:11.655Z</time></trkpt><trkpt lat="45.4326619" lon="8.0348642"><ele>242.66666666666669</ele><time>2026-05-03T16:20:12.656Z</time></trkpt><trkpt lat="45.432655" lon="8.0345645"><ele>242.33333333333334</ele><time>2026-05-03T16:20:13.652Z</time></trkpt><trkpt lat="45.4326308" lon="8.0342982"><ele>242.0</ele><time>2026-05-03T16:20:14.653Z</time></trkpt><trkpt lat="45.4325916" lon="8.0340194"><ele>242.0</ele><time>2026-05-03T16:20:15.648Z</time></trkpt><trkpt lat="45.4325428" lon="8.0337329"><ele>242.0</ele><time>2026-05-03T16:20:16.655Z</time></trkpt><trkpt lat="45.4324728" lon="8.0334419"><ele>242.0</ele><time>2026-05-03T16:20:17.659Z</time></trkpt><trkpt lat="45.4323696" lon="8.0331612"><ele>242.0</ele><time>2026-05-03T16:20:18.667Z</time></trkpt><trkpt lat="45.4322573" lon="8.0329102"><ele>242.0</ele><time>2026-05-03T16:20:19.655Z</time></trkpt><trkpt lat="45.4321802" lon="8.032641"><ele>242.0</ele><time>2026-05-03T16:20:20.662Z</time></trkpt><trkpt lat="45.4320862" lon="8.0323901"><ele>239.66666666666669</ele><time>2026-05-03T16:20:21.652Z</time></trkpt><trkpt lat="45.4320308" lon="8.0321441"><ele>237.33333333333331</ele><time>2026-05-03T16:20:22.651Z</time></trkpt><trkpt lat="45.4319598" lon="8.0319082"><ele>235.0</ele><time>2026-05-03T16:20:23.652Z</time></trkpt><trkpt lat="45.4319135" lon="8.0317117"><ele>235.2</ele><time>2026-05-03T16:20:24.647Z</time></trkpt><trkpt lat="45.4318952" lon="8.0315646"><ele>235.4</ele><time>2026-05-03T16:20:25.659Z</time></trkpt><trkpt lat="45.4318449" lon="8.0314087"><ele>235.60000000000002</ele><time>2026-05-03T16:20:26.652Z</time></trkpt><trkpt lat="45.4318354" lon="8.0312891"><ele>235.8</ele><time>2026-05-03T16:20:27.646Z</time></trkpt><trkpt lat="45.4318106" lon="8.031106"><ele>236.0</ele><time>2026-05-03T16:20:28.661Z</time></trkpt><trkpt lat="45.4317904" lon="8.0309534"><ele>236.66666666666669</ele><time>2026-05-03T16:20:29.654Z</time></trkpt><trkpt lat="45.4317267" lon="8.0307604"><ele>237.33333333333331</ele><time>2026-05-03T16:20:30.662Z</time></trkpt><trkpt lat="45.4316504" lon="8.0305851"><ele>238.0</ele><time>2026-05-03T16:20:31.656Z</time></trkpt><trkpt lat="45.4315742" lon="8.0303671"><ele>238.0</ele><time>2026-05-03T16:20:32.654Z</time></trkpt><trkpt lat="45.4314766" lon="8.0301297"><ele>238.0</ele><time>2026-05-03T16:20:33.657Z</time></trkpt><trkpt lat="45.4313775" lon="8.0299044"><ele>238.0</ele><time>2026-05-03T16:20:34.664Z</time></trkpt><trkpt lat="45.4312931" lon="8.0296771"><ele>237.33333333333331</ele><time>2026-05-03T16:20:35.652Z</time></trkpt><trkpt lat="45.4312294" lon="8.0294653"><ele>236.66666666666669</ele><time>2026-05-03T16:20:36.651Z</time></trkpt><trkpt lat="45.4311593" lon="8.0292445"><ele>236.0</ele><time>2026-05-03T16:20:37.657Z</time></trkpt><trkpt lat="45.4310871" lon="8.029055"><ele>236.0</ele><time>2026-05-03T16:20:38.661Z</time></trkpt><trkpt lat="45.431033" lon="8.0288618"><ele>236.0</ele><time>2026-05-03T16:20:39.65Z</time></trkpt><trkpt lat="45.4309914" lon="8.0286588"><ele>236.0</ele><time>2026-05-03T16:20:40.646Z</time></trkpt><trkpt lat="45.4309444" lon="8.0285161"><ele>236.0</ele><time>2026-05-03T16:20:41.647Z</time></trkpt><trkpt lat="45.4308864" lon="8.0283441"><ele>236.33333333333334</ele><time>2026-05-03T16:20:42.655Z</time></trkpt><trkpt lat="45.4308717" lon="8.0280915"><ele>236.66666666666669</ele><time>2026-05-03T16:20:43.654Z</time></trkpt><trkpt lat="45.4308791" lon="8.0278191"><ele>237.0</ele><time>2026-05-03T16:20:44.659Z</time></trkpt><trkpt lat="45.4309069" lon="8.0275644"><ele>236.0</ele><time>2026-05-03T16:20:45.654Z</time></trkpt><trkpt lat="45.4309239" lon="8.027297"><ele>235.0</ele><time>2026-05-03T16:20:46.658Z</time></trkpt><trkpt lat="45.4309818" lon="8.0270464"><ele>234.0</ele><time>2026-05-03T16:20:47.656Z</time></trkpt><trkpt lat="45.4310575" lon="8.026799"><ele>233.66666666666669</ele><time>2026-05-03T16:20:48.653Z</time></trkpt><trkpt lat="45.4311785" lon="8.0265365"><ele>233.33333333333334</ele><time>2026-05-03T16:20:49.658Z</time></trkpt><trkpt lat="45.4313247" lon="8.0263252"><ele>233.0</ele><time>2026-05-03T16:20:50.648Z</time></trkpt><trkpt lat="45.4314605" lon="8.026087"><ele>233.66666666666669</ele><time>2026-05-03T16:20:51.655Z</time></trkpt><trkpt lat="45.4316247" lon="8.0258472"><ele>234.33333333333331</ele><time>2026-05-03T16:20:52.656Z</time></trkpt><trkpt lat="45.4317746" lon="8.0256536"><ele>235.0</ele><time>2026-05-03T16:20:53.666Z</time></trkpt><trkpt lat="45.4319312" lon="8.0254346"><ele>235.0</ele><time>2026-05-03T16:20:54.66Z</time></trkpt><trkpt lat="45.4320758" lon="8.0252106"><ele>235.0</ele><time>2026-05-03T16:20:55.67Z</time></trkpt><trkpt lat="45.4322382" lon="8.0249844"><ele>235.0</ele><time>2026-05-03T16:20:56.666Z</time></trkpt><trkpt lat="45.432394" lon="8.024729"><ele>234.0</ele><time>2026-05-03T16:20:57.659Z</time></trkpt><trkpt lat="45.4325597" lon="8.0244493"><ele>233.0</ele><time>2026-05-03T16:20:58.663Z</time></trkpt><trkpt lat="45.4327006" lon="8.0241686"><ele>233.0</ele><time>2026-05-03T16:20:59.669Z</time></trkpt><trkpt lat="45.4328357" lon="8.023879"><ele>233.0</ele><time>2026-05-03T16:21:00.665Z</time></trkpt><trkpt lat="45.4329665" lon="8.0235738"><ele>233.5</ele><time>2026-05-03T16:21:01.671Z</time></trkpt><trkpt lat="45.4331233" lon="8.0232949"><ele>234.0</ele><time>2026-05-03T16:21:02.665Z</time></trkpt><trkpt lat="45.4332671" lon="8.0229956"><ele>234.0</ele><time>2026-05-03T16:21:03.663Z</time></trkpt><trkpt lat="45.4334101" lon="8.0226702"><ele>234.0</ele><time>2026-05-03T16:21:04.673Z</time></trkpt><trkpt lat="45.4335533" lon="8.022366"><ele>233.5</ele><time>2026-05-03T16:21:05.666Z</time></trkpt><trkpt lat="45.4337013" lon="8.0220803"><ele>233.0</ele><time>2026-05-03T16:21:06.67Z</time></trkpt><trkpt lat="45.4338527" lon="8.0217952"><ele>232.5</ele><time>2026-05-03T16:21:07.666Z</time></trkpt><trkpt lat="45.434005" lon="8.021479"><ele>232.0</ele><time>2026-05-03T16:21:08.67Z</time></trkpt><trkpt lat="45.4341743" lon="8.0211801"><ele>232.0</ele><time>2026-05-03T16:21:09.663Z</time></trkpt><trkpt lat="45.4343348" lon="8.0208722"><ele>232.0</ele><time>2026-05-03T16:21:10.665Z</time></trkpt><trkpt lat="45.4344882" lon="8.0205773"><ele>233.0</ele><time>2026-05-03T16:21:11.663Z</time></trkpt><trkpt lat="45.4346403" lon="8.0202782"><ele>234.0</ele><time>2026-05-03T16:21:12.67Z</time></trkpt><trkpt lat="45.4347848" lon="8.0199684"><ele>234.5</ele><time>2026-05-03T16:21:13.666Z</time></trkpt><trkpt lat="45.4349383" lon="8.0196814"><ele>235.0</ele><time>2026-05-03T16:21:14.666Z</time></trkpt><trkpt lat="45.4350863" lon="8.0193816"><ele>234.0</ele><time>2026-05-03T16:21:15.667Z</time></trkpt><trkpt lat="45.4352391" lon="8.0190856"><ele>233.0</ele><time>2026-05-03T16:21:16.665Z</time></trkpt><trkpt lat="45.4353913" lon="8.018786"><ele>232.5</ele><time>2026-05-03T16:21:17.668Z</time></trkpt><trkpt lat="45.4355396" lon="8.0185007"><ele>232.0</ele><time>2026-05-03T16:21:18.666Z</time></trkpt><trkpt lat="45.4356859" lon="8.0182032"><ele>232.0</ele><time>2026-05-03T16:21:19.667Z</time></trkpt><trkpt lat="45.4358301" lon="8.0179278"><ele>232.0</ele><time>2026-05-03T16:21:20.672Z</time></trkpt><trkpt lat="45.4359875" lon="8.0176485"><ele>232.5</ele><time>2026-05-03T16:21:21.665Z</time></trkpt><trkpt lat="45.4361501" lon="8.0173309"><ele>233.0</ele><time>2026-05-03T16:21:22.671Z</time></trkpt><trkpt lat="45.436305" lon="8.0169967"><ele>233.0</ele><time>2026-05-03T16:21:23.669Z</time></trkpt><trkpt lat="45.4364617" lon="8.0166596"><ele>233.0</ele><time>2026-05-03T16:21:24.666Z</time></trkpt><trkpt lat="45.4366363" lon="8.0162997"><ele>233.0</ele><time>2026-05-03T16:21:25.667Z</time></trkpt><trkpt lat="45.4368097" lon="8.0159082"><ele>233.0</ele><time>2026-05-03T16:21:26.667Z</time></trkpt><trkpt lat="45.436987" lon="8.0155411"><ele>233.5</ele><time>2026-05-03T16:21:27.66Z</time></trkpt><trkpt lat="45.4371682" lon="8.0152409"><ele>234.0</ele><time>2026-05-03T16:21:28.668Z</time></trkpt><trkpt lat="45.4373226" lon="8.0149238"><ele>234.0</ele><time>2026-05-03T16:21:29.677Z</time></trkpt><trkpt lat="45.43746" lon="8.0146301"><ele>234.0</ele><time>2026-05-03T16:21:30.662Z</time></trkpt><trkpt lat="45.4376039" lon="8.0143576"><ele>233.5</ele><time>2026-05-03T16:21:31.674Z</time></trkpt><trkpt lat="45.4377426" lon="8.014077"><ele>233.0</ele><time>2026-05-03T16:21:32.667Z</time></trkpt><trkpt lat="45.4378817" lon="8.0137884"><ele>233.0</ele><time>2026-05-03T16:21:33.664Z</time></trkpt><trkpt lat="45.4380271" lon="8.0135139"><ele>233.0</ele><time>2026-05-03T16:21:34.667Z</time></trkpt><trkpt lat="45.438161" lon="8.013279"><ele>233.0</ele><time>2026-05-03T16:21:35.662Z</time></trkpt><trkpt lat="45.4382895" lon="8.0130095"><ele>233.0</ele><time>2026-05-03T16:21:36.67Z</time></trkpt><trkpt lat="45.4384188" lon="8.0127412"><ele>233.0</ele><time>2026-05-03T16:21:37.668Z</time></trkpt><trkpt lat="45.4385524" lon="8.0125018"><ele>233.0</ele><time>2026-05-03T16:21:38.666Z</time></trkpt><trkpt lat="45.438686" lon="8.0122214"><ele>232.5</ele><time>2026-05-03T16:21:39.67Z</time></trkpt><trkpt lat="45.4388136" lon="8.0119399"><ele>232.0</ele><time>2026-05-03T16:21:40.663Z</time></trkpt><trkpt lat="45.4389526" lon="8.0116641"><ele>232.66666666666666</ele><time>2026-05-03T16:21:41.665Z</time></trkpt><trkpt lat="45.4390811" lon="8.0114291"><ele>233.33333333333331</ele><time>2026-05-03T16:21:42.671Z</time></trkpt><trkpt lat="45.4392115" lon="8.0111672"><ele>234.0</ele><time>2026-05-03T16:21:43.671Z</time></trkpt><trkpt lat="45.4393479" lon="8.0109156"><ele>234.33333333333331</ele><time>2026-05-03T16:21:44.671Z</time></trkpt><trkpt lat="45.4394891" lon="8.0106622"><ele>234.66666666666666</ele><time>2026-05-03T16:21:45.665Z</time></trkpt><trkpt lat="45.4396211" lon="8.0104212"><ele>235.0</ele><time>2026-05-03T16:21:46.655Z</time></trkpt><trkpt lat="45.4397456" lon="8.0101793"><ele>235.33333333333331</ele><time>2026-05-03T16:21:47.659Z</time></trkpt><trkpt lat="45.4398715" lon="8.0099321"><ele>235.66666666666669</ele><time>2026-05-03T16:21:48.665Z</time></trkpt><trkpt lat="45.4400033" lon="8.0096904"><ele>236.0</ele><time>2026-05-03T16:21:49.651Z</time></trkpt><trkpt lat="45.4401317" lon="8.0094394"><ele>236.0</ele><time>2026-05-03T16:21:50.658Z</time></trkpt><trkpt lat="45.440251" lon="8.0091942"><ele>236.0</ele><time>2026-05-03T16:21:51.66Z</time></trkpt><trkpt lat="45.4403921" lon="8.008937"><ele>236.0</ele><time>2026-05-03T16:21:52.662Z</time></trkpt><trkpt lat="45.4405199" lon="8.0086792"><ele>235.66666666666669</ele><time>2026-05-03T16:21:53.665Z</time></trkpt><trkpt lat="45.4406368" lon="8.0084506"><ele>235.33333333333331</ele><time>2026-05-03T16:21:54.672Z</time></trkpt><trkpt lat="45.4407542" lon="8.0082288"><ele>235.0</ele><time>2026-05-03T16:21:55.667Z</time></trkpt><trkpt lat="45.4408785" lon="8.0079725"><ele>235.0</ele><time>2026-05-03T16:21:56.659Z</time></trkpt><trkpt lat="45.4409974" lon="8.0077247"><ele>235.0</ele><time>2026-05-03T16:21:57.666Z</time></trkpt><trkpt lat="45.4411196" lon="8.0074861"><ele>235.0</ele><time>2026-05-03T16:21:58.66Z</time></trkpt><trkpt lat="45.4412293" lon="8.007271"><ele>235.33333333333331</ele><time>2026-05-03T16:21:59.661Z</time></trkpt><trkpt lat="45.4413455" lon="8.0070565"><ele>235.66666666666669</ele><time>2026-05-03T16:22:00.664Z</time></trkpt><trkpt lat="45.4414328" lon="8.0068341"><ele>236.0</ele><time>2026-05-03T16:22:01.67Z</time></trkpt><trkpt lat="45.4415282" lon="8.0066358"><ele>236.0</ele><time>2026-05-03T16:22:02.659Z</time></trkpt><trkpt lat="45.4416327" lon="8.0064238"><ele>236.0</ele><time>2026-05-03T16:22:03.662Z</time></trkpt><trkpt lat="45.4417381" lon="8.0061911"><ele>236.0</ele><time>2026-05-03T16:22:04.658Z</time></trkpt><trkpt lat="45.441848" lon="8.0059693"><ele>236.0</ele><time>2026-05-03T16:22:05.664Z</time></trkpt><trkpt lat="45.4419541" lon="8.0057579"><ele>236.0</ele><time>2026-05-03T16:22:06.664Z</time></trkpt><trkpt lat="45.4420663" lon="8.0055655"><ele>236.0</ele><time>2026-05-03T16:22:07.664Z</time></trkpt><trkpt lat="45.4421788" lon="8.0053416"><ele>236.0</ele><time>2026-05-03T16:22:08.66Z</time></trkpt><trkpt lat="45.4422912" lon="8.0051216"><ele>236.0</ele><time>2026-05-03T16:22:09.661Z</time></trkpt><trkpt lat="45.4423822" lon="8.0049221"><ele>236.0</ele><time>2026-05-03T16:22:10.661Z</time></trkpt><trkpt lat="45.4424846" lon="8.0047054"><ele>236.0</ele><time>2026-05-03T16:22:11.664Z</time></trkpt><trkpt lat="45.442581" lon="8.0045218"><ele>236.0</ele><time>2026-05-03T16:22:12.66Z</time></trkpt><trkpt lat="45.4426761" lon="8.0043172"><ele>236.0</ele><time>2026-05-03T16:22:13.663Z</time></trkpt><trkpt lat="45.4427796" lon="8.0041145"><ele>236.0</ele><time>2026-05-03T16:22:14.664Z</time></trkpt><trkpt lat="45.442889" lon="8.0039112"><ele>236.0</ele><time>2026-05-03T16:22:15.662Z</time></trkpt><trkpt lat="45.4429994" lon="8.0037419"><ele>236.0</ele><time>2026-05-03T16:22:16.666Z</time></trkpt><trkpt lat="45.4430933" lon="8.0035456"><ele>236.0</ele><time>2026-05-03T16:22:17.66Z</time></trkpt><trkpt lat="45.4431828" lon="8.0033477"><ele>236.0</ele><time>2026-05-03T16:22:18.664Z</time></trkpt><trkpt lat="45.4432704" lon="8.003185"><ele>236.0</ele><time>2026-05-03T16:22:19.661Z</time></trkpt><trkpt lat="45.4433327" lon="8.0030147"><ele>236.0</ele><time>2026-05-03T16:22:20.66Z</time></trkpt><trkpt lat="45.443409" lon="8.0028512"><ele>236.0</ele><time>2026-05-03T16:22:21.664Z</time></trkpt><trkpt lat="45.4434922" lon="8.0026859"><ele>236.0</ele><time>2026-05-03T16:22:22.66Z</time></trkpt><trkpt lat="45.4435881" lon="8.0025162"><ele>236.0</ele><time>2026-05-03T16:22:23.66Z</time></trkpt><trkpt lat="45.4436545" lon="8.002377"><ele>236.0</ele><time>2026-05-03T16:22:24.664Z</time></trkpt><trkpt lat="45.4437239" lon="8.0022137"><ele>236.0</ele><time>2026-05-03T16:22:25.659Z</time></trkpt><trkpt lat="45.4438083" lon="8.0020995"><ele>236.0</ele><time>2026-05-03T16:22:26.658Z</time></trkpt><trkpt lat="45.4438983" lon="8.002039"><ele>236.0</ele><time>2026-05-03T16:22:27.649Z</time></trkpt><trkpt lat="45.4440107" lon="8.0020377"><ele>236.0</ele><time>2026-05-03T16:22:28.655Z</time></trkpt><trkpt lat="45.4441631" lon="8.0021176"><ele>236.0</ele><time>2026-05-03T16:22:29.652Z</time></trkpt><trkpt lat="45.4443071" lon="8.0021966"><ele>236.0</ele><time>2026-05-03T16:22:30.64Z</time></trkpt><trkpt lat="45.4444796" lon="8.0022176"><ele>236.0</ele><time>2026-05-03T16:22:31.648Z</time></trkpt></trkseg></trk></gpx>